<?xml version='1.0' encoding='UTF-8'?><gpx version="1.1" creator="JPX - https://github.com/jenetics/jpx" xmlns="http://www.topografix.com/GPX/1/1"><trk><trkseg><trkpt lat="42.8877704" lon="11.5133943"><ele>671.0</ele><time>2026-04-09T08:23:40.997Z</time></trkpt><trkpt lat="42.8877061" lon="11.5133819"><ele>671.0</ele><time>2026-04-09T08:23:41.989Z</time></trkpt><trkpt lat="42.8876359" lon="11.5134114"><ele>671.0</ele><time>2026-04-09T08:23:44.988Z</time></trkpt><trkpt lat="42.8875543" lon="11.5133706"><ele>671.0</ele><time>2026-04-09T08:23:47.987Z</time></trkpt><trkpt lat="42.8876517" lon="11.5133021"><ele>671.0</ele><time>2026-04-09T08:23:50.984Z</time></trkpt><trkpt lat="42.8877132" lon="11.513375"><ele>671.0</ele><time>2026-04-09T08:23:54.985Z</time></trkpt><trkpt lat="42.8877268" lon="11.51329"><ele>671.0</ele><time>2026-04-09T08:25:18.426Z</time></trkpt><trkpt lat="42.8877859" lon="11.5132222"><ele>671.0</ele><time>2026-04-09T08:28:11.425Z</time></trkpt><trkpt lat="42.8878058" lon="11.5131283"><ele>671.0</ele><time>2026-04-09T08:28:16.422Z</time></trkpt><trkpt lat="42.8878767" lon="11.5130688"><ele>671.0</ele><time>2026-04-09T08:28:20.425Z</time></trkpt><trkpt lat="42.887948" lon="11.5130288"><ele>671.0</ele><time>2026-04-09T08:28:23.422Z</time></trkpt><trkpt lat="42.8880178" lon="11.5130253"><ele>671.0</ele><time>2026-04-09T08:28:27.428Z</time></trkpt><trkpt lat="42.8880856" lon="11.5129969"><ele>671.0</ele><time>2026-04-09T08:28:36.419Z</time></trkpt><trkpt lat="42.888155" lon="11.5130009"><ele>671.0</ele><time>2026-04-09T08:28:40.419Z</time></trkpt><trkpt lat="42.8881896" lon="11.5130766"><ele>671.0</ele><time>2026-04-09T08:28:44.421Z</time></trkpt><trkpt lat="42.8882131" lon="11.5131674"><ele>671.0</ele><time>2026-04-09T08:28:48.431Z</time></trkpt><trkpt lat="42.8882348" lon="11.513295"><ele>671.0</ele><time>2026-04-09T08:28:51.425Z</time></trkpt><trkpt lat="42.8881861" lon="11.5133707"><ele>671.0</ele><time>2026-04-09T08:28:54.421Z</time></trkpt><trkpt lat="42.8881904" lon="11.513511"><ele>671.0</ele><time>2026-04-09T08:28:57.454Z</time></trkpt><trkpt lat="42.888174" lon="11.5136137"><ele>671.0</ele><time>2026-04-09T08:28:59.425Z</time></trkpt><trkpt lat="42.8881569" lon="11.5137321"><ele>671.0</ele><time>2026-04-09T08:29:01.439Z</time></trkpt><trkpt lat="42.8881426" lon="11.5138301"><ele>671.0</ele><time>2026-04-09T08:29:03.435Z</time></trkpt><trkpt lat="42.8881078" lon="11.5139033"><ele>671.0</ele><time>2026-04-09T08:29:05.444Z</time></trkpt><trkpt lat="42.8880353" lon="11.513967"><ele>671.0</ele><time>2026-04-09T08:29:08.436Z</time></trkpt><trkpt lat="42.887972" lon="11.5140009"><ele>667.5</ele><time>2026-04-09T08:29:10.434Z</time></trkpt><trkpt lat="42.887917" lon="11.5141128"><ele>664.0</ele><time>2026-04-09T08:29:13.435Z</time></trkpt><trkpt lat="42.8878871" lon="11.5142189"><ele>660.5</ele><time>2026-04-09T08:29:15.439Z</time></trkpt><trkpt lat="42.8878661" lon="11.5143413"><ele>657.0</ele><time>2026-04-09T08:29:17.423Z</time></trkpt><trkpt lat="42.8878543" lon="11.5144401"><ele>653.5</ele><time>2026-04-09T08:29:19.461Z</time></trkpt><trkpt lat="42.8878121" lon="11.5145477"><ele>650.0</ele><time>2026-04-09T08:29:21.434Z</time></trkpt><trkpt lat="42.8877775" lon="11.5146623"><ele>647.8</ele><time>2026-04-09T08:29:23.437Z</time></trkpt><trkpt lat="42.8877453" lon="11.5147726"><ele>645.6</ele><time>2026-04-09T08:29:25.435Z</time></trkpt><trkpt lat="42.8877052" lon="11.5148809"><ele>643.4</ele><time>2026-04-09T08:29:27.44Z</time></trkpt><trkpt lat="42.887665" lon="11.5150015"><ele>641.2</ele><time>2026-04-09T08:29:29.432Z</time></trkpt><trkpt lat="42.8876315" lon="11.5151115"><ele>639.0</ele><time>2026-04-09T08:29:31.44Z</time></trkpt><trkpt lat="42.8875973" lon="11.51523"><ele>639.0</ele><time>2026-04-09T08:29:33.442Z</time></trkpt><trkpt lat="42.8875695" lon="11.5153318"><ele>639.0</ele><time>2026-04-09T08:29:37.443Z</time></trkpt><trkpt lat="42.8875459" lon="11.5154344"><ele>639.0</ele><time>2026-04-09T08:29:40.448Z</time></trkpt><trkpt lat="42.8876277" lon="11.5154083"><ele>639.0</ele><time>2026-04-09T08:29:46.44Z</time></trkpt><trkpt lat="42.8877132" lon="11.5153312"><ele>639.0</ele><time>2026-04-09T08:29:48.439Z</time></trkpt><trkpt lat="42.8878229" lon="11.5152461"><ele>639.0</ele><time>2026-04-09T08:29:50.442Z</time></trkpt><trkpt lat="42.8878739" lon="11.5151919"><ele>639.0</ele><time>2026-04-09T08:29:51.442Z</time></trkpt><trkpt lat="42.8879535" lon="11.5150882"><ele>639.0</ele><time>2026-04-09T08:29:53.449Z</time></trkpt><trkpt lat="42.8880345" lon="11.5149857"><ele>639.0</ele><time>2026-04-09T08:29:55.434Z</time></trkpt><trkpt lat="42.8881244" lon="11.5148719"><ele>639.0</ele><time>2026-04-09T08:29:57.449Z</time></trkpt><trkpt lat="42.8882049" lon="11.5147544"><ele>639.0</ele><time>2026-04-09T08:29:59.425Z</time></trkpt><trkpt lat="42.8882786" lon="11.5146408"><ele>639.0</ele><time>2026-04-09T08:30:01.441Z</time></trkpt><trkpt lat="42.8883493" lon="11.5145497"><ele>639.0</ele><time>2026-04-09T08:30:03.437Z</time></trkpt><trkpt lat="42.8884449" lon="11.514579"><ele>639.0</ele><time>2026-04-09T08:30:05.431Z</time></trkpt><trkpt lat="42.8884923" lon="11.5147183"><ele>639.0</ele><time>2026-04-09T08:30:07.431Z</time></trkpt><trkpt lat="42.8884953" lon="11.5148065"><ele>639.0</ele><time>2026-04-09T08:30:08.431Z</time></trkpt><trkpt lat="42.8884751" lon="11.5149611"><ele>639.0</ele><time>2026-04-09T08:30:10.439Z</time></trkpt><trkpt lat="42.8884454" lon="11.5151026"><ele>639.0</ele><time>2026-04-09T08:30:12.437Z</time></trkpt><trkpt lat="42.8884044" lon="11.5152471"><ele>639.0</ele><time>2026-04-09T08:30:14.432Z</time></trkpt><trkpt lat="42.8883185" lon="11.5153666"><ele>636.0</ele><time>2026-04-09T08:30:16.431Z</time></trkpt><trkpt lat="42.8882253" lon="11.5154762"><ele>633.0</ele><time>2026-04-09T08:30:18.45Z</time></trkpt><trkpt lat="42.8881582" lon="11.515605"><ele>630.0</ele><time>2026-04-09T08:30:20.453Z</time></trkpt><trkpt lat="42.8881109" lon="11.5157606"><ele>627.0</ele><time>2026-04-09T08:30:22.441Z</time></trkpt><trkpt lat="42.8880966" lon="11.5158573"><ele>624.0</ele><time>2026-04-09T08:30:23.44Z</time></trkpt><trkpt lat="42.8880839" lon="11.51595"><ele>624.0</ele><time>2026-04-09T08:30:24.441Z</time></trkpt><trkpt lat="42.8880606" lon="11.5160977"><ele>624.0</ele><time>2026-04-09T08:30:26.438Z</time></trkpt><trkpt lat="42.8880333" lon="11.5162147"><ele>624.0</ele><time>2026-04-09T08:30:28.439Z</time></trkpt><trkpt lat="42.8879853" lon="11.5163271"><ele>624.0</ele><time>2026-04-09T08:30:30.449Z</time></trkpt><trkpt lat="42.8879168" lon="11.5164157"><ele>624.0</ele><time>2026-04-09T08:30:32.443Z</time></trkpt><trkpt lat="42.8878272" lon="11.5164853"><ele>623.2</ele><time>2026-04-09T08:30:34.442Z</time></trkpt><trkpt lat="42.887738" lon="11.5165159"><ele>622.4</ele><time>2026-04-09T08:30:36.463Z</time></trkpt><trkpt lat="42.8876524" lon="11.516556"><ele>621.6</ele><time>2026-04-09T08:30:38.453Z</time></trkpt><trkpt lat="42.8875293" lon="11.5166162"><ele>620.8</ele><time>2026-04-09T08:30:40.455Z</time></trkpt><trkpt lat="42.88745" lon="11.5166549"><ele>620.0</ele><time>2026-04-09T08:30:41.429Z</time></trkpt><trkpt lat="42.8873707" lon="11.516692"><ele>620.0</ele><time>2026-04-09T08:30:42.457Z</time></trkpt><trkpt lat="42.8872965" lon="11.5167248"><ele>620.0</ele><time>2026-04-09T08:30:43.429Z</time></trkpt><trkpt lat="42.8872089" lon="11.5167454"><ele>620.0</ele><time>2026-04-09T08:30:44.464Z</time></trkpt><trkpt lat="42.8871149" lon="11.5167804"><ele>620.0</ele><time>2026-04-09T08:30:45.472Z</time></trkpt><trkpt lat="42.8870282" lon="11.5168354"><ele>620.0</ele><time>2026-04-09T08:30:46.453Z</time></trkpt><trkpt lat="42.8869518" lon="11.5168878"><ele>620.0</ele><time>2026-04-09T08:30:47.445Z</time></trkpt><trkpt lat="42.8868921" lon="11.5169466"><ele>620.0</ele><time>2026-04-09T08:30:48.448Z</time></trkpt><trkpt lat="42.8868269" lon="11.5169943"><ele>620.0</ele><time>2026-04-09T08:30:49.441Z</time></trkpt><trkpt lat="42.8867636" lon="11.517046"><ele>620.0</ele><time>2026-04-09T08:30:50.432Z</time></trkpt><trkpt lat="42.8867239" lon="11.5171135"><ele>620.0</ele><time>2026-04-09T08:30:51.454Z</time></trkpt><trkpt lat="42.8867046" lon="11.5172028"><ele>620.0</ele><time>2026-04-09T08:30:52.44Z</time></trkpt><trkpt lat="42.8867182" lon="11.5172971"><ele>620.0</ele><time>2026-04-09T08:30:53.453Z</time></trkpt><trkpt lat="42.8867988" lon="11.5174179"><ele>616.6</ele><time>2026-04-09T08:30:55.463Z</time></trkpt><trkpt lat="42.8868729" lon="11.5174813"><ele>613.2</ele><time>2026-04-09T08:30:56.438Z</time></trkpt><trkpt lat="42.8869429" lon="11.5175802"><ele>609.8</ele><time>2026-04-09T08:30:57.436Z</time></trkpt><trkpt lat="42.8870068" lon="11.5176821"><ele>606.4</ele><time>2026-04-09T08:30:58.464Z</time></trkpt><trkpt lat="42.887036" lon="11.517806"><ele>603.0</ele><time>2026-04-09T08:30:59.44Z</time></trkpt><trkpt lat="42.8870444" lon="11.517938"><ele>601.0</ele><time>2026-04-09T08:31:00.442Z</time></trkpt><trkpt lat="42.8870244" lon="11.518077"><ele>599.0</ele><time>2026-04-09T08:31:01.436Z</time></trkpt><trkpt lat="42.8870008" lon="11.5182206"><ele>597.0</ele><time>2026-04-09T08:31:02.44Z</time></trkpt><trkpt lat="42.886961" lon="11.5183872"><ele>595.0</ele><time>2026-04-09T08:31:03.444Z</time></trkpt><trkpt lat="42.8869225" lon="11.5185455"><ele>595.0</ele><time>2026-04-09T08:31:04.425Z</time></trkpt><trkpt lat="42.8868761" lon="11.5187165"><ele>595.0</ele><time>2026-04-09T08:31:05.438Z</time></trkpt><trkpt lat="42.8868352" lon="11.5188946"><ele>595.0</ele><time>2026-04-09T08:31:06.433Z</time></trkpt><trkpt lat="42.8867943" lon="11.5190622"><ele>595.0</ele><time>2026-04-09T08:31:07.424Z</time></trkpt><trkpt lat="42.8867633" lon="11.5192192"><ele>592.6666666666667</ele><time>2026-04-09T08:31:08.432Z</time></trkpt><trkpt lat="42.8867424" lon="11.5193453"><ele>590.3333333333334</ele><time>2026-04-09T08:31:09.422Z</time></trkpt><trkpt lat="42.8867324" lon="11.5194447"><ele>588.0</ele><time>2026-04-09T08:31:10.436Z</time></trkpt><trkpt lat="42.8867305" lon="11.5195405"><ele>585.6666666666666</ele><time>2026-04-09T08:31:11.43Z</time></trkpt><trkpt lat="42.8867725" lon="11.51965"><ele>583.3333333333333</ele><time>2026-04-09T08:31:13.427Z</time></trkpt><trkpt lat="42.8868412" lon="11.5196656"><ele>581.0</ele><time>2026-04-09T08:31:15.441Z</time></trkpt><trkpt lat="42.8869002" lon="11.5196167"><ele>583.25</ele><time>2026-04-09T08:31:16.427Z</time></trkpt><trkpt lat="42.8869532" lon="11.5195246"><ele>585.5</ele><time>2026-04-09T08:31:17.423Z</time></trkpt><trkpt lat="42.887001" lon="11.5193961"><ele>587.75</ele><time>2026-04-09T08:31:18.434Z</time></trkpt><trkpt lat="42.8870497" lon="11.5192351"><ele>590.0</ele><time>2026-04-09T08:31:19.422Z</time></trkpt><trkpt lat="42.8870975" lon="11.5190595"><ele>590.0</ele><time>2026-04-09T08:31:20.437Z</time></trkpt><trkpt lat="42.8871409" lon="11.5188813"><ele>590.0</ele><time>2026-04-09T08:31:21.429Z</time></trkpt><trkpt lat="42.8871842" lon="11.5187054"><ele>590.0</ele><time>2026-04-09T08:31:22.428Z</time></trkpt><trkpt lat="42.8872306" lon="11.5185057"><ele>590.0</ele><time>2026-04-09T08:31:23.42Z</time></trkpt><trkpt lat="42.8872806" lon="11.5182465"><ele>591.25</ele><time>2026-04-09T08:31:24.431Z</time></trkpt><trkpt lat="42.8873261" lon="11.5180256"><ele>592.5</ele><time>2026-04-09T08:31:25.437Z</time></trkpt><trkpt lat="42.8873839" lon="11.5178603"><ele>593.75</ele><time>2026-04-09T08:31:26.431Z</time></trkpt><trkpt lat="42.88744" lon="11.5177227"><ele>595.0</ele><time>2026-04-09T08:31:27.432Z</time></trkpt><trkpt lat="42.8875275" lon="11.5176109"><ele>593.75</ele><time>2026-04-09T08:31:28.436Z</time></trkpt><trkpt lat="42.8876363" lon="11.5174961"><ele>592.5</ele><time>2026-04-09T08:31:29.437Z</time></trkpt><trkpt lat="42.8877606" lon="11.5174013"><ele>591.25</ele><time>2026-04-09T08:31:30.441Z</time></trkpt><trkpt lat="42.8878882" lon="11.5173224"><ele>590.0</ele><time>2026-04-09T08:31:31.432Z</time></trkpt><trkpt lat="42.8880436" lon="11.5172652"><ele>590.0</ele><time>2026-04-09T08:31:32.427Z</time></trkpt><trkpt lat="42.8882" lon="11.5172061"><ele>590.0</ele><time>2026-04-09T08:31:33.434Z</time></trkpt><trkpt lat="42.888361" lon="11.5171168"><ele>590.0</ele><time>2026-04-09T08:31:34.425Z</time></trkpt><trkpt lat="42.8884786" lon="11.5170588"><ele>588.75</ele><time>2026-04-09T08:31:35.422Z</time></trkpt><trkpt lat="42.888566" lon="11.5170294"><ele>587.5</ele><time>2026-04-09T08:31:36.44Z</time></trkpt><trkpt lat="42.8886857" lon="11.5169946"><ele>586.25</ele><time>2026-04-09T08:31:37.439Z</time></trkpt><trkpt lat="42.888832" lon="11.5170289"><ele>585.0</ele><time>2026-04-09T08:31:38.438Z</time></trkpt><trkpt lat="42.8890113" lon="11.5170752"><ele>585.0</ele><time>2026-04-09T08:31:39.434Z</time></trkpt><trkpt lat="42.8891671" lon="11.5170743"><ele>585.0</ele><time>2026-04-09T08:31:40.421Z</time></trkpt><trkpt lat="42.8893334" lon="11.5171086"><ele>585.0</ele><time>2026-04-09T08:31:41.43Z</time></trkpt><trkpt lat="42.8895039" lon="11.5171241"><ele>584.3333333333334</ele><time>2026-04-09T08:31:42.436Z</time></trkpt><trkpt lat="42.8896689" lon="11.5171396"><ele>583.6666666666667</ele><time>2026-04-09T08:31:43.436Z</time></trkpt><trkpt lat="42.8898064" lon="11.5171594"><ele>583.0</ele><time>2026-04-09T08:31:44.425Z</time></trkpt><trkpt lat="42.8899682" lon="11.5171731"><ele>582.75</ele><time>2026-04-09T08:31:45.424Z</time></trkpt><trkpt lat="42.8901012" lon="11.517146"><ele>582.5</ele><time>2026-04-09T08:31:46.42Z</time></trkpt><trkpt lat="42.8902381" lon="11.5171085"><ele>582.25</ele><time>2026-04-09T08:31:47.432Z</time></trkpt><trkpt lat="42.8903662" lon="11.5170366"><ele>582.0</ele><time>2026-04-09T08:31:48.424Z</time></trkpt><trkpt lat="42.8904785" lon="11.5169257"><ele>582.0</ele><time>2026-04-09T08:31:49.44Z</time></trkpt><trkpt lat="42.8905968" lon="11.5167892"><ele>582.0</ele><time>2026-04-09T08:31:50.436Z</time></trkpt><trkpt lat="42.8907063" lon="11.5166493"><ele>582.0</ele><time>2026-04-09T08:31:51.418Z</time></trkpt><trkpt lat="42.8908138" lon="11.5165382"><ele>582.0</ele><time>2026-04-09T08:31:52.422Z</time></trkpt><trkpt lat="42.8908953" lon="11.5164305"><ele>581.2</ele><time>2026-04-09T08:31:53.419Z</time></trkpt><trkpt lat="42.8909835" lon="11.5163589"><ele>580.4000000000001</ele><time>2026-04-09T08:31:54.416Z</time></trkpt><trkpt lat="42.8910842" lon="11.5163061"><ele>579.5999999999999</ele><time>2026-04-09T08:31:55.41Z</time></trkpt><trkpt lat="42.8911839" lon="11.5162791"><ele>578.8</ele><time>2026-04-09T08:31:56.414Z</time></trkpt><trkpt lat="42.8912937" lon="11.5162753"><ele>578.0</ele><time>2026-04-09T08:31:57.419Z</time></trkpt><trkpt lat="42.8914007" lon="11.5162963"><ele>578.0</ele><time>2026-04-09T08:31:58.413Z</time></trkpt><trkpt lat="42.8915124" lon="11.5163257"><ele>578.0</ele><time>2026-04-09T08:31:59.418Z</time></trkpt><trkpt lat="42.8916306" lon="11.5164063"><ele>578.0</ele><time>2026-04-09T08:32:00.419Z</time></trkpt><trkpt lat="42.8917704" lon="11.5165089"><ele>578.0</ele><time>2026-04-09T08:32:01.422Z</time></trkpt><trkpt lat="42.8919079" lon="11.5166035"><ele>578.5</ele><time>2026-04-09T08:32:02.417Z</time></trkpt><trkpt lat="42.8920361" lon="11.5166739"><ele>579.0</ele><time>2026-04-09T08:32:03.426Z</time></trkpt><trkpt lat="42.8921569" lon="11.516753"><ele>579.5</ele><time>2026-04-09T08:32:04.422Z</time></trkpt><trkpt lat="42.8922873" lon="11.5168208"><ele>580.0</ele><time>2026-04-09T08:32:05.422Z</time></trkpt><trkpt lat="42.8924225" lon="11.5168834"><ele>580.0</ele><time>2026-04-09T08:32:06.419Z</time></trkpt><trkpt lat="42.8925496" lon="11.5169294"><ele>580.0</ele><time>2026-04-09T08:32:07.42Z</time></trkpt><trkpt lat="42.8926541" lon="11.5170006"><ele>580.0</ele><time>2026-04-09T08:32:08.425Z</time></trkpt><trkpt lat="42.8927345" lon="11.517076"><ele>580.0</ele><time>2026-04-09T08:32:09.423Z</time></trkpt><trkpt lat="42.8928095" lon="11.5171346"><ele>580.0</ele><time>2026-04-09T08:32:10.422Z</time></trkpt><trkpt lat="42.8928911" lon="11.5171807"><ele>578.1666666666667</ele><time>2026-04-09T08:32:11.425Z</time></trkpt><trkpt lat="42.892951" lon="11.517236"><ele>576.3333333333334</ele><time>2026-04-09T08:32:12.425Z</time></trkpt><trkpt lat="42.8930137" lon="11.5172923"><ele>574.5</ele><time>2026-04-09T08:32:13.42Z</time></trkpt><trkpt lat="42.893086" lon="11.517354"><ele>572.6666666666666</ele><time>2026-04-09T08:32:14.425Z</time></trkpt><trkpt lat="42.8931583" lon="11.5174132"><ele>570.8333333333333</ele><time>2026-04-09T08:32:15.426Z</time></trkpt><trkpt lat="42.8932346" lon="11.5174722"><ele>569.0</ele><time>2026-04-09T08:32:16.421Z</time></trkpt><trkpt lat="42.893316" lon="11.5175202"><ele>569.0</ele><time>2026-04-09T08:32:17.42Z</time></trkpt><trkpt lat="42.8934087" lon="11.5175565"><ele>569.0</ele><time>2026-04-09T08:32:18.423Z</time></trkpt><trkpt lat="42.8935151" lon="11.5175695"><ele>569.0</ele><time>2026-04-09T08:32:19.416Z</time></trkpt><trkpt lat="42.8936205" lon="11.5175714"><ele>569.0</ele><time>2026-04-09T08:32:20.426Z</time></trkpt><trkpt lat="42.8937184" lon="11.5175689"><ele>569.0</ele><time>2026-04-09T08:32:21.425Z</time></trkpt><trkpt lat="42.8938116" lon="11.5175459"><ele>569.0</ele><time>2026-04-09T08:32:22.439Z</time></trkpt><trkpt lat="42.8938922" lon="11.51753"><ele>569.0</ele><time>2026-04-09T08:32:23.429Z</time></trkpt><trkpt lat="42.8939656" lon="11.5175333"><ele>569.0</ele><time>2026-04-09T08:32:24.418Z</time></trkpt><trkpt lat="42.894034" lon="11.5175504"><ele>569.0</ele><time>2026-04-09T08:32:25.42Z</time></trkpt><trkpt lat="42.8941128" lon="11.5175959"><ele>569.0</ele><time>2026-04-09T08:32:26.435Z</time></trkpt><trkpt lat="42.8941934" lon="11.5176455"><ele>569.0</ele><time>2026-04-09T08:32:27.425Z</time></trkpt><trkpt lat="42.8942869" lon="11.5176951"><ele>570.0</ele><time>2026-04-09T08:32:28.43Z</time></trkpt><trkpt lat="42.8943975" lon="11.5177236"><ele>571.0</ele><time>2026-04-09T08:32:29.428Z</time></trkpt><trkpt lat="42.8945245" lon="11.5177628"><ele>572.0</ele><time>2026-04-09T08:32:30.422Z</time></trkpt><trkpt lat="42.89466" lon="11.5178102"><ele>573.0</ele><time>2026-04-09T08:32:31.424Z</time></trkpt><trkpt lat="42.894798" lon="11.5178548"><ele>573.0</ele><time>2026-04-09T08:32:32.427Z</time></trkpt><trkpt lat="42.8949296" lon="11.5178995"><ele>573.0</ele><time>2026-04-09T08:32:33.42Z</time></trkpt><trkpt lat="42.8950321" lon="11.5179242"><ele>573.0</ele><time>2026-04-09T08:32:34.426Z</time></trkpt><trkpt lat="42.8951625" lon="11.5179345"><ele>573.0</ele><time>2026-04-09T08:32:35.425Z</time></trkpt><trkpt lat="42.8953022" lon="11.5178938"><ele>571.3333333333334</ele><time>2026-04-09T08:32:36.421Z</time></trkpt><trkpt lat="42.8954369" lon="11.5178283"><ele>569.6666666666667</ele><time>2026-04-09T08:32:37.423Z</time></trkpt><trkpt lat="42.8955808" lon="11.5177395"><ele>568.0</ele><time>2026-04-09T08:32:38.427Z</time></trkpt><trkpt lat="42.8957374" lon="11.5176533"><ele>568.0</ele><time>2026-04-09T08:32:39.414Z</time></trkpt><trkpt lat="42.8958891" lon="11.5175573"><ele>568.0</ele><time>2026-04-09T08:32:40.432Z</time></trkpt><trkpt lat="42.8960558" lon="11.5174566"><ele>568.0</ele><time>2026-04-09T08:32:41.426Z</time></trkpt><trkpt lat="42.8962301" lon="11.5173559"><ele>568.3333333333334</ele><time>2026-04-09T08:32:42.43Z</time></trkpt><trkpt lat="42.8964088" lon="11.517274"><ele>568.6666666666666</ele><time>2026-04-09T08:32:43.423Z</time></trkpt><trkpt lat="42.8965919" lon="11.5171824"><ele>569.0</ele><time>2026-04-09T08:32:44.42Z</time></trkpt><trkpt lat="42.8967764" lon="11.5170856"><ele>568.0</ele><time>2026-04-09T08:32:45.416Z</time></trkpt><trkpt lat="42.8969664" lon="11.5169878"><ele>567.0</ele><time>2026-04-09T08:32:46.419Z</time></trkpt><trkpt lat="42.8971578" lon="11.5168704"><ele>566.0</ele><time>2026-04-09T08:32:47.416Z</time></trkpt><trkpt lat="42.8973531" lon="11.5167887"><ele>566.0</ele><time>2026-04-09T08:32:48.421Z</time></trkpt><trkpt lat="42.8975118" lon="11.5167107"><ele>566.0</ele><time>2026-04-09T08:32:49.42Z</time></trkpt><trkpt lat="42.8976734" lon="11.5166216"><ele>566.0</ele><time>2026-04-09T08:32:50.421Z</time></trkpt><trkpt lat="42.8978459" lon="11.516526"><ele>566.6666666666666</ele><time>2026-04-09T08:32:51.418Z</time></trkpt><trkpt lat="42.8980123" lon="11.5164296"><ele>567.3333333333334</ele><time>2026-04-09T08:32:52.428Z</time></trkpt><trkpt lat="42.8981982" lon="11.5163423"><ele>568.0</ele><time>2026-04-09T08:32:53.423Z</time></trkpt><trkpt lat="42.8983672" lon="11.5162526"><ele>568.6666666666667</ele><time>2026-04-09T08:32:54.427Z</time></trkpt><trkpt lat="42.8985276" lon="11.5161606"><ele>569.3333333333334</ele><time>2026-04-09T08:32:55.425Z</time></trkpt><trkpt lat="42.8986929" lon="11.5160677"><ele>570.0</ele><time>2026-04-09T08:32:56.43Z</time></trkpt><trkpt lat="42.8988598" lon="11.5159768"><ele>570.0</ele><time>2026-04-09T08:32:57.421Z</time></trkpt><trkpt lat="42.8990342" lon="11.5158847"><ele>570.0</ele><time>2026-04-09T08:32:58.426Z</time></trkpt><trkpt lat="42.8992086" lon="11.5157853"><ele>570.0</ele><time>2026-04-09T08:32:59.427Z</time></trkpt><trkpt lat="42.8994003" lon="11.5156985"><ele>569.6666666666666</ele><time>2026-04-09T08:33:00.423Z</time></trkpt><trkpt lat="42.8995794" lon="11.5156092"><ele>569.3333333333333</ele><time>2026-04-09T08:33:01.432Z</time></trkpt><trkpt lat="42.8997554" lon="11.5155237"><ele>569.0</ele><time>2026-04-09T08:33:02.424Z</time></trkpt><trkpt lat="42.8999417" lon="11.5154277"><ele>571.0</ele><time>2026-04-09T08:33:03.429Z</time></trkpt><trkpt lat="42.9001331" lon="11.5153255"><ele>573.0</ele><time>2026-04-09T08:33:04.43Z</time></trkpt><trkpt lat="42.9003247" lon="11.5152358"><ele>575.0</ele><time>2026-04-09T08:33:05.424Z</time></trkpt><trkpt lat="42.9005213" lon="11.5151524"><ele>575.0</ele><time>2026-04-09T08:33:06.424Z</time></trkpt><trkpt lat="42.9007168" lon="11.5150553"><ele>575.0</ele><time>2026-04-09T08:33:07.425Z</time></trkpt><trkpt lat="42.900915" lon="11.5149679"><ele>575.0</ele><time>2026-04-09T08:33:08.42Z</time></trkpt><trkpt lat="42.9011255" lon="11.5148865"><ele>567.0</ele><time>2026-04-09T08:33:09.424Z</time></trkpt><trkpt lat="42.9013212" lon="11.5147969"><ele>559.0</ele><time>2026-04-09T08:33:10.423Z</time></trkpt><trkpt lat="42.9015184" lon="11.5146935"><ele>551.0</ele><time>2026-04-09T08:33:11.418Z</time></trkpt><trkpt lat="42.9017418" lon="11.5146104"><ele>550.0</ele><time>2026-04-09T08:33:12.427Z</time></trkpt><trkpt lat="42.9019404" lon="11.5145214"><ele>549.0</ele><time>2026-04-09T08:33:13.422Z</time></trkpt><trkpt lat="42.9021216" lon="11.5144188"><ele>548.0</ele><time>2026-04-09T08:33:14.426Z</time></trkpt><trkpt lat="42.9022934" lon="11.5143366"><ele>548.0</ele><time>2026-04-09T08:33:15.426Z</time></trkpt><trkpt lat="42.9024528" lon="11.5142659"><ele>548.0</ele><time>2026-04-09T08:33:16.429Z</time></trkpt><trkpt lat="42.9026106" lon="11.514159"><ele>548.0</ele><time>2026-04-09T08:33:17.43Z</time></trkpt><trkpt lat="42.9027755" lon="11.5140594"><ele>544.3333333333333</ele><time>2026-04-09T08:33:18.419Z</time></trkpt><trkpt lat="42.9029169" lon="11.5139338"><ele>540.6666666666666</ele><time>2026-04-09T08:33:19.424Z</time></trkpt><trkpt lat="42.9030288" lon="11.5137828"><ele>537.0</ele><time>2026-04-09T08:33:20.419Z</time></trkpt><trkpt lat="42.9031299" lon="11.5136306"><ele>537.0</ele><time>2026-04-09T08:33:21.426Z</time></trkpt><trkpt lat="42.9032346" lon="11.5134695"><ele>537.0</ele><time>2026-04-09T08:33:22.423Z</time></trkpt><trkpt lat="42.9033426" lon="11.5133079"><ele>537.0</ele><time>2026-04-09T08:33:23.423Z</time></trkpt><trkpt lat="42.9034256" lon="11.5131272"><ele>533.0</ele><time>2026-04-09T08:33:24.421Z</time></trkpt><trkpt lat="42.9034965" lon="11.5129576"><ele>529.0</ele><time>2026-04-09T08:33:25.423Z</time></trkpt><trkpt lat="42.9035636" lon="11.5127906"><ele>525.0</ele><time>2026-04-09T08:33:26.42Z</time></trkpt><trkpt lat="42.9036294" lon="11.5126495"><ele>521.0</ele><time>2026-04-09T08:33:27.421Z</time></trkpt><trkpt lat="42.9036928" lon="11.5125124"><ele>521.0</ele><time>2026-04-09T08:33:28.42Z</time></trkpt><trkpt lat="42.9037542" lon="11.5124036"><ele>521.0</ele><time>2026-04-09T08:33:29.421Z</time></trkpt><trkpt lat="42.9038107" lon="11.5123182"><ele>521.0</ele><time>2026-04-09T08:33:30.416Z</time></trkpt><trkpt lat="42.9038591" lon="11.512258"><ele>521.0</ele><time>2026-04-09T08:33:31.422Z</time></trkpt><trkpt lat="42.9039222" lon="11.5122628"><ele>521.0</ele><time>2026-04-09T08:33:32.419Z</time></trkpt><trkpt lat="42.9039978" lon="11.5122783"><ele>521.0</ele><time>2026-04-09T08:33:33.426Z</time></trkpt><trkpt lat="42.9040596" lon="11.5123303"><ele>521.0</ele><time>2026-04-09T08:33:34.419Z</time></trkpt><trkpt lat="42.9041077" lon="11.5123882"><ele>521.0</ele><time>2026-04-09T08:33:35.423Z</time></trkpt><trkpt lat="42.904116" lon="11.5124922"><ele>521.0</ele><time>2026-04-09T08:33:36.427Z</time></trkpt><trkpt lat="42.9040932" lon="11.5125996"><ele>521.0</ele><time>2026-04-09T08:33:37.439Z</time></trkpt><trkpt lat="42.9040642" lon="11.5126952"><ele>521.0</ele><time>2026-04-09T08:33:38.422Z</time></trkpt><trkpt lat="42.9040337" lon="11.5128097"><ele>521.0</ele><time>2026-04-09T08:33:39.423Z</time></trkpt><trkpt lat="42.9040071" lon="11.5129275"><ele>520.3333333333333</ele><time>2026-04-09T08:33:40.422Z</time></trkpt><trkpt lat="42.9039875" lon="11.5130416"><ele>519.6666666666666</ele><time>2026-04-09T08:33:41.432Z</time></trkpt><trkpt lat="42.9039765" lon="11.5131555"><ele>519.0</ele><time>2026-04-09T08:33:42.422Z</time></trkpt><trkpt lat="42.9039726" lon="11.5132642"><ele>518.3333333333334</ele><time>2026-04-09T08:33:43.425Z</time></trkpt><trkpt lat="42.9039806" lon="11.5133766"><ele>517.6666666666667</ele><time>2026-04-09T08:33:44.429Z</time></trkpt><trkpt lat="42.9040033" lon="11.5135002"><ele>517.0</ele><time>2026-04-09T08:33:45.428Z</time></trkpt><trkpt lat="42.9040464" lon="11.5136255"><ele>517.0</ele><time>2026-04-09T08:33:46.426Z</time></trkpt><trkpt lat="42.904112" lon="11.5137354"><ele>517.0</ele><time>2026-04-09T08:33:47.428Z</time></trkpt><trkpt lat="42.9041984" lon="11.5138345"><ele>517.0</ele><time>2026-04-09T08:33:48.415Z</time></trkpt><trkpt lat="42.9042673" lon="11.5139464"><ele>517.0</ele><time>2026-04-09T08:33:49.423Z</time></trkpt><trkpt lat="42.9043658" lon="11.5140552"><ele>513.5</ele><time>2026-04-09T08:33:50.419Z</time></trkpt><trkpt lat="42.9044855" lon="11.5141559"><ele>510.0</ele><time>2026-04-09T08:33:51.419Z</time></trkpt><trkpt lat="42.9046241" lon="11.5142616"><ele>506.5</ele><time>2026-04-09T08:33:52.43Z</time></trkpt><trkpt lat="42.9047489" lon="11.514375"><ele>503.0</ele><time>2026-04-09T08:33:53.426Z</time></trkpt><trkpt lat="42.904954" lon="11.5145021"><ele>500.3333333333333</ele><time>2026-04-09T08:33:54.421Z</time></trkpt><trkpt lat="42.9051505" lon="11.5146192"><ele>497.66666666666663</ele><time>2026-04-09T08:33:55.419Z</time></trkpt><trkpt lat="42.9053273" lon="11.5147317"><ele>495.0</ele><time>2026-04-09T08:33:56.428Z</time></trkpt><trkpt lat="42.9054869" lon="11.5148384"><ele>495.0</ele><time>2026-04-09T08:33:57.418Z</time></trkpt><trkpt lat="42.905648" lon="11.5149289"><ele>495.0</ele><time>2026-04-09T08:33:58.418Z</time></trkpt><trkpt lat="42.9058033" lon="11.5150393"><ele>495.0</ele><time>2026-04-09T08:33:59.425Z</time></trkpt><trkpt lat="42.9059373" lon="11.5151498"><ele>493.25</ele><time>2026-04-09T08:34:00.415Z</time></trkpt><trkpt lat="42.9060806" lon="11.5152492"><ele>491.5</ele><time>2026-04-09T08:34:01.419Z</time></trkpt><trkpt lat="42.9062122" lon="11.5153389"><ele>489.75</ele><time>2026-04-09T08:34:02.42Z</time></trkpt><trkpt lat="42.9063159" lon="11.5154247"><ele>488.0</ele><time>2026-04-09T08:34:03.42Z</time></trkpt><trkpt lat="42.9064365" lon="11.5155026"><ele>488.0</ele><time>2026-04-09T08:34:04.419Z</time></trkpt><trkpt lat="42.9065456" lon="11.5155811"><ele>488.0</ele><time>2026-04-09T08:34:05.423Z</time></trkpt><trkpt lat="42.9066804" lon="11.515663"><ele>488.0</ele><time>2026-04-09T08:34:06.42Z</time></trkpt><trkpt lat="42.9067958" lon="11.5157401"><ele>488.0</ele><time>2026-04-09T08:34:07.429Z</time></trkpt><trkpt lat="42.9069685" lon="11.5158608"><ele>488.0</ele><time>2026-04-09T08:34:08.433Z</time></trkpt><trkpt lat="42.9071349" lon="11.5159641"><ele>488.0</ele><time>2026-04-09T08:34:09.425Z</time></trkpt><trkpt lat="42.907276" lon="11.5160515"><ele>488.0</ele><time>2026-04-09T08:34:10.432Z</time></trkpt><trkpt lat="42.9073766" lon="11.5161372"><ele>487.4</ele><time>2026-04-09T08:34:11.426Z</time></trkpt><trkpt lat="42.9074908" lon="11.5162392"><ele>486.79999999999995</ele><time>2026-04-09T08:34:12.429Z</time></trkpt><trkpt lat="42.9075799" lon="11.5163339"><ele>486.2</ele><time>2026-04-09T08:34:13.431Z</time></trkpt><trkpt lat="42.9076349" lon="11.5164165"><ele>485.6</ele><time>2026-04-09T08:34:14.424Z</time></trkpt><trkpt lat="42.9076899" lon="11.5164776"><ele>485.0</ele><time>2026-04-09T08:34:15.425Z</time></trkpt><trkpt lat="42.9077969" lon="11.5165676"><ele>484.99999999999994</ele><time>2026-04-09T08:34:17.446Z</time></trkpt><trkpt lat="42.907867" lon="11.5166169"><ele>485.0</ele><time>2026-04-09T08:34:18.445Z</time></trkpt><trkpt lat="42.9079392" lon="11.5166635"><ele>485.0</ele><time>2026-04-09T08:34:19.433Z</time></trkpt><trkpt lat="42.9080076" lon="11.5167056"><ele>485.0</ele><time>2026-04-09T08:34:20.424Z</time></trkpt><trkpt lat="42.9080855" lon="11.5167348"><ele>484.99999999999994</ele><time>2026-04-09T08:34:21.412Z</time></trkpt><trkpt lat="42.9081716" lon="11.5167702"><ele>485.0</ele><time>2026-04-09T08:34:22.423Z</time></trkpt><trkpt lat="42.908256" lon="11.5168172"><ele>485.0</ele><time>2026-04-09T08:34:23.423Z</time></trkpt><trkpt lat="42.9083565" lon="11.5168843"><ele>485.0</ele><time>2026-04-09T08:34:24.445Z</time></trkpt><trkpt lat="42.908459" lon="11.5169638"><ele>485.0</ele><time>2026-04-09T08:34:25.42Z</time></trkpt><trkpt lat="42.9085493" lon="11.5170446"><ele>485.0</ele><time>2026-04-09T08:34:26.417Z</time></trkpt><trkpt lat="42.908635" lon="11.5171185"><ele>485.0</ele><time>2026-04-09T08:34:27.424Z</time></trkpt><trkpt lat="42.9087127" lon="11.5171898"><ele>484.66666666666663</ele><time>2026-04-09T08:34:28.43Z</time></trkpt><trkpt lat="42.9087769" lon="11.5172568"><ele>484.3333333333333</ele><time>2026-04-09T08:34:29.429Z</time></trkpt><trkpt lat="42.908835" lon="11.5173142"><ele>484.0</ele><time>2026-04-09T08:34:30.437Z</time></trkpt><trkpt lat="42.9088898" lon="11.5173714"><ele>483.66666666666663</ele><time>2026-04-09T08:34:31.424Z</time></trkpt><trkpt lat="42.9089466" lon="11.5174205"><ele>483.3333333333333</ele><time>2026-04-09T08:34:32.428Z</time></trkpt><trkpt lat="42.9090112" lon="11.5174688"><ele>483.0</ele><time>2026-04-09T08:34:33.423Z</time></trkpt><trkpt lat="42.9090788" lon="11.5175481"><ele>483.0</ele><time>2026-04-09T08:34:34.45Z</time></trkpt><trkpt lat="42.9091558" lon="11.5176129"><ele>483.0</ele><time>2026-04-09T08:34:35.423Z</time></trkpt><trkpt lat="42.9092327" lon="11.5176608"><ele>483.0</ele><time>2026-04-09T08:34:36.433Z</time></trkpt><trkpt lat="42.9093032" lon="11.5176775"><ele>483.0</ele><time>2026-04-09T08:34:37.421Z</time></trkpt><trkpt lat="42.9093762" lon="11.5176766"><ele>483.0</ele><time>2026-04-09T08:34:38.415Z</time></trkpt><trkpt lat="42.9094524" lon="11.5176649"><ele>483.0</ele><time>2026-04-09T08:34:39.413Z</time></trkpt><trkpt lat="42.9095327" lon="11.5176602"><ele>483.3333333333333</ele><time>2026-04-09T08:34:40.41Z</time></trkpt><trkpt lat="42.9096035" lon="11.5176704"><ele>483.66666666666663</ele><time>2026-04-09T08:34:41.418Z</time></trkpt><trkpt lat="42.9096934" lon="11.517609"><ele>484.0</ele><time>2026-04-09T08:34:43.424Z</time></trkpt><trkpt lat="42.909752" lon="11.5175696"><ele>484.3333333333333</ele><time>2026-04-09T08:34:44.412Z</time></trkpt><trkpt lat="42.9098339" lon="11.5175301"><ele>484.66666666666663</ele><time>2026-04-09T08:34:45.418Z</time></trkpt><trkpt lat="42.9099232" lon="11.5174773"><ele>485.0</ele><time>2026-04-09T08:34:46.424Z</time></trkpt><trkpt lat="42.9100116" lon="11.5174072"><ele>483.16666666666663</ele><time>2026-04-09T08:34:47.423Z</time></trkpt><trkpt lat="42.9100859" lon="11.517347"><ele>481.3333333333333</ele><time>2026-04-09T08:34:48.427Z</time></trkpt><trkpt lat="42.9101538" lon="11.5172903"><ele>479.5</ele><time>2026-04-09T08:34:49.412Z</time></trkpt><trkpt lat="42.9102167" lon="11.5172274"><ele>477.66666666666663</ele><time>2026-04-09T08:34:50.425Z</time></trkpt><trkpt lat="42.9102758" lon="11.5171606"><ele>475.8333333333333</ele><time>2026-04-09T08:34:51.431Z</time></trkpt><trkpt lat="42.9103223" lon="11.5170942"><ele>474.0</ele><time>2026-04-09T08:34:52.427Z</time></trkpt><trkpt lat="42.9103727" lon="11.5170312"><ele>474.0</ele><time>2026-04-09T08:34:53.424Z</time></trkpt><trkpt lat="42.9104849" lon="11.5169947"><ele>474.0</ele><time>2026-04-09T08:34:55.425Z</time></trkpt><trkpt lat="42.9105546" lon="11.5170114"><ele>474.0</ele><time>2026-04-09T08:34:56.421Z</time></trkpt><trkpt lat="42.9106195" lon="11.5170407"><ele>474.0</ele><time>2026-04-09T08:34:57.423Z</time></trkpt><trkpt lat="42.9106842" lon="11.5170815"><ele>474.0</ele><time>2026-04-09T08:34:58.417Z</time></trkpt><trkpt lat="42.910752" lon="11.5171279"><ele>474.0</ele><time>2026-04-09T08:34:59.42Z</time></trkpt><trkpt lat="42.9108147" lon="11.5171853"><ele>474.0</ele><time>2026-04-09T08:35:00.413Z</time></trkpt><trkpt lat="42.9108777" lon="11.5172552"><ele>474.0</ele><time>2026-04-09T08:35:01.413Z</time></trkpt><trkpt lat="42.9109417" lon="11.5173512"><ele>474.0</ele><time>2026-04-09T08:35:02.413Z</time></trkpt><trkpt lat="42.9110138" lon="11.5174609"><ele>474.0</ele><time>2026-04-09T08:35:03.413Z</time></trkpt><trkpt lat="42.9110726" lon="11.5175541"><ele>474.0</ele><time>2026-04-09T08:35:04.424Z</time></trkpt><trkpt lat="42.9111218" lon="11.5176162"><ele>474.0</ele><time>2026-04-09T08:35:05.423Z</time></trkpt><trkpt lat="42.9111686" lon="11.5176769"><ele>470.6</ele><time>2026-04-09T08:35:06.408Z</time></trkpt><trkpt lat="42.9112334" lon="11.5177199"><ele>467.2</ele><time>2026-04-09T08:35:07.42Z</time></trkpt><trkpt lat="42.9113165" lon="11.5177647"><ele>463.80000000000007</ele><time>2026-04-09T08:35:08.427Z</time></trkpt><trkpt lat="42.9114201" lon="11.5178064"><ele>460.40000000000003</ele><time>2026-04-09T08:35:09.42Z</time></trkpt><trkpt lat="42.9115219" lon="11.5178518"><ele>457.0</ele><time>2026-04-09T08:35:10.417Z</time></trkpt><trkpt lat="42.9116136" lon="11.5178865"><ele>458.33333333333337</ele><time>2026-04-09T08:35:11.416Z</time></trkpt><trkpt lat="42.9116926" lon="11.5179062"><ele>459.6666666666667</ele><time>2026-04-09T08:35:12.426Z</time></trkpt><trkpt lat="42.9117732" lon="11.5178977"><ele>461.0</ele><time>2026-04-09T08:35:13.416Z</time></trkpt><trkpt lat="42.9118524" lon="11.5178714"><ele>462.33333333333337</ele><time>2026-04-09T08:35:14.426Z</time></trkpt><trkpt lat="42.9119333" lon="11.5178356"><ele>463.6666666666667</ele><time>2026-04-09T08:35:15.424Z</time></trkpt><trkpt lat="42.9120169" lon="11.5177964"><ele>465.0</ele><time>2026-04-09T08:35:16.42Z</time></trkpt><trkpt lat="42.9120894" lon="11.5177494"><ele>461.5</ele><time>2026-04-09T08:35:17.427Z</time></trkpt><trkpt lat="42.912153" lon="11.5176929"><ele>458.0</ele><time>2026-04-09T08:35:18.419Z</time></trkpt><trkpt lat="42.9121994" lon="11.5176282"><ele>454.5</ele><time>2026-04-09T08:35:19.426Z</time></trkpt><trkpt lat="42.9122914" lon="11.5175586"><ele>451.0</ele><time>2026-04-09T08:35:21.424Z</time></trkpt><trkpt lat="42.9123924" lon="11.5176282"><ele>447.5</ele><time>2026-04-09T08:35:23.427Z</time></trkpt><trkpt lat="42.9124233" lon="11.517709"><ele>444.0</ele><time>2026-04-09T08:35:24.419Z</time></trkpt><trkpt lat="42.9124248" lon="11.5178114"><ele>445.2</ele><time>2026-04-09T08:35:25.419Z</time></trkpt><trkpt lat="42.912414" lon="11.5179089"><ele>446.4</ele><time>2026-04-09T08:35:26.415Z</time></trkpt><trkpt lat="42.912405" lon="11.518059"><ele>447.6</ele><time>2026-04-09T08:35:28.424Z</time></trkpt><trkpt lat="42.9124268" lon="11.5181683"><ele>448.8</ele><time>2026-04-09T08:35:30.421Z</time></trkpt><trkpt lat="42.9125091" lon="11.5182166"><ele>450.0</ele><time>2026-04-09T08:35:32.415Z</time></trkpt><trkpt lat="42.9126351" lon="11.5182006"><ele>446.28571428571433</ele><time>2026-04-09T08:35:34.419Z</time></trkpt><trkpt lat="42.912698" lon="11.518222"><ele>442.57142857142856</ele><time>2026-04-09T08:35:35.417Z</time></trkpt><trkpt lat="42.912747" lon="11.5182876"><ele>438.8571428571429</ele><time>2026-04-09T08:35:36.419Z</time></trkpt><trkpt lat="42.9127763" lon="11.5183693"><ele>435.14285714285717</ele><time>2026-04-09T08:35:37.411Z</time></trkpt><trkpt lat="42.9128005" lon="11.5184636"><ele>431.42857142857144</ele><time>2026-04-09T08:35:38.417Z</time></trkpt><trkpt lat="42.9128273" lon="11.5185469"><ele>427.7142857142857</ele><time>2026-04-09T08:35:39.415Z</time></trkpt><trkpt lat="42.9128744" lon="11.5186308"><ele>424.0</ele><time>2026-04-09T08:35:40.415Z</time></trkpt><trkpt lat="42.9129278" lon="11.5187001"><ele>425.0</ele><time>2026-04-09T08:35:41.42Z</time></trkpt><trkpt lat="42.9129974" lon="11.5187826"><ele>426.0</ele><time>2026-04-09T08:35:42.415Z</time></trkpt><trkpt lat="42.9130889" lon="11.5188606"><ele>427.0</ele><time>2026-04-09T08:35:43.417Z</time></trkpt><trkpt lat="42.9131793" lon="11.5189425"><ele>428.0</ele><time>2026-04-09T08:35:44.413Z</time></trkpt><trkpt lat="42.9132758" lon="11.5190154"><ele>429.0</ele><time>2026-04-09T08:35:45.423Z</time></trkpt><trkpt lat="42.9133702" lon="11.5190835"><ele>425.3333333333333</ele><time>2026-04-09T08:35:46.419Z</time></trkpt><trkpt lat="42.9134578" lon="11.5191341"><ele>421.66666666666663</ele><time>2026-04-09T08:35:47.419Z</time></trkpt><trkpt lat="42.9135295" lon="11.5191706"><ele>418.0</ele><time>2026-04-09T08:35:48.417Z</time></trkpt><trkpt lat="42.9136206" lon="11.5192105"><ele>414.3333333333333</ele><time>2026-04-09T08:35:50.419Z</time></trkpt><trkpt lat="42.913723" lon="11.5191864"><ele>410.66666666666663</ele><time>2026-04-09T08:35:52.435Z</time></trkpt><trkpt lat="42.9137809" lon="11.5191417"><ele>407.0</ele><time>2026-04-09T08:35:53.419Z</time></trkpt><trkpt lat="42.9138321" lon="11.5190675"><ele>407.0</ele><time>2026-04-09T08:35:54.421Z</time></trkpt><trkpt lat="42.9138694" lon="11.5189657"><ele>407.0</ele><time>2026-04-09T08:35:55.419Z</time></trkpt><trkpt lat="42.9139093" lon="11.5188506"><ele>407.0</ele><time>2026-04-09T08:35:56.423Z</time></trkpt><trkpt lat="42.913941" lon="11.5187361"><ele>407.0</ele><time>2026-04-09T08:35:57.426Z</time></trkpt><trkpt lat="42.9139713" lon="11.5186127"><ele>407.0</ele><time>2026-04-09T08:35:58.422Z</time></trkpt><trkpt lat="42.9139817" lon="11.5184845"><ele>406.99999999999994</ele><time>2026-04-09T08:35:59.417Z</time></trkpt><trkpt lat="42.9139784" lon="11.5183552"><ele>407.0</ele><time>2026-04-09T08:36:00.437Z</time></trkpt><trkpt lat="42.9139684" lon="11.5182344"><ele>407.0</ele><time>2026-04-09T08:36:01.423Z</time></trkpt><trkpt lat="42.9139486" lon="11.5181196"><ele>407.0</ele><time>2026-04-09T08:36:02.415Z</time></trkpt><trkpt lat="42.9139201" lon="11.5180064"><ele>406.99999999999994</ele><time>2026-04-09T08:36:03.419Z</time></trkpt><trkpt lat="42.9138981" lon="11.5178971"><ele>407.0</ele><time>2026-04-09T08:36:04.426Z</time></trkpt><trkpt lat="42.9139033" lon="11.5177932"><ele>406.99999999999994</ele><time>2026-04-09T08:36:05.419Z</time></trkpt><trkpt lat="42.9139395" lon="11.5177058"><ele>407.0</ele><time>2026-04-09T08:36:06.419Z</time></trkpt><trkpt lat="42.9139954" lon="11.5176341"><ele>407.0</ele><time>2026-04-09T08:36:07.415Z</time></trkpt><trkpt lat="42.9140607" lon="11.5175803"><ele>407.0</ele><time>2026-04-09T08:36:08.42Z</time></trkpt><trkpt lat="42.9141458" lon="11.5175651"><ele>406.99999999999994</ele><time>2026-04-09T08:36:09.423Z</time></trkpt><trkpt lat="42.9142463" lon="11.5175886"><ele>407.0</ele><time>2026-04-09T08:36:10.428Z</time></trkpt><trkpt lat="42.9143393" lon="11.5176313"><ele>404.40000000000003</ele><time>2026-04-09T08:36:11.423Z</time></trkpt><trkpt lat="42.9144456" lon="11.5176643"><ele>401.8</ele><time>2026-04-09T08:36:12.416Z</time></trkpt><trkpt lat="42.9145435" lon="11.5176924"><ele>399.2</ele><time>2026-04-09T08:36:13.419Z</time></trkpt><trkpt lat="42.9146415" lon="11.5177196"><ele>396.6</ele><time>2026-04-09T08:36:14.431Z</time></trkpt><trkpt lat="42.9147366" lon="11.5177427"><ele>394.0</ele><time>2026-04-09T08:36:15.422Z</time></trkpt><trkpt lat="42.9148193" lon="11.5177633"><ele>394.0</ele><time>2026-04-09T08:36:16.43Z</time></trkpt><trkpt lat="42.9149112" lon="11.5177902"><ele>394.0</ele><time>2026-04-09T08:36:17.425Z</time></trkpt><trkpt lat="42.9150115" lon="11.517808"><ele>394.0</ele><time>2026-04-09T08:36:18.423Z</time></trkpt><trkpt lat="42.915111" lon="11.517822"><ele>394.0</ele><time>2026-04-09T08:36:19.43Z</time></trkpt><trkpt lat="42.9152101" lon="11.5178306"><ele>394.0</ele><time>2026-04-09T08:36:20.423Z</time></trkpt><trkpt lat="42.9153081" lon="11.5178373"><ele>390.6</ele><time>2026-04-09T08:36:21.427Z</time></trkpt><trkpt lat="42.9154013" lon="11.5178427"><ele>387.2</ele><time>2026-04-09T08:36:22.424Z</time></trkpt><trkpt lat="42.9154975" lon="11.5178492"><ele>383.8</ele><time>2026-04-09T08:36:23.449Z</time></trkpt><trkpt lat="42.9155937" lon="11.5178477"><ele>380.40000000000003</ele><time>2026-04-09T08:36:24.43Z</time></trkpt><trkpt lat="42.9156821" lon="11.5178257"><ele>377.0</ele><time>2026-04-09T08:36:25.425Z</time></trkpt><trkpt lat="42.915766" lon="11.5177663"><ele>377.0</ele><time>2026-04-09T08:36:26.44Z</time></trkpt><trkpt lat="42.9158337" lon="11.517699"><ele>377.0</ele><time>2026-04-09T08:36:27.428Z</time></trkpt><trkpt lat="42.915939" lon="11.5176523"><ele>377.0</ele><time>2026-04-09T08:36:29.419Z</time></trkpt><trkpt lat="42.9160306" lon="11.5177363"><ele>377.0</ele><time>2026-04-09T08:36:31.422Z</time></trkpt><trkpt lat="42.9160761" lon="11.5178882"><ele>377.0</ele><time>2026-04-09T08:36:33.445Z</time></trkpt><trkpt lat="42.9160816" lon="11.5179958"><ele>374.0</ele><time>2026-04-09T08:36:34.443Z</time></trkpt><trkpt lat="42.9160918" lon="11.51812"><ele>371.0</ele><time>2026-04-09T08:36:35.449Z</time></trkpt><trkpt lat="42.9161044" lon="11.5182459"><ele>368.0</ele><time>2026-04-09T08:36:36.42Z</time></trkpt><trkpt lat="42.9161251" lon="11.518371"><ele>365.0</ele><time>2026-04-09T08:36:37.434Z</time></trkpt><trkpt lat="42.9161438" lon="11.5184839"><ele>362.0</ele><time>2026-04-09T08:36:38.42Z</time></trkpt><trkpt lat="42.9161705" lon="11.5185923"><ele>359.0</ele><time>2026-04-09T08:36:39.442Z</time></trkpt><trkpt lat="42.9162067" lon="11.5186931"><ele>359.4</ele><time>2026-04-09T08:36:40.442Z</time></trkpt><trkpt lat="42.9162613" lon="11.5187965"><ele>359.79999999999995</ele><time>2026-04-09T08:36:41.419Z</time></trkpt><trkpt lat="42.9163232" lon="11.5189013"><ele>360.20000000000005</ele><time>2026-04-09T08:36:42.425Z</time></trkpt><trkpt lat="42.9164125" lon="11.5189886"><ele>360.6</ele><time>2026-04-09T08:36:43.416Z</time></trkpt><trkpt lat="42.9165102" lon="11.5190523"><ele>361.0</ele><time>2026-04-09T08:36:44.415Z</time></trkpt><trkpt lat="42.916585" lon="11.5191292"><ele>361.0</ele><time>2026-04-09T08:36:45.415Z</time></trkpt><trkpt lat="42.916661" lon="11.5191772"><ele>361.0</ele><time>2026-04-09T08:36:46.418Z</time></trkpt><trkpt lat="42.9167452" lon="11.5192135"><ele>361.0</ele><time>2026-04-09T08:36:47.423Z</time></trkpt><trkpt lat="42.9168285" lon="11.5192467"><ele>361.0</ele><time>2026-04-09T08:36:48.414Z</time></trkpt><trkpt lat="42.9169088" lon="11.5192834"><ele>361.0</ele><time>2026-04-09T08:36:49.421Z</time></trkpt><trkpt lat="42.9169704" lon="11.5193296"><ele>361.0</ele><time>2026-04-09T08:36:50.41Z</time></trkpt><trkpt lat="42.9170177" lon="11.5193994"><ele>357.16666666666663</ele><time>2026-04-09T08:36:51.437Z</time></trkpt><trkpt lat="42.9169837" lon="11.5195378"><ele>353.3333333333333</ele><time>2026-04-09T08:36:53.428Z</time></trkpt><trkpt lat="42.9169169" lon="11.5196101"><ele>349.5</ele><time>2026-04-09T08:36:54.442Z</time></trkpt><trkpt lat="42.916855" lon="11.5197016"><ele>345.6666666666667</ele><time>2026-04-09T08:36:55.448Z</time></trkpt><trkpt lat="42.916831" lon="11.5198001"><ele>341.83333333333337</ele><time>2026-04-09T08:36:56.418Z</time></trkpt><trkpt lat="42.9168252" lon="11.5198948"><ele>338.0</ele><time>2026-04-09T08:36:57.416Z</time></trkpt><trkpt lat="42.9168515" lon="11.5200043"><ele>338.0</ele><time>2026-04-09T08:36:58.424Z</time></trkpt><trkpt lat="42.9168814" lon="11.5201035"><ele>338.0</ele><time>2026-04-09T08:36:59.42Z</time></trkpt><trkpt lat="42.9169283" lon="11.5201908"><ele>338.0</ele><time>2026-04-09T08:37:00.422Z</time></trkpt><trkpt lat="42.9169939" lon="11.5202439"><ele>338.0</ele><time>2026-04-09T08:37:01.447Z</time></trkpt><trkpt lat="42.9170583" lon="11.5202904"><ele>338.0</ele><time>2026-04-09T08:37:02.444Z</time></trkpt><trkpt lat="42.9171465" lon="11.5203041"><ele>338.0</ele><time>2026-04-09T08:37:03.423Z</time></trkpt><trkpt lat="42.9172336" lon="11.5203092"><ele>338.0</ele><time>2026-04-09T08:37:04.425Z</time></trkpt><trkpt lat="42.9173132" lon="11.5203177"><ele>338.0</ele><time>2026-04-09T08:37:05.426Z</time></trkpt><trkpt lat="42.9173819" lon="11.5204887"><ele>338.0</ele><time>2026-04-09T08:37:07.413Z</time></trkpt><trkpt lat="42.9173999" lon="11.5206356"><ele>338.0</ele><time>2026-04-09T08:37:08.418Z</time></trkpt><trkpt lat="42.9174309" lon="11.5207877"><ele>338.0</ele><time>2026-04-09T08:37:09.424Z</time></trkpt><trkpt lat="42.9174517" lon="11.5209311"><ele>338.1666666666667</ele><time>2026-04-09T08:37:10.411Z</time></trkpt><trkpt lat="42.9174719" lon="11.5210594"><ele>338.33333333333337</ele><time>2026-04-09T08:37:11.417Z</time></trkpt><trkpt lat="42.9174919" lon="11.5211723"><ele>338.5</ele><time>2026-04-09T08:37:12.446Z</time></trkpt><trkpt lat="42.9175161" lon="11.521275"><ele>338.6666666666667</ele><time>2026-04-09T08:37:13.409Z</time></trkpt><trkpt lat="42.9175528" lon="11.5213754"><ele>338.8333333333333</ele><time>2026-04-09T08:37:14.418Z</time></trkpt><trkpt lat="42.9175953" lon="11.5214767"><ele>339.0</ele><time>2026-04-09T08:37:15.42Z</time></trkpt><trkpt lat="42.9176392" lon="11.5215774"><ele>332.8</ele><time>2026-04-09T08:37:16.412Z</time></trkpt><trkpt lat="42.9176831" lon="11.5216644"><ele>326.59999999999997</ele><time>2026-04-09T08:37:17.409Z</time></trkpt><trkpt lat="42.9177238" lon="11.5217544"><ele>320.4</ele><time>2026-04-09T08:37:18.419Z</time></trkpt><trkpt lat="42.9177597" lon="11.5218503"><ele>314.2</ele><time>2026-04-09T08:37:19.417Z</time></trkpt><trkpt lat="42.9177833" lon="11.5219447"><ele>308.0</ele><time>2026-04-09T08:37:20.442Z</time></trkpt><trkpt lat="42.9198683" lon="11.5236337"><ele>304.33333333333337</ele><time>2026-04-09T08:37:50.424Z</time></trkpt><trkpt lat="42.9198848" lon="11.5237297"><ele>300.6666666666667</ele><time>2026-04-09T08:37:51.42Z</time></trkpt><trkpt lat="42.9199189" lon="11.5238103"><ele>297.0</ele><time>2026-04-09T08:37:52.432Z</time></trkpt><trkpt lat="42.9199999" lon="11.5238676"><ele>293.3333333333333</ele><time>2026-04-09T08:37:54.418Z</time></trkpt><trkpt lat="42.9200392" lon="11.5237591"><ele>289.66666666666663</ele><time>2026-04-09T08:37:56.419Z</time></trkpt><trkpt lat="42.9200272" lon="11.523669"><ele>286.0</ele><time>2026-04-09T08:37:57.423Z</time></trkpt><trkpt lat="42.9200066" lon="11.5234992"><ele>286.0</ele><time>2026-04-09T08:37:59.419Z</time></trkpt><trkpt lat="42.9200189" lon="11.5234047"><ele>286.0</ele><time>2026-04-09T08:38:00.42Z</time></trkpt><trkpt lat="42.9200683" lon="11.5232719"><ele>286.0</ele><time>2026-04-09T08:38:02.419Z</time></trkpt><trkpt lat="42.9202042" lon="11.5231974"><ele>286.0</ele><time>2026-04-09T08:38:05.421Z</time></trkpt><trkpt lat="42.9203267" lon="11.5231705"><ele>285.0</ele><time>2026-04-09T08:38:07.44Z</time></trkpt><trkpt lat="42.9204045" lon="11.5231558"><ele>284.0</ele><time>2026-04-09T08:38:08.42Z</time></trkpt><trkpt lat="42.9205042" lon="11.5230973"><ele>283.0</ele><time>2026-04-09T08:38:10.422Z</time></trkpt><trkpt lat="42.9205873" lon="11.5230104"><ele>282.0</ele><time>2026-04-09T08:38:12.42Z</time></trkpt><trkpt lat="42.920652" lon="11.5229008"><ele>281.0</ele><time>2026-04-09T08:38:14.425Z</time></trkpt><trkpt lat="42.9207209" lon="11.5228438"><ele>278.40000000000003</ele><time>2026-04-09T08:38:16.424Z</time></trkpt><trkpt lat="42.9208004" lon="11.5229466"><ele>275.8</ele><time>2026-04-09T08:38:18.414Z</time></trkpt><trkpt lat="42.9208568" lon="11.5230756"><ele>273.20000000000005</ele><time>2026-04-09T08:38:20.421Z</time></trkpt><trkpt lat="42.9209515" lon="11.5231413"><ele>270.6</ele><time>2026-04-09T08:38:22.423Z</time></trkpt><trkpt lat="42.9210246" lon="11.5231122"><ele>268.0</ele><time>2026-04-09T08:38:24.44Z</time></trkpt><trkpt lat="42.9211214" lon="11.5229089"><ele>266.5</ele><time>2026-04-09T08:38:27.439Z</time></trkpt><trkpt lat="42.9211325" lon="11.5228232"><ele>265.0</ele><time>2026-04-09T08:38:28.447Z</time></trkpt><trkpt lat="42.9211498" lon="11.5227337"><ele>263.5</ele><time>2026-04-09T08:38:29.439Z</time></trkpt><trkpt lat="42.921176" lon="11.5226464"><ele>262.0</ele><time>2026-04-09T08:38:30.448Z</time></trkpt><trkpt lat="42.9212314" lon="11.5225335"><ele>260.5</ele><time>2026-04-09T08:38:32.446Z</time></trkpt><trkpt lat="42.9213098" lon="11.5225125"><ele>259.0</ele><time>2026-04-09T08:38:39.419Z</time></trkpt><trkpt lat="42.9213623" lon="11.5224329"><ele>259.0</ele><time>2026-04-09T08:38:42.417Z</time></trkpt><trkpt lat="42.9213974" lon="11.5223258"><ele>259.0</ele><time>2026-04-09T08:38:44.445Z</time></trkpt><trkpt lat="42.9214641" lon="11.5221964"><ele>259.0</ele><time>2026-04-09T08:38:46.424Z</time></trkpt><trkpt lat="42.9216029" lon="11.5220432"><ele>259.0</ele><time>2026-04-09T08:38:50.425Z</time></trkpt><trkpt lat="42.9216796" lon="11.5219342"><ele>257.66666666666663</ele><time>2026-04-09T08:38:52.422Z</time></trkpt><trkpt lat="42.9217545" lon="11.5218022"><ele>256.3333333333333</ele><time>2026-04-09T08:38:54.41Z</time></trkpt><trkpt lat="42.921804" lon="11.5217291"><ele>255.0</ele><time>2026-04-09T08:38:55.418Z</time></trkpt><trkpt lat="42.9218498" lon="11.5216561"><ele>253.66666666666669</ele><time>2026-04-09T08:38:56.424Z</time></trkpt><trkpt lat="42.9218873" lon="11.5215813"><ele>252.33333333333334</ele><time>2026-04-09T08:38:57.412Z</time></trkpt><trkpt lat="42.9219012" lon="11.5214481"><ele>251.0</ele><time>2026-04-09T08:38:59.42Z</time></trkpt><trkpt lat="42.9218713" lon="11.5213642"><ele>251.0</ele><time>2026-04-09T08:39:01.421Z</time></trkpt><trkpt lat="42.9218102" lon="11.5212781"><ele>251.00000000000003</ele><time>2026-04-09T08:39:03.443Z</time></trkpt><trkpt lat="42.9217223" lon="11.5211773"><ele>251.00000000000003</ele><time>2026-04-09T08:39:05.44Z</time></trkpt><trkpt lat="42.9216636" lon="11.521104"><ele>251.0</ele><time>2026-04-09T08:39:06.426Z</time></trkpt><trkpt lat="42.9215983" lon="11.5210084"><ele>251.0</ele><time>2026-04-09T08:39:07.427Z</time></trkpt><trkpt lat="42.9214838" lon="11.5208435"><ele>253.66666666666669</ele><time>2026-04-09T08:39:09.422Z</time></trkpt><trkpt lat="42.9214471" lon="11.5207665"><ele>256.33333333333337</ele><time>2026-04-09T08:39:10.421Z</time></trkpt><trkpt lat="42.9213968" lon="11.5206055"><ele>259.0</ele><time>2026-04-09T08:39:12.43Z</time></trkpt><trkpt lat="42.9213622" lon="11.5205152"><ele>261.6666666666667</ele><time>2026-04-09T08:39:13.43Z</time></trkpt><trkpt lat="42.9213242" lon="11.520425"><ele>264.3333333333333</ele><time>2026-04-09T08:39:14.43Z</time></trkpt><trkpt lat="42.9212742" lon="11.5203379"><ele>267.0</ele><time>2026-04-09T08:39:15.431Z</time></trkpt><trkpt lat="42.9212199" lon="11.5202482"><ele>269.6</ele><time>2026-04-09T08:39:16.437Z</time></trkpt><trkpt lat="42.9211561" lon="11.5201532"><ele>272.2</ele><time>2026-04-09T08:39:17.433Z</time></trkpt><trkpt lat="42.9210899" lon="11.5200605"><ele>274.8</ele><time>2026-04-09T08:39:18.452Z</time></trkpt><trkpt lat="42.9210204" lon="11.5199631"><ele>277.4</ele><time>2026-04-09T08:39:19.432Z</time></trkpt><trkpt lat="42.92095" lon="11.5198663"><ele>280.0</ele><time>2026-04-09T08:39:20.423Z</time></trkpt><trkpt lat="42.9208883" lon="11.5197726"><ele>282.4</ele><time>2026-04-09T08:39:21.414Z</time></trkpt><trkpt lat="42.9208254" lon="11.5197012"><ele>284.8</ele><time>2026-04-09T08:39:22.429Z</time></trkpt><trkpt lat="42.9207436" lon="11.519664"><ele>287.2</ele><time>2026-04-09T08:39:24.41Z</time></trkpt><trkpt lat="42.9206688" lon="11.5196162"><ele>289.6</ele><time>2026-04-09T08:39:28.426Z</time></trkpt><trkpt lat="42.9205288" lon="11.519449"><ele>292.0</ele><time>2026-04-09T08:39:32.425Z</time></trkpt><trkpt lat="42.9204638" lon="11.5194688"><ele>292.0</ele><time>2026-04-09T08:39:34.428Z</time></trkpt><trkpt lat="42.9203899" lon="11.5195251"><ele>292.0</ele><time>2026-04-09T08:39:36.43Z</time></trkpt><trkpt lat="42.9202986" lon="11.5195913"><ele>292.0</ele><time>2026-04-09T08:39:38.436Z</time></trkpt><trkpt lat="42.9201845" lon="11.5196553"><ele>292.0</ele><time>2026-04-09T08:39:40.429Z</time></trkpt><trkpt lat="42.9201156" lon="11.5196656"><ele>292.0</ele><time>2026-04-09T08:39:41.432Z</time></trkpt><trkpt lat="42.9200415" lon="11.5196705"><ele>295.4</ele><time>2026-04-09T08:39:42.426Z</time></trkpt><trkpt lat="42.9199729" lon="11.5196753"><ele>298.79999999999995</ele><time>2026-04-09T08:39:43.418Z</time></trkpt><trkpt lat="42.9198603" lon="11.5196902"><ele>302.2</ele><time>2026-04-09T08:39:45.425Z</time></trkpt><trkpt lat="42.9197785" lon="11.5197505"><ele>305.59999999999997</ele><time>2026-04-09T08:39:47.426Z</time></trkpt><trkpt lat="42.9197229" lon="11.519797"><ele>309.0</ele><time>2026-04-09T08:39:52.421Z</time></trkpt><trkpt lat="42.9196445" lon="11.5195402"><ele>310.2</ele><time>2026-04-09T08:40:27.425Z</time></trkpt><trkpt lat="42.9195771" lon="11.5194832"><ele>311.4</ele><time>2026-04-09T08:40:29.43Z</time></trkpt><trkpt lat="42.9194848" lon="11.5194374"><ele>312.6</ele><time>2026-04-09T08:40:31.423Z</time></trkpt><trkpt lat="42.9193884" lon="11.5194154"><ele>313.8</ele><time>2026-04-09T08:40:33.419Z</time></trkpt><trkpt lat="42.9192878" lon="11.5194218"><ele>315.0</ele><time>2026-04-09T08:40:35.422Z</time></trkpt><trkpt lat="42.9191958" lon="11.5194353"><ele>318.0</ele><time>2026-04-09T08:40:37.417Z</time></trkpt><trkpt lat="42.9191061" lon="11.5194275"><ele>321.0</ele><time>2026-04-09T08:40:39.42Z</time></trkpt><trkpt lat="42.9190108" lon="11.5193741"><ele>324.0</ele><time>2026-04-09T08:40:41.422Z</time></trkpt><trkpt lat="42.9189237" lon="11.519285"><ele>327.0</ele><time>2026-04-09T08:40:43.422Z</time></trkpt><trkpt lat="42.9188562" lon="11.5191374"><ele>330.0</ele><time>2026-04-09T08:40:45.42Z</time></trkpt><trkpt lat="42.9187903" lon="11.5189784"><ele>330.0</ele><time>2026-04-09T08:40:47.422Z</time></trkpt><trkpt lat="42.9187419" lon="11.5188501"><ele>330.0</ele><time>2026-04-09T08:40:49.419Z</time></trkpt><trkpt lat="42.9187149" lon="11.518734"><ele>330.0</ele><time>2026-04-09T08:40:51.428Z</time></trkpt><trkpt lat="42.9186691" lon="11.5185887"><ele>330.0</ele><time>2026-04-09T08:40:53.449Z</time></trkpt><trkpt lat="42.9186073" lon="11.5184639"><ele>330.0</ele><time>2026-04-09T08:40:55.431Z</time></trkpt><trkpt lat="42.9185485" lon="11.5183516"><ele>330.8</ele><time>2026-04-09T08:40:57.458Z</time></trkpt><trkpt lat="42.9184946" lon="11.5182372"><ele>331.6</ele><time>2026-04-09T08:40:59.432Z</time></trkpt><trkpt lat="42.91845" lon="11.5181149"><ele>332.4</ele><time>2026-04-09T08:41:01.425Z</time></trkpt><trkpt lat="42.9184015" lon="11.5179899"><ele>333.2</ele><time>2026-04-09T08:41:03.427Z</time></trkpt><trkpt lat="42.9183523" lon="11.5178485"><ele>334.0</ele><time>2026-04-09T08:41:05.597Z</time></trkpt><trkpt lat="42.9182656" lon="11.5175783"><ele>334.0</ele><time>2026-04-09T08:41:08.432Z</time></trkpt><trkpt lat="42.9182337" lon="11.5174646"><ele>334.0</ele><time>2026-04-09T08:41:09.45Z</time></trkpt><trkpt lat="42.9181962" lon="11.5173688"><ele>334.0</ele><time>2026-04-09T08:41:10.44Z</time></trkpt><trkpt lat="42.9181353" lon="11.5172343"><ele>334.0</ele><time>2026-04-09T08:41:12.437Z</time></trkpt><trkpt lat="42.9180945" lon="11.5171653"><ele>334.0</ele><time>2026-04-09T08:41:13.451Z</time></trkpt><trkpt lat="42.9180107" lon="11.5170457"><ele>334.0</ele><time>2026-04-09T08:41:15.42Z</time></trkpt><trkpt lat="42.9178995" lon="11.5169815"><ele>334.0</ele><time>2026-04-09T08:41:17.417Z</time></trkpt><trkpt lat="42.9177725" lon="11.5170083"><ele>334.0</ele><time>2026-04-09T08:41:19.443Z</time></trkpt><trkpt lat="42.9177127" lon="11.5170542"><ele>334.0</ele><time>2026-04-09T08:41:20.449Z</time></trkpt><trkpt lat="42.9176609" lon="11.5171136"><ele>334.0</ele><time>2026-04-09T08:41:21.443Z</time></trkpt><trkpt lat="42.9176136" lon="11.517208"><ele>334.0</ele><time>2026-04-09T08:41:22.439Z</time></trkpt><trkpt lat="42.9175542" lon="11.5173199"><ele>334.0</ele><time>2026-04-09T08:41:23.431Z</time></trkpt><trkpt lat="42.9174841" lon="11.5174302"><ele>334.0</ele><time>2026-04-09T08:41:24.426Z</time></trkpt><trkpt lat="42.9174132" lon="11.5175318"><ele>334.0</ele><time>2026-04-09T08:41:25.417Z</time></trkpt><trkpt lat="42.9173458" lon="11.5176014"><ele>334.0</ele><time>2026-04-09T08:41:26.448Z</time></trkpt><trkpt lat="42.9172009" lon="11.5175525"><ele>334.0</ele><time>2026-04-09T08:41:29.428Z</time></trkpt><trkpt lat="42.9171313" lon="11.5175045"><ele>334.0</ele><time>2026-04-09T08:41:39.425Z</time></trkpt><trkpt lat="42.9170441" lon="11.5174341"><ele>334.0</ele><time>2026-04-09T08:41:41.435Z</time></trkpt><trkpt lat="42.9169391" lon="11.5173262"><ele>334.0</ele><time>2026-04-09T08:41:43.422Z</time></trkpt><trkpt lat="42.9168739" lon="11.5172704"><ele>334.0</ele><time>2026-04-09T08:41:44.423Z</time></trkpt><trkpt lat="42.9168037" lon="11.5172223"><ele>338.6</ele><time>2026-04-09T08:41:45.418Z</time></trkpt><trkpt lat="42.9167266" lon="11.5171946"><ele>343.2</ele><time>2026-04-09T08:41:46.426Z</time></trkpt><trkpt lat="42.9166492" lon="11.517187"><ele>347.8</ele><time>2026-04-09T08:41:47.421Z</time></trkpt><trkpt lat="42.9164881" lon="11.5172374"><ele>352.40000000000003</ele><time>2026-04-09T08:41:50.422Z</time></trkpt><trkpt lat="42.916447" lon="11.5173165"><ele>357.0</ele><time>2026-04-09T08:41:52.419Z</time></trkpt><trkpt lat="42.9164476" lon="11.5174286"><ele>357.0</ele><time>2026-04-09T08:41:54.425Z</time></trkpt><trkpt lat="42.916457" lon="11.5175718"><ele>357.0</ele><time>2026-04-09T08:41:56.414Z</time></trkpt><trkpt lat="42.9164655" lon="11.5176598"><ele>357.0</ele><time>2026-04-09T08:41:57.424Z</time></trkpt><trkpt lat="42.9164679" lon="11.517803"><ele>357.0</ele><time>2026-04-09T08:41:59.672Z</time></trkpt><trkpt lat="42.9164465" lon="11.517958"><ele>357.0</ele><time>2026-04-09T08:42:01.446Z</time></trkpt><trkpt lat="42.9164231" lon="11.5180489"><ele>357.3333333333333</ele><time>2026-04-09T08:42:02.442Z</time></trkpt><trkpt lat="42.9163999" lon="11.5181431"><ele>357.6666666666667</ele><time>2026-04-09T08:42:03.426Z</time></trkpt><trkpt lat="42.9163559" lon="11.5182729"><ele>358.0</ele><time>2026-04-09T08:42:05.447Z</time></trkpt><trkpt lat="42.9163257" lon="11.5183492"><ele>358.33333333333337</ele><time>2026-04-09T08:42:06.426Z</time></trkpt><trkpt lat="42.9162959" lon="11.5184271"><ele>358.6666666666667</ele><time>2026-04-09T08:42:07.445Z</time></trkpt><trkpt lat="42.9162418" lon="11.5185352"><ele>359.0</ele><time>2026-04-09T08:42:09.418Z</time></trkpt><trkpt lat="42.9161935" lon="11.5187312"><ele>359.4</ele><time>2026-04-09T08:42:15.446Z</time></trkpt><trkpt lat="42.9162717" lon="11.5188375"><ele>359.79999999999995</ele><time>2026-04-09T08:42:17.504Z</time></trkpt><trkpt lat="42.9163488" lon="11.5189082"><ele>360.20000000000005</ele><time>2026-04-09T08:42:18.419Z</time></trkpt><trkpt lat="42.9164257" lon="11.5189683"><ele>360.6</ele><time>2026-04-09T08:42:19.419Z</time></trkpt><trkpt lat="42.9165064" lon="11.5190232"><ele>361.0</ele><time>2026-04-09T08:42:20.424Z</time></trkpt><trkpt lat="42.916592" lon="11.5190708"><ele>361.0</ele><time>2026-04-09T08:42:21.42Z</time></trkpt><trkpt lat="42.9166728" lon="11.5191079"><ele>361.0</ele><time>2026-04-09T08:42:22.422Z</time></trkpt><trkpt lat="42.9167568" lon="11.5191405"><ele>361.0</ele><time>2026-04-09T08:42:23.427Z</time></trkpt><trkpt lat="42.9168314" lon="11.5191821"><ele>361.0</ele><time>2026-04-09T08:42:24.421Z</time></trkpt><trkpt lat="42.9169132" lon="11.5192174"><ele>361.0</ele><time>2026-04-09T08:42:25.416Z</time></trkpt><trkpt lat="42.9169696" lon="11.5192765"><ele>361.0</ele><time>2026-04-09T08:42:26.422Z</time></trkpt><trkpt lat="42.9169869" lon="11.5193655"><ele>361.0</ele><time>2026-04-09T08:42:27.443Z</time></trkpt><trkpt lat="42.9169658" lon="11.5194614"><ele>361.0</ele><time>2026-04-09T08:42:28.417Z</time></trkpt><trkpt lat="42.9169216" lon="11.5195596"><ele>361.0</ele><time>2026-04-09T08:42:29.445Z</time></trkpt><trkpt lat="42.9168614" lon="11.5196491"><ele>361.0</ele><time>2026-04-09T08:42:30.441Z</time></trkpt><trkpt lat="42.9167585" lon="11.5198339"><ele>361.0</ele><time>2026-04-09T08:42:32.42Z</time></trkpt><trkpt lat="42.9167348" lon="11.519945"><ele>357.16666666666663</ele><time>2026-04-09T08:42:33.417Z</time></trkpt><trkpt lat="42.9167468" lon="11.5200606"><ele>353.3333333333333</ele><time>2026-04-09T08:42:34.422Z</time></trkpt><trkpt lat="42.9167909" lon="11.5201584"><ele>349.5</ele><time>2026-04-09T08:42:35.415Z</time></trkpt><trkpt lat="42.9168634" lon="11.5202303"><ele>345.6666666666667</ele><time>2026-04-09T08:42:36.419Z</time></trkpt><trkpt lat="42.9169489" lon="11.5202872"><ele>341.83333333333337</ele><time>2026-04-09T08:42:37.444Z</time></trkpt><trkpt lat="42.9170367" lon="11.520291"><ele>338.0</ele><time>2026-04-09T08:42:38.42Z</time></trkpt><trkpt lat="42.9171184" lon="11.5202754"><ele>338.0</ele><time>2026-04-09T08:42:39.416Z</time></trkpt><trkpt lat="42.9172057" lon="11.5202598"><ele>338.0</ele><time>2026-04-09T08:42:40.421Z</time></trkpt><trkpt lat="42.9173" lon="11.5202627"><ele>338.0</ele><time>2026-04-09T08:42:41.425Z</time></trkpt><trkpt lat="42.9173692" lon="11.5203052"><ele>338.0</ele><time>2026-04-09T08:42:42.414Z</time></trkpt><trkpt lat="42.9174181" lon="11.5203719"><ele>338.0</ele><time>2026-04-09T08:42:43.423Z</time></trkpt><trkpt lat="42.9174707" lon="11.5205325"><ele>338.1666666666667</ele><time>2026-04-09T08:42:45.42Z</time></trkpt><trkpt lat="42.9174898" lon="11.5206287"><ele>338.33333333333337</ele><time>2026-04-09T08:42:46.426Z</time></trkpt><trkpt lat="42.9175296" lon="11.5207868"><ele>338.5</ele><time>2026-04-09T08:42:48.418Z</time></trkpt><trkpt lat="42.917543" lon="11.5208758"><ele>338.6666666666667</ele><time>2026-04-09T08:42:49.43Z</time></trkpt><trkpt lat="42.9175516" lon="11.5209825"><ele>338.8333333333333</ele><time>2026-04-09T08:42:50.432Z</time></trkpt><trkpt lat="42.9175637" lon="11.5210916"><ele>339.0</ele><time>2026-04-09T08:42:51.418Z</time></trkpt><trkpt lat="42.9175994" lon="11.5213044"><ele>333.8333333333333</ele><time>2026-04-09T08:42:53.438Z</time></trkpt><trkpt lat="42.9176242" lon="11.5214215"><ele>328.6666666666667</ele><time>2026-04-09T08:42:54.418Z</time></trkpt><trkpt lat="42.9176587" lon="11.5215362"><ele>323.5</ele><time>2026-04-09T08:42:55.424Z</time></trkpt><trkpt lat="42.9176978" lon="11.5216463"><ele>318.33333333333337</ele><time>2026-04-09T08:42:56.417Z</time></trkpt><trkpt lat="42.9177352" lon="11.5217498"><ele>313.1666666666667</ele><time>2026-04-09T08:42:57.418Z</time></trkpt><trkpt lat="42.9177739" lon="11.5218453"><ele>308.0</ele><time>2026-04-09T08:42:58.45Z</time></trkpt><trkpt lat="42.917807" lon="11.5219378"><ele>308.0</ele><time>2026-04-09T08:42:59.442Z</time></trkpt><trkpt lat="42.9178385" lon="11.5220312"><ele>308.0</ele><time>2026-04-09T08:43:00.425Z</time></trkpt><trkpt lat="42.917877" lon="11.5221269"><ele>308.0</ele><time>2026-04-09T08:43:01.427Z</time></trkpt><trkpt lat="42.9179208" lon="11.5222182"><ele>308.0</ele><time>2026-04-09T08:43:02.447Z</time></trkpt><trkpt lat="42.9179603" lon="11.5223037"><ele>308.0</ele><time>2026-04-09T08:43:03.421Z</time></trkpt><trkpt lat="42.9180046" lon="11.5223812"><ele>308.0</ele><time>2026-04-09T08:43:04.429Z</time></trkpt><trkpt lat="42.9180475" lon="11.5224511"><ele>308.0</ele><time>2026-04-09T08:43:05.416Z</time></trkpt><trkpt lat="42.9180983" lon="11.522527"><ele>308.6666666666667</ele><time>2026-04-09T08:43:06.427Z</time></trkpt><trkpt lat="42.9181436" lon="11.5225881"><ele>309.33333333333337</ele><time>2026-04-09T08:43:07.422Z</time></trkpt><trkpt lat="42.9181993" lon="11.5226562"><ele>310.0</ele><time>2026-04-09T08:43:08.421Z</time></trkpt><trkpt lat="42.9182686" lon="11.5227284"><ele>310.6666666666667</ele><time>2026-04-09T08:43:09.42Z</time></trkpt><trkpt lat="42.9183339" lon="11.5227915"><ele>311.3333333333333</ele><time>2026-04-09T08:43:10.426Z</time></trkpt><trkpt lat="42.9184044" lon="11.5228555"><ele>312.0</ele><time>2026-04-09T08:43:11.428Z</time></trkpt><trkpt lat="42.918482" lon="11.5229124"><ele>308.8</ele><time>2026-04-09T08:43:12.421Z</time></trkpt><trkpt lat="42.9186417" lon="11.5230276"><ele>305.6</ele><time>2026-04-09T08:43:14.429Z</time></trkpt><trkpt lat="42.9187229" lon="11.523076"><ele>302.40000000000003</ele><time>2026-04-09T08:43:15.454Z</time></trkpt><trkpt lat="42.9187962" lon="11.5231015"><ele>299.2</ele><time>2026-04-09T08:43:16.44Z</time></trkpt><trkpt lat="42.9188804" lon="11.5231266"><ele>296.0</ele><time>2026-04-09T08:43:17.442Z</time></trkpt><trkpt lat="42.9189696" lon="11.5231681"><ele>296.0</ele><time>2026-04-09T08:43:18.443Z</time></trkpt><trkpt lat="42.9190567" lon="11.5232175"><ele>296.0</ele><time>2026-04-09T08:43:19.441Z</time></trkpt><trkpt lat="42.9191413" lon="11.5232582"><ele>296.0</ele><time>2026-04-09T08:43:20.429Z</time></trkpt><trkpt lat="42.9192308" lon="11.5232826"><ele>296.0</ele><time>2026-04-09T08:43:21.421Z</time></trkpt><trkpt lat="42.9193174" lon="11.5232995"><ele>296.0</ele><time>2026-04-09T08:43:22.45Z</time></trkpt><trkpt lat="42.9194055" lon="11.5233127"><ele>294.33333333333337</ele><time>2026-04-09T08:43:23.428Z</time></trkpt><trkpt lat="42.9195022" lon="11.523327"><ele>292.6666666666667</ele><time>2026-04-09T08:43:24.422Z</time></trkpt><trkpt lat="42.9195962" lon="11.5233489"><ele>291.0</ele><time>2026-04-09T08:43:25.433Z</time></trkpt><trkpt lat="42.9196787" lon="11.5233706"><ele>289.3333333333333</ele><time>2026-04-09T08:43:26.423Z</time></trkpt><trkpt lat="42.9197517" lon="11.5234082"><ele>287.66666666666663</ele><time>2026-04-09T08:43:27.42Z</time></trkpt><trkpt lat="42.9198081" lon="11.5234728"><ele>286.0</ele><time>2026-04-09T08:43:28.427Z</time></trkpt><trkpt lat="42.9198343" lon="11.5235621"><ele>286.0</ele><time>2026-04-09T08:43:29.421Z</time></trkpt><trkpt lat="42.9198493" lon="11.5236522"><ele>286.0</ele><time>2026-04-09T08:43:30.423Z</time></trkpt><trkpt lat="42.9198639" lon="11.5237368"><ele>286.0</ele><time>2026-04-09T08:43:31.422Z</time></trkpt><trkpt lat="42.9199267" lon="11.52384"><ele>286.0</ele><time>2026-04-09T08:43:33.424Z</time></trkpt><trkpt lat="42.9199716" lon="11.5235896"><ele>286.0</ele><time>2026-04-09T08:43:37.42Z</time></trkpt><trkpt lat="42.919956" lon="11.5235051"><ele>286.0</ele><time>2026-04-09T08:43:38.423Z</time></trkpt><trkpt lat="42.9199358" lon="11.5233532"><ele>286.0</ele><time>2026-04-09T08:43:40.422Z</time></trkpt><trkpt lat="42.9199925" lon="11.5232465"><ele>286.0</ele><time>2026-04-09T08:43:42.418Z</time></trkpt><trkpt lat="42.9200936" lon="11.523218"><ele>286.0</ele><time>2026-04-09T08:43:44.42Z</time></trkpt><trkpt lat="42.9201584" lon="11.5232063"><ele>286.0</ele><time>2026-04-09T08:43:45.419Z</time></trkpt><trkpt lat="42.9202343" lon="11.5231854"><ele>283.0</ele><time>2026-04-09T08:43:46.417Z</time></trkpt><trkpt lat="42.9203196" lon="11.5231655"><ele>280.0</ele><time>2026-04-09T08:43:47.416Z</time></trkpt><trkpt lat="42.9204159" lon="11.5231318"><ele>277.0</ele><time>2026-04-09T08:43:48.423Z</time></trkpt><trkpt lat="42.9205" lon="11.5230899"><ele>274.0</ele><time>2026-04-09T08:43:49.421Z</time></trkpt><trkpt lat="42.9205685" lon="11.5230373"><ele>271.0</ele><time>2026-04-09T08:43:50.414Z</time></trkpt><trkpt lat="42.9206241" lon="11.5229656"><ele>268.0</ele><time>2026-04-09T08:43:51.414Z</time></trkpt><trkpt lat="42.9206715" lon="11.5229009"><ele>270.6</ele><time>2026-04-09T08:43:52.417Z</time></trkpt><trkpt lat="42.9207593" lon="11.5228377"><ele>273.20000000000005</ele><time>2026-04-09T08:43:54.417Z</time></trkpt><trkpt lat="42.9209162" lon="11.5229662"><ele>275.8</ele><time>2026-04-09T08:43:58.446Z</time></trkpt><trkpt lat="42.9209796" lon="11.5230517"><ele>278.40000000000003</ele><time>2026-04-09T08:44:00.41Z</time></trkpt><trkpt lat="42.9210471" lon="11.5230846"><ele>281.0</ele><time>2026-04-09T08:44:02.446Z</time></trkpt><trkpt lat="42.9211292" lon="11.5230388"><ele>276.6</ele><time>2026-04-09T08:44:04.446Z</time></trkpt><trkpt lat="42.9211808" lon="11.5229148"><ele>272.20000000000005</ele><time>2026-04-09T08:44:06.414Z</time></trkpt><trkpt lat="42.9212189" lon="11.5227527"><ele>267.79999999999995</ele><time>2026-04-09T08:44:08.447Z</time></trkpt><trkpt lat="42.9212642" lon="11.5226057"><ele>263.4</ele><time>2026-04-09T08:44:10.45Z</time></trkpt><trkpt lat="42.9213347" lon="11.5225132"><ele>259.0</ele><time>2026-04-09T08:44:12.442Z</time></trkpt><trkpt lat="42.9214233" lon="11.5225251"><ele>259.0</ele><time>2026-04-09T08:44:14.443Z</time></trkpt><trkpt lat="42.9214876" lon="11.5226259"><ele>259.0</ele><time>2026-04-09T08:44:16.444Z</time></trkpt><trkpt lat="42.9216794" lon="11.5227252"><ele>259.0</ele><time>2026-04-09T08:44:19.439Z</time></trkpt><trkpt lat="42.9217457" lon="11.5227292"><ele>259.0</ele><time>2026-04-09T08:44:20.436Z</time></trkpt><trkpt lat="42.9218447" lon="11.5227048"><ele>257.66666666666663</ele><time>2026-04-09T08:44:22.424Z</time></trkpt><trkpt lat="42.9219347" lon="11.5226932"><ele>256.3333333333333</ele><time>2026-04-09T08:44:24.424Z</time></trkpt><trkpt lat="42.9220101" lon="11.5226462"><ele>255.0</ele><time>2026-04-09T08:44:26.416Z</time></trkpt><trkpt lat="42.9220867" lon="11.5225761"><ele>253.66666666666669</ele><time>2026-04-09T08:44:28.448Z</time></trkpt><trkpt lat="42.9221411" lon="11.5225288"><ele>252.33333333333334</ele><time>2026-04-09T08:44:29.448Z</time></trkpt><trkpt lat="42.9221998" lon="11.5224813"><ele>251.0</ele><time>2026-04-09T08:44:30.444Z</time></trkpt><trkpt lat="42.9222563" lon="11.522438"><ele>251.0</ele><time>2026-04-09T08:44:31.448Z</time></trkpt><trkpt lat="42.9223658" lon="11.5224036"><ele>251.00000000000003</ele><time>2026-04-09T08:44:33.446Z</time></trkpt><trkpt lat="42.9224886" lon="11.5224224"><ele>251.00000000000003</ele><time>2026-04-09T08:44:35.419Z</time></trkpt><trkpt lat="42.92256" lon="11.5224145"><ele>251.0</ele><time>2026-04-09T08:44:36.425Z</time></trkpt><trkpt lat="42.922637" lon="11.522384"><ele>251.0</ele><time>2026-04-09T08:44:37.444Z</time></trkpt><trkpt lat="42.9228136" lon="11.5223106"><ele>250.33333333333334</ele><time>2026-04-09T08:44:39.419Z</time></trkpt><trkpt lat="42.9228941" lon="11.5222939"><ele>249.66666666666669</ele><time>2026-04-09T08:44:40.431Z</time></trkpt><trkpt lat="42.9229671" lon="11.5222987"><ele>249.0</ele><time>2026-04-09T08:44:41.423Z</time></trkpt><trkpt lat="42.9230344" lon="11.522309"><ele>248.33333333333331</ele><time>2026-04-09T08:44:42.421Z</time></trkpt><trkpt lat="42.9231537" lon="11.5223353"><ele>247.66666666666666</ele><time>2026-04-09T08:44:44.443Z</time></trkpt><trkpt lat="42.9232544" lon="11.5223025"><ele>247.0</ele><time>2026-04-09T08:44:46.421Z</time></trkpt><trkpt lat="42.9233593" lon="11.5222225"><ele>246.2</ele><time>2026-04-09T08:44:48.421Z</time></trkpt><trkpt lat="42.9234473" lon="11.5221621"><ele>245.39999999999998</ele><time>2026-04-09T08:44:50.423Z</time></trkpt><trkpt lat="42.9235449" lon="11.5220853"><ele>244.60000000000002</ele><time>2026-04-09T08:44:52.418Z</time></trkpt><trkpt lat="42.9236108" lon="11.5219855"><ele>243.8</ele><time>2026-04-09T08:44:54.422Z</time></trkpt><trkpt lat="42.9235856" lon="11.5218993"><ele>243.0</ele><time>2026-04-09T08:44:57.423Z</time></trkpt><trkpt lat="42.9234989" lon="11.5218934"><ele>243.0</ele><time>2026-04-09T08:45:00.424Z</time></trkpt><trkpt lat="42.9234392" lon="11.5220686"><ele>243.0</ele><time>2026-04-09T08:45:05.414Z</time></trkpt><trkpt lat="42.9234452" lon="11.5221949"><ele>243.0</ele><time>2026-04-09T08:45:09.418Z</time></trkpt><trkpt lat="42.9234501" lon="11.5223188"><ele>243.0</ele><time>2026-04-09T08:45:11.422Z</time></trkpt><trkpt lat="42.9234806" lon="11.5224595"><ele>243.0</ele><time>2026-04-09T08:45:13.42Z</time></trkpt><trkpt lat="42.9234974" lon="11.5225926"><ele>243.0</ele><time>2026-04-09T08:45:15.419Z</time></trkpt><trkpt lat="42.9235075" lon="11.5226808"><ele>243.0</ele><time>2026-04-09T08:45:16.428Z</time></trkpt><trkpt lat="42.9235262" lon="11.5227827"><ele>243.0</ele><time>2026-04-09T08:45:17.412Z</time></trkpt><trkpt lat="42.9235438" lon="11.5228823"><ele>243.0</ele><time>2026-04-09T08:45:18.415Z</time></trkpt><trkpt lat="42.923564" lon="11.5229817"><ele>243.0</ele><time>2026-04-09T08:45:19.418Z</time></trkpt><trkpt lat="42.9235856" lon="11.5230703"><ele>243.0</ele><time>2026-04-09T08:45:20.426Z</time></trkpt><trkpt lat="42.9236056" lon="11.5231544"><ele>243.0</ele><time>2026-04-09T08:45:21.419Z</time></trkpt><trkpt lat="42.9236612" lon="11.5233339"><ele>244.0</ele><time>2026-04-09T08:45:23.422Z</time></trkpt><trkpt lat="42.923679" lon="11.5234252"><ele>245.0</ele><time>2026-04-09T08:45:24.416Z</time></trkpt><trkpt lat="42.9236944" lon="11.523512"><ele>246.0</ele><time>2026-04-09T08:45:25.416Z</time></trkpt><trkpt lat="42.9237154" lon="11.5236041"><ele>247.0</ele><time>2026-04-09T08:45:26.417Z</time></trkpt><trkpt lat="42.9237306" lon="11.5237039"><ele>248.0</ele><time>2026-04-09T08:45:27.415Z</time></trkpt><trkpt lat="42.923733" lon="11.5238584"><ele>249.0</ele><time>2026-04-09T08:45:29.421Z</time></trkpt><trkpt lat="42.9237483" lon="11.5239481"><ele>250.5</ele><time>2026-04-09T08:45:31.418Z</time></trkpt><trkpt lat="42.9237628" lon="11.5240384"><ele>252.0</ele><time>2026-04-09T08:45:33.407Z</time></trkpt><trkpt lat="42.9237462" lon="11.5241469"><ele>253.5</ele><time>2026-04-09T08:45:35.42Z</time></trkpt><trkpt lat="42.9237125" lon="11.5242427"><ele>255.0</ele><time>2026-04-09T08:45:37.417Z</time></trkpt><trkpt lat="42.9236555" lon="11.5243246"><ele>256.5</ele><time>2026-04-09T08:45:40.413Z</time></trkpt><trkpt lat="42.9236268" lon="11.5244328"><ele>258.0</ele><time>2026-04-09T08:45:43.415Z</time></trkpt><trkpt lat="42.9235615" lon="11.5245982"><ele>259.6666666666667</ele><time>2026-04-09T08:45:47.409Z</time></trkpt><trkpt lat="42.9235288" lon="11.524696"><ele>261.3333333333333</ele><time>2026-04-09T08:45:49.413Z</time></trkpt><trkpt lat="42.9234899" lon="11.5247638"><ele>263.0</ele><time>2026-04-09T08:45:51.413Z</time></trkpt><trkpt lat="42.9234554" lon="11.5248754"><ele>264.66666666666663</ele><time>2026-04-09T08:45:54.408Z</time></trkpt><trkpt lat="42.9234171" lon="11.5249784"><ele>266.3333333333333</ele><time>2026-04-09T08:45:56.417Z</time></trkpt><trkpt lat="42.9234001" lon="11.5250926"><ele>268.0</ele><time>2026-04-09T08:45:58.416Z</time></trkpt><trkpt lat="42.9233998" lon="11.525197"><ele>268.4</ele><time>2026-04-09T08:46:00.416Z</time></trkpt><trkpt lat="42.9233799" lon="11.5252958"><ele>268.8</ele><time>2026-04-09T08:46:02.42Z</time></trkpt><trkpt lat="42.9233321" lon="11.525388"><ele>269.2</ele><time>2026-04-09T08:46:07.408Z</time></trkpt><trkpt lat="42.9231802" lon="11.5254187"><ele>269.6</ele><time>2026-04-09T08:46:12.439Z</time></trkpt><trkpt lat="42.9230885" lon="11.5253494"><ele>270.0</ele><time>2026-04-09T08:46:14.418Z</time></trkpt><trkpt lat="42.9229837" lon="11.5253208"><ele>270.0</ele><time>2026-04-09T08:46:16.41Z</time></trkpt><trkpt lat="42.9229053" lon="11.5253194"><ele>270.0</ele><time>2026-04-09T08:46:18.439Z</time></trkpt><trkpt lat="42.9228461" lon="11.5253511"><ele>270.0</ele><time>2026-04-09T08:46:20.435Z</time></trkpt><trkpt lat="42.9227765" lon="11.5254083"><ele>270.0</ele><time>2026-04-09T08:46:29.416Z</time></trkpt><trkpt lat="42.9226926" lon="11.5255441"><ele>270.0</ele><time>2026-04-09T08:46:35.414Z</time></trkpt><trkpt lat="42.9225569" lon="11.5255584"><ele>266.5</ele><time>2026-04-09T08:46:46.417Z</time></trkpt><trkpt lat="42.9226195" lon="11.5255697"><ele>263.0</ele><time>2026-04-09T08:46:56.415Z</time></trkpt><trkpt lat="42.921707" lon="11.5241915"><ele>278.0</ele><time>2026-04-09T08:48:37.373Z</time></trkpt><trkpt lat="42.9224046" lon="11.5253017"><ele>278.0</ele><time>2026-04-09T08:48:41.726Z</time></trkpt><trkpt lat="42.9223547" lon="11.5251952"><ele>278.0</ele><time>2026-04-09T08:48:42.727Z</time></trkpt><trkpt lat="42.9225376" lon="11.5253208"><ele>278.0</ele><time>2026-04-09T08:49:10.415Z</time></trkpt><trkpt lat="42.9227428" lon="11.5252475"><ele>279.0</ele><time>2026-04-09T08:49:20.419Z</time></trkpt><trkpt lat="42.9228302" lon="11.5252094"><ele>280.0</ele><time>2026-04-09T08:49:23.422Z</time></trkpt><trkpt lat="42.9228949" lon="11.525218"><ele>281.0</ele><time>2026-04-09T08:49:25.415Z</time></trkpt><trkpt lat="42.9229701" lon="11.525268"><ele>282.0</ele><time>2026-04-09T08:49:28.418Z</time></trkpt><trkpt lat="42.9230289" lon="11.5253278"><ele>283.0</ele><time>2026-04-09T08:49:30.416Z</time></trkpt><trkpt lat="42.9230547" lon="11.5254119"><ele>284.0</ele><time>2026-04-09T08:49:32.417Z</time></trkpt><trkpt lat="42.9231254" lon="11.5254531"><ele>281.2</ele><time>2026-04-09T08:49:36.409Z</time></trkpt><trkpt lat="42.9232646" lon="11.5253625"><ele>278.4</ele><time>2026-04-09T08:49:42.409Z</time></trkpt><trkpt lat="42.9232978" lon="11.5252766"><ele>275.6</ele><time>2026-04-09T08:49:45.409Z</time></trkpt><trkpt lat="42.9233303" lon="11.5251887"><ele>272.8</ele><time>2026-04-09T08:49:48.411Z</time></trkpt><trkpt lat="42.9233473" lon="11.5250921"><ele>270.0</ele><time>2026-04-09T08:49:51.418Z</time></trkpt><trkpt lat="42.9233685" lon="11.5249857"><ele>270.0</ele><time>2026-04-09T08:49:54.419Z</time></trkpt><trkpt lat="42.9233799" lon="11.5248853"><ele>270.0</ele><time>2026-04-09T08:49:57.414Z</time></trkpt><trkpt lat="42.9234555" lon="11.5246514"><ele>270.0</ele><time>2026-04-09T08:50:02.408Z</time></trkpt><trkpt lat="42.9234945" lon="11.5245675"><ele>270.0</ele><time>2026-04-09T08:50:04.434Z</time></trkpt><trkpt lat="42.9235363" lon="11.5244768"><ele>270.0</ele><time>2026-04-09T08:50:07.408Z</time></trkpt><trkpt lat="42.9235559" lon="11.5243693"><ele>267.6</ele><time>2026-04-09T08:50:10.413Z</time></trkpt><trkpt lat="42.9235819" lon="11.5242561"><ele>265.2</ele><time>2026-04-09T08:50:12.421Z</time></trkpt><trkpt lat="42.923621" lon="11.5241274"><ele>262.8</ele><time>2026-04-09T08:50:14.414Z</time></trkpt><trkpt lat="42.9236382" lon="11.5239931"><ele>260.4</ele><time>2026-04-09T08:50:16.418Z</time></trkpt><trkpt lat="42.9236107" lon="11.5238793"><ele>258.0</ele><time>2026-04-09T08:50:18.415Z</time></trkpt><trkpt lat="42.9236411" lon="11.5236598"><ele>256.5</ele><time>2026-04-09T08:50:23.504Z</time></trkpt><trkpt lat="42.9236433" lon="11.5235407"><ele>255.0</ele><time>2026-04-09T08:50:26.42Z</time></trkpt><trkpt lat="42.9236299" lon="11.5234482"><ele>253.5</ele><time>2026-04-09T08:50:28.411Z</time></trkpt><trkpt lat="42.9235989" lon="11.5233552"><ele>252.0</ele><time>2026-04-09T08:50:30.419Z</time></trkpt><trkpt lat="42.9235624" lon="11.5232228"><ele>250.5</ele><time>2026-04-09T08:50:32.419Z</time></trkpt><trkpt lat="42.923534" lon="11.5230932"><ele>249.0</ele><time>2026-04-09T08:50:34.411Z</time></trkpt><trkpt lat="42.923499" lon="11.5229666"><ele>248.33333333333331</ele><time>2026-04-09T08:50:36.419Z</time></trkpt><trkpt lat="42.9234763" lon="11.5228821"><ele>247.66666666666666</ele><time>2026-04-09T08:50:37.411Z</time></trkpt><trkpt lat="42.9234441" lon="11.5227711"><ele>247.0</ele><time>2026-04-09T08:50:39.419Z</time></trkpt><trkpt lat="42.9233076" lon="11.5222442"><ele>247.0</ele><time>2026-04-09T08:53:14.328Z</time></trkpt><trkpt lat="42.9233824" lon="11.5222494"><ele>247.0</ele><time>2026-04-09T08:53:15.328Z</time></trkpt><trkpt lat="42.9233951" lon="11.5223689"><ele>247.0</ele><time>2026-04-09T08:53:55.424Z</time></trkpt><trkpt lat="42.9234221" lon="11.5225384"><ele>247.0</ele><time>2026-04-09T08:53:57.421Z</time></trkpt><trkpt lat="42.9234328" lon="11.52265"><ele>247.0</ele><time>2026-04-09T08:53:58.425Z</time></trkpt><trkpt lat="42.9234547" lon="11.5227793"><ele>247.33333333333331</ele><time>2026-04-09T08:53:59.422Z</time></trkpt><trkpt lat="42.9234817" lon="11.5228906"><ele>247.66666666666666</ele><time>2026-04-09T08:54:00.446Z</time></trkpt><trkpt lat="42.9235178" lon="11.522978"><ele>248.0</ele><time>2026-04-09T08:54:01.443Z</time></trkpt><trkpt lat="42.9235495" lon="11.5230719"><ele>248.33333333333331</ele><time>2026-04-09T08:54:02.42Z</time></trkpt><trkpt lat="42.9235773" lon="11.5231697"><ele>248.66666666666666</ele><time>2026-04-09T08:54:03.418Z</time></trkpt><trkpt lat="42.9236071" lon="11.523273"><ele>249.0</ele><time>2026-04-09T08:54:04.423Z</time></trkpt><trkpt lat="42.9236442" lon="11.5233767"><ele>249.0</ele><time>2026-04-09T08:54:05.421Z</time></trkpt><trkpt lat="42.9236704" lon="11.5234762"><ele>249.0</ele><time>2026-04-09T08:54:06.419Z</time></trkpt><trkpt lat="42.9236877" lon="11.5235645"><ele>249.0</ele><time>2026-04-09T08:54:07.421Z</time></trkpt><trkpt lat="42.9237079" lon="11.5236771"><ele>249.0</ele><time>2026-04-09T08:54:08.419Z</time></trkpt><trkpt lat="42.9237163" lon="11.5237738"><ele>249.0</ele><time>2026-04-09T08:54:09.422Z</time></trkpt><trkpt lat="42.9237048" lon="11.5239034"><ele>249.0</ele><time>2026-04-09T08:54:11.427Z</time></trkpt><trkpt lat="42.9237513" lon="11.5239925"><ele>250.5</ele><time>2026-04-09T08:54:13.425Z</time></trkpt><trkpt lat="42.9237674" lon="11.5240938"><ele>252.0</ele><time>2026-04-09T08:54:15.432Z</time></trkpt><trkpt lat="42.9237431" lon="11.5241872"><ele>253.5</ele><time>2026-04-09T08:54:17.674Z</time></trkpt><trkpt lat="42.9236751" lon="11.5243316"><ele>255.0</ele><time>2026-04-09T08:54:19.419Z</time></trkpt><trkpt lat="42.9236434" lon="11.524415"><ele>256.5</ele><time>2026-04-09T08:54:23.421Z</time></trkpt><trkpt lat="42.9236727" lon="11.5245136"><ele>258.0</ele><time>2026-04-09T08:54:26.423Z</time></trkpt><trkpt lat="42.9236914" lon="11.5246193"><ele>259.6666666666667</ele><time>2026-04-09T08:54:28.427Z</time></trkpt><trkpt lat="42.9237226" lon="11.5247226"><ele>261.3333333333333</ele><time>2026-04-09T08:54:30.421Z</time></trkpt><trkpt lat="42.9237427" lon="11.5248189"><ele>263.0</ele><time>2026-04-09T08:54:32.427Z</time></trkpt><trkpt lat="42.9237862" lon="11.5249181"><ele>264.66666666666663</ele><time>2026-04-09T08:54:34.423Z</time></trkpt><trkpt lat="42.9238195" lon="11.5250264"><ele>266.3333333333333</ele><time>2026-04-09T08:54:36.444Z</time></trkpt><trkpt lat="42.9238481" lon="11.5251207"><ele>268.0</ele><time>2026-04-09T08:54:38.426Z</time></trkpt><trkpt lat="42.9238878" lon="11.5252081"><ele>268.0</ele><time>2026-04-09T08:54:40.424Z</time></trkpt><trkpt lat="42.9239175" lon="11.5253415"><ele>268.0</ele><time>2026-04-09T08:54:42.424Z</time></trkpt><trkpt lat="42.9239558" lon="11.5255091"><ele>268.0</ele><time>2026-04-09T08:54:44.422Z</time></trkpt><trkpt lat="42.923983" lon="11.5255932"><ele>268.0</ele><time>2026-04-09T08:54:45.423Z</time></trkpt><trkpt lat="42.9240169" lon="11.5256721"><ele>268.0</ele><time>2026-04-09T08:54:46.418Z</time></trkpt><trkpt lat="42.9240817" lon="11.5258255"><ele>269.8571428571429</ele><time>2026-04-09T08:54:48.419Z</time></trkpt><trkpt lat="42.9241146" lon="11.5258988"><ele>271.7142857142857</ele><time>2026-04-09T08:54:49.419Z</time></trkpt><trkpt lat="42.9241409" lon="11.5259798"><ele>273.57142857142856</ele><time>2026-04-09T08:54:50.426Z</time></trkpt><trkpt lat="42.9241731" lon="11.5260582"><ele>275.42857142857144</ele><time>2026-04-09T08:54:51.429Z</time></trkpt><trkpt lat="42.9242029" lon="11.5261388"><ele>277.2857142857143</ele><time>2026-04-09T08:54:52.423Z</time></trkpt><trkpt lat="42.9242303" lon="11.5262189"><ele>279.14285714285717</ele><time>2026-04-09T08:54:53.424Z</time></trkpt><trkpt lat="42.9242684" lon="11.5263512"><ele>281.0</ele><time>2026-04-09T08:54:55.418Z</time></trkpt><trkpt lat="42.9242917" lon="11.5264396"><ele>283.33333333333337</ele><time>2026-04-09T08:54:56.42Z</time></trkpt><trkpt lat="42.924313" lon="11.5265485"><ele>285.6666666666667</ele><time>2026-04-09T08:54:57.413Z</time></trkpt><trkpt lat="42.9243343" lon="11.5266577"><ele>288.0</ele><time>2026-04-09T08:54:58.418Z</time></trkpt><trkpt lat="42.9243654" lon="11.5267606"><ele>290.3333333333333</ele><time>2026-04-09T08:54:59.42Z</time></trkpt><trkpt lat="42.9244009" lon="11.5268647"><ele>292.66666666666663</ele><time>2026-04-09T08:55:00.422Z</time></trkpt><trkpt lat="42.9244338" lon="11.5269605"><ele>295.0</ele><time>2026-04-09T08:55:01.416Z</time></trkpt><trkpt lat="42.9244583" lon="11.5270467"><ele>296.42857142857144</ele><time>2026-04-09T08:55:02.436Z</time></trkpt><trkpt lat="42.9244932" lon="11.5271296"><ele>297.8571428571429</ele><time>2026-04-09T08:55:03.44Z</time></trkpt><trkpt lat="42.9245382" lon="11.5272027"><ele>299.28571428571433</ele><time>2026-04-09T08:55:04.437Z</time></trkpt><trkpt lat="42.9245758" lon="11.5272814"><ele>300.7142857142857</ele><time>2026-04-09T08:55:05.414Z</time></trkpt><trkpt lat="42.9246099" lon="11.5273626"><ele>302.1428571428571</ele><time>2026-04-09T08:55:06.423Z</time></trkpt><trkpt lat="42.9246469" lon="11.5274543"><ele>303.5714285714286</ele><time>2026-04-09T08:55:07.436Z</time></trkpt><trkpt lat="42.9246881" lon="11.5275316"><ele>305.0</ele><time>2026-04-09T08:55:08.44Z</time></trkpt><trkpt lat="42.9247193" lon="11.5276418"><ele>305.0</ele><time>2026-04-09T08:55:10.419Z</time></trkpt><trkpt lat="42.9246966" lon="11.5277322"><ele>305.0</ele><time>2026-04-09T08:55:14.433Z</time></trkpt><trkpt lat="42.9246048" lon="11.527756"><ele>305.0</ele><time>2026-04-09T08:55:16.421Z</time></trkpt><trkpt lat="42.9245391" lon="11.5277764"><ele>305.0</ele><time>2026-04-09T08:55:17.42Z</time></trkpt><trkpt lat="42.9244722" lon="11.5278017"><ele>305.0</ele><time>2026-04-09T08:55:18.418Z</time></trkpt><trkpt lat="42.9244036" lon="11.5278371"><ele>305.0</ele><time>2026-04-09T08:55:19.415Z</time></trkpt><trkpt lat="42.9243351" lon="11.5278808"><ele>305.0</ele><time>2026-04-09T08:55:20.425Z</time></trkpt><trkpt lat="42.9242646" lon="11.5279245"><ele>307.5</ele><time>2026-04-09T08:55:21.421Z</time></trkpt><trkpt lat="42.924193" lon="11.5279633"><ele>310.0</ele><time>2026-04-09T08:55:22.417Z</time></trkpt><trkpt lat="42.924127" lon="11.5279966"><ele>312.5</ele><time>2026-04-09T08:55:23.422Z</time></trkpt><trkpt lat="42.9240635" lon="11.5280404"><ele>315.0</ele><time>2026-04-09T08:55:24.414Z</time></trkpt><trkpt lat="42.9240031" lon="11.5280819"><ele>317.5</ele><time>2026-04-09T08:55:25.414Z</time></trkpt><trkpt lat="42.9238816" lon="11.5281179"><ele>320.0</ele><time>2026-04-09T08:55:27.423Z</time></trkpt><trkpt lat="42.9238023" lon="11.5281354"><ele>320.0</ele><time>2026-04-09T08:55:29.416Z</time></trkpt><trkpt lat="42.9237485" lon="11.5281925"><ele>320.0</ele><time>2026-04-09T08:55:31.413Z</time></trkpt><trkpt lat="42.923753" lon="11.5282992"><ele>320.0</ele><time>2026-04-09T08:55:35.414Z</time></trkpt><trkpt lat="42.9237962" lon="11.5284249"><ele>320.0</ele><time>2026-04-09T08:55:37.41Z</time></trkpt><trkpt lat="42.9238457" lon="11.5285413"><ele>320.0</ele><time>2026-04-09T08:55:39.417Z</time></trkpt><trkpt lat="42.9238704" lon="11.5286565"><ele>320.0</ele><time>2026-04-09T08:55:41.422Z</time></trkpt><trkpt lat="42.9239237" lon="11.5287439"><ele>323.2</ele><time>2026-04-09T08:55:43.409Z</time></trkpt><trkpt lat="42.9239593" lon="11.5288509"><ele>326.4</ele><time>2026-04-09T08:55:45.42Z</time></trkpt><trkpt lat="42.9240077" lon="11.5289908"><ele>329.6</ele><time>2026-04-09T08:55:47.422Z</time></trkpt><trkpt lat="42.9240354" lon="11.529071"><ele>332.8</ele><time>2026-04-09T08:55:48.424Z</time></trkpt><trkpt lat="42.9240648" lon="11.5292343"><ele>336.0</ele><time>2026-04-09T08:55:50.427Z</time></trkpt><trkpt lat="42.9240789" lon="11.5293236"><ele>336.0</ele><time>2026-04-09T08:55:51.43Z</time></trkpt><trkpt lat="42.9241049" lon="11.5294167"><ele>336.0</ele><time>2026-04-09T08:55:52.423Z</time></trkpt><trkpt lat="42.9241331" lon="11.5295115"><ele>336.0</ele><time>2026-04-09T08:55:53.422Z</time></trkpt><trkpt lat="42.9241599" lon="11.5296001"><ele>336.0</ele><time>2026-04-09T08:55:54.42Z</time></trkpt><trkpt lat="42.9241817" lon="11.5296862"><ele>336.0</ele><time>2026-04-09T08:55:55.417Z</time></trkpt><trkpt lat="42.9242151" lon="11.5297816"><ele>336.0</ele><time>2026-04-09T08:55:56.417Z</time></trkpt><trkpt lat="42.9242486" lon="11.5298856"><ele>336.0</ele><time>2026-04-09T08:55:57.433Z</time></trkpt><trkpt lat="42.9242708" lon="11.5300015"><ele>337.20000000000005</ele><time>2026-04-09T08:55:58.421Z</time></trkpt><trkpt lat="42.9242918" lon="11.5301009"><ele>338.40000000000003</ele><time>2026-04-09T08:55:59.424Z</time></trkpt><trkpt lat="42.9243316" lon="11.5302501"><ele>339.6</ele><time>2026-04-09T08:56:01.418Z</time></trkpt><trkpt lat="42.9243778" lon="11.5303118"><ele>340.8</ele><time>2026-04-09T08:56:02.412Z</time></trkpt><trkpt lat="42.9244699" lon="11.530344"><ele>342.0</ele><time>2026-04-09T08:56:04.42Z</time></trkpt><trkpt lat="42.9245765" lon="11.5303423"><ele>344.20000000000005</ele><time>2026-04-09T08:56:06.437Z</time></trkpt><trkpt lat="42.924659" lon="11.530417"><ele>346.4</ele><time>2026-04-09T08:56:08.42Z</time></trkpt><trkpt lat="42.9246941" lon="11.53059"><ele>348.6</ele><time>2026-04-09T08:56:10.417Z</time></trkpt><trkpt lat="42.9247158" lon="11.5306938"><ele>350.79999999999995</ele><time>2026-04-09T08:56:11.424Z</time></trkpt><trkpt lat="42.9247525" lon="11.5308114"><ele>353.0</ele><time>2026-04-09T08:56:12.415Z</time></trkpt><trkpt lat="42.924785" lon="11.530941"><ele>353.0</ele><time>2026-04-09T08:56:13.418Z</time></trkpt><trkpt lat="42.9248083" lon="11.5310574"><ele>353.0</ele><time>2026-04-09T08:56:14.415Z</time></trkpt><trkpt lat="42.9248255" lon="11.5311549"><ele>353.0</ele><time>2026-04-09T08:56:15.414Z</time></trkpt><trkpt lat="42.9248336" lon="11.5313134"><ele>353.0</ele><time>2026-04-09T08:56:17.411Z</time></trkpt><trkpt lat="42.9248248" lon="11.5314082"><ele>353.0</ele><time>2026-04-09T08:56:18.409Z</time></trkpt><trkpt lat="42.9248145" lon="11.5315575"><ele>354.1666666666667</ele><time>2026-04-09T08:56:20.415Z</time></trkpt><trkpt lat="42.9247674" lon="11.5317139"><ele>355.33333333333337</ele><time>2026-04-09T08:56:22.416Z</time></trkpt><trkpt lat="42.9247316" lon="11.5318121"><ele>356.5</ele><time>2026-04-09T08:56:23.419Z</time></trkpt><trkpt lat="42.9246968" lon="11.5319051"><ele>357.6666666666667</ele><time>2026-04-09T08:56:24.413Z</time></trkpt><trkpt lat="42.9246713" lon="11.5320012"><ele>358.8333333333333</ele><time>2026-04-09T08:56:25.418Z</time></trkpt><trkpt lat="42.9246551" lon="11.5321003"><ele>360.0</ele><time>2026-04-09T08:56:26.423Z</time></trkpt><trkpt lat="42.9246338" lon="11.5321919"><ele>361.6666666666667</ele><time>2026-04-09T08:56:27.415Z</time></trkpt><trkpt lat="42.924606" lon="11.5322788"><ele>363.3333333333333</ele><time>2026-04-09T08:56:28.423Z</time></trkpt><trkpt lat="42.9245628" lon="11.5323585"><ele>365.0</ele><time>2026-04-09T08:56:29.422Z</time></trkpt><trkpt lat="42.9245021" lon="11.532456"><ele>366.66666666666663</ele><time>2026-04-09T08:56:31.424Z</time></trkpt><trkpt lat="42.9244853" lon="11.5325415"><ele>368.3333333333333</ele><time>2026-04-09T08:56:33.415Z</time></trkpt><trkpt lat="42.9244129" lon="11.5326291"><ele>370.0</ele><time>2026-04-09T08:56:35.419Z</time></trkpt><trkpt lat="42.924306" lon="11.532633"><ele>372.8</ele><time>2026-04-09T08:56:37.423Z</time></trkpt><trkpt lat="42.9241954" lon="11.532547"><ele>375.6</ele><time>2026-04-09T08:56:39.418Z</time></trkpt><trkpt lat="42.9241011" lon="11.5325015"><ele>378.4</ele><time>2026-04-09T08:56:41.434Z</time></trkpt><trkpt lat="42.9240153" lon="11.5325511"><ele>381.2</ele><time>2026-04-09T08:56:43.444Z</time></trkpt><trkpt lat="42.923949" lon="11.5326456"><ele>384.0</ele><time>2026-04-09T08:56:45.41Z</time></trkpt><trkpt lat="42.9239507" lon="11.5327335"><ele>384.0</ele><time>2026-04-09T08:56:48.414Z</time></trkpt><trkpt lat="42.9240348" lon="11.5327998"><ele>384.0</ele><time>2026-04-09T08:56:51.417Z</time></trkpt><trkpt lat="42.9241267" lon="11.5328859"><ele>384.0</ele><time>2026-04-09T08:56:53.41Z</time></trkpt><trkpt lat="42.924212" lon="11.5330155"><ele>384.0</ele><time>2026-04-09T08:56:55.419Z</time></trkpt><trkpt lat="42.924255" lon="11.5330827"><ele>384.0</ele><time>2026-04-09T08:56:56.417Z</time></trkpt><trkpt lat="42.9243063" lon="11.5332268"><ele>384.0</ele><time>2026-04-09T08:56:58.415Z</time></trkpt><trkpt lat="42.9243168" lon="11.5333696"><ele>384.0</ele><time>2026-04-09T08:57:00.415Z</time></trkpt><trkpt lat="42.9242999" lon="11.5335292"><ele>384.0</ele><time>2026-04-09T08:57:02.412Z</time></trkpt><trkpt lat="42.92428" lon="11.5336338"><ele>384.0</ele><time>2026-04-09T08:57:03.419Z</time></trkpt><trkpt lat="42.9242601" lon="11.5337429"><ele>384.0</ele><time>2026-04-09T08:57:04.411Z</time></trkpt><trkpt lat="42.9242534" lon="11.5338351"><ele>384.0</ele><time>2026-04-09T08:57:05.412Z</time></trkpt><trkpt lat="42.9242672" lon="11.5339874"><ele>384.0</ele><time>2026-04-09T08:57:07.422Z</time></trkpt><trkpt lat="42.9243025" lon="11.5340617"><ele>384.0</ele><time>2026-04-09T08:57:08.419Z</time></trkpt><trkpt lat="42.9243561" lon="11.5341491"><ele>384.0</ele><time>2026-04-09T08:57:09.416Z</time></trkpt><trkpt lat="42.9244185" lon="11.5342509"><ele>384.0</ele><time>2026-04-09T08:57:10.423Z</time></trkpt><trkpt lat="42.9244884" lon="11.534371"><ele>384.0</ele><time>2026-04-09T08:57:11.429Z</time></trkpt><trkpt lat="42.9245378" lon="11.5344839"><ele>384.0</ele><time>2026-04-09T08:57:12.419Z</time></trkpt><trkpt lat="42.9245942" lon="11.5345929"><ele>384.0</ele><time>2026-04-09T08:57:13.421Z</time></trkpt><trkpt lat="42.9246623" lon="11.5346941"><ele>384.0</ele><time>2026-04-09T08:57:14.423Z</time></trkpt><trkpt lat="42.9247331" lon="11.5347856"><ele>384.0</ele><time>2026-04-09T08:57:15.421Z</time></trkpt><trkpt lat="42.9248035" lon="11.5348622"><ele>385.4</ele><time>2026-04-09T08:57:16.423Z</time></trkpt><trkpt lat="42.924869" lon="11.5349374"><ele>386.79999999999995</ele><time>2026-04-09T08:57:17.425Z</time></trkpt><trkpt lat="42.9249324" lon="11.5350143"><ele>388.20000000000005</ele><time>2026-04-09T08:57:18.419Z</time></trkpt><trkpt lat="42.9249936" lon="11.5351111"><ele>389.6</ele><time>2026-04-09T08:57:19.418Z</time></trkpt><trkpt lat="42.9250518" lon="11.5352143"><ele>391.0</ele><time>2026-04-09T08:57:20.42Z</time></trkpt><trkpt lat="42.9251023" lon="11.5353242"><ele>393.20000000000005</ele><time>2026-04-09T08:57:21.417Z</time></trkpt><trkpt lat="42.9251494" lon="11.5354281"><ele>395.40000000000003</ele><time>2026-04-09T08:57:22.424Z</time></trkpt><trkpt lat="42.9252233" lon="11.5355356"><ele>397.6</ele><time>2026-04-09T08:57:23.416Z</time></trkpt><trkpt lat="42.925289" lon="11.5356283"><ele>399.8</ele><time>2026-04-09T08:57:24.423Z</time></trkpt><trkpt lat="42.9253526" lon="11.5357127"><ele>402.0</ele><time>2026-04-09T08:57:25.433Z</time></trkpt><trkpt lat="42.9254116" lon="11.5357918"><ele>402.0</ele><time>2026-04-09T08:57:26.419Z</time></trkpt><trkpt lat="42.9254718" lon="11.535876"><ele>402.0</ele><time>2026-04-09T08:57:27.424Z</time></trkpt><trkpt lat="42.9255445" lon="11.5359554"><ele>402.0</ele><time>2026-04-09T08:57:28.421Z</time></trkpt><trkpt lat="42.9256268" lon="11.5360233"><ele>402.0</ele><time>2026-04-09T08:57:29.425Z</time></trkpt><trkpt lat="42.9257131" lon="11.5360748"><ele>402.0</ele><time>2026-04-09T08:57:30.419Z</time></trkpt><trkpt lat="42.9257892" lon="11.5361155"><ele>402.0</ele><time>2026-04-09T08:57:31.427Z</time></trkpt><trkpt lat="42.9258448" lon="11.5361671"><ele>402.0</ele><time>2026-04-09T08:57:32.42Z</time></trkpt><trkpt lat="42.9259071" lon="11.5362172"><ele>402.0</ele><time>2026-04-09T08:57:33.424Z</time></trkpt><trkpt lat="42.9259729" lon="11.5362635"><ele>402.0</ele><time>2026-04-09T08:57:34.424Z</time></trkpt><trkpt lat="42.9260474" lon="11.5362998"><ele>402.0</ele><time>2026-04-09T08:57:35.426Z</time></trkpt><trkpt lat="42.9261175" lon="11.53632"><ele>402.0</ele><time>2026-04-09T08:57:36.42Z</time></trkpt><trkpt lat="42.926194" lon="11.5363456"><ele>402.0</ele><time>2026-04-09T08:57:37.424Z</time></trkpt><trkpt lat="42.9262722" lon="11.5363664"><ele>403.0</ele><time>2026-04-09T08:57:38.42Z</time></trkpt><trkpt lat="42.9263444" lon="11.5363799"><ele>404.0</ele><time>2026-04-09T08:57:39.424Z</time></trkpt><trkpt lat="42.9264184" lon="11.5363882"><ele>405.0</ele><time>2026-04-09T08:57:40.423Z</time></trkpt><trkpt lat="42.9277337" lon="11.5370182"><ele>407.0</ele><time>2026-04-09T08:57:58.412Z</time></trkpt><trkpt lat="42.9278039" lon="11.5370611"><ele>409.0</ele><time>2026-04-09T08:57:59.419Z</time></trkpt><trkpt lat="42.9278919" lon="11.5371036"><ele>411.0</ele><time>2026-04-09T08:58:00.424Z</time></trkpt><trkpt lat="42.9279874" lon="11.5371408"><ele>413.0</ele><time>2026-04-09T08:58:01.418Z</time></trkpt><trkpt lat="42.9280939" lon="11.5371872"><ele>415.0</ele><time>2026-04-09T08:58:02.416Z</time></trkpt><trkpt lat="42.9282122" lon="11.5372269"><ele>415.0</ele><time>2026-04-09T08:58:03.429Z</time></trkpt><trkpt lat="42.9283387" lon="11.5372615"><ele>415.0</ele><time>2026-04-09T08:58:04.422Z</time></trkpt><trkpt lat="42.9284471" lon="11.5372866"><ele>415.0</ele><time>2026-04-09T08:58:05.423Z</time></trkpt><trkpt lat="42.9285209" lon="11.5373055"><ele>415.0</ele><time>2026-04-09T08:58:06.417Z</time></trkpt><trkpt lat="42.9285841" lon="11.5373255"><ele>415.0</ele><time>2026-04-09T08:58:07.419Z</time></trkpt><trkpt lat="42.9286883" lon="11.5373648"><ele>419.0</ele><time>2026-04-09T08:58:09.421Z</time></trkpt><trkpt lat="42.9287506" lon="11.5374205"><ele>423.0</ele><time>2026-04-09T08:58:10.413Z</time></trkpt><trkpt lat="42.9297769" lon="11.5386461"><ele>426.1666666666667</ele><time>2026-04-09T09:00:35.977Z</time></trkpt><trkpt lat="42.9297445" lon="11.5387502"><ele>429.33333333333337</ele><time>2026-04-09T09:00:38.004Z</time></trkpt><trkpt lat="42.9298462" lon="11.5388174"><ele>432.5</ele><time>2026-04-09T09:00:39.016Z</time></trkpt><trkpt lat="42.929792" lon="11.5387657"><ele>435.6666666666667</ele><time>2026-04-09T09:00:46.019Z</time></trkpt><trkpt lat="42.9297345" lon="11.5388077"><ele>438.83333333333337</ele><time>2026-04-09T09:02:12.452Z</time></trkpt><trkpt lat="42.9296589" lon="11.5389175"><ele>442.0</ele><time>2026-04-09T09:02:13.461Z</time></trkpt><trkpt lat="42.9295504" lon="11.53903"><ele>442.0</ele><time>2026-04-09T09:02:14.459Z</time></trkpt><trkpt lat="42.9294534" lon="11.5391502"><ele>442.0</ele><time>2026-04-09T09:02:15.455Z</time></trkpt><trkpt lat="42.9293452" lon="11.5392881"><ele>442.0</ele><time>2026-04-09T09:02:16.445Z</time></trkpt><trkpt lat="42.9292412" lon="11.5394191"><ele>442.0</ele><time>2026-04-09T09:02:17.462Z</time></trkpt><trkpt lat="42.929153" lon="11.5395515"><ele>439.75</ele><time>2026-04-09T09:02:18.455Z</time></trkpt><trkpt lat="42.929059" lon="11.53968"><ele>437.5</ele><time>2026-04-09T09:02:19.462Z</time></trkpt><trkpt lat="42.9289728" lon="11.5397965"><ele>435.25</ele><time>2026-04-09T09:02:20.458Z</time></trkpt><trkpt lat="42.9288936" lon="11.5399085"><ele>433.0</ele><time>2026-04-09T09:02:21.462Z</time></trkpt><trkpt lat="42.9288186" lon="11.540013"><ele>433.00000000000006</ele><time>2026-04-09T09:02:22.45Z</time></trkpt><trkpt lat="42.9287543" lon="11.540106"><ele>433.0</ele><time>2026-04-09T09:02:23.457Z</time></trkpt><trkpt lat="42.9286977" lon="11.5401881"><ele>433.0</ele><time>2026-04-09T09:02:24.446Z</time></trkpt><trkpt lat="42.9286475" lon="11.5402683"><ele>433.0</ele><time>2026-04-09T09:02:25.446Z</time></trkpt><trkpt lat="42.9286036" lon="11.5403496"><ele>433.00000000000006</ele><time>2026-04-09T09:02:26.444Z</time></trkpt><trkpt lat="42.9285641" lon="11.540427"><ele>433.0</ele><time>2026-04-09T09:02:27.436Z</time></trkpt><trkpt lat="42.9285279" lon="11.5405053"><ele>433.83333333333337</ele><time>2026-04-09T09:02:28.438Z</time></trkpt><trkpt lat="42.9284972" lon="11.5405956"><ele>434.6666666666667</ele><time>2026-04-09T09:02:29.445Z</time></trkpt><trkpt lat="42.9284762" lon="11.5407152"><ele>435.5</ele><time>2026-04-09T09:02:30.436Z</time></trkpt><trkpt lat="42.928461" lon="11.540832"><ele>436.33333333333337</ele><time>2026-04-09T09:02:31.453Z</time></trkpt><trkpt lat="42.928447" lon="11.5409393"><ele>437.1666666666667</ele><time>2026-04-09T09:02:32.44Z</time></trkpt><trkpt lat="42.9284243" lon="11.5410324"><ele>438.0</ele><time>2026-04-09T09:02:33.442Z</time></trkpt><trkpt lat="42.9284042" lon="11.5411182"><ele>435.8333333333333</ele><time>2026-04-09T09:02:34.445Z</time></trkpt><trkpt lat="42.9283862" lon="11.5412031"><ele>433.66666666666663</ele><time>2026-04-09T09:02:35.449Z</time></trkpt><trkpt lat="42.9283692" lon="11.5413628"><ele>431.5</ele><time>2026-04-09T09:02:37.439Z</time></trkpt><trkpt lat="42.9283707" lon="11.5414688"><ele>429.3333333333333</ele><time>2026-04-09T09:02:38.446Z</time></trkpt><trkpt lat="42.9283703" lon="11.5415802"><ele>427.16666666666663</ele><time>2026-04-09T09:02:39.445Z</time></trkpt><trkpt lat="42.9283602" lon="11.5417102"><ele>425.0</ele><time>2026-04-09T09:02:40.436Z</time></trkpt><trkpt lat="42.9283389" lon="11.5418638"><ele>425.0</ele><time>2026-04-09T09:02:41.446Z</time></trkpt><trkpt lat="42.9283063" lon="11.5420227"><ele>425.0</ele><time>2026-04-09T09:02:42.454Z</time></trkpt><trkpt lat="42.9282694" lon="11.5421794"><ele>425.0</ele><time>2026-04-09T09:02:43.449Z</time></trkpt><trkpt lat="42.9282302" lon="11.5423141"><ele>425.0</ele><time>2026-04-09T09:02:44.444Z</time></trkpt><trkpt lat="42.9282035" lon="11.5424334"><ele>425.0</ele><time>2026-04-09T09:02:45.451Z</time></trkpt><trkpt lat="42.9281879" lon="11.5425477"><ele>424.66666666666663</ele><time>2026-04-09T09:02:46.444Z</time></trkpt><trkpt lat="42.9281716" lon="11.5426531"><ele>424.3333333333333</ele><time>2026-04-09T09:02:47.442Z</time></trkpt><trkpt lat="42.9281574" lon="11.5427489"><ele>424.0</ele><time>2026-04-09T09:02:48.441Z</time></trkpt><trkpt lat="42.9281444" lon="11.5428409"><ele>423.66666666666663</ele><time>2026-04-09T09:02:49.431Z</time></trkpt><trkpt lat="42.9281095" lon="11.5430145"><ele>423.3333333333333</ele><time>2026-04-09T09:02:51.445Z</time></trkpt><trkpt lat="42.9280893" lon="11.5431249"><ele>423.0</ele><time>2026-04-09T09:02:52.441Z</time></trkpt><trkpt lat="42.9280727" lon="11.5432411"><ele>423.0</ele><time>2026-04-09T09:02:53.441Z</time></trkpt><trkpt lat="42.928075" lon="11.5433547"><ele>423.0</ele><time>2026-04-09T09:02:54.445Z</time></trkpt><trkpt lat="42.928118" lon="11.5434731"><ele>423.0</ele><time>2026-04-09T09:02:55.433Z</time></trkpt><trkpt lat="42.9281873" lon="11.543595"><ele>423.0</ele><time>2026-04-09T09:02:56.447Z</time></trkpt><trkpt lat="42.9282568" lon="11.5437396"><ele>423.0</ele><time>2026-04-09T09:02:57.442Z</time></trkpt><trkpt lat="42.9283159" lon="11.5438839"><ele>421.33333333333337</ele><time>2026-04-09T09:02:58.437Z</time></trkpt><trkpt lat="42.9283884" lon="11.5440483"><ele>419.6666666666667</ele><time>2026-04-09T09:02:59.44Z</time></trkpt><trkpt lat="42.9284627" lon="11.5442334"><ele>418.0</ele><time>2026-04-09T09:03:00.437Z</time></trkpt><trkpt lat="42.9285549" lon="11.5444564"><ele>421.4</ele><time>2026-04-09T09:03:01.429Z</time></trkpt><trkpt lat="42.9286112" lon="11.5446434"><ele>424.79999999999995</ele><time>2026-04-09T09:03:02.432Z</time></trkpt><trkpt lat="42.928636" lon="11.544789"><ele>428.2</ele><time>2026-04-09T09:03:03.441Z</time></trkpt><trkpt lat="42.9286656" lon="11.544906"><ele>431.6</ele><time>2026-04-09T09:03:04.437Z</time></trkpt><trkpt lat="42.9286985" lon="11.5450047"><ele>435.0</ele><time>2026-04-09T09:03:05.444Z</time></trkpt><trkpt lat="42.9286688" lon="11.545165"><ele>435.0</ele><time>2026-04-09T09:03:07.44Z</time></trkpt><trkpt lat="42.9286535" lon="11.545273"><ele>435.0</ele><time>2026-04-09T09:03:08.443Z</time></trkpt><trkpt lat="42.9286313" lon="11.5453844"><ele>435.0</ele><time>2026-04-09T09:03:09.44Z</time></trkpt><trkpt lat="42.9286031" lon="11.5455096"><ele>435.0</ele><time>2026-04-09T09:03:10.437Z</time></trkpt><trkpt lat="42.9285787" lon="11.5456516"><ele>435.0</ele><time>2026-04-09T09:03:11.439Z</time></trkpt><trkpt lat="42.9285555" lon="11.5457933"><ele>434.4</ele><time>2026-04-09T09:03:12.445Z</time></trkpt><trkpt lat="42.9285345" lon="11.5459244"><ele>433.8</ele><time>2026-04-09T09:03:13.436Z</time></trkpt><trkpt lat="42.9285057" lon="11.5460578"><ele>433.20000000000005</ele><time>2026-04-09T09:03:14.435Z</time></trkpt><trkpt lat="42.928461" lon="11.5461774"><ele>432.6</ele><time>2026-04-09T09:03:15.444Z</time></trkpt><trkpt lat="42.9284025" lon="11.546274"><ele>432.0</ele><time>2026-04-09T09:03:16.443Z</time></trkpt><trkpt lat="42.9283341" lon="11.5463711"><ele>427.8</ele><time>2026-04-09T09:03:17.446Z</time></trkpt><trkpt lat="42.9282664" lon="11.5464641"><ele>423.6</ele><time>2026-04-09T09:03:18.438Z</time></trkpt><trkpt lat="42.9282016" lon="11.5465503"><ele>419.40000000000003</ele><time>2026-04-09T09:03:19.445Z</time></trkpt><trkpt lat="42.9281274" lon="11.5466404"><ele>415.20000000000005</ele><time>2026-04-09T09:03:20.446Z</time></trkpt><trkpt lat="42.9280577" lon="11.546722"><ele>411.0</ele><time>2026-04-09T09:03:21.443Z</time></trkpt><trkpt lat="42.927979" lon="11.5468297"><ele>411.0</ele><time>2026-04-09T09:03:22.438Z</time></trkpt><trkpt lat="42.927895" lon="11.5469491"><ele>411.0</ele><time>2026-04-09T09:03:23.447Z</time></trkpt><trkpt lat="42.9278113" lon="11.5470655"><ele>411.0</ele><time>2026-04-09T09:03:24.465Z</time></trkpt><trkpt lat="42.9277297" lon="11.5471777"><ele>411.0</ele><time>2026-04-09T09:03:25.448Z</time></trkpt><trkpt lat="42.9276513" lon="11.5472943"><ele>411.8</ele><time>2026-04-09T09:03:26.47Z</time></trkpt><trkpt lat="42.9275727" lon="11.5474028"><ele>412.6</ele><time>2026-04-09T09:03:27.441Z</time></trkpt><trkpt lat="42.9274981" lon="11.5475164"><ele>413.4</ele><time>2026-04-09T09:03:28.447Z</time></trkpt><trkpt lat="42.9274317" lon="11.5476219"><ele>414.2</ele><time>2026-04-09T09:03:29.447Z</time></trkpt><trkpt lat="42.9273698" lon="11.5477231"><ele>415.0</ele><time>2026-04-09T09:03:30.451Z</time></trkpt><trkpt lat="42.9273084" lon="11.5478181"><ele>412.50000000000006</ele><time>2026-04-09T09:03:31.447Z</time></trkpt><trkpt lat="42.927251" lon="11.5479103"><ele>410.0</ele><time>2026-04-09T09:03:32.455Z</time></trkpt><trkpt lat="42.9271886" lon="11.5479844"><ele>407.5</ele><time>2026-04-09T09:03:33.443Z</time></trkpt><trkpt lat="42.9271344" lon="11.5480555"><ele>405.0</ele><time>2026-04-09T09:03:34.45Z</time></trkpt><trkpt lat="42.9270876" lon="11.5481294"><ele>402.50000000000006</ele><time>2026-04-09T09:03:35.452Z</time></trkpt><trkpt lat="42.9270419" lon="11.5482101"><ele>400.0</ele><time>2026-04-09T09:03:36.448Z</time></trkpt><trkpt lat="42.9269972" lon="11.5482946"><ele>400.0</ele><time>2026-04-09T09:03:37.436Z</time></trkpt><trkpt lat="42.9269549" lon="11.5483984"><ele>400.0</ele><time>2026-04-09T09:03:38.446Z</time></trkpt><trkpt lat="42.9269272" lon="11.5485144"><ele>400.0</ele><time>2026-04-09T09:03:39.448Z</time></trkpt><trkpt lat="42.9269243" lon="11.5486391"><ele>400.0</ele><time>2026-04-09T09:03:40.44Z</time></trkpt><trkpt lat="42.9269314" lon="11.5487662"><ele>400.0</ele><time>2026-04-09T09:03:41.438Z</time></trkpt><trkpt lat="42.9269547" lon="11.5488915"><ele>400.6666666666667</ele><time>2026-04-09T09:03:42.446Z</time></trkpt><trkpt lat="42.9269733" lon="11.5490108"><ele>401.33333333333337</ele><time>2026-04-09T09:03:43.448Z</time></trkpt><trkpt lat="42.9269927" lon="11.5491266"><ele>402.0</ele><time>2026-04-09T09:03:44.443Z</time></trkpt><trkpt lat="42.927013" lon="11.5492365"><ele>402.66666666666663</ele><time>2026-04-09T09:03:45.449Z</time></trkpt><trkpt lat="42.9270236" lon="11.5493354"><ele>403.3333333333333</ele><time>2026-04-09T09:03:46.444Z</time></trkpt><trkpt lat="42.92702" lon="11.5494272"><ele>404.0</ele><time>2026-04-09T09:03:47.437Z</time></trkpt><trkpt lat="42.9270059" lon="11.5495173"><ele>402.16666666666663</ele><time>2026-04-09T09:03:48.445Z</time></trkpt><trkpt lat="42.926988" lon="11.5496156"><ele>400.3333333333333</ele><time>2026-04-09T09:03:49.435Z</time></trkpt><trkpt lat="42.9269693" lon="11.5497222"><ele>398.5</ele><time>2026-04-09T09:03:50.441Z</time></trkpt><trkpt lat="42.9269636" lon="11.5498239"><ele>396.66666666666663</ele><time>2026-04-09T09:03:51.436Z</time></trkpt><trkpt lat="42.9269938" lon="11.5499032"><ele>394.8333333333333</ele><time>2026-04-09T09:03:52.432Z</time></trkpt><trkpt lat="42.9270581" lon="11.5499664"><ele>393.0</ele><time>2026-04-09T09:03:53.518Z</time></trkpt><trkpt lat="42.9271564" lon="11.5500161"><ele>393.0</ele><time>2026-04-09T09:03:54.44Z</time></trkpt><trkpt lat="42.9272626" lon="11.5500585"><ele>393.0</ele><time>2026-04-09T09:03:55.461Z</time></trkpt><trkpt lat="42.9273773" lon="11.5501278"><ele>393.0</ele><time>2026-04-09T09:03:56.428Z</time></trkpt><trkpt lat="42.9274843" lon="11.5502214"><ele>393.0</ele><time>2026-04-09T09:03:57.432Z</time></trkpt><trkpt lat="42.9275809" lon="11.5503434"><ele>390.5</ele><time>2026-04-09T09:03:58.432Z</time></trkpt><trkpt lat="42.9276961" lon="11.5504619"><ele>388.0</ele><time>2026-04-09T09:03:59.435Z</time></trkpt><trkpt lat="42.9278194" lon="11.5505757"><ele>385.5</ele><time>2026-04-09T09:04:00.438Z</time></trkpt><trkpt lat="42.9279471" lon="11.5506813"><ele>383.0</ele><time>2026-04-09T09:04:01.434Z</time></trkpt><trkpt lat="42.9280446" lon="11.5508106"><ele>383.0</ele><time>2026-04-09T09:04:02.431Z</time></trkpt><trkpt lat="42.9281276" lon="11.5509475"><ele>383.0</ele><time>2026-04-09T09:04:03.424Z</time></trkpt><trkpt lat="42.9282319" lon="11.5510695"><ele>383.0</ele><time>2026-04-09T09:04:04.424Z</time></trkpt><trkpt lat="42.9283352" lon="11.5511157"><ele>383.0</ele><time>2026-04-09T09:04:05.442Z</time></trkpt><trkpt lat="42.9284597" lon="11.5511585"><ele>380.79999999999995</ele><time>2026-04-09T09:04:06.43Z</time></trkpt><trkpt lat="42.9285789" lon="11.5512097"><ele>378.6</ele><time>2026-04-09T09:04:07.438Z</time></trkpt><trkpt lat="42.9286677" lon="11.5512588"><ele>376.4</ele><time>2026-04-09T09:04:08.429Z</time></trkpt><trkpt lat="42.9287575" lon="11.5512996"><ele>374.20000000000005</ele><time>2026-04-09T09:04:09.441Z</time></trkpt><trkpt lat="42.9288474" lon="11.5513318"><ele>372.0</ele><time>2026-04-09T09:04:10.43Z</time></trkpt><trkpt lat="42.9289176" lon="11.5513909"><ele>372.0</ele><time>2026-04-09T09:04:11.441Z</time></trkpt><trkpt lat="42.9289771" lon="11.5514825"><ele>372.0</ele><time>2026-04-09T09:04:12.433Z</time></trkpt><trkpt lat="42.9290112" lon="11.5515946"><ele>372.0</ele><time>2026-04-09T09:04:13.429Z</time></trkpt><trkpt lat="42.9290324" lon="11.5517154"><ele>372.0</ele><time>2026-04-09T09:04:14.43Z</time></trkpt><trkpt lat="42.9290558" lon="11.5518331"><ele>372.0</ele><time>2026-04-09T09:04:15.428Z</time></trkpt><trkpt lat="42.9290856" lon="11.5519248"><ele>372.0</ele><time>2026-04-09T09:04:16.426Z</time></trkpt><trkpt lat="42.9291948" lon="11.5519777"><ele>371.25</ele><time>2026-04-09T09:04:18.439Z</time></trkpt><trkpt lat="42.9293017" lon="11.5519374"><ele>370.5</ele><time>2026-04-09T09:04:19.426Z</time></trkpt><trkpt lat="42.9294323" lon="11.55189"><ele>369.75</ele><time>2026-04-09T09:04:20.438Z</time></trkpt><trkpt lat="42.9295648" lon="11.5518539"><ele>369.0</ele><time>2026-04-09T09:04:21.442Z</time></trkpt><trkpt lat="42.9296876" lon="11.5518254"><ele>369.0</ele><time>2026-04-09T09:04:22.458Z</time></trkpt><trkpt lat="42.9298055" lon="11.55181"><ele>369.0</ele><time>2026-04-09T09:04:23.443Z</time></trkpt><trkpt lat="42.9299287" lon="11.5518161"><ele>369.0</ele><time>2026-04-09T09:04:24.443Z</time></trkpt><trkpt lat="42.930063" lon="11.5518441"><ele>369.0</ele><time>2026-04-09T09:04:25.429Z</time></trkpt><trkpt lat="42.9302151" lon="11.5518858"><ele>370.6666666666667</ele><time>2026-04-09T09:04:26.464Z</time></trkpt><trkpt lat="42.930397" lon="11.551887"><ele>372.33333333333337</ele><time>2026-04-09T09:04:27.456Z</time></trkpt><trkpt lat="42.9305433" lon="11.5518854"><ele>374.0</ele><time>2026-04-09T09:04:28.438Z</time></trkpt><trkpt lat="42.9306639" lon="11.5519062"><ele>374.0</ele><time>2026-04-09T09:04:29.433Z</time></trkpt><trkpt lat="42.930749" lon="11.5519394"><ele>374.0</ele><time>2026-04-09T09:04:30.438Z</time></trkpt><trkpt lat="42.930828" lon="11.5519803"><ele>374.0</ele><time>2026-04-09T09:04:31.435Z</time></trkpt><trkpt lat="42.9309141" lon="11.5520535"><ele>374.0</ele><time>2026-04-09T09:04:32.449Z</time></trkpt><trkpt lat="42.9309958" lon="11.5521279"><ele>374.0</ele><time>2026-04-09T09:04:33.419Z</time></trkpt><trkpt lat="42.9310891" lon="11.5522415"><ele>373.83333333333337</ele><time>2026-04-09T09:04:34.436Z</time></trkpt><trkpt lat="42.9311675" lon="11.5523486"><ele>373.6666666666667</ele><time>2026-04-09T09:04:35.429Z</time></trkpt><trkpt lat="42.9312249" lon="11.552444"><ele>373.5</ele><time>2026-04-09T09:04:36.441Z</time></trkpt><trkpt lat="42.9312772" lon="11.5525306"><ele>373.3333333333333</ele><time>2026-04-09T09:04:37.425Z</time></trkpt><trkpt lat="42.9313346" lon="11.5526117"><ele>373.16666666666663</ele><time>2026-04-09T09:04:38.431Z</time></trkpt><trkpt lat="42.9314071" lon="11.5526626"><ele>373.0</ele><time>2026-04-09T09:04:39.429Z</time></trkpt><trkpt lat="42.9315001" lon="11.5526858"><ele>373.0</ele><time>2026-04-09T09:04:40.422Z</time></trkpt><trkpt lat="42.931609" lon="11.552672"><ele>373.0</ele><time>2026-04-09T09:04:41.443Z</time></trkpt><trkpt lat="42.9317062" lon="11.5526534"><ele>373.0</ele><time>2026-04-09T09:04:42.428Z</time></trkpt><trkpt lat="42.9325689" lon="11.5538811"><ele>371.5</ele><time>2026-04-09T09:06:08.166Z</time></trkpt><trkpt lat="42.9325205" lon="11.554025"><ele>370.0</ele><time>2026-04-09T09:06:10.155Z</time></trkpt><trkpt lat="42.9324813" lon="11.554241"><ele>368.5</ele><time>2026-04-09T09:06:12.173Z</time></trkpt><trkpt lat="42.9325615" lon="11.5541773"><ele>367.0</ele><time>2026-04-09T09:06:15.164Z</time></trkpt><trkpt lat="42.9326353" lon="11.5540651"><ele>367.0</ele><time>2026-04-09T09:06:17.174Z</time></trkpt><trkpt lat="42.9326373" lon="11.5541589"><ele>367.0</ele><time>2026-04-09T09:06:33.6Z</time></trkpt><trkpt lat="42.9325754" lon="11.5541842"><ele>367.0</ele><time>2026-04-09T09:07:17.435Z</time></trkpt><trkpt lat="42.9325504" lon="11.5542671"><ele>367.0</ele><time>2026-04-09T09:07:20.43Z</time></trkpt><trkpt lat="42.9325175" lon="11.5544811"><ele>367.0</ele><time>2026-04-09T09:07:23.425Z</time></trkpt><trkpt lat="42.9324944" lon="11.5545688"><ele>367.0</ele><time>2026-04-09T09:07:24.428Z</time></trkpt><trkpt lat="42.9324873" lon="11.5546784"><ele>366.40000000000003</ele><time>2026-04-09T09:07:26.43Z</time></trkpt><trkpt lat="42.9325312" lon="11.5547419"><ele>365.8</ele><time>2026-04-09T09:07:27.429Z</time></trkpt><trkpt lat="42.9325917" lon="11.5548147"><ele>365.2</ele><time>2026-04-09T09:07:28.416Z</time></trkpt><trkpt lat="42.9326647" lon="11.5548881"><ele>364.6</ele><time>2026-04-09T09:07:29.435Z</time></trkpt><trkpt lat="42.9327578" lon="11.5549731"><ele>364.0</ele><time>2026-04-09T09:07:30.427Z</time></trkpt><trkpt lat="42.9328666" lon="11.5550495"><ele>366.25</ele><time>2026-04-09T09:07:31.423Z</time></trkpt><trkpt lat="42.9329947" lon="11.5551035"><ele>368.5</ele><time>2026-04-09T09:07:32.433Z</time></trkpt><trkpt lat="42.933127" lon="11.5551505"><ele>370.75</ele><time>2026-04-09T09:07:33.43Z</time></trkpt><trkpt lat="42.9332736" lon="11.5551821"><ele>373.0</ele><time>2026-04-09T09:07:34.457Z</time></trkpt><trkpt lat="42.9334186" lon="11.5552155"><ele>373.75</ele><time>2026-04-09T09:07:35.463Z</time></trkpt><trkpt lat="42.9335301" lon="11.5552832"><ele>374.5</ele><time>2026-04-09T09:07:36.449Z</time></trkpt><trkpt lat="42.9336565" lon="11.5553848"><ele>375.25</ele><time>2026-04-09T09:07:37.455Z</time></trkpt><trkpt lat="42.9337676" lon="11.5555208"><ele>376.0</ele><time>2026-04-09T09:07:38.455Z</time></trkpt><trkpt lat="42.9338841" lon="11.5556533"><ele>376.0</ele><time>2026-04-09T09:07:39.431Z</time></trkpt><trkpt lat="42.9339568" lon="11.5558059"><ele>376.0</ele><time>2026-04-09T09:07:40.43Z</time></trkpt><trkpt lat="42.9340369" lon="11.5559515"><ele>376.0</ele><time>2026-04-09T09:07:41.437Z</time></trkpt><trkpt lat="42.9341261" lon="11.5560623"><ele>376.0</ele><time>2026-04-09T09:07:42.428Z</time></trkpt><trkpt lat="42.9342205" lon="11.5561408"><ele>377.4</ele><time>2026-04-09T09:07:43.434Z</time></trkpt><trkpt lat="42.9343094" lon="11.5561755"><ele>378.8</ele><time>2026-04-09T09:07:44.438Z</time></trkpt><trkpt lat="42.9344022" lon="11.5561878"><ele>380.2</ele><time>2026-04-09T09:07:45.426Z</time></trkpt><trkpt lat="42.9345055" lon="11.5561756"><ele>381.59999999999997</ele><time>2026-04-09T09:07:46.439Z</time></trkpt><trkpt lat="42.9346331" lon="11.5561641"><ele>383.0</ele><time>2026-04-09T09:07:47.437Z</time></trkpt><trkpt lat="42.9347719" lon="11.5561579"><ele>383.0</ele><time>2026-04-09T09:07:48.434Z</time></trkpt><trkpt lat="42.934921" lon="11.5561561"><ele>383.0</ele><time>2026-04-09T09:07:49.435Z</time></trkpt><trkpt lat="42.9351002" lon="11.5561459"><ele>383.0</ele><time>2026-04-09T09:07:50.442Z</time></trkpt><trkpt lat="42.9352413" lon="11.5561401"><ele>382.79999999999995</ele><time>2026-04-09T09:07:51.43Z</time></trkpt><trkpt lat="42.9353591" lon="11.5561415"><ele>382.6</ele><time>2026-04-09T09:07:52.435Z</time></trkpt><trkpt lat="42.9354687" lon="11.5561484"><ele>382.4</ele><time>2026-04-09T09:07:53.432Z</time></trkpt><trkpt lat="42.9355525" lon="11.5561676"><ele>382.20000000000005</ele><time>2026-04-09T09:07:54.432Z</time></trkpt><trkpt lat="42.9356401" lon="11.5562315"><ele>382.0</ele><time>2026-04-09T09:07:55.434Z</time></trkpt><trkpt lat="42.9357162" lon="11.5563322"><ele>382.0</ele><time>2026-04-09T09:07:56.425Z</time></trkpt><trkpt lat="42.9357918" lon="11.5564292"><ele>382.0</ele><time>2026-04-09T09:07:57.427Z</time></trkpt><trkpt lat="42.9358631" lon="11.5565278"><ele>382.0</ele><time>2026-04-09T09:07:58.438Z</time></trkpt><trkpt lat="42.9359439" lon="11.5566307"><ele>382.0</ele><time>2026-04-09T09:07:59.43Z</time></trkpt><trkpt lat="42.9360328" lon="11.5567575"><ele>382.0</ele><time>2026-04-09T09:08:00.434Z</time></trkpt><trkpt lat="42.9361371" lon="11.5569088"><ele>383.66666666666663</ele><time>2026-04-09T09:08:01.433Z</time></trkpt><trkpt lat="42.9362538" lon="11.5570872"><ele>385.3333333333333</ele><time>2026-04-09T09:08:02.432Z</time></trkpt><trkpt lat="42.936354" lon="11.5572183"><ele>387.0</ele><time>2026-04-09T09:08:03.435Z</time></trkpt><trkpt lat="42.9364665" lon="11.5573565"><ele>387.0</ele><time>2026-04-09T09:08:04.442Z</time></trkpt><trkpt lat="42.9365992" lon="11.5574593"><ele>387.0</ele><time>2026-04-09T09:08:05.438Z</time></trkpt><trkpt lat="42.9367612" lon="11.5575259"><ele>387.0</ele><time>2026-04-09T09:08:06.438Z</time></trkpt><trkpt lat="42.9369044" lon="11.5575765"><ele>387.8</ele><time>2026-04-09T09:08:07.427Z</time></trkpt><trkpt lat="42.9370124" lon="11.5576341"><ele>388.6</ele><time>2026-04-09T09:08:08.435Z</time></trkpt><trkpt lat="42.9370861" lon="11.557653"><ele>389.40000000000003</ele><time>2026-04-09T09:08:09.427Z</time></trkpt><trkpt lat="42.9371986" lon="11.5575869"><ele>390.20000000000005</ele><time>2026-04-09T09:08:11.433Z</time></trkpt><trkpt lat="42.9372533" lon="11.5574635"><ele>391.0</ele><time>2026-04-09T09:08:12.432Z</time></trkpt><trkpt lat="42.9373425" lon="11.5573171"><ele>391.0</ele><time>2026-04-09T09:08:13.429Z</time></trkpt><trkpt lat="42.9374677" lon="11.5572101"><ele>391.0</ele><time>2026-04-09T09:08:14.432Z</time></trkpt><trkpt lat="42.9375976" lon="11.5571323"><ele>391.0</ele><time>2026-04-09T09:08:15.43Z</time></trkpt><trkpt lat="42.9377175" lon="11.5570939"><ele>391.0</ele><time>2026-04-09T09:08:16.428Z</time></trkpt><trkpt lat="42.9378174" lon="11.5570497"><ele>393.6666666666667</ele><time>2026-04-09T09:08:17.423Z</time></trkpt><trkpt lat="42.9378923" lon="11.5570742"><ele>396.33333333333337</ele><time>2026-04-09T09:08:18.429Z</time></trkpt><trkpt lat="42.937925" lon="11.5571615"><ele>399.0</ele><time>2026-04-09T09:08:19.43Z</time></trkpt><trkpt lat="42.9379661" lon="11.5572669"><ele>401.66666666666663</ele><time>2026-04-09T09:08:20.434Z</time></trkpt><trkpt lat="42.9379775" lon="11.5573966"><ele>404.3333333333333</ele><time>2026-04-09T09:08:21.436Z</time></trkpt><trkpt lat="42.9379784" lon="11.5575197"><ele>407.0</ele><time>2026-04-09T09:08:22.442Z</time></trkpt><trkpt lat="42.9379569" lon="11.5576344"><ele>406.99999999999994</ele><time>2026-04-09T09:08:23.437Z</time></trkpt><trkpt lat="42.937952" lon="11.5577219"><ele>407.0</ele><time>2026-04-09T09:08:24.437Z</time></trkpt><trkpt lat="42.9379521" lon="11.5578956"><ele>407.0</ele><time>2026-04-09T09:10:46.444Z</time></trkpt><trkpt lat="42.9380015" lon="11.5579746"><ele>407.0</ele><time>2026-04-09T09:10:49.439Z</time></trkpt><trkpt lat="42.9380665" lon="11.5580141"><ele>406.99999999999994</ele><time>2026-04-09T09:10:50.437Z</time></trkpt><trkpt lat="42.9381398" lon="11.558057"><ele>407.0</ele><time>2026-04-09T09:10:51.447Z</time></trkpt><trkpt lat="42.9382528" lon="11.5581249"><ele>407.0</ele><time>2026-04-09T09:10:52.43Z</time></trkpt><trkpt lat="42.9383875" lon="11.5581614"><ele>407.0</ele><time>2026-04-09T09:10:53.456Z</time></trkpt><trkpt lat="42.9385431" lon="11.5581882"><ele>407.0</ele><time>2026-04-09T09:10:54.457Z</time></trkpt><trkpt lat="42.9387656" lon="11.5582389"><ele>407.0</ele><time>2026-04-09T09:10:55.462Z</time></trkpt><trkpt lat="42.9390011" lon="11.5583116"><ele>407.0</ele><time>2026-04-09T09:10:56.445Z</time></trkpt><trkpt lat="42.9392505" lon="11.5583486"><ele>409.0</ele><time>2026-04-09T09:10:57.435Z</time></trkpt><trkpt lat="42.9394754" lon="11.5583835"><ele>411.0</ele><time>2026-04-09T09:10:58.459Z</time></trkpt><trkpt lat="42.9396834" lon="11.5584419"><ele>413.0</ele><time>2026-04-09T09:10:59.49Z</time></trkpt><trkpt lat="42.9398603" lon="11.5584806"><ele>413.0</ele><time>2026-04-09T09:11:00.438Z</time></trkpt><trkpt lat="42.9400437" lon="11.558548"><ele>413.0</ele><time>2026-04-09T09:11:01.444Z</time></trkpt><trkpt lat="42.9402238" lon="11.5586101"><ele>413.0</ele><time>2026-04-09T09:11:02.439Z</time></trkpt><trkpt lat="42.9404093" lon="11.5586787"><ele>411.66666666666663</ele><time>2026-04-09T09:11:03.447Z</time></trkpt><trkpt lat="42.9405911" lon="11.5587439"><ele>410.33333333333337</ele><time>2026-04-09T09:11:04.459Z</time></trkpt><trkpt lat="42.9407622" lon="11.5588031"><ele>409.0</ele><time>2026-04-09T09:11:05.446Z</time></trkpt><trkpt lat="42.9409179" lon="11.5588645"><ele>413.6666666666667</ele><time>2026-04-09T09:11:06.444Z</time></trkpt><trkpt lat="42.9410575" lon="11.5589363"><ele>418.33333333333337</ele><time>2026-04-09T09:11:07.442Z</time></trkpt><trkpt lat="42.9411918" lon="11.5590305"><ele>423.0</ele><time>2026-04-09T09:11:08.444Z</time></trkpt><trkpt lat="42.9413323" lon="11.559146"><ele>423.0</ele><time>2026-04-09T09:11:09.447Z</time></trkpt><trkpt lat="42.941491" lon="11.5592487"><ele>423.0</ele><time>2026-04-09T09:11:10.445Z</time></trkpt><trkpt lat="42.941672" lon="11.5593721"><ele>423.0</ele><time>2026-04-09T09:11:11.441Z</time></trkpt><trkpt lat="42.9418654" lon="11.5594903"><ele>423.66666666666663</ele><time>2026-04-09T09:11:12.447Z</time></trkpt><trkpt lat="42.9420545" lon="11.5596375"><ele>424.3333333333333</ele><time>2026-04-09T09:11:13.448Z</time></trkpt><trkpt lat="42.9422236" lon="11.5597592"><ele>425.0</ele><time>2026-04-09T09:11:14.443Z</time></trkpt><trkpt lat="42.9423562" lon="11.5598753"><ele>425.0</ele><time>2026-04-09T09:11:15.439Z</time></trkpt><trkpt lat="42.9424829" lon="11.5600059"><ele>425.0</ele><time>2026-04-09T09:11:16.443Z</time></trkpt><trkpt lat="42.9425954" lon="11.560123"><ele>425.0</ele><time>2026-04-09T09:11:17.441Z</time></trkpt><trkpt lat="42.9427008" lon="11.5602136"><ele>425.0</ele><time>2026-04-09T09:11:18.445Z</time></trkpt><trkpt lat="42.9428247" lon="11.5602766"><ele>426.5</ele><time>2026-04-09T09:11:19.437Z</time></trkpt><trkpt lat="42.9429617" lon="11.5603117"><ele>428.0</ele><time>2026-04-09T09:11:20.444Z</time></trkpt><trkpt lat="42.943095" lon="11.5602745"><ele>429.5</ele><time>2026-04-09T09:11:21.443Z</time></trkpt><trkpt lat="42.9432398" lon="11.5602014"><ele>431.0</ele><time>2026-04-09T09:11:22.44Z</time></trkpt><trkpt lat="42.9434023" lon="11.5600904"><ele>431.0</ele><time>2026-04-09T09:11:23.441Z</time></trkpt><trkpt lat="42.9435755" lon="11.5599841"><ele>431.0</ele><time>2026-04-09T09:11:24.439Z</time></trkpt><trkpt lat="42.9437588" lon="11.5598784"><ele>431.0</ele><time>2026-04-09T09:11:25.436Z</time></trkpt><trkpt lat="42.9438864" lon="11.5597635"><ele>431.0</ele><time>2026-04-09T09:11:26.446Z</time></trkpt><trkpt lat="42.9440101" lon="11.559674"><ele>431.0</ele><time>2026-04-09T09:11:27.434Z</time></trkpt><trkpt lat="42.9441388" lon="11.5595953"><ele>431.0</ele><time>2026-04-09T09:11:28.439Z</time></trkpt><trkpt lat="42.9442622" lon="11.559546"><ele>431.0</ele><time>2026-04-09T09:11:29.441Z</time></trkpt><trkpt lat="42.9444067" lon="11.5595809"><ele>434.0</ele><time>2026-04-09T09:11:30.44Z</time></trkpt><trkpt lat="42.9445486" lon="11.5596036"><ele>437.0</ele><time>2026-04-09T09:11:31.438Z</time></trkpt><trkpt lat="42.9446746" lon="11.5596289"><ele>440.0</ele><time>2026-04-09T09:11:32.437Z</time></trkpt><trkpt lat="42.9447925" lon="11.5597187"><ele>443.0</ele><time>2026-04-09T09:11:33.439Z</time></trkpt><trkpt lat="42.9448941" lon="11.5598797"><ele>443.0</ele><time>2026-04-09T09:11:34.44Z</time></trkpt><trkpt lat="42.9449903" lon="11.560081"><ele>443.0</ele><time>2026-04-09T09:11:35.442Z</time></trkpt><trkpt lat="42.9450862" lon="11.5602747"><ele>443.0</ele><time>2026-04-09T09:11:36.427Z</time></trkpt><trkpt lat="42.9452085" lon="11.560491"><ele>446.3333333333333</ele><time>2026-04-09T09:11:37.438Z</time></trkpt><trkpt lat="42.9453256" lon="11.560736"><ele>449.66666666666663</ele><time>2026-04-09T09:11:38.441Z</time></trkpt><trkpt lat="42.9454108" lon="11.5609437"><ele>453.0</ele><time>2026-04-09T09:11:39.431Z</time></trkpt><trkpt lat="42.9455078" lon="11.5611177"><ele>455.33333333333337</ele><time>2026-04-09T09:11:40.439Z</time></trkpt><trkpt lat="42.945639" lon="11.561289"><ele>457.6666666666667</ele><time>2026-04-09T09:11:41.439Z</time></trkpt><trkpt lat="42.9457783" lon="11.5614467"><ele>460.0</ele><time>2026-04-09T09:11:42.445Z</time></trkpt><trkpt lat="42.9458999" lon="11.5615779"><ele>460.0</ele><time>2026-04-09T09:11:43.462Z</time></trkpt><trkpt lat="42.946039" lon="11.5617096"><ele>460.0</ele><time>2026-04-09T09:11:44.464Z</time></trkpt><trkpt lat="42.9461765" lon="11.561828"><ele>460.0</ele><time>2026-04-09T09:11:45.465Z</time></trkpt><trkpt lat="42.946293" lon="11.5619325"><ele>460.0</ele><time>2026-04-09T09:11:46.44Z</time></trkpt><trkpt lat="42.9464233" lon="11.5620159"><ele>460.0</ele><time>2026-04-09T09:11:47.464Z</time></trkpt><trkpt lat="42.9465429" lon="11.5620588"><ele>460.0</ele><time>2026-04-09T09:11:48.434Z</time></trkpt><trkpt lat="42.9466528" lon="11.5620815"><ele>460.0</ele><time>2026-04-09T09:11:49.448Z</time></trkpt><trkpt lat="42.9467839" lon="11.5620825"><ele>462.6666666666667</ele><time>2026-04-09T09:11:50.439Z</time></trkpt><trkpt lat="42.9469234" lon="11.5620638"><ele>465.33333333333337</ele><time>2026-04-09T09:11:51.425Z</time></trkpt><trkpt lat="42.9470828" lon="11.5620294"><ele>468.0</ele><time>2026-04-09T09:11:52.443Z</time></trkpt><trkpt lat="42.9472718" lon="11.5619795"><ele>468.0</ele><time>2026-04-09T09:11:53.428Z</time></trkpt><trkpt lat="42.9474595" lon="11.5619622"><ele>468.0</ele><time>2026-04-09T09:11:54.436Z</time></trkpt><trkpt lat="42.9476296" lon="11.5619395"><ele>468.0</ele><time>2026-04-09T09:11:55.44Z</time></trkpt><trkpt lat="42.9478008" lon="11.5619198"><ele>467.25</ele><time>2026-04-09T09:11:56.44Z</time></trkpt><trkpt lat="42.9479575" lon="11.5619323"><ele>466.5</ele><time>2026-04-09T09:11:57.441Z</time></trkpt><trkpt lat="42.9480933" lon="11.5619859"><ele>465.75</ele><time>2026-04-09T09:11:58.434Z</time></trkpt><trkpt lat="42.9482301" lon="11.5620517"><ele>465.0</ele><time>2026-04-09T09:11:59.434Z</time></trkpt><trkpt lat="42.9483313" lon="11.5621376"><ele>468.5</ele><time>2026-04-09T09:12:00.432Z</time></trkpt><trkpt lat="42.9484419" lon="11.5622354"><ele>472.0</ele><time>2026-04-09T09:12:01.436Z</time></trkpt><trkpt lat="42.9485363" lon="11.5623529"><ele>475.5</ele><time>2026-04-09T09:12:02.454Z</time></trkpt><trkpt lat="42.9486094" lon="11.5625213"><ele>479.0</ele><time>2026-04-09T09:12:03.427Z</time></trkpt><trkpt lat="42.9487059" lon="11.5626526"><ele>479.0</ele><time>2026-04-09T09:12:04.432Z</time></trkpt><trkpt lat="42.9487879" lon="11.5627269"><ele>479.0</ele><time>2026-04-09T09:12:05.438Z</time></trkpt><trkpt lat="42.9488875" lon="11.5627692"><ele>479.0</ele><time>2026-04-09T09:12:06.427Z</time></trkpt><trkpt lat="42.9490252" lon="11.5628051"><ele>479.0</ele><time>2026-04-09T09:12:07.436Z</time></trkpt><trkpt lat="42.9491798" lon="11.5628368"><ele>481.79999999999995</ele><time>2026-04-09T09:12:08.435Z</time></trkpt><trkpt lat="42.9493128" lon="11.5628675"><ele>484.59999999999997</ele><time>2026-04-09T09:12:09.434Z</time></trkpt><trkpt lat="42.9494142" lon="11.5628844"><ele>487.4</ele><time>2026-04-09T09:12:10.428Z</time></trkpt><trkpt lat="42.949514" lon="11.5629065"><ele>490.2</ele><time>2026-04-09T09:12:11.431Z</time></trkpt><trkpt lat="42.9496018" lon="11.5629402"><ele>493.0</ele><time>2026-04-09T09:12:12.432Z</time></trkpt><trkpt lat="42.9496761" lon="11.5629993"><ele>493.0</ele><time>2026-04-09T09:12:13.435Z</time></trkpt><trkpt lat="42.9497433" lon="11.563083"><ele>493.0</ele><time>2026-04-09T09:12:14.428Z</time></trkpt><trkpt lat="42.9497813" lon="11.5632256"><ele>493.0</ele><time>2026-04-09T09:12:15.436Z</time></trkpt><trkpt lat="42.9498191" lon="11.5633888"><ele>493.0</ele><time>2026-04-09T09:12:16.422Z</time></trkpt><trkpt lat="42.9498766" lon="11.5635512"><ele>494.33333333333337</ele><time>2026-04-09T09:12:17.522Z</time></trkpt><trkpt lat="42.9499473" lon="11.5637218"><ele>495.66666666666663</ele><time>2026-04-09T09:12:18.451Z</time></trkpt><trkpt lat="42.9500467" lon="11.5638806"><ele>497.0</ele><time>2026-04-09T09:12:19.452Z</time></trkpt><trkpt lat="42.9501892" lon="11.5640406"><ele>497.0</ele><time>2026-04-09T09:12:20.433Z</time></trkpt><trkpt lat="42.9503318" lon="11.5641646"><ele>497.0</ele><time>2026-04-09T09:12:21.434Z</time></trkpt><trkpt lat="42.9504536" lon="11.5642714"><ele>497.0</ele><time>2026-04-09T09:12:22.43Z</time></trkpt><trkpt lat="42.9505522" lon="11.5643861"><ele>497.0</ele><time>2026-04-09T09:12:23.435Z</time></trkpt><trkpt lat="42.9506644" lon="11.5645083"><ele>496.66666666666663</ele><time>2026-04-09T09:12:24.452Z</time></trkpt><trkpt lat="42.9508063" lon="11.5646614"><ele>496.33333333333337</ele><time>2026-04-09T09:12:25.433Z</time></trkpt><trkpt lat="42.9509352" lon="11.5648166"><ele>496.0</ele><time>2026-04-09T09:12:26.435Z</time></trkpt><trkpt lat="42.9510322" lon="11.5649955"><ele>496.0</ele><time>2026-04-09T09:12:27.436Z</time></trkpt><trkpt lat="42.9511466" lon="11.5651704"><ele>496.0</ele><time>2026-04-09T09:12:28.436Z</time></trkpt><trkpt lat="42.9512241" lon="11.5653317"><ele>496.0</ele><time>2026-04-09T09:12:29.441Z</time></trkpt><trkpt lat="42.951281" lon="11.5654756"><ele>496.0</ele><time>2026-04-09T09:12:30.437Z</time></trkpt><trkpt lat="42.951371" lon="11.5656386"><ele>495.6</ele><time>2026-04-09T09:12:31.442Z</time></trkpt><trkpt lat="42.9514257" lon="11.5657432"><ele>495.20000000000005</ele><time>2026-04-09T09:12:32.442Z</time></trkpt><trkpt lat="42.9514748" lon="11.5658515"><ele>494.79999999999995</ele><time>2026-04-09T09:12:33.441Z</time></trkpt><trkpt lat="42.9515181" lon="11.565958"><ele>494.4</ele><time>2026-04-09T09:12:34.44Z</time></trkpt><trkpt lat="42.9515656" lon="11.5660656"><ele>494.0</ele><time>2026-04-09T09:12:35.447Z</time></trkpt><trkpt lat="42.9516087" lon="11.5661642"><ele>493.66666666666663</ele><time>2026-04-09T09:12:36.439Z</time></trkpt><trkpt lat="42.9516561" lon="11.5662571"><ele>493.3333333333333</ele><time>2026-04-09T09:12:37.445Z</time></trkpt><trkpt lat="42.9516888" lon="11.5663385"><ele>493.0</ele><time>2026-04-09T09:12:38.439Z</time></trkpt><trkpt lat="42.951714" lon="11.5664498"><ele>492.66666666666663</ele><time>2026-04-09T09:12:40.439Z</time></trkpt><trkpt lat="42.9517246" lon="11.5665701"><ele>492.3333333333333</ele><time>2026-04-09T09:12:44.49Z</time></trkpt><trkpt lat="42.9517402" lon="11.5667275"><ele>492.0</ele><time>2026-04-09T09:12:46.45Z</time></trkpt><trkpt lat="42.9517381" lon="11.5668257"><ele>492.3333333333333</ele><time>2026-04-09T09:12:47.461Z</time></trkpt><trkpt lat="42.9517433" lon="11.566922"><ele>492.66666666666663</ele><time>2026-04-09T09:12:48.47Z</time></trkpt><trkpt lat="42.9517586" lon="11.5670133"><ele>493.0</ele><time>2026-04-09T09:12:49.447Z</time></trkpt><trkpt lat="42.9518057" lon="11.567182"><ele>493.3333333333333</ele><time>2026-04-09T09:12:51.442Z</time></trkpt><trkpt lat="42.9518318" lon="11.5672818"><ele>493.66666666666663</ele><time>2026-04-09T09:12:52.446Z</time></trkpt><trkpt lat="42.9518643" lon="11.5673836"><ele>494.0</ele><time>2026-04-09T09:12:53.524Z</time></trkpt><trkpt lat="42.9519034" lon="11.5674869"><ele>493.99999999999994</ele><time>2026-04-09T09:12:54.546Z</time></trkpt><trkpt lat="42.9519442" lon="11.5675811"><ele>494.0</ele><time>2026-04-09T09:12:55.463Z</time></trkpt><trkpt lat="42.9519824" lon="11.5676736"><ele>494.0</ele><time>2026-04-09T09:12:56.467Z</time></trkpt><trkpt lat="42.9520199" lon="11.567776"><ele>494.0</ele><time>2026-04-09T09:12:57.447Z</time></trkpt><trkpt lat="42.9520619" lon="11.5678817"><ele>493.99999999999994</ele><time>2026-04-09T09:12:58.447Z</time></trkpt><trkpt lat="42.9521118" lon="11.5679784"><ele>494.0</ele><time>2026-04-09T09:12:59.454Z</time></trkpt><trkpt lat="42.9521566" lon="11.5680731"><ele>495.79999999999995</ele><time>2026-04-09T09:13:00.442Z</time></trkpt><trkpt lat="42.9521956" lon="11.5681749"><ele>497.59999999999997</ele><time>2026-04-09T09:13:01.45Z</time></trkpt><trkpt lat="42.9522262" lon="11.5682899"><ele>499.4</ele><time>2026-04-09T09:13:02.445Z</time></trkpt><trkpt lat="42.952246" lon="11.568412"><ele>501.2</ele><time>2026-04-09T09:13:03.462Z</time></trkpt><trkpt lat="42.9522605" lon="11.5685385"><ele>503.0</ele><time>2026-04-09T09:13:04.466Z</time></trkpt><trkpt lat="42.9522813" lon="11.5686789"><ele>504.4</ele><time>2026-04-09T09:13:05.467Z</time></trkpt><trkpt lat="42.9522986" lon="11.5688225"><ele>505.79999999999995</ele><time>2026-04-09T09:13:06.438Z</time></trkpt><trkpt lat="42.952309" lon="11.5689584"><ele>507.2</ele><time>2026-04-09T09:13:07.44Z</time></trkpt><trkpt lat="42.9523142" lon="11.5690938"><ele>508.6</ele><time>2026-04-09T09:13:08.437Z</time></trkpt><trkpt lat="42.9523172" lon="11.5692375"><ele>510.0</ele><time>2026-04-09T09:13:09.446Z</time></trkpt><trkpt lat="42.952314" lon="11.5693788"><ele>510.0</ele><time>2026-04-09T09:13:10.438Z</time></trkpt><trkpt lat="42.9522982" lon="11.5695181"><ele>510.0</ele><time>2026-04-09T09:13:11.611Z</time></trkpt><trkpt lat="42.9522754" lon="11.5697649"><ele>510.0</ele><time>2026-04-09T09:13:13.437Z</time></trkpt><trkpt lat="42.9522732" lon="11.569865"><ele>510.0</ele><time>2026-04-09T09:13:14.447Z</time></trkpt><trkpt lat="42.9522804" lon="11.569968"><ele>510.0</ele><time>2026-04-09T09:13:15.444Z</time></trkpt><trkpt lat="42.952301" lon="11.5700799"><ele>511.0</ele><time>2026-04-09T09:13:16.446Z</time></trkpt><trkpt lat="42.9523286" lon="11.5701881"><ele>512.0</ele><time>2026-04-09T09:13:17.439Z</time></trkpt><trkpt lat="42.9523491" lon="11.5702831"><ele>513.0</ele><time>2026-04-09T09:13:18.447Z</time></trkpt><trkpt lat="42.9523676" lon="11.5703865"><ele>514.0</ele><time>2026-04-09T09:13:19.432Z</time></trkpt><trkpt lat="42.9523805" lon="11.5704806"><ele>515.0</ele><time>2026-04-09T09:13:20.437Z</time></trkpt><trkpt lat="42.9523982" lon="11.5705649"><ele>516.0</ele><time>2026-04-09T09:13:21.466Z</time></trkpt><trkpt lat="42.9524674" lon="11.5707032"><ele>517.8</ele><time>2026-04-09T09:13:23.449Z</time></trkpt><trkpt lat="42.9525409" lon="11.5707684"><ele>519.6</ele><time>2026-04-09T09:13:24.44Z</time></trkpt><trkpt lat="42.9526198" lon="11.5708485"><ele>521.4</ele><time>2026-04-09T09:13:25.465Z</time></trkpt><trkpt lat="42.9526954" lon="11.5709196"><ele>523.2</ele><time>2026-04-09T09:13:26.469Z</time></trkpt><trkpt lat="42.9527754" lon="11.5709829"><ele>525.0</ele><time>2026-04-09T09:13:27.442Z</time></trkpt><trkpt lat="42.9528561" lon="11.5710209"><ele>525.0</ele><time>2026-04-09T09:13:28.481Z</time></trkpt><trkpt lat="42.952924" lon="11.5710401"><ele>525.0</ele><time>2026-04-09T09:13:29.443Z</time></trkpt><trkpt lat="42.952987" lon="11.5710531"><ele>525.0</ele><time>2026-04-09T09:13:30.438Z</time></trkpt><trkpt lat="42.9531022" lon="11.5711393"><ele>525.0</ele><time>2026-04-09T09:13:32.435Z</time></trkpt><trkpt lat="42.9531578" lon="11.5712377"><ele>525.0</ele><time>2026-04-09T09:13:33.432Z</time></trkpt><trkpt lat="42.9532129" lon="11.5713574"><ele>527.4</ele><time>2026-04-09T09:13:34.44Z</time></trkpt><trkpt lat="42.953275" lon="11.5714659"><ele>529.8</ele><time>2026-04-09T09:13:35.437Z</time></trkpt><trkpt lat="42.9533405" lon="11.5715611"><ele>532.2</ele><time>2026-04-09T09:13:36.437Z</time></trkpt><trkpt lat="42.9534138" lon="11.5716514"><ele>534.6</ele><time>2026-04-09T09:13:37.439Z</time></trkpt><trkpt lat="42.9534908" lon="11.5717231"><ele>537.0</ele><time>2026-04-09T09:13:38.442Z</time></trkpt><trkpt lat="42.9535646" lon="11.5717978"><ele>537.0</ele><time>2026-04-09T09:13:39.44Z</time></trkpt><trkpt lat="42.9536344" lon="11.5718852"><ele>537.0</ele><time>2026-04-09T09:13:40.438Z</time></trkpt><trkpt lat="42.9537028" lon="11.572003"><ele>537.0</ele><time>2026-04-09T09:13:41.448Z</time></trkpt><trkpt lat="42.9537732" lon="11.5721284"><ele>537.0</ele><time>2026-04-09T09:13:42.435Z</time></trkpt><trkpt lat="42.95384" lon="11.572223"><ele>537.0</ele><time>2026-04-09T09:13:43.442Z</time></trkpt><trkpt lat="42.953899" lon="11.5722926"><ele>538.8000000000001</ele><time>2026-04-09T09:13:44.447Z</time></trkpt><trkpt lat="42.9540023" lon="11.572337"><ele>540.6</ele><time>2026-04-09T09:13:46.437Z</time></trkpt><trkpt lat="42.9541239" lon="11.5722821"><ele>542.4000000000001</ele><time>2026-04-09T09:13:48.429Z</time></trkpt><trkpt lat="42.9542037" lon="11.5722431"><ele>544.2</ele><time>2026-04-09T09:13:49.432Z</time></trkpt><trkpt lat="42.9542684" lon="11.5722212"><ele>546.0</ele><time>2026-04-09T09:13:50.429Z</time></trkpt><trkpt lat="42.9543823" lon="11.5722573"><ele>546.0</ele><time>2026-04-09T09:13:52.429Z</time></trkpt><trkpt lat="42.9544428" lon="11.5723121"><ele>546.0</ele><time>2026-04-09T09:13:53.435Z</time></trkpt><trkpt lat="42.9544921" lon="11.5723844"><ele>546.0</ele><time>2026-04-09T09:13:54.433Z</time></trkpt><trkpt lat="42.9545313" lon="11.5724732"><ele>546.0</ele><time>2026-04-09T09:13:55.43Z</time></trkpt><trkpt lat="42.9545737" lon="11.5725949"><ele>546.0</ele><time>2026-04-09T09:13:56.442Z</time></trkpt><trkpt lat="42.9546171" lon="11.5727182"><ele>546.0</ele><time>2026-04-09T09:13:57.435Z</time></trkpt><trkpt lat="42.9546524" lon="11.5728351"><ele>548.6</ele><time>2026-04-09T09:13:58.439Z</time></trkpt><trkpt lat="42.9546909" lon="11.572954"><ele>551.2</ele><time>2026-04-09T09:13:59.444Z</time></trkpt><trkpt lat="42.9547259" lon="11.5730807"><ele>553.8</ele><time>2026-04-09T09:14:00.436Z</time></trkpt><trkpt lat="42.9547509" lon="11.5732134"><ele>556.4</ele><time>2026-04-09T09:14:01.442Z</time></trkpt><trkpt lat="42.9547694" lon="11.5733302"><ele>559.0</ele><time>2026-04-09T09:14:02.444Z</time></trkpt><trkpt lat="42.9547762" lon="11.5734371"><ele>559.0</ele><time>2026-04-09T09:14:03.448Z</time></trkpt><trkpt lat="42.9547844" lon="11.5735366"><ele>559.0</ele><time>2026-04-09T09:14:04.452Z</time></trkpt><trkpt lat="42.9547855" lon="11.5736492"><ele>559.0</ele><time>2026-04-09T09:14:05.447Z</time></trkpt><trkpt lat="42.9547647" lon="11.5737716"><ele>559.0</ele><time>2026-04-09T09:14:06.438Z</time></trkpt><trkpt lat="42.9547443" lon="11.5738694"><ele>559.0</ele><time>2026-04-09T09:14:07.444Z</time></trkpt><trkpt lat="42.9547494" lon="11.5740338"><ele>559.0</ele><time>2026-04-09T09:14:09.439Z</time></trkpt><trkpt lat="42.9547903" lon="11.5741151"><ele>558.8333333333334</ele><time>2026-04-09T09:14:10.446Z</time></trkpt><trkpt lat="42.9548547" lon="11.574178"><ele>558.6666666666667</ele><time>2026-04-09T09:14:11.456Z</time></trkpt><trkpt lat="42.9549436" lon="11.5742399"><ele>558.5</ele><time>2026-04-09T09:14:12.471Z</time></trkpt><trkpt lat="42.9550287" lon="11.5743001"><ele>558.3333333333334</ele><time>2026-04-09T09:14:13.443Z</time></trkpt><trkpt lat="42.9551037" lon="11.5743423"><ele>558.1666666666666</ele><time>2026-04-09T09:14:14.445Z</time></trkpt><trkpt lat="42.9551619" lon="11.5743797"><ele>558.0</ele><time>2026-04-09T09:14:15.467Z</time></trkpt><trkpt lat="42.9552459" lon="11.5744607"><ele>558.0</ele><time>2026-04-09T09:14:17.453Z</time></trkpt><trkpt lat="42.9552992" lon="11.5745094"><ele>558.0</ele><time>2026-04-09T09:14:21.443Z</time></trkpt><trkpt lat="42.9553696" lon="11.5745667"><ele>558.0</ele><time>2026-04-09T09:15:12.465Z</time></trkpt><trkpt lat="42.9554342" lon="11.5746147"><ele>558.0</ele><time>2026-04-09T09:15:13.436Z</time></trkpt><trkpt lat="42.9555266" lon="11.5746985"><ele>558.0</ele><time>2026-04-09T09:15:14.441Z</time></trkpt><trkpt lat="42.9556143" lon="11.5747857"><ele>558.0</ele><time>2026-04-09T09:15:15.435Z</time></trkpt><trkpt lat="42.9557107" lon="11.5748834"><ele>558.5</ele><time>2026-04-09T09:15:16.438Z</time></trkpt><trkpt lat="42.9557961" lon="11.5749762"><ele>559.0</ele><time>2026-04-09T09:15:17.43Z</time></trkpt><trkpt lat="42.9558927" lon="11.5750634"><ele>559.5</ele><time>2026-04-09T09:15:18.438Z</time></trkpt><trkpt lat="42.9560002" lon="11.5751329"><ele>560.0</ele><time>2026-04-09T09:15:19.434Z</time></trkpt><trkpt lat="42.9560995" lon="11.5751981"><ele>559.8</ele><time>2026-04-09T09:15:20.439Z</time></trkpt><trkpt lat="42.9561935" lon="11.5752599"><ele>559.6</ele><time>2026-04-09T09:15:21.432Z</time></trkpt><trkpt lat="42.9562981" lon="11.5753361"><ele>559.4</ele><time>2026-04-09T09:15:22.434Z</time></trkpt><trkpt lat="42.9563925" lon="11.5754199"><ele>559.2</ele><time>2026-04-09T09:15:23.444Z</time></trkpt><trkpt lat="42.956479" lon="11.5754845"><ele>559.0</ele><time>2026-04-09T09:15:24.443Z</time></trkpt><trkpt lat="42.9565624" lon="11.5755641"><ele>559.0</ele><time>2026-04-09T09:15:25.443Z</time></trkpt><trkpt lat="42.9566424" lon="11.5756583"><ele>559.0</ele><time>2026-04-09T09:15:26.435Z</time></trkpt><trkpt lat="42.9567043" lon="11.5757593"><ele>559.0</ele><time>2026-04-09T09:15:27.435Z</time></trkpt><trkpt lat="42.9567486" lon="11.5758619"><ele>559.0</ele><time>2026-04-09T09:15:28.44Z</time></trkpt><trkpt lat="42.9567812" lon="11.5759595"><ele>559.0</ele><time>2026-04-09T09:15:29.44Z</time></trkpt><trkpt lat="42.956801" lon="11.57605"><ele>559.0</ele><time>2026-04-09T09:15:30.449Z</time></trkpt><trkpt lat="42.9568042" lon="11.5761545"><ele>559.2</ele><time>2026-04-09T09:15:31.434Z</time></trkpt><trkpt lat="42.9567971" lon="11.5762705"><ele>559.4</ele><time>2026-04-09T09:15:32.436Z</time></trkpt><trkpt lat="42.9567926" lon="11.5763929"><ele>559.6</ele><time>2026-04-09T09:15:33.445Z</time></trkpt><trkpt lat="42.956803" lon="11.5765186"><ele>559.8</ele><time>2026-04-09T09:15:34.447Z</time></trkpt><trkpt lat="42.9568206" lon="11.576642"><ele>560.0</ele><time>2026-04-09T09:15:35.446Z</time></trkpt><trkpt lat="42.9568465" lon="11.5767681"><ele>560.0</ele><time>2026-04-09T09:15:36.442Z</time></trkpt><trkpt lat="42.9568794" lon="11.576904"><ele>560.0</ele><time>2026-04-09T09:15:37.442Z</time></trkpt><trkpt lat="42.9569118" lon="11.5770408"><ele>560.0</ele><time>2026-04-09T09:15:38.442Z</time></trkpt><trkpt lat="42.9569461" lon="11.5771859"><ele>560.0</ele><time>2026-04-09T09:15:39.443Z</time></trkpt><trkpt lat="42.95698" lon="11.5773413"><ele>560.0</ele><time>2026-04-09T09:15:40.443Z</time></trkpt><trkpt lat="42.9570209" lon="11.5775138"><ele>560.5</ele><time>2026-04-09T09:15:41.432Z</time></trkpt><trkpt lat="42.9570499" lon="11.5776909"><ele>561.0</ele><time>2026-04-09T09:15:42.444Z</time></trkpt><trkpt lat="42.957074" lon="11.5778708"><ele>561.5</ele><time>2026-04-09T09:15:43.442Z</time></trkpt><trkpt lat="42.9571042" lon="11.5780323"><ele>562.0</ele><time>2026-04-09T09:15:44.442Z</time></trkpt><trkpt lat="42.9571279" lon="11.5781899"><ele>563.2</ele><time>2026-04-09T09:15:45.446Z</time></trkpt><trkpt lat="42.9571415" lon="11.5783359"><ele>564.4000000000001</ele><time>2026-04-09T09:15:46.437Z</time></trkpt><trkpt lat="42.9571522" lon="11.5784834"><ele>565.5999999999999</ele><time>2026-04-09T09:15:47.438Z</time></trkpt><trkpt lat="42.9571472" lon="11.5786173"><ele>566.8</ele><time>2026-04-09T09:15:48.438Z</time></trkpt><trkpt lat="42.9571313" lon="11.578733"><ele>568.0</ele><time>2026-04-09T09:15:49.434Z</time></trkpt><trkpt lat="42.9570953" lon="11.578843"><ele>568.0</ele><time>2026-04-09T09:15:50.444Z</time></trkpt><trkpt lat="42.9570152" lon="11.578955"><ele>568.0</ele><time>2026-04-09T09:15:51.433Z</time></trkpt><trkpt lat="42.9569245" lon="11.579065"><ele>568.0</ele><time>2026-04-09T09:15:52.442Z</time></trkpt><trkpt lat="42.9568342" lon="11.5791775"><ele>568.0</ele><time>2026-04-09T09:15:53.436Z</time></trkpt><trkpt lat="42.9567423" lon="11.5792934"><ele>570.5</ele><time>2026-04-09T09:15:54.438Z</time></trkpt><trkpt lat="42.9566578" lon="11.5794042"><ele>573.0</ele><time>2026-04-09T09:15:55.44Z</time></trkpt><trkpt lat="42.9565704" lon="11.5795012"><ele>575.5</ele><time>2026-04-09T09:15:56.439Z</time></trkpt><trkpt lat="42.9564893" lon="11.5796014"><ele>578.0</ele><time>2026-04-09T09:15:57.449Z</time></trkpt><trkpt lat="42.9564107" lon="11.5797077"><ele>578.0</ele><time>2026-04-09T09:15:58.438Z</time></trkpt><trkpt lat="42.9563178" lon="11.5798148"><ele>578.0</ele><time>2026-04-09T09:15:59.446Z</time></trkpt><trkpt lat="42.9562285" lon="11.5799173"><ele>578.0</ele><time>2026-04-09T09:16:00.443Z</time></trkpt><trkpt lat="42.9561425" lon="11.5800169"><ele>578.0</ele><time>2026-04-09T09:16:01.436Z</time></trkpt><trkpt lat="42.9560609" lon="11.580116"><ele>578.0</ele><time>2026-04-09T09:16:02.435Z</time></trkpt><trkpt lat="42.9559959" lon="11.5802259"><ele>578.0</ele><time>2026-04-09T09:16:03.433Z</time></trkpt><trkpt lat="42.9559393" lon="11.5803504"><ele>578.0</ele><time>2026-04-09T09:16:04.435Z</time></trkpt><trkpt lat="42.9558922" lon="11.5804874"><ele>578.0</ele><time>2026-04-09T09:16:05.437Z</time></trkpt><trkpt lat="42.9558503" lon="11.5806215"><ele>578.0</ele><time>2026-04-09T09:16:06.435Z</time></trkpt><trkpt lat="42.9558115" lon="11.5807771"><ele>579.75</ele><time>2026-04-09T09:16:07.436Z</time></trkpt><trkpt lat="42.9557595" lon="11.5809498"><ele>581.5</ele><time>2026-04-09T09:16:08.429Z</time></trkpt><trkpt lat="42.9557064" lon="11.5811161"><ele>583.25</ele><time>2026-04-09T09:16:09.441Z</time></trkpt><trkpt lat="42.9556541" lon="11.5812681"><ele>585.0</ele><time>2026-04-09T09:16:10.446Z</time></trkpt><trkpt lat="42.9556082" lon="11.5814141"><ele>585.0</ele><time>2026-04-09T09:16:11.434Z</time></trkpt><trkpt lat="42.9555632" lon="11.5815357"><ele>585.0</ele><time>2026-04-09T09:16:12.438Z</time></trkpt><trkpt lat="42.9555155" lon="11.5816414"><ele>585.0</ele><time>2026-04-09T09:16:13.437Z</time></trkpt><trkpt lat="42.9554612" lon="11.5817531"><ele>585.0</ele><time>2026-04-09T09:16:14.433Z</time></trkpt><trkpt lat="42.9553963" lon="11.581877"><ele>585.0</ele><time>2026-04-09T09:16:15.442Z</time></trkpt><trkpt lat="42.9553238" lon="11.5819908"><ele>583.0</ele><time>2026-04-09T09:16:16.433Z</time></trkpt><trkpt lat="42.9552556" lon="11.5820918"><ele>581.0</ele><time>2026-04-09T09:16:17.437Z</time></trkpt><trkpt lat="42.9551849" lon="11.5821977"><ele>579.0</ele><time>2026-04-09T09:16:18.432Z</time></trkpt><trkpt lat="42.9551046" lon="11.5823199"><ele>577.0</ele><time>2026-04-09T09:16:19.439Z</time></trkpt><trkpt lat="42.955019" lon="11.5824416"><ele>575.0</ele><time>2026-04-09T09:16:20.44Z</time></trkpt><trkpt lat="42.9549312" lon="11.5825607"><ele>578.4</ele><time>2026-04-09T09:16:21.444Z</time></trkpt><trkpt lat="42.9548481" lon="11.5826685"><ele>581.8</ele><time>2026-04-09T09:16:22.437Z</time></trkpt><trkpt lat="42.9547833" lon="11.5827537"><ele>585.2</ele><time>2026-04-09T09:16:23.441Z</time></trkpt><trkpt lat="42.954724" lon="11.5828293"><ele>588.6</ele><time>2026-04-09T09:16:24.446Z</time></trkpt><trkpt lat="42.954665" lon="11.5829038"><ele>592.0</ele><time>2026-04-09T09:16:25.424Z</time></trkpt><trkpt lat="42.9546006" lon="11.5829884"><ele>592.0</ele><time>2026-04-09T09:16:26.446Z</time></trkpt><trkpt lat="42.9545418" lon="11.5830729"><ele>592.0</ele><time>2026-04-09T09:16:27.438Z</time></trkpt><trkpt lat="42.9544867" lon="11.5831494"><ele>592.0</ele><time>2026-04-09T09:16:28.441Z</time></trkpt><trkpt lat="42.9544234" lon="11.5832296"><ele>592.0</ele><time>2026-04-09T09:16:29.441Z</time></trkpt><trkpt lat="42.954359" lon="11.5833155"><ele>592.0</ele><time>2026-04-09T09:16:30.439Z</time></trkpt><trkpt lat="42.9543058" lon="11.5833977"><ele>592.0</ele><time>2026-04-09T09:16:31.431Z</time></trkpt><trkpt lat="42.9542537" lon="11.5834887"><ele>592.0</ele><time>2026-04-09T09:16:32.448Z</time></trkpt><trkpt lat="42.9542064" lon="11.5835997"><ele>592.0</ele><time>2026-04-09T09:16:33.438Z</time></trkpt><trkpt lat="42.9541616" lon="11.5837259"><ele>592.0</ele><time>2026-04-09T09:16:34.425Z</time></trkpt><trkpt lat="42.9541352" lon="11.5838535"><ele>592.0</ele><time>2026-04-09T09:16:35.435Z</time></trkpt><trkpt lat="42.9541117" lon="11.5839729"><ele>592.0</ele><time>2026-04-09T09:16:36.436Z</time></trkpt><trkpt lat="42.9540874" lon="11.5840995"><ele>592.6</ele><time>2026-04-09T09:16:37.455Z</time></trkpt><trkpt lat="42.9540652" lon="11.5842236"><ele>593.2</ele><time>2026-04-09T09:16:38.435Z</time></trkpt><trkpt lat="42.9540389" lon="11.584341"><ele>593.8</ele><time>2026-04-09T09:16:39.425Z</time></trkpt><trkpt lat="42.9540163" lon="11.5844737"><ele>594.4</ele><time>2026-04-09T09:16:40.449Z</time></trkpt><trkpt lat="42.9539889" lon="11.5846008"><ele>595.0</ele><time>2026-04-09T09:16:41.48Z</time></trkpt><trkpt lat="42.9539628" lon="11.5847164"><ele>595.0</ele><time>2026-04-09T09:16:42.456Z</time></trkpt><trkpt lat="42.9539493" lon="11.5848227"><ele>595.0</ele><time>2026-04-09T09:16:43.437Z</time></trkpt><trkpt lat="42.9539387" lon="11.5849328"><ele>595.0</ele><time>2026-04-09T09:16:44.431Z</time></trkpt><trkpt lat="42.9539254" lon="11.5850503"><ele>595.0</ele><time>2026-04-09T09:16:45.473Z</time></trkpt><trkpt lat="42.9539248" lon="11.585183"><ele>595.0</ele><time>2026-04-09T09:16:46.476Z</time></trkpt><trkpt lat="42.9539499" lon="11.5853092"><ele>595.0</ele><time>2026-04-09T09:16:47.429Z</time></trkpt><trkpt lat="42.9539979" lon="11.5854327"><ele>596.4</ele><time>2026-04-09T09:16:48.438Z</time></trkpt><trkpt lat="42.9540464" lon="11.5855304"><ele>597.8</ele><time>2026-04-09T09:16:49.43Z</time></trkpt><trkpt lat="42.9540971" lon="11.5856282"><ele>599.2</ele><time>2026-04-09T09:16:50.428Z</time></trkpt><trkpt lat="42.9541524" lon="11.5857364"><ele>600.6</ele><time>2026-04-09T09:16:51.433Z</time></trkpt><trkpt lat="42.9542136" lon="11.5858408"><ele>602.0</ele><time>2026-04-09T09:16:52.431Z</time></trkpt><trkpt lat="42.954261" lon="11.5859439"><ele>602.6</ele><time>2026-04-09T09:16:53.422Z</time></trkpt><trkpt lat="42.9542967" lon="11.5860316"><ele>603.2</ele><time>2026-04-09T09:16:54.45Z</time></trkpt><trkpt lat="42.9543581" lon="11.5861739"><ele>603.8</ele><time>2026-04-09T09:16:56.457Z</time></trkpt><trkpt lat="42.9544116" lon="11.5862451"><ele>604.4</ele><time>2026-04-09T09:16:57.448Z</time></trkpt><trkpt lat="42.954485" lon="11.5863013"><ele>605.0</ele><time>2026-04-09T09:16:58.455Z</time></trkpt><trkpt lat="42.9545777" lon="11.5863787"><ele>605.0</ele><time>2026-04-09T09:16:59.437Z</time></trkpt><trkpt lat="42.9546736" lon="11.5864644"><ele>605.0</ele><time>2026-04-09T09:17:00.427Z</time></trkpt><trkpt lat="42.9547841" lon="11.5865218"><ele>605.0</ele><time>2026-04-09T09:17:01.428Z</time></trkpt><trkpt lat="42.9549098" lon="11.586583"><ele>605.0</ele><time>2026-04-09T09:17:02.433Z</time></trkpt><trkpt lat="42.9550305" lon="11.5866456"><ele>603.2</ele><time>2026-04-09T09:17:03.423Z</time></trkpt><trkpt lat="42.9551378" lon="11.5866947"><ele>601.4</ele><time>2026-04-09T09:17:04.432Z</time></trkpt><trkpt lat="42.9552178" lon="11.5867487"><ele>599.6</ele><time>2026-04-09T09:17:05.513Z</time></trkpt><trkpt lat="42.955303" lon="11.586808"><ele>597.8</ele><time>2026-04-09T09:17:06.429Z</time></trkpt><trkpt lat="42.9553759" lon="11.5868658"><ele>596.0</ele><time>2026-04-09T09:17:07.431Z</time></trkpt><trkpt lat="42.9554504" lon="11.5869434"><ele>602.5</ele><time>2026-04-09T09:17:08.425Z</time></trkpt><trkpt lat="42.9555345" lon="11.5870433"><ele>609.0</ele><time>2026-04-09T09:17:09.426Z</time></trkpt><trkpt lat="42.955633" lon="11.5871385"><ele>615.5</ele><time>2026-04-09T09:17:10.428Z</time></trkpt><trkpt lat="42.9557296" lon="11.5872218"><ele>622.0</ele><time>2026-04-09T09:17:11.421Z</time></trkpt><trkpt lat="42.9558219" lon="11.5872896"><ele>621.0</ele><time>2026-04-09T09:17:12.434Z</time></trkpt><trkpt lat="42.9558993" lon="11.5873491"><ele>620.0</ele><time>2026-04-09T09:17:13.433Z</time></trkpt><trkpt lat="42.955979" lon="11.58742"><ele>619.0</ele><time>2026-04-09T09:17:14.422Z</time></trkpt><trkpt lat="42.9560628" lon="11.5874946"><ele>618.0</ele><time>2026-04-09T09:17:15.429Z</time></trkpt><trkpt lat="42.9561481" lon="11.5875555"><ele>617.0</ele><time>2026-04-09T09:17:16.43Z</time></trkpt><trkpt lat="42.9562333" lon="11.5876089"><ele>617.0</ele><time>2026-04-09T09:17:17.432Z</time></trkpt><trkpt lat="42.956307" lon="11.5876762"><ele>617.0</ele><time>2026-04-09T09:17:18.43Z</time></trkpt><trkpt lat="42.956372" lon="11.587752"><ele>617.0</ele><time>2026-04-09T09:17:19.426Z</time></trkpt><trkpt lat="42.9564492" lon="11.5878171"><ele>617.0</ele><time>2026-04-09T09:17:20.434Z</time></trkpt><trkpt lat="42.9565114" lon="11.5878929"><ele>617.0</ele><time>2026-04-09T09:17:21.431Z</time></trkpt><trkpt lat="42.9565669" lon="11.5879657"><ele>617.0</ele><time>2026-04-09T09:17:22.44Z</time></trkpt><trkpt lat="42.9566203" lon="11.5880457"><ele>616.8000000000001</ele><time>2026-04-09T09:17:23.428Z</time></trkpt><trkpt lat="42.9566758" lon="11.5881586"><ele>616.6</ele><time>2026-04-09T09:17:24.428Z</time></trkpt><trkpt lat="42.9567257" lon="11.5882914"><ele>616.4000000000001</ele><time>2026-04-09T09:17:25.427Z</time></trkpt><trkpt lat="42.9567727" lon="11.5884217"><ele>616.2</ele><time>2026-04-09T09:17:26.432Z</time></trkpt><trkpt lat="42.9568209" lon="11.5885681"><ele>616.0</ele><time>2026-04-09T09:17:27.424Z</time></trkpt><trkpt lat="42.9568566" lon="11.5887333"><ele>618.75</ele><time>2026-04-09T09:17:28.435Z</time></trkpt><trkpt lat="42.9568793" lon="11.5889046"><ele>621.5</ele><time>2026-04-09T09:17:29.428Z</time></trkpt><trkpt lat="42.9569029" lon="11.5890728"><ele>624.25</ele><time>2026-04-09T09:17:30.424Z</time></trkpt><trkpt lat="42.956913" lon="11.5892248"><ele>627.0</ele><time>2026-04-09T09:17:31.43Z</time></trkpt><trkpt lat="42.956908" lon="11.5893543"><ele>627.0</ele><time>2026-04-09T09:17:32.424Z</time></trkpt><trkpt lat="42.95688" lon="11.5894669"><ele>627.0</ele><time>2026-04-09T09:17:33.424Z</time></trkpt><trkpt lat="42.9568279" lon="11.5895614"><ele>627.0</ele><time>2026-04-09T09:17:34.437Z</time></trkpt><trkpt lat="42.9567573" lon="11.5896548"><ele>627.0</ele><time>2026-04-09T09:17:35.432Z</time></trkpt><trkpt lat="42.9566701" lon="11.5897261"><ele>627.0</ele><time>2026-04-09T09:17:36.43Z</time></trkpt><trkpt lat="42.9566018" lon="11.5898027"><ele>630.0</ele><time>2026-04-09T09:17:37.423Z</time></trkpt><trkpt lat="42.9565431" lon="11.5898685"><ele>633.0</ele><time>2026-04-09T09:17:38.426Z</time></trkpt><trkpt lat="42.9564949" lon="11.5899342"><ele>636.0</ele><time>2026-04-09T09:17:39.423Z</time></trkpt><trkpt lat="42.9565153" lon="11.5900732"><ele>639.0</ele><time>2026-04-09T09:17:41.441Z</time></trkpt><trkpt lat="42.9565635" lon="11.5901286"><ele>642.0</ele><time>2026-04-09T09:17:42.429Z</time></trkpt><trkpt lat="42.9566299" lon="11.5901773"><ele>645.0</ele><time>2026-04-09T09:17:43.428Z</time></trkpt><trkpt lat="42.9566943" lon="11.5902377"><ele>644.2</ele><time>2026-04-09T09:17:44.434Z</time></trkpt><trkpt lat="42.9567712" lon="11.5903007"><ele>643.4</ele><time>2026-04-09T09:17:45.435Z</time></trkpt><trkpt lat="42.9568561" lon="11.5903525"><ele>642.5999999999999</ele><time>2026-04-09T09:17:46.434Z</time></trkpt><trkpt lat="42.9569489" lon="11.5903987"><ele>641.8</ele><time>2026-04-09T09:17:47.432Z</time></trkpt><trkpt lat="42.9570405" lon="11.5904415"><ele>641.0</ele><time>2026-04-09T09:17:48.429Z</time></trkpt><trkpt lat="42.9571309" lon="11.5904941"><ele>643.1999999999999</ele><time>2026-04-09T09:17:49.436Z</time></trkpt><trkpt lat="42.957223" lon="11.5905582"><ele>645.4</ele><time>2026-04-09T09:17:50.456Z</time></trkpt><trkpt lat="42.9573177" lon="11.5906234"><ele>647.6</ele><time>2026-04-09T09:17:51.43Z</time></trkpt><trkpt lat="42.9574152" lon="11.5906853"><ele>649.8</ele><time>2026-04-09T09:17:52.436Z</time></trkpt><trkpt lat="42.9575057" lon="11.5907257"><ele>652.0</ele><time>2026-04-09T09:17:53.441Z</time></trkpt><trkpt lat="42.9575854" lon="11.5907677"><ele>652.2</ele><time>2026-04-09T09:17:54.428Z</time></trkpt><trkpt lat="42.9576582" lon="11.5908132"><ele>652.4000000000001</ele><time>2026-04-09T09:17:55.436Z</time></trkpt><trkpt lat="42.9577486" lon="11.5909151"><ele>652.5999999999999</ele><time>2026-04-09T09:17:57.424Z</time></trkpt><trkpt lat="42.9577907" lon="11.5909889"><ele>652.8</ele><time>2026-04-09T09:17:58.425Z</time></trkpt><trkpt lat="42.9578426" lon="11.5910645"><ele>653.0</ele><time>2026-04-09T09:17:59.665Z</time></trkpt><trkpt lat="42.9579385" lon="11.5912076"><ele>655.0</ele><time>2026-04-09T09:18:01.438Z</time></trkpt><trkpt lat="42.9579996" lon="11.5912535"><ele>657.0</ele><time>2026-04-09T09:18:02.423Z</time></trkpt><trkpt lat="42.9580864" lon="11.591275"><ele>659.0</ele><time>2026-04-09T09:18:03.432Z</time></trkpt><trkpt lat="42.9581801" lon="11.5912724"><ele>661.0</ele><time>2026-04-09T09:18:04.432Z</time></trkpt><trkpt lat="42.958279" lon="11.5912731"><ele>663.0</ele><time>2026-04-09T09:18:05.427Z</time></trkpt><trkpt lat="42.9583803" lon="11.5912701"><ele>663.0</ele><time>2026-04-09T09:18:06.428Z</time></trkpt><trkpt lat="42.9584558" lon="11.591287"><ele>663.0</ele><time>2026-04-09T09:18:07.446Z</time></trkpt><trkpt lat="42.9585496" lon="11.5913845"><ele>663.0</ele><time>2026-04-09T09:18:09.419Z</time></trkpt><trkpt lat="42.9585874" lon="11.5915166"><ele>663.0</ele><time>2026-04-09T09:18:11.417Z</time></trkpt><trkpt lat="42.9585765" lon="11.5916075"><ele>663.0</ele><time>2026-04-09T09:18:12.428Z</time></trkpt><trkpt lat="42.9585441" lon="11.5917035"><ele>663.0</ele><time>2026-04-09T09:18:13.421Z</time></trkpt><trkpt lat="42.9584952" lon="11.5918319"><ele>663.0</ele><time>2026-04-09T09:18:14.423Z</time></trkpt><trkpt lat="42.9584497" lon="11.5919855"><ele>663.0</ele><time>2026-04-09T09:18:15.423Z</time></trkpt><trkpt lat="42.9584327" lon="11.5921478"><ele>663.0</ele><time>2026-04-09T09:18:16.427Z</time></trkpt><trkpt lat="42.9584182" lon="11.5923053"><ele>663.0</ele><time>2026-04-09T09:18:17.423Z</time></trkpt><trkpt lat="42.9584057" lon="11.5924315"><ele>663.5</ele><time>2026-04-09T09:18:18.42Z</time></trkpt><trkpt lat="42.9584034" lon="11.5925448"><ele>664.0</ele><time>2026-04-09T09:18:19.426Z</time></trkpt><trkpt lat="42.9583957" lon="11.5926502"><ele>664.5</ele><time>2026-04-09T09:18:20.424Z</time></trkpt><trkpt lat="42.9583824" lon="11.5927385"><ele>665.0</ele><time>2026-04-09T09:18:21.433Z</time></trkpt><trkpt lat="42.9583497" lon="11.5928857"><ele>665.5</ele><time>2026-04-09T09:18:23.452Z</time></trkpt><trkpt lat="42.958321" lon="11.5929932"><ele>666.0</ele><time>2026-04-09T09:18:25.435Z</time></trkpt><trkpt lat="42.9582582" lon="11.5931058"><ele>666.0</ele><time>2026-04-09T09:18:27.431Z</time></trkpt><trkpt lat="42.9582024" lon="11.5931755"><ele>666.0</ele><time>2026-04-09T09:18:28.423Z</time></trkpt><trkpt lat="42.958117" lon="11.5932631"><ele>666.0</ele><time>2026-04-09T09:18:29.428Z</time></trkpt><trkpt lat="42.9580098" lon="11.5933661"><ele>666.0</ele><time>2026-04-09T09:18:30.424Z</time></trkpt><trkpt lat="42.9578963" lon="11.5934799"><ele>666.0</ele><time>2026-04-09T09:18:31.426Z</time></trkpt><trkpt lat="42.9577795" lon="11.593605"><ele>666.0</ele><time>2026-04-09T09:18:32.431Z</time></trkpt><trkpt lat="42.9576839" lon="11.5937292"><ele>666.0</ele><time>2026-04-09T09:18:33.42Z</time></trkpt><trkpt lat="42.9576022" lon="11.5938462"><ele>666.0</ele><time>2026-04-09T09:18:34.438Z</time></trkpt><trkpt lat="42.957534" lon="11.5939634"><ele>667.0</ele><time>2026-04-09T09:18:35.438Z</time></trkpt><trkpt lat="42.9574822" lon="11.594064"><ele>668.0</ele><time>2026-04-09T09:18:36.434Z</time></trkpt><trkpt lat="42.95745" lon="11.5941637"><ele>669.0</ele><time>2026-04-09T09:18:37.425Z</time></trkpt><trkpt lat="42.9574361" lon="11.5942681"><ele>670.0</ele><time>2026-04-09T09:18:38.432Z</time></trkpt><trkpt lat="42.9574524" lon="11.5944029"><ele>671.0</ele><time>2026-04-09T09:18:39.431Z</time></trkpt><trkpt lat="42.9575065" lon="11.5945694"><ele>669.0</ele><time>2026-04-09T09:18:40.423Z</time></trkpt><trkpt lat="42.957569" lon="11.5947655"><ele>667.0</ele><time>2026-04-09T09:18:41.454Z</time></trkpt><trkpt lat="42.9576351" lon="11.5949755"><ele>665.0</ele><time>2026-04-09T09:18:42.459Z</time></trkpt><trkpt lat="42.9577329" lon="11.5952202"><ele>667.3333333333333</ele><time>2026-04-09T09:18:43.459Z</time></trkpt><trkpt lat="42.9577803" lon="11.5954157"><ele>669.6666666666666</ele><time>2026-04-09T09:18:44.431Z</time></trkpt><trkpt lat="42.9578381" lon="11.5956165"><ele>672.0</ele><time>2026-04-09T09:18:45.436Z</time></trkpt><trkpt lat="42.9578813" lon="11.5958058"><ele>672.0</ele><time>2026-04-09T09:18:46.433Z</time></trkpt><trkpt lat="42.957921" lon="11.5959698"><ele>672.0</ele><time>2026-04-09T09:18:47.43Z</time></trkpt><trkpt lat="42.9579691" lon="11.5961109"><ele>672.0</ele><time>2026-04-09T09:18:48.434Z</time></trkpt><trkpt lat="42.9580158" lon="11.5962097"><ele>672.0</ele><time>2026-04-09T09:18:49.441Z</time></trkpt><trkpt lat="42.9580554" lon="11.5963253"><ele>672.0</ele><time>2026-04-09T09:18:50.431Z</time></trkpt><trkpt lat="42.9581129" lon="11.5964243"><ele>673.8333333333334</ele><time>2026-04-09T09:18:51.442Z</time></trkpt><trkpt lat="42.9581738" lon="11.5964771"><ele>675.6666666666666</ele><time>2026-04-09T09:18:52.433Z</time></trkpt><trkpt lat="42.9582154" lon="11.5965442"><ele>677.5</ele><time>2026-04-09T09:18:53.444Z</time></trkpt><trkpt lat="42.9582688" lon="11.5966471"><ele>679.3333333333333</ele><time>2026-04-09T09:18:55.434Z</time></trkpt><trkpt lat="42.9582388" lon="11.5967359"><ele>681.1666666666666</ele><time>2026-04-09T09:18:58.431Z</time></trkpt><trkpt lat="42.9581096" lon="11.5967792"><ele>683.0</ele><time>2026-04-09T09:19:00.438Z</time></trkpt><trkpt lat="42.958021" lon="11.5967873"><ele>683.0</ele><time>2026-04-09T09:19:01.438Z</time></trkpt><trkpt lat="42.9579201" lon="11.5968142"><ele>683.0</ele><time>2026-04-09T09:19:02.438Z</time></trkpt><trkpt lat="42.9578218" lon="11.5968546"><ele>683.0</ele><time>2026-04-09T09:19:03.442Z</time></trkpt><trkpt lat="42.9577472" lon="11.5969016"><ele>683.0</ele><time>2026-04-09T09:19:04.443Z</time></trkpt><trkpt lat="42.9576822" lon="11.5970182"><ele>683.0</ele><time>2026-04-09T09:19:06.439Z</time></trkpt><trkpt lat="42.9577109" lon="11.5971675"><ele>685.0</ele><time>2026-04-09T09:19:08.444Z</time></trkpt><trkpt lat="42.9577487" lon="11.5972531"><ele>687.0</ele><time>2026-04-09T09:19:09.44Z</time></trkpt><trkpt lat="42.9578046" lon="11.5973315"><ele>689.0</ele><time>2026-04-09T09:19:10.439Z</time></trkpt><trkpt lat="42.9578643" lon="11.597419"><ele>691.0</ele><time>2026-04-09T09:19:11.453Z</time></trkpt><trkpt lat="42.957922" lon="11.5975128"><ele>693.0</ele><time>2026-04-09T09:19:12.448Z</time></trkpt><trkpt lat="42.9579777" lon="11.5976035"><ele>695.0</ele><time>2026-04-09T09:19:13.434Z</time></trkpt><trkpt lat="42.9580402" lon="11.597684"><ele>695.0</ele><time>2026-04-09T09:19:14.446Z</time></trkpt><trkpt lat="42.9581109" lon="11.5977494"><ele>695.0</ele><time>2026-04-09T09:19:15.441Z</time></trkpt><trkpt lat="42.9581979" lon="11.5978043"><ele>695.0</ele><time>2026-04-09T09:19:16.439Z</time></trkpt><trkpt lat="42.9582783" lon="11.5978453"><ele>695.0</ele><time>2026-04-09T09:19:17.448Z</time></trkpt><trkpt lat="42.9583533" lon="11.5978895"><ele>695.0</ele><time>2026-04-09T09:19:18.439Z</time></trkpt><trkpt lat="42.9584229" lon="11.597947"><ele>695.0</ele><time>2026-04-09T09:19:19.432Z</time></trkpt><trkpt lat="42.9584884" lon="11.5980078"><ele>693.1666666666666</ele><time>2026-04-09T09:19:20.434Z</time></trkpt><trkpt lat="42.9585273" lon="11.5980907"><ele>691.3333333333333</ele><time>2026-04-09T09:19:21.429Z</time></trkpt><trkpt lat="42.9585446" lon="11.5981902"><ele>689.5</ele><time>2026-04-09T09:19:22.423Z</time></trkpt><trkpt lat="42.9585353" lon="11.5982933"><ele>687.6666666666666</ele><time>2026-04-09T09:19:23.43Z</time></trkpt><trkpt lat="42.9585026" lon="11.5984005"><ele>685.8333333333334</ele><time>2026-04-09T09:19:24.429Z</time></trkpt><trkpt lat="42.9584678" lon="11.5985014"><ele>684.0</ele><time>2026-04-09T09:19:25.432Z</time></trkpt><trkpt lat="42.9584451" lon="11.5985993"><ele>686.0</ele><time>2026-04-09T09:19:26.441Z</time></trkpt><trkpt lat="42.9584338" lon="11.5986896"><ele>688.0</ele><time>2026-04-09T09:19:27.473Z</time></trkpt><trkpt lat="42.9584452" lon="11.5987883"><ele>690.0</ele><time>2026-04-09T09:19:28.441Z</time></trkpt><trkpt lat="42.9584834" lon="11.5988849"><ele>692.0</ele><time>2026-04-09T09:19:29.441Z</time></trkpt><trkpt lat="42.9585455" lon="11.5989772"><ele>694.0</ele><time>2026-04-09T09:19:30.439Z</time></trkpt><trkpt lat="42.9586399" lon="11.5990605"><ele>696.0</ele><time>2026-04-09T09:19:31.437Z</time></trkpt><trkpt lat="42.9587154" lon="11.5991469"><ele>696.0</ele><time>2026-04-09T09:19:32.435Z</time></trkpt><trkpt lat="42.9587701" lon="11.5992456"><ele>696.0</ele><time>2026-04-09T09:19:33.44Z</time></trkpt><trkpt lat="42.9588171" lon="11.5993576"><ele>696.0</ele><time>2026-04-09T09:19:34.435Z</time></trkpt><trkpt lat="42.9588429" lon="11.5994677"><ele>696.0</ele><time>2026-04-09T09:19:35.456Z</time></trkpt><trkpt lat="42.9588635" lon="11.5995702"><ele>696.0</ele><time>2026-04-09T09:19:36.439Z</time></trkpt><trkpt lat="42.9588605" lon="11.5996699"><ele>696.0</ele><time>2026-04-09T09:19:37.435Z</time></trkpt><trkpt lat="42.9588486" lon="11.5997951"><ele>697.25</ele><time>2026-04-09T09:19:38.44Z</time></trkpt><trkpt lat="42.9588323" lon="11.5999334"><ele>698.5</ele><time>2026-04-09T09:19:39.439Z</time></trkpt><trkpt lat="42.9588148" lon="11.6000796"><ele>699.75</ele><time>2026-04-09T09:19:40.431Z</time></trkpt><trkpt lat="42.9587908" lon="11.6002352"><ele>701.0</ele><time>2026-04-09T09:19:41.443Z</time></trkpt><trkpt lat="42.9587628" lon="11.6004181"><ele>702.75</ele><time>2026-04-09T09:19:42.441Z</time></trkpt><trkpt lat="42.9587303" lon="11.6006095"><ele>704.5</ele><time>2026-04-09T09:19:43.439Z</time></trkpt><trkpt lat="42.958701" lon="11.6007908"><ele>706.25</ele><time>2026-04-09T09:19:44.439Z</time></trkpt><trkpt lat="42.9586779" lon="11.6009569"><ele>708.0</ele><time>2026-04-09T09:19:45.433Z</time></trkpt><trkpt lat="42.958656" lon="11.6011263"><ele>709.3333333333334</ele><time>2026-04-09T09:19:46.439Z</time></trkpt><trkpt lat="42.9586399" lon="11.601311"><ele>710.6666666666667</ele><time>2026-04-09T09:19:47.439Z</time></trkpt><trkpt lat="42.9586258" lon="11.601519"><ele>712.0</ele><time>2026-04-09T09:19:48.436Z</time></trkpt><trkpt lat="42.9585969" lon="11.6017534"><ele>712.0</ele><time>2026-04-09T09:19:49.433Z</time></trkpt><trkpt lat="42.9585782" lon="11.6019372"><ele>712.0</ele><time>2026-04-09T09:19:50.434Z</time></trkpt><trkpt lat="42.9585712" lon="11.6020836"><ele>712.0</ele><time>2026-04-09T09:19:51.436Z</time></trkpt><trkpt lat="42.9585506" lon="11.6022268"><ele>712.0</ele><time>2026-04-09T09:19:52.44Z</time></trkpt><trkpt lat="42.9585537" lon="11.6023632"><ele>712.6</ele><time>2026-04-09T09:19:53.445Z</time></trkpt><trkpt lat="42.9585655" lon="11.6024654"><ele>713.2</ele><time>2026-04-09T09:19:54.44Z</time></trkpt><trkpt lat="42.9585843" lon="11.6026127"><ele>713.8</ele><time>2026-04-09T09:19:55.429Z</time></trkpt><trkpt lat="42.958583" lon="11.6027709"><ele>714.4</ele><time>2026-04-09T09:19:56.437Z</time></trkpt><trkpt lat="42.9585643" lon="11.6029112"><ele>715.0</ele><time>2026-04-09T09:19:57.442Z</time></trkpt><trkpt lat="42.9585451" lon="11.6030317"><ele>715.3333333333334</ele><time>2026-04-09T09:19:58.43Z</time></trkpt><trkpt lat="42.958527" lon="11.6031263"><ele>715.6666666666667</ele><time>2026-04-09T09:19:59.434Z</time></trkpt><trkpt lat="42.9585034" lon="11.6032441"><ele>716.0</ele><time>2026-04-09T09:20:01.437Z</time></trkpt><trkpt lat="42.9584989" lon="11.6033659"><ele>716.3333333333334</ele><time>2026-04-09T09:20:04.44Z</time></trkpt><trkpt lat="42.9584845" lon="11.6034576"><ele>716.6666666666666</ele><time>2026-04-09T09:20:30.439Z</time></trkpt><trkpt lat="42.9584763" lon="11.6035946"><ele>717.0</ele><time>2026-04-09T09:20:54.437Z</time></trkpt><trkpt lat="42.9584864" lon="11.6037527"><ele>718.4000000000001</ele><time>2026-04-09T09:20:56.44Z</time></trkpt><trkpt lat="42.9585434" lon="11.6039042"><ele>719.8000000000001</ele><time>2026-04-09T09:20:58.436Z</time></trkpt><trkpt lat="42.9585947" lon="11.6039789"><ele>721.2</ele><time>2026-04-09T09:20:59.441Z</time></trkpt><trkpt lat="42.9586683" lon="11.6040512"><ele>722.6</ele><time>2026-04-09T09:21:00.461Z</time></trkpt><trkpt lat="42.9587597" lon="11.604132"><ele>724.0</ele><time>2026-04-09T09:21:01.457Z</time></trkpt><trkpt lat="42.9588585" lon="11.6042316"><ele>724.0</ele><time>2026-04-09T09:21:02.434Z</time></trkpt><trkpt lat="42.9589547" lon="11.604349"><ele>724.0</ele><time>2026-04-09T09:21:03.439Z</time></trkpt><trkpt lat="42.9590435" lon="11.6044893"><ele>724.0</ele><time>2026-04-09T09:21:04.437Z</time></trkpt><trkpt lat="42.9591185" lon="11.6046316"><ele>724.0</ele><time>2026-04-09T09:21:05.439Z</time></trkpt><trkpt lat="42.9591778" lon="11.6047869"><ele>721.0</ele><time>2026-04-09T09:21:06.434Z</time></trkpt><trkpt lat="42.9592255" lon="11.6049378"><ele>718.0</ele><time>2026-04-09T09:21:07.43Z</time></trkpt><trkpt lat="42.9592519" lon="11.6050904"><ele>715.0</ele><time>2026-04-09T09:21:08.436Z</time></trkpt><trkpt lat="42.959269" lon="11.6052516"><ele>712.0</ele><time>2026-04-09T09:21:09.433Z</time></trkpt><trkpt lat="42.9592801" lon="11.6054137"><ele>712.0</ele><time>2026-04-09T09:21:10.431Z</time></trkpt><trkpt lat="42.9592872" lon="11.6055733"><ele>712.0</ele><time>2026-04-09T09:21:11.434Z</time></trkpt><trkpt lat="42.9592899" lon="11.6057243"><ele>712.0</ele><time>2026-04-09T09:21:12.424Z</time></trkpt><trkpt lat="42.9592818" lon="11.6058627"><ele>712.0</ele><time>2026-04-09T09:21:13.436Z</time></trkpt><trkpt lat="42.9592444" lon="11.6059957"><ele>712.0</ele><time>2026-04-09T09:21:14.433Z</time></trkpt><trkpt lat="42.9592024" lon="11.606128"><ele>711.75</ele><time>2026-04-09T09:21:15.438Z</time></trkpt><trkpt lat="42.9591753" lon="11.6062593"><ele>711.5</ele><time>2026-04-09T09:21:16.426Z</time></trkpt><trkpt lat="42.9591692" lon="11.6064008"><ele>711.25</ele><time>2026-04-09T09:21:17.586Z</time></trkpt><trkpt lat="42.9591846" lon="11.6067321"><ele>711.0</ele><time>2026-04-09T09:21:19.43Z</time></trkpt><trkpt lat="42.9592094" lon="11.6069173"><ele>711.25</ele><time>2026-04-09T09:21:20.438Z</time></trkpt><trkpt lat="42.959241" lon="11.6070947"><ele>711.5</ele><time>2026-04-09T09:21:21.435Z</time></trkpt><trkpt lat="42.9592753" lon="11.6072596"><ele>711.75</ele><time>2026-04-09T09:21:22.438Z</time></trkpt><trkpt lat="42.9592935" lon="11.6074202"><ele>712.0</ele><time>2026-04-09T09:21:23.434Z</time></trkpt><trkpt lat="42.9593076" lon="11.6075721"><ele>712.0</ele><time>2026-04-09T09:21:24.435Z</time></trkpt><trkpt lat="42.9593249" lon="11.6077182"><ele>712.0</ele><time>2026-04-09T09:21:25.436Z</time></trkpt><trkpt lat="42.9593439" lon="11.6078561"><ele>712.0</ele><time>2026-04-09T09:21:26.439Z</time></trkpt><trkpt lat="42.9593655" lon="11.6079806"><ele>712.0</ele><time>2026-04-09T09:21:27.431Z</time></trkpt><trkpt lat="42.9594019" lon="11.6080967"><ele>712.0</ele><time>2026-04-09T09:21:28.436Z</time></trkpt><trkpt lat="42.9594538" lon="11.6081924"><ele>713.5</ele><time>2026-04-09T09:21:29.431Z</time></trkpt><trkpt lat="42.9594943" lon="11.6082924"><ele>715.0</ele><time>2026-04-09T09:21:30.445Z</time></trkpt><trkpt lat="42.9595291" lon="11.6083873"><ele>716.5</ele><time>2026-04-09T09:21:31.432Z</time></trkpt><trkpt lat="42.9595545" lon="11.6084983"><ele>718.0</ele><time>2026-04-09T09:21:32.435Z</time></trkpt><trkpt lat="42.9595719" lon="11.6086336"><ele>719.5</ele><time>2026-04-09T09:21:33.438Z</time></trkpt><trkpt lat="42.9595942" lon="11.6087621"><ele>721.0</ele><time>2026-04-09T09:21:34.449Z</time></trkpt><trkpt lat="42.9596014" lon="11.6088797"><ele>722.0</ele><time>2026-04-09T09:21:35.437Z</time></trkpt><trkpt lat="42.9595917" lon="11.6090023"><ele>723.0</ele><time>2026-04-09T09:21:36.458Z</time></trkpt><trkpt lat="42.9595775" lon="11.609114"><ele>724.0</ele><time>2026-04-09T09:21:37.437Z</time></trkpt><trkpt lat="42.9595559" lon="11.6092157"><ele>725.0</ele><time>2026-04-09T09:21:38.446Z</time></trkpt><trkpt lat="42.9595355" lon="11.6093057"><ele>726.0</ele><time>2026-04-09T09:21:39.442Z</time></trkpt><trkpt lat="42.9595213" lon="11.6093991"><ele>727.0</ele><time>2026-04-09T09:21:40.443Z</time></trkpt><trkpt lat="42.9595136" lon="11.6095105"><ele>727.0</ele><time>2026-04-09T09:21:41.444Z</time></trkpt><trkpt lat="42.9595168" lon="11.6096325"><ele>727.0</ele><time>2026-04-09T09:21:42.435Z</time></trkpt><trkpt lat="42.9595317" lon="11.6097475"><ele>727.0</ele><time>2026-04-09T09:21:43.452Z</time></trkpt><trkpt lat="42.9595539" lon="11.6098626"><ele>727.0</ele><time>2026-04-09T09:21:44.442Z</time></trkpt><trkpt lat="42.9595757" lon="11.6099882"><ele>727.0</ele><time>2026-04-09T09:21:45.435Z</time></trkpt><trkpt lat="42.9596112" lon="11.6101113"><ele>727.0</ele><time>2026-04-09T09:21:46.447Z</time></trkpt><trkpt lat="42.9596541" lon="11.6102193"><ele>727.0</ele><time>2026-04-09T09:21:47.444Z</time></trkpt><trkpt lat="42.9597003" lon="11.610329"><ele>727.0</ele><time>2026-04-09T09:21:48.442Z</time></trkpt><trkpt lat="42.95975" lon="11.6104547"><ele>727.0</ele><time>2026-04-09T09:21:49.444Z</time></trkpt><trkpt lat="42.9597998" lon="11.610582"><ele>727.0</ele><time>2026-04-09T09:21:50.446Z</time></trkpt><trkpt lat="42.9598455" lon="11.6106926"><ele>726.2</ele><time>2026-04-09T09:21:51.445Z</time></trkpt><trkpt lat="42.9598906" lon="11.6107901"><ele>725.4000000000001</ele><time>2026-04-09T09:21:52.448Z</time></trkpt><trkpt lat="42.9599524" lon="11.6108848"><ele>724.5999999999999</ele><time>2026-04-09T09:21:53.444Z</time></trkpt><trkpt lat="42.9600322" lon="11.6109697"><ele>723.8</ele><time>2026-04-09T09:21:54.442Z</time></trkpt><trkpt lat="42.9601226" lon="11.6110603"><ele>723.0</ele><time>2026-04-09T09:21:55.441Z</time></trkpt><trkpt lat="42.9602262" lon="11.6111603"><ele>721.75</ele><time>2026-04-09T09:21:56.441Z</time></trkpt><trkpt lat="42.960344" lon="11.6112549"><ele>720.5</ele><time>2026-04-09T09:21:57.442Z</time></trkpt><trkpt lat="42.9604711" lon="11.6113518"><ele>719.25</ele><time>2026-04-09T09:21:58.443Z</time></trkpt><trkpt lat="42.9606077" lon="11.6114448"><ele>718.0</ele><time>2026-04-09T09:21:59.445Z</time></trkpt><trkpt lat="42.9606926" lon="11.6115481"><ele>718.0</ele><time>2026-04-09T09:22:00.443Z</time></trkpt><trkpt lat="42.960778" lon="11.6116489"><ele>718.0</ele><time>2026-04-09T09:22:01.447Z</time></trkpt><trkpt lat="42.9608369" lon="11.6117412"><ele>718.0</ele><time>2026-04-09T09:22:02.449Z</time></trkpt><trkpt lat="42.9608911" lon="11.611835"><ele>718.0</ele><time>2026-04-09T09:22:03.439Z</time></trkpt><trkpt lat="42.960943" lon="11.6119256"><ele>718.0</ele><time>2026-04-09T09:22:04.446Z</time></trkpt><trkpt lat="42.9609928" lon="11.6120194"><ele>717.0</ele><time>2026-04-09T09:22:05.446Z</time></trkpt><trkpt lat="42.9610459" lon="11.6120881"><ele>716.0</ele><time>2026-04-09T09:22:06.438Z</time></trkpt><trkpt lat="42.9611099" lon="11.6121335"><ele>715.0</ele><time>2026-04-09T09:22:07.44Z</time></trkpt><trkpt lat="42.9611765" lon="11.6121699"><ele>714.0</ele><time>2026-04-09T09:22:08.444Z</time></trkpt><trkpt lat="42.9612512" lon="11.6122166"><ele>713.0</ele><time>2026-04-09T09:22:09.446Z</time></trkpt><trkpt lat="42.961342" lon="11.6122598"><ele>712.0</ele><time>2026-04-09T09:22:10.439Z</time></trkpt><trkpt lat="42.9614339" lon="11.6123043"><ele>712.0</ele><time>2026-04-09T09:22:11.445Z</time></trkpt><trkpt lat="42.9615177" lon="11.6123468"><ele>712.0</ele><time>2026-04-09T09:22:12.447Z</time></trkpt><trkpt lat="42.9615918" lon="11.6123897"><ele>712.0</ele><time>2026-04-09T09:22:13.437Z</time></trkpt><trkpt lat="42.9616585" lon="11.6124379"><ele>712.0</ele><time>2026-04-09T09:22:14.441Z</time></trkpt><trkpt lat="42.9617205" lon="11.6124908"><ele>712.0</ele><time>2026-04-09T09:22:15.427Z</time></trkpt><trkpt lat="42.9617736" lon="11.612555"><ele>712.0</ele><time>2026-04-09T09:22:16.437Z</time></trkpt><trkpt lat="42.9618157" lon="11.6126258"><ele>710.2857142857142</ele><time>2026-04-09T09:22:17.432Z</time></trkpt><trkpt lat="42.9618573" lon="11.6127022"><ele>708.5714285714286</ele><time>2026-04-09T09:22:18.436Z</time></trkpt><trkpt lat="42.9618927" lon="11.6127885"><ele>706.8571428571429</ele><time>2026-04-09T09:22:19.436Z</time></trkpt><trkpt lat="42.9619166" lon="11.6128856"><ele>705.1428571428571</ele><time>2026-04-09T09:22:20.442Z</time></trkpt><trkpt lat="42.9619299" lon="11.6129823"><ele>703.4285714285714</ele><time>2026-04-09T09:22:21.442Z</time></trkpt><trkpt lat="42.9619462" lon="11.6130864"><ele>701.7142857142857</ele><time>2026-04-09T09:22:22.44Z</time></trkpt><trkpt lat="42.9619642" lon="11.6131943"><ele>700.0</ele><time>2026-04-09T09:22:23.437Z</time></trkpt><trkpt lat="42.9619797" lon="11.6132878"><ele>699.4</ele><time>2026-04-09T09:22:24.444Z</time></trkpt><trkpt lat="42.9619942" lon="11.6133929"><ele>698.8</ele><time>2026-04-09T09:22:25.471Z</time></trkpt><trkpt lat="42.9620021" lon="11.6135053"><ele>698.2</ele><time>2026-04-09T09:22:26.465Z</time></trkpt><trkpt lat="42.9620014" lon="11.6136404"><ele>697.6</ele><time>2026-04-09T09:22:27.448Z</time></trkpt><trkpt lat="42.9619839" lon="11.6137878"><ele>697.0</ele><time>2026-04-09T09:22:28.439Z</time></trkpt><trkpt lat="42.9619601" lon="11.613939"><ele>696.25</ele><time>2026-04-09T09:22:29.452Z</time></trkpt><trkpt lat="42.9619446" lon="11.6140895"><ele>695.5</ele><time>2026-04-09T09:22:30.461Z</time></trkpt><trkpt lat="42.9619426" lon="11.6142528"><ele>694.75</ele><time>2026-04-09T09:22:31.439Z</time></trkpt><trkpt lat="42.9619567" lon="11.6144312"><ele>694.0</ele><time>2026-04-09T09:22:32.449Z</time></trkpt><trkpt lat="42.9619723" lon="11.6145907"><ele>693.6</ele><time>2026-04-09T09:22:33.446Z</time></trkpt><trkpt lat="42.9619891" lon="11.6147282"><ele>693.2</ele><time>2026-04-09T09:22:34.439Z</time></trkpt><trkpt lat="42.9620245" lon="11.6148611"><ele>692.8000000000001</ele><time>2026-04-09T09:22:35.449Z</time></trkpt><trkpt lat="42.962075" lon="11.6149911"><ele>692.4000000000001</ele><time>2026-04-09T09:22:36.444Z</time></trkpt><trkpt lat="42.9621314" lon="11.6151029"><ele>692.0</ele><time>2026-04-09T09:22:37.44Z</time></trkpt><trkpt lat="42.9621811" lon="11.6152138"><ele>691.6666666666666</ele><time>2026-04-09T09:22:38.434Z</time></trkpt><trkpt lat="42.9622104" lon="11.6153289"><ele>691.3333333333333</ele><time>2026-04-09T09:22:39.44Z</time></trkpt><trkpt lat="42.962224" lon="11.6154413"><ele>691.0</ele><time>2026-04-09T09:22:40.433Z</time></trkpt><trkpt lat="42.9622215" lon="11.6155472"><ele>690.6666666666666</ele><time>2026-04-09T09:22:41.444Z</time></trkpt><trkpt lat="42.9622082" lon="11.6156493"><ele>690.3333333333334</ele><time>2026-04-09T09:22:42.443Z</time></trkpt><trkpt lat="42.9621895" lon="11.6157388"><ele>690.0</ele><time>2026-04-09T09:22:43.435Z</time></trkpt><trkpt lat="42.9621734" lon="11.6158621"><ele>690.0</ele><time>2026-04-09T09:22:45.441Z</time></trkpt><trkpt lat="42.9621791" lon="11.6159504"><ele>690.0</ele><time>2026-04-09T09:23:16.434Z</time></trkpt><trkpt lat="42.9622422" lon="11.6161079"><ele>690.0</ele><time>2026-04-09T09:24:02.409Z</time></trkpt><trkpt lat="42.9623029" lon="11.6162283"><ele>690.0</ele><time>2026-04-09T09:24:04.422Z</time></trkpt><trkpt lat="42.962323" lon="11.6163403"><ele>690.0</ele><time>2026-04-09T09:25:15.435Z</time></trkpt><trkpt lat="42.9623402" lon="11.6164309"><ele>688.8333333333334</ele><time>2026-04-09T09:25:19.433Z</time></trkpt><trkpt lat="42.9623973" lon="11.6165296"><ele>687.6666666666666</ele><time>2026-04-09T09:25:22.427Z</time></trkpt><trkpt lat="42.9625049" lon="11.6165597"><ele>686.5</ele><time>2026-04-09T09:25:24.433Z</time></trkpt><trkpt lat="42.9625677" lon="11.6165778"><ele>685.3333333333333</ele><time>2026-04-09T09:25:25.434Z</time></trkpt><trkpt lat="42.9626328" lon="11.6165855"><ele>684.1666666666666</ele><time>2026-04-09T09:25:26.436Z</time></trkpt><trkpt lat="42.9627493" lon="11.6165737"><ele>683.0</ele><time>2026-04-09T09:25:28.434Z</time></trkpt><trkpt lat="42.9628172" lon="11.616558"><ele>681.8333333333333</ele><time>2026-04-09T09:25:29.443Z</time></trkpt><trkpt lat="42.9629006" lon="11.6165337"><ele>680.6666666666666</ele><time>2026-04-09T09:25:30.447Z</time></trkpt><trkpt lat="42.9629771" lon="11.6165033"><ele>679.5</ele><time>2026-04-09T09:25:31.42Z</time></trkpt><trkpt lat="42.9630518" lon="11.6164621"><ele>678.3333333333334</ele><time>2026-04-09T09:25:32.445Z</time></trkpt><trkpt lat="42.9631305" lon="11.6164217"><ele>677.1666666666667</ele><time>2026-04-09T09:25:33.443Z</time></trkpt><trkpt lat="42.9632248" lon="11.6163878"><ele>676.0</ele><time>2026-04-09T09:25:34.436Z</time></trkpt><trkpt lat="42.9633161" lon="11.616352"><ele>675.0</ele><time>2026-04-09T09:25:35.439Z</time></trkpt><trkpt lat="42.9633979" lon="11.6163237"><ele>674.0</ele><time>2026-04-09T09:25:36.435Z</time></trkpt><trkpt lat="42.9634798" lon="11.6163062"><ele>673.0</ele><time>2026-04-09T09:25:37.427Z</time></trkpt><trkpt lat="42.9635664" lon="11.6162849"><ele>672.0</ele><time>2026-04-09T09:25:38.44Z</time></trkpt><trkpt lat="42.9636716" lon="11.6162691"><ele>671.0</ele><time>2026-04-09T09:25:39.436Z</time></trkpt><trkpt lat="42.9637838" lon="11.6162536"><ele>671.0</ele><time>2026-04-09T09:25:40.436Z</time></trkpt><trkpt lat="42.9639029" lon="11.6162379"><ele>671.0</ele><time>2026-04-09T09:25:41.44Z</time></trkpt><trkpt lat="42.9640016" lon="11.6162236"><ele>671.0</ele><time>2026-04-09T09:25:42.434Z</time></trkpt><trkpt lat="42.9640788" lon="11.616208"><ele>671.0</ele><time>2026-04-09T09:25:43.44Z</time></trkpt><trkpt lat="42.9641518" lon="11.616174"><ele>671.0</ele><time>2026-04-09T09:25:44.463Z</time></trkpt><trkpt lat="42.9642291" lon="11.616154"><ele>671.5</ele><time>2026-04-09T09:25:45.435Z</time></trkpt><trkpt lat="42.964305" lon="11.6161264"><ele>672.0</ele><time>2026-04-09T09:25:46.438Z</time></trkpt><trkpt lat="42.9643774" lon="11.6161071"><ele>672.5</ele><time>2026-04-09T09:25:47.438Z</time></trkpt><trkpt lat="42.9644544" lon="11.6160797"><ele>673.0</ele><time>2026-04-09T09:25:48.465Z</time></trkpt><trkpt lat="42.9645375" lon="11.6160516"><ele>673.5</ele><time>2026-04-09T09:25:49.449Z</time></trkpt><trkpt lat="42.9646235" lon="11.615998"><ele>674.0</ele><time>2026-04-09T09:25:50.439Z</time></trkpt><trkpt lat="42.9646997" lon="11.6159424"><ele>674.0</ele><time>2026-04-09T09:25:51.434Z</time></trkpt><trkpt lat="42.9647779" lon="11.6158946"><ele>674.0</ele><time>2026-04-09T09:25:52.429Z</time></trkpt><trkpt lat="42.9648577" lon="11.615849"><ele>674.0</ele><time>2026-04-09T09:25:53.423Z</time></trkpt><trkpt lat="42.9649474" lon="11.6158251"><ele>674.0</ele><time>2026-04-09T09:25:54.436Z</time></trkpt><trkpt lat="42.9650372" lon="11.6158159"><ele>674.0</ele><time>2026-04-09T09:25:55.429Z</time></trkpt><trkpt lat="42.9651164" lon="11.6158161"><ele>674.0</ele><time>2026-04-09T09:25:56.435Z</time></trkpt><trkpt lat="42.965197" lon="11.6158275"><ele>672.5</ele><time>2026-04-09T09:25:57.45Z</time></trkpt><trkpt lat="42.9652815" lon="11.6158544"><ele>671.0</ele><time>2026-04-09T09:25:58.461Z</time></trkpt><trkpt lat="42.9653767" lon="11.615886"><ele>669.5</ele><time>2026-04-09T09:25:59.46Z</time></trkpt><trkpt lat="42.9654611" lon="11.61591"><ele>668.0</ele><time>2026-04-09T09:26:00.438Z</time></trkpt><trkpt lat="42.9655326" lon="11.6159235"><ele>666.5</ele><time>2026-04-09T09:26:01.437Z</time></trkpt><trkpt lat="42.9656014" lon="11.6159257"><ele>665.0</ele><time>2026-04-09T09:26:02.481Z</time></trkpt><trkpt lat="42.965676" lon="11.6159287"><ele>665.0</ele><time>2026-04-09T09:26:03.468Z</time></trkpt><trkpt lat="42.9657423" lon="11.6159371"><ele>665.0</ele><time>2026-04-09T09:26:04.451Z</time></trkpt><trkpt lat="42.9658062" lon="11.6159593"><ele>665.0</ele><time>2026-04-09T09:26:05.447Z</time></trkpt><trkpt lat="42.9658655" lon="11.6159938"><ele>665.0</ele><time>2026-04-09T09:26:06.437Z</time></trkpt><trkpt lat="42.9659228" lon="11.6160361"><ele>665.0</ele><time>2026-04-09T09:26:07.429Z</time></trkpt><trkpt lat="42.965974" lon="11.6160877"><ele>665.0</ele><time>2026-04-09T09:26:08.435Z</time></trkpt><trkpt lat="42.9660696" lon="11.6162019"><ele>664.0</ele><time>2026-04-09T09:26:10.429Z</time></trkpt><trkpt lat="42.9661193" lon="11.6162639"><ele>663.0</ele><time>2026-04-09T09:26:11.446Z</time></trkpt><trkpt lat="42.9661786" lon="11.6163264"><ele>662.0</ele><time>2026-04-09T09:26:12.454Z</time></trkpt><trkpt lat="42.9662455" lon="11.6164046"><ele>661.0</ele><time>2026-04-09T09:26:13.428Z</time></trkpt><trkpt lat="42.9663137" lon="11.6164811"><ele>660.0</ele><time>2026-04-09T09:26:14.459Z</time></trkpt><trkpt lat="42.966375" lon="11.6165468"><ele>659.0</ele><time>2026-04-09T09:26:15.443Z</time></trkpt><trkpt lat="42.9664291" lon="11.6166044"><ele>659.0</ele><time>2026-04-09T09:26:16.46Z</time></trkpt><trkpt lat="42.9665271" lon="11.6166842"><ele>659.0</ele><time>2026-04-09T09:26:18.444Z</time></trkpt><trkpt lat="42.9666455" lon="11.6167306"><ele>659.0</ele><time>2026-04-09T09:26:20.447Z</time></trkpt><trkpt lat="42.9667245" lon="11.6167401"><ele>659.0</ele><time>2026-04-09T09:26:21.452Z</time></trkpt><trkpt lat="42.9668259" lon="11.6167498"><ele>659.0</ele><time>2026-04-09T09:26:22.468Z</time></trkpt><trkpt lat="42.9669353" lon="11.6167363"><ele>659.2</ele><time>2026-04-09T09:26:23.468Z</time></trkpt><trkpt lat="42.967039" lon="11.616715"><ele>659.4000000000001</ele><time>2026-04-09T09:26:24.439Z</time></trkpt><trkpt lat="42.9671521" lon="11.6166938"><ele>659.6</ele><time>2026-04-09T09:26:25.44Z</time></trkpt><trkpt lat="42.9672583" lon="11.616674"><ele>659.8</ele><time>2026-04-09T09:26:26.434Z</time></trkpt><trkpt lat="42.9673469" lon="11.616648"><ele>660.0</ele><time>2026-04-09T09:26:27.431Z</time></trkpt><trkpt lat="42.9674411" lon="11.616609"><ele>661.0</ele><time>2026-04-09T09:26:28.431Z</time></trkpt><trkpt lat="42.9675354" lon="11.616579"><ele>662.0</ele><time>2026-04-09T09:26:29.43Z</time></trkpt><trkpt lat="42.9676205" lon="11.6165671"><ele>663.0</ele><time>2026-04-09T09:26:30.44Z</time></trkpt><trkpt lat="42.9676834" lon="11.6165627"><ele>664.0</ele><time>2026-04-09T09:26:31.434Z</time></trkpt><trkpt lat="42.9677611" lon="11.6165773"><ele>665.0</ele><time>2026-04-09T09:26:33.441Z</time></trkpt><trkpt lat="42.9678025" lon="11.6166801"><ele>666.0</ele><time>2026-04-09T09:26:45.439Z</time></trkpt><trkpt lat="42.9678296" lon="11.6167662"><ele>666.0</ele><time>2026-04-09T09:26:47.438Z</time></trkpt><trkpt lat="42.967863" lon="11.6168981"><ele>666.0</ele><time>2026-04-09T09:26:49.44Z</time></trkpt><trkpt lat="42.9679004" lon="11.6170527"><ele>666.0</ele><time>2026-04-09T09:26:51.443Z</time></trkpt><trkpt lat="42.9679196" lon="11.6171375"><ele>666.0</ele><time>2026-04-09T09:26:52.431Z</time></trkpt><trkpt lat="42.9679673" lon="11.6172845"><ele>666.0</ele><time>2026-04-09T09:26:54.432Z</time></trkpt><trkpt lat="42.9680108" lon="11.6174218"><ele>664.8</ele><time>2026-04-09T09:26:56.437Z</time></trkpt><trkpt lat="42.9680686" lon="11.6175488"><ele>663.5999999999999</ele><time>2026-04-09T09:26:58.44Z</time></trkpt><trkpt lat="42.9681517" lon="11.6176336"><ele>662.4</ele><time>2026-04-09T09:27:00.44Z</time></trkpt><trkpt lat="42.9682347" lon="11.617691"><ele>661.2</ele><time>2026-04-09T09:27:02.442Z</time></trkpt><trkpt lat="42.9683183" lon="11.6177504"><ele>660.0</ele><time>2026-04-09T09:27:04.435Z</time></trkpt><trkpt lat="42.9684118" lon="11.6178159"><ele>657.7142857142858</ele><time>2026-04-09T09:27:06.431Z</time></trkpt><trkpt lat="42.9684692" lon="11.6178615"><ele>655.4285714285714</ele><time>2026-04-09T09:27:07.445Z</time></trkpt><trkpt lat="42.968529" lon="11.6178972"><ele>653.1428571428571</ele><time>2026-04-09T09:27:08.434Z</time></trkpt><trkpt lat="42.9685877" lon="11.6179433"><ele>650.8571428571429</ele><time>2026-04-09T09:27:09.443Z</time></trkpt><trkpt lat="42.9686444" lon="11.6179869"><ele>648.5714285714286</ele><time>2026-04-09T09:27:10.435Z</time></trkpt><trkpt lat="42.9687002" lon="11.6180326"><ele>646.2857142857143</ele><time>2026-04-09T09:27:11.443Z</time></trkpt><trkpt lat="42.9687529" lon="11.6180877"><ele>644.0</ele><time>2026-04-09T09:27:12.435Z</time></trkpt><trkpt lat="42.9688158" lon="11.618143"><ele>644.0</ele><time>2026-04-09T09:27:13.44Z</time></trkpt><trkpt lat="42.9688831" lon="11.6182016"><ele>644.0</ele><time>2026-04-09T09:27:14.436Z</time></trkpt><trkpt lat="42.9689453" lon="11.618259"><ele>644.0</ele><time>2026-04-09T09:27:15.441Z</time></trkpt><trkpt lat="42.9690022" lon="11.6183082"><ele>644.0</ele><time>2026-04-09T09:27:16.434Z</time></trkpt><trkpt lat="42.9691496" lon="11.618467"><ele>644.0</ele><time>2026-04-09T09:27:19.438Z</time></trkpt><trkpt lat="42.9691861" lon="11.6185459"><ele>645.3333333333333</ele><time>2026-04-09T09:27:20.438Z</time></trkpt><trkpt lat="42.969222" lon="11.618622"><ele>646.6666666666666</ele><time>2026-04-09T09:27:21.441Z</time></trkpt><trkpt lat="42.9692783" lon="11.6187757"><ele>648.0</ele><time>2026-04-09T09:27:23.44Z</time></trkpt><trkpt lat="42.9693096" lon="11.6188532"><ele>649.3333333333334</ele><time>2026-04-09T09:27:24.433Z</time></trkpt><trkpt lat="42.9693414" lon="11.6189368"><ele>650.6666666666667</ele><time>2026-04-09T09:27:25.441Z</time></trkpt><trkpt lat="42.9693742" lon="11.619022"><ele>652.0</ele><time>2026-04-09T09:27:26.439Z</time></trkpt><trkpt lat="42.9694083" lon="11.6191052"><ele>648.2</ele><time>2026-04-09T09:27:27.427Z</time></trkpt><trkpt lat="42.9694466" lon="11.6191757"><ele>644.4000000000001</ele><time>2026-04-09T09:27:28.445Z</time></trkpt><trkpt lat="42.9695128" lon="11.6192992"><ele>640.5999999999999</ele><time>2026-04-09T09:27:30.431Z</time></trkpt><trkpt lat="42.9695729" lon="11.6194239"><ele>636.8</ele><time>2026-04-09T09:27:32.43Z</time></trkpt><trkpt lat="42.9696056" lon="11.6195444"><ele>633.0</ele><time>2026-04-09T09:27:34.432Z</time></trkpt><trkpt lat="42.9695656" lon="11.6196931"><ele>631.0</ele><time>2026-04-09T09:27:36.434Z</time></trkpt><trkpt lat="42.9695112" lon="11.6197537"><ele>629.0</ele><time>2026-04-09T09:27:37.436Z</time></trkpt><trkpt lat="42.9694557" lon="11.6198151"><ele>627.0</ele><time>2026-04-09T09:27:38.433Z</time></trkpt><trkpt lat="42.9693984" lon="11.6198736"><ele>625.0</ele><time>2026-04-09T09:27:39.437Z</time></trkpt><trkpt lat="42.9693325" lon="11.6199395"><ele>623.0</ele><time>2026-04-09T09:27:40.437Z</time></trkpt><trkpt lat="42.9692702" lon="11.6200104"><ele>621.0</ele><time>2026-04-09T09:27:41.429Z</time></trkpt><trkpt lat="42.9692092" lon="11.6200855"><ele>620.6666666666666</ele><time>2026-04-09T09:27:42.44Z</time></trkpt><trkpt lat="42.9691477" lon="11.6201713"><ele>620.3333333333334</ele><time>2026-04-09T09:27:43.43Z</time></trkpt><trkpt lat="42.9690783" lon="11.6202503"><ele>620.0</ele><time>2026-04-09T09:27:44.432Z</time></trkpt><trkpt lat="42.9690151" lon="11.6203167"><ele>619.6666666666667</ele><time>2026-04-09T09:27:45.439Z</time></trkpt><trkpt lat="42.9689504" lon="11.6203848"><ele>619.3333333333334</ele><time>2026-04-09T09:27:46.432Z</time></trkpt><trkpt lat="42.9689003" lon="11.6204624"><ele>619.0</ele><time>2026-04-09T09:27:47.441Z</time></trkpt><trkpt lat="42.9688741" lon="11.6205416"><ele>617.0</ele><time>2026-04-09T09:27:48.438Z</time></trkpt><trkpt lat="42.9688611" lon="11.62063"><ele>615.0</ele><time>2026-04-09T09:27:49.431Z</time></trkpt><trkpt lat="42.9688638" lon="11.6207207"><ele>613.0</ele><time>2026-04-09T09:27:50.438Z</time></trkpt><trkpt lat="42.9688833" lon="11.6208113"><ele>611.0</ele><time>2026-04-09T09:27:51.438Z</time></trkpt><trkpt lat="42.9689185" lon="11.6208993"><ele>609.0</ele><time>2026-04-09T09:27:52.434Z</time></trkpt><trkpt lat="42.9689509" lon="11.6209885"><ele>607.0</ele><time>2026-04-09T09:27:53.442Z</time></trkpt><trkpt lat="42.968973" lon="11.6210701"><ele>605.0</ele><time>2026-04-09T09:27:54.447Z</time></trkpt><trkpt lat="42.9690153" lon="11.621216"><ele>602.6</ele><time>2026-04-09T09:27:56.445Z</time></trkpt><trkpt lat="42.9690756" lon="11.6213385"><ele>600.2</ele><time>2026-04-09T09:27:58.456Z</time></trkpt><trkpt lat="42.9691712" lon="11.621415"><ele>597.8</ele><time>2026-04-09T09:28:00.443Z</time></trkpt><trkpt lat="42.969254" lon="11.6214921"><ele>595.4</ele><time>2026-04-09T09:28:02.441Z</time></trkpt><trkpt lat="42.969264" lon="11.6216225"><ele>593.0</ele><time>2026-04-09T09:28:04.438Z</time></trkpt><trkpt lat="42.9691956" lon="11.6217528"><ele>592.6666666666666</ele><time>2026-04-09T09:28:06.436Z</time></trkpt><trkpt lat="42.9691518" lon="11.62183"><ele>592.3333333333333</ele><time>2026-04-09T09:28:07.434Z</time></trkpt><trkpt lat="42.9691106" lon="11.6219171"><ele>592.0</ele><time>2026-04-09T09:28:08.44Z</time></trkpt><trkpt lat="42.9690802" lon="11.6220039"><ele>591.6666666666666</ele><time>2026-04-09T09:28:09.44Z</time></trkpt><trkpt lat="42.969062" lon="11.6220935"><ele>591.3333333333334</ele><time>2026-04-09T09:28:10.438Z</time></trkpt><trkpt lat="42.9690848" lon="11.6222586"><ele>591.0</ele><time>2026-04-09T09:28:12.436Z</time></trkpt><trkpt lat="42.9691128" lon="11.6223372"><ele>589.0</ele><time>2026-04-09T09:28:13.462Z</time></trkpt><trkpt lat="42.9692134" lon="11.6224238"><ele>587.0</ele><time>2026-04-09T09:28:15.464Z</time></trkpt><trkpt lat="42.9693254" lon="11.6223913"><ele>585.0</ele><time>2026-04-09T09:28:17.435Z</time></trkpt><trkpt lat="42.9693867" lon="11.622359"><ele>583.0</ele><time>2026-04-09T09:28:18.434Z</time></trkpt><trkpt lat="42.9694563" lon="11.6223341"><ele>581.0</ele><time>2026-04-09T09:28:19.435Z</time></trkpt><trkpt lat="42.9695277" lon="11.6223251"><ele>579.0</ele><time>2026-04-09T09:28:20.433Z</time></trkpt><trkpt lat="42.9695984" lon="11.6223489"><ele>579.0</ele><time>2026-04-09T09:28:21.431Z</time></trkpt><trkpt lat="42.9696601" lon="11.6223924"><ele>579.0</ele><time>2026-04-09T09:28:22.431Z</time></trkpt><trkpt lat="42.9697126" lon="11.6224402"><ele>579.0</ele><time>2026-04-09T09:28:23.425Z</time></trkpt><trkpt lat="42.9697535" lon="11.6225087"><ele>579.0</ele><time>2026-04-09T09:28:24.462Z</time></trkpt><trkpt lat="42.9697715" lon="11.6226827"><ele>579.0</ele><time>2026-04-09T09:28:26.429Z</time></trkpt><trkpt lat="42.9697757" lon="11.6227784"><ele>579.0</ele><time>2026-04-09T09:28:27.456Z</time></trkpt><trkpt lat="42.9697904" lon="11.6228867"><ele>577.5</ele><time>2026-04-09T09:28:28.449Z</time></trkpt><trkpt lat="42.969807" lon="11.6229939"><ele>576.0</ele><time>2026-04-09T09:28:29.438Z</time></trkpt><trkpt lat="42.9698142" lon="11.6230946"><ele>574.5</ele><time>2026-04-09T09:28:30.434Z</time></trkpt><trkpt lat="42.9698091" lon="11.6231953"><ele>573.0</ele><time>2026-04-09T09:28:31.455Z</time></trkpt><trkpt lat="42.9698119" lon="11.6232978"><ele>571.5</ele><time>2026-04-09T09:28:32.436Z</time></trkpt><trkpt lat="42.969825" lon="11.6234099"><ele>570.0</ele><time>2026-04-09T09:28:33.439Z</time></trkpt><trkpt lat="42.9698477" lon="11.6235131"><ele>570.0</ele><time>2026-04-09T09:28:34.43Z</time></trkpt><trkpt lat="42.9698798" lon="11.6236141"><ele>570.0</ele><time>2026-04-09T09:28:35.442Z</time></trkpt><trkpt lat="42.9698993" lon="11.6237111"><ele>570.0</ele><time>2026-04-09T09:28:36.457Z</time></trkpt><trkpt lat="42.9699057" lon="11.6238113"><ele>570.0</ele><time>2026-04-09T09:28:37.436Z</time></trkpt><trkpt lat="42.9699104" lon="11.6239207"><ele>570.0</ele><time>2026-04-09T09:28:38.46Z</time></trkpt><trkpt lat="42.969923" lon="11.6240251"><ele>570.0</ele><time>2026-04-09T09:28:39.435Z</time></trkpt><trkpt lat="42.9699412" lon="11.6241297"><ele>571.4</ele><time>2026-04-09T09:28:40.428Z</time></trkpt><trkpt lat="42.9699833" lon="11.6242271"><ele>572.8</ele><time>2026-04-09T09:28:41.442Z</time></trkpt><trkpt lat="42.9700337" lon="11.6243174"><ele>574.2</ele><time>2026-04-09T09:28:42.435Z</time></trkpt><trkpt lat="42.9701015" lon="11.6244258"><ele>575.6</ele><time>2026-04-09T09:28:43.424Z</time></trkpt><trkpt lat="42.9701796" lon="11.6245295"><ele>577.0</ele><time>2026-04-09T09:28:44.438Z</time></trkpt><trkpt lat="42.97026" lon="11.6246248"><ele>577.0</ele><time>2026-04-09T09:28:45.429Z</time></trkpt><trkpt lat="42.9703425" lon="11.6247401"><ele>577.0</ele><time>2026-04-09T09:28:46.421Z</time></trkpt><trkpt lat="42.9703958" lon="11.6248765"><ele>577.0</ele><time>2026-04-09T09:28:47.509Z</time></trkpt><trkpt lat="42.970423" lon="11.6250013"><ele>577.0</ele><time>2026-04-09T09:28:48.432Z</time></trkpt><trkpt lat="42.9704459" lon="11.6251305"><ele>577.0</ele><time>2026-04-09T09:28:49.433Z</time></trkpt><trkpt lat="42.9704505" lon="11.6252608"><ele>575.8000000000001</ele><time>2026-04-09T09:28:50.431Z</time></trkpt><trkpt lat="42.9704471" lon="11.6253716"><ele>574.6</ele><time>2026-04-09T09:28:51.431Z</time></trkpt><trkpt lat="42.9704392" lon="11.6254651"><ele>573.4000000000001</ele><time>2026-04-09T09:28:52.432Z</time></trkpt><trkpt lat="42.9704392" lon="11.6256066"><ele>572.2</ele><time>2026-04-09T09:28:54.435Z</time></trkpt><trkpt lat="42.9704711" lon="11.6257361"><ele>571.0</ele><time>2026-04-09T09:28:56.438Z</time></trkpt><trkpt lat="42.9705458" lon="11.6258484"><ele>571.0</ele><time>2026-04-09T09:28:58.438Z</time></trkpt><trkpt lat="42.9706153" lon="11.6259633"><ele>571.0</ele><time>2026-04-09T09:29:00.429Z</time></trkpt><trkpt lat="42.9706946" lon="11.6260981"><ele>571.0</ele><time>2026-04-09T09:29:02.431Z</time></trkpt><trkpt lat="42.9707268" lon="11.6262555"><ele>571.0</ele><time>2026-04-09T09:29:04.43Z</time></trkpt><trkpt lat="42.9707535" lon="11.6263876"><ele>567.4</ele><time>2026-04-09T09:29:06.42Z</time></trkpt><trkpt lat="42.9707526" lon="11.6265243"><ele>563.8</ele><time>2026-04-09T09:29:08.435Z</time></trkpt><trkpt lat="42.9707355" lon="11.6266666"><ele>560.1999999999999</ele><time>2026-04-09T09:29:10.435Z</time></trkpt><trkpt lat="42.9707228" lon="11.6268101"><ele>556.6</ele><time>2026-04-09T09:29:12.429Z</time></trkpt><trkpt lat="42.9707098" lon="11.6269663"><ele>553.0</ele><time>2026-04-09T09:29:14.435Z</time></trkpt><trkpt lat="42.9707146" lon="11.6271122"><ele>550.1999999999999</ele><time>2026-04-09T09:29:16.437Z</time></trkpt><trkpt lat="42.9707177" lon="11.6272548"><ele>547.4</ele><time>2026-04-09T09:29:18.429Z</time></trkpt><trkpt lat="42.9707365" lon="11.6274128"><ele>544.5999999999999</ele><time>2026-04-09T09:29:20.436Z</time></trkpt><trkpt lat="42.9707581" lon="11.6275101"><ele>541.8</ele><time>2026-04-09T09:29:21.423Z</time></trkpt><trkpt lat="42.9707911" lon="11.6276135"><ele>539.0</ele><time>2026-04-09T09:29:22.455Z</time></trkpt><trkpt lat="42.9708295" lon="11.6277089"><ele>543.5714285714286</ele><time>2026-04-09T09:29:23.437Z</time></trkpt><trkpt lat="42.970871" lon="11.6277924"><ele>548.1428571428571</ele><time>2026-04-09T09:29:24.449Z</time></trkpt><trkpt lat="42.9709117" lon="11.6278745"><ele>552.7142857142858</ele><time>2026-04-09T09:29:25.437Z</time></trkpt><trkpt lat="42.9709487" lon="11.6279605"><ele>557.2857142857142</ele><time>2026-04-09T09:29:26.432Z</time></trkpt><trkpt lat="42.9709718" lon="11.6280525"><ele>561.8571428571429</ele><time>2026-04-09T09:29:27.43Z</time></trkpt><trkpt lat="42.9709839" lon="11.6281413"><ele>566.4285714285714</ele><time>2026-04-09T09:29:28.438Z</time></trkpt><trkpt lat="42.9709926" lon="11.6282335"><ele>571.0</ele><time>2026-04-09T09:29:29.436Z</time></trkpt><trkpt lat="42.9709937" lon="11.6283319"><ele>571.0</ele><time>2026-04-09T09:29:30.431Z</time></trkpt><trkpt lat="42.9709935" lon="11.6284398"><ele>571.0</ele><time>2026-04-09T09:29:31.436Z</time></trkpt><trkpt lat="42.9709954" lon="11.6285342"><ele>571.0</ele><time>2026-04-09T09:29:32.437Z</time></trkpt><trkpt lat="42.9709973" lon="11.6286935"><ele>571.0</ele><time>2026-04-09T09:29:34.438Z</time></trkpt><trkpt lat="42.9710049" lon="11.6288474"><ele>571.0</ele><time>2026-04-09T09:29:36.435Z</time></trkpt><trkpt lat="42.9709749" lon="11.6289634"><ele>570.0</ele><time>2026-04-09T09:29:38.435Z</time></trkpt><trkpt lat="42.9709328" lon="11.6290509"><ele>569.0</ele><time>2026-04-09T09:29:40.444Z</time></trkpt><trkpt lat="42.9709304" lon="11.6291392"><ele>568.0</ele><time>2026-04-09T09:29:56.435Z</time></trkpt><trkpt lat="42.9709064" lon="11.6292334"><ele>567.0</ele><time>2026-04-09T09:30:13.438Z</time></trkpt><trkpt lat="42.9709257" lon="11.6293538"><ele>566.0</ele><time>2026-04-09T09:30:15.436Z</time></trkpt><trkpt lat="42.9709358" lon="11.6295155"><ele>565.0</ele><time>2026-04-09T09:30:17.445Z</time></trkpt><trkpt lat="42.9709383" lon="11.6296196"><ele>563.7142857142857</ele><time>2026-04-09T09:30:18.441Z</time></trkpt><trkpt lat="42.9709411" lon="11.6297208"><ele>562.4285714285714</ele><time>2026-04-09T09:30:19.444Z</time></trkpt><trkpt lat="42.9709293" lon="11.6298131"><ele>561.1428571428571</ele><time>2026-04-09T09:30:20.435Z</time></trkpt><trkpt lat="42.9708989" lon="11.6298917"><ele>559.8571428571429</ele><time>2026-04-09T09:30:21.437Z</time></trkpt><trkpt lat="42.97085" lon="11.6299623"><ele>558.5714285714286</ele><time>2026-04-09T09:30:22.436Z</time></trkpt><trkpt lat="42.9707753" lon="11.630004"><ele>557.2857142857142</ele><time>2026-04-09T09:30:23.438Z</time></trkpt><trkpt lat="42.9706982" lon="11.6300122"><ele>556.0</ele><time>2026-04-09T09:30:24.439Z</time></trkpt><trkpt lat="42.9706219" lon="11.6300101"><ele>550.6666666666667</ele><time>2026-04-09T09:30:25.44Z</time></trkpt><trkpt lat="42.9705419" lon="11.6299997"><ele>545.3333333333334</ele><time>2026-04-09T09:30:26.44Z</time></trkpt><trkpt lat="42.9704704" lon="11.6299775"><ele>540.0</ele><time>2026-04-09T09:30:27.44Z</time></trkpt><trkpt lat="42.9704028" lon="11.6299451"><ele>534.6666666666666</ele><time>2026-04-09T09:30:28.439Z</time></trkpt><trkpt lat="42.9703443" lon="11.6299127"><ele>529.3333333333333</ele><time>2026-04-09T09:30:29.446Z</time></trkpt><trkpt lat="42.9702615" lon="11.6298929"><ele>524.0</ele><time>2026-04-09T09:30:31.439Z</time></trkpt><trkpt lat="42.9702152" lon="11.6299843"><ele>524.0</ele><time>2026-04-09T09:30:33.441Z</time></trkpt><trkpt lat="42.9702001" lon="11.6301527"><ele>524.0</ele><time>2026-04-09T09:30:35.444Z</time></trkpt><trkpt lat="42.9702041" lon="11.6302733"><ele>524.0</ele><time>2026-04-09T09:30:36.434Z</time></trkpt><trkpt lat="42.9702111" lon="11.6304086"><ele>524.0</ele><time>2026-04-09T09:30:37.442Z</time></trkpt><trkpt lat="42.9702111" lon="11.6305416"><ele>524.0</ele><time>2026-04-09T09:30:38.44Z</time></trkpt><trkpt lat="42.9702129" lon="11.6306737"><ele>522.2</ele><time>2026-04-09T09:30:39.467Z</time></trkpt><trkpt lat="42.9702219" lon="11.6308016"><ele>520.4</ele><time>2026-04-09T09:30:40.445Z</time></trkpt><trkpt lat="42.9702389" lon="11.6309297"><ele>518.6</ele><time>2026-04-09T09:30:41.437Z</time></trkpt><trkpt lat="42.9702482" lon="11.6310605"><ele>516.8</ele><time>2026-04-09T09:30:42.462Z</time></trkpt><trkpt lat="42.9702429" lon="11.6311798"><ele>515.0</ele><time>2026-04-09T09:30:43.44Z</time></trkpt><trkpt lat="42.9702281" lon="11.6312909"><ele>514.5</ele><time>2026-04-09T09:30:44.432Z</time></trkpt><trkpt lat="42.9702245" lon="11.6314105"><ele>514.0</ele><time>2026-04-09T09:30:45.442Z</time></trkpt><trkpt lat="42.9702248" lon="11.6315323"><ele>513.5</ele><time>2026-04-09T09:30:46.436Z</time></trkpt><trkpt lat="42.9702345" lon="11.6316413"><ele>513.0</ele><time>2026-04-09T09:30:47.445Z</time></trkpt><trkpt lat="42.9702534" lon="11.6317412"><ele>512.5</ele><time>2026-04-09T09:30:48.445Z</time></trkpt><trkpt lat="42.9702775" lon="11.631837"><ele>512.0</ele><time>2026-04-09T09:30:49.436Z</time></trkpt><trkpt lat="42.9702966" lon="11.6319333"><ele>511.0</ele><time>2026-04-09T09:30:50.443Z</time></trkpt><trkpt lat="42.970318" lon="11.6320422"><ele>510.00000000000006</ele><time>2026-04-09T09:30:51.443Z</time></trkpt><trkpt lat="42.970343" lon="11.6321584"><ele>509.00000000000006</ele><time>2026-04-09T09:30:52.445Z</time></trkpt><trkpt lat="42.9703761" lon="11.6322753"><ele>508.0</ele><time>2026-04-09T09:30:53.438Z</time></trkpt><trkpt lat="42.9704313" lon="11.632401"><ele>507.0</ele><time>2026-04-09T09:30:54.437Z</time></trkpt><trkpt lat="42.9705072" lon="11.632528"><ele>507.0</ele><time>2026-04-09T09:30:55.446Z</time></trkpt><trkpt lat="42.9705848" lon="11.6326382"><ele>507.00000000000006</ele><time>2026-04-09T09:30:56.459Z</time></trkpt><trkpt lat="42.9706488" lon="11.63274"><ele>507.00000000000006</ele><time>2026-04-09T09:30:57.444Z</time></trkpt><trkpt lat="42.9706868" lon="11.6328455"><ele>507.0</ele><time>2026-04-09T09:30:58.462Z</time></trkpt><trkpt lat="42.9707047" lon="11.6329629"><ele>507.0</ele><time>2026-04-09T09:30:59.445Z</time></trkpt><trkpt lat="42.9707066" lon="11.6330999"><ele>505.8</ele><time>2026-04-09T09:31:00.441Z</time></trkpt><trkpt lat="42.9707013" lon="11.6332289"><ele>504.6</ele><time>2026-04-09T09:31:01.441Z</time></trkpt><trkpt lat="42.9706901" lon="11.6333449"><ele>503.40000000000003</ele><time>2026-04-09T09:31:02.451Z</time></trkpt><trkpt lat="42.97069" lon="11.6334507"><ele>502.20000000000005</ele><time>2026-04-09T09:31:03.441Z</time></trkpt><trkpt lat="42.9706931" lon="11.6335422"><ele>501.0</ele><time>2026-04-09T09:31:04.442Z</time></trkpt><trkpt lat="42.9707285" lon="11.633708"><ele>499.3333333333333</ele><time>2026-04-09T09:31:06.439Z</time></trkpt><trkpt lat="42.9707623" lon="11.6338055"><ele>497.66666666666663</ele><time>2026-04-09T09:31:07.444Z</time></trkpt><trkpt lat="42.9708032" lon="11.63392"><ele>496.0</ele><time>2026-04-09T09:31:08.441Z</time></trkpt><trkpt lat="42.9708461" lon="11.6340389"><ele>494.3333333333333</ele><time>2026-04-09T09:31:09.445Z</time></trkpt><trkpt lat="42.9708902" lon="11.6341467"><ele>492.66666666666663</ele><time>2026-04-09T09:31:10.445Z</time></trkpt><trkpt lat="42.9709409" lon="11.6342361"><ele>491.0</ele><time>2026-04-09T09:31:11.447Z</time></trkpt><trkpt lat="42.9709949" lon="11.6343165"><ele>492.66666666666663</ele><time>2026-04-09T09:31:12.439Z</time></trkpt><trkpt lat="42.9710463" lon="11.6343969"><ele>494.3333333333333</ele><time>2026-04-09T09:31:13.446Z</time></trkpt><trkpt lat="42.9710876" lon="11.6344779"><ele>496.0</ele><time>2026-04-09T09:31:14.443Z</time></trkpt><trkpt lat="42.9711169" lon="11.6345713"><ele>497.66666666666663</ele><time>2026-04-09T09:31:15.438Z</time></trkpt><trkpt lat="42.971136" lon="11.6346927"><ele>499.3333333333333</ele><time>2026-04-09T09:31:16.464Z</time></trkpt><trkpt lat="42.9711473" lon="11.634825"><ele>501.0</ele><time>2026-04-09T09:31:17.443Z</time></trkpt><trkpt lat="42.9711465" lon="11.6349519"><ele>501.0</ele><time>2026-04-09T09:31:18.447Z</time></trkpt><trkpt lat="42.9711421" lon="11.6350646"><ele>501.0</ele><time>2026-04-09T09:31:19.441Z</time></trkpt><trkpt lat="42.9711366" lon="11.6351779"><ele>501.0</ele><time>2026-04-09T09:31:20.45Z</time></trkpt><trkpt lat="42.9711382" lon="11.6352914"><ele>501.0</ele><time>2026-04-09T09:31:21.44Z</time></trkpt><trkpt lat="42.9711351" lon="11.6353912"><ele>501.0</ele><time>2026-04-09T09:31:22.444Z</time></trkpt><trkpt lat="42.9711329" lon="11.6354838"><ele>501.0</ele><time>2026-04-09T09:31:23.446Z</time></trkpt><trkpt lat="42.9711369" lon="11.6356426"><ele>499.20000000000005</ele><time>2026-04-09T09:31:25.44Z</time></trkpt><trkpt lat="42.9711076" lon="11.6357388"><ele>497.40000000000003</ele><time>2026-04-09T09:31:26.44Z</time></trkpt><trkpt lat="42.9710675" lon="11.6358331"><ele>495.6</ele><time>2026-04-09T09:31:27.436Z</time></trkpt><trkpt lat="42.9710508" lon="11.636003"><ele>493.8</ele><time>2026-04-09T09:31:29.523Z</time></trkpt><trkpt lat="42.9711081" lon="11.6361447"><ele>492.0</ele><time>2026-04-09T09:31:31.438Z</time></trkpt><trkpt lat="42.971174" lon="11.6361784"><ele>490.8571428571429</ele><time>2026-04-09T09:31:32.441Z</time></trkpt><trkpt lat="42.9712398" lon="11.6362149"><ele>489.7142857142857</ele><time>2026-04-09T09:31:33.444Z</time></trkpt><trkpt lat="42.9713017" lon="11.636258"><ele>488.57142857142856</ele><time>2026-04-09T09:31:34.445Z</time></trkpt><trkpt lat="42.9713567" lon="11.6363179"><ele>487.42857142857144</ele><time>2026-04-09T09:31:35.444Z</time></trkpt><trkpt lat="42.9714051" lon="11.6363852"><ele>486.2857142857142</ele><time>2026-04-09T09:31:36.445Z</time></trkpt><trkpt lat="42.9714447" lon="11.6364612"><ele>485.1428571428571</ele><time>2026-04-09T09:31:37.442Z</time></trkpt><trkpt lat="42.9714837" lon="11.6365392"><ele>484.0</ele><time>2026-04-09T09:31:38.443Z</time></trkpt><trkpt lat="42.971515" lon="11.6366144"><ele>484.0</ele><time>2026-04-09T09:31:39.438Z</time></trkpt><trkpt lat="42.9715436" lon="11.6367754"><ele>484.0</ele><time>2026-04-09T09:31:41.444Z</time></trkpt><trkpt lat="42.971557" lon="11.6369508"><ele>484.0</ele><time>2026-04-09T09:31:43.45Z</time></trkpt><trkpt lat="42.9715626" lon="11.6370379"><ele>484.0</ele><time>2026-04-09T09:31:44.441Z</time></trkpt><trkpt lat="42.9715726" lon="11.6371956"><ele>484.0</ele><time>2026-04-09T09:31:46.438Z</time></trkpt><trkpt lat="42.9716092" lon="11.6373396"><ele>483.6666666666667</ele><time>2026-04-09T09:31:48.446Z</time></trkpt><trkpt lat="42.9716797" lon="11.6374648"><ele>483.33333333333337</ele><time>2026-04-09T09:31:50.445Z</time></trkpt><trkpt lat="42.9717413" lon="11.637528"><ele>483.0</ele><time>2026-04-09T09:31:51.437Z</time></trkpt><trkpt lat="42.9718111" lon="11.6375972"><ele>482.66666666666663</ele><time>2026-04-09T09:31:52.439Z</time></trkpt><trkpt lat="42.9718822" lon="11.6376626"><ele>482.3333333333333</ele><time>2026-04-09T09:31:53.427Z</time></trkpt><trkpt lat="42.971945" lon="11.6377402"><ele>482.0</ele><time>2026-04-09T09:31:54.448Z</time></trkpt><trkpt lat="42.9720047" lon="11.6378006"><ele>478.42857142857144</ele><time>2026-04-09T09:31:55.434Z</time></trkpt><trkpt lat="42.9720573" lon="11.6378689"><ele>474.8571428571429</ele><time>2026-04-09T09:31:56.441Z</time></trkpt><trkpt lat="42.9721104" lon="11.6379275"><ele>471.28571428571433</ele><time>2026-04-09T09:31:57.435Z</time></trkpt><trkpt lat="42.972172" lon="11.6379878"><ele>467.7142857142858</ele><time>2026-04-09T09:31:58.44Z</time></trkpt><trkpt lat="42.9722319" lon="11.6380463"><ele>464.14285714285717</ele><time>2026-04-09T09:31:59.438Z</time></trkpt><trkpt lat="42.9722915" lon="11.6381074"><ele>460.57142857142867</ele><time>2026-04-09T09:32:00.439Z</time></trkpt><trkpt lat="42.972354" lon="11.6381608"><ele>457.00000000000006</ele><time>2026-04-09T09:32:01.445Z</time></trkpt><trkpt lat="42.9724177" lon="11.6382196"><ele>457.0</ele><time>2026-04-09T09:32:02.44Z</time></trkpt><trkpt lat="42.9724856" lon="11.6382787"><ele>457.00000000000006</ele><time>2026-04-09T09:32:03.442Z</time></trkpt><trkpt lat="42.9725575" lon="11.6383395"><ele>457.00000000000006</ele><time>2026-04-09T09:32:04.459Z</time></trkpt><trkpt lat="42.9726287" lon="11.6384006"><ele>457.0</ele><time>2026-04-09T09:32:05.601Z</time></trkpt><trkpt lat="42.9727807" lon="11.6385255"><ele>457.0</ele><time>2026-04-09T09:32:07.441Z</time></trkpt><trkpt lat="42.9728606" lon="11.6385761"><ele>458.20000000000005</ele><time>2026-04-09T09:32:08.441Z</time></trkpt><trkpt lat="42.9729379" lon="11.6386055"><ele>459.40000000000003</ele><time>2026-04-09T09:32:09.443Z</time></trkpt><trkpt lat="42.9730232" lon="11.6386293"><ele>460.59999999999997</ele><time>2026-04-09T09:32:10.46Z</time></trkpt><trkpt lat="42.9731143" lon="11.6386393"><ele>461.79999999999995</ele><time>2026-04-09T09:32:11.444Z</time></trkpt><trkpt lat="42.9732113" lon="11.6386541"><ele>463.0</ele><time>2026-04-09T09:32:12.447Z</time></trkpt><trkpt lat="42.9733231" lon="11.6386785"><ele>459.83333333333337</ele><time>2026-04-09T09:32:13.446Z</time></trkpt><trkpt lat="42.9734161" lon="11.6387126"><ele>456.6666666666667</ele><time>2026-04-09T09:32:14.457Z</time></trkpt><trkpt lat="42.9735018" lon="11.6387524"><ele>453.5</ele><time>2026-04-09T09:32:15.47Z</time></trkpt><trkpt lat="42.9735751" lon="11.6387921"><ele>450.33333333333337</ele><time>2026-04-09T09:32:16.444Z</time></trkpt><trkpt lat="42.9736466" lon="11.6388415"><ele>447.1666666666667</ele><time>2026-04-09T09:32:17.447Z</time></trkpt><trkpt lat="42.9737147" lon="11.6389071"><ele>444.0</ele><time>2026-04-09T09:32:18.443Z</time></trkpt><trkpt lat="42.9737874" lon="11.6389862"><ele>444.0</ele><time>2026-04-09T09:32:19.442Z</time></trkpt><trkpt lat="42.9738557" lon="11.639048"><ele>444.0</ele><time>2026-04-09T09:32:20.452Z</time></trkpt><trkpt lat="42.9739219" lon="11.6390979"><ele>444.0</ele><time>2026-04-09T09:32:21.443Z</time></trkpt><trkpt lat="42.9739884" lon="11.6391386"><ele>444.0</ele><time>2026-04-09T09:32:22.443Z</time></trkpt><trkpt lat="42.9740618" lon="11.6391718"><ele>444.0</ele><time>2026-04-09T09:32:23.522Z</time></trkpt><trkpt lat="42.9741391" lon="11.6391948"><ele>444.0</ele><time>2026-04-09T09:32:24.47Z</time></trkpt><trkpt lat="42.9742264" lon="11.6392061"><ele>443.4</ele><time>2026-04-09T09:32:25.453Z</time></trkpt><trkpt lat="42.9742974" lon="11.6392035"><ele>442.79999999999995</ele><time>2026-04-09T09:32:26.448Z</time></trkpt><trkpt lat="42.9744202" lon="11.6391573"><ele>442.20000000000005</ele><time>2026-04-09T09:32:28.462Z</time></trkpt><trkpt lat="42.9745081" lon="11.6391667"><ele>441.6</ele><time>2026-04-09T09:32:30.442Z</time></trkpt><trkpt lat="42.9745561" lon="11.6393033"><ele>441.0</ele><time>2026-04-09T09:32:32.441Z</time></trkpt><trkpt lat="42.9745826" lon="11.6394596"><ele>437.8</ele><time>2026-04-09T09:32:34.442Z</time></trkpt><trkpt lat="42.974567" lon="11.6395977"><ele>434.6</ele><time>2026-04-09T09:32:36.444Z</time></trkpt><trkpt lat="42.9744814" lon="11.63969"><ele>431.4</ele><time>2026-04-09T09:32:38.44Z</time></trkpt><trkpt lat="42.9744118" lon="11.6397177"><ele>428.2</ele><time>2026-04-09T09:32:39.454Z</time></trkpt><trkpt lat="42.974317" lon="11.6397452"><ele>425.0</ele><time>2026-04-09T09:32:40.459Z</time></trkpt><trkpt lat="42.9742063" lon="11.639775"><ele>425.16666666666663</ele><time>2026-04-09T09:32:41.435Z</time></trkpt><trkpt lat="42.9741002" lon="11.6398022"><ele>425.3333333333333</ele><time>2026-04-09T09:32:42.438Z</time></trkpt><trkpt lat="42.9740157" lon="11.6398139"><ele>425.5</ele><time>2026-04-09T09:32:43.459Z</time></trkpt><trkpt lat="42.9739231" lon="11.6398257"><ele>425.66666666666663</ele><time>2026-04-09T09:32:44.455Z</time></trkpt><trkpt lat="42.9738447" lon="11.6398275"><ele>425.8333333333333</ele><time>2026-04-09T09:32:45.44Z</time></trkpt><trkpt lat="42.9737685" lon="11.6398188"><ele>426.0</ele><time>2026-04-09T09:32:46.435Z</time></trkpt><trkpt lat="42.9736941" lon="11.6398189"><ele>426.0</ele><time>2026-04-09T09:32:47.444Z</time></trkpt><trkpt lat="42.9736276" lon="11.6398159"><ele>426.0</ele><time>2026-04-09T09:32:48.44Z</time></trkpt><trkpt lat="42.9734985" lon="11.6397957"><ele>426.0</ele><time>2026-04-09T09:32:50.461Z</time></trkpt><trkpt lat="42.9734262" lon="11.6397956"><ele>426.0</ele><time>2026-04-09T09:32:51.443Z</time></trkpt><trkpt lat="42.9733541" lon="11.6397933"><ele>426.0</ele><time>2026-04-09T09:32:52.435Z</time></trkpt><trkpt lat="42.9732865" lon="11.6397836"><ele>426.0</ele><time>2026-04-09T09:32:53.442Z</time></trkpt><trkpt lat="42.9732185" lon="11.6397744"><ele>425.6</ele><time>2026-04-09T09:32:54.438Z</time></trkpt><trkpt lat="42.9731507" lon="11.6397627"><ele>425.20000000000005</ele><time>2026-04-09T09:32:55.44Z</time></trkpt><trkpt lat="42.9730489" lon="11.6397586"><ele>424.79999999999995</ele><time>2026-04-09T09:32:57.441Z</time></trkpt><trkpt lat="42.9729548" lon="11.6397632"><ele>424.4</ele><time>2026-04-09T09:32:59.514Z</time></trkpt><trkpt lat="42.972835" lon="11.6397789"><ele>424.0</ele><time>2026-04-09T09:33:01.438Z</time></trkpt><trkpt lat="42.9727225" lon="11.6398361"><ele>424.00000000000006</ele><time>2026-04-09T09:33:03.439Z</time></trkpt><trkpt lat="42.9726301" lon="11.6398857"><ele>424.0</ele><time>2026-04-09T09:33:05.437Z</time></trkpt><trkpt lat="42.9725425" lon="11.6399156"><ele>424.0</ele><time>2026-04-09T09:33:07.441Z</time></trkpt><trkpt lat="42.9724606" lon="11.6399709"><ele>424.0</ele><time>2026-04-09T09:33:09.446Z</time></trkpt><trkpt lat="42.9723968" lon="11.640076"><ele>424.00000000000006</ele><time>2026-04-09T09:33:11.446Z</time></trkpt><trkpt lat="42.9723526" lon="11.6401376"><ele>424.0</ele><time>2026-04-09T09:33:12.433Z</time></trkpt><trkpt lat="42.972295" lon="11.6401995"><ele>423.4</ele><time>2026-04-09T09:33:13.441Z</time></trkpt><trkpt lat="42.9722182" lon="11.6402685"><ele>422.79999999999995</ele><time>2026-04-09T09:33:14.434Z</time></trkpt><trkpt lat="42.9721206" lon="11.6403375"><ele>422.20000000000005</ele><time>2026-04-09T09:33:15.444Z</time></trkpt><trkpt lat="42.9720112" lon="11.6403898"><ele>421.6</ele><time>2026-04-09T09:33:16.439Z</time></trkpt><trkpt lat="42.9719025" lon="11.6404463"><ele>421.0</ele><time>2026-04-09T09:33:17.446Z</time></trkpt><trkpt lat="42.9718028" lon="11.6404955"><ele>418.8</ele><time>2026-04-09T09:33:18.441Z</time></trkpt><trkpt lat="42.9717117" lon="11.6405444"><ele>416.6</ele><time>2026-04-09T09:33:19.436Z</time></trkpt><trkpt lat="42.9716269" lon="11.6405858"><ele>414.4</ele><time>2026-04-09T09:33:20.435Z</time></trkpt><trkpt lat="42.9715394" lon="11.6406386"><ele>412.2</ele><time>2026-04-09T09:33:21.445Z</time></trkpt><trkpt lat="42.9714593" lon="11.6407116"><ele>410.0</ele><time>2026-04-09T09:33:22.434Z</time></trkpt><trkpt lat="42.9713934" lon="11.6408091"><ele>409.99999999999994</ele><time>2026-04-09T09:33:23.429Z</time></trkpt><trkpt lat="42.971343" lon="11.6409137"><ele>410.0</ele><time>2026-04-09T09:33:24.437Z</time></trkpt><trkpt lat="42.9713139" lon="11.6410307"><ele>410.0</ele><time>2026-04-09T09:33:25.439Z</time></trkpt><trkpt lat="42.9712787" lon="11.6411391"><ele>410.0</ele><time>2026-04-09T09:33:26.431Z</time></trkpt><trkpt lat="42.9712344" lon="11.6412362"><ele>409.99999999999994</ele><time>2026-04-09T09:33:27.435Z</time></trkpt><trkpt lat="42.9711848" lon="11.6413365"><ele>410.0</ele><time>2026-04-09T09:33:28.436Z</time></trkpt><trkpt lat="42.9711455" lon="11.6414315"><ele>410.4</ele><time>2026-04-09T09:33:29.441Z</time></trkpt><trkpt lat="42.9710803" lon="11.6414952"><ele>410.8</ele><time>2026-04-09T09:33:30.433Z</time></trkpt><trkpt lat="42.9709973" lon="11.6415725"><ele>411.20000000000005</ele><time>2026-04-09T09:33:31.438Z</time></trkpt><trkpt lat="42.970867" lon="11.6416074"><ele>411.6</ele><time>2026-04-09T09:33:32.436Z</time></trkpt><trkpt lat="42.9707325" lon="11.6416362"><ele>412.0</ele><time>2026-04-09T09:33:33.427Z</time></trkpt><trkpt lat="42.9706025" lon="11.6416482"><ele>412.40000000000003</ele><time>2026-04-09T09:33:34.433Z</time></trkpt><trkpt lat="42.9704846" lon="11.6416402"><ele>412.8</ele><time>2026-04-09T09:33:35.43Z</time></trkpt><trkpt lat="42.9703682" lon="11.6416324"><ele>413.2</ele><time>2026-04-09T09:33:36.463Z</time></trkpt><trkpt lat="42.9702511" lon="11.6416339"><ele>413.6</ele><time>2026-04-09T09:33:37.43Z</time></trkpt><trkpt lat="42.9701538" lon="11.6416327"><ele>414.0</ele><time>2026-04-09T09:33:38.436Z</time></trkpt><trkpt lat="42.9700694" lon="11.6416418"><ele>414.6666666666667</ele><time>2026-04-09T09:33:39.424Z</time></trkpt><trkpt lat="42.9700038" lon="11.6416477"><ele>415.33333333333337</ele><time>2026-04-09T09:33:40.432Z</time></trkpt><trkpt lat="42.969891" lon="11.6416992"><ele>416.0</ele><time>2026-04-09T09:33:42.429Z</time></trkpt><trkpt lat="42.9698358" lon="11.6417542"><ele>416.6666666666667</ele><time>2026-04-09T09:33:43.43Z</time></trkpt><trkpt lat="42.9697686" lon="11.6418234"><ele>417.33333333333337</ele><time>2026-04-09T09:33:44.437Z</time></trkpt><trkpt lat="42.9697216" lon="11.6419185"><ele>418.0</ele><time>2026-04-09T09:33:45.433Z</time></trkpt><trkpt lat="42.9696941" lon="11.6420176"><ele>419.4</ele><time>2026-04-09T09:33:46.426Z</time></trkpt><trkpt lat="42.969681" lon="11.6421392"><ele>420.79999999999995</ele><time>2026-04-09T09:33:47.448Z</time></trkpt><trkpt lat="42.9696989" lon="11.642274"><ele>422.2</ele><time>2026-04-09T09:33:48.453Z</time></trkpt><trkpt lat="42.9697426" lon="11.6424179"><ele>423.6</ele><time>2026-04-09T09:33:49.428Z</time></trkpt><trkpt lat="42.9698039" lon="11.6425687"><ele>425.0</ele><time>2026-04-09T09:33:50.454Z</time></trkpt><trkpt lat="42.9698657" lon="11.6427276"><ele>427.3333333333333</ele><time>2026-04-09T09:33:51.429Z</time></trkpt><trkpt lat="42.9699334" lon="11.6429029"><ele>429.66666666666663</ele><time>2026-04-09T09:33:52.438Z</time></trkpt><trkpt lat="42.9700299" lon="11.6431217"><ele>432.0</ele><time>2026-04-09T09:33:53.587Z</time></trkpt><trkpt lat="42.9701391" lon="11.6434869"><ele>434.0</ele><time>2026-04-09T09:33:55.451Z</time></trkpt><trkpt lat="42.9701736" lon="11.6436675"><ele>436.0</ele><time>2026-04-09T09:33:56.437Z</time></trkpt><trkpt lat="42.9701826" lon="11.6438548"><ele>438.0</ele><time>2026-04-09T09:33:57.432Z</time></trkpt><trkpt lat="42.9701966" lon="11.6440163"><ele>440.0</ele><time>2026-04-09T09:33:58.429Z</time></trkpt><trkpt lat="42.9701976" lon="11.6441815"><ele>440.0</ele><time>2026-04-09T09:33:59.435Z</time></trkpt><trkpt lat="42.9701888" lon="11.6443548"><ele>440.0</ele><time>2026-04-09T09:34:00.443Z</time></trkpt><trkpt lat="42.9701718" lon="11.6445258"><ele>440.0</ele><time>2026-04-09T09:34:01.433Z</time></trkpt><trkpt lat="42.970144" lon="11.6446802"><ele>440.0</ele><time>2026-04-09T09:34:02.433Z</time></trkpt><trkpt lat="42.9701054" lon="11.6448123"><ele>437.5</ele><time>2026-04-09T09:34:03.435Z</time></trkpt><trkpt lat="42.9700329" lon="11.6449343"><ele>435.0</ele><time>2026-04-09T09:34:04.429Z</time></trkpt><trkpt lat="42.969942" lon="11.6450318"><ele>432.5</ele><time>2026-04-09T09:34:05.443Z</time></trkpt><trkpt lat="42.9698118" lon="11.6450997"><ele>430.0</ele><time>2026-04-09T09:34:06.442Z</time></trkpt><trkpt lat="42.9696703" lon="11.645152"><ele>430.0</ele><time>2026-04-09T09:34:07.438Z</time></trkpt><trkpt lat="42.969538" lon="11.6451852"><ele>430.0</ele><time>2026-04-09T09:34:08.444Z</time></trkpt><trkpt lat="42.9694134" lon="11.6452106"><ele>430.0</ele><time>2026-04-09T09:34:09.443Z</time></trkpt><trkpt lat="42.9692935" lon="11.6452335"><ele>430.0</ele><time>2026-04-09T09:34:10.452Z</time></trkpt><trkpt lat="42.9691773" lon="11.6452733"><ele>429.2</ele><time>2026-04-09T09:34:11.443Z</time></trkpt><trkpt lat="42.969073" lon="11.6453257"><ele>428.4</ele><time>2026-04-09T09:34:12.441Z</time></trkpt><trkpt lat="42.9689855" lon="11.6453938"><ele>427.6</ele><time>2026-04-09T09:34:13.443Z</time></trkpt><trkpt lat="42.9689085" lon="11.6454889"><ele>426.8</ele><time>2026-04-09T09:34:14.44Z</time></trkpt><trkpt lat="42.9688402" lon="11.6456149"><ele>426.0</ele><time>2026-04-09T09:34:15.442Z</time></trkpt><trkpt lat="42.9687827" lon="11.6457668"><ele>426.0</ele><time>2026-04-09T09:34:16.444Z</time></trkpt><trkpt lat="42.968725" lon="11.6459376"><ele>426.0</ele><time>2026-04-09T09:34:17.44Z</time></trkpt><trkpt lat="42.9686706" lon="11.6461065"><ele>426.0</ele><time>2026-04-09T09:34:18.442Z</time></trkpt><trkpt lat="42.9686341" lon="11.6462837"><ele>426.0</ele><time>2026-04-09T09:34:19.439Z</time></trkpt><trkpt lat="42.9686085" lon="11.6464506"><ele>426.0</ele><time>2026-04-09T09:34:20.44Z</time></trkpt><trkpt lat="42.9686088" lon="11.6465982"><ele>426.0</ele><time>2026-04-09T09:34:21.44Z</time></trkpt><trkpt lat="42.9686384" lon="11.6467477"><ele>426.0</ele><time>2026-04-09T09:34:22.437Z</time></trkpt><trkpt lat="42.9686862" lon="11.6468935"><ele>426.0</ele><time>2026-04-09T09:34:23.448Z</time></trkpt><trkpt lat="42.9687501" lon="11.6470365"><ele>428.66666666666663</ele><time>2026-04-09T09:34:24.446Z</time></trkpt><trkpt lat="42.9688211" lon="11.647189"><ele>431.3333333333333</ele><time>2026-04-09T09:34:25.452Z</time></trkpt><trkpt lat="42.9689026" lon="11.6473531"><ele>434.0</ele><time>2026-04-09T09:34:26.445Z</time></trkpt><trkpt lat="42.9690336" lon="11.6475284"><ele>434.0</ele><time>2026-04-09T09:34:27.449Z</time></trkpt><trkpt lat="42.9691571" lon="11.6476977"><ele>434.0</ele><time>2026-04-09T09:34:28.447Z</time></trkpt><trkpt lat="42.9692491" lon="11.6478952"><ele>434.0</ele><time>2026-04-09T09:34:29.443Z</time></trkpt><trkpt lat="42.9693316" lon="11.6481112"><ele>434.25</ele><time>2026-04-09T09:34:30.453Z</time></trkpt><trkpt lat="42.9694023" lon="11.6482682"><ele>434.5</ele><time>2026-04-09T09:34:31.439Z</time></trkpt><trkpt lat="42.9694559" lon="11.6484308"><ele>434.75</ele><time>2026-04-09T09:34:32.445Z</time></trkpt><trkpt lat="42.9695318" lon="11.6485733"><ele>435.0</ele><time>2026-04-09T09:34:33.447Z</time></trkpt><trkpt lat="42.9696026" lon="11.6486969"><ele>436.3333333333333</ele><time>2026-04-09T09:34:34.436Z</time></trkpt><trkpt lat="42.9696536" lon="11.6488223"><ele>437.66666666666663</ele><time>2026-04-09T09:34:35.438Z</time></trkpt><trkpt lat="42.9696834" lon="11.6489187"><ele>439.0</ele><time>2026-04-09T09:34:36.449Z</time></trkpt><trkpt lat="42.9696559" lon="11.6490042"><ele>440.3333333333333</ele><time>2026-04-09T09:34:37.443Z</time></trkpt><trkpt lat="42.9696302" lon="11.649114"><ele>441.66666666666663</ele><time>2026-04-09T09:34:38.44Z</time></trkpt><trkpt lat="42.9695882" lon="11.6492312"><ele>443.0</ele><time>2026-04-09T09:34:39.473Z</time></trkpt><trkpt lat="42.9695283" lon="11.6493563"><ele>441.5</ele><time>2026-04-09T09:34:40.461Z</time></trkpt><trkpt lat="42.9694457" lon="11.6494916"><ele>440.0</ele><time>2026-04-09T09:34:41.444Z</time></trkpt><trkpt lat="42.9693516" lon="11.6496362"><ele>438.5</ele><time>2026-04-09T09:34:42.447Z</time></trkpt><trkpt lat="42.9692588" lon="11.6497985"><ele>437.0</ele><time>2026-04-09T09:34:43.443Z</time></trkpt><trkpt lat="42.9691518" lon="11.6500058"><ele>442.0</ele><time>2026-04-09T09:34:44.443Z</time></trkpt><trkpt lat="42.9690504" lon="11.6502088"><ele>447.0</ele><time>2026-04-09T09:34:45.448Z</time></trkpt><trkpt lat="42.9689735" lon="11.6503763"><ele>452.0</ele><time>2026-04-09T09:34:46.441Z</time></trkpt><trkpt lat="42.9689143" lon="11.6504802"><ele>457.0</ele><time>2026-04-09T09:34:47.462Z</time></trkpt><trkpt lat="42.9688518" lon="11.6505923"><ele>457.8</ele><time>2026-04-09T09:34:48.439Z</time></trkpt><trkpt lat="42.9688152" lon="11.6506931"><ele>458.6</ele><time>2026-04-09T09:34:49.45Z</time></trkpt><trkpt lat="42.9687954" lon="11.6508456"><ele>459.40000000000003</ele><time>2026-04-09T09:34:50.445Z</time></trkpt><trkpt lat="42.9688141" lon="11.6509714"><ele>460.20000000000005</ele><time>2026-04-09T09:34:51.468Z</time></trkpt><trkpt lat="42.9688798" lon="11.6510785"><ele>461.0</ele><time>2026-04-09T09:34:52.465Z</time></trkpt><trkpt lat="42.9689734" lon="11.6512092"><ele>462.5</ele><time>2026-04-09T09:34:53.448Z</time></trkpt><trkpt lat="42.9690416" lon="11.6513504"><ele>464.0</ele><time>2026-04-09T09:34:54.448Z</time></trkpt><trkpt lat="42.9691252" lon="11.6514894"><ele>465.5</ele><time>2026-04-09T09:34:55.443Z</time></trkpt><trkpt lat="42.9691804" lon="11.6516183"><ele>467.0</ele><time>2026-04-09T09:34:56.456Z</time></trkpt><trkpt lat="42.9692538" lon="11.6517485"><ele>465.40000000000003</ele><time>2026-04-09T09:34:57.452Z</time></trkpt><trkpt lat="42.9693223" lon="11.6518682"><ele>463.80000000000007</ele><time>2026-04-09T09:34:58.476Z</time></trkpt><trkpt lat="42.9693791" lon="11.6519678"><ele>462.2</ele><time>2026-04-09T09:34:59.457Z</time></trkpt><trkpt lat="42.9694252" lon="11.6520877"><ele>460.6</ele><time>2026-04-09T09:35:00.454Z</time></trkpt><trkpt lat="42.9694683" lon="11.6522369"><ele>459.0</ele><time>2026-04-09T09:35:01.445Z</time></trkpt><trkpt lat="42.9694976" lon="11.6524028"><ele>459.0</ele><time>2026-04-09T09:35:02.449Z</time></trkpt><trkpt lat="42.9695227" lon="11.6525647"><ele>459.0</ele><time>2026-04-09T09:35:03.454Z</time></trkpt><trkpt lat="42.9695641" lon="11.6527121"><ele>459.0</ele><time>2026-04-09T09:35:04.459Z</time></trkpt><trkpt lat="42.9696218" lon="11.652852"><ele>459.0</ele><time>2026-04-09T09:35:05.546Z</time></trkpt><trkpt lat="42.9696931" lon="11.6529694"><ele>461.75</ele><time>2026-04-09T09:35:06.451Z</time></trkpt><trkpt lat="42.969761" lon="11.6530919"><ele>464.5</ele><time>2026-04-09T09:35:07.481Z</time></trkpt><trkpt lat="42.969839" lon="11.6532166"><ele>467.25</ele><time>2026-04-09T09:35:08.471Z</time></trkpt><trkpt lat="42.969925" lon="11.6533576"><ele>470.0</ele><time>2026-04-09T09:35:09.455Z</time></trkpt><trkpt lat="42.9700121" lon="11.6534999"><ele>468.0</ele><time>2026-04-09T09:35:10.451Z</time></trkpt><trkpt lat="42.9700735" lon="11.6536263"><ele>466.0</ele><time>2026-04-09T09:35:11.455Z</time></trkpt><trkpt lat="42.970144" lon="11.6537692"><ele>464.0</ele><time>2026-04-09T09:35:12.452Z</time></trkpt><trkpt lat="42.970192" lon="11.6539017"><ele>462.0</ele><time>2026-04-09T09:35:13.457Z</time></trkpt><trkpt lat="42.9702428" lon="11.6540673"><ele>462.0</ele><time>2026-04-09T09:35:14.454Z</time></trkpt><trkpt lat="42.9702867" lon="11.6542091"><ele>462.00000000000006</ele><time>2026-04-09T09:35:15.448Z</time></trkpt><trkpt lat="42.9703206" lon="11.6543117"><ele>462.00000000000006</ele><time>2026-04-09T09:35:16.443Z</time></trkpt><trkpt lat="42.9703575" lon="11.654394"><ele>462.0</ele><time>2026-04-09T09:35:17.441Z</time></trkpt><trkpt lat="42.9704146" lon="11.6544809"><ele>462.0</ele><time>2026-04-09T09:35:19.442Z</time></trkpt><trkpt lat="42.9705018" lon="11.6545685"><ele>462.0</ele><time>2026-04-09T09:36:00.447Z</time></trkpt><trkpt lat="42.9705718" lon="11.6546347"><ele>462.00000000000006</ele><time>2026-04-09T09:36:01.429Z</time></trkpt><trkpt lat="42.9706536" lon="11.6547154"><ele>462.00000000000006</ele><time>2026-04-09T09:36:02.439Z</time></trkpt><trkpt lat="42.9707342" lon="11.654797"><ele>462.0</ele><time>2026-04-09T09:36:03.444Z</time></trkpt><trkpt lat="42.9708129" lon="11.6548702"><ele>462.0</ele><time>2026-04-09T09:36:04.451Z</time></trkpt><trkpt lat="42.9708773" lon="11.6549365"><ele>462.0</ele><time>2026-04-09T09:36:05.45Z</time></trkpt><trkpt lat="42.9709229" lon="11.6550142"><ele>462.0</ele><time>2026-04-09T09:36:06.452Z</time></trkpt><trkpt lat="42.9709564" lon="11.6550971"><ele>462.0</ele><time>2026-04-09T09:36:07.451Z</time></trkpt><trkpt lat="42.9709759" lon="11.6551943"><ele>462.0</ele><time>2026-04-09T09:36:09.457Z</time></trkpt><trkpt lat="42.9710004" lon="11.6552748"><ele>462.0</ele><time>2026-04-09T09:36:12.457Z</time></trkpt><trkpt lat="42.9710025" lon="11.6553887"><ele>462.0</ele><time>2026-04-09T09:36:15.459Z</time></trkpt><trkpt lat="42.9709892" lon="11.6554864"><ele>462.0</ele><time>2026-04-09T09:36:16.45Z</time></trkpt><trkpt lat="42.9709729" lon="11.6556256"><ele>461.6</ele><time>2026-04-09T09:36:17.454Z</time></trkpt><trkpt lat="42.9709421" lon="11.6557655"><ele>461.20000000000005</ele><time>2026-04-09T09:36:18.448Z</time></trkpt><trkpt lat="42.9709139" lon="11.6559015"><ele>460.8</ele><time>2026-04-09T09:36:19.447Z</time></trkpt><trkpt lat="42.9708898" lon="11.6560291"><ele>460.4</ele><time>2026-04-09T09:36:20.475Z</time></trkpt><trkpt lat="42.9708662" lon="11.6561418"><ele>460.0</ele><time>2026-04-09T09:36:21.449Z</time></trkpt><trkpt lat="42.970829" lon="11.6562468"><ele>460.0</ele><time>2026-04-09T09:36:22.448Z</time></trkpt><trkpt lat="42.9707791" lon="11.65635"><ele>460.0</ele><time>2026-04-09T09:36:23.453Z</time></trkpt><trkpt lat="42.9707118" lon="11.6564622"><ele>460.0</ele><time>2026-04-09T09:36:24.45Z</time></trkpt><trkpt lat="42.9706472" lon="11.6565581"><ele>460.0</ele><time>2026-04-09T09:36:25.457Z</time></trkpt><trkpt lat="42.9705873" lon="11.6566435"><ele>460.0</ele><time>2026-04-09T09:36:26.502Z</time></trkpt><trkpt lat="42.9705283" lon="11.656737"><ele>460.0</ele><time>2026-04-09T09:36:27.443Z</time></trkpt><trkpt lat="42.9704863" lon="11.6568333"><ele>460.0</ele><time>2026-04-09T09:36:28.449Z</time></trkpt><trkpt lat="42.970455" lon="11.6569519"><ele>460.0</ele><time>2026-04-09T09:36:29.44Z</time></trkpt><trkpt lat="42.9704398" lon="11.6570884"><ele>460.0</ele><time>2026-04-09T09:36:30.449Z</time></trkpt><trkpt lat="42.9704467" lon="11.6572643"><ele>460.0</ele><time>2026-04-09T09:36:31.445Z</time></trkpt><trkpt lat="42.9704573" lon="11.6574505"><ele>459.33333333333337</ele><time>2026-04-09T09:36:32.44Z</time></trkpt><trkpt lat="42.9704655" lon="11.6576464"><ele>458.66666666666663</ele><time>2026-04-09T09:36:33.439Z</time></trkpt><trkpt lat="42.9704668" lon="11.6579011"><ele>458.0</ele><time>2026-04-09T09:36:34.443Z</time></trkpt><trkpt lat="42.9704673" lon="11.6581391"><ele>456.66666666666663</ele><time>2026-04-09T09:36:35.439Z</time></trkpt><trkpt lat="42.970476" lon="11.65837"><ele>455.33333333333337</ele><time>2026-04-09T09:36:36.432Z</time></trkpt><trkpt lat="42.9704564" lon="11.6586102"><ele>454.0</ele><time>2026-04-09T09:36:37.447Z</time></trkpt><trkpt lat="42.9704434" lon="11.6588558"><ele>452.6666666666667</ele><time>2026-04-09T09:36:38.432Z</time></trkpt><trkpt lat="42.9704323" lon="11.6590927"><ele>451.33333333333337</ele><time>2026-04-09T09:36:39.439Z</time></trkpt><trkpt lat="42.9704472" lon="11.6593464"><ele>450.0</ele><time>2026-04-09T09:36:40.45Z</time></trkpt><trkpt lat="42.9704488" lon="11.6595647"><ele>449.75</ele><time>2026-04-09T09:36:41.443Z</time></trkpt><trkpt lat="42.970451" lon="11.6597939"><ele>449.5</ele><time>2026-04-09T09:36:42.449Z</time></trkpt><trkpt lat="42.9704584" lon="11.6599902"><ele>449.25</ele><time>2026-04-09T09:36:43.445Z</time></trkpt><trkpt lat="42.9704701" lon="11.6601283"><ele>449.0</ele><time>2026-04-09T09:36:44.451Z</time></trkpt><trkpt lat="42.9704799" lon="11.6602232"><ele>448.49999999999994</ele><time>2026-04-09T09:36:45.439Z</time></trkpt><trkpt lat="42.9704926" lon="11.6603132"><ele>448.0</ele><time>2026-04-09T09:36:47.447Z</time></trkpt><trkpt lat="42.970488" lon="11.6604438"><ele>447.5</ele><time>2026-04-09T09:37:36.454Z</time></trkpt><trkpt lat="42.9704661" lon="11.6605363"><ele>447.0</ele><time>2026-04-09T09:37:37.448Z</time></trkpt><trkpt lat="42.9704224" lon="11.6606392"><ele>446.49999999999994</ele><time>2026-04-09T09:37:38.453Z</time></trkpt><trkpt lat="42.9703539" lon="11.6607673"><ele>446.0</ele><time>2026-04-09T09:37:39.445Z</time></trkpt><trkpt lat="42.9702639" lon="11.6609086"><ele>446.0</ele><time>2026-04-09T09:37:40.454Z</time></trkpt><trkpt lat="42.9701733" lon="11.6610352"><ele>446.0</ele><time>2026-04-09T09:37:41.455Z</time></trkpt><trkpt lat="42.9700926" lon="11.6611499"><ele>446.0</ele><time>2026-04-09T09:37:42.449Z</time></trkpt><trkpt lat="42.9700298" lon="11.6612606"><ele>446.0</ele><time>2026-04-09T09:37:43.454Z</time></trkpt><trkpt lat="42.9699767" lon="11.6613644"><ele>446.0</ele><time>2026-04-09T09:37:44.447Z</time></trkpt><trkpt lat="42.9699473" lon="11.6614725"><ele>445.75</ele><time>2026-04-09T09:37:45.453Z</time></trkpt><trkpt lat="42.9699307" lon="11.6615937"><ele>445.5</ele><time>2026-04-09T09:37:46.445Z</time></trkpt><trkpt lat="42.9699388" lon="11.6617434"><ele>445.25</ele><time>2026-04-09T09:37:47.461Z</time></trkpt><trkpt lat="42.969955" lon="11.661904"><ele>445.0</ele><time>2026-04-09T09:37:48.446Z</time></trkpt><trkpt lat="42.9699694" lon="11.6620863"><ele>445.0</ele><time>2026-04-09T09:37:49.475Z</time></trkpt><trkpt lat="42.9699847" lon="11.6622488"><ele>445.0</ele><time>2026-04-09T09:37:50.458Z</time></trkpt><trkpt lat="42.9700016" lon="11.6624254"><ele>445.0</ele><time>2026-04-09T09:37:51.459Z</time></trkpt><trkpt lat="42.9700219" lon="11.6625901"><ele>445.0</ele><time>2026-04-09T09:37:52.476Z</time></trkpt><trkpt lat="42.9700549" lon="11.6627527"><ele>441.75</ele><time>2026-04-09T09:37:53.478Z</time></trkpt><trkpt lat="42.9701123" lon="11.6629227"><ele>438.5</ele><time>2026-04-09T09:37:54.495Z</time></trkpt><trkpt lat="42.9701905" lon="11.6630775"><ele>435.25</ele><time>2026-04-09T09:37:55.484Z</time></trkpt><trkpt lat="42.9702279" lon="11.6632579"><ele>432.0</ele><time>2026-04-09T09:37:56.475Z</time></trkpt><trkpt lat="42.9702834" lon="11.6634501"><ele>434.0</ele><time>2026-04-09T09:37:57.457Z</time></trkpt><trkpt lat="42.9703224" lon="11.6636578"><ele>436.0</ele><time>2026-04-09T09:37:58.46Z</time></trkpt><trkpt lat="42.9703655" lon="11.6638509"><ele>438.0</ele><time>2026-04-09T09:37:59.461Z</time></trkpt><trkpt lat="42.9704262" lon="11.664013"><ele>440.0</ele><time>2026-04-09T09:38:00.451Z</time></trkpt><trkpt lat="42.9704681" lon="11.6641683"><ele>440.0</ele><time>2026-04-09T09:38:01.454Z</time></trkpt><trkpt lat="42.9704893" lon="11.6642907"><ele>440.0</ele><time>2026-04-09T09:38:02.476Z</time></trkpt><trkpt lat="42.9705327" lon="11.664383"><ele>440.0</ele><time>2026-04-09T09:38:03.455Z</time></trkpt><trkpt lat="42.970589" lon="11.6644563"><ele>440.0</ele><time>2026-04-09T09:38:04.471Z</time></trkpt><trkpt lat="42.9706729" lon="11.6645103"><ele>440.0</ele><time>2026-04-09T09:38:05.449Z</time></trkpt><trkpt lat="42.9707853" lon="11.6645708"><ele>439.8</ele><time>2026-04-09T09:38:06.454Z</time></trkpt><trkpt lat="42.9708815" lon="11.6646224"><ele>439.6</ele><time>2026-04-09T09:38:07.461Z</time></trkpt><trkpt lat="42.9709678" lon="11.6646544"><ele>439.4</ele><time>2026-04-09T09:38:08.454Z</time></trkpt><trkpt lat="42.971053" lon="11.6646721"><ele>439.2</ele><time>2026-04-09T09:38:09.45Z</time></trkpt><trkpt lat="42.9711587" lon="11.6646749"><ele>439.0</ele><time>2026-04-09T09:38:10.473Z</time></trkpt><trkpt lat="42.9712636" lon="11.6646746"><ele>439.0</ele><time>2026-04-09T09:38:11.452Z</time></trkpt><trkpt lat="42.9713689" lon="11.6646806"><ele>439.0</ele><time>2026-04-09T09:38:12.447Z</time></trkpt><trkpt lat="42.9714712" lon="11.6646975"><ele>439.0</ele><time>2026-04-09T09:38:13.452Z</time></trkpt><trkpt lat="42.9715594" lon="11.6647332"><ele>439.0</ele><time>2026-04-09T09:38:14.445Z</time></trkpt><trkpt lat="42.971652" lon="11.6647732"><ele>439.0</ele><time>2026-04-09T09:38:15.452Z</time></trkpt><trkpt lat="42.9717572" lon="11.66482"><ele>437.0</ele><time>2026-04-09T09:38:16.446Z</time></trkpt><trkpt lat="42.9718652" lon="11.6648599"><ele>435.0</ele><time>2026-04-09T09:38:17.449Z</time></trkpt><trkpt lat="42.9719561" lon="11.6649025"><ele>433.0</ele><time>2026-04-09T09:38:18.445Z</time></trkpt><trkpt lat="42.9720396" lon="11.6649448"><ele>431.0</ele><time>2026-04-09T09:38:19.453Z</time></trkpt><trkpt lat="42.9721089" lon="11.6649772"><ele>429.0</ele><time>2026-04-09T09:38:20.448Z</time></trkpt><trkpt lat="42.9722138" lon="11.6650791"><ele>429.0</ele><time>2026-04-09T09:38:22.446Z</time></trkpt><trkpt lat="42.9722583" lon="11.6651667"><ele>429.0</ele><time>2026-04-09T09:38:23.456Z</time></trkpt><trkpt lat="42.9722901" lon="11.6652766"><ele>429.0</ele><time>2026-04-09T09:38:24.453Z</time></trkpt><trkpt lat="42.9723111" lon="11.6654"><ele>429.0</ele><time>2026-04-09T09:38:25.456Z</time></trkpt><trkpt lat="42.9723146" lon="11.6655142"><ele>429.0</ele><time>2026-04-09T09:38:26.459Z</time></trkpt><trkpt lat="42.9723254" lon="11.6656397"><ele>429.0</ele><time>2026-04-09T09:38:27.459Z</time></trkpt><trkpt lat="42.9723388" lon="11.6657772"><ele>429.2</ele><time>2026-04-09T09:38:28.464Z</time></trkpt><trkpt lat="42.9723523" lon="11.6659275"><ele>429.4</ele><time>2026-04-09T09:38:29.461Z</time></trkpt><trkpt lat="42.9723622" lon="11.6660681"><ele>429.6</ele><time>2026-04-09T09:38:30.479Z</time></trkpt><trkpt lat="42.9723783" lon="11.6662052"><ele>429.8</ele><time>2026-04-09T09:38:31.461Z</time></trkpt><trkpt lat="42.972403" lon="11.6663465"><ele>430.0</ele><time>2026-04-09T09:38:32.452Z</time></trkpt><trkpt lat="42.972427" lon="11.6664713"><ele>429.50000000000006</ele><time>2026-04-09T09:38:33.458Z</time></trkpt><trkpt lat="42.9724484" lon="11.666584"><ele>429.0</ele><time>2026-04-09T09:38:34.447Z</time></trkpt><trkpt lat="42.9724756" lon="11.6666913"><ele>428.5</ele><time>2026-04-09T09:38:35.453Z</time></trkpt><trkpt lat="42.9724979" lon="11.6668127"><ele>428.0</ele><time>2026-04-09T09:38:36.464Z</time></trkpt><trkpt lat="42.9725139" lon="11.6669216"><ele>427.50000000000006</ele><time>2026-04-09T09:38:37.457Z</time></trkpt><trkpt lat="42.9725292" lon="11.6670283"><ele>427.0</ele><time>2026-04-09T09:38:38.467Z</time></trkpt><trkpt lat="42.9725497" lon="11.6671359"><ele>426.00000000000006</ele><time>2026-04-09T09:38:39.455Z</time></trkpt><trkpt lat="42.9725624" lon="11.6672524"><ele>425.0</ele><time>2026-04-09T09:38:40.463Z</time></trkpt><trkpt lat="42.9725577" lon="11.6673669"><ele>424.0</ele><time>2026-04-09T09:38:41.463Z</time></trkpt><trkpt lat="42.9725441" lon="11.6674713"><ele>423.0</ele><time>2026-04-09T09:38:42.459Z</time></trkpt><trkpt lat="42.9725253" lon="11.6675711"><ele>422.00000000000006</ele><time>2026-04-09T09:38:43.486Z</time></trkpt><trkpt lat="42.9725001" lon="11.6676677"><ele>421.0</ele><time>2026-04-09T09:38:44.464Z</time></trkpt><trkpt lat="42.9724687" lon="11.6677505"><ele>420.50000000000006</ele><time>2026-04-09T09:38:45.465Z</time></trkpt><trkpt lat="42.972443" lon="11.6678332"><ele>420.0</ele><time>2026-04-09T09:38:46.457Z</time></trkpt><trkpt lat="42.9724235" lon="11.6679219"><ele>419.5</ele><time>2026-04-09T09:38:47.456Z</time></trkpt><trkpt lat="42.972412" lon="11.6680244"><ele>419.0</ele><time>2026-04-09T09:38:48.459Z</time></trkpt><trkpt lat="42.9724165" lon="11.6681316"><ele>418.50000000000006</ele><time>2026-04-09T09:38:49.465Z</time></trkpt><trkpt lat="42.9724472" lon="11.6682477"><ele>418.0</ele><time>2026-04-09T09:38:50.459Z</time></trkpt><trkpt lat="42.9724972" lon="11.6683672"><ele>415.50000000000006</ele><time>2026-04-09T09:38:51.462Z</time></trkpt><trkpt lat="42.9725626" lon="11.6684832"><ele>413.0</ele><time>2026-04-09T09:38:52.466Z</time></trkpt><trkpt lat="42.9726188" lon="11.668587"><ele>410.5</ele><time>2026-04-09T09:38:53.461Z</time></trkpt><trkpt lat="42.9726521" lon="11.6686878"><ele>408.0</ele><time>2026-04-09T09:38:54.456Z</time></trkpt><trkpt lat="42.9726715" lon="11.6687968"><ele>405.50000000000006</ele><time>2026-04-09T09:38:55.472Z</time></trkpt><trkpt lat="42.9726854" lon="11.6689004"><ele>403.0</ele><time>2026-04-09T09:38:56.466Z</time></trkpt><trkpt lat="42.9726982" lon="11.669004"><ele>403.00000000000006</ele><time>2026-04-09T09:38:57.455Z</time></trkpt><trkpt lat="42.9727124" lon="11.6691265"><ele>403.0</ele><time>2026-04-09T09:38:58.473Z</time></trkpt><trkpt lat="42.9727194" lon="11.6692435"><ele>403.0</ele><time>2026-04-09T09:38:59.462Z</time></trkpt><trkpt lat="42.9727174" lon="11.6693514"><ele>403.0</ele><time>2026-04-09T09:39:00.462Z</time></trkpt><trkpt lat="42.9726947" lon="11.6694392"><ele>403.00000000000006</ele><time>2026-04-09T09:39:01.459Z</time></trkpt><trkpt lat="42.9726547" lon="11.6695165"><ele>403.0</ele><time>2026-04-09T09:39:02.461Z</time></trkpt><trkpt lat="42.9725931" lon="11.6695674"><ele>403.1666666666667</ele><time>2026-04-09T09:39:03.454Z</time></trkpt><trkpt lat="42.9725245" lon="11.6696048"><ele>403.33333333333337</ele><time>2026-04-09T09:39:04.464Z</time></trkpt><trkpt lat="42.9724519" lon="11.6696217"><ele>403.5</ele><time>2026-04-09T09:39:05.461Z</time></trkpt><trkpt lat="42.9723827" lon="11.6696254"><ele>403.66666666666663</ele><time>2026-04-09T09:39:06.458Z</time></trkpt><trkpt lat="42.9723057" lon="11.6696247"><ele>403.8333333333333</ele><time>2026-04-09T09:39:07.458Z</time></trkpt><trkpt lat="42.9722105" lon="11.6696128"><ele>404.0</ele><time>2026-04-09T09:39:08.461Z</time></trkpt><trkpt lat="42.9721222" lon="11.6695832"><ele>403.99999999999994</ele><time>2026-04-09T09:39:09.456Z</time></trkpt><trkpt lat="42.9720442" lon="11.6695511"><ele>404.0</ele><time>2026-04-09T09:39:10.455Z</time></trkpt><trkpt lat="42.9719681" lon="11.6695164"><ele>404.0</ele><time>2026-04-09T09:39:11.463Z</time></trkpt><trkpt lat="42.9718981" lon="11.6694883"><ele>404.0</ele><time>2026-04-09T09:39:12.465Z</time></trkpt><trkpt lat="42.9718302" lon="11.6694614"><ele>403.99999999999994</ele><time>2026-04-09T09:39:13.456Z</time></trkpt><trkpt lat="42.9717664" lon="11.6694508"><ele>404.0</ele><time>2026-04-09T09:39:14.457Z</time></trkpt><trkpt lat="42.9716707" lon="11.6694694"><ele>403.99999999999994</ele><time>2026-04-09T09:39:16.469Z</time></trkpt><trkpt lat="42.9716407" lon="11.6695547"><ele>404.0</ele><time>2026-04-09T09:39:53.537Z</time></trkpt><trkpt lat="42.9716664" lon="11.669638"><ele>404.0</ele><time>2026-04-09T09:39:55.453Z</time></trkpt><trkpt lat="42.9717724" lon="11.6697537"><ele>404.0</ele><time>2026-04-09T09:39:57.476Z</time></trkpt><trkpt lat="42.9718333" lon="11.6698363"><ele>403.99999999999994</ele><time>2026-04-09T09:39:58.468Z</time></trkpt><trkpt lat="42.9718793" lon="11.6699244"><ele>404.0</ele><time>2026-04-09T09:39:59.454Z</time></trkpt><trkpt lat="42.9719262" lon="11.670031"><ele>403.99999999999994</ele><time>2026-04-09T09:40:00.467Z</time></trkpt><trkpt lat="42.9719671" lon="11.6701279"><ele>404.0</ele><time>2026-04-09T09:40:01.455Z</time></trkpt><trkpt lat="42.9719977" lon="11.6702191"><ele>404.0</ele><time>2026-04-09T09:40:02.463Z</time></trkpt><trkpt lat="42.9720385" lon="11.6703182"><ele>404.0</ele><time>2026-04-09T09:40:03.459Z</time></trkpt><trkpt lat="42.9720902" lon="11.6704294"><ele>403.99999999999994</ele><time>2026-04-09T09:40:04.454Z</time></trkpt><trkpt lat="42.9721311" lon="11.6705396"><ele>404.0</ele><time>2026-04-09T09:40:05.462Z</time></trkpt><trkpt lat="42.9721733" lon="11.6706332"><ele>403.42857142857144</ele><time>2026-04-09T09:40:06.462Z</time></trkpt><trkpt lat="42.9722258" lon="11.6707248"><ele>402.85714285714283</ele><time>2026-04-09T09:40:07.46Z</time></trkpt><trkpt lat="42.9722698" lon="11.6708177"><ele>402.28571428571433</ele><time>2026-04-09T09:40:08.456Z</time></trkpt><trkpt lat="42.9723003" lon="11.6709069"><ele>401.7142857142857</ele><time>2026-04-09T09:40:09.465Z</time></trkpt><trkpt lat="42.9723264" lon="11.6709923"><ele>401.14285714285717</ele><time>2026-04-09T09:40:10.456Z</time></trkpt><trkpt lat="42.9723446" lon="11.6710813"><ele>400.5714285714286</ele><time>2026-04-09T09:40:11.466Z</time></trkpt><trkpt lat="42.9723618" lon="11.6711643"><ele>400.0</ele><time>2026-04-09T09:40:12.459Z</time></trkpt><trkpt lat="42.9723923" lon="11.671337"><ele>398.75</ele><time>2026-04-09T09:40:14.46Z</time></trkpt><trkpt lat="42.9724021" lon="11.6714388"><ele>397.5</ele><time>2026-04-09T09:40:15.461Z</time></trkpt><trkpt lat="42.9724085" lon="11.6715722"><ele>396.25</ele><time>2026-04-09T09:40:16.461Z</time></trkpt><trkpt lat="42.9724299" lon="11.6717541"><ele>395.0</ele><time>2026-04-09T09:40:17.454Z</time></trkpt><trkpt lat="42.972465" lon="11.6719689"><ele>394.0</ele><time>2026-04-09T09:40:18.45Z</time></trkpt><trkpt lat="42.9725271" lon="11.672244"><ele>393.0</ele><time>2026-04-09T09:40:19.455Z</time></trkpt><trkpt lat="42.9725771" lon="11.6725392"><ele>392.0</ele><time>2026-04-09T09:40:20.456Z</time></trkpt><trkpt lat="42.9726288" lon="11.672798"><ele>390.66666666666663</ele><time>2026-04-09T09:40:21.457Z</time></trkpt><trkpt lat="42.9726914" lon="11.6730375"><ele>389.33333333333337</ele><time>2026-04-09T09:40:22.459Z</time></trkpt><trkpt lat="42.9727397" lon="11.6732618"><ele>388.0</ele><time>2026-04-09T09:40:23.458Z</time></trkpt><trkpt lat="42.9727992" lon="11.6734824"><ele>386.33333333333337</ele><time>2026-04-09T09:40:24.456Z</time></trkpt><trkpt lat="42.9728717" lon="11.6736724"><ele>384.6666666666667</ele><time>2026-04-09T09:40:25.452Z</time></trkpt><trkpt lat="42.9729844" lon="11.6738329"><ele>383.0</ele><time>2026-04-09T09:40:26.453Z</time></trkpt><trkpt lat="42.9731254" lon="11.6739874"><ele>383.0</ele><time>2026-04-09T09:40:27.454Z</time></trkpt><trkpt lat="42.9733075" lon="11.6741377"><ele>383.0</ele><time>2026-04-09T09:40:28.462Z</time></trkpt><trkpt lat="42.9734679" lon="11.6742862"><ele>383.0</ele><time>2026-04-09T09:40:29.455Z</time></trkpt><trkpt lat="42.9736241" lon="11.6744217"><ele>381.0</ele><time>2026-04-09T09:40:30.456Z</time></trkpt><trkpt lat="42.9738207" lon="11.6745644"><ele>379.0</ele><time>2026-04-09T09:40:31.452Z</time></trkpt><trkpt lat="42.9740241" lon="11.6747271"><ele>378.5</ele><time>2026-04-09T09:40:32.444Z</time></trkpt><trkpt lat="42.9742371" lon="11.6749151"><ele>378.0</ele><time>2026-04-09T09:40:33.457Z</time></trkpt><trkpt lat="42.9744447" lon="11.6751078"><ele>377.0</ele><time>2026-04-09T09:40:34.449Z</time></trkpt><trkpt lat="42.9746361" lon="11.6752764"><ele>376.0</ele><time>2026-04-09T09:40:35.45Z</time></trkpt><trkpt lat="42.9748169" lon="11.6754323"><ele>375.0</ele><time>2026-04-09T09:40:36.458Z</time></trkpt><trkpt lat="42.9750002" lon="11.6755889"><ele>375.0</ele><time>2026-04-09T09:40:37.443Z</time></trkpt><trkpt lat="42.9751671" lon="11.6757355"><ele>375.0</ele><time>2026-04-09T09:40:38.465Z</time></trkpt><trkpt lat="42.9752921" lon="11.6758619"><ele>375.0</ele><time>2026-04-09T09:40:39.462Z</time></trkpt><trkpt lat="42.9754228" lon="11.6759838"><ele>375.0</ele><time>2026-04-09T09:40:40.449Z</time></trkpt><trkpt lat="42.9755543" lon="11.6761011"><ele>375.0</ele><time>2026-04-09T09:40:41.453Z</time></trkpt><trkpt lat="42.9756935" lon="11.6762292"><ele>375.0</ele><time>2026-04-09T09:40:42.454Z</time></trkpt><trkpt lat="42.9758324" lon="11.67634"><ele>374.5</ele><time>2026-04-09T09:40:43.449Z</time></trkpt><trkpt lat="42.9759489" lon="11.6764666"><ele>374.0</ele><time>2026-04-09T09:40:44.461Z</time></trkpt><trkpt lat="42.9760489" lon="11.6765903"><ele>373.5</ele><time>2026-04-09T09:40:45.462Z</time></trkpt><trkpt lat="42.9761564" lon="11.6767373"><ele>373.0</ele><time>2026-04-09T09:40:46.463Z</time></trkpt><trkpt lat="42.9762472" lon="11.6769191"><ele>372.3333333333333</ele><time>2026-04-09T09:40:47.46Z</time></trkpt><trkpt lat="42.9763405" lon="11.6771335"><ele>371.6666666666667</ele><time>2026-04-09T09:40:48.457Z</time></trkpt><trkpt lat="42.9764222" lon="11.6773799"><ele>371.0</ele><time>2026-04-09T09:40:49.453Z</time></trkpt><trkpt lat="42.9765054" lon="11.6776152"><ele>370.6666666666667</ele><time>2026-04-09T09:40:50.445Z</time></trkpt><trkpt lat="42.976579" lon="11.6778752"><ele>370.3333333333333</ele><time>2026-04-09T09:40:51.452Z</time></trkpt><trkpt lat="42.9766762" lon="11.678156"><ele>370.0</ele><time>2026-04-09T09:40:52.457Z</time></trkpt><trkpt lat="42.9767826" lon="11.6784521"><ele>369.66666666666663</ele><time>2026-04-09T09:40:53.449Z</time></trkpt><trkpt lat="42.9768823" lon="11.6787306"><ele>369.3333333333333</ele><time>2026-04-09T09:40:54.461Z</time></trkpt><trkpt lat="42.9769827" lon="11.6790011"><ele>369.0</ele><time>2026-04-09T09:40:55.465Z</time></trkpt><trkpt lat="42.9770517" lon="11.6792656"><ele>367.6666666666667</ele><time>2026-04-09T09:40:56.454Z</time></trkpt><trkpt lat="42.977125" lon="11.6795184"><ele>366.33333333333337</ele><time>2026-04-09T09:40:57.459Z</time></trkpt><trkpt lat="42.9771877" lon="11.6797383"><ele>365.0</ele><time>2026-04-09T09:40:58.465Z</time></trkpt><trkpt lat="42.9772592" lon="11.6799658"><ele>365.0</ele><time>2026-04-09T09:40:59.465Z</time></trkpt><trkpt lat="42.9773306" lon="11.6801917"><ele>365.0</ele><time>2026-04-09T09:41:00.464Z</time></trkpt><trkpt lat="42.9773991" lon="11.6804039"><ele>365.0</ele><time>2026-04-09T09:41:01.46Z</time></trkpt><trkpt lat="42.9774581" lon="11.6805946"><ele>363.0</ele><time>2026-04-09T09:41:02.466Z</time></trkpt><trkpt lat="42.9775178" lon="11.6808403"><ele>361.0</ele><time>2026-04-09T09:41:03.459Z</time></trkpt><trkpt lat="42.9775976" lon="11.6811249"><ele>359.0</ele><time>2026-04-09T09:41:04.458Z</time></trkpt><trkpt lat="42.9776852" lon="11.6814244"><ele>358.5</ele><time>2026-04-09T09:41:05.463Z</time></trkpt><trkpt lat="42.9777799" lon="11.6817144"><ele>358.0</ele><time>2026-04-09T09:41:06.46Z</time></trkpt><trkpt lat="42.9778872" lon="11.6820507"><ele>356.5</ele><time>2026-04-09T09:41:07.463Z</time></trkpt><trkpt lat="42.9779754" lon="11.6823866"><ele>355.0</ele><time>2026-04-09T09:41:08.46Z</time></trkpt><trkpt lat="42.9780721" lon="11.6827149"><ele>353.5</ele><time>2026-04-09T09:41:09.466Z</time></trkpt><trkpt lat="42.9781786" lon="11.6830518"><ele>352.0</ele><time>2026-04-09T09:41:10.462Z</time></trkpt><trkpt lat="42.9783058" lon="11.6834021"><ele>352.0</ele><time>2026-04-09T09:41:11.468Z</time></trkpt><trkpt lat="42.9784236" lon="11.6837686"><ele>352.0</ele><time>2026-04-09T09:41:12.455Z</time></trkpt><trkpt lat="42.978528" lon="11.6841239"><ele>350.5</ele><time>2026-04-09T09:41:13.463Z</time></trkpt><trkpt lat="42.9786317" lon="11.684458"><ele>349.0</ele><time>2026-04-09T09:41:14.463Z</time></trkpt><trkpt lat="42.9787397" lon="11.6847845"><ele>349.0</ele><time>2026-04-09T09:41:15.459Z</time></trkpt><trkpt lat="42.9788378" lon="11.6851258"><ele>349.0</ele><time>2026-04-09T09:41:16.47Z</time></trkpt><trkpt lat="42.9789377" lon="11.6854588"><ele>347.5</ele><time>2026-04-09T09:41:17.474Z</time></trkpt><trkpt lat="42.9790332" lon="11.6857942"><ele>346.0</ele><time>2026-04-09T09:41:18.462Z</time></trkpt><trkpt lat="42.9791328" lon="11.6861596"><ele>345.5</ele><time>2026-04-09T09:41:19.462Z</time></trkpt><trkpt lat="42.979233" lon="11.6865275"><ele>345.0</ele><time>2026-04-09T09:41:20.46Z</time></trkpt><trkpt lat="42.979347" lon="11.6869044"><ele>344.0</ele><time>2026-04-09T09:41:21.45Z</time></trkpt><trkpt lat="42.9794427" lon="11.6872708"><ele>343.0</ele><time>2026-04-09T09:41:22.463Z</time></trkpt><trkpt lat="42.9795228" lon="11.6876113"><ele>342.0</ele><time>2026-04-09T09:41:23.451Z</time></trkpt><trkpt lat="42.9796082" lon="11.6879323"><ele>341.0</ele><time>2026-04-09T09:41:24.463Z</time></trkpt><trkpt lat="42.9797098" lon="11.6882453"><ele>341.0</ele><time>2026-04-09T09:41:25.468Z</time></trkpt><trkpt lat="42.9798116" lon="11.6885731"><ele>341.0</ele><time>2026-04-09T09:41:26.45Z</time></trkpt><trkpt lat="42.979904" lon="11.6888669"><ele>341.0</ele><time>2026-04-09T09:41:27.469Z</time></trkpt><trkpt lat="42.9799732" lon="11.6891619"><ele>341.0</ele><time>2026-04-09T09:41:28.46Z</time></trkpt><trkpt lat="42.9800283" lon="11.6894472"><ele>341.0</ele><time>2026-04-09T09:41:29.468Z</time></trkpt><trkpt lat="42.9800994" lon="11.68973"><ele>341.0</ele><time>2026-04-09T09:41:30.464Z</time></trkpt><trkpt lat="42.9801747" lon="11.6900246"><ele>341.0</ele><time>2026-04-09T09:41:31.488Z</time></trkpt><trkpt lat="42.9802641" lon="11.690337"><ele>340.0</ele><time>2026-04-09T09:41:32.457Z</time></trkpt><trkpt lat="42.9803543" lon="11.6906518"><ele>339.0</ele><time>2026-04-09T09:41:33.466Z</time></trkpt><trkpt lat="42.9804458" lon="11.6910034"><ele>337.5</ele><time>2026-04-09T09:41:34.463Z</time></trkpt><trkpt lat="42.9805492" lon="11.691362"><ele>336.0</ele><time>2026-04-09T09:41:35.471Z</time></trkpt><trkpt lat="42.9806449" lon="11.691715"><ele>334.5</ele><time>2026-04-09T09:41:36.461Z</time></trkpt><trkpt lat="42.980746" lon="11.6920407"><ele>333.0</ele><time>2026-04-09T09:41:37.464Z</time></trkpt><trkpt lat="42.9808311" lon="11.6923514"><ele>334.0</ele><time>2026-04-09T09:41:38.452Z</time></trkpt><trkpt lat="42.9809077" lon="11.6926587"><ele>335.0</ele><time>2026-04-09T09:41:39.459Z</time></trkpt><trkpt lat="42.9809892" lon="11.6929832"><ele>335.0</ele><time>2026-04-09T09:41:40.461Z</time></trkpt><trkpt lat="42.9810683" lon="11.6932882"><ele>335.0</ele><time>2026-04-09T09:41:41.466Z</time></trkpt><trkpt lat="42.981156" lon="11.6935875"><ele>333.6666666666667</ele><time>2026-04-09T09:41:42.452Z</time></trkpt><trkpt lat="42.9812325" lon="11.6938644"><ele>332.3333333333333</ele><time>2026-04-09T09:41:43.458Z</time></trkpt><trkpt lat="42.9813003" lon="11.6941373"><ele>331.0</ele><time>2026-04-09T09:41:44.452Z</time></trkpt><trkpt lat="42.9813603" lon="11.6943756"><ele>329.3333333333333</ele><time>2026-04-09T09:41:45.46Z</time></trkpt><trkpt lat="42.9814527" lon="11.6946063"><ele>327.6666666666667</ele><time>2026-04-09T09:41:46.476Z</time></trkpt><trkpt lat="42.9815519" lon="11.6948239"><ele>326.0</ele><time>2026-04-09T09:41:47.456Z</time></trkpt><trkpt lat="42.9816767" lon="11.6950388"><ele>325.0</ele><time>2026-04-09T09:41:48.466Z</time></trkpt><trkpt lat="42.9818236" lon="11.6952513"><ele>324.0</ele><time>2026-04-09T09:41:49.451Z</time></trkpt><trkpt lat="42.9819739" lon="11.6954628"><ele>323.0</ele><time>2026-04-09T09:41:50.457Z</time></trkpt><trkpt lat="42.9821371" lon="11.6956544"><ele>323.0</ele><time>2026-04-09T09:41:51.457Z</time></trkpt><trkpt lat="42.9823005" lon="11.6958249"><ele>323.0</ele><time>2026-04-09T09:41:52.458Z</time></trkpt><trkpt lat="42.9824662" lon="11.6959658"><ele>323.0</ele><time>2026-04-09T09:41:53.456Z</time></trkpt><trkpt lat="42.9826382" lon="11.6960727"><ele>322.0</ele><time>2026-04-09T09:41:54.452Z</time></trkpt><trkpt lat="42.9828243" lon="11.6961426"><ele>321.0</ele><time>2026-04-09T09:41:55.453Z</time></trkpt><trkpt lat="42.9829774" lon="11.6962117"><ele>320.0</ele><time>2026-04-09T09:41:56.451Z</time></trkpt><trkpt lat="42.9831466" lon="11.6962632"><ele>320.0</ele><time>2026-04-09T09:41:57.454Z</time></trkpt><trkpt lat="42.9832992" lon="11.6962969"><ele>320.0</ele><time>2026-04-09T09:41:58.464Z</time></trkpt><trkpt lat="42.9834561" lon="11.696315"><ele>320.0</ele><time>2026-04-09T09:41:59.46Z</time></trkpt><trkpt lat="42.9835917" lon="11.6963223"><ele>320.0</ele><time>2026-04-09T09:42:00.457Z</time></trkpt><trkpt lat="42.9837368" lon="11.6963363"><ele>319.6666666666667</ele><time>2026-04-09T09:42:01.449Z</time></trkpt><trkpt lat="42.9838956" lon="11.6963047"><ele>319.3333333333333</ele><time>2026-04-09T09:42:02.446Z</time></trkpt><trkpt lat="42.9840769" lon="11.6962308"><ele>319.0</ele><time>2026-04-09T09:42:03.453Z</time></trkpt><trkpt lat="42.9842702" lon="11.6961463"><ele>319.0</ele><time>2026-04-09T09:42:04.455Z</time></trkpt><trkpt lat="42.9844412" lon="11.6960612"><ele>319.0</ele><time>2026-04-09T09:42:05.444Z</time></trkpt><trkpt lat="42.9846106" lon="11.6959917"><ele>319.0</ele><time>2026-04-09T09:42:06.469Z</time></trkpt><trkpt lat="42.9847504" lon="11.6959506"><ele>319.0</ele><time>2026-04-09T09:42:07.453Z</time></trkpt><trkpt lat="42.9848952" lon="11.6959142"><ele>319.0</ele><time>2026-04-09T09:42:08.449Z</time></trkpt><trkpt lat="42.9850317" lon="11.6958573"><ele>319.0</ele><time>2026-04-09T09:42:09.454Z</time></trkpt><trkpt lat="42.9851609" lon="11.6958404"><ele>319.0</ele><time>2026-04-09T09:42:10.449Z</time></trkpt><trkpt lat="42.9852506" lon="11.6958621"><ele>319.2</ele><time>2026-04-09T09:42:11.452Z</time></trkpt><trkpt lat="42.9853225" lon="11.6959497"><ele>319.4</ele><time>2026-04-09T09:42:12.449Z</time></trkpt><trkpt lat="42.9853769" lon="11.6960451"><ele>319.6</ele><time>2026-04-09T09:42:13.435Z</time></trkpt><trkpt lat="42.9853936" lon="11.6961548"><ele>319.8</ele><time>2026-04-09T09:42:14.443Z</time></trkpt><trkpt lat="42.9853808" lon="11.6962878"><ele>320.0</ele><time>2026-04-09T09:42:15.441Z</time></trkpt><trkpt lat="42.9853313" lon="11.6964261"><ele>320.0</ele><time>2026-04-09T09:42:16.461Z</time></trkpt><trkpt lat="42.9852292" lon="11.6965732"><ele>320.0</ele><time>2026-04-09T09:42:17.443Z</time></trkpt><trkpt lat="42.9851016" lon="11.6967363"><ele>320.0</ele><time>2026-04-09T09:42:18.451Z</time></trkpt><trkpt lat="42.9849461" lon="11.6969528"><ele>320.0</ele><time>2026-04-09T09:42:19.455Z</time></trkpt><trkpt lat="42.9848143" lon="11.697184"><ele>320.0</ele><time>2026-04-09T09:42:20.45Z</time></trkpt><trkpt lat="42.9846748" lon="11.6974247"><ele>320.0</ele><time>2026-04-09T09:42:21.492Z</time></trkpt><trkpt lat="42.9845475" lon="11.6976742"><ele>323.5</ele><time>2026-04-09T09:42:22.472Z</time></trkpt><trkpt lat="42.9844154" lon="11.69792"><ele>327.0</ele><time>2026-04-09T09:42:23.462Z</time></trkpt><trkpt lat="42.9842696" lon="11.6981874"><ele>326.5</ele><time>2026-04-09T09:42:24.454Z</time></trkpt><trkpt lat="42.984128" lon="11.6984454"><ele>326.0</ele><time>2026-04-09T09:42:25.449Z</time></trkpt><trkpt lat="42.9839888" lon="11.6987169"><ele>329.0</ele><time>2026-04-09T09:42:26.453Z</time></trkpt><trkpt lat="42.9838395" lon="11.6989905"><ele>332.0</ele><time>2026-04-09T09:42:27.458Z</time></trkpt><trkpt lat="42.9836981" lon="11.6992799"><ele>336.5</ele><time>2026-04-09T09:42:28.445Z</time></trkpt><trkpt lat="42.9835517" lon="11.6995785"><ele>341.0</ele><time>2026-04-09T09:42:29.458Z</time></trkpt><trkpt lat="42.9834263" lon="11.6998727"><ele>338.0</ele><time>2026-04-09T09:42:30.456Z</time></trkpt><trkpt lat="42.9833073" lon="11.7001907"><ele>335.0</ele><time>2026-04-09T09:42:31.443Z</time></trkpt><trkpt lat="42.9831863" lon="11.7005301"><ele>335.0</ele><time>2026-04-09T09:42:32.461Z</time></trkpt><trkpt lat="42.9830652" lon="11.7008683"><ele>335.0</ele><time>2026-04-09T09:42:33.448Z</time></trkpt><trkpt lat="42.9829752" lon="11.7012099"><ele>336.5</ele><time>2026-04-09T09:42:34.48Z</time></trkpt><trkpt lat="42.9828727" lon="11.7014919"><ele>338.0</ele><time>2026-04-09T09:42:35.457Z</time></trkpt><trkpt lat="42.9827718" lon="11.7017681"><ele>340.0</ele><time>2026-04-09T09:42:36.456Z</time></trkpt><trkpt lat="42.9826743" lon="11.7020687"><ele>342.0</ele><time>2026-04-09T09:42:37.462Z</time></trkpt><trkpt lat="42.9825575" lon="11.7023694"><ele>345.5</ele><time>2026-04-09T09:42:38.476Z</time></trkpt><trkpt lat="42.9824218" lon="11.7026757"><ele>349.0</ele><time>2026-04-09T09:42:39.452Z</time></trkpt><trkpt lat="42.9822825" lon="11.7029828"><ele>349.0</ele><time>2026-04-09T09:42:40.462Z</time></trkpt><trkpt lat="42.9821456" lon="11.7032869"><ele>349.0</ele><time>2026-04-09T09:42:41.453Z</time></trkpt><trkpt lat="42.9820029" lon="11.7035767"><ele>347.5</ele><time>2026-04-09T09:42:42.452Z</time></trkpt><trkpt lat="42.9818487" lon="11.7038789"><ele>346.0</ele><time>2026-04-09T09:42:43.459Z</time></trkpt><trkpt lat="42.9816795" lon="11.7041369"><ele>347.5</ele><time>2026-04-09T09:42:44.48Z</time></trkpt><trkpt lat="42.9815068" lon="11.704403"><ele>349.0</ele><time>2026-04-09T09:42:45.452Z</time></trkpt><trkpt lat="42.9813098" lon="11.704646"><ele>349.0</ele><time>2026-04-09T09:42:46.454Z</time></trkpt><trkpt lat="42.981122" lon="11.7048519"><ele>349.0</ele><time>2026-04-09T09:42:47.456Z</time></trkpt><trkpt lat="42.9809157" lon="11.7050726"><ele>352.0</ele><time>2026-04-09T09:42:48.456Z</time></trkpt><trkpt lat="42.9806932" lon="11.7052837"><ele>355.0</ele><time>2026-04-09T09:42:49.453Z</time></trkpt><trkpt lat="42.9804622" lon="11.7054704"><ele>355.0</ele><time>2026-04-09T09:42:50.457Z</time></trkpt><trkpt lat="42.9802325" lon="11.7056425"><ele>355.0</ele><time>2026-04-09T09:42:51.461Z</time></trkpt><trkpt lat="42.9799935" lon="11.7058097"><ele>355.0</ele><time>2026-04-09T09:42:52.465Z</time></trkpt><trkpt lat="42.9797465" lon="11.7059516"><ele>355.0</ele><time>2026-04-09T09:42:53.459Z</time></trkpt><trkpt lat="42.9794571" lon="11.7060892"><ele>353.5</ele><time>2026-04-09T09:42:54.454Z</time></trkpt><trkpt lat="42.9791598" lon="11.7061919"><ele>352.0</ele><time>2026-04-09T09:42:55.46Z</time></trkpt><trkpt lat="42.9788771" lon="11.7062616"><ele>352.0</ele><time>2026-04-09T09:42:56.461Z</time></trkpt><trkpt lat="42.978588" lon="11.7063184"><ele>352.0</ele><time>2026-04-09T09:42:57.463Z</time></trkpt><trkpt lat="42.9783002" lon="11.7063618"><ele>351.0</ele><time>2026-04-09T09:42:58.46Z</time></trkpt><trkpt lat="42.9780127" lon="11.7063869"><ele>350.0</ele><time>2026-04-09T09:42:59.452Z</time></trkpt><trkpt lat="42.9777221" lon="11.70639"><ele>351.0</ele><time>2026-04-09T09:43:00.458Z</time></trkpt><trkpt lat="42.9774423" lon="11.7063821"><ele>352.0</ele><time>2026-04-09T09:43:01.451Z</time></trkpt><trkpt lat="42.9771393" lon="11.7063521"><ele>352.0</ele><time>2026-04-09T09:43:02.46Z</time></trkpt><trkpt lat="42.9768366" lon="11.7063085"><ele>352.0</ele><time>2026-04-09T09:43:03.462Z</time></trkpt><trkpt lat="42.9765293" lon="11.7062735"><ele>352.0</ele><time>2026-04-09T09:43:04.456Z</time></trkpt><trkpt lat="42.9762351" lon="11.7062815"><ele>352.0</ele><time>2026-04-09T09:43:05.453Z</time></trkpt><trkpt lat="42.975947" lon="11.7062526"><ele>352.5</ele><time>2026-04-09T09:43:06.463Z</time></trkpt><trkpt lat="42.9756667" lon="11.7062385"><ele>353.0</ele><time>2026-04-09T09:43:07.455Z</time></trkpt><trkpt lat="42.9753838" lon="11.7061901"><ele>353.0</ele><time>2026-04-09T09:43:08.463Z</time></trkpt><trkpt lat="42.9751117" lon="11.7061582"><ele>353.0</ele><time>2026-04-09T09:43:09.462Z</time></trkpt><trkpt lat="42.9748339" lon="11.706129"><ele>353.5</ele><time>2026-04-09T09:43:10.46Z</time></trkpt><trkpt lat="42.9745532" lon="11.7060971"><ele>354.0</ele><time>2026-04-09T09:43:11.463Z</time></trkpt><trkpt lat="42.974259" lon="11.7060733"><ele>358.5</ele><time>2026-04-09T09:43:12.46Z</time></trkpt><trkpt lat="42.973985" lon="11.7060368"><ele>363.0</ele><time>2026-04-09T09:43:13.451Z</time></trkpt><trkpt lat="42.9737098" lon="11.7060052"><ele>363.0</ele><time>2026-04-09T09:43:14.461Z</time></trkpt><trkpt lat="42.9734365" lon="11.7059642"><ele>363.0</ele><time>2026-04-09T09:43:15.453Z</time></trkpt><trkpt lat="42.9731593" lon="11.7059609"><ele>362.5</ele><time>2026-04-09T09:43:16.454Z</time></trkpt><trkpt lat="42.9728772" lon="11.7059455"><ele>362.0</ele><time>2026-04-09T09:43:17.457Z</time></trkpt><trkpt lat="42.9725911" lon="11.7059149"><ele>362.0</ele><time>2026-04-09T09:43:18.461Z</time></trkpt><trkpt lat="42.9723109" lon="11.7058961"><ele>362.0</ele><time>2026-04-09T09:43:19.451Z</time></trkpt><trkpt lat="42.972031" lon="11.7058649"><ele>362.0</ele><time>2026-04-09T09:43:20.457Z</time></trkpt><trkpt lat="42.9717334" lon="11.7058302"><ele>362.0</ele><time>2026-04-09T09:43:21.46Z</time></trkpt><trkpt lat="42.9714529" lon="11.705797"><ele>361.0</ele><time>2026-04-09T09:43:22.453Z</time></trkpt><trkpt lat="42.9711582" lon="11.7057696"><ele>360.0</ele><time>2026-04-09T09:43:23.457Z</time></trkpt><trkpt lat="42.9708709" lon="11.7057403"><ele>361.5</ele><time>2026-04-09T09:43:24.459Z</time></trkpt><trkpt lat="42.9705861" lon="11.7057276"><ele>363.0</ele><time>2026-04-09T09:43:25.454Z</time></trkpt><trkpt lat="42.9702952" lon="11.7057169"><ele>363.5</ele><time>2026-04-09T09:43:26.457Z</time></trkpt><trkpt lat="42.9699973" lon="11.7057125"><ele>364.0</ele><time>2026-04-09T09:43:27.458Z</time></trkpt><trkpt lat="42.9696985" lon="11.7056996"><ele>364.0</ele><time>2026-04-09T09:43:28.464Z</time></trkpt><trkpt lat="42.9694109" lon="11.7056894"><ele>364.0</ele><time>2026-04-09T09:43:29.461Z</time></trkpt><trkpt lat="42.9691093" lon="11.7056911"><ele>364.5</ele><time>2026-04-09T09:43:30.458Z</time></trkpt><trkpt lat="42.9687995" lon="11.7057063"><ele>365.0</ele><time>2026-04-09T09:43:31.444Z</time></trkpt><trkpt lat="42.9684918" lon="11.7057314"><ele>365.5</ele><time>2026-04-09T09:43:32.452Z</time></trkpt><trkpt lat="42.9681805" lon="11.7057645"><ele>366.0</ele><time>2026-04-09T09:43:33.452Z</time></trkpt><trkpt lat="42.9678588" lon="11.7058032"><ele>366.0</ele><time>2026-04-09T09:43:34.449Z</time></trkpt><trkpt lat="42.9675287" lon="11.7058261"><ele>366.0</ele><time>2026-04-09T09:43:35.456Z</time></trkpt><trkpt lat="42.9672024" lon="11.7058399"><ele>367.5</ele><time>2026-04-09T09:43:36.458Z</time></trkpt><trkpt lat="42.966873" lon="11.7058575"><ele>369.0</ele><time>2026-04-09T09:43:37.451Z</time></trkpt><trkpt lat="42.9665403" lon="11.705864"><ele>369.0</ele><time>2026-04-09T09:43:38.451Z</time></trkpt><trkpt lat="42.9662186" lon="11.7058659"><ele>369.0</ele><time>2026-04-09T09:43:39.454Z</time></trkpt><trkpt lat="42.9658859" lon="11.7058628"><ele>371.0</ele><time>2026-04-09T09:43:40.451Z</time></trkpt><trkpt lat="42.965556" lon="11.7058527"><ele>373.0</ele><time>2026-04-09T09:43:41.454Z</time></trkpt><trkpt lat="42.9652326" lon="11.7058592"><ele>372.5</ele><time>2026-04-09T09:43:42.448Z</time></trkpt><trkpt lat="42.9649292" lon="11.7058696"><ele>372.0</ele><time>2026-04-09T09:43:43.455Z</time></trkpt><trkpt lat="42.9646334" lon="11.7058841"><ele>372.0</ele><time>2026-04-09T09:43:44.452Z</time></trkpt><trkpt lat="42.9643461" lon="11.7059138"><ele>372.0</ele><time>2026-04-09T09:43:45.453Z</time></trkpt><trkpt lat="42.9640538" lon="11.7059472"><ele>371.5</ele><time>2026-04-09T09:43:46.462Z</time></trkpt><trkpt lat="42.9637549" lon="11.7059656"><ele>371.0</ele><time>2026-04-09T09:43:47.456Z</time></trkpt><trkpt lat="42.963448" lon="11.705954"><ele>372.5</ele><time>2026-04-09T09:43:48.452Z</time></trkpt><trkpt lat="42.9631527" lon="11.7059154"><ele>374.0</ele><time>2026-04-09T09:43:49.454Z</time></trkpt><trkpt lat="42.9628512" lon="11.7059091"><ele>374.0</ele><time>2026-04-09T09:43:50.453Z</time></trkpt><trkpt lat="42.9625382" lon="11.7059426"><ele>374.0</ele><time>2026-04-09T09:43:51.458Z</time></trkpt><trkpt lat="42.9622296" lon="11.705973"><ele>375.0</ele><time>2026-04-09T09:43:52.453Z</time></trkpt><trkpt lat="42.9619173" lon="11.7059943"><ele>376.0</ele><time>2026-04-09T09:43:53.454Z</time></trkpt><trkpt lat="42.9616247" lon="11.7060229"><ele>378.0</ele><time>2026-04-09T09:43:54.45Z</time></trkpt><trkpt lat="42.9613292" lon="11.7060532"><ele>380.0</ele><time>2026-04-09T09:43:55.455Z</time></trkpt><trkpt lat="42.9610377" lon="11.7060815"><ele>376.5</ele><time>2026-04-09T09:43:56.451Z</time></trkpt><trkpt lat="42.9607588" lon="11.7061121"><ele>373.0</ele><time>2026-04-09T09:43:57.455Z</time></trkpt><trkpt lat="42.9604766" lon="11.7061329"><ele>373.0</ele><time>2026-04-09T09:43:58.453Z</time></trkpt><trkpt lat="42.9601869" lon="11.7061586"><ele>373.0</ele><time>2026-04-09T09:43:59.452Z</time></trkpt><trkpt lat="42.9598905" lon="11.7062018"><ele>374.5</ele><time>2026-04-09T09:44:00.454Z</time></trkpt><trkpt lat="42.9596003" lon="11.7062483"><ele>376.0</ele><time>2026-04-09T09:44:01.457Z</time></trkpt><trkpt lat="42.959304" lon="11.7062894"><ele>376.5</ele><time>2026-04-09T09:44:02.451Z</time></trkpt><trkpt lat="42.958992" lon="11.7063403"><ele>377.0</ele><time>2026-04-09T09:44:03.451Z</time></trkpt><trkpt lat="42.958701" lon="11.7063965"><ele>377.0</ele><time>2026-04-09T09:44:04.45Z</time></trkpt><trkpt lat="42.9584031" lon="11.7064527"><ele>377.0</ele><time>2026-04-09T09:44:05.454Z</time></trkpt><trkpt lat="42.9580881" lon="11.7065193"><ele>379.0</ele><time>2026-04-09T09:44:06.45Z</time></trkpt><trkpt lat="42.957793" lon="11.7065687"><ele>381.0</ele><time>2026-04-09T09:44:07.454Z</time></trkpt><trkpt lat="42.9575066" lon="11.7066031"><ele>382.5</ele><time>2026-04-09T09:44:08.45Z</time></trkpt><trkpt lat="42.9572059" lon="11.7066423"><ele>384.0</ele><time>2026-04-09T09:44:09.451Z</time></trkpt><trkpt lat="42.9569021" lon="11.7066868"><ele>385.5</ele><time>2026-04-09T09:44:10.45Z</time></trkpt><trkpt lat="42.9566068" lon="11.7067297"><ele>387.0</ele><time>2026-04-09T09:44:11.448Z</time></trkpt><trkpt lat="42.9563005" lon="11.7067858"><ele>387.0</ele><time>2026-04-09T09:44:12.454Z</time></trkpt><trkpt lat="42.9560021" lon="11.7068466"><ele>387.0</ele><time>2026-04-09T09:44:13.45Z</time></trkpt><trkpt lat="42.9557084" lon="11.7068963"><ele>384.0</ele><time>2026-04-09T09:44:14.459Z</time></trkpt><trkpt lat="42.9554033" lon="11.7069519"><ele>381.0</ele><time>2026-04-09T09:44:15.452Z</time></trkpt><trkpt lat="42.9551123" lon="11.7070134"><ele>382.0</ele><time>2026-04-09T09:44:16.448Z</time></trkpt><trkpt lat="42.9548168" lon="11.7070707"><ele>383.0</ele><time>2026-04-09T09:44:17.449Z</time></trkpt><trkpt lat="42.9545185" lon="11.7071273"><ele>383.0</ele><time>2026-04-09T09:44:18.454Z</time></trkpt><trkpt lat="42.9542212" lon="11.7071795"><ele>383.0</ele><time>2026-04-09T09:44:19.447Z</time></trkpt><trkpt lat="42.9539067" lon="11.7072422"><ele>384.0</ele><time>2026-04-09T09:44:20.45Z</time></trkpt><trkpt lat="42.9536075" lon="11.7072853"><ele>385.0</ele><time>2026-04-09T09:44:21.456Z</time></trkpt><trkpt lat="42.9533111" lon="11.7073395"><ele>386.5</ele><time>2026-04-09T09:44:22.455Z</time></trkpt><trkpt lat="42.9530054" lon="11.70739"><ele>388.0</ele><time>2026-04-09T09:44:23.455Z</time></trkpt><trkpt lat="42.9527194" lon="11.7074507"><ele>391.0</ele><time>2026-04-09T09:44:24.447Z</time></trkpt><trkpt lat="42.9524608" lon="11.7074958"><ele>394.0</ele><time>2026-04-09T09:44:25.449Z</time></trkpt><trkpt lat="42.9522051" lon="11.7075387"><ele>394.0</ele><time>2026-04-09T09:44:26.452Z</time></trkpt><trkpt lat="42.9519475" lon="11.7075814"><ele>394.0</ele><time>2026-04-09T09:44:27.45Z</time></trkpt><trkpt lat="42.9516811" lon="11.7076175"><ele>396.5</ele><time>2026-04-09T09:44:28.452Z</time></trkpt><trkpt lat="42.9514349" lon="11.7076652"><ele>399.0</ele><time>2026-04-09T09:44:29.451Z</time></trkpt><trkpt lat="42.9511832" lon="11.7077187"><ele>395.5</ele><time>2026-04-09T09:44:30.453Z</time></trkpt><trkpt lat="42.9509212" lon="11.7077678"><ele>392.0</ele><time>2026-04-09T09:44:31.453Z</time></trkpt><trkpt lat="42.950677" lon="11.7078029"><ele>392.0</ele><time>2026-04-09T09:44:32.449Z</time></trkpt><trkpt lat="42.9504247" lon="11.7078301"><ele>392.0</ele><time>2026-04-09T09:44:33.462Z</time></trkpt><trkpt lat="42.9501639" lon="11.7078678"><ele>393.5</ele><time>2026-04-09T09:44:34.479Z</time></trkpt><trkpt lat="42.9499183" lon="11.7079181"><ele>395.0</ele><time>2026-04-09T09:44:35.471Z</time></trkpt><trkpt lat="42.94967" lon="11.7079579"><ele>395.0</ele><time>2026-04-09T09:44:36.459Z</time></trkpt><trkpt lat="42.9494142" lon="11.7080277"><ele>395.0</ele><time>2026-04-09T09:44:37.452Z</time></trkpt><trkpt lat="42.9491595" lon="11.7081047"><ele>396.0</ele><time>2026-04-09T09:44:38.453Z</time></trkpt><trkpt lat="42.948895" lon="11.7082129"><ele>397.0</ele><time>2026-04-09T09:44:39.45Z</time></trkpt><trkpt lat="42.9486347" lon="11.708356"><ele>396.0</ele><time>2026-04-09T09:44:40.455Z</time></trkpt><trkpt lat="42.9483632" lon="11.7084981"><ele>395.0</ele><time>2026-04-09T09:44:41.459Z</time></trkpt><trkpt lat="42.9480867" lon="11.7086465"><ele>395.0</ele><time>2026-04-09T09:44:42.443Z</time></trkpt><trkpt lat="42.9478368" lon="11.7087633"><ele>395.0</ele><time>2026-04-09T09:44:43.447Z</time></trkpt><trkpt lat="42.947614" lon="11.7088643"><ele>398.0</ele><time>2026-04-09T09:44:44.447Z</time></trkpt><trkpt lat="42.9471779" lon="11.7090947"><ele>398.0</ele><time>2026-04-09T09:44:46.45Z</time></trkpt><trkpt lat="42.9469709" lon="11.7091963"><ele>398.0</ele><time>2026-04-09T09:44:47.447Z</time></trkpt><trkpt lat="42.9467449" lon="11.7093026"><ele>398.0</ele><time>2026-04-09T09:44:48.453Z</time></trkpt><trkpt lat="42.9465172" lon="11.7094311"><ele>398.0</ele><time>2026-04-09T09:44:49.45Z</time></trkpt><trkpt lat="42.946275" lon="11.7095447"><ele>398.0</ele><time>2026-04-09T09:44:50.449Z</time></trkpt><trkpt lat="42.9460225" lon="11.7096704"><ele>398.0</ele><time>2026-04-09T09:44:51.451Z</time></trkpt><trkpt lat="42.9457742" lon="11.7097802"><ele>399.0</ele><time>2026-04-09T09:44:52.448Z</time></trkpt><trkpt lat="42.945536" lon="11.7099012"><ele>400.0</ele><time>2026-04-09T09:44:53.445Z</time></trkpt><trkpt lat="42.9452724" lon="11.7100371"><ele>403.5</ele><time>2026-04-09T09:44:54.444Z</time></trkpt><trkpt lat="42.9450003" lon="11.7101672"><ele>407.0</ele><time>2026-04-09T09:44:55.44Z</time></trkpt><trkpt lat="42.9447379" lon="11.7102392"><ele>405.0</ele><time>2026-04-09T09:44:56.445Z</time></trkpt><trkpt lat="42.9444584" lon="11.7103083"><ele>403.0</ele><time>2026-04-09T09:44:57.443Z</time></trkpt><trkpt lat="42.9441682" lon="11.7103746"><ele>403.0</ele><time>2026-04-09T09:44:58.458Z</time></trkpt><trkpt lat="42.9438909" lon="11.7104281"><ele>403.0</ele><time>2026-04-09T09:44:59.444Z</time></trkpt><trkpt lat="42.9436272" lon="11.7104619"><ele>404.0</ele><time>2026-04-09T09:45:00.444Z</time></trkpt><trkpt lat="42.943338" lon="11.7105013"><ele>405.0</ele><time>2026-04-09T09:45:01.434Z</time></trkpt><trkpt lat="42.9430675" lon="11.7105267"><ele>405.0</ele><time>2026-04-09T09:45:02.437Z</time></trkpt><trkpt lat="42.9428123" lon="11.71058"><ele>405.0</ele><time>2026-04-09T09:45:03.437Z</time></trkpt><trkpt lat="42.9425855" lon="11.7106406"><ele>405.0</ele><time>2026-04-09T09:45:04.436Z</time></trkpt><trkpt lat="42.9423667" lon="11.710672"><ele>405.0</ele><time>2026-04-09T09:45:05.437Z</time></trkpt><trkpt lat="42.9421626" lon="11.7106879"><ele>405.0</ele><time>2026-04-09T09:45:06.435Z</time></trkpt><trkpt lat="42.9419618" lon="11.7107235"><ele>405.0</ele><time>2026-04-09T09:45:07.439Z</time></trkpt><trkpt lat="42.9417643" lon="11.710733"><ele>405.0</ele><time>2026-04-09T09:45:08.432Z</time></trkpt><trkpt lat="42.941579" lon="11.7107555"><ele>405.0</ele><time>2026-04-09T09:45:09.437Z</time></trkpt><trkpt lat="42.9414024" lon="11.7107733"><ele>407.0</ele><time>2026-04-09T09:45:10.433Z</time></trkpt><trkpt lat="42.9412291" lon="11.7108184"><ele>409.0</ele><time>2026-04-09T09:45:11.436Z</time></trkpt><trkpt lat="42.9410372" lon="11.710902"><ele>411.0</ele><time>2026-04-09T09:45:12.438Z</time></trkpt><trkpt lat="42.9408546" lon="11.7109725"><ele>410.66666666666663</ele><time>2026-04-09T09:45:13.437Z</time></trkpt><trkpt lat="42.940665" lon="11.7110288"><ele>410.3333333333333</ele><time>2026-04-09T09:45:14.434Z</time></trkpt><trkpt lat="42.9404759" lon="11.7111109"><ele>410.0</ele><time>2026-04-09T09:45:15.441Z</time></trkpt><trkpt lat="42.940279" lon="11.7111895"><ele>410.0</ele><time>2026-04-09T09:45:16.437Z</time></trkpt><trkpt lat="42.9400563" lon="11.7112998"><ele>410.0</ele><time>2026-04-09T09:45:17.44Z</time></trkpt><trkpt lat="42.9398466" lon="11.7114077"><ele>413.0</ele><time>2026-04-09T09:45:18.493Z</time></trkpt><trkpt lat="42.9396227" lon="11.7115415"><ele>416.0</ele><time>2026-04-09T09:45:19.461Z</time></trkpt><trkpt lat="42.9393833" lon="11.7116622"><ele>420.0</ele><time>2026-04-09T09:45:20.444Z</time></trkpt><trkpt lat="42.939143" lon="11.7117806"><ele>424.0</ele><time>2026-04-09T09:45:21.449Z</time></trkpt><trkpt lat="42.9388872" lon="11.7119"><ele>420.0</ele><time>2026-04-09T09:45:22.44Z</time></trkpt><trkpt lat="42.938662" lon="11.7120236"><ele>416.0</ele><time>2026-04-09T09:45:23.446Z</time></trkpt><trkpt lat="42.9384296" lon="11.7121364"><ele>418.0</ele><time>2026-04-09T09:45:24.441Z</time></trkpt><trkpt lat="42.9381958" lon="11.7122562"><ele>420.0</ele><time>2026-04-09T09:45:25.446Z</time></trkpt><trkpt lat="42.9379415" lon="11.712373"><ele>420.0</ele><time>2026-04-09T09:45:26.446Z</time></trkpt><trkpt lat="42.9376844" lon="11.7125026"><ele>420.0</ele><time>2026-04-09T09:45:27.451Z</time></trkpt><trkpt lat="42.9374343" lon="11.712637"><ele>421.5</ele><time>2026-04-09T09:45:28.448Z</time></trkpt><trkpt lat="42.937166" lon="11.712774"><ele>423.0</ele><time>2026-04-09T09:45:29.457Z</time></trkpt><trkpt lat="42.9369014" lon="11.7129143"><ele>426.0</ele><time>2026-04-09T09:45:30.449Z</time></trkpt><trkpt lat="42.9366348" lon="11.7130449"><ele>429.0</ele><time>2026-04-09T09:45:31.453Z</time></trkpt><trkpt lat="42.9364017" lon="11.7131527"><ele>429.0</ele><time>2026-04-09T09:45:32.448Z</time></trkpt><trkpt lat="42.9361939" lon="11.7132726"><ele>429.0</ele><time>2026-04-09T09:45:33.447Z</time></trkpt><trkpt lat="42.9360214" lon="11.7133649"><ele>429.0</ele><time>2026-04-09T09:45:34.457Z</time></trkpt><trkpt lat="42.9358443" lon="11.713439"><ele>429.66666666666663</ele><time>2026-04-09T09:45:35.451Z</time></trkpt><trkpt lat="42.9356837" lon="11.7135175"><ele>430.3333333333333</ele><time>2026-04-09T09:45:36.455Z</time></trkpt><trkpt lat="42.9355225" lon="11.7135666"><ele>431.0</ele><time>2026-04-09T09:45:37.448Z</time></trkpt><trkpt lat="42.9353633" lon="11.7136297"><ele>433.5</ele><time>2026-04-09T09:45:38.452Z</time></trkpt><trkpt lat="42.9352272" lon="11.713673"><ele>436.0</ele><time>2026-04-09T09:45:39.44Z</time></trkpt><trkpt lat="42.9351114" lon="11.7137168"><ele>438.5</ele><time>2026-04-09T09:45:40.445Z</time></trkpt><trkpt lat="42.9349977" lon="11.713737"><ele>441.0</ele><time>2026-04-09T09:45:41.445Z</time></trkpt><trkpt lat="42.9349002" lon="11.7137495"><ele>441.1666666666667</ele><time>2026-04-09T09:45:42.434Z</time></trkpt><trkpt lat="42.9348243" lon="11.7137511"><ele>441.33333333333337</ele><time>2026-04-09T09:45:43.449Z</time></trkpt><trkpt lat="42.9347422" lon="11.7137836"><ele>441.5</ele><time>2026-04-09T09:45:45.438Z</time></trkpt><trkpt lat="42.9346953" lon="11.7138604"><ele>441.6666666666667</ele><time>2026-04-09T09:45:48.446Z</time></trkpt><trkpt lat="42.9347866" lon="11.7138631"><ele>441.83333333333337</ele><time>2026-04-09T09:45:51.44Z</time></trkpt><trkpt lat="42.9348949" lon="11.713795"><ele>442.0</ele><time>2026-04-09T09:45:53.446Z</time></trkpt><trkpt lat="42.9349777" lon="11.7137472"><ele>441.75</ele><time>2026-04-09T09:45:54.437Z</time></trkpt><trkpt lat="42.9350775" lon="11.7137047"><ele>441.5</ele><time>2026-04-09T09:45:55.445Z</time></trkpt><trkpt lat="42.935199" lon="11.7136665"><ele>441.25</ele><time>2026-04-09T09:45:56.447Z</time></trkpt><trkpt lat="42.9353425" lon="11.7136264"><ele>441.0</ele><time>2026-04-09T09:45:57.447Z</time></trkpt><trkpt lat="42.9355125" lon="11.7135877"><ele>437.66666666666663</ele><time>2026-04-09T09:45:58.443Z</time></trkpt><trkpt lat="42.9356812" lon="11.7135121"><ele>434.3333333333333</ele><time>2026-04-09T09:45:59.469Z</time></trkpt><trkpt lat="42.9358629" lon="11.7134493"><ele>431.0</ele><time>2026-04-09T09:46:00.442Z</time></trkpt><trkpt lat="42.9360763" lon="11.7133418"><ele>430.3333333333333</ele><time>2026-04-09T09:46:01.442Z</time></trkpt><trkpt lat="42.9362841" lon="11.7132799"><ele>429.66666666666663</ele><time>2026-04-09T09:46:02.442Z</time></trkpt><trkpt lat="42.9364985" lon="11.713144"><ele>429.0</ele><time>2026-04-09T09:46:03.438Z</time></trkpt><trkpt lat="42.9366969" lon="11.7130633"><ele>427.0</ele><time>2026-04-09T09:46:04.443Z</time></trkpt><trkpt lat="42.9368626" lon="11.7129972"><ele>425.0</ele><time>2026-04-09T09:46:05.448Z</time></trkpt><trkpt lat="42.9370224" lon="11.7129272"><ele>423.0</ele><time>2026-04-09T09:46:06.469Z</time></trkpt><trkpt lat="42.9371809" lon="11.7128344"><ele>423.0</ele><time>2026-04-09T09:46:07.457Z</time></trkpt><trkpt lat="42.9373475" lon="11.7127394"><ele>423.0</ele><time>2026-04-09T09:46:08.451Z</time></trkpt><trkpt lat="42.9374925" lon="11.7126555"><ele>423.0</ele><time>2026-04-09T09:46:09.451Z</time></trkpt><trkpt lat="42.9376489" lon="11.7125806"><ele>422.25</ele><time>2026-04-09T09:46:10.46Z</time></trkpt><trkpt lat="42.9377861" lon="11.7125225"><ele>421.5</ele><time>2026-04-09T09:46:11.455Z</time></trkpt><trkpt lat="42.937928" lon="11.7124418"><ele>420.75</ele><time>2026-04-09T09:46:12.45Z</time></trkpt><trkpt lat="42.9380062" lon="11.7123773"><ele>420.0</ele><time>2026-04-09T09:46:13.446Z</time></trkpt><trkpt lat="42.9380696" lon="11.7123617"><ele>420.0</ele><time>2026-04-09T09:46:14.441Z</time></trkpt><trkpt lat="42.9381278" lon="11.7123969"><ele>420.0</ele><time>2026-04-09T09:46:15.441Z</time></trkpt><trkpt lat="42.938147" lon="11.7125201"><ele>420.0</ele><time>2026-04-09T09:46:17.484Z</time></trkpt><trkpt lat="42.9381221" lon="11.7126083"><ele>420.0</ele><time>2026-04-09T09:46:18.436Z</time></trkpt><trkpt lat="42.9380715" lon="11.7127186"><ele>420.0</ele><time>2026-04-09T09:46:19.443Z</time></trkpt><trkpt lat="42.9379931" lon="11.7128519"><ele>420.0</ele><time>2026-04-09T09:46:20.449Z</time></trkpt><trkpt lat="42.9379089" lon="11.7130108"><ele>419.25</ele><time>2026-04-09T09:46:21.458Z</time></trkpt><trkpt lat="42.9378288" lon="11.7131764"><ele>418.5</ele><time>2026-04-09T09:46:22.443Z</time></trkpt><trkpt lat="42.9377496" lon="11.7133317"><ele>417.75</ele><time>2026-04-09T09:46:23.444Z</time></trkpt><trkpt lat="42.9376727" lon="11.7134765"><ele>417.0</ele><time>2026-04-09T09:46:24.445Z</time></trkpt><trkpt lat="42.9375895" lon="11.7136327"><ele>421.66666666666663</ele><time>2026-04-09T09:46:25.445Z</time></trkpt><trkpt lat="42.9374617" lon="11.7137124"><ele>426.3333333333333</ele><time>2026-04-09T09:46:26.441Z</time></trkpt><trkpt lat="42.9373214" lon="11.7137292"><ele>431.0</ele><time>2026-04-09T09:46:27.445Z</time></trkpt><trkpt lat="42.9371551" lon="11.7137757"><ele>431.0</ele><time>2026-04-09T09:46:28.481Z</time></trkpt><trkpt lat="42.9370079" lon="11.713791"><ele>431.0</ele><time>2026-04-09T09:46:29.447Z</time></trkpt><trkpt lat="42.9368529" lon="11.7137937"><ele>431.0</ele><time>2026-04-09T09:46:30.447Z</time></trkpt><trkpt lat="42.9366825" lon="11.7138132"><ele>432.66666666666663</ele><time>2026-04-09T09:46:31.446Z</time></trkpt><trkpt lat="42.9364985" lon="11.7138334"><ele>434.33333333333337</ele><time>2026-04-09T09:46:32.451Z</time></trkpt><trkpt lat="42.9362945" lon="11.7138479"><ele>436.0</ele><time>2026-04-09T09:46:33.449Z</time></trkpt><trkpt lat="42.9361038" lon="11.7138659"><ele>436.0</ele><time>2026-04-09T09:46:34.452Z</time></trkpt><trkpt lat="42.935954" lon="11.7138981"><ele>436.0</ele><time>2026-04-09T09:46:35.454Z</time></trkpt><trkpt lat="42.9357804" lon="11.713969"><ele>436.0</ele><time>2026-04-09T09:46:36.444Z</time></trkpt><trkpt lat="42.9355994" lon="11.7140709"><ele>437.6666666666667</ele><time>2026-04-09T09:46:37.451Z</time></trkpt><trkpt lat="42.935419" lon="11.7141728"><ele>439.33333333333337</ele><time>2026-04-09T09:46:38.447Z</time></trkpt><trkpt lat="42.935219" lon="11.7142895"><ele>441.0</ele><time>2026-04-09T09:46:39.45Z</time></trkpt><trkpt lat="42.9349941" lon="11.7143859"><ele>444.33333333333337</ele><time>2026-04-09T09:46:40.452Z</time></trkpt><trkpt lat="42.9347933" lon="11.7144818"><ele>447.6666666666667</ele><time>2026-04-09T09:46:41.451Z</time></trkpt><trkpt lat="42.9346051" lon="11.7145487"><ele>451.0</ele><time>2026-04-09T09:46:42.447Z</time></trkpt><trkpt lat="42.934413" lon="11.7146357"><ele>451.0</ele><time>2026-04-09T09:46:43.448Z</time></trkpt><trkpt lat="42.9342396" lon="11.7147102"><ele>451.0</ele><time>2026-04-09T09:46:44.448Z</time></trkpt><trkpt lat="42.9340894" lon="11.7148331"><ele>451.0</ele><time>2026-04-09T09:46:45.449Z</time></trkpt><trkpt lat="42.9339525" lon="11.7149789"><ele>451.33333333333337</ele><time>2026-04-09T09:46:46.447Z</time></trkpt><trkpt lat="42.933782" lon="11.7151572"><ele>451.66666666666663</ele><time>2026-04-09T09:46:47.446Z</time></trkpt><trkpt lat="42.93363" lon="11.7153576"><ele>452.0</ele><time>2026-04-09T09:46:48.445Z</time></trkpt><trkpt lat="42.93346" lon="11.7155249"><ele>451.66666666666663</ele><time>2026-04-09T09:46:49.45Z</time></trkpt><trkpt lat="42.9332801" lon="11.715708"><ele>451.33333333333337</ele><time>2026-04-09T09:46:50.443Z</time></trkpt><trkpt lat="42.9331092" lon="11.7158815"><ele>451.0</ele><time>2026-04-09T09:46:51.447Z</time></trkpt><trkpt lat="42.9329167" lon="11.7160746"><ele>451.0</ele><time>2026-04-09T09:46:52.444Z</time></trkpt><trkpt lat="42.9327329" lon="11.716257"><ele>451.0</ele><time>2026-04-09T09:46:53.442Z</time></trkpt><trkpt lat="42.9325494" lon="11.7164369"><ele>447.5</ele><time>2026-04-09T09:46:54.474Z</time></trkpt><trkpt lat="42.9323619" lon="11.7166342"><ele>444.0</ele><time>2026-04-09T09:46:55.47Z</time></trkpt><trkpt lat="42.9321765" lon="11.7168259"><ele>444.33333333333337</ele><time>2026-04-09T09:46:56.462Z</time></trkpt><trkpt lat="42.931999" lon="11.7170145"><ele>444.6666666666667</ele><time>2026-04-09T09:46:57.448Z</time></trkpt><trkpt lat="42.931848" lon="11.7171862"><ele>445.0</ele><time>2026-04-09T09:46:58.443Z</time></trkpt><trkpt lat="42.9317039" lon="11.7173905"><ele>445.0</ele><time>2026-04-09T09:46:59.436Z</time></trkpt><trkpt lat="42.9315953" lon="11.717612"><ele>445.0</ele><time>2026-04-09T09:47:00.449Z</time></trkpt><trkpt lat="42.931459" lon="11.7178399"><ele>445.0</ele><time>2026-04-09T09:47:01.44Z</time></trkpt><trkpt lat="42.9313411" lon="11.7180203"><ele>446.6666666666667</ele><time>2026-04-09T09:47:02.44Z</time></trkpt><trkpt lat="42.9312332" lon="11.7182159"><ele>448.33333333333337</ele><time>2026-04-09T09:47:03.45Z</time></trkpt><trkpt lat="42.931122" lon="11.7183994"><ele>450.0</ele><time>2026-04-09T09:47:04.441Z</time></trkpt><trkpt lat="42.9310147" lon="11.7185595"><ele>449.66666666666663</ele><time>2026-04-09T09:47:05.447Z</time></trkpt><trkpt lat="42.9308532" lon="11.7186584"><ele>449.3333333333333</ele><time>2026-04-09T09:47:06.464Z</time></trkpt><trkpt lat="42.930669" lon="11.7187348"><ele>449.0</ele><time>2026-04-09T09:47:07.438Z</time></trkpt><trkpt lat="42.9304826" lon="11.7187771"><ele>449.0</ele><time>2026-04-09T09:47:08.442Z</time></trkpt><trkpt lat="42.9302997" lon="11.7188978"><ele>449.0</ele><time>2026-04-09T09:47:09.443Z</time></trkpt><trkpt lat="42.9301146" lon="11.7190401"><ele>449.0</ele><time>2026-04-09T09:47:10.437Z</time></trkpt><trkpt lat="42.9299355" lon="11.719173"><ele>448.66666666666663</ele><time>2026-04-09T09:47:11.443Z</time></trkpt><trkpt lat="42.9297591" lon="11.7193303"><ele>448.33333333333337</ele><time>2026-04-09T09:47:12.441Z</time></trkpt><trkpt lat="42.9296058" lon="11.7194958"><ele>448.0</ele><time>2026-04-09T09:47:13.442Z</time></trkpt><trkpt lat="42.9294891" lon="11.7196485"><ele>449.33333333333337</ele><time>2026-04-09T09:47:14.444Z</time></trkpt><trkpt lat="42.929378" lon="11.7197996"><ele>450.66666666666663</ele><time>2026-04-09T09:47:15.444Z</time></trkpt><trkpt lat="42.9292596" lon="11.7199766"><ele>452.0</ele><time>2026-04-09T09:47:16.447Z</time></trkpt><trkpt lat="42.9291788" lon="11.7201818"><ele>453.66666666666663</ele><time>2026-04-09T09:47:17.443Z</time></trkpt><trkpt lat="42.9291174" lon="11.7204119"><ele>455.33333333333337</ele><time>2026-04-09T09:47:18.441Z</time></trkpt><trkpt lat="42.9290764" lon="11.7207132"><ele>457.0</ele><time>2026-04-09T09:47:19.438Z</time></trkpt><trkpt lat="42.9290509" lon="11.7210056"><ele>458.0</ele><time>2026-04-09T09:47:20.439Z</time></trkpt><trkpt lat="42.9290447" lon="11.7213007"><ele>459.0</ele><time>2026-04-09T09:47:21.446Z</time></trkpt><trkpt lat="42.929022" lon="11.7215747"><ele>460.0</ele><time>2026-04-09T09:47:22.443Z</time></trkpt><trkpt lat="42.9289868" lon="11.7218547"><ele>461.33333333333337</ele><time>2026-04-09T09:47:23.448Z</time></trkpt><trkpt lat="42.9289489" lon="11.7220979"><ele>462.66666666666663</ele><time>2026-04-09T09:47:24.442Z</time></trkpt><trkpt lat="42.9289232" lon="11.7223082"><ele>464.0</ele><time>2026-04-09T09:47:25.439Z</time></trkpt><trkpt lat="42.9289089" lon="11.7224804"><ele>464.0</ele><time>2026-04-09T09:47:26.462Z</time></trkpt><trkpt lat="42.9288795" lon="11.7226302"><ele>464.0</ele><time>2026-04-09T09:47:27.444Z</time></trkpt><trkpt lat="42.9288297" lon="11.7227198"><ele>464.0</ele><time>2026-04-09T09:47:28.435Z</time></trkpt><trkpt lat="42.9287423" lon="11.7227891"><ele>464.0</ele><time>2026-04-09T09:47:29.444Z</time></trkpt><trkpt lat="42.9286008" lon="11.7228334"><ele>464.0</ele><time>2026-04-09T09:47:30.444Z</time></trkpt><trkpt lat="42.9284538" lon="11.7228424"><ele>464.0</ele><time>2026-04-09T09:47:31.435Z</time></trkpt><trkpt lat="42.9283044" lon="11.722867"><ele>464.0</ele><time>2026-04-09T09:47:32.443Z</time></trkpt><trkpt lat="42.9281436" lon="11.7228577"><ele>464.0</ele><time>2026-04-09T09:47:33.44Z</time></trkpt><trkpt lat="42.9279993" lon="11.7228902"><ele>464.0</ele><time>2026-04-09T09:47:34.437Z</time></trkpt><trkpt lat="42.9278544" lon="11.7229477"><ele>464.0</ele><time>2026-04-09T09:47:35.448Z</time></trkpt><trkpt lat="42.9277136" lon="11.7230617"><ele>464.0</ele><time>2026-04-09T09:47:36.444Z</time></trkpt><trkpt lat="42.9275733" lon="11.7232221"><ele>467.0</ele><time>2026-04-09T09:47:37.442Z</time></trkpt><trkpt lat="42.927458" lon="11.7234028"><ele>470.0</ele><time>2026-04-09T09:47:38.438Z</time></trkpt><trkpt lat="42.9273665" lon="11.723593"><ele>473.0</ele><time>2026-04-09T09:47:39.435Z</time></trkpt><trkpt lat="42.9272742" lon="11.7238167"><ele>473.0</ele><time>2026-04-09T09:47:40.44Z</time></trkpt><trkpt lat="42.9271804" lon="11.7240074"><ele>473.0</ele><time>2026-04-09T09:47:41.445Z</time></trkpt><trkpt lat="42.9270646" lon="11.7241577"><ele>473.0</ele><time>2026-04-09T09:47:42.467Z</time></trkpt><trkpt lat="42.9269604" lon="11.7243264"><ele>475.66666666666663</ele><time>2026-04-09T09:47:43.469Z</time></trkpt><trkpt lat="42.9268416" lon="11.7244857"><ele>478.33333333333337</ele><time>2026-04-09T09:47:44.446Z</time></trkpt><trkpt lat="42.9267111" lon="11.7246323"><ele>481.0</ele><time>2026-04-09T09:47:45.451Z</time></trkpt><trkpt lat="42.9265618" lon="11.7248029"><ele>483.33333333333337</ele><time>2026-04-09T09:47:46.443Z</time></trkpt><trkpt lat="42.9264379" lon="11.7249703"><ele>485.66666666666663</ele><time>2026-04-09T09:47:47.45Z</time></trkpt><trkpt lat="42.9263676" lon="11.7251403"><ele>488.0</ele><time>2026-04-09T09:47:48.433Z</time></trkpt><trkpt lat="42.9263166" lon="11.7253544"><ele>489.0</ele><time>2026-04-09T09:47:49.428Z</time></trkpt><trkpt lat="42.9263099" lon="11.7255459"><ele>490.0</ele><time>2026-04-09T09:47:50.44Z</time></trkpt><trkpt lat="42.9263163" lon="11.7257801"><ele>491.0</ele><time>2026-04-09T09:47:51.437Z</time></trkpt><trkpt lat="42.9263723" lon="11.7259944"><ele>493.3333333333333</ele><time>2026-04-09T09:47:52.438Z</time></trkpt><trkpt lat="42.9264078" lon="11.7261887"><ele>495.66666666666663</ele><time>2026-04-09T09:47:53.437Z</time></trkpt><trkpt lat="42.9265347" lon="11.7263132"><ele>498.0</ele><time>2026-04-09T09:47:54.445Z</time></trkpt><trkpt lat="42.9267097" lon="11.7264184"><ele>497.33333333333337</ele><time>2026-04-09T09:47:55.437Z</time></trkpt><trkpt lat="42.926893" lon="11.7265168"><ele>496.6666666666667</ele><time>2026-04-09T09:47:56.436Z</time></trkpt><trkpt lat="42.9270639" lon="11.7265971"><ele>496.0</ele><time>2026-04-09T09:47:57.435Z</time></trkpt><trkpt lat="42.9272051" lon="11.7267013"><ele>496.0</ele><time>2026-04-09T09:47:58.437Z</time></trkpt><trkpt lat="42.9273572" lon="11.7268157"><ele>496.0</ele><time>2026-04-09T09:47:59.432Z</time></trkpt><trkpt lat="42.927464" lon="11.7269685"><ele>496.0</ele><time>2026-04-09T09:48:00.436Z</time></trkpt><trkpt lat="42.9274759" lon="11.7271735"><ele>498.0</ele><time>2026-04-09T09:48:01.423Z</time></trkpt><trkpt lat="42.9274922" lon="11.7273777"><ele>500.0</ele><time>2026-04-09T09:48:02.431Z</time></trkpt><trkpt lat="42.9274263" lon="11.7276215"><ele>502.0</ele><time>2026-04-09T09:48:03.443Z</time></trkpt><trkpt lat="42.9273563" lon="11.7278951"><ele>503.0</ele><time>2026-04-09T09:48:04.423Z</time></trkpt><trkpt lat="42.9273007" lon="11.7282092"><ele>504.0</ele><time>2026-04-09T09:48:05.433Z</time></trkpt><trkpt lat="42.9272871" lon="11.7284905"><ele>505.0</ele><time>2026-04-09T09:48:06.433Z</time></trkpt><trkpt lat="42.9272943" lon="11.7288069"><ele>508.0</ele><time>2026-04-09T09:48:07.435Z</time></trkpt><trkpt lat="42.9273381" lon="11.7290857"><ele>511.0</ele><time>2026-04-09T09:48:08.448Z</time></trkpt><trkpt lat="42.9273426" lon="11.7293101"><ele>514.0</ele><time>2026-04-09T09:48:09.433Z</time></trkpt><trkpt lat="42.9273805" lon="11.7295065"><ele>516.25</ele><time>2026-04-09T09:48:10.438Z</time></trkpt><trkpt lat="42.9274248" lon="11.7296889"><ele>518.5</ele><time>2026-04-09T09:48:11.439Z</time></trkpt><trkpt lat="42.9274946" lon="11.7298587"><ele>520.75</ele><time>2026-04-09T09:48:12.434Z</time></trkpt><trkpt lat="42.927581" lon="11.7300011"><ele>523.0</ele><time>2026-04-09T09:48:13.439Z</time></trkpt><trkpt lat="42.927704" lon="11.7301259"><ele>523.0</ele><time>2026-04-09T09:48:14.431Z</time></trkpt><trkpt lat="42.9278299" lon="11.7302172"><ele>523.0</ele><time>2026-04-09T09:48:15.434Z</time></trkpt><trkpt lat="42.927992" lon="11.73031"><ele>523.0</ele><time>2026-04-09T09:48:16.431Z</time></trkpt><trkpt lat="42.9281783" lon="11.7303909"><ele>526.3333333333334</ele><time>2026-04-09T09:48:17.433Z</time></trkpt><trkpt lat="42.9283425" lon="11.7304632"><ele>529.6666666666666</ele><time>2026-04-09T09:48:18.444Z</time></trkpt><trkpt lat="42.9284705" lon="11.7305558"><ele>533.0</ele><time>2026-04-09T09:48:19.433Z</time></trkpt><trkpt lat="42.9285876" lon="11.730657"><ele>534.0</ele><time>2026-04-09T09:48:20.444Z</time></trkpt><trkpt lat="42.9286729" lon="11.7307713"><ele>535.0</ele><time>2026-04-09T09:48:21.438Z</time></trkpt><trkpt lat="42.9287096" lon="11.7309144"><ele>536.0</ele><time>2026-04-09T09:48:22.431Z</time></trkpt><trkpt lat="42.9286488" lon="11.7310926"><ele>537.0</ele><time>2026-04-09T09:48:23.438Z</time></trkpt><trkpt lat="42.9285473" lon="11.7312185"><ele>538.5</ele><time>2026-04-09T09:48:24.428Z</time></trkpt><trkpt lat="42.9284527" lon="11.7312838"><ele>540.0</ele><time>2026-04-09T09:48:25.436Z</time></trkpt><trkpt lat="42.9283324" lon="11.7312899"><ele>541.5</ele><time>2026-04-09T09:48:26.432Z</time></trkpt><trkpt lat="42.9281905" lon="11.7312549"><ele>543.0</ele><time>2026-04-09T09:48:27.43Z</time></trkpt><trkpt lat="42.9280416" lon="11.7311942"><ele>543.0</ele><time>2026-04-09T09:48:28.426Z</time></trkpt><trkpt lat="42.9278819" lon="11.7311016"><ele>543.0</ele><time>2026-04-09T09:48:29.437Z</time></trkpt><trkpt lat="42.9277063" lon="11.7310622"><ele>543.0</ele><time>2026-04-09T09:48:30.438Z</time></trkpt><trkpt lat="42.9275469" lon="11.7310844"><ele>543.6666666666666</ele><time>2026-04-09T09:48:31.426Z</time></trkpt><trkpt lat="42.9273561" lon="11.7311202"><ele>544.3333333333333</ele><time>2026-04-09T09:48:32.442Z</time></trkpt><trkpt lat="42.9271648" lon="11.7312252"><ele>545.0</ele><time>2026-04-09T09:48:33.436Z</time></trkpt><trkpt lat="42.9269389" lon="11.7313128"><ele>547.5</ele><time>2026-04-09T09:48:34.438Z</time></trkpt><trkpt lat="42.9267129" lon="11.7314103"><ele>550.0</ele><time>2026-04-09T09:48:35.44Z</time></trkpt><trkpt lat="42.9265027" lon="11.7314934"><ele>550.0</ele><time>2026-04-09T09:48:36.445Z</time></trkpt><trkpt lat="42.9262805" lon="11.7315589"><ele>550.0</ele><time>2026-04-09T09:48:37.458Z</time></trkpt><trkpt lat="42.9260445" lon="11.7316295"><ele>551.0</ele><time>2026-04-09T09:48:38.463Z</time></trkpt><trkpt lat="42.9257988" lon="11.7317239"><ele>552.0</ele><time>2026-04-09T09:48:39.445Z</time></trkpt><trkpt lat="42.9255721" lon="11.7318162"><ele>554.3333333333334</ele><time>2026-04-09T09:48:40.438Z</time></trkpt><trkpt lat="42.9253596" lon="11.7318903"><ele>556.6666666666667</ele><time>2026-04-09T09:48:41.436Z</time></trkpt><trkpt lat="42.9251708" lon="11.7319473"><ele>559.0</ele><time>2026-04-09T09:48:42.435Z</time></trkpt><trkpt lat="42.9249902" lon="11.7319483"><ele>558.6666666666667</ele><time>2026-04-09T09:48:43.436Z</time></trkpt><trkpt lat="42.9248163" lon="11.7319115"><ele>558.3333333333334</ele><time>2026-04-09T09:48:44.437Z</time></trkpt><trkpt lat="42.924645" lon="11.7318616"><ele>558.0</ele><time>2026-04-09T09:48:45.437Z</time></trkpt><trkpt lat="42.9245064" lon="11.7318682"><ele>560.6666666666666</ele><time>2026-04-09T09:48:46.433Z</time></trkpt><trkpt lat="42.9243602" lon="11.7318944"><ele>563.3333333333333</ele><time>2026-04-09T09:48:47.442Z</time></trkpt><trkpt lat="42.9241816" lon="11.7319362"><ele>566.0</ele><time>2026-04-09T09:48:48.447Z</time></trkpt><trkpt lat="42.92399" lon="11.7320032"><ele>568.0</ele><time>2026-04-09T09:48:49.447Z</time></trkpt><trkpt lat="42.9237784" lon="11.7321102"><ele>570.0</ele><time>2026-04-09T09:48:50.461Z</time></trkpt><trkpt lat="42.9235682" lon="11.7321945"><ele>572.0</ele><time>2026-04-09T09:48:51.454Z</time></trkpt><trkpt lat="42.9233549" lon="11.7322751"><ele>573.0</ele><time>2026-04-09T09:48:52.452Z</time></trkpt><trkpt lat="42.9231548" lon="11.7323933"><ele>574.0</ele><time>2026-04-09T09:48:53.448Z</time></trkpt><trkpt lat="42.922961" lon="11.73252"><ele>575.0</ele><time>2026-04-09T09:48:54.456Z</time></trkpt><trkpt lat="42.9227577" lon="11.7326521"><ele>578.6666666666666</ele><time>2026-04-09T09:48:55.466Z</time></trkpt><trkpt lat="42.9225514" lon="11.7327924"><ele>582.3333333333334</ele><time>2026-04-09T09:48:56.472Z</time></trkpt><trkpt lat="42.9223591" lon="11.7329267"><ele>586.0</ele><time>2026-04-09T09:48:57.453Z</time></trkpt><trkpt lat="42.9221689" lon="11.733062"><ele>586.0</ele><time>2026-04-09T09:48:58.439Z</time></trkpt><trkpt lat="42.9220316" lon="11.7332072"><ele>586.0</ele><time>2026-04-09T09:48:59.444Z</time></trkpt><trkpt lat="42.921905" lon="11.733333"><ele>586.0</ele><time>2026-04-09T09:49:00.446Z</time></trkpt><trkpt lat="42.9217915" lon="11.7335101"><ele>586.75</ele><time>2026-04-09T09:49:01.444Z</time></trkpt><trkpt lat="42.9216958" lon="11.7336636"><ele>587.5</ele><time>2026-04-09T09:49:02.441Z</time></trkpt><trkpt lat="42.9215834" lon="11.7337853"><ele>588.25</ele><time>2026-04-09T09:49:03.441Z</time></trkpt><trkpt lat="42.9214792" lon="11.7338952"><ele>589.0</ele><time>2026-04-09T09:49:04.45Z</time></trkpt><trkpt lat="42.9213336" lon="11.7339711"><ele>589.0</ele><time>2026-04-09T09:49:05.445Z</time></trkpt><trkpt lat="42.9211574" lon="11.7340188"><ele>589.0</ele><time>2026-04-09T09:49:06.458Z</time></trkpt><trkpt lat="42.9209718" lon="11.7340376"><ele>589.0</ele><time>2026-04-09T09:49:07.445Z</time></trkpt><trkpt lat="42.9208024" lon="11.734066"><ele>589.0</ele><time>2026-04-09T09:49:08.445Z</time></trkpt><trkpt lat="42.9206541" lon="11.7341074"><ele>589.0</ele><time>2026-04-09T09:49:09.447Z</time></trkpt><trkpt lat="42.9205223" lon="11.7341873"><ele>589.0</ele><time>2026-04-09T09:49:10.449Z</time></trkpt><trkpt lat="42.9203969" lon="11.7342621"><ele>589.0</ele><time>2026-04-09T09:49:11.451Z</time></trkpt><trkpt lat="42.9202538" lon="11.7343487"><ele>588.5</ele><time>2026-04-09T09:49:12.454Z</time></trkpt><trkpt lat="42.9201109" lon="11.7344276"><ele>588.0</ele><time>2026-04-09T09:49:13.442Z</time></trkpt><trkpt lat="42.9199838" lon="11.7344591"><ele>587.5</ele><time>2026-04-09T09:49:14.445Z</time></trkpt><trkpt lat="42.9198751" lon="11.7345264"><ele>587.0</ele><time>2026-04-09T09:49:15.448Z</time></trkpt><trkpt lat="42.9198112" lon="11.7346772"><ele>589.3333333333333</ele><time>2026-04-09T09:49:16.437Z</time></trkpt><trkpt lat="42.9197823" lon="11.734875"><ele>591.6666666666666</ele><time>2026-04-09T09:49:17.445Z</time></trkpt><trkpt lat="42.9197401" lon="11.7350698"><ele>594.0</ele><time>2026-04-09T09:49:18.441Z</time></trkpt><trkpt lat="42.9196899" lon="11.7353075"><ele>594.0</ele><time>2026-04-09T09:49:19.437Z</time></trkpt><trkpt lat="42.9195999" lon="11.735497"><ele>594.0</ele><time>2026-04-09T09:49:20.456Z</time></trkpt><trkpt lat="42.9194737" lon="11.7356915"><ele>594.0</ele><time>2026-04-09T09:49:21.442Z</time></trkpt><trkpt lat="42.9193318" lon="11.73589"><ele>598.3333333333334</ele><time>2026-04-09T09:49:22.443Z</time></trkpt><trkpt lat="42.9191858" lon="11.7360834"><ele>602.6666666666667</ele><time>2026-04-09T09:49:23.448Z</time></trkpt><trkpt lat="42.919058" lon="11.7362619"><ele>607.0</ele><time>2026-04-09T09:49:24.454Z</time></trkpt><trkpt lat="42.9189535" lon="11.7364419"><ele>607.0</ele><time>2026-04-09T09:49:25.444Z</time></trkpt><trkpt lat="42.9188859" lon="11.7366398"><ele>607.0</ele><time>2026-04-09T09:49:26.443Z</time></trkpt><trkpt lat="42.9188776" lon="11.7368676"><ele>607.0</ele><time>2026-04-09T09:49:27.444Z</time></trkpt><trkpt lat="42.9188935" lon="11.7371259"><ele>608.0</ele><time>2026-04-09T09:49:28.438Z</time></trkpt><trkpt lat="42.9189088" lon="11.7373759"><ele>609.0</ele><time>2026-04-09T09:49:29.448Z</time></trkpt><trkpt lat="42.9189301" lon="11.7376332"><ele>610.0</ele><time>2026-04-09T09:49:30.465Z</time></trkpt><trkpt lat="42.9189125" lon="11.7378708"><ele>611.6666666666667</ele><time>2026-04-09T09:49:31.448Z</time></trkpt><trkpt lat="42.9188611" lon="11.73813"><ele>613.3333333333334</ele><time>2026-04-09T09:49:32.445Z</time></trkpt><trkpt lat="42.9188051" lon="11.7383818"><ele>615.0</ele><time>2026-04-09T09:49:33.441Z</time></trkpt><trkpt lat="42.9187817" lon="11.7386084"><ele>618.0</ele><time>2026-04-09T09:49:34.44Z</time></trkpt><trkpt lat="42.9187758" lon="11.7387978"><ele>621.0</ele><time>2026-04-09T09:49:35.448Z</time></trkpt><trkpt lat="42.9188189" lon="11.7389924"><ele>624.0</ele><time>2026-04-09T09:49:36.438Z</time></trkpt><trkpt lat="42.9188968" lon="11.7392111"><ele>626.6666666666666</ele><time>2026-04-09T09:49:37.453Z</time></trkpt><trkpt lat="42.9189932" lon="11.7394198"><ele>629.3333333333333</ele><time>2026-04-09T09:49:38.448Z</time></trkpt><trkpt lat="42.9190633" lon="11.7396051"><ele>632.0</ele><time>2026-04-09T09:49:39.436Z</time></trkpt><trkpt lat="42.9191154" lon="11.7397956"><ele>632.0</ele><time>2026-04-09T09:49:40.445Z</time></trkpt><trkpt lat="42.9191418" lon="11.7400037"><ele>632.0</ele><time>2026-04-09T09:49:41.445Z</time></trkpt><trkpt lat="42.9191433" lon="11.7402418"><ele>632.0</ele><time>2026-04-09T09:49:42.43Z</time></trkpt><trkpt lat="42.919115" lon="11.7404524"><ele>631.3333333333333</ele><time>2026-04-09T09:49:43.449Z</time></trkpt><trkpt lat="42.9190573" lon="11.7406616"><ele>630.6666666666666</ele><time>2026-04-09T09:49:44.446Z</time></trkpt><trkpt lat="42.9189888" lon="11.7408836"><ele>630.0</ele><time>2026-04-09T09:49:45.444Z</time></trkpt><trkpt lat="42.9189424" lon="11.741127"><ele>629.3333333333334</ele><time>2026-04-09T09:49:46.451Z</time></trkpt><trkpt lat="42.9188909" lon="11.7413493"><ele>628.6666666666667</ele><time>2026-04-09T09:49:47.459Z</time></trkpt><trkpt lat="42.9188427" lon="11.7415945"><ele>628.0</ele><time>2026-04-09T09:49:48.456Z</time></trkpt><trkpt lat="42.9187884" lon="11.7418586"><ele>625.0</ele><time>2026-04-09T09:49:49.455Z</time></trkpt><trkpt lat="42.9187271" lon="11.7421231"><ele>622.0</ele><time>2026-04-09T09:49:50.461Z</time></trkpt><trkpt lat="42.9186768" lon="11.7423791"><ele>619.0</ele><time>2026-04-09T09:49:51.459Z</time></trkpt><trkpt lat="42.9186516" lon="11.7426122"><ele>618.0</ele><time>2026-04-09T09:49:52.447Z</time></trkpt><trkpt lat="42.9186559" lon="11.7428249"><ele>617.0</ele><time>2026-04-09T09:49:53.457Z</time></trkpt><trkpt lat="42.9186825" lon="11.7430257"><ele>616.0</ele><time>2026-04-09T09:49:54.449Z</time></trkpt><trkpt lat="42.9187099" lon="11.7432404"><ele>616.0</ele><time>2026-04-09T09:49:55.462Z</time></trkpt><trkpt lat="42.9187369" lon="11.7434862"><ele>616.0</ele><time>2026-04-09T09:49:56.458Z</time></trkpt><trkpt lat="42.9188006" lon="11.7437042"><ele>616.0</ele><time>2026-04-09T09:49:57.454Z</time></trkpt><trkpt lat="42.9188722" lon="11.7439015"><ele>616.3333333333334</ele><time>2026-04-09T09:49:58.458Z</time></trkpt><trkpt lat="42.9189684" lon="11.7440875"><ele>616.6666666666666</ele><time>2026-04-09T09:49:59.461Z</time></trkpt><trkpt lat="42.919063" lon="11.7442934"><ele>617.0</ele><time>2026-04-09T09:50:00.458Z</time></trkpt><trkpt lat="42.9191567" lon="11.7444789"><ele>615.4</ele><time>2026-04-09T09:50:01.46Z</time></trkpt><trkpt lat="42.9192386" lon="11.7446481"><ele>613.8000000000001</ele><time>2026-04-09T09:50:02.448Z</time></trkpt><trkpt lat="42.9193017" lon="11.7447849"><ele>612.2</ele><time>2026-04-09T09:50:03.459Z</time></trkpt><trkpt lat="42.9193668" lon="11.7448708"><ele>610.6</ele><time>2026-04-09T09:50:04.463Z</time></trkpt><trkpt lat="42.919435" lon="11.7449417"><ele>609.0</ele><time>2026-04-09T09:50:05.452Z</time></trkpt><trkpt lat="42.9195501" lon="11.7449987"><ele>609.0</ele><time>2026-04-09T09:50:07.456Z</time></trkpt><trkpt lat="42.9196124" lon="11.7450302"><ele>609.0</ele><time>2026-04-09T09:50:09.455Z</time></trkpt><trkpt lat="42.9196945" lon="11.7450283"><ele>609.0</ele><time>2026-04-09T09:50:43.464Z</time></trkpt><trkpt lat="42.9196386" lon="11.7448747"><ele>609.0</ele><time>2026-04-09T09:53:31.402Z</time></trkpt><trkpt lat="42.9196667" lon="11.7449637"><ele>609.0</ele><time>2026-04-09T09:53:36.425Z</time></trkpt><trkpt lat="42.9196869" lon="11.7450468"><ele>609.0</ele><time>2026-04-09T09:54:41.461Z</time></trkpt><trkpt lat="42.9196224" lon="11.7450578"><ele>609.0</ele><time>2026-04-09T09:54:51.46Z</time></trkpt><trkpt lat="42.9196757" lon="11.7450114"><ele>609.0</ele><time>2026-04-09T09:55:07.458Z</time></trkpt><trkpt lat="42.9196136" lon="11.7450267"><ele>609.0</ele><time>2026-04-09T09:55:14.483Z</time></trkpt><trkpt lat="42.9195722" lon="11.7449482"><ele>609.0</ele><time>2026-04-09T09:55:27.462Z</time></trkpt><trkpt lat="42.9196687" lon="11.7449586"><ele>609.0</ele><time>2026-04-09T09:56:26.475Z</time></trkpt><trkpt lat="42.9195975" lon="11.7449568"><ele>609.0</ele><time>2026-04-09T09:57:40.447Z</time></trkpt><trkpt lat="42.9195173" lon="11.7448462"><ele>609.0</ele><time>2026-04-09T09:58:09.441Z</time></trkpt><trkpt lat="42.9194372" lon="11.7447836"><ele>609.0</ele><time>2026-04-09T09:58:10.459Z</time></trkpt><trkpt lat="42.9194756" lon="11.7448819"><ele>609.0</ele><time>2026-04-09T09:58:15.463Z</time></trkpt><trkpt lat="42.9195443" lon="11.7449302"><ele>609.0</ele><time>2026-04-09T09:58:17.476Z</time></trkpt><trkpt lat="42.9196222" lon="11.7449584"><ele>609.0</ele><time>2026-04-09T09:58:22.462Z</time></trkpt><trkpt lat="42.9196333" lon="11.7450449"><ele>609.0</ele><time>2026-04-09T09:58:30.457Z</time></trkpt><trkpt lat="42.9195921" lon="11.7451115"><ele>609.0</ele><time>2026-04-09T10:01:00.457Z</time></trkpt><trkpt lat="42.9195918" lon="11.7451983"><ele>609.0</ele><time>2026-04-09T10:01:02.459Z</time></trkpt><trkpt lat="42.919635" lon="11.7453555"><ele>609.0</ele><time>2026-04-09T10:01:04.457Z</time></trkpt><trkpt lat="42.9196813" lon="11.7454702"><ele>609.0</ele><time>2026-04-09T10:01:05.47Z</time></trkpt><trkpt lat="42.9197278" lon="11.7456018"><ele>609.0</ele><time>2026-04-09T10:01:06.459Z</time></trkpt><trkpt lat="42.9197645" lon="11.7457485"><ele>609.25</ele><time>2026-04-09T10:01:07.466Z</time></trkpt><trkpt lat="42.919792" lon="11.7459181"><ele>609.5</ele><time>2026-04-09T10:01:08.454Z</time></trkpt><trkpt lat="42.9198126" lon="11.7461004"><ele>609.75</ele><time>2026-04-09T10:01:09.458Z</time></trkpt><trkpt lat="42.9198296" lon="11.7462718"><ele>610.0</ele><time>2026-04-09T10:01:10.461Z</time></trkpt><trkpt lat="42.9198556" lon="11.7464351"><ele>610.5</ele><time>2026-04-09T10:01:11.468Z</time></trkpt><trkpt lat="42.9198824" lon="11.7466082"><ele>611.0</ele><time>2026-04-09T10:01:12.462Z</time></trkpt><trkpt lat="42.9199071" lon="11.746772"><ele>611.5</ele><time>2026-04-09T10:01:13.489Z</time></trkpt><trkpt lat="42.9199274" lon="11.7469274"><ele>612.0</ele><time>2026-04-09T10:01:14.488Z</time></trkpt><trkpt lat="42.9199441" lon="11.7470607"><ele>612.0</ele><time>2026-04-09T10:01:15.464Z</time></trkpt><trkpt lat="42.9199561" lon="11.7471762"><ele>612.0</ele><time>2026-04-09T10:01:16.467Z</time></trkpt><trkpt lat="42.9199511" lon="11.7472894"><ele>612.0</ele><time>2026-04-09T10:01:17.458Z</time></trkpt><trkpt lat="42.919929" lon="11.7474178"><ele>612.0</ele><time>2026-04-09T10:01:18.454Z</time></trkpt><trkpt lat="42.9198864" lon="11.7475657"><ele>612.0</ele><time>2026-04-09T10:01:19.462Z</time></trkpt><trkpt lat="42.9198259" lon="11.747711"><ele>610.5</ele><time>2026-04-09T10:01:20.457Z</time></trkpt><trkpt lat="42.9197514" lon="11.7478492"><ele>609.0</ele><time>2026-04-09T10:01:21.459Z</time></trkpt><trkpt lat="42.9196414" lon="11.7479736"><ele>607.5</ele><time>2026-04-09T10:01:22.456Z</time></trkpt><trkpt lat="42.9195067" lon="11.7480954"><ele>606.0</ele><time>2026-04-09T10:01:23.459Z</time></trkpt><trkpt lat="42.9193073" lon="11.7482567"><ele>606.3333333333334</ele><time>2026-04-09T10:01:24.447Z</time></trkpt><trkpt lat="42.9191208" lon="11.7484108"><ele>606.6666666666667</ele><time>2026-04-09T10:01:25.456Z</time></trkpt><trkpt lat="42.9189664" lon="11.7485565"><ele>607.0</ele><time>2026-04-09T10:01:26.458Z</time></trkpt><trkpt lat="42.9187952" lon="11.748695"><ele>607.0</ele><time>2026-04-09T10:01:27.457Z</time></trkpt><trkpt lat="42.918622" lon="11.7488365"><ele>607.0</ele><time>2026-04-09T10:01:28.472Z</time></trkpt><trkpt lat="42.9184588" lon="11.7490042"><ele>607.0</ele><time>2026-04-09T10:01:29.458Z</time></trkpt><trkpt lat="42.9183089" lon="11.7492006"><ele>607.0</ele><time>2026-04-09T10:01:30.458Z</time></trkpt><trkpt lat="42.918186" lon="11.7493908"><ele>607.0</ele><time>2026-04-09T10:01:31.453Z</time></trkpt><trkpt lat="42.9180842" lon="11.7495682"><ele>607.0</ele><time>2026-04-09T10:01:32.453Z</time></trkpt><trkpt lat="42.918001" lon="11.7497058"><ele>607.0</ele><time>2026-04-09T10:01:33.459Z</time></trkpt><trkpt lat="42.9179208" lon="11.7498183"><ele>607.0</ele><time>2026-04-09T10:01:34.448Z</time></trkpt><trkpt lat="42.9178865" lon="11.7499022"><ele>607.0</ele><time>2026-04-09T10:01:35.451Z</time></trkpt><trkpt lat="42.9178738" lon="11.7499885"><ele>607.0</ele><time>2026-04-09T10:01:37.451Z</time></trkpt><trkpt lat="42.9178486" lon="11.7500985"><ele>607.0</ele><time>2026-04-09T10:01:42.458Z</time></trkpt><trkpt lat="42.9178079" lon="11.7501864"><ele>607.0</ele><time>2026-04-09T10:01:44.468Z</time></trkpt><trkpt lat="42.9177288" lon="11.7503136"><ele>608.3333333333334</ele><time>2026-04-09T10:01:46.462Z</time></trkpt><trkpt lat="42.9176784" lon="11.7503977"><ele>609.6666666666667</ele><time>2026-04-09T10:01:47.457Z</time></trkpt><trkpt lat="42.9176158" lon="11.7504914"><ele>611.0</ele><time>2026-04-09T10:01:48.462Z</time></trkpt><trkpt lat="42.9175484" lon="11.7505965"><ele>612.3333333333334</ele><time>2026-04-09T10:01:49.464Z</time></trkpt><trkpt lat="42.917494" lon="11.7506866"><ele>613.6666666666666</ele><time>2026-04-09T10:01:50.463Z</time></trkpt><trkpt lat="42.9174487" lon="11.7507558"><ele>615.0</ele><time>2026-04-09T10:01:51.465Z</time></trkpt><trkpt lat="42.9173705" lon="11.7508804"><ele>615.0</ele><time>2026-04-09T10:01:53.463Z</time></trkpt><trkpt lat="42.917322" lon="11.7509357"><ele>615.0</ele><time>2026-04-09T10:01:55.483Z</time></trkpt><trkpt lat="42.9172578" lon="11.7509783"><ele>615.0</ele><time>2026-04-09T10:01:58.456Z</time></trkpt><trkpt lat="42.9171802" lon="11.7510946"><ele>615.0</ele><time>2026-04-09T10:02:00.456Z</time></trkpt><trkpt lat="42.917158" lon="11.7511877"><ele>615.0</ele><time>2026-04-09T10:02:01.456Z</time></trkpt><trkpt lat="42.9171467" lon="11.7512749"><ele>615.0</ele><time>2026-04-09T10:02:02.466Z</time></trkpt><trkpt lat="42.917126" lon="11.7514403"><ele>615.5</ele><time>2026-04-09T10:02:04.464Z</time></trkpt><trkpt lat="42.917116" lon="11.7515297"><ele>616.0</ele><time>2026-04-09T10:02:05.453Z</time></trkpt><trkpt lat="42.9171102" lon="11.7516228"><ele>616.5</ele><time>2026-04-09T10:02:06.459Z</time></trkpt><trkpt lat="42.9171354" lon="11.7517548"><ele>617.0</ele><time>2026-04-09T10:02:08.454Z</time></trkpt><trkpt lat="42.9171735" lon="11.7518553"><ele>617.5</ele><time>2026-04-09T10:02:22.462Z</time></trkpt><trkpt lat="42.9171587" lon="11.7519431"><ele>618.0</ele><time>2026-04-09T10:02:24.457Z</time></trkpt><trkpt lat="42.9170722" lon="11.7520788"><ele>618.0000000000001</ele><time>2026-04-09T10:02:26.466Z</time></trkpt><trkpt lat="42.9170146" lon="11.7521484"><ele>618.0</ele><time>2026-04-09T10:02:27.466Z</time></trkpt><trkpt lat="42.9169564" lon="11.752213"><ele>618.0</ele><time>2026-04-09T10:02:28.469Z</time></trkpt><trkpt lat="42.9168983" lon="11.7522683"><ele>618.0</ele><time>2026-04-09T10:02:29.469Z</time></trkpt><trkpt lat="42.9168434" lon="11.7523381"><ele>618.0</ele><time>2026-04-09T10:02:30.477Z</time></trkpt><trkpt lat="42.9167909" lon="11.7524043"><ele>618.0000000000001</ele><time>2026-04-09T10:02:31.461Z</time></trkpt><trkpt lat="42.9167402" lon="11.7524626"><ele>618.0</ele><time>2026-04-09T10:02:32.459Z</time></trkpt><trkpt lat="42.9166747" lon="11.7525862"><ele>620.1666666666666</ele><time>2026-04-09T10:02:34.466Z</time></trkpt><trkpt lat="42.9166353" lon="11.7526631"><ele>622.3333333333334</ele><time>2026-04-09T10:02:35.454Z</time></trkpt><trkpt lat="42.9165793" lon="11.7527477"><ele>624.5</ele><time>2026-04-09T10:02:36.459Z</time></trkpt><trkpt lat="42.9165105" lon="11.7528352"><ele>626.6666666666667</ele><time>2026-04-09T10:02:37.464Z</time></trkpt><trkpt lat="42.9164458" lon="11.7529127"><ele>628.8333333333334</ele><time>2026-04-09T10:02:38.459Z</time></trkpt><trkpt lat="42.9163853" lon="11.752979"><ele>631.0</ele><time>2026-04-09T10:02:39.458Z</time></trkpt><trkpt lat="42.9163373" lon="11.7530536"><ele>631.0</ele><time>2026-04-09T10:02:40.466Z</time></trkpt><trkpt lat="42.9162996" lon="11.7531453"><ele>631.0</ele><time>2026-04-09T10:02:41.459Z</time></trkpt><trkpt lat="42.9162736" lon="11.7532415"><ele>631.0</ele><time>2026-04-09T10:02:42.47Z</time></trkpt><trkpt lat="42.916259" lon="11.7533446"><ele>631.0</ele><time>2026-04-09T10:02:43.472Z</time></trkpt><trkpt lat="42.9162465" lon="11.753439"><ele>631.0</ele><time>2026-04-09T10:02:44.469Z</time></trkpt><trkpt lat="42.9162331" lon="11.7536117"><ele>631.0</ele><time>2026-04-09T10:02:46.468Z</time></trkpt><trkpt lat="42.9162166" lon="11.7536985"><ele>630.8333333333334</ele><time>2026-04-09T10:02:47.464Z</time></trkpt><trkpt lat="42.9162036" lon="11.7538221"><ele>630.6666666666667</ele><time>2026-04-09T10:02:49.476Z</time></trkpt><trkpt lat="42.916195" lon="11.7539758"><ele>630.5</ele><time>2026-04-09T10:02:51.477Z</time></trkpt><trkpt lat="42.916192" lon="11.7540694"><ele>630.3333333333334</ele><time>2026-04-09T10:02:52.474Z</time></trkpt><trkpt lat="42.9161816" lon="11.7541692"><ele>630.1666666666666</ele><time>2026-04-09T10:02:53.468Z</time></trkpt><trkpt lat="42.9161592" lon="11.7542795"><ele>630.0</ele><time>2026-04-09T10:02:54.467Z</time></trkpt><trkpt lat="42.9161298" lon="11.7544185"><ele>631.25</ele><time>2026-04-09T10:02:55.466Z</time></trkpt><trkpt lat="42.9161032" lon="11.7546127"><ele>632.5</ele><time>2026-04-09T10:02:56.466Z</time></trkpt><trkpt lat="42.916087" lon="11.7547869"><ele>633.75</ele><time>2026-04-09T10:02:57.462Z</time></trkpt><trkpt lat="42.9160743" lon="11.7549518"><ele>635.0</ele><time>2026-04-09T10:02:58.468Z</time></trkpt><trkpt lat="42.9160751" lon="11.7551125"><ele>635.8333333333333</ele><time>2026-04-09T10:02:59.484Z</time></trkpt><trkpt lat="42.9160832" lon="11.7552661"><ele>636.6666666666666</ele><time>2026-04-09T10:03:00.47Z</time></trkpt><trkpt lat="42.9160959" lon="11.7553951"><ele>637.5</ele><time>2026-04-09T10:03:01.463Z</time></trkpt><trkpt lat="42.916106" lon="11.7554975"><ele>638.3333333333334</ele><time>2026-04-09T10:03:02.466Z</time></trkpt><trkpt lat="42.9161074" lon="11.7556034"><ele>639.1666666666667</ele><time>2026-04-09T10:03:03.473Z</time></trkpt><trkpt lat="42.9160874" lon="11.7557125"><ele>640.0</ele><time>2026-04-09T10:03:04.473Z</time></trkpt><trkpt lat="42.9160678" lon="11.7558185"><ele>640.0</ele><time>2026-04-09T10:03:05.455Z</time></trkpt><trkpt lat="42.9160543" lon="11.7559029"><ele>640.0</ele><time>2026-04-09T10:03:06.472Z</time></trkpt><trkpt lat="42.9160239" lon="11.7560344"><ele>640.0</ele><time>2026-04-09T10:03:08.466Z</time></trkpt><trkpt lat="42.9159852" lon="11.7561965"><ele>640.0</ele><time>2026-04-09T10:03:10.47Z</time></trkpt><trkpt lat="42.9159505" lon="11.7563345"><ele>640.0</ele><time>2026-04-09T10:03:11.465Z</time></trkpt><trkpt lat="42.9159073" lon="11.756508"><ele>645.0</ele><time>2026-04-09T10:03:12.465Z</time></trkpt><trkpt lat="42.9158689" lon="11.7566959"><ele>650.0</ele><time>2026-04-09T10:03:13.463Z</time></trkpt><trkpt lat="42.9158378" lon="11.7569097"><ele>655.0</ele><time>2026-04-09T10:03:14.466Z</time></trkpt><trkpt lat="42.9158068" lon="11.7571262"><ele>657.0</ele><time>2026-04-09T10:03:15.462Z</time></trkpt><trkpt lat="42.9157626" lon="11.7572991"><ele>659.0</ele><time>2026-04-09T10:03:16.452Z</time></trkpt><trkpt lat="42.915696" lon="11.7574173"><ele>661.0</ele><time>2026-04-09T10:03:17.456Z</time></trkpt><trkpt lat="42.915596" lon="11.7575025"><ele>663.0</ele><time>2026-04-09T10:03:18.451Z</time></trkpt><trkpt lat="42.915482" lon="11.7575601"><ele>663.0</ele><time>2026-04-09T10:03:19.454Z</time></trkpt><trkpt lat="42.9153827" lon="11.7576072"><ele>663.0</ele><time>2026-04-09T10:03:20.452Z</time></trkpt><trkpt lat="42.9152808" lon="11.7576389"><ele>663.0</ele><time>2026-04-09T10:03:21.466Z</time></trkpt><trkpt lat="42.9151797" lon="11.7576406"><ele>663.0</ele><time>2026-04-09T10:03:22.455Z</time></trkpt><trkpt lat="42.9150969" lon="11.7576631"><ele>663.0</ele><time>2026-04-09T10:03:23.454Z</time></trkpt><trkpt lat="42.9150294" lon="11.7577074"><ele>664.6666666666666</ele><time>2026-04-09T10:03:24.452Z</time></trkpt><trkpt lat="42.9149751" lon="11.7577674"><ele>666.3333333333334</ele><time>2026-04-09T10:03:25.451Z</time></trkpt><trkpt lat="42.9149326" lon="11.7578448"><ele>668.0</ele><time>2026-04-09T10:03:26.456Z</time></trkpt><trkpt lat="42.914907" lon="11.7579282"><ele>669.6666666666667</ele><time>2026-04-09T10:03:27.449Z</time></trkpt><trkpt lat="42.9148689" lon="11.758074"><ele>671.3333333333334</ele><time>2026-04-09T10:03:29.459Z</time></trkpt><trkpt lat="42.914828" lon="11.7581625"><ele>673.0</ele><time>2026-04-09T10:03:31.453Z</time></trkpt><trkpt lat="42.9147874" lon="11.7582424"><ele>673.0</ele><time>2026-04-09T10:03:34.452Z</time></trkpt><trkpt lat="42.914817" lon="11.7581512"><ele>673.0</ele><time>2026-04-09T10:03:42.451Z</time></trkpt><trkpt lat="42.9148718" lon="11.7580312"><ele>673.0</ele><time>2026-04-09T10:03:43.453Z</time></trkpt><trkpt lat="42.9149322" lon="11.7579279"><ele>673.0</ele><time>2026-04-09T10:03:44.455Z</time></trkpt><trkpt lat="42.915018" lon="11.7578548"><ele>673.0</ele><time>2026-04-09T10:03:45.448Z</time></trkpt><trkpt lat="42.9151269" lon="11.7578023"><ele>673.2</ele><time>2026-04-09T10:03:46.453Z</time></trkpt><trkpt lat="42.9152458" lon="11.7577662"><ele>673.4</ele><time>2026-04-09T10:03:47.453Z</time></trkpt><trkpt lat="42.9153498" lon="11.7577374"><ele>673.6</ele><time>2026-04-09T10:03:48.454Z</time></trkpt><trkpt lat="42.9154505" lon="11.7577014"><ele>673.8000000000001</ele><time>2026-04-09T10:03:49.449Z</time></trkpt><trkpt lat="42.9155386" lon="11.7576513"><ele>674.0</ele><time>2026-04-09T10:03:50.445Z</time></trkpt><trkpt lat="42.9156086" lon="11.7575863"><ele>672.1666666666666</ele><time>2026-04-09T10:03:51.443Z</time></trkpt><trkpt lat="42.9156767" lon="11.7574995"><ele>670.3333333333333</ele><time>2026-04-09T10:03:52.443Z</time></trkpt><trkpt lat="42.9157358" lon="11.7573982"><ele>668.5</ele><time>2026-04-09T10:03:53.449Z</time></trkpt><trkpt lat="42.9157827" lon="11.7572935"><ele>666.6666666666666</ele><time>2026-04-09T10:03:54.451Z</time></trkpt><trkpt lat="42.9158116" lon="11.7571805"><ele>664.8333333333334</ele><time>2026-04-09T10:03:55.458Z</time></trkpt><trkpt lat="42.9158287" lon="11.7570734"><ele>663.0</ele><time>2026-04-09T10:03:56.456Z</time></trkpt><trkpt lat="42.9158311" lon="11.7569675"><ele>663.0</ele><time>2026-04-09T10:03:57.461Z</time></trkpt><trkpt lat="42.9158032" lon="11.7571288"><ele>663.0</ele><time>2026-04-09T10:04:07.467Z</time></trkpt><trkpt lat="42.9157909" lon="11.7572137"><ele>663.0</ele><time>2026-04-09T10:04:08.458Z</time></trkpt><trkpt lat="42.9157769" lon="11.757298"><ele>663.0</ele><time>2026-04-09T10:04:09.461Z</time></trkpt><trkpt lat="42.9157486" lon="11.7574319"><ele>663.0</ele><time>2026-04-09T10:04:11.453Z</time></trkpt><trkpt lat="42.9157281" lon="11.7575223"><ele>663.0</ele><time>2026-04-09T10:04:13.46Z</time></trkpt><trkpt lat="42.9156351" lon="11.7576082"><ele>663.0</ele><time>2026-04-09T10:04:15.454Z</time></trkpt><trkpt lat="42.9155664" lon="11.7576566"><ele>663.0</ele><time>2026-04-09T10:04:16.445Z</time></trkpt><trkpt lat="42.9154871" lon="11.7576891"><ele>663.0</ele><time>2026-04-09T10:04:17.451Z</time></trkpt><trkpt lat="42.9154038" lon="11.7577125"><ele>663.0</ele><time>2026-04-09T10:04:18.449Z</time></trkpt><trkpt lat="42.9153209" lon="11.7577144"><ele>663.0</ele><time>2026-04-09T10:04:19.448Z</time></trkpt><trkpt lat="42.9152488" lon="11.7577185"><ele>663.0</ele><time>2026-04-09T10:04:20.475Z</time></trkpt><trkpt lat="42.9151784" lon="11.7577332"><ele>664.6666666666666</ele><time>2026-04-09T10:04:21.459Z</time></trkpt><trkpt lat="42.9151165" lon="11.7577674"><ele>666.3333333333334</ele><time>2026-04-09T10:04:22.455Z</time></trkpt><trkpt lat="42.9150574" lon="11.7578177"><ele>668.0</ele><time>2026-04-09T10:04:23.458Z</time></trkpt><trkpt lat="42.9149737" lon="11.7579377"><ele>669.6666666666667</ele><time>2026-04-09T10:04:25.461Z</time></trkpt><trkpt lat="42.91495" lon="11.7580637"><ele>671.3333333333334</ele><time>2026-04-09T10:04:27.452Z</time></trkpt><trkpt lat="42.9148901" lon="11.7581494"><ele>673.0</ele><time>2026-04-09T10:04:31.475Z</time></trkpt><trkpt lat="42.9148042" lon="11.75821"><ele>673.0</ele><time>2026-04-09T10:04:33.464Z</time></trkpt><trkpt lat="42.9147469" lon="11.7582733"><ele>673.0</ele><time>2026-04-09T10:04:34.479Z</time></trkpt><trkpt lat="42.9146766" lon="11.7583818"><ele>673.0</ele><time>2026-04-09T10:04:35.455Z</time></trkpt><trkpt lat="42.9145947" lon="11.7585012"><ele>673.0</ele><time>2026-04-09T10:04:36.452Z</time></trkpt><trkpt lat="42.9145053" lon="11.7586175"><ele>673.0</ele><time>2026-04-09T10:04:37.449Z</time></trkpt><trkpt lat="42.9144057" lon="11.7587432"><ele>674.0</ele><time>2026-04-09T10:04:38.473Z</time></trkpt><trkpt lat="42.9143109" lon="11.7588789"><ele>675.0</ele><time>2026-04-09T10:04:39.456Z</time></trkpt><trkpt lat="42.9142421" lon="11.7590395"><ele>676.0</ele><time>2026-04-09T10:04:40.439Z</time></trkpt><trkpt lat="42.914195" lon="11.759217"><ele>677.0</ele><time>2026-04-09T10:04:41.455Z</time></trkpt><trkpt lat="42.9141626" lon="11.7594331"><ele>680.0</ele><time>2026-04-09T10:04:42.463Z</time></trkpt><trkpt lat="42.9141173" lon="11.7597333"><ele>683.0</ele><time>2026-04-09T10:04:43.445Z</time></trkpt><trkpt lat="42.9140333" lon="11.7599857"><ele>686.0</ele><time>2026-04-09T10:04:44.443Z</time></trkpt><trkpt lat="42.9139348" lon="11.7601857"><ele>687.5</ele><time>2026-04-09T10:04:45.438Z</time></trkpt><trkpt lat="42.913846" lon="11.760358"><ele>689.0</ele><time>2026-04-09T10:04:46.452Z</time></trkpt><trkpt lat="42.913755" lon="11.7605345"><ele>690.5</ele><time>2026-04-09T10:04:47.45Z</time></trkpt><trkpt lat="42.9137096" lon="11.7607093"><ele>692.0</ele><time>2026-04-09T10:04:48.445Z</time></trkpt><trkpt lat="42.9137115" lon="11.7608406"><ele>692.0</ele><time>2026-04-09T10:04:49.458Z</time></trkpt><trkpt lat="42.9137464" lon="11.7609804"><ele>692.0</ele><time>2026-04-09T10:04:50.453Z</time></trkpt><trkpt lat="42.9138024" lon="11.7610757"><ele>692.0</ele><time>2026-04-09T10:04:51.452Z</time></trkpt><trkpt lat="42.9138542" lon="11.7611689"><ele>692.0</ele><time>2026-04-09T10:04:52.451Z</time></trkpt><trkpt lat="42.9138979" lon="11.7612841"><ele>692.0</ele><time>2026-04-09T10:04:53.456Z</time></trkpt><trkpt lat="42.913957" lon="11.7613862"><ele>691.8</ele><time>2026-04-09T10:04:54.449Z</time></trkpt><trkpt lat="42.9140032" lon="11.7614952"><ele>691.6</ele><time>2026-04-09T10:04:55.452Z</time></trkpt><trkpt lat="42.9140337" lon="11.7616094"><ele>691.4</ele><time>2026-04-09T10:04:56.459Z</time></trkpt><trkpt lat="42.9140355" lon="11.7617276"><ele>691.1999999999999</ele><time>2026-04-09T10:04:57.443Z</time></trkpt><trkpt lat="42.914014" lon="11.7618521"><ele>691.0</ele><time>2026-04-09T10:04:58.461Z</time></trkpt><trkpt lat="42.9139734" lon="11.7619767"><ele>690.5</ele><time>2026-04-09T10:04:59.456Z</time></trkpt><trkpt lat="42.9139145" lon="11.7621034"><ele>690.0</ele><time>2026-04-09T10:05:00.454Z</time></trkpt><trkpt lat="42.9138234" lon="11.7622446"><ele>689.5</ele><time>2026-04-09T10:05:01.454Z</time></trkpt><trkpt lat="42.9137251" lon="11.7623958"><ele>689.0</ele><time>2026-04-09T10:05:02.459Z</time></trkpt><trkpt lat="42.9136158" lon="11.7625699"><ele>687.6666666666666</ele><time>2026-04-09T10:05:03.451Z</time></trkpt><trkpt lat="42.913526" lon="11.7627343"><ele>686.3333333333334</ele><time>2026-04-09T10:05:04.462Z</time></trkpt><trkpt lat="42.9134312" lon="11.762914"><ele>685.0</ele><time>2026-04-09T10:05:05.46Z</time></trkpt><trkpt lat="42.913338" lon="11.7630759"><ele>688.75</ele><time>2026-04-09T10:05:06.45Z</time></trkpt><trkpt lat="42.9132439" lon="11.7632512"><ele>692.5</ele><time>2026-04-09T10:05:07.452Z</time></trkpt><trkpt lat="42.913142" lon="11.763424"><ele>696.25</ele><time>2026-04-09T10:05:08.455Z</time></trkpt><trkpt lat="42.9130677" lon="11.7635633"><ele>700.0</ele><time>2026-04-09T10:05:09.454Z</time></trkpt><trkpt lat="42.9130106" lon="11.7636728"><ele>700.75</ele><time>2026-04-09T10:05:10.459Z</time></trkpt><trkpt lat="42.9129043" lon="11.7637344"><ele>701.5</ele><time>2026-04-09T10:05:11.481Z</time></trkpt><trkpt lat="42.9127866" lon="11.7637783"><ele>702.25</ele><time>2026-04-09T10:05:12.46Z</time></trkpt><trkpt lat="42.9126573" lon="11.7637746"><ele>703.0</ele><time>2026-04-09T10:05:13.457Z</time></trkpt><trkpt lat="42.9125133" lon="11.7637322"><ele>704.6666666666667</ele><time>2026-04-09T10:05:14.446Z</time></trkpt><trkpt lat="42.9123596" lon="11.7636692"><ele>706.3333333333334</ele><time>2026-04-09T10:05:15.455Z</time></trkpt><trkpt lat="42.9121744" lon="11.7635755"><ele>708.0</ele><time>2026-04-09T10:05:16.455Z</time></trkpt><trkpt lat="42.9119845" lon="11.7634917"><ele>708.0</ele><time>2026-04-09T10:05:17.452Z</time></trkpt><trkpt lat="42.9117825" lon="11.7634436"><ele>708.0</ele><time>2026-04-09T10:05:18.452Z</time></trkpt><trkpt lat="42.9116065" lon="11.7634128"><ele>708.0</ele><time>2026-04-09T10:05:19.448Z</time></trkpt><trkpt lat="42.9114096" lon="11.7634112"><ele>710.3333333333334</ele><time>2026-04-09T10:05:20.444Z</time></trkpt><trkpt lat="42.9112335" lon="11.7634282"><ele>712.6666666666667</ele><time>2026-04-09T10:05:21.456Z</time></trkpt><trkpt lat="42.9110675" lon="11.7634782"><ele>715.0</ele><time>2026-04-09T10:05:22.447Z</time></trkpt><trkpt lat="42.9109222" lon="11.76355"><ele>718.6666666666667</ele><time>2026-04-09T10:05:23.45Z</time></trkpt><trkpt lat="42.9107772" lon="11.7636512"><ele>722.3333333333334</ele><time>2026-04-09T10:05:24.456Z</time></trkpt><trkpt lat="42.9106292" lon="11.7637797"><ele>726.0</ele><time>2026-04-09T10:05:25.457Z</time></trkpt><trkpt lat="42.9104568" lon="11.7639222"><ele>726.0</ele><time>2026-04-09T10:05:26.463Z</time></trkpt><trkpt lat="42.9102814" lon="11.7640639"><ele>726.0</ele><time>2026-04-09T10:05:27.46Z</time></trkpt><trkpt lat="42.9101255" lon="11.764198"><ele>726.0</ele><time>2026-04-09T10:05:28.461Z</time></trkpt><trkpt lat="42.9099717" lon="11.7643163"><ele>729.3333333333334</ele><time>2026-04-09T10:05:29.457Z</time></trkpt><trkpt lat="42.9098449" lon="11.7643756"><ele>732.6666666666667</ele><time>2026-04-09T10:05:30.456Z</time></trkpt><trkpt lat="42.9096814" lon="11.7644166"><ele>736.0</ele><time>2026-04-09T10:05:31.457Z</time></trkpt><trkpt lat="42.9095005" lon="11.7644308"><ele>736.0</ele><time>2026-04-09T10:05:32.457Z</time></trkpt><trkpt lat="42.9093354" lon="11.7643788"><ele>736.0</ele><time>2026-04-09T10:05:33.456Z</time></trkpt><trkpt lat="42.9091516" lon="11.7643098"><ele>736.0</ele><time>2026-04-09T10:05:34.455Z</time></trkpt><trkpt lat="42.9089492" lon="11.764225"><ele>735.3333333333334</ele><time>2026-04-09T10:05:35.457Z</time></trkpt><trkpt lat="42.9087682" lon="11.7641704"><ele>734.6666666666666</ele><time>2026-04-09T10:05:36.454Z</time></trkpt><trkpt lat="42.9085729" lon="11.7641227"><ele>734.0</ele><time>2026-04-09T10:05:37.458Z</time></trkpt><trkpt lat="42.9083346" lon="11.7640756"><ele>736.0</ele><time>2026-04-09T10:05:38.459Z</time></trkpt><trkpt lat="42.9081225" lon="11.7640565"><ele>738.0</ele><time>2026-04-09T10:05:39.454Z</time></trkpt><trkpt lat="42.9078933" lon="11.7640287"><ele>740.0</ele><time>2026-04-09T10:05:40.46Z</time></trkpt><trkpt lat="42.907676" lon="11.7639948"><ele>742.0</ele><time>2026-04-09T10:05:41.455Z</time></trkpt><trkpt lat="42.9074717" lon="11.7639798"><ele>744.0</ele><time>2026-04-09T10:05:42.447Z</time></trkpt><trkpt lat="42.9072621" lon="11.7639712"><ele>746.0</ele><time>2026-04-09T10:05:43.448Z</time></trkpt><trkpt lat="42.907052" lon="11.7639877"><ele>746.0</ele><time>2026-04-09T10:05:44.46Z</time></trkpt><trkpt lat="42.9068409" lon="11.763985"><ele>746.0</ele><time>2026-04-09T10:05:45.458Z</time></trkpt><trkpt lat="42.9066446" lon="11.763963"><ele>746.0</ele><time>2026-04-09T10:05:46.452Z</time></trkpt><trkpt lat="42.9064815" lon="11.7639742"><ele>748.3333333333333</ele><time>2026-04-09T10:05:47.455Z</time></trkpt><trkpt lat="42.9063084" lon="11.7640279"><ele>750.6666666666666</ele><time>2026-04-09T10:05:48.455Z</time></trkpt><trkpt lat="42.9061472" lon="11.7641234"><ele>753.0</ele><time>2026-04-09T10:05:49.454Z</time></trkpt><trkpt lat="42.9059741" lon="11.7641906"><ele>752.3333333333334</ele><time>2026-04-09T10:05:50.451Z</time></trkpt><trkpt lat="42.9057762" lon="11.7642334"><ele>751.6666666666667</ele><time>2026-04-09T10:05:51.448Z</time></trkpt><trkpt lat="42.9056059" lon="11.7642998"><ele>751.0</ele><time>2026-04-09T10:05:52.453Z</time></trkpt><trkpt lat="42.9054462" lon="11.7643638"><ele>752.75</ele><time>2026-04-09T10:05:53.444Z</time></trkpt><trkpt lat="42.9053095" lon="11.7644352"><ele>754.5</ele><time>2026-04-09T10:05:54.446Z</time></trkpt><trkpt lat="42.9051961" lon="11.7645116"><ele>756.25</ele><time>2026-04-09T10:05:55.444Z</time></trkpt><trkpt lat="42.9050906" lon="11.7645617"><ele>758.0</ele><time>2026-04-09T10:05:56.45Z</time></trkpt><trkpt lat="42.9050036" lon="11.7646185"><ele>758.0</ele><time>2026-04-09T10:05:57.447Z</time></trkpt><trkpt lat="42.9048985" lon="11.7647014"><ele>758.0</ele><time>2026-04-09T10:05:58.447Z</time></trkpt><trkpt lat="42.9048125" lon="11.7648408"><ele>758.0</ele><time>2026-04-09T10:05:59.449Z</time></trkpt><trkpt lat="42.9047675" lon="11.7650159"><ele>758.0</ele><time>2026-04-09T10:06:00.467Z</time></trkpt><trkpt lat="42.9047375" lon="11.7651713"><ele>759.75</ele><time>2026-04-09T10:06:01.447Z</time></trkpt><trkpt lat="42.9047001" lon="11.7653466"><ele>761.5</ele><time>2026-04-09T10:06:02.455Z</time></trkpt><trkpt lat="42.9046717" lon="11.7654989"><ele>763.25</ele><time>2026-04-09T10:06:03.452Z</time></trkpt><trkpt lat="42.9046388" lon="11.7656288"><ele>765.0</ele><time>2026-04-09T10:06:04.45Z</time></trkpt><trkpt lat="42.9046098" lon="11.7657688"><ele>765.0</ele><time>2026-04-09T10:06:05.453Z</time></trkpt><trkpt lat="42.9045701" lon="11.7659155"><ele>765.0</ele><time>2026-04-09T10:06:06.438Z</time></trkpt><trkpt lat="42.9045304" lon="11.7660356"><ele>765.0</ele><time>2026-04-09T10:06:07.449Z</time></trkpt><trkpt lat="42.904534" lon="11.7661595"><ele>765.0</ele><time>2026-04-09T10:06:09.442Z</time></trkpt><trkpt lat="42.9045439" lon="11.7660478"><ele>765.0</ele><time>2026-04-09T10:06:23.458Z</time></trkpt><trkpt lat="42.9045829" lon="11.7658584"><ele>765.0</ele><time>2026-04-09T10:06:25.454Z</time></trkpt><trkpt lat="42.9046278" lon="11.7657093"><ele>765.0</ele><time>2026-04-09T10:06:26.459Z</time></trkpt><trkpt lat="42.9046928" lon="11.7655345"><ele>765.0</ele><time>2026-04-09T10:06:27.45Z</time></trkpt><trkpt lat="42.9047516" lon="11.7653309"><ele>765.0</ele><time>2026-04-09T10:06:28.448Z</time></trkpt><trkpt lat="42.9048263" lon="11.7650605"><ele>763.5</ele><time>2026-04-09T10:06:29.46Z</time></trkpt><trkpt lat="42.9048841" lon="11.7648471"><ele>762.0</ele><time>2026-04-09T10:06:30.452Z</time></trkpt><trkpt lat="42.9049656" lon="11.7646721"><ele>760.5</ele><time>2026-04-09T10:06:31.458Z</time></trkpt><trkpt lat="42.9050329" lon="11.7645686"><ele>759.0</ele><time>2026-04-09T10:06:32.454Z</time></trkpt><trkpt lat="42.9051249" lon="11.7644846"><ele>759.0</ele><time>2026-04-09T10:06:33.459Z</time></trkpt><trkpt lat="42.9052467" lon="11.7644224"><ele>759.0</ele><time>2026-04-09T10:06:34.461Z</time></trkpt><trkpt lat="42.9053856" lon="11.7643684"><ele>759.0</ele><time>2026-04-09T10:06:35.462Z</time></trkpt><trkpt lat="42.9055321" lon="11.7643249"><ele>759.0</ele><time>2026-04-09T10:06:36.481Z</time></trkpt><trkpt lat="42.9057086" lon="11.7642765"><ele>757.5</ele><time>2026-04-09T10:06:37.461Z</time></trkpt><trkpt lat="42.9058587" lon="11.7642487"><ele>756.0</ele><time>2026-04-09T10:06:38.462Z</time></trkpt><trkpt lat="42.9060077" lon="11.7642172"><ele>754.5</ele><time>2026-04-09T10:06:39.457Z</time></trkpt><trkpt lat="42.9061413" lon="11.7641617"><ele>753.0</ele><time>2026-04-09T10:06:40.456Z</time></trkpt><trkpt lat="42.9062731" lon="11.7641352"><ele>753.0</ele><time>2026-04-09T10:06:41.454Z</time></trkpt><trkpt lat="42.9063476" lon="11.7640749"><ele>753.0</ele><time>2026-04-09T10:06:42.452Z</time></trkpt><trkpt lat="42.9064058" lon="11.7640286"><ele>753.0</ele><time>2026-04-09T10:06:44.454Z</time></trkpt><trkpt lat="42.9064217" lon="11.7641553"><ele>753.0</ele><time>2026-04-09T10:06:48.466Z</time></trkpt><trkpt lat="42.9063869" lon="11.7643005"><ele>753.0</ele><time>2026-04-09T10:06:50.459Z</time></trkpt><trkpt lat="42.9063604" lon="11.7643842"><ele>753.0</ele><time>2026-04-09T10:06:51.454Z</time></trkpt><trkpt lat="42.9063231" lon="11.7645306"><ele>754.3333333333334</ele><time>2026-04-09T10:06:53.457Z</time></trkpt><trkpt lat="42.9063056" lon="11.7646944"><ele>755.6666666666666</ele><time>2026-04-09T10:06:55.479Z</time></trkpt><trkpt lat="42.9063032" lon="11.7648647"><ele>757.0</ele><time>2026-04-09T10:06:57.463Z</time></trkpt><trkpt lat="42.9063138" lon="11.7649586"><ele>758.3333333333333</ele><time>2026-04-09T10:06:58.461Z</time></trkpt><trkpt lat="42.9063266" lon="11.7650473"><ele>759.6666666666666</ele><time>2026-04-09T10:06:59.462Z</time></trkpt><trkpt lat="42.906341" lon="11.7651321"><ele>761.0</ele><time>2026-04-09T10:07:00.465Z</time></trkpt><trkpt lat="42.9063713" lon="11.7652879"><ele>763.1999999999999</ele><time>2026-04-09T10:07:02.466Z</time></trkpt><trkpt lat="42.9064035" lon="11.7654078"><ele>765.4</ele><time>2026-04-09T10:07:04.453Z</time></trkpt><trkpt lat="42.9064696" lon="11.765524"><ele>767.6</ele><time>2026-04-09T10:07:06.455Z</time></trkpt><trkpt lat="42.9065148" lon="11.7656078"><ele>769.8</ele><time>2026-04-09T10:07:08.458Z</time></trkpt><trkpt lat="42.9065595" lon="11.7657097"><ele>772.0</ele><time>2026-04-09T10:07:10.458Z</time></trkpt><trkpt lat="42.9065649" lon="11.7658329"><ele>771.9999999999999</ele><time>2026-04-09T10:07:12.452Z</time></trkpt><trkpt lat="42.90656" lon="11.7659199"><ele>772.0</ele><time>2026-04-09T10:07:13.452Z</time></trkpt><trkpt lat="42.9065568" lon="11.7660079"><ele>772.0</ele><time>2026-04-09T10:07:14.454Z</time></trkpt><trkpt lat="42.90656" lon="11.7661789"><ele>772.0</ele><time>2026-04-09T10:07:16.445Z</time></trkpt><trkpt lat="42.9065631" lon="11.7662747"><ele>771.9999999999999</ele><time>2026-04-09T10:07:17.455Z</time></trkpt><trkpt lat="42.9065661" lon="11.7663747"><ele>772.0</ele><time>2026-04-09T10:07:18.454Z</time></trkpt><trkpt lat="42.9065682" lon="11.766475"><ele>773.9999999999999</ele><time>2026-04-09T10:07:19.448Z</time></trkpt><trkpt lat="42.9065781" lon="11.7665812"><ele>776.0</ele><time>2026-04-09T10:07:20.451Z</time></trkpt><trkpt lat="42.9065877" lon="11.7666933"><ele>778.0</ele><time>2026-04-09T10:07:21.45Z</time></trkpt><trkpt lat="42.9065949" lon="11.7668102"><ele>780.0</ele><time>2026-04-09T10:07:22.455Z</time></trkpt><trkpt lat="42.9066048" lon="11.7669262"><ele>781.9999999999999</ele><time>2026-04-09T10:07:23.457Z</time></trkpt><trkpt lat="42.9066182" lon="11.7670322"><ele>784.0</ele><time>2026-04-09T10:07:24.454Z</time></trkpt><trkpt lat="42.9066575" lon="11.7671761"><ele>784.0</ele><time>2026-04-09T10:07:26.457Z</time></trkpt><trkpt lat="42.9067182" lon="11.7671262"><ele>784.0</ele><time>2026-04-09T10:07:32.461Z</time></trkpt><trkpt lat="42.906732" lon="11.7669786"><ele>784.0</ele><time>2026-04-09T10:07:35.476Z</time></trkpt><trkpt lat="42.9067112" lon="11.766808"><ele>784.0</ele><time>2026-04-09T10:07:37.458Z</time></trkpt><trkpt lat="42.9066925" lon="11.7667079"><ele>784.0</ele><time>2026-04-09T10:07:38.459Z</time></trkpt><trkpt lat="42.9066761" lon="11.7666121"><ele>783.9999999999999</ele><time>2026-04-09T10:07:39.462Z</time></trkpt><trkpt lat="42.9066605" lon="11.7665152"><ele>784.0</ele><time>2026-04-09T10:07:40.464Z</time></trkpt><trkpt lat="42.9066399" lon="11.7664137"><ele>784.0</ele><time>2026-04-09T10:07:41.46Z</time></trkpt><trkpt lat="42.9066134" lon="11.7663184"><ele>784.0</ele><time>2026-04-09T10:07:42.453Z</time></trkpt><trkpt lat="42.9065815" lon="11.7662433"><ele>783.9999999999999</ele><time>2026-04-09T10:07:43.453Z</time></trkpt><trkpt lat="42.9065236" lon="11.7661266"><ele>784.0</ele><time>2026-04-09T10:07:45.45Z</time></trkpt><trkpt lat="42.9064541" lon="11.7659997"><ele>781.9999999999999</ele><time>2026-04-09T10:07:47.45Z</time></trkpt><trkpt lat="42.9064199" lon="11.7659207"><ele>780.0</ele><time>2026-04-09T10:07:48.455Z</time></trkpt><trkpt lat="42.9063867" lon="11.7658392"><ele>778.0</ele><time>2026-04-09T10:07:49.455Z</time></trkpt><trkpt lat="42.9063574" lon="11.7657586"><ele>776.0</ele><time>2026-04-09T10:07:50.447Z</time></trkpt><trkpt lat="42.9063197" lon="11.7656186"><ele>773.9999999999999</ele><time>2026-04-09T10:07:52.47Z</time></trkpt><trkpt lat="42.9063105" lon="11.7654855"><ele>772.0</ele><time>2026-04-09T10:07:54.464Z</time></trkpt><trkpt lat="42.9063337" lon="11.7653739"><ele>772.0</ele><time>2026-04-09T10:07:56.468Z</time></trkpt><trkpt lat="42.9063816" lon="11.7653015"><ele>772.0</ele><time>2026-04-09T10:07:59.465Z</time></trkpt><trkpt lat="42.9064341" lon="11.7652166"><ele>772.0</ele><time>2026-04-09T10:08:03.466Z</time></trkpt><trkpt lat="42.9064459" lon="11.7651015"><ele>772.0</ele><time>2026-04-09T10:08:06.462Z</time></trkpt><trkpt lat="42.9064386" lon="11.7649685"><ele>772.0</ele><time>2026-04-09T10:08:09.465Z</time></trkpt><trkpt lat="42.9064365" lon="11.7647955"><ele>770.1666666666666</ele><time>2026-04-09T10:08:11.46Z</time></trkpt><trkpt lat="42.9064401" lon="11.7647075"><ele>768.3333333333333</ele><time>2026-04-09T10:08:12.465Z</time></trkpt><trkpt lat="42.9064441" lon="11.7645611"><ele>766.5</ele><time>2026-04-09T10:08:14.468Z</time></trkpt><trkpt lat="42.9064424" lon="11.7644394"><ele>764.6666666666666</ele><time>2026-04-09T10:08:16.463Z</time></trkpt><trkpt lat="42.9064448" lon="11.7643358"><ele>762.8333333333333</ele><time>2026-04-09T10:08:18.463Z</time></trkpt><trkpt lat="42.9064402" lon="11.7642497"><ele>761.0</ele><time>2026-04-09T10:08:20.46Z</time></trkpt><trkpt lat="42.9064342" lon="11.7641327"><ele>759.4</ele><time>2026-04-09T10:08:23.462Z</time></trkpt><trkpt lat="42.9063796" lon="11.7640478"><ele>757.8</ele><time>2026-04-09T10:08:26.458Z</time></trkpt><trkpt lat="42.9062608" lon="11.7640757"><ele>756.1999999999999</ele><time>2026-04-09T10:08:28.464Z</time></trkpt><trkpt lat="42.9061771" lon="11.7641057"><ele>754.5999999999999</ele><time>2026-04-09T10:08:29.459Z</time></trkpt><trkpt lat="42.9060752" lon="11.7641563"><ele>753.0</ele><time>2026-04-09T10:08:30.47Z</time></trkpt><trkpt lat="42.9059514" lon="11.7642132"><ele>752.5</ele><time>2026-04-09T10:08:31.457Z</time></trkpt><trkpt lat="42.9058229" lon="11.7642639"><ele>752.0</ele><time>2026-04-09T10:08:32.463Z</time></trkpt><trkpt lat="42.9056953" lon="11.7643141"><ele>751.5</ele><time>2026-04-09T10:08:33.46Z</time></trkpt><trkpt lat="42.9055625" lon="11.7643663"><ele>751.0</ele><time>2026-04-09T10:08:34.464Z</time></trkpt><trkpt lat="42.9054312" lon="11.7644266"><ele>752.75</ele><time>2026-04-09T10:08:35.459Z</time></trkpt><trkpt lat="42.9053044" lon="11.7644855"><ele>754.5</ele><time>2026-04-09T10:08:36.457Z</time></trkpt><trkpt lat="42.9051805" lon="11.7645505"><ele>756.25</ele><time>2026-04-09T10:08:37.457Z</time></trkpt><trkpt lat="42.9050695" lon="11.7646266"><ele>758.0</ele><time>2026-04-09T10:08:38.454Z</time></trkpt><trkpt lat="42.9049615" lon="11.7647244"><ele>758.0</ele><time>2026-04-09T10:08:39.449Z</time></trkpt><trkpt lat="42.9048698" lon="11.7648583"><ele>758.0</ele><time>2026-04-09T10:08:40.453Z</time></trkpt><trkpt lat="42.9047952" lon="11.7650275"><ele>758.0</ele><time>2026-04-09T10:08:41.449Z</time></trkpt><trkpt lat="42.9047407" lon="11.7652199"><ele>758.0</ele><time>2026-04-09T10:08:42.452Z</time></trkpt><trkpt lat="42.9046995" lon="11.7655015"><ele>759.75</ele><time>2026-04-09T10:08:43.455Z</time></trkpt><trkpt lat="42.9046387" lon="11.7657176"><ele>761.5</ele><time>2026-04-09T10:08:44.477Z</time></trkpt><trkpt lat="42.9045895" lon="11.7658828"><ele>763.25</ele><time>2026-04-09T10:08:45.451Z</time></trkpt><trkpt lat="42.9045146" lon="11.7659815"><ele>765.0</ele><time>2026-04-09T10:08:46.453Z</time></trkpt><trkpt lat="42.904416" lon="11.7660623"><ele>765.25</ele><time>2026-04-09T10:08:47.454Z</time></trkpt><trkpt lat="42.904304" lon="11.7661137"><ele>765.5</ele><time>2026-04-09T10:08:48.455Z</time></trkpt><trkpt lat="42.9041592" lon="11.7661257"><ele>765.75</ele><time>2026-04-09T10:08:49.451Z</time></trkpt><trkpt lat="42.9040283" lon="11.7660947"><ele>766.0</ele><time>2026-04-09T10:08:50.449Z</time></trkpt><trkpt lat="42.9038953" lon="11.7660247"><ele>766.6666666666667</ele><time>2026-04-09T10:08:51.447Z</time></trkpt><trkpt lat="42.9037442" lon="11.7658708"><ele>767.3333333333334</ele><time>2026-04-09T10:08:52.455Z</time></trkpt><trkpt lat="42.9035484" lon="11.7657078"><ele>768.0</ele><time>2026-04-09T10:08:53.45Z</time></trkpt><trkpt lat="42.9033731" lon="11.7655647"><ele>768.0</ele><time>2026-04-09T10:08:54.449Z</time></trkpt><trkpt lat="42.9031926" lon="11.7654353"><ele>768.0</ele><time>2026-04-09T10:08:55.442Z</time></trkpt><trkpt lat="42.903012" lon="11.7653249"><ele>768.0</ele><time>2026-04-09T10:08:56.45Z</time></trkpt><trkpt lat="42.9028635" lon="11.7651959"><ele>768.6666666666667</ele><time>2026-04-09T10:08:57.45Z</time></trkpt><trkpt lat="42.9027152" lon="11.7650869"><ele>769.3333333333334</ele><time>2026-04-09T10:08:58.457Z</time></trkpt><trkpt lat="42.9025257" lon="11.7650141"><ele>770.0</ele><time>2026-04-09T10:08:59.458Z</time></trkpt><trkpt lat="42.9023382" lon="11.7649288"><ele>770.0</ele><time>2026-04-09T10:09:00.453Z</time></trkpt><trkpt lat="42.9021504" lon="11.7648424"><ele>770.0</ele><time>2026-04-09T10:09:01.459Z</time></trkpt><trkpt lat="42.9020135" lon="11.7647732"><ele>770.0</ele><time>2026-04-09T10:09:02.45Z</time></trkpt><trkpt lat="42.901852" lon="11.764686"><ele>770.5</ele><time>2026-04-09T10:09:03.454Z</time></trkpt><trkpt lat="42.90172" lon="11.7645896"><ele>771.0</ele><time>2026-04-09T10:09:04.455Z</time></trkpt><trkpt lat="42.9016069" lon="11.7644822"><ele>771.5</ele><time>2026-04-09T10:09:05.453Z</time></trkpt><trkpt lat="42.9014929" lon="11.764349"><ele>772.0</ele><time>2026-04-09T10:09:06.446Z</time></trkpt><trkpt lat="42.9013873" lon="11.7641823"><ele>772.0</ele><time>2026-04-09T10:09:07.458Z</time></trkpt><trkpt lat="42.9012907" lon="11.764018"><ele>772.0</ele><time>2026-04-09T10:09:08.455Z</time></trkpt><trkpt lat="42.9011848" lon="11.7638455"><ele>772.0</ele><time>2026-04-09T10:09:09.457Z</time></trkpt><trkpt lat="42.9010883" lon="11.7636684"><ele>772.5</ele><time>2026-04-09T10:09:10.456Z</time></trkpt><trkpt lat="42.9010112" lon="11.7635152"><ele>773.0</ele><time>2026-04-09T10:09:11.448Z</time></trkpt><trkpt lat="42.9009204" lon="11.7633819"><ele>773.5</ele><time>2026-04-09T10:09:12.449Z</time></trkpt><trkpt lat="42.9007996" lon="11.7632819"><ele>774.0</ele><time>2026-04-09T10:09:13.446Z</time></trkpt><trkpt lat="42.9006582" lon="11.7632161"><ele>774.0</ele><time>2026-04-09T10:09:14.452Z</time></trkpt><trkpt lat="42.9004793" lon="11.7631828"><ele>774.0</ele><time>2026-04-09T10:09:15.451Z</time></trkpt><trkpt lat="42.9002518" lon="11.7631881"><ele>774.0</ele><time>2026-04-09T10:09:16.453Z</time></trkpt><trkpt lat="42.9000598" lon="11.7631679"><ele>774.0</ele><time>2026-04-09T10:09:17.458Z</time></trkpt><trkpt lat="42.8998415" lon="11.7631525"><ele>774.0</ele><time>2026-04-09T10:09:18.455Z</time></trkpt><trkpt lat="42.8995994" lon="11.7631257"><ele>774.0</ele><time>2026-04-09T10:09:19.455Z</time></trkpt><trkpt lat="42.899383" lon="11.7630958"><ele>774.0</ele><time>2026-04-09T10:09:20.457Z</time></trkpt><trkpt lat="42.8991878" lon="11.7630621"><ele>774.0</ele><time>2026-04-09T10:09:21.464Z</time></trkpt><trkpt lat="42.89901" lon="11.7630515"><ele>774.0</ele><time>2026-04-09T10:09:22.458Z</time></trkpt><trkpt lat="42.8988232" lon="11.7630392"><ele>774.0</ele><time>2026-04-09T10:09:23.456Z</time></trkpt><trkpt lat="42.8986447" lon="11.7629972"><ele>774.0</ele><time>2026-04-09T10:09:24.457Z</time></trkpt><trkpt lat="42.8984844" lon="11.7629911"><ele>773.5</ele><time>2026-04-09T10:09:25.456Z</time></trkpt><trkpt lat="42.8983219" lon="11.762964"><ele>773.0</ele><time>2026-04-09T10:09:26.451Z</time></trkpt><trkpt lat="42.8981863" lon="11.7629512"><ele>772.5</ele><time>2026-04-09T10:09:27.45Z</time></trkpt><trkpt lat="42.8980844" lon="11.7629265"><ele>772.0</ele><time>2026-04-09T10:09:28.454Z</time></trkpt><trkpt lat="42.8980068" lon="11.7628725"><ele>772.0</ele><time>2026-04-09T10:09:30.454Z</time></trkpt><trkpt lat="42.8979711" lon="11.7629901"><ele>772.0</ele><time>2026-04-09T10:09:33.445Z</time></trkpt><trkpt lat="42.8979385" lon="11.7630922"><ele>772.0</ele><time>2026-04-09T10:09:34.449Z</time></trkpt><trkpt lat="42.897861" lon="11.7631628"><ele>772.0</ele><time>2026-04-09T10:09:35.446Z</time></trkpt><trkpt lat="42.897792" lon="11.7632875"><ele>772.0</ele><time>2026-04-09T10:09:36.452Z</time></trkpt><trkpt lat="42.8977182" lon="11.7634131"><ele>772.5</ele><time>2026-04-09T10:09:37.451Z</time></trkpt><trkpt lat="42.8976488" lon="11.7635526"><ele>773.0</ele><time>2026-04-09T10:09:38.456Z</time></trkpt><trkpt lat="42.897578" lon="11.7637251"><ele>773.5</ele><time>2026-04-09T10:09:39.448Z</time></trkpt><trkpt lat="42.8975056" lon="11.7638851"><ele>774.0</ele><time>2026-04-09T10:09:40.454Z</time></trkpt><trkpt lat="42.897449" lon="11.7640297"><ele>774.0</ele><time>2026-04-09T10:09:41.461Z</time></trkpt><trkpt lat="42.897419" lon="11.7641637"><ele>774.0</ele><time>2026-04-09T10:09:42.452Z</time></trkpt><trkpt lat="42.8973933" lon="11.7642996"><ele>774.0</ele><time>2026-04-09T10:09:43.453Z</time></trkpt><trkpt lat="42.897388" lon="11.7644353"><ele>774.0</ele><time>2026-04-09T10:09:44.457Z</time></trkpt><trkpt lat="42.8973835" lon="11.7645736"><ele>774.0</ele><time>2026-04-09T10:09:45.448Z</time></trkpt><trkpt lat="42.8973778" lon="11.7647128"><ele>775.4000000000001</ele><time>2026-04-09T10:09:46.448Z</time></trkpt><trkpt lat="42.8973749" lon="11.7648464"><ele>776.8</ele><time>2026-04-09T10:09:47.452Z</time></trkpt><trkpt lat="42.8973586" lon="11.7649808"><ele>778.2</ele><time>2026-04-09T10:09:48.449Z</time></trkpt><trkpt lat="42.8973415" lon="11.7651303"><ele>779.5999999999999</ele><time>2026-04-09T10:09:49.452Z</time></trkpt><trkpt lat="42.8973236" lon="11.7652784"><ele>781.0</ele><time>2026-04-09T10:09:50.449Z</time></trkpt><trkpt lat="42.8973131" lon="11.7654187"><ele>784.0</ele><time>2026-04-09T10:09:51.453Z</time></trkpt><trkpt lat="42.8972965" lon="11.7655283"><ele>787.0</ele><time>2026-04-09T10:09:52.453Z</time></trkpt><trkpt lat="42.8972766" lon="11.7656349"><ele>790.0</ele><time>2026-04-09T10:09:53.448Z</time></trkpt><trkpt lat="42.8972478" lon="11.7657472"><ele>793.0</ele><time>2026-04-09T10:09:54.452Z</time></trkpt><trkpt lat="42.897191" lon="11.7658578"><ele>796.0</ele><time>2026-04-09T10:09:55.447Z</time></trkpt><trkpt lat="42.8971168" lon="11.7659523"><ele>796.0</ele><time>2026-04-09T10:09:56.453Z</time></trkpt><trkpt lat="42.8970252" lon="11.7660304"><ele>796.0</ele><time>2026-04-09T10:09:57.444Z</time></trkpt><trkpt lat="42.8969168" lon="11.7660804"><ele>796.0</ele><time>2026-04-09T10:09:58.447Z</time></trkpt><trkpt lat="42.8968058" lon="11.7661265"><ele>796.0</ele><time>2026-04-09T10:09:59.441Z</time></trkpt><trkpt lat="42.8966886" lon="11.76618"><ele>796.0</ele><time>2026-04-09T10:10:00.445Z</time></trkpt><trkpt lat="42.8965692" lon="11.7662329"><ele>796.0</ele><time>2026-04-09T10:10:01.451Z</time></trkpt><trkpt lat="42.8964547" lon="11.7662851"><ele>796.0</ele><time>2026-04-09T10:10:02.446Z</time></trkpt><trkpt lat="42.8963433" lon="11.7663425"><ele>796.0</ele><time>2026-04-09T10:10:03.446Z</time></trkpt><trkpt lat="42.8962427" lon="11.7664141"><ele>796.0</ele><time>2026-04-09T10:10:04.45Z</time></trkpt><trkpt lat="42.8961487" lon="11.7664831"><ele>796.0</ele><time>2026-04-09T10:10:05.449Z</time></trkpt><trkpt lat="42.8960473" lon="11.7665516"><ele>796.0</ele><time>2026-04-09T10:10:06.448Z</time></trkpt><trkpt lat="42.8959492" lon="11.766643"><ele>796.0</ele><time>2026-04-09T10:10:07.45Z</time></trkpt><trkpt lat="42.895866" lon="11.766735"><ele>796.0</ele><time>2026-04-09T10:10:08.444Z</time></trkpt><trkpt lat="42.8957855" lon="11.7668236"><ele>792.1999999999999</ele><time>2026-04-09T10:10:09.447Z</time></trkpt><trkpt lat="42.8957197" lon="11.766899"><ele>788.4</ele><time>2026-04-09T10:10:10.447Z</time></trkpt><trkpt lat="42.895676" lon="11.7669901"><ele>784.6</ele><time>2026-04-09T10:10:11.445Z</time></trkpt><trkpt lat="42.8956519" lon="11.76712"><ele>780.8</ele><time>2026-04-09T10:10:12.448Z</time></trkpt><trkpt lat="42.8956543" lon="11.7672816"><ele>777.0</ele><time>2026-04-09T10:10:13.448Z</time></trkpt><trkpt lat="42.895665" lon="11.7674644"><ele>777.0</ele><time>2026-04-09T10:10:14.448Z</time></trkpt><trkpt lat="42.8956903" lon="11.7676715"><ele>777.0</ele><time>2026-04-09T10:10:15.442Z</time></trkpt><trkpt lat="42.8957182" lon="11.7679203"><ele>777.0</ele><time>2026-04-09T10:10:16.445Z</time></trkpt><trkpt lat="42.8957774" lon="11.7681368"><ele>776.3333333333333</ele><time>2026-04-09T10:10:17.44Z</time></trkpt><trkpt lat="42.8957972" lon="11.7683719"><ele>775.6666666666666</ele><time>2026-04-09T10:10:18.441Z</time></trkpt><trkpt lat="42.8958085" lon="11.7685723"><ele>775.0</ele><time>2026-04-09T10:10:19.446Z</time></trkpt><trkpt lat="42.8957788" lon="11.768766"><ele>772.6666666666666</ele><time>2026-04-09T10:10:20.446Z</time></trkpt><trkpt lat="42.8957534" lon="11.7690034"><ele>770.3333333333333</ele><time>2026-04-09T10:10:21.446Z</time></trkpt><trkpt lat="42.8956899" lon="11.7692272"><ele>768.0</ele><time>2026-04-09T10:10:22.447Z</time></trkpt><trkpt lat="42.8956612" lon="11.7694536"><ele>767.25</ele><time>2026-04-09T10:10:23.444Z</time></trkpt><trkpt lat="42.8956834" lon="11.7696605"><ele>766.5</ele><time>2026-04-09T10:10:24.446Z</time></trkpt><trkpt lat="42.8956927" lon="11.7698714"><ele>765.75</ele><time>2026-04-09T10:10:25.448Z</time></trkpt><trkpt lat="42.8957197" lon="11.7700561"><ele>765.0</ele><time>2026-04-09T10:10:26.451Z</time></trkpt><trkpt lat="42.895774" lon="11.770205"><ele>764.2</ele><time>2026-04-09T10:10:27.449Z</time></trkpt><trkpt lat="42.8958025" lon="11.7703566"><ele>763.4</ele><time>2026-04-09T10:10:28.454Z</time></trkpt><trkpt lat="42.8958167" lon="11.7704756"><ele>762.5999999999999</ele><time>2026-04-09T10:10:29.443Z</time></trkpt><trkpt lat="42.8958354" lon="11.7706145"><ele>761.8</ele><time>2026-04-09T10:10:30.454Z</time></trkpt><trkpt lat="42.8958449" lon="11.7707399"><ele>761.0</ele><time>2026-04-09T10:10:31.453Z</time></trkpt><trkpt lat="42.895861" lon="11.770858"><ele>761.0</ele><time>2026-04-09T10:10:32.448Z</time></trkpt><trkpt lat="42.8958751" lon="11.7709635"><ele>761.0</ele><time>2026-04-09T10:10:33.45Z</time></trkpt><trkpt lat="42.8959062" lon="11.7710715"><ele>761.0</ele><time>2026-04-09T10:10:34.454Z</time></trkpt><trkpt lat="42.8959417" lon="11.7711663"><ele>761.0</ele><time>2026-04-09T10:10:35.452Z</time></trkpt><trkpt lat="42.8960158" lon="11.7712967"><ele>761.0</ele><time>2026-04-09T10:10:37.453Z</time></trkpt><trkpt lat="42.8960779" lon="11.7713849"><ele>761.4</ele><time>2026-04-09T10:10:38.451Z</time></trkpt><trkpt lat="42.8961303" lon="11.7714964"><ele>761.8</ele><time>2026-04-09T10:10:39.454Z</time></trkpt><trkpt lat="42.8961845" lon="11.7716205"><ele>762.1999999999999</ele><time>2026-04-09T10:10:40.456Z</time></trkpt><trkpt lat="42.896261" lon="11.7717467"><ele>762.5999999999999</ele><time>2026-04-09T10:10:41.449Z</time></trkpt><trkpt lat="42.8963462" lon="11.7718478"><ele>763.0</ele><time>2026-04-09T10:10:42.456Z</time></trkpt><trkpt lat="42.8964311" lon="11.7719252"><ele>761.2</ele><time>2026-04-09T10:10:43.458Z</time></trkpt><trkpt lat="42.8965157" lon="11.7720022"><ele>759.4</ele><time>2026-04-09T10:10:44.46Z</time></trkpt><trkpt lat="42.8965996" lon="11.7720822"><ele>757.6</ele><time>2026-04-09T10:10:45.452Z</time></trkpt><trkpt lat="42.8966747" lon="11.7722005"><ele>755.8000000000001</ele><time>2026-04-09T10:10:46.45Z</time></trkpt><trkpt lat="42.8967135" lon="11.7723224"><ele>754.0</ele><time>2026-04-09T10:10:47.446Z</time></trkpt><trkpt lat="42.8966952" lon="11.7724871"><ele>754.0</ele><time>2026-04-09T10:10:48.447Z</time></trkpt><trkpt lat="42.8966628" lon="11.7726455"><ele>754.0</ele><time>2026-04-09T10:10:49.44Z</time></trkpt><trkpt lat="42.896596" lon="11.7728136"><ele>754.0</ele><time>2026-04-09T10:10:50.452Z</time></trkpt><trkpt lat="42.8964904" lon="11.7730016"><ele>754.0</ele><time>2026-04-09T10:10:51.457Z</time></trkpt><trkpt lat="42.8963461" lon="11.7732038"><ele>752.5</ele><time>2026-04-09T10:10:52.458Z</time></trkpt><trkpt lat="42.8962125" lon="11.7733924"><ele>751.0</ele><time>2026-04-09T10:10:53.448Z</time></trkpt><trkpt lat="42.8961147" lon="11.7735168"><ele>749.5</ele><time>2026-04-09T10:10:54.454Z</time></trkpt><trkpt lat="42.8960259" lon="11.7736093"><ele>748.0</ele><time>2026-04-09T10:10:55.455Z</time></trkpt><trkpt lat="42.8959525" lon="11.7737069"><ele>747.2</ele><time>2026-04-09T10:10:56.448Z</time></trkpt><trkpt lat="42.8958959" lon="11.7738019"><ele>746.4</ele><time>2026-04-09T10:10:57.455Z</time></trkpt><trkpt lat="42.895877" lon="11.7739657"><ele>745.6</ele><time>2026-04-09T10:10:59.454Z</time></trkpt><trkpt lat="42.895898" lon="11.7740754"><ele>744.8000000000001</ele><time>2026-04-09T10:11:00.447Z</time></trkpt><trkpt lat="42.8959107" lon="11.7741836"><ele>744.0</ele><time>2026-04-09T10:11:01.447Z</time></trkpt><trkpt lat="42.8959345" lon="11.7743262"><ele>743.0</ele><time>2026-04-09T10:11:02.45Z</time></trkpt><trkpt lat="42.8959536" lon="11.77448"><ele>742.0</ele><time>2026-04-09T10:11:03.458Z</time></trkpt><trkpt lat="42.8959677" lon="11.7746221"><ele>741.0</ele><time>2026-04-09T10:11:04.451Z</time></trkpt><trkpt lat="42.8959791" lon="11.7747422"><ele>740.0</ele><time>2026-04-09T10:11:05.45Z</time></trkpt><trkpt lat="42.8959942" lon="11.7748495"><ele>739.0</ele><time>2026-04-09T10:11:06.452Z</time></trkpt><trkpt lat="42.8960019" lon="11.7749471"><ele>739.0</ele><time>2026-04-09T10:11:07.453Z</time></trkpt><trkpt lat="42.8959893" lon="11.7750359"><ele>739.0</ele><time>2026-04-09T10:11:08.452Z</time></trkpt><trkpt lat="42.895966" lon="11.7751179"><ele>739.0</ele><time>2026-04-09T10:11:09.449Z</time></trkpt><trkpt lat="42.8959188" lon="11.7752027"><ele>739.0</ele><time>2026-04-09T10:11:10.448Z</time></trkpt><trkpt lat="42.8958533" lon="11.7752948"><ele>739.0</ele><time>2026-04-09T10:11:11.449Z</time></trkpt><trkpt lat="42.8957672" lon="11.775402"><ele>739.0</ele><time>2026-04-09T10:11:12.442Z</time></trkpt><trkpt lat="42.8956773" lon="11.7755118"><ele>737.6</ele><time>2026-04-09T10:11:13.453Z</time></trkpt><trkpt lat="42.8955951" lon="11.7756152"><ele>736.2</ele><time>2026-04-09T10:11:14.458Z</time></trkpt><trkpt lat="42.8955219" lon="11.7757059"><ele>734.8000000000001</ele><time>2026-04-09T10:11:15.451Z</time></trkpt><trkpt lat="42.895455" lon="11.7757886"><ele>733.4000000000001</ele><time>2026-04-09T10:11:16.453Z</time></trkpt><trkpt lat="42.8953955" lon="11.7758545"><ele>732.0</ele><time>2026-04-09T10:11:17.459Z</time></trkpt><trkpt lat="42.8953337" lon="11.7759183"><ele>732.0</ele><time>2026-04-09T10:11:18.453Z</time></trkpt><trkpt lat="42.8952719" lon="11.7759707"><ele>732.0</ele><time>2026-04-09T10:11:19.457Z</time></trkpt><trkpt lat="42.8952086" lon="11.7760121"><ele>732.0</ele><time>2026-04-09T10:11:20.459Z</time></trkpt><trkpt lat="42.8951396" lon="11.7760531"><ele>732.0</ele><time>2026-04-09T10:11:21.457Z</time></trkpt><trkpt lat="42.8950689" lon="11.7760865"><ele>732.0</ele><time>2026-04-09T10:11:22.46Z</time></trkpt><trkpt lat="42.8949896" lon="11.7761279"><ele>732.0</ele><time>2026-04-09T10:11:23.466Z</time></trkpt><trkpt lat="42.8948998" lon="11.7761707"><ele>731.5</ele><time>2026-04-09T10:11:24.46Z</time></trkpt><trkpt lat="42.8948037" lon="11.776223"><ele>731.0</ele><time>2026-04-09T10:11:25.46Z</time></trkpt><trkpt lat="42.8947095" lon="11.7762737"><ele>730.5</ele><time>2026-04-09T10:11:26.458Z</time></trkpt><trkpt lat="42.8946259" lon="11.7763153"><ele>730.0</ele><time>2026-04-09T10:11:27.464Z</time></trkpt><trkpt lat="42.8945522" lon="11.7763501"><ele>729.5</ele><time>2026-04-09T10:11:28.456Z</time></trkpt><trkpt lat="42.8944896" lon="11.7763727"><ele>729.0</ele><time>2026-04-09T10:11:29.465Z</time></trkpt><trkpt lat="42.8943804" lon="11.7763942"><ele>729.0</ele><time>2026-04-09T10:11:31.463Z</time></trkpt><trkpt lat="42.8942828" lon="11.7764184"><ele>729.0</ele><time>2026-04-09T10:11:33.459Z</time></trkpt><trkpt lat="42.8941996" lon="11.7764693"><ele>729.0</ele><time>2026-04-09T10:11:35.452Z</time></trkpt><trkpt lat="42.8941461" lon="11.7765386"><ele>729.0</ele><time>2026-04-09T10:11:37.46Z</time></trkpt><trkpt lat="42.8941087" lon="11.7766265"><ele>729.0</ele><time>2026-04-09T10:13:29.47Z</time></trkpt><trkpt lat="42.8940296" lon="11.7766848"><ele>729.0</ele><time>2026-04-09T10:13:32.458Z</time></trkpt><trkpt lat="42.8939328" lon="11.776733"><ele>728.4000000000001</ele><time>2026-04-09T10:13:34.451Z</time></trkpt><trkpt lat="42.8938698" lon="11.7767653"><ele>727.8</ele><time>2026-04-09T10:13:35.463Z</time></trkpt><trkpt lat="42.8938021" lon="11.7768076"><ele>727.2</ele><time>2026-04-09T10:13:36.458Z</time></trkpt><trkpt lat="42.8936992" lon="11.776863"><ele>726.5999999999999</ele><time>2026-04-09T10:13:38.461Z</time></trkpt><trkpt lat="42.8936162" lon="11.7769501"><ele>726.0</ele><time>2026-04-09T10:13:40.454Z</time></trkpt><trkpt lat="42.89355" lon="11.7770674"><ele>725.3333333333334</ele><time>2026-04-09T10:13:42.456Z</time></trkpt><trkpt lat="42.893479" lon="11.7771971"><ele>724.6666666666666</ele><time>2026-04-09T10:13:44.463Z</time></trkpt><trkpt lat="42.8934322" lon="11.7772585"><ele>724.0</ele><time>2026-04-09T10:13:45.46Z</time></trkpt><trkpt lat="42.8933877" lon="11.7773344"><ele>723.3333333333333</ele><time>2026-04-09T10:13:46.457Z</time></trkpt><trkpt lat="42.8933391" lon="11.7774111"><ele>722.6666666666666</ele><time>2026-04-09T10:13:47.461Z</time></trkpt><trkpt lat="42.8932915" lon="11.7774921"><ele>722.0</ele><time>2026-04-09T10:13:48.459Z</time></trkpt><trkpt lat="42.8932436" lon="11.7775679"><ele>721.4285714285714</ele><time>2026-04-09T10:13:49.462Z</time></trkpt><trkpt lat="42.893197" lon="11.7776494"><ele>720.8571428571428</ele><time>2026-04-09T10:13:50.469Z</time></trkpt><trkpt lat="42.8931473" lon="11.7777232"><ele>720.2857142857142</ele><time>2026-04-09T10:13:51.463Z</time></trkpt><trkpt lat="42.8931003" lon="11.7777965"><ele>719.7142857142858</ele><time>2026-04-09T10:13:52.465Z</time></trkpt><trkpt lat="42.893056" lon="11.7778741"><ele>719.1428571428571</ele><time>2026-04-09T10:13:53.463Z</time></trkpt><trkpt lat="42.8930118" lon="11.777942"><ele>718.5714285714286</ele><time>2026-04-09T10:13:54.465Z</time></trkpt><trkpt lat="42.8929668" lon="11.7780142"><ele>718.0</ele><time>2026-04-09T10:13:55.461Z</time></trkpt><trkpt lat="42.8929252" lon="11.7780878"><ele>717.1666666666667</ele><time>2026-04-09T10:13:56.462Z</time></trkpt><trkpt lat="42.8929006" lon="11.7781689"><ele>716.3333333333334</ele><time>2026-04-09T10:13:57.466Z</time></trkpt><trkpt lat="42.892876" lon="11.7782486"><ele>715.5</ele><time>2026-04-09T10:13:58.46Z</time></trkpt><trkpt lat="42.8928478" lon="11.7783297"><ele>714.6666666666666</ele><time>2026-04-09T10:13:59.461Z</time></trkpt><trkpt lat="42.8927982" lon="11.7784705"><ele>713.8333333333333</ele><time>2026-04-09T10:14:01.468Z</time></trkpt><trkpt lat="42.8927494" lon="11.7786203"><ele>713.0</ele><time>2026-04-09T10:14:03.464Z</time></trkpt><trkpt lat="42.8927316" lon="11.7787106"><ele>711.1428571428571</ele><time>2026-04-09T10:14:04.466Z</time></trkpt><trkpt lat="42.8927163" lon="11.7788106"><ele>709.2857142857143</ele><time>2026-04-09T10:14:05.463Z</time></trkpt><trkpt lat="42.8927035" lon="11.7789162"><ele>707.4285714285714</ele><time>2026-04-09T10:14:06.459Z</time></trkpt><trkpt lat="42.8926832" lon="11.7790215"><ele>705.5714285714286</ele><time>2026-04-09T10:14:07.459Z</time></trkpt><trkpt lat="42.8926649" lon="11.7791214"><ele>703.7142857142858</ele><time>2026-04-09T10:14:08.483Z</time></trkpt><trkpt lat="42.8926468" lon="11.7792081"><ele>701.8571428571429</ele><time>2026-04-09T10:14:09.461Z</time></trkpt><trkpt lat="42.8926425" lon="11.7793004"><ele>700.0</ele><time>2026-04-09T10:14:10.453Z</time></trkpt><trkpt lat="42.8926493" lon="11.779387"><ele>698.3333333333334</ele><time>2026-04-09T10:14:11.469Z</time></trkpt><trkpt lat="42.8926572" lon="11.7794761"><ele>696.6666666666667</ele><time>2026-04-09T10:14:12.465Z</time></trkpt><trkpt lat="42.8926636" lon="11.7795694"><ele>695.0</ele><time>2026-04-09T10:14:13.468Z</time></trkpt><trkpt lat="42.8926716" lon="11.7796742"><ele>693.3333333333334</ele><time>2026-04-09T10:14:14.468Z</time></trkpt><trkpt lat="42.8926863" lon="11.7797893"><ele>691.6666666666666</ele><time>2026-04-09T10:14:15.461Z</time></trkpt><trkpt lat="42.8926973" lon="11.7798964"><ele>690.0</ele><time>2026-04-09T10:14:16.47Z</time></trkpt><trkpt lat="42.8927015" lon="11.7799966"><ele>690.0</ele><time>2026-04-09T10:14:17.468Z</time></trkpt><trkpt lat="42.8927027" lon="11.7800938"><ele>690.0</ele><time>2026-04-09T10:14:18.465Z</time></trkpt><trkpt lat="42.8927011" lon="11.7801922"><ele>690.0</ele><time>2026-04-09T10:14:19.469Z</time></trkpt><trkpt lat="42.8927047" lon="11.7802889"><ele>690.0</ele><time>2026-04-09T10:14:20.466Z</time></trkpt><trkpt lat="42.8927103" lon="11.7803852"><ele>690.0</ele><time>2026-04-09T10:14:21.468Z</time></trkpt><trkpt lat="42.8927124" lon="11.7804781"><ele>690.0</ele><time>2026-04-09T10:14:22.463Z</time></trkpt><trkpt lat="42.8927143" lon="11.780567"><ele>690.0</ele><time>2026-04-09T10:14:23.469Z</time></trkpt><trkpt lat="42.8927191" lon="11.780662"><ele>688.6666666666666</ele><time>2026-04-09T10:14:24.489Z</time></trkpt><trkpt lat="42.8927332" lon="11.7807593"><ele>687.3333333333334</ele><time>2026-04-09T10:14:25.485Z</time></trkpt><trkpt lat="42.8927665" lon="11.7808574"><ele>686.0</ele><time>2026-04-09T10:14:26.464Z</time></trkpt><trkpt lat="42.8928178" lon="11.7809662"><ele>684.6666666666667</ele><time>2026-04-09T10:14:27.469Z</time></trkpt><trkpt lat="42.8928659" lon="11.781082"><ele>683.3333333333334</ele><time>2026-04-09T10:14:28.471Z</time></trkpt><trkpt lat="42.892904" lon="11.7811918"><ele>682.0</ele><time>2026-04-09T10:14:29.473Z</time></trkpt><trkpt lat="42.8929343" lon="11.7812966"><ele>680.6666666666667</ele><time>2026-04-09T10:14:30.472Z</time></trkpt><trkpt lat="42.8929537" lon="11.7813956"><ele>679.3333333333334</ele><time>2026-04-09T10:14:31.473Z</time></trkpt><trkpt lat="42.8929672" lon="11.7815079"><ele>678.0</ele><time>2026-04-09T10:14:32.471Z</time></trkpt><trkpt lat="42.892986" lon="11.7816211"><ele>676.6666666666666</ele><time>2026-04-09T10:14:33.469Z</time></trkpt><trkpt lat="42.8930138" lon="11.7817348"><ele>675.3333333333333</ele><time>2026-04-09T10:14:34.461Z</time></trkpt><trkpt lat="42.8930527" lon="11.7818553"><ele>674.0</ele><time>2026-04-09T10:14:35.462Z</time></trkpt><trkpt lat="42.8930761" lon="11.7819773"><ele>673.1666666666666</ele><time>2026-04-09T10:14:36.469Z</time></trkpt><trkpt lat="42.893092" lon="11.7820921"><ele>672.3333333333333</ele><time>2026-04-09T10:14:37.466Z</time></trkpt><trkpt lat="42.8931094" lon="11.7821992"><ele>671.5</ele><time>2026-04-09T10:14:38.468Z</time></trkpt><trkpt lat="42.8931237" lon="11.7822892"><ele>670.6666666666666</ele><time>2026-04-09T10:14:39.458Z</time></trkpt><trkpt lat="42.8931194" lon="11.7824111"><ele>669.8333333333334</ele><time>2026-04-09T10:14:41.465Z</time></trkpt><trkpt lat="42.8930656" lon="11.782511"><ele>669.0</ele><time>2026-04-09T10:14:43.468Z</time></trkpt><trkpt lat="42.8930326" lon="11.7826012"><ele>668.4000000000001</ele><time>2026-04-09T10:14:44.464Z</time></trkpt><trkpt lat="42.8930145" lon="11.7827157"><ele>667.8</ele><time>2026-04-09T10:14:45.456Z</time></trkpt><trkpt lat="42.8930084" lon="11.7828483"><ele>667.2</ele><time>2026-04-09T10:14:46.463Z</time></trkpt><trkpt lat="42.8930015" lon="11.7830037"><ele>666.5999999999999</ele><time>2026-04-09T10:14:47.466Z</time></trkpt><trkpt lat="42.892997" lon="11.7831756"><ele>666.0</ele><time>2026-04-09T10:14:48.468Z</time></trkpt><trkpt lat="42.8929985" lon="11.783358"><ele>663.3333333333334</ele><time>2026-04-09T10:14:49.464Z</time></trkpt><trkpt lat="42.8930006" lon="11.783551"><ele>660.6666666666667</ele><time>2026-04-09T10:14:50.468Z</time></trkpt><trkpt lat="42.8930034" lon="11.783803"><ele>658.0</ele><time>2026-04-09T10:14:51.469Z</time></trkpt><trkpt lat="42.8930099" lon="11.784024"><ele>658.0</ele><time>2026-04-09T10:14:52.465Z</time></trkpt><trkpt lat="42.8929973" lon="11.7842204"><ele>658.0</ele><time>2026-04-09T10:14:53.466Z</time></trkpt><trkpt lat="42.8930103" lon="11.784418"><ele>658.0</ele><time>2026-04-09T10:14:54.46Z</time></trkpt><trkpt lat="42.8930382" lon="11.7846142"><ele>658.0</ele><time>2026-04-09T10:14:55.461Z</time></trkpt><trkpt lat="42.8930813" lon="11.7847744"><ele>657.6666666666667</ele><time>2026-04-09T10:14:56.461Z</time></trkpt><trkpt lat="42.8931374" lon="11.7849374"><ele>657.3333333333334</ele><time>2026-04-09T10:14:57.466Z</time></trkpt><trkpt lat="42.8932146" lon="11.7851136"><ele>657.0</ele><time>2026-04-09T10:14:58.466Z</time></trkpt><trkpt lat="42.8933323" lon="11.7853022"><ele>660.3333333333334</ele><time>2026-04-09T10:14:59.465Z</time></trkpt><trkpt lat="42.8934761" lon="11.7854682"><ele>663.6666666666667</ele><time>2026-04-09T10:15:00.44Z</time></trkpt><trkpt lat="42.8936554" lon="11.7856001"><ele>667.0</ele><time>2026-04-09T10:15:01.437Z</time></trkpt><trkpt lat="42.8938406" lon="11.785696"><ele>667.0</ele><time>2026-04-09T10:15:02.445Z</time></trkpt><trkpt lat="42.8940565" lon="11.7857635"><ele>667.0</ele><time>2026-04-09T10:15:03.435Z</time></trkpt><trkpt lat="42.8942633" lon="11.78581"><ele>667.0</ele><time>2026-04-09T10:15:04.438Z</time></trkpt><trkpt lat="42.8944776" lon="11.7858832"><ele>665.3333333333334</ele><time>2026-04-09T10:15:05.436Z</time></trkpt><trkpt lat="42.8946669" lon="11.7859579"><ele>663.6666666666666</ele><time>2026-04-09T10:15:06.428Z</time></trkpt><trkpt lat="42.8948234" lon="11.7860642"><ele>662.0</ele><time>2026-04-09T10:15:07.438Z</time></trkpt><trkpt lat="42.8949746" lon="11.7862019"><ele>663.0</ele><time>2026-04-09T10:15:08.434Z</time></trkpt><trkpt lat="42.895124" lon="11.7863636"><ele>664.0</ele><time>2026-04-09T10:15:09.436Z</time></trkpt><trkpt lat="42.8952705" lon="11.786535"><ele>665.0</ele><time>2026-04-09T10:15:10.441Z</time></trkpt><trkpt lat="42.8954333" lon="11.7867135"><ele>664.6666666666666</ele><time>2026-04-09T10:15:11.445Z</time></trkpt><trkpt lat="42.8956033" lon="11.7868732"><ele>664.3333333333334</ele><time>2026-04-09T10:15:12.433Z</time></trkpt><trkpt lat="42.8957668" lon="11.7870494"><ele>664.0</ele><time>2026-04-09T10:15:13.434Z</time></trkpt><trkpt lat="42.8959389" lon="11.7872247"><ele>664.0</ele><time>2026-04-09T10:15:14.438Z</time></trkpt><trkpt lat="42.8960902" lon="11.7874031"><ele>664.0</ele><time>2026-04-09T10:15:15.435Z</time></trkpt><trkpt lat="42.8962341" lon="11.7875583"><ele>664.0</ele><time>2026-04-09T10:15:16.441Z</time></trkpt><trkpt lat="42.8963776" lon="11.7877321"><ele>662.0</ele><time>2026-04-09T10:15:17.435Z</time></trkpt><trkpt lat="42.896516" lon="11.787964"><ele>660.0</ele><time>2026-04-09T10:15:18.43Z</time></trkpt><trkpt lat="42.8966543" lon="11.788214"><ele>658.0</ele><time>2026-04-09T10:15:19.442Z</time></trkpt><trkpt lat="42.8968006" lon="11.7884748"><ele>661.3333333333334</ele><time>2026-04-09T10:15:20.439Z</time></trkpt><trkpt lat="42.8969168" lon="11.7886899"><ele>664.6666666666666</ele><time>2026-04-09T10:15:21.432Z</time></trkpt><trkpt lat="42.8970332" lon="11.7889132"><ele>668.0</ele><time>2026-04-09T10:15:22.441Z</time></trkpt><trkpt lat="42.8971379" lon="11.7891195"><ele>668.0</ele><time>2026-04-09T10:15:23.431Z</time></trkpt><trkpt lat="42.8972333" lon="11.7893192"><ele>668.0</ele><time>2026-04-09T10:15:24.431Z</time></trkpt><trkpt lat="42.897308" lon="11.7895017"><ele>668.0</ele><time>2026-04-09T10:15:25.44Z</time></trkpt><trkpt lat="42.8973605" lon="11.7897337"><ele>668.0</ele><time>2026-04-09T10:15:26.435Z</time></trkpt><trkpt lat="42.8973874" lon="11.7899949"><ele>668.0</ele><time>2026-04-09T10:15:27.44Z</time></trkpt><trkpt lat="42.8974533" lon="11.7902527"><ele>668.0</ele><time>2026-04-09T10:15:28.44Z</time></trkpt><trkpt lat="42.8975148" lon="11.7905203"><ele>663.3333333333333</ele><time>2026-04-09T10:15:29.45Z</time></trkpt><trkpt lat="42.8976059" lon="11.7907929"><ele>658.6666666666666</ele><time>2026-04-09T10:15:30.438Z</time></trkpt><trkpt lat="42.897649" lon="11.7910486"><ele>654.0</ele><time>2026-04-09T10:15:31.447Z</time></trkpt><trkpt lat="42.8976855" lon="11.791293"><ele>654.0</ele><time>2026-04-09T10:15:32.441Z</time></trkpt><trkpt lat="42.897696" lon="11.791516"><ele>654.0</ele><time>2026-04-09T10:15:33.445Z</time></trkpt><trkpt lat="42.8977403" lon="11.7917604"><ele>654.0</ele><time>2026-04-09T10:15:34.454Z</time></trkpt><trkpt lat="42.8977909" lon="11.7919438"><ele>652.6666666666666</ele><time>2026-04-09T10:15:35.443Z</time></trkpt><trkpt lat="42.8978602" lon="11.7921373"><ele>651.3333333333333</ele><time>2026-04-09T10:15:36.442Z</time></trkpt><trkpt lat="42.8979385" lon="11.7923525"><ele>650.0</ele><time>2026-04-09T10:15:37.443Z</time></trkpt><trkpt lat="42.8980413" lon="11.792562"><ele>648.3333333333333</ele><time>2026-04-09T10:15:38.446Z</time></trkpt><trkpt lat="42.8981231" lon="11.7927626"><ele>646.6666666666666</ele><time>2026-04-09T10:15:39.455Z</time></trkpt><trkpt lat="42.8982333" lon="11.7929701"><ele>645.0</ele><time>2026-04-09T10:15:40.45Z</time></trkpt><trkpt lat="42.8983343" lon="11.7931823"><ele>645.0</ele><time>2026-04-09T10:15:41.449Z</time></trkpt><trkpt lat="42.8984489" lon="11.7933808"><ele>645.0</ele><time>2026-04-09T10:15:42.451Z</time></trkpt><trkpt lat="42.8985303" lon="11.7935575"><ele>645.0</ele><time>2026-04-09T10:15:43.444Z</time></trkpt><trkpt lat="42.8986059" lon="11.7937456"><ele>645.0</ele><time>2026-04-09T10:15:44.451Z</time></trkpt><trkpt lat="42.8986864" lon="11.7939403"><ele>645.0</ele><time>2026-04-09T10:15:45.447Z</time></trkpt><trkpt lat="42.8987278" lon="11.794106"><ele>645.0</ele><time>2026-04-09T10:15:46.448Z</time></trkpt><trkpt lat="42.8987105" lon="11.7942943"><ele>645.0</ele><time>2026-04-09T10:15:47.444Z</time></trkpt><trkpt lat="42.898658" lon="11.7944455"><ele>643.25</ele><time>2026-04-09T10:15:48.44Z</time></trkpt><trkpt lat="42.8985773" lon="11.7945947"><ele>641.5</ele><time>2026-04-09T10:15:49.441Z</time></trkpt><trkpt lat="42.898454" lon="11.7947055"><ele>639.75</ele><time>2026-04-09T10:15:50.44Z</time></trkpt><trkpt lat="42.8983035" lon="11.7947954"><ele>638.0</ele><time>2026-04-09T10:15:51.444Z</time></trkpt><trkpt lat="42.8981286" lon="11.7948498"><ele>636.6666666666666</ele><time>2026-04-09T10:15:52.441Z</time></trkpt><trkpt lat="42.8979428" lon="11.7948865"><ele>635.3333333333334</ele><time>2026-04-09T10:15:53.446Z</time></trkpt><trkpt lat="42.8977697" lon="11.7949195"><ele>634.0</ele><time>2026-04-09T10:15:54.441Z</time></trkpt><trkpt lat="42.8976099" lon="11.7949678"><ele>632.75</ele><time>2026-04-09T10:15:55.439Z</time></trkpt><trkpt lat="42.8974627" lon="11.7950243"><ele>631.5</ele><time>2026-04-09T10:15:56.444Z</time></trkpt><trkpt lat="42.8973859" lon="11.7950728"><ele>630.25</ele><time>2026-04-09T10:15:57.446Z</time></trkpt><trkpt lat="42.8973182" lon="11.7951842"><ele>629.0</ele><time>2026-04-09T10:15:58.437Z</time></trkpt><trkpt lat="42.8972659" lon="11.7953101"><ele>627.25</ele><time>2026-04-09T10:15:59.432Z</time></trkpt><trkpt lat="42.8972818" lon="11.7954837"><ele>625.5</ele><time>2026-04-09T10:16:00.441Z</time></trkpt><trkpt lat="42.8973093" lon="11.7956546"><ele>623.75</ele><time>2026-04-09T10:16:01.438Z</time></trkpt><trkpt lat="42.8973622" lon="11.7958401"><ele>622.0</ele><time>2026-04-09T10:16:02.439Z</time></trkpt><trkpt lat="42.8974014" lon="11.7960248"><ele>620.3333333333334</ele><time>2026-04-09T10:16:03.443Z</time></trkpt><trkpt lat="42.8974429" lon="11.7962385"><ele>618.6666666666666</ele><time>2026-04-09T10:16:04.443Z</time></trkpt><trkpt lat="42.8974798" lon="11.796463"><ele>617.0</ele><time>2026-04-09T10:16:05.448Z</time></trkpt><trkpt lat="42.8975098" lon="11.7966802"><ele>616.5</ele><time>2026-04-09T10:16:06.453Z</time></trkpt><trkpt lat="42.8975467" lon="11.7968692"><ele>616.0</ele><time>2026-04-09T10:16:07.443Z</time></trkpt><trkpt lat="42.897586" lon="11.7970285"><ele>615.5</ele><time>2026-04-09T10:16:08.45Z</time></trkpt><trkpt lat="42.8976506" lon="11.7971767"><ele>615.0</ele><time>2026-04-09T10:16:09.447Z</time></trkpt><trkpt lat="42.8977444" lon="11.7973225"><ele>615.0</ele><time>2026-04-09T10:16:10.439Z</time></trkpt><trkpt lat="42.8978912" lon="11.7974567"><ele>615.0</ele><time>2026-04-09T10:16:11.441Z</time></trkpt><trkpt lat="42.8980591" lon="11.7975678"><ele>615.0</ele><time>2026-04-09T10:16:12.437Z</time></trkpt><trkpt lat="42.8982153" lon="11.7977082"><ele>614.3333333333334</ele><time>2026-04-09T10:16:13.443Z</time></trkpt><trkpt lat="42.8983591" lon="11.797845"><ele>613.6666666666667</ele><time>2026-04-09T10:16:14.45Z</time></trkpt><trkpt lat="42.8984832" lon="11.7979879"><ele>613.0</ele><time>2026-04-09T10:16:15.44Z</time></trkpt><trkpt lat="42.8986384" lon="11.7981256"><ele>613.0</ele><time>2026-04-09T10:16:16.439Z</time></trkpt><trkpt lat="42.8988342" lon="11.7982886"><ele>613.0</ele><time>2026-04-09T10:16:17.447Z</time></trkpt><trkpt lat="42.8989974" lon="11.7984423"><ele>613.0</ele><time>2026-04-09T10:16:18.444Z</time></trkpt><trkpt lat="42.8991551" lon="11.7985698"><ele>611.3333333333334</ele><time>2026-04-09T10:16:19.445Z</time></trkpt><trkpt lat="42.8993051" lon="11.7986797"><ele>609.6666666666666</ele><time>2026-04-09T10:16:20.447Z</time></trkpt><trkpt lat="42.8994618" lon="11.7988114"><ele>608.0</ele><time>2026-04-09T10:16:21.446Z</time></trkpt><trkpt lat="42.8995731" lon="11.7989563"><ele>608.0</ele><time>2026-04-09T10:16:22.44Z</time></trkpt><trkpt lat="42.8996672" lon="11.7990573"><ele>608.0</ele><time>2026-04-09T10:16:23.447Z</time></trkpt><trkpt lat="42.8997595" lon="11.799178"><ele>608.0</ele><time>2026-04-09T10:16:24.44Z</time></trkpt><trkpt lat="42.8998152" lon="11.799325"><ele>608.0</ele><time>2026-04-09T10:16:25.453Z</time></trkpt><trkpt lat="42.8998802" lon="11.7994695"><ele>607.0</ele><time>2026-04-09T10:16:26.447Z</time></trkpt><trkpt lat="42.8999088" lon="11.7995917"><ele>606.0</ele><time>2026-04-09T10:16:27.456Z</time></trkpt><trkpt lat="42.8999387" lon="11.799676"><ele>605.0</ele><time>2026-04-09T10:16:28.445Z</time></trkpt><trkpt lat="42.8999819" lon="11.7998248"><ele>604.0</ele><time>2026-04-09T10:16:29.446Z</time></trkpt><trkpt lat="42.9000143" lon="11.7999828"><ele>603.0</ele><time>2026-04-09T10:16:30.447Z</time></trkpt><trkpt lat="42.900069" lon="11.8001563"><ele>602.0</ele><time>2026-04-09T10:16:31.453Z</time></trkpt><trkpt lat="42.9001218" lon="11.8003306"><ele>601.0</ele><time>2026-04-09T10:16:32.452Z</time></trkpt><trkpt lat="42.9002196" lon="11.8004751"><ele>600.0</ele><time>2026-04-09T10:16:33.441Z</time></trkpt><trkpt lat="42.9003292" lon="11.8006171"><ele>599.0</ele><time>2026-04-09T10:16:34.442Z</time></trkpt><trkpt lat="42.9004501" lon="11.8007296"><ele>599.0</ele><time>2026-04-09T10:16:35.45Z</time></trkpt><trkpt lat="42.900568" lon="11.8008056"><ele>599.0</ele><time>2026-04-09T10:16:36.436Z</time></trkpt><trkpt lat="42.9006873" lon="11.8008537"><ele>599.0</ele><time>2026-04-09T10:16:37.446Z</time></trkpt><trkpt lat="42.9008149" lon="11.8008811"><ele>599.0</ele><time>2026-04-09T10:16:38.442Z</time></trkpt><trkpt lat="42.9009375" lon="11.8009228"><ele>598.5</ele><time>2026-04-09T10:16:39.439Z</time></trkpt><trkpt lat="42.9010548" lon="11.8009786"><ele>598.0</ele><time>2026-04-09T10:16:40.449Z</time></trkpt><trkpt lat="42.9011626" lon="11.8010438"><ele>597.5</ele><time>2026-04-09T10:16:41.446Z</time></trkpt><trkpt lat="42.9012562" lon="11.8011385"><ele>597.0</ele><time>2026-04-09T10:16:42.443Z</time></trkpt><trkpt lat="42.9013455" lon="11.8012574"><ele>597.0</ele><time>2026-04-09T10:16:43.444Z</time></trkpt><trkpt lat="42.9014263" lon="11.8013888"><ele>597.0</ele><time>2026-04-09T10:16:44.449Z</time></trkpt><trkpt lat="42.9015002" lon="11.8015186"><ele>597.0</ele><time>2026-04-09T10:16:45.44Z</time></trkpt><trkpt lat="42.9015717" lon="11.8016414"><ele>597.0</ele><time>2026-04-09T10:16:46.442Z</time></trkpt><trkpt lat="42.9016495" lon="11.8017585"><ele>596.6666666666666</ele><time>2026-04-09T10:16:47.444Z</time></trkpt><trkpt lat="42.901746" lon="11.8018829"><ele>596.3333333333333</ele><time>2026-04-09T10:16:48.455Z</time></trkpt><trkpt lat="42.9018702" lon="11.8020236"><ele>596.0</ele><time>2026-04-09T10:16:49.437Z</time></trkpt><trkpt lat="42.9020581" lon="11.8021693"><ele>596.0</ele><time>2026-04-09T10:16:50.436Z</time></trkpt><trkpt lat="42.9022704" lon="11.8023131"><ele>596.0</ele><time>2026-04-09T10:16:51.444Z</time></trkpt><trkpt lat="42.9024999" lon="11.8024721"><ele>596.0</ele><time>2026-04-09T10:16:52.447Z</time></trkpt><trkpt lat="42.9026883" lon="11.8026407"><ele>596.0</ele><time>2026-04-09T10:16:53.443Z</time></trkpt><trkpt lat="42.9029074" lon="11.8028006"><ele>596.0</ele><time>2026-04-09T10:16:54.44Z</time></trkpt><trkpt lat="42.9030943" lon="11.8029475"><ele>596.0</ele><time>2026-04-09T10:16:55.448Z</time></trkpt><trkpt lat="42.9032602" lon="11.8030532"><ele>596.0</ele><time>2026-04-09T10:16:56.445Z</time></trkpt><trkpt lat="42.9034255" lon="11.8031807"><ele>597.0</ele><time>2026-04-09T10:16:57.445Z</time></trkpt><trkpt lat="42.9036048" lon="11.8033334"><ele>598.0</ele><time>2026-04-09T10:16:58.445Z</time></trkpt><trkpt lat="42.9037614" lon="11.8034924"><ele>599.0</ele><time>2026-04-09T10:16:59.446Z</time></trkpt><trkpt lat="42.9039187" lon="11.8036223"><ele>599.0</ele><time>2026-04-09T10:17:00.439Z</time></trkpt><trkpt lat="42.9040695" lon="11.8037262"><ele>599.0</ele><time>2026-04-09T10:17:01.442Z</time></trkpt><trkpt lat="42.9042341" lon="11.8038212"><ele>599.0</ele><time>2026-04-09T10:17:02.446Z</time></trkpt><trkpt lat="42.9044098" lon="11.8038849"><ele>598.6666666666666</ele><time>2026-04-09T10:17:03.448Z</time></trkpt><trkpt lat="42.9045972" lon="11.8039768"><ele>598.3333333333334</ele><time>2026-04-09T10:17:04.448Z</time></trkpt><trkpt lat="42.9048016" lon="11.8041161"><ele>598.0</ele><time>2026-04-09T10:17:05.451Z</time></trkpt><trkpt lat="42.9050337" lon="11.8042495"><ele>598.0</ele><time>2026-04-09T10:17:06.461Z</time></trkpt><trkpt lat="42.9052493" lon="11.8043309"><ele>598.0</ele><time>2026-04-09T10:17:07.456Z</time></trkpt><trkpt lat="42.9054324" lon="11.8043929"><ele>598.0</ele><time>2026-04-09T10:17:08.456Z</time></trkpt><trkpt lat="42.9055967" lon="11.8044389"><ele>598.0</ele><time>2026-04-09T10:17:09.455Z</time></trkpt><trkpt lat="42.9057629" lon="11.8044892"><ele>598.0</ele><time>2026-04-09T10:17:10.462Z</time></trkpt><trkpt lat="42.905914" lon="11.8045289"><ele>598.0</ele><time>2026-04-09T10:17:11.46Z</time></trkpt><trkpt lat="42.9060568" lon="11.8045818"><ele>597.3333333333334</ele><time>2026-04-09T10:17:12.457Z</time></trkpt><trkpt lat="42.9061816" lon="11.804655"><ele>596.6666666666666</ele><time>2026-04-09T10:17:13.448Z</time></trkpt><trkpt lat="42.906303" lon="11.8047891"><ele>596.0</ele><time>2026-04-09T10:17:14.453Z</time></trkpt><trkpt lat="42.9064369" lon="11.804981"><ele>595.3333333333333</ele><time>2026-04-09T10:17:15.452Z</time></trkpt><trkpt lat="42.9065472" lon="11.8051777"><ele>594.6666666666666</ele><time>2026-04-09T10:17:16.448Z</time></trkpt><trkpt lat="42.9066698" lon="11.8053655"><ele>594.0</ele><time>2026-04-09T10:17:17.441Z</time></trkpt><trkpt lat="42.9067643" lon="11.8055475"><ele>594.0</ele><time>2026-04-09T10:17:18.451Z</time></trkpt><trkpt lat="42.9068394" lon="11.8057636"><ele>594.0</ele><time>2026-04-09T10:17:19.445Z</time></trkpt><trkpt lat="42.9069123" lon="11.8059885"><ele>594.0</ele><time>2026-04-09T10:17:20.451Z</time></trkpt><trkpt lat="42.9069938" lon="11.8062324"><ele>598.0</ele><time>2026-04-09T10:17:21.452Z</time></trkpt><trkpt lat="42.9070778" lon="11.8064477"><ele>602.0</ele><time>2026-04-09T10:17:22.455Z</time></trkpt><trkpt lat="42.9071578" lon="11.8066367"><ele>606.0</ele><time>2026-04-09T10:17:23.447Z</time></trkpt><trkpt lat="42.9072647" lon="11.8067894"><ele>606.6666666666666</ele><time>2026-04-09T10:17:24.448Z</time></trkpt><trkpt lat="42.9074168" lon="11.8069069"><ele>607.3333333333333</ele><time>2026-04-09T10:17:25.454Z</time></trkpt><trkpt lat="42.9075846" lon="11.8070124"><ele>608.0</ele><time>2026-04-09T10:17:26.456Z</time></trkpt><trkpt lat="42.9077373" lon="11.8071284"><ele>610.3333333333333</ele><time>2026-04-09T10:17:27.456Z</time></trkpt><trkpt lat="42.907904" lon="11.8072789"><ele>612.6666666666666</ele><time>2026-04-09T10:17:28.457Z</time></trkpt><trkpt lat="42.9080674" lon="11.8074092"><ele>615.0</ele><time>2026-04-09T10:17:29.464Z</time></trkpt><trkpt lat="42.9082314" lon="11.8075408"><ele>613.6666666666666</ele><time>2026-04-09T10:17:30.45Z</time></trkpt><trkpt lat="42.9083895" lon="11.8076608"><ele>612.3333333333333</ele><time>2026-04-09T10:17:31.479Z</time></trkpt><trkpt lat="42.9085334" lon="11.8077653"><ele>611.0</ele><time>2026-04-09T10:17:32.454Z</time></trkpt><trkpt lat="42.9086649" lon="11.807843"><ele>613.0</ele><time>2026-04-09T10:17:33.451Z</time></trkpt><trkpt lat="42.9087709" lon="11.8079143"><ele>615.0</ele><time>2026-04-09T10:17:34.45Z</time></trkpt><trkpt lat="42.9088684" lon="11.8079825"><ele>617.0</ele><time>2026-04-09T10:17:35.447Z</time></trkpt><trkpt lat="42.9089372" lon="11.8080723"><ele>619.0</ele><time>2026-04-09T10:17:36.444Z</time></trkpt><trkpt lat="42.9089909" lon="11.808208"><ele>621.0</ele><time>2026-04-09T10:17:37.448Z</time></trkpt><trkpt lat="42.9090295" lon="11.8083537"><ele>620.6</ele><time>2026-04-09T10:17:38.449Z</time></trkpt><trkpt lat="42.9090362" lon="11.8084991"><ele>620.2</ele><time>2026-04-09T10:17:39.448Z</time></trkpt><trkpt lat="42.9090524" lon="11.8086396"><ele>619.8</ele><time>2026-04-09T10:17:40.456Z</time></trkpt><trkpt lat="42.9090779" lon="11.8087916"><ele>619.4</ele><time>2026-04-09T10:17:41.452Z</time></trkpt><trkpt lat="42.9091121" lon="11.8089531"><ele>619.0</ele><time>2026-04-09T10:17:42.453Z</time></trkpt><trkpt lat="42.909157" lon="11.809115"><ele>619.0</ele><time>2026-04-09T10:17:43.455Z</time></trkpt><trkpt lat="42.9092056" lon="11.8092743"><ele>619.0</ele><time>2026-04-09T10:17:44.455Z</time></trkpt><trkpt lat="42.9092561" lon="11.809443"><ele>619.0</ele><time>2026-04-09T10:17:45.451Z</time></trkpt><trkpt lat="42.9093179" lon="11.8096158"><ele>619.0</ele><time>2026-04-09T10:17:46.451Z</time></trkpt><trkpt lat="42.9094169" lon="11.8098054"><ele>619.0</ele><time>2026-04-09T10:17:47.447Z</time></trkpt><trkpt lat="42.9095078" lon="11.8099951"><ele>619.0</ele><time>2026-04-09T10:17:48.453Z</time></trkpt><trkpt lat="42.9095974" lon="11.810187"><ele>619.0</ele><time>2026-04-09T10:17:49.452Z</time></trkpt><trkpt lat="42.9096969" lon="11.8103695"><ele>622.0</ele><time>2026-04-09T10:17:50.451Z</time></trkpt><trkpt lat="42.909803" lon="11.8105614"><ele>625.0</ele><time>2026-04-09T10:17:51.453Z</time></trkpt><trkpt lat="42.9099217" lon="11.8107563"><ele>628.0</ele><time>2026-04-09T10:17:52.445Z</time></trkpt><trkpt lat="42.9100486" lon="11.810948"><ele>626.6666666666667</ele><time>2026-04-09T10:17:53.451Z</time></trkpt><trkpt lat="42.9101857" lon="11.8111593"><ele>625.3333333333334</ele><time>2026-04-09T10:17:54.448Z</time></trkpt><trkpt lat="42.9103237" lon="11.811401"><ele>624.0</ele><time>2026-04-09T10:17:55.449Z</time></trkpt><trkpt lat="42.9104562" lon="11.8116707"><ele>626.6666666666666</ele><time>2026-04-09T10:17:56.45Z</time></trkpt><trkpt lat="42.9105706" lon="11.8119218"><ele>629.3333333333333</ele><time>2026-04-09T10:17:57.452Z</time></trkpt><trkpt lat="42.9106586" lon="11.8121712"><ele>632.0</ele><time>2026-04-09T10:17:58.452Z</time></trkpt><trkpt lat="42.9107443" lon="11.8123939"><ele>632.0</ele><time>2026-04-09T10:17:59.46Z</time></trkpt><trkpt lat="42.9108398" lon="11.8126285"><ele>632.0</ele><time>2026-04-09T10:18:00.456Z</time></trkpt><trkpt lat="42.9109363" lon="11.812855"><ele>632.0</ele><time>2026-04-09T10:18:01.451Z</time></trkpt><trkpt lat="42.9110292" lon="11.8130271"><ele>634.0</ele><time>2026-04-09T10:18:02.445Z</time></trkpt><trkpt lat="42.9111274" lon="11.8131751"><ele>636.0</ele><time>2026-04-09T10:18:03.447Z</time></trkpt><trkpt lat="42.9112664" lon="11.813293"><ele>638.0</ele><time>2026-04-09T10:18:04.444Z</time></trkpt><trkpt lat="42.9114216" lon="11.8133773"><ele>638.0</ele><time>2026-04-09T10:18:05.44Z</time></trkpt><trkpt lat="42.9116012" lon="11.8134153"><ele>638.0</ele><time>2026-04-09T10:18:06.453Z</time></trkpt><trkpt lat="42.9118017" lon="11.8134288"><ele>638.0</ele><time>2026-04-09T10:18:07.453Z</time></trkpt><trkpt lat="42.9119874" lon="11.8134816"><ele>640.0</ele><time>2026-04-09T10:18:08.441Z</time></trkpt><trkpt lat="42.9121795" lon="11.8135776"><ele>642.0</ele><time>2026-04-09T10:18:09.446Z</time></trkpt><trkpt lat="42.9123452" lon="11.8136968"><ele>644.0</ele><time>2026-04-09T10:18:10.442Z</time></trkpt><trkpt lat="42.912513" lon="11.8138358"><ele>646.0</ele><time>2026-04-09T10:18:11.44Z</time></trkpt><trkpt lat="42.9126726" lon="11.8139656"><ele>648.0</ele><time>2026-04-09T10:18:12.444Z</time></trkpt><trkpt lat="42.9128227" lon="11.8140848"><ele>650.0</ele><time>2026-04-09T10:18:13.445Z</time></trkpt><trkpt lat="42.912943" lon="11.8142047"><ele>652.25</ele><time>2026-04-09T10:18:14.444Z</time></trkpt><trkpt lat="42.9130311" lon="11.8143508"><ele>654.5</ele><time>2026-04-09T10:18:15.444Z</time></trkpt><trkpt lat="42.9130942" lon="11.8145308"><ele>656.75</ele><time>2026-04-09T10:18:16.445Z</time></trkpt><trkpt lat="42.9130999" lon="11.8147506"><ele>659.0</ele><time>2026-04-09T10:18:17.442Z</time></trkpt><trkpt lat="42.9130822" lon="11.8149559"><ele>658.3333333333333</ele><time>2026-04-09T10:18:18.46Z</time></trkpt><trkpt lat="42.9130541" lon="11.8151919"><ele>657.6666666666666</ele><time>2026-04-09T10:18:19.444Z</time></trkpt><trkpt lat="42.9130582" lon="11.8154486"><ele>657.0</ele><time>2026-04-09T10:18:20.445Z</time></trkpt><trkpt lat="42.9130972" lon="11.8156621"><ele>657.0</ele><time>2026-04-09T10:18:21.44Z</time></trkpt><trkpt lat="42.913152" lon="11.8158581"><ele>657.0</ele><time>2026-04-09T10:18:22.443Z</time></trkpt><trkpt lat="42.9132157" lon="11.8160451"><ele>657.0</ele><time>2026-04-09T10:18:23.442Z</time></trkpt><trkpt lat="42.9133181" lon="11.816191"><ele>655.75</ele><time>2026-04-09T10:18:24.434Z</time></trkpt><trkpt lat="42.9134053" lon="11.8163022"><ele>654.5</ele><time>2026-04-09T10:18:25.447Z</time></trkpt><trkpt lat="42.9134727" lon="11.816438"><ele>653.25</ele><time>2026-04-09T10:18:26.446Z</time></trkpt><trkpt lat="42.9135198" lon="11.8166078"><ele>652.0</ele><time>2026-04-09T10:18:27.444Z</time></trkpt><trkpt lat="42.9135463" lon="11.8168145"><ele>661.3333333333334</ele><time>2026-04-09T10:18:28.463Z</time></trkpt><trkpt lat="42.9135266" lon="11.8170335"><ele>670.6666666666666</ele><time>2026-04-09T10:18:29.457Z</time></trkpt><trkpt lat="42.9134837" lon="11.8172333"><ele>680.0</ele><time>2026-04-09T10:18:30.449Z</time></trkpt><trkpt lat="42.9134405" lon="11.8174524"><ele>684.0</ele><time>2026-04-09T10:18:31.441Z</time></trkpt><trkpt lat="42.9134101" lon="11.8176718"><ele>688.0</ele><time>2026-04-09T10:18:32.435Z</time></trkpt><trkpt lat="42.9133705" lon="11.8178794"><ele>692.0</ele><time>2026-04-09T10:18:33.441Z</time></trkpt><trkpt lat="42.9133214" lon="11.8180595"><ele>685.0</ele><time>2026-04-09T10:18:34.443Z</time></trkpt><trkpt lat="42.9132735" lon="11.8182341"><ele>678.0</ele><time>2026-04-09T10:18:35.44Z</time></trkpt><trkpt lat="42.9132459" lon="11.8184273"><ele>671.0</ele><time>2026-04-09T10:18:36.462Z</time></trkpt><trkpt lat="42.9132412" lon="11.8186564"><ele>664.0</ele><time>2026-04-09T10:18:37.468Z</time></trkpt><trkpt lat="42.9132407" lon="11.8189156"><ele>664.0</ele><time>2026-04-09T10:18:38.468Z</time></trkpt><trkpt lat="42.913241" lon="11.8191702"><ele>664.0</ele><time>2026-04-09T10:18:39.446Z</time></trkpt><trkpt lat="42.9132384" lon="11.8194376"><ele>664.0</ele><time>2026-04-09T10:18:40.44Z</time></trkpt><trkpt lat="42.9132318" lon="11.819735"><ele>665.0</ele><time>2026-04-09T10:18:41.443Z</time></trkpt><trkpt lat="42.9132271" lon="11.8200227"><ele>666.0</ele><time>2026-04-09T10:18:42.437Z</time></trkpt><trkpt lat="42.9132292" lon="11.8202818"><ele>667.0</ele><time>2026-04-09T10:18:43.434Z</time></trkpt><trkpt lat="42.9132343" lon="11.8205301"><ele>668.6666666666667</ele><time>2026-04-09T10:18:44.44Z</time></trkpt><trkpt lat="42.9132333" lon="11.8207645"><ele>670.3333333333334</ele><time>2026-04-09T10:18:45.438Z</time></trkpt><trkpt lat="42.9132155" lon="11.8209745"><ele>672.0</ele><time>2026-04-09T10:18:46.433Z</time></trkpt><trkpt lat="42.913172" lon="11.8211537"><ele>673.6666666666666</ele><time>2026-04-09T10:18:47.44Z</time></trkpt><trkpt lat="42.913084" lon="11.8213045"><ele>675.3333333333333</ele><time>2026-04-09T10:18:48.444Z</time></trkpt><trkpt lat="42.9129562" lon="11.8214368"><ele>677.0</ele><time>2026-04-09T10:18:49.436Z</time></trkpt><trkpt lat="42.9128263" lon="11.821555"><ele>677.0</ele><time>2026-04-09T10:18:50.444Z</time></trkpt><trkpt lat="42.9127203" lon="11.8216677"><ele>677.0</ele><time>2026-04-09T10:18:51.439Z</time></trkpt><trkpt lat="42.9126493" lon="11.821789"><ele>677.0</ele><time>2026-04-09T10:18:52.443Z</time></trkpt><trkpt lat="42.9126117" lon="11.8219325"><ele>677.0</ele><time>2026-04-09T10:18:53.439Z</time></trkpt><trkpt lat="42.9126246" lon="11.8220871"><ele>676.25</ele><time>2026-04-09T10:18:54.429Z</time></trkpt><trkpt lat="42.9126777" lon="11.8222565"><ele>675.5</ele><time>2026-04-09T10:18:55.432Z</time></trkpt><trkpt lat="42.9127691" lon="11.8224123"><ele>674.75</ele><time>2026-04-09T10:18:56.439Z</time></trkpt><trkpt lat="42.9129096" lon="11.8225325"><ele>674.0</ele><time>2026-04-09T10:18:57.44Z</time></trkpt><trkpt lat="42.9130738" lon="11.8226339"><ele>672.0</ele><time>2026-04-09T10:18:58.439Z</time></trkpt><trkpt lat="42.9132345" lon="11.8227256"><ele>670.0</ele><time>2026-04-09T10:18:59.449Z</time></trkpt><trkpt lat="42.9133938" lon="11.822826"><ele>668.0</ele><time>2026-04-09T10:19:00.443Z</time></trkpt><trkpt lat="42.9135494" lon="11.8229377"><ele>668.0</ele><time>2026-04-09T10:19:01.453Z</time></trkpt><trkpt lat="42.9136912" lon="11.8230658"><ele>668.0</ele><time>2026-04-09T10:19:02.448Z</time></trkpt><trkpt lat="42.9138297" lon="11.8232012"><ele>668.0</ele><time>2026-04-09T10:19:03.453Z</time></trkpt><trkpt lat="42.9139641" lon="11.8233108"><ele>668.0</ele><time>2026-04-09T10:19:04.448Z</time></trkpt><trkpt lat="42.9141018" lon="11.8233887"><ele>668.0</ele><time>2026-04-09T10:19:05.445Z</time></trkpt><trkpt lat="42.9142346" lon="11.8234252"><ele>668.0</ele><time>2026-04-09T10:19:06.446Z</time></trkpt><trkpt lat="42.9143629" lon="11.8234511"><ele>668.0</ele><time>2026-04-09T10:19:07.452Z</time></trkpt><trkpt lat="42.9144822" lon="11.8234828"><ele>666.6666666666666</ele><time>2026-04-09T10:19:08.444Z</time></trkpt><trkpt lat="42.9146059" lon="11.8235492"><ele>665.3333333333334</ele><time>2026-04-09T10:19:09.441Z</time></trkpt><trkpt lat="42.9147416" lon="11.8236704"><ele>664.0</ele><time>2026-04-09T10:19:10.445Z</time></trkpt><trkpt lat="42.9148961" lon="11.823849"><ele>664.0</ele><time>2026-04-09T10:19:11.448Z</time></trkpt><trkpt lat="42.915051" lon="11.8240412"><ele>664.0</ele><time>2026-04-09T10:19:12.448Z</time></trkpt><trkpt lat="42.9151982" lon="11.8242236"><ele>664.0</ele><time>2026-04-09T10:19:13.456Z</time></trkpt><trkpt lat="42.9153297" lon="11.8243861"><ele>663.75</ele><time>2026-04-09T10:19:14.453Z</time></trkpt><trkpt lat="42.9154529" lon="11.8245367"><ele>663.5</ele><time>2026-04-09T10:19:15.448Z</time></trkpt><trkpt lat="42.9155537" lon="11.8246777"><ele>663.25</ele><time>2026-04-09T10:19:16.453Z</time></trkpt><trkpt lat="42.9156439" lon="11.8248198"><ele>663.0</ele><time>2026-04-09T10:19:17.444Z</time></trkpt><trkpt lat="42.9157155" lon="11.8249768"><ele>662.0</ele><time>2026-04-09T10:19:18.439Z</time></trkpt><trkpt lat="42.9157707" lon="11.8251546"><ele>661.0</ele><time>2026-04-09T10:19:19.452Z</time></trkpt><trkpt lat="42.9158084" lon="11.8253222"><ele>660.0</ele><time>2026-04-09T10:19:20.45Z</time></trkpt><trkpt lat="42.9158461" lon="11.825472"><ele>659.0</ele><time>2026-04-09T10:19:21.44Z</time></trkpt><trkpt lat="42.9159094" lon="11.825609"><ele>659.0</ele><time>2026-04-09T10:19:22.444Z</time></trkpt><trkpt lat="42.9159915" lon="11.8257214"><ele>659.0</ele><time>2026-04-09T10:19:23.449Z</time></trkpt><trkpt lat="42.9160769" lon="11.8258067"><ele>659.0</ele><time>2026-04-09T10:19:24.438Z</time></trkpt><trkpt lat="42.9161794" lon="11.8258764"><ele>659.0</ele><time>2026-04-09T10:19:25.445Z</time></trkpt><trkpt lat="42.9162904" lon="11.8259218"><ele>659.0</ele><time>2026-04-09T10:19:26.442Z</time></trkpt><trkpt lat="42.9164116" lon="11.8259392"><ele>659.0</ele><time>2026-04-09T10:19:27.447Z</time></trkpt><trkpt lat="42.9165317" lon="11.8259535"><ele>659.0</ele><time>2026-04-09T10:19:28.449Z</time></trkpt><trkpt lat="42.9166465" lon="11.8259774"><ele>659.0</ele><time>2026-04-09T10:19:29.455Z</time></trkpt><trkpt lat="42.9167527" lon="11.8260204"><ele>656.5</ele><time>2026-04-09T10:19:30.476Z</time></trkpt><trkpt lat="42.9168532" lon="11.8260792"><ele>654.0</ele><time>2026-04-09T10:19:31.469Z</time></trkpt><trkpt lat="42.9169481" lon="11.8261632"><ele>651.5</ele><time>2026-04-09T10:19:32.444Z</time></trkpt><trkpt lat="42.9170319" lon="11.8262929"><ele>649.0</ele><time>2026-04-09T10:19:33.453Z</time></trkpt><trkpt lat="42.9171126" lon="11.8264628"><ele>649.0</ele><time>2026-04-09T10:19:34.443Z</time></trkpt><trkpt lat="42.9171856" lon="11.8266728"><ele>649.0</ele><time>2026-04-09T10:19:35.446Z</time></trkpt><trkpt lat="42.9172368" lon="11.8268765"><ele>649.0</ele><time>2026-04-09T10:19:36.448Z</time></trkpt><trkpt lat="42.9172847" lon="11.8270677"><ele>649.25</ele><time>2026-04-09T10:19:37.452Z</time></trkpt><trkpt lat="42.9173383" lon="11.8272396"><ele>649.5</ele><time>2026-04-09T10:19:38.449Z</time></trkpt><trkpt lat="42.9173902" lon="11.8273934"><ele>649.75</ele><time>2026-04-09T10:19:39.451Z</time></trkpt><trkpt lat="42.9174582" lon="11.8275506"><ele>650.0</ele><time>2026-04-09T10:19:40.444Z</time></trkpt><trkpt lat="42.917526" lon="11.8277551"><ele>651.3333333333333</ele><time>2026-04-09T10:19:41.452Z</time></trkpt><trkpt lat="42.9175917" lon="11.8280063"><ele>652.6666666666666</ele><time>2026-04-09T10:19:42.446Z</time></trkpt><trkpt lat="42.9176418" lon="11.8283019"><ele>654.0</ele><time>2026-04-09T10:19:43.442Z</time></trkpt><trkpt lat="42.9176994" lon="11.8285707"><ele>655.0</ele><time>2026-04-09T10:19:44.443Z</time></trkpt><trkpt lat="42.9177545" lon="11.8288204"><ele>656.0</ele><time>2026-04-09T10:19:45.441Z</time></trkpt><trkpt lat="42.9178237" lon="11.8290503"><ele>657.0</ele><time>2026-04-09T10:19:46.442Z</time></trkpt><trkpt lat="42.9179156" lon="11.8292612"><ele>653.3333333333334</ele><time>2026-04-09T10:19:47.434Z</time></trkpt><trkpt lat="42.9180545" lon="11.8294477"><ele>649.6666666666667</ele><time>2026-04-09T10:19:48.445Z</time></trkpt><trkpt lat="42.9182023" lon="11.8296058"><ele>646.0</ele><time>2026-04-09T10:19:49.441Z</time></trkpt><trkpt lat="42.9183476" lon="11.8297711"><ele>646.3333333333334</ele><time>2026-04-09T10:19:50.446Z</time></trkpt><trkpt lat="42.9184764" lon="11.8299203"><ele>646.6666666666666</ele><time>2026-04-09T10:19:51.448Z</time></trkpt><trkpt lat="42.9185867" lon="11.8300641"><ele>647.0</ele><time>2026-04-09T10:19:52.447Z</time></trkpt><trkpt lat="42.9186959" lon="11.8302226"><ele>647.25</ele><time>2026-04-09T10:19:53.451Z</time></trkpt><trkpt lat="42.9188001" lon="11.8303656"><ele>647.5</ele><time>2026-04-09T10:19:54.446Z</time></trkpt><trkpt lat="42.9189103" lon="11.8304951"><ele>647.75</ele><time>2026-04-09T10:19:55.447Z</time></trkpt><trkpt lat="42.9189949" lon="11.8305816"><ele>648.0</ele><time>2026-04-09T10:19:56.443Z</time></trkpt><trkpt lat="42.9190599" lon="11.8306495"><ele>648.0</ele><time>2026-04-09T10:19:57.446Z</time></trkpt><trkpt lat="42.9191516" lon="11.8307447"><ele>648.0</ele><time>2026-04-09T10:19:59.454Z</time></trkpt><trkpt lat="42.9192017" lon="11.8308081"><ele>648.0</ele><time>2026-04-09T10:20:00.451Z</time></trkpt><trkpt lat="42.9192557" lon="11.8308765"><ele>648.0</ele><time>2026-04-09T10:20:01.447Z</time></trkpt><trkpt lat="42.9193169" lon="11.8309433"><ele>648.0</ele><time>2026-04-09T10:20:02.448Z</time></trkpt><trkpt lat="42.9193842" lon="11.831017"><ele>648.0</ele><time>2026-04-09T10:20:03.448Z</time></trkpt><trkpt lat="42.9194466" lon="11.8310941"><ele>648.8</ele><time>2026-04-09T10:20:04.439Z</time></trkpt><trkpt lat="42.9195042" lon="11.8311787"><ele>649.5999999999999</ele><time>2026-04-09T10:20:05.445Z</time></trkpt><trkpt lat="42.919547" lon="11.8312797"><ele>650.4000000000001</ele><time>2026-04-09T10:20:06.439Z</time></trkpt><trkpt lat="42.9195789" lon="11.8314008"><ele>651.2</ele><time>2026-04-09T10:20:07.44Z</time></trkpt><trkpt lat="42.9195959" lon="11.8315343"><ele>652.0</ele><time>2026-04-09T10:20:08.472Z</time></trkpt><trkpt lat="42.9196047" lon="11.8316748"><ele>651.6</ele><time>2026-04-09T10:20:09.47Z</time></trkpt><trkpt lat="42.9196099" lon="11.8318227"><ele>651.2</ele><time>2026-04-09T10:20:10.441Z</time></trkpt><trkpt lat="42.9196152" lon="11.8319774"><ele>650.8</ele><time>2026-04-09T10:20:11.47Z</time></trkpt><trkpt lat="42.9196224" lon="11.8321151"><ele>650.4</ele><time>2026-04-09T10:20:12.444Z</time></trkpt><trkpt lat="42.919629" lon="11.8322421"><ele>650.0</ele><time>2026-04-09T10:20:13.467Z</time></trkpt><trkpt lat="42.9196293" lon="11.8323718"><ele>650.0</ele><time>2026-04-09T10:20:14.44Z</time></trkpt><trkpt lat="42.9196195" lon="11.8325128"><ele>650.0</ele><time>2026-04-09T10:20:15.447Z</time></trkpt><trkpt lat="42.9196073" lon="11.8326719"><ele>650.0</ele><time>2026-04-09T10:20:16.439Z</time></trkpt><trkpt lat="42.9195912" lon="11.8328495"><ele>650.0</ele><time>2026-04-09T10:20:17.45Z</time></trkpt><trkpt lat="42.9195747" lon="11.8330282"><ele>649.8</ele><time>2026-04-09T10:20:18.448Z</time></trkpt><trkpt lat="42.9195606" lon="11.8331903"><ele>649.6</ele><time>2026-04-09T10:20:19.447Z</time></trkpt><trkpt lat="42.919547" lon="11.8333328"><ele>649.4000000000001</ele><time>2026-04-09T10:20:20.453Z</time></trkpt><trkpt lat="42.9195331" lon="11.8334607"><ele>649.2</ele><time>2026-04-09T10:20:21.446Z</time></trkpt><trkpt lat="42.9195214" lon="11.8335876"><ele>649.0</ele><time>2026-04-09T10:20:22.453Z</time></trkpt><trkpt lat="42.919519" lon="11.8337197"><ele>649.75</ele><time>2026-04-09T10:20:23.445Z</time></trkpt><trkpt lat="42.9195374" lon="11.8338595"><ele>650.5</ele><time>2026-04-09T10:20:24.45Z</time></trkpt><trkpt lat="42.919581" lon="11.8340091"><ele>651.25</ele><time>2026-04-09T10:20:25.44Z</time></trkpt><trkpt lat="42.9196462" lon="11.8341706"><ele>652.0</ele><time>2026-04-09T10:20:26.453Z</time></trkpt><trkpt lat="42.9197231" lon="11.8343383"><ele>653.0</ele><time>2026-04-09T10:20:27.45Z</time></trkpt><trkpt lat="42.9198059" lon="11.8345174"><ele>654.0</ele><time>2026-04-09T10:20:28.45Z</time></trkpt><trkpt lat="42.9199" lon="11.8347054"><ele>655.0</ele><time>2026-04-09T10:20:29.449Z</time></trkpt><trkpt lat="42.9199886" lon="11.8348832"><ele>655.0</ele><time>2026-04-09T10:20:30.444Z</time></trkpt><trkpt lat="42.9200636" lon="11.8350253"><ele>655.0</ele><time>2026-04-09T10:20:31.438Z</time></trkpt><trkpt lat="42.9201289" lon="11.8351377"><ele>655.0</ele><time>2026-04-09T10:20:32.442Z</time></trkpt><trkpt lat="42.9201559" lon="11.8352526"><ele>655.0</ele><time>2026-04-09T10:20:33.461Z</time></trkpt><trkpt lat="42.9201472" lon="11.8353651"><ele>655.0</ele><time>2026-04-09T10:20:34.441Z</time></trkpt><trkpt lat="42.9201194" lon="11.8354758"><ele>655.0</ele><time>2026-04-09T10:20:35.438Z</time></trkpt><trkpt lat="42.9200752" lon="11.8355865"><ele>655.0</ele><time>2026-04-09T10:20:36.435Z</time></trkpt><trkpt lat="42.9200131" lon="11.8357032"><ele>655.0</ele><time>2026-04-09T10:20:37.438Z</time></trkpt><trkpt lat="42.9199431" lon="11.8358329"><ele>655.0</ele><time>2026-04-09T10:20:38.435Z</time></trkpt><trkpt lat="42.9198713" lon="11.8359775"><ele>655.0</ele><time>2026-04-09T10:20:39.436Z</time></trkpt><trkpt lat="42.9197998" lon="11.8361372"><ele>655.0</ele><time>2026-04-09T10:20:40.446Z</time></trkpt><trkpt lat="42.9197134" lon="11.8363231"><ele>655.0</ele><time>2026-04-09T10:20:41.442Z</time></trkpt><trkpt lat="42.9196139" lon="11.8365439"><ele>655.0</ele><time>2026-04-09T10:20:42.444Z</time></trkpt><trkpt lat="42.9195351" lon="11.8367296"><ele>653.75</ele><time>2026-04-09T10:20:43.454Z</time></trkpt><trkpt lat="42.9194717" lon="11.8368955"><ele>652.5</ele><time>2026-04-09T10:20:44.442Z</time></trkpt><trkpt lat="42.9194179" lon="11.8370499"><ele>651.25</ele><time>2026-04-09T10:20:45.444Z</time></trkpt><trkpt lat="42.9193707" lon="11.83721"><ele>650.0</ele><time>2026-04-09T10:20:46.452Z</time></trkpt><trkpt lat="42.9193213" lon="11.8373751"><ele>650.0</ele><time>2026-04-09T10:20:47.437Z</time></trkpt><trkpt lat="42.9192608" lon="11.837548"><ele>650.0</ele><time>2026-04-09T10:20:48.444Z</time></trkpt><trkpt lat="42.9191767" lon="11.8377224"><ele>650.0</ele><time>2026-04-09T10:20:49.443Z</time></trkpt><trkpt lat="42.919089" lon="11.8379055"><ele>653.75</ele><time>2026-04-09T10:20:50.451Z</time></trkpt><trkpt lat="42.9190092" lon="11.8380757"><ele>657.5</ele><time>2026-04-09T10:20:51.443Z</time></trkpt><trkpt lat="42.918936" lon="11.8382419"><ele>661.25</ele><time>2026-04-09T10:20:52.439Z</time></trkpt><trkpt lat="42.9188692" lon="11.8383969"><ele>665.0</ele><time>2026-04-09T10:20:53.437Z</time></trkpt><trkpt lat="42.9188094" lon="11.838544"><ele>665.2</ele><time>2026-04-09T10:20:54.44Z</time></trkpt><trkpt lat="42.9187727" lon="11.8386648"><ele>665.4</ele><time>2026-04-09T10:20:55.431Z</time></trkpt><trkpt lat="42.9187638" lon="11.8387811"><ele>665.5999999999999</ele><time>2026-04-09T10:20:56.447Z</time></trkpt><trkpt lat="42.91877" lon="11.8389076"><ele>665.8</ele><time>2026-04-09T10:20:57.441Z</time></trkpt><trkpt lat="42.9187753" lon="11.8390573"><ele>666.0</ele><time>2026-04-09T10:20:58.435Z</time></trkpt><trkpt lat="42.9187694" lon="11.8392304"><ele>665.5</ele><time>2026-04-09T10:20:59.437Z</time></trkpt><trkpt lat="42.9187472" lon="11.839426"><ele>665.0</ele><time>2026-04-09T10:21:00.444Z</time></trkpt><trkpt lat="42.9187167" lon="11.8396054"><ele>664.5</ele><time>2026-04-09T10:21:01.441Z</time></trkpt><trkpt lat="42.9186904" lon="11.8397519"><ele>664.0</ele><time>2026-04-09T10:21:02.433Z</time></trkpt><trkpt lat="42.9186684" lon="11.8398724"><ele>664.0</ele><time>2026-04-09T10:21:03.443Z</time></trkpt><trkpt lat="42.9186302" lon="11.8399876"><ele>664.0</ele><time>2026-04-09T10:21:04.462Z</time></trkpt><trkpt lat="42.9185872" lon="11.8401053"><ele>664.0</ele><time>2026-04-09T10:21:05.431Z</time></trkpt><trkpt lat="42.9185382" lon="11.8402013"><ele>664.0</ele><time>2026-04-09T10:21:06.441Z</time></trkpt><trkpt lat="42.9184324" lon="11.8402709"><ele>664.0</ele><time>2026-04-09T10:21:07.463Z</time></trkpt><trkpt lat="42.9183167" lon="11.8403256"><ele>665.8000000000001</ele><time>2026-04-09T10:21:08.443Z</time></trkpt><trkpt lat="42.918201" lon="11.8403753"><ele>667.6</ele><time>2026-04-09T10:21:09.443Z</time></trkpt><trkpt lat="42.9180983" lon="11.8404298"><ele>669.4</ele><time>2026-04-09T10:21:10.442Z</time></trkpt><trkpt lat="42.9180043" lon="11.8404878"><ele>671.2</ele><time>2026-04-09T10:21:11.432Z</time></trkpt><trkpt lat="42.9179184" lon="11.8405661"><ele>673.0</ele><time>2026-04-09T10:21:12.439Z</time></trkpt><trkpt lat="42.9178414" lon="11.840661"><ele>673.0</ele><time>2026-04-09T10:21:13.438Z</time></trkpt><trkpt lat="42.9177755" lon="11.8407743"><ele>673.0</ele><time>2026-04-09T10:21:14.435Z</time></trkpt><trkpt lat="42.9177197" lon="11.8409027"><ele>673.0</ele><time>2026-04-09T10:21:15.432Z</time></trkpt><trkpt lat="42.9176735" lon="11.8410387"><ele>673.0</ele><time>2026-04-09T10:21:16.436Z</time></trkpt><trkpt lat="42.9176357" lon="11.8411941"><ele>673.0</ele><time>2026-04-09T10:21:17.442Z</time></trkpt><trkpt lat="42.9175991" lon="11.8413584"><ele>675.25</ele><time>2026-04-09T10:21:18.435Z</time></trkpt><trkpt lat="42.9175624" lon="11.8415339"><ele>677.5</ele><time>2026-04-09T10:21:19.443Z</time></trkpt><trkpt lat="42.9175205" lon="11.8417174"><ele>679.75</ele><time>2026-04-09T10:21:20.44Z</time></trkpt><trkpt lat="42.9174771" lon="11.841907"><ele>682.0</ele><time>2026-04-09T10:21:21.442Z</time></trkpt><trkpt lat="42.9174344" lon="11.8420802"><ele>682.75</ele><time>2026-04-09T10:21:22.436Z</time></trkpt><trkpt lat="42.917386" lon="11.8422447"><ele>683.5</ele><time>2026-04-09T10:21:23.438Z</time></trkpt><trkpt lat="42.917335" lon="11.8424113"><ele>684.25</ele><time>2026-04-09T10:21:24.437Z</time></trkpt><trkpt lat="42.9172882" lon="11.8425733"><ele>685.0</ele><time>2026-04-09T10:21:25.44Z</time></trkpt><trkpt lat="42.917252" lon="11.8427413"><ele>685.5</ele><time>2026-04-09T10:21:26.445Z</time></trkpt><trkpt lat="42.9172155" lon="11.8429188"><ele>686.0</ele><time>2026-04-09T10:21:27.429Z</time></trkpt><trkpt lat="42.9171758" lon="11.8430998"><ele>686.5</ele><time>2026-04-09T10:21:28.442Z</time></trkpt><trkpt lat="42.9171255" lon="11.8432856"><ele>687.0</ele><time>2026-04-09T10:21:29.44Z</time></trkpt><trkpt lat="42.9170641" lon="11.8434716"><ele>687.5</ele><time>2026-04-09T10:21:30.441Z</time></trkpt><trkpt lat="42.9170175" lon="11.8436493"><ele>688.0</ele><time>2026-04-09T10:21:31.434Z</time></trkpt><trkpt lat="42.9169807" lon="11.8438049"><ele>688.5</ele><time>2026-04-09T10:21:32.432Z</time></trkpt><trkpt lat="42.9169459" lon="11.8439451"><ele>689.0</ele><time>2026-04-09T10:21:33.435Z</time></trkpt><trkpt lat="42.9169134" lon="11.8440885"><ele>689.0</ele><time>2026-04-09T10:21:34.435Z</time></trkpt><trkpt lat="42.9168735" lon="11.8442347"><ele>689.0</ele><time>2026-04-09T10:21:35.437Z</time></trkpt><trkpt lat="42.9168395" lon="11.844371"><ele>689.0</ele><time>2026-04-09T10:21:36.438Z</time></trkpt><trkpt lat="42.916813" lon="11.8445055"><ele>689.0</ele><time>2026-04-09T10:21:37.425Z</time></trkpt><trkpt lat="42.9167869" lon="11.8446458"><ele>689.0</ele><time>2026-04-09T10:21:38.44Z</time></trkpt><trkpt lat="42.9167665" lon="11.8447942"><ele>688.0</ele><time>2026-04-09T10:21:39.442Z</time></trkpt><trkpt lat="42.916751" lon="11.8449348"><ele>687.0</ele><time>2026-04-09T10:21:40.431Z</time></trkpt><trkpt lat="42.9167348" lon="11.845066"><ele>686.0</ele><time>2026-04-09T10:21:41.442Z</time></trkpt><trkpt lat="42.9167268" lon="11.8452056"><ele>685.0</ele><time>2026-04-09T10:21:42.443Z</time></trkpt><trkpt lat="42.9167222" lon="11.8453477"><ele>684.0</ele><time>2026-04-09T10:21:43.432Z</time></trkpt><trkpt lat="42.9167174" lon="11.8454913"><ele>684.75</ele><time>2026-04-09T10:21:44.443Z</time></trkpt><trkpt lat="42.916706" lon="11.845634"><ele>685.5</ele><time>2026-04-09T10:21:45.428Z</time></trkpt><trkpt lat="42.9166861" lon="11.8457908"><ele>686.25</ele><time>2026-04-09T10:21:46.435Z</time></trkpt><trkpt lat="42.9166688" lon="11.8459504"><ele>687.0</ele><time>2026-04-09T10:21:47.44Z</time></trkpt><trkpt lat="42.9166587" lon="11.8461012"><ele>687.0</ele><time>2026-04-09T10:21:48.435Z</time></trkpt><trkpt lat="42.9166474" lon="11.8462454"><ele>687.0</ele><time>2026-04-09T10:21:49.44Z</time></trkpt><trkpt lat="42.9166393" lon="11.8463916"><ele>687.0</ele><time>2026-04-09T10:21:50.439Z</time></trkpt><trkpt lat="42.9166308" lon="11.8465287"><ele>687.0</ele><time>2026-04-09T10:21:51.432Z</time></trkpt><trkpt lat="42.9166216" lon="11.8466533"><ele>687.0</ele><time>2026-04-09T10:21:52.433Z</time></trkpt><trkpt lat="42.9166114" lon="11.8467702"><ele>685.0</ele><time>2026-04-09T10:21:53.429Z</time></trkpt><trkpt lat="42.9165971" lon="11.8468915"><ele>683.0</ele><time>2026-04-09T10:21:54.454Z</time></trkpt><trkpt lat="42.9165781" lon="11.8470195"><ele>681.0</ele><time>2026-04-09T10:21:55.457Z</time></trkpt><trkpt lat="42.9165578" lon="11.8471454"><ele>679.0</ele><time>2026-04-09T10:21:56.426Z</time></trkpt><trkpt lat="42.9165347" lon="11.847274"><ele>677.0</ele><time>2026-04-09T10:21:57.463Z</time></trkpt><trkpt lat="42.916508" lon="11.8473977"><ele>677.0</ele><time>2026-04-09T10:21:58.434Z</time></trkpt><trkpt lat="42.9164801" lon="11.8475248"><ele>677.0</ele><time>2026-04-09T10:21:59.44Z</time></trkpt><trkpt lat="42.9164623" lon="11.8476549"><ele>677.0</ele><time>2026-04-09T10:22:00.461Z</time></trkpt><trkpt lat="42.9164489" lon="11.8477812"><ele>677.0</ele><time>2026-04-09T10:22:01.444Z</time></trkpt><trkpt lat="42.9164387" lon="11.8479055"><ele>677.0</ele><time>2026-04-09T10:22:02.437Z</time></trkpt><trkpt lat="42.916431" lon="11.8480311"><ele>676.0</ele><time>2026-04-09T10:22:03.441Z</time></trkpt><trkpt lat="42.916432" lon="11.8481605"><ele>675.0</ele><time>2026-04-09T10:22:04.432Z</time></trkpt><trkpt lat="42.9164367" lon="11.8482867"><ele>674.0</ele><time>2026-04-09T10:22:05.463Z</time></trkpt><trkpt lat="42.9164433" lon="11.8484002"><ele>673.0</ele><time>2026-04-09T10:22:06.441Z</time></trkpt><trkpt lat="42.9164508" lon="11.8485142"><ele>672.0</ele><time>2026-04-09T10:22:07.464Z</time></trkpt><trkpt lat="42.9164587" lon="11.8486249"><ele>671.0</ele><time>2026-04-09T10:22:08.437Z</time></trkpt><trkpt lat="42.9164693" lon="11.8487358"><ele>669.8</ele><time>2026-04-09T10:22:09.439Z</time></trkpt><trkpt lat="42.9164753" lon="11.8488477"><ele>668.5999999999999</ele><time>2026-04-09T10:22:10.435Z</time></trkpt><trkpt lat="42.9164764" lon="11.8489637"><ele>667.4</ele><time>2026-04-09T10:22:11.438Z</time></trkpt><trkpt lat="42.9164746" lon="11.8490881"><ele>666.2</ele><time>2026-04-09T10:22:12.465Z</time></trkpt><trkpt lat="42.9164665" lon="11.8492232"><ele>665.0</ele><time>2026-04-09T10:22:13.454Z</time></trkpt><trkpt lat="42.9164596" lon="11.8493648"><ele>663.8</ele><time>2026-04-09T10:22:14.44Z</time></trkpt><trkpt lat="42.9164541" lon="11.8495096"><ele>662.6</ele><time>2026-04-09T10:22:15.46Z</time></trkpt><trkpt lat="42.9164497" lon="11.8496626"><ele>661.4000000000001</ele><time>2026-04-09T10:22:16.43Z</time></trkpt><trkpt lat="42.916442" lon="11.8498187"><ele>660.2</ele><time>2026-04-09T10:22:17.465Z</time></trkpt><trkpt lat="42.9164365" lon="11.8499498"><ele>659.0</ele><time>2026-04-09T10:22:18.444Z</time></trkpt><trkpt lat="42.9164295" lon="11.850084"><ele>658.0</ele><time>2026-04-09T10:22:19.436Z</time></trkpt><trkpt lat="42.9164186" lon="11.8502271"><ele>657.0</ele><time>2026-04-09T10:22:20.439Z</time></trkpt><trkpt lat="42.9163985" lon="11.8503834"><ele>656.0</ele><time>2026-04-09T10:22:21.437Z</time></trkpt><trkpt lat="42.9163717" lon="11.8505581"><ele>655.0</ele><time>2026-04-09T10:22:22.438Z</time></trkpt><trkpt lat="42.9163384" lon="11.8507261"><ele>655.0</ele><time>2026-04-09T10:22:23.434Z</time></trkpt><trkpt lat="42.9163046" lon="11.8508835"><ele>655.0</ele><time>2026-04-09T10:22:24.437Z</time></trkpt><trkpt lat="42.9162768" lon="11.851035"><ele>655.0</ele><time>2026-04-09T10:22:25.432Z</time></trkpt><trkpt lat="42.9162486" lon="11.851185"><ele>655.0</ele><time>2026-04-09T10:22:26.435Z</time></trkpt><trkpt lat="42.9162207" lon="11.8513187"><ele>653.8333333333334</ele><time>2026-04-09T10:22:27.434Z</time></trkpt><trkpt lat="42.9161971" lon="11.8514386"><ele>652.6666666666667</ele><time>2026-04-09T10:22:28.425Z</time></trkpt><trkpt lat="42.9161764" lon="11.8515469"><ele>651.5</ele><time>2026-04-09T10:22:29.434Z</time></trkpt><trkpt lat="42.9161553" lon="11.8516439"><ele>650.3333333333334</ele><time>2026-04-09T10:22:30.442Z</time></trkpt><trkpt lat="42.916126" lon="11.8517296"><ele>649.1666666666666</ele><time>2026-04-09T10:22:31.442Z</time></trkpt><trkpt lat="42.9160836" lon="11.8518159"><ele>648.0</ele><time>2026-04-09T10:22:32.443Z</time></trkpt><trkpt lat="42.9160224" lon="11.8518835"><ele>647.2</ele><time>2026-04-09T10:22:33.44Z</time></trkpt><trkpt lat="42.9159455" lon="11.8519561"><ele>646.4</ele><time>2026-04-09T10:22:34.464Z</time></trkpt><trkpt lat="42.9158584" lon="11.852027"><ele>645.6</ele><time>2026-04-09T10:22:35.447Z</time></trkpt><trkpt lat="42.9157653" lon="11.8521013"><ele>644.8000000000001</ele><time>2026-04-09T10:22:36.447Z</time></trkpt><trkpt lat="42.9156762" lon="11.8521772"><ele>644.0</ele><time>2026-04-09T10:22:37.449Z</time></trkpt><trkpt lat="42.9155901" lon="11.8522489"><ele>644.0</ele><time>2026-04-09T10:22:38.445Z</time></trkpt><trkpt lat="42.9155057" lon="11.8523142"><ele>644.0</ele><time>2026-04-09T10:22:39.444Z</time></trkpt><trkpt lat="42.9154161" lon="11.8523854"><ele>644.0</ele><time>2026-04-09T10:22:40.451Z</time></trkpt><trkpt lat="42.9153208" lon="11.8524541"><ele>644.0</ele><time>2026-04-09T10:22:41.445Z</time></trkpt><trkpt lat="42.9152232" lon="11.8525221"><ele>644.0</ele><time>2026-04-09T10:22:42.437Z</time></trkpt><trkpt lat="42.9151165" lon="11.8525949"><ele>642.5</ele><time>2026-04-09T10:22:43.441Z</time></trkpt><trkpt lat="42.9150147" lon="11.8526616"><ele>641.0</ele><time>2026-04-09T10:22:44.437Z</time></trkpt><trkpt lat="42.9149141" lon="11.8527324"><ele>639.5</ele><time>2026-04-09T10:22:45.444Z</time></trkpt><trkpt lat="42.9148153" lon="11.8528049"><ele>638.0</ele><time>2026-04-09T10:22:46.443Z</time></trkpt><trkpt lat="42.9147155" lon="11.8528809"><ele>638.0</ele><time>2026-04-09T10:22:47.451Z</time></trkpt><trkpt lat="42.9146216" lon="11.8529573"><ele>638.0</ele><time>2026-04-09T10:22:48.442Z</time></trkpt><trkpt lat="42.9145323" lon="11.8530383"><ele>638.0</ele><time>2026-04-09T10:22:49.441Z</time></trkpt><trkpt lat="42.91445" lon="11.8531063"><ele>638.0</ele><time>2026-04-09T10:22:50.455Z</time></trkpt><trkpt lat="42.9143731" lon="11.8531738"><ele>638.0</ele><time>2026-04-09T10:22:51.448Z</time></trkpt><trkpt lat="42.9143032" lon="11.8532317"><ele>638.0</ele><time>2026-04-09T10:22:52.439Z</time></trkpt><trkpt lat="42.9142443" lon="11.8532922"><ele>638.0</ele><time>2026-04-09T10:22:53.441Z</time></trkpt><trkpt lat="42.9142015" lon="11.8533677"><ele>638.0</ele><time>2026-04-09T10:22:54.442Z</time></trkpt><trkpt lat="42.9141794" lon="11.8535004"><ele>638.0</ele><time>2026-04-09T10:22:56.446Z</time></trkpt><trkpt lat="42.9142221" lon="11.8536572"><ele>638.0</ele><time>2026-04-09T10:22:58.441Z</time></trkpt><trkpt lat="42.9142364" lon="11.8537838"><ele>638.5999999999999</ele><time>2026-04-09T10:23:00.439Z</time></trkpt><trkpt lat="42.9141878" lon="11.8538549"><ele>639.1999999999999</ele><time>2026-04-09T10:23:03.437Z</time></trkpt><trkpt lat="42.9141578" lon="11.8539406"><ele>639.8</ele><time>2026-04-09T10:23:05.44Z</time></trkpt><trkpt lat="42.91409" lon="11.8541022"><ele>640.4</ele><time>2026-04-09T10:23:07.434Z</time></trkpt><trkpt lat="42.9140372" lon="11.8542102"><ele>641.0</ele><time>2026-04-09T10:23:08.431Z</time></trkpt><trkpt lat="42.9139721" lon="11.854318"><ele>641.0</ele><time>2026-04-09T10:23:09.431Z</time></trkpt><trkpt lat="42.9138966" lon="11.8544153"><ele>641.0</ele><time>2026-04-09T10:23:10.437Z</time></trkpt><trkpt lat="42.9138153" lon="11.8545057"><ele>641.0</ele><time>2026-04-09T10:23:11.44Z</time></trkpt><trkpt lat="42.9137344" lon="11.8545902"><ele>641.0</ele><time>2026-04-09T10:23:12.438Z</time></trkpt><trkpt lat="42.9136561" lon="11.8546605"><ele>641.0</ele><time>2026-04-09T10:23:13.43Z</time></trkpt><trkpt lat="42.9135803" lon="11.8547195"><ele>641.0</ele><time>2026-04-09T10:23:14.443Z</time></trkpt><trkpt lat="42.9135013" lon="11.8547746"><ele>641.0</ele><time>2026-04-09T10:23:15.443Z</time></trkpt><trkpt lat="42.9134178" lon="11.8548303"><ele>641.0</ele><time>2026-04-09T10:23:16.44Z</time></trkpt><trkpt lat="42.9133372" lon="11.854887"><ele>641.0</ele><time>2026-04-09T10:23:17.442Z</time></trkpt><trkpt lat="42.9132501" lon="11.8549508"><ele>641.0</ele><time>2026-04-09T10:23:18.442Z</time></trkpt><trkpt lat="42.9131546" lon="11.855015"><ele>640.1999999999999</ele><time>2026-04-09T10:23:19.447Z</time></trkpt><trkpt lat="42.91306" lon="11.8550778"><ele>639.4</ele><time>2026-04-09T10:23:20.448Z</time></trkpt><trkpt lat="42.9129708" lon="11.8551392"><ele>638.6</ele><time>2026-04-09T10:23:21.445Z</time></trkpt><trkpt lat="42.9128849" lon="11.8551997"><ele>637.8</ele><time>2026-04-09T10:23:22.448Z</time></trkpt><trkpt lat="42.9128004" lon="11.855256"><ele>637.0</ele><time>2026-04-09T10:23:23.442Z</time></trkpt><trkpt lat="42.912722" lon="11.8553168"><ele>637.0</ele><time>2026-04-09T10:23:24.445Z</time></trkpt><trkpt lat="42.9126489" lon="11.8553733"><ele>637.0</ele><time>2026-04-09T10:23:25.443Z</time></trkpt><trkpt lat="42.9125759" lon="11.8554331"><ele>637.0</ele><time>2026-04-09T10:23:26.44Z</time></trkpt><trkpt lat="42.912502" lon="11.8554905"><ele>637.0</ele><time>2026-04-09T10:23:27.45Z</time></trkpt><trkpt lat="42.9124131" lon="11.8555595"><ele>637.0</ele><time>2026-04-09T10:23:28.433Z</time></trkpt><trkpt lat="42.9123092" lon="11.855634"><ele>634.2</ele><time>2026-04-09T10:23:29.446Z</time></trkpt><trkpt lat="42.9122114" lon="11.8557135"><ele>631.4000000000001</ele><time>2026-04-09T10:23:30.434Z</time></trkpt><trkpt lat="42.9121124" lon="11.8557843"><ele>628.5999999999999</ele><time>2026-04-09T10:23:31.443Z</time></trkpt><trkpt lat="42.9120185" lon="11.8558461"><ele>625.8</ele><time>2026-04-09T10:23:32.423Z</time></trkpt><trkpt lat="42.9119303" lon="11.8558942"><ele>623.0</ele><time>2026-04-09T10:23:33.443Z</time></trkpt><trkpt lat="42.9118568" lon="11.8559315"><ele>624.6</ele><time>2026-04-09T10:23:34.426Z</time></trkpt><trkpt lat="42.9117945" lon="11.8559557"><ele>626.1999999999999</ele><time>2026-04-09T10:23:35.436Z</time></trkpt><trkpt lat="42.9116811" lon="11.8559782"><ele>627.8</ele><time>2026-04-09T10:23:37.438Z</time></trkpt><trkpt lat="42.9115785" lon="11.855994"><ele>629.4</ele><time>2026-04-09T10:23:39.443Z</time></trkpt><trkpt lat="42.9114973" lon="11.8559731"><ele>631.0</ele><time>2026-04-09T10:23:42.446Z</time></trkpt><trkpt lat="42.9114116" lon="11.8559657"><ele>631.0</ele><time>2026-04-09T10:23:44.461Z</time></trkpt><trkpt lat="42.9113392" lon="11.8559524"><ele>631.0</ele><time>2026-04-09T10:23:45.462Z</time></trkpt><trkpt lat="42.9112559" lon="11.8559359"><ele>631.0</ele><time>2026-04-09T10:23:46.431Z</time></trkpt><trkpt lat="42.9111705" lon="11.8559223"><ele>631.0</ele><time>2026-04-09T10:23:47.438Z</time></trkpt><trkpt lat="42.9110902" lon="11.8559262"><ele>631.0</ele><time>2026-04-09T10:23:48.444Z</time></trkpt><trkpt lat="42.9110096" lon="11.8559367"><ele>631.0</ele><time>2026-04-09T10:23:49.46Z</time></trkpt><trkpt lat="42.9109259" lon="11.8559579"><ele>628.0</ele><time>2026-04-09T10:23:50.44Z</time></trkpt><trkpt lat="42.9108343" lon="11.8559911"><ele>625.0</ele><time>2026-04-09T10:23:51.436Z</time></trkpt><trkpt lat="42.9107431" lon="11.856034"><ele>622.0</ele><time>2026-04-09T10:23:52.434Z</time></trkpt><trkpt lat="42.9106502" lon="11.8560885"><ele>619.0</ele><time>2026-04-09T10:23:53.431Z</time></trkpt><trkpt lat="42.9105465" lon="11.856173"><ele>616.0</ele><time>2026-04-09T10:23:54.454Z</time></trkpt><trkpt lat="42.910426" lon="11.8562719"><ele>616.0</ele><time>2026-04-09T10:23:55.464Z</time></trkpt><trkpt lat="42.9103045" lon="11.8563634"><ele>616.0</ele><time>2026-04-09T10:23:56.439Z</time></trkpt><trkpt lat="42.9101807" lon="11.8564449"><ele>616.0</ele><time>2026-04-09T10:23:57.437Z</time></trkpt><trkpt lat="42.9100584" lon="11.8565278"><ele>616.0</ele><time>2026-04-09T10:23:58.429Z</time></trkpt><trkpt lat="42.9099512" lon="11.856615"><ele>616.0</ele><time>2026-04-09T10:23:59.445Z</time></trkpt><trkpt lat="42.9098558" lon="11.8567088"><ele>616.0</ele><time>2026-04-09T10:24:00.439Z</time></trkpt><trkpt lat="42.9097607" lon="11.8568118"><ele>616.0</ele><time>2026-04-09T10:24:01.433Z</time></trkpt><trkpt lat="42.9096653" lon="11.8569256"><ele>616.0</ele><time>2026-04-09T10:24:02.441Z</time></trkpt><trkpt lat="42.9095752" lon="11.857048"><ele>615.8</ele><time>2026-04-09T10:24:03.433Z</time></trkpt><trkpt lat="42.9094945" lon="11.8571657"><ele>615.6</ele><time>2026-04-09T10:24:04.444Z</time></trkpt><trkpt lat="42.9094185" lon="11.857267"><ele>615.4</ele><time>2026-04-09T10:24:05.434Z</time></trkpt><trkpt lat="42.9093405" lon="11.8573626"><ele>615.2</ele><time>2026-04-09T10:24:06.438Z</time></trkpt><trkpt lat="42.9092531" lon="11.8574476"><ele>615.0</ele><time>2026-04-09T10:24:07.443Z</time></trkpt><trkpt lat="42.909164" lon="11.8575258"><ele>615.0</ele><time>2026-04-09T10:24:08.428Z</time></trkpt><trkpt lat="42.9090756" lon="11.8575989"><ele>615.0</ele><time>2026-04-09T10:24:09.436Z</time></trkpt><trkpt lat="42.9089906" lon="11.8576521"><ele>615.0</ele><time>2026-04-09T10:24:10.433Z</time></trkpt><trkpt lat="42.9089005" lon="11.8576906"><ele>615.0</ele><time>2026-04-09T10:24:11.437Z</time></trkpt><trkpt lat="42.9088073" lon="11.8577219"><ele>615.0</ele><time>2026-04-09T10:24:12.436Z</time></trkpt><trkpt lat="42.9087001" lon="11.8577515"><ele>615.75</ele><time>2026-04-09T10:24:13.434Z</time></trkpt><trkpt lat="42.9085717" lon="11.8577883"><ele>616.5</ele><time>2026-04-09T10:24:14.437Z</time></trkpt><trkpt lat="42.9084357" lon="11.8578282"><ele>617.25</ele><time>2026-04-09T10:24:15.436Z</time></trkpt><trkpt lat="42.9083059" lon="11.8578593"><ele>618.0</ele><time>2026-04-09T10:24:16.43Z</time></trkpt><trkpt lat="42.9081798" lon="11.8578845"><ele>618.0</ele><time>2026-04-09T10:24:17.441Z</time></trkpt><trkpt lat="42.9080556" lon="11.8578933"><ele>618.0</ele><time>2026-04-09T10:24:18.456Z</time></trkpt><trkpt lat="42.9079348" lon="11.8579012"><ele>618.0</ele><time>2026-04-09T10:24:19.464Z</time></trkpt><trkpt lat="42.9078117" lon="11.85791"><ele>618.0</ele><time>2026-04-09T10:24:20.46Z</time></trkpt><trkpt lat="42.9076823" lon="11.8579294"><ele>614.75</ele><time>2026-04-09T10:24:21.455Z</time></trkpt><trkpt lat="42.9075554" lon="11.8579472"><ele>611.5</ele><time>2026-04-09T10:24:22.441Z</time></trkpt><trkpt lat="42.9074337" lon="11.857972"><ele>608.25</ele><time>2026-04-09T10:24:23.44Z</time></trkpt><trkpt lat="42.9073035" lon="11.8580013"><ele>605.0</ele><time>2026-04-09T10:24:24.439Z</time></trkpt><trkpt lat="42.9071778" lon="11.8580253"><ele>605.0</ele><time>2026-04-09T10:24:25.441Z</time></trkpt><trkpt lat="42.9070561" lon="11.8580521"><ele>605.0</ele><time>2026-04-09T10:24:26.436Z</time></trkpt><trkpt lat="42.9069374" lon="11.8580766"><ele>605.0</ele><time>2026-04-09T10:24:27.443Z</time></trkpt><trkpt lat="42.9068194" lon="11.8580963"><ele>605.0</ele><time>2026-04-09T10:24:28.439Z</time></trkpt><trkpt lat="42.906707" lon="11.858121"><ele>601.25</ele><time>2026-04-09T10:24:29.449Z</time></trkpt><trkpt lat="42.906588" lon="11.8581438"><ele>597.5</ele><time>2026-04-09T10:24:30.44Z</time></trkpt><trkpt lat="42.9064624" lon="11.8581784"><ele>593.75</ele><time>2026-04-09T10:24:31.442Z</time></trkpt><trkpt lat="42.906343" lon="11.8582219"><ele>590.0</ele><time>2026-04-09T10:24:32.434Z</time></trkpt><trkpt lat="42.9062363" lon="11.8582751"><ele>590.0</ele><time>2026-04-09T10:24:33.433Z</time></trkpt><trkpt lat="42.9061336" lon="11.8583241"><ele>590.0</ele><time>2026-04-09T10:24:34.441Z</time></trkpt><trkpt lat="42.9060415" lon="11.8583713"><ele>590.0</ele><time>2026-04-09T10:24:35.445Z</time></trkpt><trkpt lat="42.9059484" lon="11.8584188"><ele>590.0</ele><time>2026-04-09T10:24:36.437Z</time></trkpt><trkpt lat="42.9058614" lon="11.8584656"><ele>590.0</ele><time>2026-04-09T10:24:37.429Z</time></trkpt><trkpt lat="42.9057706" lon="11.8584963"><ele>591.0</ele><time>2026-04-09T10:24:38.435Z</time></trkpt><trkpt lat="42.9056753" lon="11.8585235"><ele>592.0</ele><time>2026-04-09T10:24:39.437Z</time></trkpt><trkpt lat="42.905589" lon="11.8585613"><ele>593.0</ele><time>2026-04-09T10:24:40.44Z</time></trkpt><trkpt lat="42.9055015" lon="11.8585951"><ele>594.0</ele><time>2026-04-09T10:24:41.429Z</time></trkpt><trkpt lat="42.9054057" lon="11.8586274"><ele>595.0</ele><time>2026-04-09T10:24:42.444Z</time></trkpt><trkpt lat="42.9053046" lon="11.858666"><ele>595.0</ele><time>2026-04-09T10:24:43.438Z</time></trkpt><trkpt lat="42.9052015" lon="11.8587171"><ele>595.0</ele><time>2026-04-09T10:24:44.434Z</time></trkpt><trkpt lat="42.9051082" lon="11.8587792"><ele>595.0</ele><time>2026-04-09T10:24:45.435Z</time></trkpt><trkpt lat="42.9050129" lon="11.8588548"><ele>595.0</ele><time>2026-04-09T10:24:46.432Z</time></trkpt><trkpt lat="42.9049296" lon="11.8589253"><ele>595.0</ele><time>2026-04-09T10:24:47.43Z</time></trkpt><trkpt lat="42.9048561" lon="11.859015"><ele>595.0</ele><time>2026-04-09T10:24:48.427Z</time></trkpt><trkpt lat="42.9047776" lon="11.859127"><ele>595.0</ele><time>2026-04-09T10:24:49.44Z</time></trkpt><trkpt lat="42.904689" lon="11.85926"><ele>595.0</ele><time>2026-04-09T10:24:50.44Z</time></trkpt><trkpt lat="42.9045908" lon="11.8594114"><ele>595.0</ele><time>2026-04-09T10:24:51.427Z</time></trkpt><trkpt lat="42.9044822" lon="11.8595761"><ele>595.0</ele><time>2026-04-09T10:24:52.43Z</time></trkpt><trkpt lat="42.9043752" lon="11.8598038"><ele>595.0</ele><time>2026-04-09T10:24:53.431Z</time></trkpt><trkpt lat="42.904269" lon="11.8599853"><ele>595.0</ele><time>2026-04-09T10:24:54.46Z</time></trkpt><trkpt lat="42.9041717" lon="11.8601173"><ele>597.0</ele><time>2026-04-09T10:24:55.458Z</time></trkpt><trkpt lat="42.9040718" lon="11.8602648"><ele>599.0</ele><time>2026-04-09T10:24:56.456Z</time></trkpt><trkpt lat="42.9039573" lon="11.8603807"><ele>601.0</ele><time>2026-04-09T10:24:57.431Z</time></trkpt><trkpt lat="42.9038436" lon="11.8605061"><ele>603.0</ele><time>2026-04-09T10:24:58.432Z</time></trkpt><trkpt lat="42.9037713" lon="11.860601"><ele>603.0</ele><time>2026-04-09T10:24:59.437Z</time></trkpt><trkpt lat="42.9036718" lon="11.8606827"><ele>603.0</ele><time>2026-04-09T10:25:00.439Z</time></trkpt><trkpt lat="42.9036043" lon="11.8607658"><ele>603.0</ele><time>2026-04-09T10:25:01.428Z</time></trkpt><trkpt lat="42.9035286" lon="11.8608796"><ele>603.0</ele><time>2026-04-09T10:25:02.445Z</time></trkpt><trkpt lat="42.9034696" lon="11.8609787"><ele>603.0</ele><time>2026-04-09T10:25:03.44Z</time></trkpt><trkpt lat="42.9034251" lon="11.8610768"><ele>603.6666666666666</ele><time>2026-04-09T10:25:04.433Z</time></trkpt><trkpt lat="42.9033815" lon="11.8611728"><ele>604.3333333333334</ele><time>2026-04-09T10:25:05.437Z</time></trkpt><trkpt lat="42.9033526" lon="11.8612813"><ele>605.0</ele><time>2026-04-09T10:25:06.436Z</time></trkpt><trkpt lat="42.9033242" lon="11.8614041"><ele>605.6666666666667</ele><time>2026-04-09T10:25:07.431Z</time></trkpt><trkpt lat="42.9032952" lon="11.8615237"><ele>606.3333333333334</ele><time>2026-04-09T10:25:08.435Z</time></trkpt><trkpt lat="42.9032592" lon="11.8616289"><ele>607.0</ele><time>2026-04-09T10:25:09.435Z</time></trkpt><trkpt lat="42.903217" lon="11.8617201"><ele>611.4</ele><time>2026-04-09T10:25:10.425Z</time></trkpt><trkpt lat="42.9031405" lon="11.8617955"><ele>615.8000000000001</ele><time>2026-04-09T10:25:11.43Z</time></trkpt><trkpt lat="42.9030398" lon="11.8618592"><ele>620.2</ele><time>2026-04-09T10:25:12.433Z</time></trkpt><trkpt lat="42.9029302" lon="11.8619167"><ele>624.6</ele><time>2026-04-09T10:25:13.425Z</time></trkpt><trkpt lat="42.9028157" lon="11.861967"><ele>629.0</ele><time>2026-04-09T10:25:14.433Z</time></trkpt><trkpt lat="42.9027124" lon="11.862029"><ele>629.0</ele><time>2026-04-09T10:25:15.441Z</time></trkpt><trkpt lat="42.9026156" lon="11.8620776"><ele>629.0</ele><time>2026-04-09T10:25:16.418Z</time></trkpt><trkpt lat="42.9025219" lon="11.8621057"><ele>629.0</ele><time>2026-04-09T10:25:17.438Z</time></trkpt><trkpt lat="42.9024252" lon="11.862104"><ele>629.0</ele><time>2026-04-09T10:25:18.431Z</time></trkpt><trkpt lat="42.9023167" lon="11.8620831"><ele>629.0</ele><time>2026-04-09T10:25:19.423Z</time></trkpt><trkpt lat="42.9021939" lon="11.862049"><ele>625.25</ele><time>2026-04-09T10:25:20.432Z</time></trkpt><trkpt lat="42.9020521" lon="11.8620321"><ele>621.5</ele><time>2026-04-09T10:25:21.439Z</time></trkpt><trkpt lat="42.9019007" lon="11.8620214"><ele>617.75</ele><time>2026-04-09T10:25:22.426Z</time></trkpt><trkpt lat="42.9017594" lon="11.8620065"><ele>614.0</ele><time>2026-04-09T10:25:23.442Z</time></trkpt><trkpt lat="42.9016041" lon="11.861983"><ele>612.3333333333333</ele><time>2026-04-09T10:25:24.432Z</time></trkpt><trkpt lat="42.9013865" lon="11.8619672"><ele>610.6666666666666</ele><time>2026-04-09T10:25:25.429Z</time></trkpt><trkpt lat="42.9011855" lon="11.861956"><ele>609.0</ele><time>2026-04-09T10:25:26.439Z</time></trkpt><trkpt lat="42.9009959" lon="11.8619107"><ele>606.3333333333334</ele><time>2026-04-09T10:25:27.435Z</time></trkpt><trkpt lat="42.9008024" lon="11.8618696"><ele>603.6666666666667</ele><time>2026-04-09T10:25:28.441Z</time></trkpt><trkpt lat="42.9006271" lon="11.8618734"><ele>601.0</ele><time>2026-04-09T10:25:29.441Z</time></trkpt><trkpt lat="42.9004405" lon="11.8618447"><ele>601.0</ele><time>2026-04-09T10:25:30.442Z</time></trkpt><trkpt lat="42.9002734" lon="11.8618095"><ele>601.0</ele><time>2026-04-09T10:25:31.437Z</time></trkpt><trkpt lat="42.9001012" lon="11.8617824"><ele>601.0</ele><time>2026-04-09T10:25:32.43Z</time></trkpt><trkpt lat="42.8999348" lon="11.8617808"><ele>600.0</ele><time>2026-04-09T10:25:33.439Z</time></trkpt><trkpt lat="42.8997799" lon="11.8617752"><ele>599.0</ele><time>2026-04-09T10:25:34.433Z</time></trkpt><trkpt lat="42.899619" lon="11.8617836"><ele>598.0</ele><time>2026-04-09T10:25:35.433Z</time></trkpt><trkpt lat="42.8994627" lon="11.8617851"><ele>593.3333333333334</ele><time>2026-04-09T10:25:36.44Z</time></trkpt><trkpt lat="42.8993165" lon="11.8617662"><ele>588.6666666666666</ele><time>2026-04-09T10:25:37.437Z</time></trkpt><trkpt lat="42.8991574" lon="11.8617149"><ele>584.0</ele><time>2026-04-09T10:25:38.436Z</time></trkpt><trkpt lat="42.8990083" lon="11.8617048"><ele>583.75</ele><time>2026-04-09T10:25:39.441Z</time></trkpt><trkpt lat="42.8988728" lon="11.8616695"><ele>583.5</ele><time>2026-04-09T10:25:40.444Z</time></trkpt><trkpt lat="42.8987559" lon="11.8616651"><ele>583.25</ele><time>2026-04-09T10:25:41.438Z</time></trkpt><trkpt lat="42.89863" lon="11.8616404"><ele>583.0</ele><time>2026-04-09T10:25:42.439Z</time></trkpt><trkpt lat="42.8985048" lon="11.8616115"><ele>581.5</ele><time>2026-04-09T10:25:43.446Z</time></trkpt><trkpt lat="42.8983749" lon="11.861599"><ele>580.0</ele><time>2026-04-09T10:25:44.435Z</time></trkpt><trkpt lat="42.8982539" lon="11.8615902"><ele>578.5</ele><time>2026-04-09T10:25:45.435Z</time></trkpt><trkpt lat="42.8981352" lon="11.8615848"><ele>577.0</ele><time>2026-04-09T10:25:46.446Z</time></trkpt><trkpt lat="42.8980224" lon="11.8615716"><ele>577.0</ele><time>2026-04-09T10:25:47.448Z</time></trkpt><trkpt lat="42.8979166" lon="11.8615522"><ele>577.0</ele><time>2026-04-09T10:25:48.434Z</time></trkpt><trkpt lat="42.8978216" lon="11.8615399"><ele>577.0</ele><time>2026-04-09T10:25:49.446Z</time></trkpt><trkpt lat="42.8977335" lon="11.8615225"><ele>577.0</ele><time>2026-04-09T10:25:50.44Z</time></trkpt><trkpt lat="42.8976544" lon="11.8615041"><ele>577.0</ele><time>2026-04-09T10:25:51.438Z</time></trkpt><trkpt lat="42.8975797" lon="11.8615051"><ele>577.0</ele><time>2026-04-09T10:25:52.441Z</time></trkpt><trkpt lat="42.8975026" lon="11.8615172"><ele>577.0</ele><time>2026-04-09T10:25:53.441Z</time></trkpt><trkpt lat="42.8974191" lon="11.8615537"><ele>577.0</ele><time>2026-04-09T10:25:54.436Z</time></trkpt><trkpt lat="42.8973264" lon="11.8616048"><ele>577.0</ele><time>2026-04-09T10:25:55.437Z</time></trkpt><trkpt lat="42.8972238" lon="11.8616782"><ele>577.0</ele><time>2026-04-09T10:25:56.44Z</time></trkpt><trkpt lat="42.8971233" lon="11.8617563"><ele>577.0</ele><time>2026-04-09T10:25:57.435Z</time></trkpt><trkpt lat="42.8970291" lon="11.8618304"><ele>577.0</ele><time>2026-04-09T10:25:58.442Z</time></trkpt><trkpt lat="42.8969449" lon="11.8618944"><ele>577.0</ele><time>2026-04-09T10:25:59.437Z</time></trkpt><trkpt lat="42.8968648" lon="11.8619747"><ele>577.0</ele><time>2026-04-09T10:26:00.434Z</time></trkpt><trkpt lat="42.8967898" lon="11.8620626"><ele>577.0</ele><time>2026-04-09T10:26:01.437Z</time></trkpt><trkpt lat="42.89672" lon="11.8621565"><ele>577.0</ele><time>2026-04-09T10:26:02.429Z</time></trkpt><trkpt lat="42.8966518" lon="11.8622575"><ele>576.0</ele><time>2026-04-09T10:26:03.432Z</time></trkpt><trkpt lat="42.8965923" lon="11.8623689"><ele>575.0</ele><time>2026-04-09T10:26:04.441Z</time></trkpt><trkpt lat="42.8965487" lon="11.8624761"><ele>574.0</ele><time>2026-04-09T10:26:05.432Z</time></trkpt><trkpt lat="42.8965008" lon="11.8625758"><ele>573.0</ele><time>2026-04-09T10:26:06.435Z</time></trkpt><trkpt lat="42.8964378" lon="11.8626858"><ele>572.0</ele><time>2026-04-09T10:26:07.436Z</time></trkpt><trkpt lat="42.8963682" lon="11.8627885"><ele>572.0</ele><time>2026-04-09T10:26:08.428Z</time></trkpt><trkpt lat="42.8962827" lon="11.8628978"><ele>572.0</ele><time>2026-04-09T10:26:09.44Z</time></trkpt><trkpt lat="42.8961844" lon="11.8629988"><ele>572.0</ele><time>2026-04-09T10:26:10.433Z</time></trkpt><trkpt lat="42.8960868" lon="11.8630888"><ele>572.0</ele><time>2026-04-09T10:26:11.43Z</time></trkpt><trkpt lat="42.8959944" lon="11.8631678"><ele>571.4</ele><time>2026-04-09T10:26:12.436Z</time></trkpt><trkpt lat="42.8959084" lon="11.8632395"><ele>570.8000000000001</ele><time>2026-04-09T10:26:13.434Z</time></trkpt><trkpt lat="42.8958347" lon="11.8633214"><ele>570.2</ele><time>2026-04-09T10:26:14.434Z</time></trkpt><trkpt lat="42.8957612" lon="11.863401"><ele>569.6</ele><time>2026-04-09T10:26:15.437Z</time></trkpt><trkpt lat="42.8956921" lon="11.8635056"><ele>569.0</ele><time>2026-04-09T10:26:16.437Z</time></trkpt><trkpt lat="42.8956296" lon="11.8636055"><ele>569.0</ele><time>2026-04-09T10:26:17.435Z</time></trkpt><trkpt lat="42.8955697" lon="11.8637055"><ele>569.0</ele><time>2026-04-09T10:26:18.429Z</time></trkpt><trkpt lat="42.8955101" lon="11.8637931"><ele>569.0</ele><time>2026-04-09T10:26:19.437Z</time></trkpt><trkpt lat="42.8954589" lon="11.8638677"><ele>569.0</ele><time>2026-04-09T10:26:20.437Z</time></trkpt><trkpt lat="42.8954164" lon="11.8639372"><ele>569.0</ele><time>2026-04-09T10:26:21.438Z</time></trkpt><trkpt lat="42.8953587" lon="11.8640676"><ele>569.0</ele><time>2026-04-09T10:26:23.439Z</time></trkpt><trkpt lat="42.8953435" lon="11.8641541"><ele>569.0</ele><time>2026-04-09T10:26:24.434Z</time></trkpt><trkpt lat="42.8953431" lon="11.8642615"><ele>569.0</ele><time>2026-04-09T10:26:25.434Z</time></trkpt><trkpt lat="42.8953445" lon="11.8643732"><ele>569.0</ele><time>2026-04-09T10:26:26.431Z</time></trkpt><trkpt lat="42.8953517" lon="11.8644685"><ele>569.0</ele><time>2026-04-09T10:26:27.434Z</time></trkpt><trkpt lat="42.895322" lon="11.8645531"><ele>569.0</ele><time>2026-04-09T10:26:28.43Z</time></trkpt><trkpt lat="42.8952677" lon="11.8646164"><ele>569.0</ele><time>2026-04-09T10:26:29.432Z</time></trkpt><trkpt lat="42.8951392" lon="11.864655"><ele>571.6</ele><time>2026-04-09T10:26:31.427Z</time></trkpt><trkpt lat="42.8950493" lon="11.8646291"><ele>574.2</ele><time>2026-04-09T10:26:32.424Z</time></trkpt><trkpt lat="42.8949562" lon="11.8645894"><ele>576.8000000000001</ele><time>2026-04-09T10:26:33.415Z</time></trkpt><trkpt lat="42.8948615" lon="11.864555"><ele>579.4</ele><time>2026-04-09T10:26:34.419Z</time></trkpt><trkpt lat="42.8947736" lon="11.8645275"><ele>582.0</ele><time>2026-04-09T10:26:35.422Z</time></trkpt><trkpt lat="42.8946778" lon="11.864517"><ele>582.0</ele><time>2026-04-09T10:26:36.428Z</time></trkpt><trkpt lat="42.8945897" lon="11.8645335"><ele>582.0</ele><time>2026-04-09T10:26:37.425Z</time></trkpt><trkpt lat="42.8944944" lon="11.86456"><ele>582.0</ele><time>2026-04-09T10:26:38.431Z</time></trkpt><trkpt lat="42.8944141" lon="11.8646247"><ele>582.0</ele><time>2026-04-09T10:26:39.432Z</time></trkpt><trkpt lat="42.8943267" lon="11.864711"><ele>582.0</ele><time>2026-04-09T10:26:40.43Z</time></trkpt><trkpt lat="42.8942415" lon="11.8648102"><ele>579.6</ele><time>2026-04-09T10:26:41.433Z</time></trkpt><trkpt lat="42.8941587" lon="11.8648984"><ele>577.2</ele><time>2026-04-09T10:26:42.432Z</time></trkpt><trkpt lat="42.8940685" lon="11.8649606"><ele>574.8</ele><time>2026-04-09T10:26:43.408Z</time></trkpt><trkpt lat="42.8939622" lon="11.8650054"><ele>572.4</ele><time>2026-04-09T10:26:44.44Z</time></trkpt><trkpt lat="42.8938492" lon="11.8650359"><ele>570.0</ele><time>2026-04-09T10:26:45.43Z</time></trkpt><trkpt lat="42.8937355" lon="11.865062"><ele>570.0</ele><time>2026-04-09T10:26:46.417Z</time></trkpt><trkpt lat="42.8936381" lon="11.8650695"><ele>570.0</ele><time>2026-04-09T10:26:47.438Z</time></trkpt><trkpt lat="42.8935392" lon="11.8650736"><ele>570.0</ele><time>2026-04-09T10:26:48.429Z</time></trkpt><trkpt lat="42.8934458" lon="11.8650927"><ele>570.0</ele><time>2026-04-09T10:26:49.422Z</time></trkpt><trkpt lat="42.8933362" lon="11.8650953"><ele>570.0</ele><time>2026-04-09T10:26:50.435Z</time></trkpt><trkpt lat="42.893223" lon="11.8651181"><ele>571.8</ele><time>2026-04-09T10:26:51.435Z</time></trkpt><trkpt lat="42.8931163" lon="11.8651448"><ele>573.6</ele><time>2026-04-09T10:26:52.425Z</time></trkpt><trkpt lat="42.8930048" lon="11.8651681"><ele>575.4</ele><time>2026-04-09T10:26:53.439Z</time></trkpt><trkpt lat="42.8929069" lon="11.8652166"><ele>577.2</ele><time>2026-04-09T10:26:54.438Z</time></trkpt><trkpt lat="42.8928298" lon="11.8653018"><ele>579.0</ele><time>2026-04-09T10:26:55.433Z</time></trkpt><trkpt lat="42.8927816" lon="11.8654156"><ele>579.0</ele><time>2026-04-09T10:26:56.437Z</time></trkpt><trkpt lat="42.8927355" lon="11.8655269"><ele>579.0</ele><time>2026-04-09T10:26:57.433Z</time></trkpt><trkpt lat="42.8927034" lon="11.8656497"><ele>579.0</ele><time>2026-04-09T10:26:58.442Z</time></trkpt><trkpt lat="42.8926945" lon="11.8657638"><ele>579.0</ele><time>2026-04-09T10:26:59.441Z</time></trkpt><trkpt lat="42.892709" lon="11.8658805"><ele>579.0</ele><time>2026-04-09T10:27:00.43Z</time></trkpt><trkpt lat="42.8927407" lon="11.8660181"><ele>582.6</ele><time>2026-04-09T10:27:01.439Z</time></trkpt><trkpt lat="42.8927898" lon="11.8661482"><ele>586.2</ele><time>2026-04-09T10:27:02.435Z</time></trkpt><trkpt lat="42.8928325" lon="11.8662758"><ele>589.8000000000001</ele><time>2026-04-09T10:27:03.46Z</time></trkpt><trkpt lat="42.8928689" lon="11.8664095"><ele>593.4</ele><time>2026-04-09T10:27:04.443Z</time></trkpt><trkpt lat="42.8929019" lon="11.8665285"><ele>597.0</ele><time>2026-04-09T10:27:05.455Z</time></trkpt><trkpt lat="42.8929125" lon="11.8666457"><ele>597.0</ele><time>2026-04-09T10:27:06.453Z</time></trkpt><trkpt lat="42.8929098" lon="11.8667483"><ele>597.0</ele><time>2026-04-09T10:27:07.453Z</time></trkpt><trkpt lat="42.8928841" lon="11.8668394"><ele>597.0</ele><time>2026-04-09T10:27:08.429Z</time></trkpt><trkpt lat="42.892838" lon="11.8669386"><ele>597.0</ele><time>2026-04-09T10:27:09.429Z</time></trkpt><trkpt lat="42.8927851" lon="11.8670293"><ele>597.0</ele><time>2026-04-09T10:27:10.426Z</time></trkpt><trkpt lat="42.8927028" lon="11.8670685"><ele>597.0</ele><time>2026-04-09T10:27:11.432Z</time></trkpt><trkpt lat="42.892628" lon="11.8671036"><ele>598.2</ele><time>2026-04-09T10:27:12.428Z</time></trkpt><trkpt lat="42.89253" lon="11.8670452"><ele>599.4000000000001</ele><time>2026-04-09T10:27:13.44Z</time></trkpt><trkpt lat="42.892433" lon="11.8669646"><ele>600.5999999999999</ele><time>2026-04-09T10:27:14.44Z</time></trkpt><trkpt lat="42.8923446" lon="11.8668645"><ele>601.8</ele><time>2026-04-09T10:27:15.43Z</time></trkpt><trkpt lat="42.8922671" lon="11.866791"><ele>603.0</ele><time>2026-04-09T10:27:16.436Z</time></trkpt><trkpt lat="42.8921982" lon="11.8667542"><ele>603.0</ele><time>2026-04-09T10:27:17.446Z</time></trkpt><trkpt lat="42.8921277" lon="11.8667534"><ele>603.0</ele><time>2026-04-09T10:27:18.437Z</time></trkpt><trkpt lat="42.892051" lon="11.8667839"><ele>603.0</ele><time>2026-04-09T10:27:19.446Z</time></trkpt><trkpt lat="42.8919354" lon="11.8668535"><ele>603.0</ele><time>2026-04-09T10:27:20.433Z</time></trkpt><trkpt lat="42.8917994" lon="11.8669472"><ele>603.0</ele><time>2026-04-09T10:27:21.437Z</time></trkpt><trkpt lat="42.8916717" lon="11.8670459"><ele>602.25</ele><time>2026-04-09T10:27:22.437Z</time></trkpt><trkpt lat="42.8915517" lon="11.8671304"><ele>601.5</ele><time>2026-04-09T10:27:23.436Z</time></trkpt><trkpt lat="42.891438" lon="11.8672101"><ele>600.75</ele><time>2026-04-09T10:27:24.441Z</time></trkpt><trkpt lat="42.8913332" lon="11.867302"><ele>600.0</ele><time>2026-04-09T10:27:25.441Z</time></trkpt><trkpt lat="42.8912393" lon="11.8673905"><ele>600.0</ele><time>2026-04-09T10:27:26.437Z</time></trkpt><trkpt lat="42.891136" lon="11.8674558"><ele>600.0</ele><time>2026-04-09T10:27:27.441Z</time></trkpt><trkpt lat="42.8910223" lon="11.8674946"><ele>600.0</ele><time>2026-04-09T10:27:28.437Z</time></trkpt><trkpt lat="42.8909095" lon="11.8675277"><ele>600.0</ele><time>2026-04-09T10:27:29.447Z</time></trkpt><trkpt lat="42.8908035" lon="11.867519"><ele>600.0</ele><time>2026-04-09T10:27:30.442Z</time></trkpt><trkpt lat="42.8907083" lon="11.8674703"><ele>600.0</ele><time>2026-04-09T10:27:31.433Z</time></trkpt><trkpt lat="42.8905971" lon="11.8674226"><ele>600.0</ele><time>2026-04-09T10:27:32.436Z</time></trkpt><trkpt lat="42.8904696" lon="11.867372"><ele>600.0</ele><time>2026-04-09T10:27:33.446Z</time></trkpt><trkpt lat="42.8903443" lon="11.8673308"><ele>600.0</ele><time>2026-04-09T10:27:34.436Z</time></trkpt><trkpt lat="42.8902189" lon="11.8672907"><ele>600.0</ele><time>2026-04-09T10:27:35.445Z</time></trkpt><trkpt lat="42.8901074" lon="11.8672856"><ele>600.0</ele><time>2026-04-09T10:27:36.441Z</time></trkpt><trkpt lat="42.8899967" lon="11.8673"><ele>600.0</ele><time>2026-04-09T10:27:37.437Z</time></trkpt><trkpt lat="42.8898835" lon="11.867329"><ele>601.5</ele><time>2026-04-09T10:27:38.443Z</time></trkpt><trkpt lat="42.8897644" lon="11.8673611"><ele>603.0</ele><time>2026-04-09T10:27:39.44Z</time></trkpt><trkpt lat="42.8896644" lon="11.8674196"><ele>604.5</ele><time>2026-04-09T10:27:40.449Z</time></trkpt><trkpt lat="42.8895742" lon="11.8675138"><ele>606.0</ele><time>2026-04-09T10:27:41.447Z</time></trkpt><trkpt lat="42.8894899" lon="11.8676092"><ele>606.75</ele><time>2026-04-09T10:27:42.45Z</time></trkpt><trkpt lat="42.8893841" lon="11.8677146"><ele>607.5</ele><time>2026-04-09T10:27:43.45Z</time></trkpt><trkpt lat="42.8892657" lon="11.8678213"><ele>608.25</ele><time>2026-04-09T10:27:44.452Z</time></trkpt><trkpt lat="42.8891419" lon="11.8679204"><ele>609.0</ele><time>2026-04-09T10:27:45.448Z</time></trkpt><trkpt lat="42.8890912" lon="11.8679981"><ele>609.0</ele><time>2026-04-09T10:27:46.447Z</time></trkpt><trkpt lat="42.8889934" lon="11.8680598"><ele>609.0</ele><time>2026-04-09T10:27:47.446Z</time></trkpt><trkpt lat="42.888924" lon="11.8681326"><ele>609.0</ele><time>2026-04-09T10:27:49.444Z</time></trkpt><trkpt lat="42.8888829" lon="11.868228"><ele>609.0</ele><time>2026-04-09T10:27:50.448Z</time></trkpt><trkpt lat="42.8889045" lon="11.868334"><ele>609.0</ele><time>2026-04-09T10:27:51.435Z</time></trkpt><trkpt lat="42.8888938" lon="11.8684514"><ele>609.0</ele><time>2026-04-09T10:27:52.448Z</time></trkpt><trkpt lat="42.8888776" lon="11.8685768"><ele>610.0</ele><time>2026-04-09T10:27:53.441Z</time></trkpt><trkpt lat="42.8888588" lon="11.8687213"><ele>611.0</ele><time>2026-04-09T10:27:54.438Z</time></trkpt><trkpt lat="42.8888222" lon="11.8688602"><ele>612.0</ele><time>2026-04-09T10:27:55.446Z</time></trkpt><trkpt lat="42.8887737" lon="11.8690012"><ele>613.0</ele><time>2026-04-09T10:27:56.441Z</time></trkpt><trkpt lat="42.8887327" lon="11.869142"><ele>614.0</ele><time>2026-04-09T10:27:57.443Z</time></trkpt><trkpt lat="42.888678" lon="11.8692464"><ele>614.8</ele><time>2026-04-09T10:27:58.446Z</time></trkpt><trkpt lat="42.8886074" lon="11.8693594"><ele>615.5999999999999</ele><time>2026-04-09T10:27:59.446Z</time></trkpt><trkpt lat="42.8885235" lon="11.869464"><ele>616.4</ele><time>2026-04-09T10:28:00.447Z</time></trkpt><trkpt lat="42.8884455" lon="11.8695787"><ele>617.1999999999999</ele><time>2026-04-09T10:28:01.445Z</time></trkpt><trkpt lat="42.8883658" lon="11.8696796"><ele>618.0</ele><time>2026-04-09T10:28:02.449Z</time></trkpt><trkpt lat="42.8882791" lon="11.8697866"><ele>618.0</ele><time>2026-04-09T10:28:03.435Z</time></trkpt><trkpt lat="42.888176" lon="11.869866"><ele>618.0</ele><time>2026-04-09T10:28:04.444Z</time></trkpt><trkpt lat="42.8880617" lon="11.869948"><ele>618.0</ele><time>2026-04-09T10:28:05.442Z</time></trkpt><trkpt lat="42.8879378" lon="11.8700201"><ele>618.0</ele><time>2026-04-09T10:28:06.432Z</time></trkpt><trkpt lat="42.8878083" lon="11.8701229"><ele>621.6666666666666</ele><time>2026-04-09T10:28:07.431Z</time></trkpt><trkpt lat="42.8876601" lon="11.8702294"><ele>625.3333333333333</ele><time>2026-04-09T10:28:08.448Z</time></trkpt><trkpt lat="42.8874883" lon="11.8703381"><ele>629.0</ele><time>2026-04-09T10:28:09.437Z</time></trkpt><trkpt lat="42.8873227" lon="11.8703961"><ele>629.0</ele><time>2026-04-09T10:28:10.44Z</time></trkpt><trkpt lat="42.8871628" lon="11.8704482"><ele>629.0</ele><time>2026-04-09T10:28:11.442Z</time></trkpt><trkpt lat="42.8870515" lon="11.8705015"><ele>629.0</ele><time>2026-04-09T10:28:12.439Z</time></trkpt><trkpt lat="42.8869148" lon="11.870568"><ele>629.0</ele><time>2026-04-09T10:28:13.43Z</time></trkpt><trkpt lat="42.8867809" lon="11.8706361"><ele>628.0</ele><time>2026-04-09T10:28:14.442Z</time></trkpt><trkpt lat="42.8866701" lon="11.8707289"><ele>627.0</ele><time>2026-04-09T10:28:15.437Z</time></trkpt><trkpt lat="42.8865589" lon="11.870825"><ele>626.0</ele><time>2026-04-09T10:28:16.438Z</time></trkpt><trkpt lat="42.8864663" lon="11.8709452"><ele>625.0</ele><time>2026-04-09T10:28:17.448Z</time></trkpt><trkpt lat="42.8863834" lon="11.8710859"><ele>625.0</ele><time>2026-04-09T10:28:18.441Z</time></trkpt><trkpt lat="42.886309" lon="11.8712442"><ele>625.0</ele><time>2026-04-09T10:28:19.439Z</time></trkpt><trkpt lat="42.8862426" lon="11.8714028"><ele>625.0</ele><time>2026-04-09T10:28:20.441Z</time></trkpt><trkpt lat="42.8861981" lon="11.8715506"><ele>625.0</ele><time>2026-04-09T10:28:21.44Z</time></trkpt><trkpt lat="42.8861632" lon="11.8716901"><ele>626.0</ele><time>2026-04-09T10:28:22.442Z</time></trkpt><trkpt lat="42.8861548" lon="11.8718249"><ele>627.0</ele><time>2026-04-09T10:28:23.445Z</time></trkpt><trkpt lat="42.8861298" lon="11.8719307"><ele>628.0</ele><time>2026-04-09T10:28:24.435Z</time></trkpt><trkpt lat="42.8861009" lon="11.8720084"><ele>629.0</ele><time>2026-04-09T10:28:25.442Z</time></trkpt><trkpt lat="42.8860018" lon="11.8720635"><ele>630.0</ele><time>2026-04-09T10:28:27.436Z</time></trkpt><trkpt lat="42.8859334" lon="11.8720445"><ele>631.0</ele><time>2026-04-09T10:28:28.439Z</time></trkpt><trkpt lat="42.8858498" lon="11.872015"><ele>631.0</ele><time>2026-04-09T10:28:29.44Z</time></trkpt><trkpt lat="42.8857473" lon="11.8720072"><ele>631.0</ele><time>2026-04-09T10:28:30.435Z</time></trkpt><trkpt lat="42.8856346" lon="11.8719976"><ele>631.0</ele><time>2026-04-09T10:28:31.452Z</time></trkpt><trkpt lat="42.8855123" lon="11.8720219"><ele>631.0</ele><time>2026-04-09T10:28:32.438Z</time></trkpt><trkpt lat="42.8854036" lon="11.8720432"><ele>631.0</ele><time>2026-04-09T10:28:33.43Z</time></trkpt><trkpt lat="42.885281" lon="11.872089"><ele>631.0</ele><time>2026-04-09T10:28:34.438Z</time></trkpt><trkpt lat="42.8851583" lon="11.8721374"><ele>631.0</ele><time>2026-04-09T10:28:35.439Z</time></trkpt><trkpt lat="42.8850434" lon="11.8721663"><ele>631.0</ele><time>2026-04-09T10:28:36.436Z</time></trkpt><trkpt lat="42.8849321" lon="11.8721921"><ele>631.0</ele><time>2026-04-09T10:28:37.442Z</time></trkpt><trkpt lat="42.8848255" lon="11.8722477"><ele>630.8</ele><time>2026-04-09T10:28:38.44Z</time></trkpt><trkpt lat="42.8847198" lon="11.8722855"><ele>630.6</ele><time>2026-04-09T10:28:39.432Z</time></trkpt><trkpt lat="42.8846418" lon="11.8723594"><ele>630.4</ele><time>2026-04-09T10:28:40.435Z</time></trkpt><trkpt lat="42.8845848" lon="11.872466"><ele>630.2</ele><time>2026-04-09T10:28:41.431Z</time></trkpt><trkpt lat="42.8845276" lon="11.8725709"><ele>630.0</ele><time>2026-04-09T10:28:42.436Z</time></trkpt><trkpt lat="42.8844817" lon="11.8726937"><ele>630.6</ele><time>2026-04-09T10:28:43.435Z</time></trkpt><trkpt lat="42.8844352" lon="11.8728028"><ele>631.2</ele><time>2026-04-09T10:28:44.429Z</time></trkpt><trkpt lat="42.884358" lon="11.8728577"><ele>631.8</ele><time>2026-04-09T10:28:45.433Z</time></trkpt><trkpt lat="42.8842834" lon="11.8728872"><ele>632.4</ele><time>2026-04-09T10:28:46.428Z</time></trkpt><trkpt lat="42.8841934" lon="11.8729012"><ele>633.0</ele><time>2026-04-09T10:28:47.437Z</time></trkpt><trkpt lat="42.8840737" lon="11.8729184"><ele>633.0</ele><time>2026-04-09T10:28:48.443Z</time></trkpt><trkpt lat="42.8839518" lon="11.8729215"><ele>633.0</ele><time>2026-04-09T10:28:49.443Z</time></trkpt><trkpt lat="42.8838374" lon="11.8729289"><ele>633.0</ele><time>2026-04-09T10:28:50.466Z</time></trkpt><trkpt lat="42.883733" lon="11.8729382"><ele>633.0</ele><time>2026-04-09T10:28:51.446Z</time></trkpt><trkpt lat="42.8836279" lon="11.8729896"><ele>633.0</ele><time>2026-04-09T10:28:52.44Z</time></trkpt><trkpt lat="42.8835317" lon="11.873084"><ele>633.0</ele><time>2026-04-09T10:28:53.44Z</time></trkpt><trkpt lat="42.8834359" lon="11.8731795"><ele>633.0</ele><time>2026-04-09T10:28:54.465Z</time></trkpt><trkpt lat="42.8833643" lon="11.8732857"><ele>633.0</ele><time>2026-04-09T10:28:55.444Z</time></trkpt><trkpt lat="42.8832834" lon="11.8733811"><ele>633.6</ele><time>2026-04-09T10:28:56.441Z</time></trkpt><trkpt lat="42.8832119" lon="11.8734471"><ele>634.1999999999999</ele><time>2026-04-09T10:28:57.445Z</time></trkpt><trkpt lat="42.8831389" lon="11.8734953"><ele>634.8</ele><time>2026-04-09T10:28:58.446Z</time></trkpt><trkpt lat="42.8830661" lon="11.873541"><ele>635.4</ele><time>2026-04-09T10:28:59.441Z</time></trkpt><trkpt lat="42.8829676" lon="11.8735358"><ele>636.0</ele><time>2026-04-09T10:29:00.446Z</time></trkpt><trkpt lat="42.8828633" lon="11.8734974"><ele>636.0</ele><time>2026-04-09T10:29:01.444Z</time></trkpt><trkpt lat="42.8827433" lon="11.8734577"><ele>636.0</ele><time>2026-04-09T10:29:02.464Z</time></trkpt><trkpt lat="42.8826096" lon="11.8734433"><ele>636.0</ele><time>2026-04-09T10:29:03.464Z</time></trkpt><trkpt lat="42.8824438" lon="11.8734746"><ele>636.0</ele><time>2026-04-09T10:29:04.446Z</time></trkpt><trkpt lat="42.8822546" lon="11.8735118"><ele>636.3333333333334</ele><time>2026-04-09T10:29:05.443Z</time></trkpt><trkpt lat="42.882059" lon="11.8735481"><ele>636.6666666666667</ele><time>2026-04-09T10:29:06.469Z</time></trkpt><trkpt lat="42.8818553" lon="11.8735777"><ele>637.0</ele><time>2026-04-09T10:29:07.461Z</time></trkpt><trkpt lat="42.8816779" lon="11.8736081"><ele>637.5</ele><time>2026-04-09T10:29:08.471Z</time></trkpt><trkpt lat="42.881538" lon="11.8736594"><ele>638.0</ele><time>2026-04-09T10:29:09.469Z</time></trkpt><trkpt lat="42.8813882" lon="11.8736481"><ele>638.5</ele><time>2026-04-09T10:29:10.456Z</time></trkpt><trkpt lat="42.8812524" lon="11.8736751"><ele>639.0</ele><time>2026-04-09T10:29:11.461Z</time></trkpt><trkpt lat="42.8811212" lon="11.8737049"><ele>639.0</ele><time>2026-04-09T10:29:12.448Z</time></trkpt><trkpt lat="42.8810161" lon="11.8737454"><ele>639.0</ele><time>2026-04-09T10:29:13.439Z</time></trkpt><trkpt lat="42.880889" lon="11.873811"><ele>639.0</ele><time>2026-04-09T10:29:14.444Z</time></trkpt><trkpt lat="42.8807532" lon="11.8739126"><ele>639.0</ele><time>2026-04-09T10:29:15.44Z</time></trkpt><trkpt lat="42.8806696" lon="11.8740038"><ele>637.0</ele><time>2026-04-09T10:29:16.437Z</time></trkpt><trkpt lat="42.8805803" lon="11.8741176"><ele>635.0</ele><time>2026-04-09T10:29:17.441Z</time></trkpt><trkpt lat="42.880505" lon="11.8742001"><ele>633.0</ele><time>2026-04-09T10:29:18.447Z</time></trkpt><trkpt lat="42.8804368" lon="11.8742697"><ele>631.0</ele><time>2026-04-09T10:29:19.431Z</time></trkpt><trkpt lat="42.8803262" lon="11.8742471"><ele>629.0</ele><time>2026-04-09T10:29:21.437Z</time></trkpt><trkpt lat="42.8802368" lon="11.8741173"><ele>629.0</ele><time>2026-04-09T10:29:23.444Z</time></trkpt><trkpt lat="42.8801703" lon="11.874025"><ele>629.0</ele><time>2026-04-09T10:29:24.466Z</time></trkpt><trkpt lat="42.8801197" lon="11.8739124"><ele>629.0</ele><time>2026-04-09T10:29:25.443Z</time></trkpt><trkpt lat="42.880069" lon="11.8738047"><ele>629.0</ele><time>2026-04-09T10:29:26.464Z</time></trkpt><trkpt lat="42.880014" lon="11.8736905"><ele>629.0</ele><time>2026-04-09T10:29:27.463Z</time></trkpt><trkpt lat="42.8799509" lon="11.8736015"><ele>628.25</ele><time>2026-04-09T10:29:28.465Z</time></trkpt><trkpt lat="42.8798621" lon="11.8735133"><ele>627.5</ele><time>2026-04-09T10:29:29.449Z</time></trkpt><trkpt lat="42.8797498" lon="11.8734772"><ele>626.75</ele><time>2026-04-09T10:29:30.467Z</time></trkpt><trkpt lat="42.879629" lon="11.8734692"><ele>626.0</ele><time>2026-04-09T10:29:31.442Z</time></trkpt><trkpt lat="42.8795117" lon="11.8734754"><ele>626.0</ele><time>2026-04-09T10:29:32.441Z</time></trkpt><trkpt lat="42.8793786" lon="11.8735054"><ele>626.0</ele><time>2026-04-09T10:29:33.451Z</time></trkpt><trkpt lat="42.8792418" lon="11.8735622"><ele>626.0</ele><time>2026-04-09T10:29:34.439Z</time></trkpt><trkpt lat="42.8790984" lon="11.873616"><ele>626.0</ele><time>2026-04-09T10:29:35.44Z</time></trkpt><trkpt lat="42.878941" lon="11.8736522"><ele>624.5</ele><time>2026-04-09T10:29:36.444Z</time></trkpt><trkpt lat="42.8787994" lon="11.8737091"><ele>623.0</ele><time>2026-04-09T10:29:37.445Z</time></trkpt><trkpt lat="42.8786701" lon="11.8737643"><ele>621.5</ele><time>2026-04-09T10:29:38.437Z</time></trkpt><trkpt lat="42.8785674" lon="11.8738676"><ele>620.0</ele><time>2026-04-09T10:29:39.444Z</time></trkpt><trkpt lat="42.8784895" lon="11.8740356"><ele>618.0</ele><time>2026-04-09T10:29:40.441Z</time></trkpt><trkpt lat="42.8783909" lon="11.8741656"><ele>616.0</ele><time>2026-04-09T10:29:41.445Z</time></trkpt><trkpt lat="42.8783129" lon="11.8742716"><ele>614.0</ele><time>2026-04-09T10:29:42.44Z</time></trkpt><trkpt lat="42.8782431" lon="11.8743778"><ele>612.0</ele><time>2026-04-09T10:29:43.44Z</time></trkpt><trkpt lat="42.8781927" lon="11.8744667"><ele>610.0</ele><time>2026-04-09T10:29:44.449Z</time></trkpt><trkpt lat="42.8781311" lon="11.8745718"><ele>610.0</ele><time>2026-04-09T10:29:46.454Z</time></trkpt><trkpt lat="42.8780705" lon="11.8746394"><ele>610.0</ele><time>2026-04-09T10:30:08.447Z</time></trkpt><trkpt lat="42.878021" lon="11.8746981"><ele>610.0</ele><time>2026-04-09T10:30:11.452Z</time></trkpt><trkpt lat="42.8779897" lon="11.8747738"><ele>610.0</ele><time>2026-04-09T10:30:14.438Z</time></trkpt><trkpt lat="42.8780579" lon="11.8748012"><ele>610.0</ele><time>2026-04-09T10:30:15.438Z</time></trkpt><trkpt lat="42.8782083" lon="11.8748189"><ele>610.0</ele><time>2026-04-09T10:30:16.438Z</time></trkpt><trkpt lat="42.8783827" lon="11.8748166"><ele>613.3333333333334</ele><time>2026-04-09T10:30:17.454Z</time></trkpt><trkpt lat="42.8785468" lon="11.8747544"><ele>616.6666666666666</ele><time>2026-04-09T10:30:18.434Z</time></trkpt><trkpt lat="42.87871" lon="11.8746656"><ele>620.0</ele><time>2026-04-09T10:30:19.458Z</time></trkpt><trkpt lat="42.8788722" lon="11.8745415"><ele>620.0</ele><time>2026-04-09T10:30:20.442Z</time></trkpt><trkpt lat="42.8790562" lon="11.8744435"><ele>620.0</ele><time>2026-04-09T10:30:21.446Z</time></trkpt><trkpt lat="42.8792626" lon="11.874344"><ele>620.0</ele><time>2026-04-09T10:30:22.438Z</time></trkpt><trkpt lat="42.8794627" lon="11.8743846"><ele>624.0</ele><time>2026-04-09T10:30:23.434Z</time></trkpt><trkpt lat="42.8796667" lon="11.8744275"><ele>628.0</ele><time>2026-04-09T10:30:24.431Z</time></trkpt><trkpt lat="42.8797979" lon="11.8745731"><ele>632.0</ele><time>2026-04-09T10:30:25.456Z</time></trkpt><trkpt lat="42.8799934" lon="11.8747109"><ele>635.3333333333333</ele><time>2026-04-09T10:30:26.439Z</time></trkpt><trkpt lat="42.8801696" lon="11.874916"><ele>638.6666666666666</ele><time>2026-04-09T10:30:27.458Z</time></trkpt><trkpt lat="42.88031" lon="11.8750814"><ele>642.0</ele><time>2026-04-09T10:30:28.435Z</time></trkpt><trkpt lat="42.880472" lon="11.8752859"><ele>646.3333333333334</ele><time>2026-04-09T10:30:29.45Z</time></trkpt><trkpt lat="42.8806375" lon="11.8753726"><ele>650.6666666666667</ele><time>2026-04-09T10:30:30.437Z</time></trkpt><trkpt lat="42.8807876" lon="11.8754213"><ele>655.0</ele><time>2026-04-09T10:30:31.452Z</time></trkpt><trkpt lat="42.8809774" lon="11.8753992"><ele>658.6666666666667</ele><time>2026-04-09T10:30:32.459Z</time></trkpt><trkpt lat="42.8811482" lon="11.8753078"><ele>662.3333333333334</ele><time>2026-04-09T10:30:33.438Z</time></trkpt><trkpt lat="42.8813089" lon="11.8752194"><ele>666.0</ele><time>2026-04-09T10:30:34.456Z</time></trkpt><trkpt lat="42.8814818" lon="11.8751668"><ele>666.0</ele><time>2026-04-09T10:30:35.426Z</time></trkpt><trkpt lat="42.8816195" lon="11.8751468"><ele>666.0</ele><time>2026-04-09T10:30:36.452Z</time></trkpt><trkpt lat="42.8817315" lon="11.8751569"><ele>666.0</ele><time>2026-04-09T10:30:37.455Z</time></trkpt><trkpt lat="42.8818369" lon="11.8751671"><ele>666.0</ele><time>2026-04-09T10:30:38.424Z</time></trkpt><trkpt lat="42.8819027" lon="11.8751874"><ele>666.0</ele><time>2026-04-09T10:30:39.428Z</time></trkpt><trkpt lat="42.88198" lon="11.8752191"><ele>665.1666666666666</ele><time>2026-04-09T10:30:40.424Z</time></trkpt><trkpt lat="42.8820522" lon="11.8752928"><ele>664.3333333333334</ele><time>2026-04-09T10:30:41.425Z</time></trkpt><trkpt lat="42.8821185" lon="11.875351"><ele>663.5</ele><time>2026-04-09T10:30:42.435Z</time></trkpt><trkpt lat="42.8821759" lon="11.8753955"><ele>662.6666666666667</ele><time>2026-04-09T10:30:43.426Z</time></trkpt><trkpt lat="42.8822576" lon="11.8754343"><ele>661.8333333333334</ele><time>2026-04-09T10:30:44.437Z</time></trkpt><trkpt lat="42.8823418" lon="11.875491"><ele>661.0</ele><time>2026-04-09T10:30:45.429Z</time></trkpt><trkpt lat="42.8824107" lon="11.8755694"><ele>661.0</ele><time>2026-04-09T10:30:46.429Z</time></trkpt><trkpt lat="42.8824523" lon="11.8756403"><ele>661.0</ele><time>2026-04-09T10:30:47.425Z</time></trkpt><trkpt lat="42.8824974" lon="11.8757072"><ele>661.0</ele><time>2026-04-09T10:30:48.428Z</time></trkpt><trkpt lat="42.8825616" lon="11.8757641"><ele>661.0</ele><time>2026-04-09T10:30:50.429Z</time></trkpt><trkpt lat="42.8825264" lon="11.875692"><ele>661.0</ele><time>2026-04-09T10:30:54.436Z</time></trkpt><trkpt lat="42.8824442" lon="11.8756101"><ele>661.0</ele><time>2026-04-09T10:30:56.436Z</time></trkpt><trkpt lat="42.8823668" lon="11.8755112"><ele>661.0</ele><time>2026-04-09T10:30:57.428Z</time></trkpt><trkpt lat="42.8822655" lon="11.8754114"><ele>661.0</ele><time>2026-04-09T10:30:58.431Z</time></trkpt><trkpt lat="42.8821142" lon="11.8753106"><ele>661.0</ele><time>2026-04-09T10:30:59.431Z</time></trkpt><trkpt lat="42.881937" lon="11.8752498"><ele>663.5</ele><time>2026-04-09T10:31:00.435Z</time></trkpt><trkpt lat="42.8816992" lon="11.875214"><ele>666.0</ele><time>2026-04-09T10:31:01.419Z</time></trkpt><trkpt lat="42.8814712" lon="11.8752232"><ele>666.0</ele><time>2026-04-09T10:31:02.42Z</time></trkpt><trkpt lat="42.881256" lon="11.875261"><ele>666.0</ele><time>2026-04-09T10:31:03.427Z</time></trkpt><trkpt lat="42.8810391" lon="11.8753126"><ele>666.0</ele><time>2026-04-09T10:31:04.43Z</time></trkpt><trkpt lat="42.8808858" lon="11.8753552"><ele>663.25</ele><time>2026-04-09T10:31:05.43Z</time></trkpt><trkpt lat="42.8807429" lon="11.8753601"><ele>660.5</ele><time>2026-04-09T10:31:06.428Z</time></trkpt><trkpt lat="42.8805945" lon="11.8753116"><ele>657.75</ele><time>2026-04-09T10:31:07.424Z</time></trkpt><trkpt lat="42.8804739" lon="11.8752717"><ele>655.0</ele><time>2026-04-09T10:31:08.423Z</time></trkpt><trkpt lat="42.88036" lon="11.8751873"><ele>651.75</ele><time>2026-04-09T10:31:09.425Z</time></trkpt><trkpt lat="42.880276" lon="11.8750943"><ele>648.5</ele><time>2026-04-09T10:31:10.426Z</time></trkpt><trkpt lat="42.8802048" lon="11.8749131"><ele>645.25</ele><time>2026-04-09T10:31:11.424Z</time></trkpt><trkpt lat="42.8801431" lon="11.8747788"><ele>642.0</ele><time>2026-04-09T10:31:12.43Z</time></trkpt><trkpt lat="42.8800816" lon="11.874655"><ele>640.0</ele><time>2026-04-09T10:31:13.452Z</time></trkpt><trkpt lat="42.8800099" lon="11.874547"><ele>638.0</ele><time>2026-04-09T10:31:14.448Z</time></trkpt><trkpt lat="42.8799251" lon="11.8744536"><ele>636.0</ele><time>2026-04-09T10:31:15.452Z</time></trkpt><trkpt lat="42.8798362" lon="11.8743861"><ele>634.0</ele><time>2026-04-09T10:31:16.456Z</time></trkpt><trkpt lat="42.8797376" lon="11.8743223"><ele>632.0</ele><time>2026-04-09T10:31:17.426Z</time></trkpt><trkpt lat="42.8796244" lon="11.8743046"><ele>632.0</ele><time>2026-04-09T10:31:18.435Z</time></trkpt><trkpt lat="42.8795039" lon="11.8743368"><ele>632.0</ele><time>2026-04-09T10:31:19.434Z</time></trkpt><trkpt lat="42.8793876" lon="11.8744118"><ele>632.0</ele><time>2026-04-09T10:31:20.43Z</time></trkpt><trkpt lat="42.8792727" lon="11.8745056"><ele>632.0</ele><time>2026-04-09T10:31:21.428Z</time></trkpt><trkpt lat="42.8791603" lon="11.874604"><ele>629.0</ele><time>2026-04-09T10:31:22.441Z</time></trkpt><trkpt lat="42.8790618" lon="11.8747081"><ele>626.0</ele><time>2026-04-09T10:31:23.432Z</time></trkpt><trkpt lat="42.8789498" lon="11.874779"><ele>623.0</ele><time>2026-04-09T10:31:24.439Z</time></trkpt><trkpt lat="42.8788306" lon="11.8748182"><ele>620.0</ele><time>2026-04-09T10:31:25.437Z</time></trkpt><trkpt lat="42.8787135" lon="11.8748301"><ele>620.0</ele><time>2026-04-09T10:31:26.427Z</time></trkpt><trkpt lat="42.8786058" lon="11.8748262"><ele>620.0</ele><time>2026-04-09T10:31:27.435Z</time></trkpt><trkpt lat="42.8785024" lon="11.874797"><ele>620.0</ele><time>2026-04-09T10:31:28.431Z</time></trkpt><trkpt lat="42.8783963" lon="11.8747533"><ele>620.0</ele><time>2026-04-09T10:31:29.437Z</time></trkpt><trkpt lat="42.8783055" lon="11.8747007"><ele>620.0</ele><time>2026-04-09T10:31:30.464Z</time></trkpt><trkpt lat="42.8781983" lon="11.8746536"><ele>618.0</ele><time>2026-04-09T10:31:31.428Z</time></trkpt><trkpt lat="42.8780963" lon="11.8746396"><ele>616.0</ele><time>2026-04-09T10:31:32.441Z</time></trkpt><trkpt lat="42.8779876" lon="11.8746449"><ele>614.0</ele><time>2026-04-09T10:31:33.438Z</time></trkpt><trkpt lat="42.8778971" lon="11.874665"><ele>612.0</ele><time>2026-04-09T10:31:34.434Z</time></trkpt><trkpt lat="42.8778214" lon="11.8747132"><ele>610.0</ele><time>2026-04-09T10:31:35.435Z</time></trkpt><trkpt lat="42.8777364" lon="11.8747802"><ele>610.0</ele><time>2026-04-09T10:31:37.433Z</time></trkpt><trkpt lat="42.87768" lon="11.8748514"><ele>610.0</ele><time>2026-04-09T10:31:39.44Z</time></trkpt><trkpt lat="42.8775978" lon="11.8749837"><ele>610.0</ele><time>2026-04-09T10:31:41.434Z</time></trkpt><trkpt lat="42.8775444" lon="11.8750894"><ele>610.0</ele><time>2026-04-09T10:31:42.433Z</time></trkpt><trkpt lat="42.8774804" lon="11.8752041"><ele>610.0</ele><time>2026-04-09T10:31:43.431Z</time></trkpt><trkpt lat="42.8774029" lon="11.8753121"><ele>608.0</ele><time>2026-04-09T10:31:44.435Z</time></trkpt><trkpt lat="42.8773196" lon="11.8754206"><ele>606.0</ele><time>2026-04-09T10:31:45.439Z</time></trkpt><trkpt lat="42.8772346" lon="11.8755327"><ele>604.0</ele><time>2026-04-09T10:31:46.437Z</time></trkpt><trkpt lat="42.8771588" lon="11.8756302"><ele>602.0</ele><time>2026-04-09T10:31:47.429Z</time></trkpt><trkpt lat="42.8770905" lon="11.8757062"><ele>600.0</ele><time>2026-04-09T10:31:48.432Z</time></trkpt><trkpt lat="42.8770722" lon="11.8758002"><ele>600.0</ele><time>2026-04-09T10:31:50.434Z</time></trkpt><trkpt lat="42.8771468" lon="11.8758603"><ele>600.0</ele><time>2026-04-09T10:31:52.437Z</time></trkpt><trkpt lat="42.8772887" lon="11.8758866"><ele>600.0</ele><time>2026-04-09T10:31:54.434Z</time></trkpt><trkpt lat="42.877379" lon="11.8758871"><ele>600.0</ele><time>2026-04-09T10:31:55.42Z</time></trkpt><trkpt lat="42.8774674" lon="11.8758916"><ele>600.0</ele><time>2026-04-09T10:31:56.432Z</time></trkpt><trkpt lat="42.8775672" lon="11.8759031"><ele>601.8</ele><time>2026-04-09T10:31:57.426Z</time></trkpt><trkpt lat="42.8776709" lon="11.8759229"><ele>603.6</ele><time>2026-04-09T10:31:58.421Z</time></trkpt><trkpt lat="42.8777746" lon="11.8759511"><ele>605.4</ele><time>2026-04-09T10:31:59.428Z</time></trkpt><trkpt lat="42.87787" lon="11.8759759"><ele>607.2</ele><time>2026-04-09T10:32:00.424Z</time></trkpt><trkpt lat="42.8779877" lon="11.8760262"><ele>609.0</ele><time>2026-04-09T10:32:01.434Z</time></trkpt><trkpt lat="42.8780934" lon="11.8761031"><ele>610.2</ele><time>2026-04-09T10:32:02.42Z</time></trkpt><trkpt lat="42.8782005" lon="11.8761934"><ele>611.4</ele><time>2026-04-09T10:32:03.435Z</time></trkpt><trkpt lat="42.8783034" lon="11.8762692"><ele>612.6</ele><time>2026-04-09T10:32:04.419Z</time></trkpt><trkpt lat="42.8783878" lon="11.8763422"><ele>613.8</ele><time>2026-04-09T10:32:05.42Z</time></trkpt><trkpt lat="42.8784556" lon="11.8764092"><ele>615.0</ele><time>2026-04-09T10:32:06.428Z</time></trkpt><trkpt lat="42.8785062" lon="11.8764895"><ele>615.8333333333334</ele><time>2026-04-09T10:32:07.423Z</time></trkpt><trkpt lat="42.8785632" lon="11.8765919"><ele>616.6666666666666</ele><time>2026-04-09T10:32:08.427Z</time></trkpt><trkpt lat="42.8786119" lon="11.8767117"><ele>617.5</ele><time>2026-04-09T10:32:09.425Z</time></trkpt><trkpt lat="42.8786521" lon="11.8768185"><ele>618.3333333333333</ele><time>2026-04-09T10:32:10.424Z</time></trkpt><trkpt lat="42.8786886" lon="11.8769191"><ele>619.1666666666666</ele><time>2026-04-09T10:32:11.433Z</time></trkpt><trkpt lat="42.8787366" lon="11.8770074"><ele>620.0</ele><time>2026-04-09T10:32:12.437Z</time></trkpt><trkpt lat="42.878789" lon="11.8770965"><ele>620.4</ele><time>2026-04-09T10:32:13.431Z</time></trkpt><trkpt lat="42.8788601" lon="11.8771778"><ele>620.8</ele><time>2026-04-09T10:32:14.433Z</time></trkpt><trkpt lat="42.8789307" lon="11.8772443"><ele>621.2</ele><time>2026-04-09T10:32:15.456Z</time></trkpt><trkpt lat="42.8790132" lon="11.877299"><ele>621.6</ele><time>2026-04-09T10:32:16.455Z</time></trkpt><trkpt lat="42.8791019" lon="11.8773379"><ele>622.0</ele><time>2026-04-09T10:32:17.432Z</time></trkpt><trkpt lat="42.8792016" lon="11.8773888"><ele>620.75</ele><time>2026-04-09T10:32:18.434Z</time></trkpt><trkpt lat="42.8793164" lon="11.8774664"><ele>619.5</ele><time>2026-04-09T10:32:19.437Z</time></trkpt><trkpt lat="42.8794399" lon="11.8775506"><ele>618.25</ele><time>2026-04-09T10:32:20.455Z</time></trkpt><trkpt lat="42.879569" lon="11.8776558"><ele>617.0</ele><time>2026-04-09T10:32:21.455Z</time></trkpt><trkpt lat="42.8796797" lon="11.8777277"><ele>617.0</ele><time>2026-04-09T10:32:22.438Z</time></trkpt><trkpt lat="42.8797874" lon="11.8778024"><ele>617.0</ele><time>2026-04-09T10:32:23.435Z</time></trkpt><trkpt lat="42.879875" lon="11.8778674"><ele>617.0</ele><time>2026-04-09T10:32:24.436Z</time></trkpt><trkpt lat="42.879959" lon="11.8779382"><ele>617.0</ele><time>2026-04-09T10:32:25.433Z</time></trkpt><trkpt lat="42.8800486" lon="11.8780037"><ele>617.0</ele><time>2026-04-09T10:32:26.435Z</time></trkpt><trkpt lat="42.8801399" lon="11.8780463"><ele>619.75</ele><time>2026-04-09T10:32:27.434Z</time></trkpt><trkpt lat="42.8802446" lon="11.878074"><ele>622.5</ele><time>2026-04-09T10:32:28.435Z</time></trkpt><trkpt lat="42.8803703" lon="11.8780915"><ele>625.25</ele><time>2026-04-09T10:32:29.441Z</time></trkpt><trkpt lat="42.880505" lon="11.8781166"><ele>628.0</ele><time>2026-04-09T10:32:30.437Z</time></trkpt><trkpt lat="42.8806276" lon="11.878142"><ele>628.0</ele><time>2026-04-09T10:32:31.433Z</time></trkpt><trkpt lat="42.8807429" lon="11.8781671"><ele>628.0</ele><time>2026-04-09T10:32:32.429Z</time></trkpt><trkpt lat="42.8808329" lon="11.8781852"><ele>628.0</ele><time>2026-04-09T10:32:33.427Z</time></trkpt><trkpt lat="42.8809131" lon="11.8782186"><ele>628.0</ele><time>2026-04-09T10:32:34.431Z</time></trkpt><trkpt lat="42.880995" lon="11.8782797"><ele>628.0</ele><time>2026-04-09T10:32:35.429Z</time></trkpt><trkpt lat="42.8810693" lon="11.8783506"><ele>628.0</ele><time>2026-04-09T10:32:36.428Z</time></trkpt><trkpt lat="42.8811336" lon="11.8784153"><ele>628.0</ele><time>2026-04-09T10:32:37.435Z</time></trkpt><trkpt lat="42.8811977" lon="11.8784833"><ele>628.0</ele><time>2026-04-09T10:32:38.431Z</time></trkpt><trkpt lat="42.8812577" lon="11.8785442"><ele>628.0</ele><time>2026-04-09T10:32:39.436Z</time></trkpt><trkpt lat="42.8813585" lon="11.8785841"><ele>628.0</ele><time>2026-04-09T10:32:41.432Z</time></trkpt><trkpt lat="42.8814296" lon="11.8785797"><ele>628.0</ele><time>2026-04-09T10:32:42.458Z</time></trkpt><trkpt lat="42.8815051" lon="11.8785762"><ele>624.6</ele><time>2026-04-09T10:32:43.428Z</time></trkpt><trkpt lat="42.8815818" lon="11.8785662"><ele>621.1999999999999</ele><time>2026-04-09T10:32:44.438Z</time></trkpt><trkpt lat="42.8816679" lon="11.8785507"><ele>617.8</ele><time>2026-04-09T10:32:45.433Z</time></trkpt><trkpt lat="42.881754" lon="11.8785122"><ele>614.4</ele><time>2026-04-09T10:32:46.449Z</time></trkpt><trkpt lat="42.8818516" lon="11.8784574"><ele>611.0</ele><time>2026-04-09T10:32:47.45Z</time></trkpt><trkpt lat="42.8819611" lon="11.8784348"><ele>613.75</ele><time>2026-04-09T10:32:48.46Z</time></trkpt><trkpt lat="42.882068" lon="11.8784245"><ele>616.5</ele><time>2026-04-09T10:32:49.426Z</time></trkpt><trkpt lat="42.882184" lon="11.8784119"><ele>619.25</ele><time>2026-04-09T10:32:50.43Z</time></trkpt><trkpt lat="42.8822997" lon="11.8783758"><ele>622.0</ele><time>2026-04-09T10:32:51.452Z</time></trkpt><trkpt lat="42.8824184" lon="11.8783463"><ele>622.0</ele><time>2026-04-09T10:32:52.453Z</time></trkpt><trkpt lat="42.8825467" lon="11.8783177"><ele>622.0</ele><time>2026-04-09T10:32:53.449Z</time></trkpt><trkpt lat="42.8826572" lon="11.8782885"><ele>622.0</ele><time>2026-04-09T10:32:54.455Z</time></trkpt><trkpt lat="42.8827574" lon="11.8782745"><ele>622.0</ele><time>2026-04-09T10:32:55.428Z</time></trkpt><trkpt lat="42.8828619" lon="11.8782728"><ele>622.0</ele><time>2026-04-09T10:32:56.432Z</time></trkpt><trkpt lat="42.8829669" lon="11.8782819"><ele>623.0</ele><time>2026-04-09T10:32:57.435Z</time></trkpt><trkpt lat="42.8830576" lon="11.8783077"><ele>624.0</ele><time>2026-04-09T10:32:58.447Z</time></trkpt><trkpt lat="42.8831285" lon="11.8783718"><ele>625.0</ele><time>2026-04-09T10:32:59.432Z</time></trkpt><trkpt lat="42.8831874" lon="11.8784527"><ele>626.0</ele><time>2026-04-09T10:33:00.443Z</time></trkpt><trkpt lat="42.8832445" lon="11.8785452"><ele>627.0</ele><time>2026-04-09T10:33:01.422Z</time></trkpt><trkpt lat="42.8832873" lon="11.8786556"><ele>628.0</ele><time>2026-04-09T10:33:02.434Z</time></trkpt><trkpt lat="42.8833003" lon="11.8787906"><ele>627.6</ele><time>2026-04-09T10:33:03.441Z</time></trkpt><trkpt lat="42.8833017" lon="11.878903"><ele>627.1999999999999</ele><time>2026-04-09T10:33:04.422Z</time></trkpt><trkpt lat="42.8833127" lon="11.8790079"><ele>626.8</ele><time>2026-04-09T10:33:05.429Z</time></trkpt><trkpt lat="42.8833324" lon="11.8791409"><ele>626.4</ele><time>2026-04-09T10:33:07.423Z</time></trkpt><trkpt lat="42.8834427" lon="11.8792025"><ele>626.0</ele><time>2026-04-09T10:33:09.43Z</time></trkpt><trkpt lat="42.8835348" lon="11.8792188"><ele>626.0</ele><time>2026-04-09T10:33:10.427Z</time></trkpt><trkpt lat="42.8836305" lon="11.8792356"><ele>626.0</ele><time>2026-04-09T10:33:11.43Z</time></trkpt><trkpt lat="42.8837419" lon="11.8792588"><ele>626.0</ele><time>2026-04-09T10:33:12.433Z</time></trkpt><trkpt lat="42.8838601" lon="11.8792661"><ele>626.0</ele><time>2026-04-09T10:33:13.433Z</time></trkpt><trkpt lat="42.8839836" lon="11.8792832"><ele>628.0</ele><time>2026-04-09T10:33:14.427Z</time></trkpt><trkpt lat="42.8841312" lon="11.8792736"><ele>630.0</ele><time>2026-04-09T10:33:15.428Z</time></trkpt><trkpt lat="42.8842728" lon="11.8792462"><ele>632.0</ele><time>2026-04-09T10:33:16.429Z</time></trkpt><trkpt lat="42.8844278" lon="11.8791837"><ele>632.0</ele><time>2026-04-09T10:33:17.434Z</time></trkpt><trkpt lat="42.8845973" lon="11.8791497"><ele>632.0</ele><time>2026-04-09T10:33:18.429Z</time></trkpt><trkpt lat="42.8847324" lon="11.8791686"><ele>632.0</ele><time>2026-04-09T10:33:19.431Z</time></trkpt><trkpt lat="42.8848104" lon="11.8791785"><ele>632.0</ele><time>2026-04-09T10:33:20.425Z</time></trkpt><trkpt lat="42.8849285" lon="11.8791992"><ele>632.0</ele><time>2026-04-09T10:33:21.432Z</time></trkpt><trkpt lat="42.8850685" lon="11.8792378"><ele>632.0</ele><time>2026-04-09T10:33:22.434Z</time></trkpt><trkpt lat="42.8851688" lon="11.8792328"><ele>632.0</ele><time>2026-04-09T10:33:23.431Z</time></trkpt><trkpt lat="42.8852783" lon="11.8792561"><ele>632.0</ele><time>2026-04-09T10:33:24.43Z</time></trkpt><trkpt lat="42.8853755" lon="11.8792779"><ele>631.8333333333333</ele><time>2026-04-09T10:33:25.43Z</time></trkpt><trkpt lat="42.8854673" lon="11.8792893"><ele>631.6666666666666</ele><time>2026-04-09T10:33:26.431Z</time></trkpt><trkpt lat="42.885553" lon="11.879275"><ele>631.5</ele><time>2026-04-09T10:33:27.43Z</time></trkpt><trkpt lat="42.885633" lon="11.8792391"><ele>631.3333333333334</ele><time>2026-04-09T10:33:28.429Z</time></trkpt><trkpt lat="42.8857055" lon="11.8791999"><ele>631.1666666666667</ele><time>2026-04-09T10:33:29.437Z</time></trkpt><trkpt lat="42.8857751" lon="11.8791251"><ele>631.0</ele><time>2026-04-09T10:33:30.429Z</time></trkpt><trkpt lat="42.885848" lon="11.8790513"><ele>631.0</ele><time>2026-04-09T10:33:31.442Z</time></trkpt><trkpt lat="42.8859202" lon="11.878991"><ele>631.0</ele><time>2026-04-09T10:33:32.433Z</time></trkpt><trkpt lat="42.8860049" lon="11.8789417"><ele>631.0</ele><time>2026-04-09T10:33:33.428Z</time></trkpt><trkpt lat="42.8860939" lon="11.87889"><ele>631.0</ele><time>2026-04-09T10:33:34.438Z</time></trkpt><trkpt lat="42.8861839" lon="11.8788516"><ele>631.0</ele><time>2026-04-09T10:33:35.432Z</time></trkpt><trkpt lat="42.8862984" lon="11.8788196"><ele>627.6666666666667</ele><time>2026-04-09T10:33:36.454Z</time></trkpt><trkpt lat="42.8864201" lon="11.8787894"><ele>624.3333333333334</ele><time>2026-04-09T10:33:37.439Z</time></trkpt><trkpt lat="42.8865511" lon="11.8787539"><ele>621.0</ele><time>2026-04-09T10:33:38.586Z</time></trkpt><trkpt lat="42.886816" lon="11.8786588"><ele>619.5</ele><time>2026-04-09T10:33:40.44Z</time></trkpt><trkpt lat="42.8869397" lon="11.8786205"><ele>618.0</ele><time>2026-04-09T10:33:41.425Z</time></trkpt><trkpt lat="42.8870727" lon="11.8785823"><ele>616.5</ele><time>2026-04-09T10:33:42.449Z</time></trkpt><trkpt lat="42.8871999" lon="11.8785425"><ele>615.0</ele><time>2026-04-09T10:33:43.449Z</time></trkpt><trkpt lat="42.8873164" lon="11.8784941"><ele>615.0</ele><time>2026-04-09T10:33:44.455Z</time></trkpt><trkpt lat="42.8874352" lon="11.8784438"><ele>615.0</ele><time>2026-04-09T10:33:45.452Z</time></trkpt><trkpt lat="42.8875458" lon="11.8784092"><ele>615.0</ele><time>2026-04-09T10:33:46.45Z</time></trkpt><trkpt lat="42.8876367" lon="11.8783976"><ele>615.0</ele><time>2026-04-09T10:33:47.426Z</time></trkpt><trkpt lat="42.887748" lon="11.8783969"><ele>615.0</ele><time>2026-04-09T10:33:48.432Z</time></trkpt><trkpt lat="42.8878423" lon="11.8784066"><ele>615.1666666666666</ele><time>2026-04-09T10:33:49.432Z</time></trkpt><trkpt lat="42.8879216" lon="11.8784612"><ele>615.3333333333334</ele><time>2026-04-09T10:33:50.447Z</time></trkpt><trkpt lat="42.887999" lon="11.878509"><ele>615.5</ele><time>2026-04-09T10:33:51.448Z</time></trkpt><trkpt lat="42.8880807" lon="11.8785539"><ele>615.6666666666667</ele><time>2026-04-09T10:33:52.416Z</time></trkpt><trkpt lat="42.8881629" lon="11.8785892"><ele>615.8333333333334</ele><time>2026-04-09T10:33:53.425Z</time></trkpt><trkpt lat="42.8882448" lon="11.8786016"><ele>616.0</ele><time>2026-04-09T10:33:54.426Z</time></trkpt><trkpt lat="42.8883302" lon="11.8785725"><ele>616.0</ele><time>2026-04-09T10:33:55.425Z</time></trkpt><trkpt lat="42.8884263" lon="11.8785093"><ele>616.0</ele><time>2026-04-09T10:33:56.425Z</time></trkpt><trkpt lat="42.8885354" lon="11.8784489"><ele>616.0</ele><time>2026-04-09T10:33:57.416Z</time></trkpt><trkpt lat="42.8886318" lon="11.8784115"><ele>616.0</ele><time>2026-04-09T10:33:58.451Z</time></trkpt><trkpt lat="42.8887227" lon="11.8783989"><ele>616.0</ele><time>2026-04-09T10:33:59.454Z</time></trkpt><trkpt lat="42.8888179" lon="11.8783945"><ele>616.8333333333334</ele><time>2026-04-09T10:34:00.453Z</time></trkpt><trkpt lat="42.8888908" lon="11.8784145"><ele>617.6666666666667</ele><time>2026-04-09T10:34:01.456Z</time></trkpt><trkpt lat="42.8889638" lon="11.8784296"><ele>618.5</ele><time>2026-04-09T10:34:02.432Z</time></trkpt><trkpt lat="42.8890886" lon="11.8783874"><ele>619.3333333333334</ele><time>2026-04-09T10:34:04.455Z</time></trkpt><trkpt lat="42.8891551" lon="11.878375"><ele>620.1666666666666</ele><time>2026-04-09T10:34:05.432Z</time></trkpt><trkpt lat="42.889234" lon="11.8783743"><ele>621.0</ele><time>2026-04-09T10:34:06.452Z</time></trkpt><trkpt lat="42.8893164" lon="11.8783859"><ele>621.0</ele><time>2026-04-09T10:34:07.455Z</time></trkpt><trkpt lat="42.8894002" lon="11.8784124"><ele>621.0</ele><time>2026-04-09T10:34:08.459Z</time></trkpt><trkpt lat="42.8894875" lon="11.8784269"><ele>621.0</ele><time>2026-04-09T10:34:09.429Z</time></trkpt><trkpt lat="42.8895784" lon="11.8784233"><ele>621.0</ele><time>2026-04-09T10:34:10.43Z</time></trkpt><trkpt lat="42.889665" lon="11.8784103"><ele>621.0</ele><time>2026-04-09T10:34:11.435Z</time></trkpt><trkpt lat="42.8897401" lon="11.8784077"><ele>621.0</ele><time>2026-04-09T10:34:12.459Z</time></trkpt><trkpt lat="42.889822" lon="11.8784086"><ele>621.0</ele><time>2026-04-09T10:34:13.458Z</time></trkpt><trkpt lat="42.8899095" lon="11.8784124"><ele>621.0</ele><time>2026-04-09T10:34:14.436Z</time></trkpt><trkpt lat="42.8899976" lon="11.878411"><ele>621.0</ele><time>2026-04-09T10:34:15.433Z</time></trkpt><trkpt lat="42.8900778" lon="11.8784055"><ele>621.0</ele><time>2026-04-09T10:34:16.423Z</time></trkpt><trkpt lat="42.8901539" lon="11.8784052"><ele>621.0</ele><time>2026-04-09T10:34:17.456Z</time></trkpt><trkpt lat="42.8902194" lon="11.8784172"><ele>621.0</ele><time>2026-04-09T10:34:18.45Z</time></trkpt><trkpt lat="42.8903494" lon="11.878431"><ele>617.8333333333334</ele><time>2026-04-09T10:34:20.453Z</time></trkpt><trkpt lat="42.8904197" lon="11.8784578"><ele>614.6666666666666</ele><time>2026-04-09T10:34:21.427Z</time></trkpt><trkpt lat="42.8904909" lon="11.8784998"><ele>611.5</ele><time>2026-04-09T10:34:22.423Z</time></trkpt><trkpt lat="42.8905641" lon="11.8785311"><ele>608.3333333333333</ele><time>2026-04-09T10:34:23.429Z</time></trkpt><trkpt lat="42.8906344" lon="11.8785574"><ele>605.1666666666666</ele><time>2026-04-09T10:34:24.426Z</time></trkpt><trkpt lat="42.8907147" lon="11.8785815"><ele>602.0</ele><time>2026-04-09T10:34:25.426Z</time></trkpt><trkpt lat="42.8907806" lon="11.8785552"><ele>602.0</ele><time>2026-04-09T10:34:26.429Z</time></trkpt><trkpt lat="42.890854" lon="11.8785423"><ele>602.0</ele><time>2026-04-09T10:34:27.428Z</time></trkpt><trkpt lat="42.8909233" lon="11.8785389"><ele>602.0</ele><time>2026-04-09T10:34:28.446Z</time></trkpt><trkpt lat="42.89099" lon="11.878554"><ele>602.0</ele><time>2026-04-09T10:34:29.425Z</time></trkpt><trkpt lat="42.8910718" lon="11.8785842"><ele>602.0</ele><time>2026-04-09T10:34:30.456Z</time></trkpt><trkpt lat="42.8911536" lon="11.8786243"><ele>602.0</ele><time>2026-04-09T10:34:31.453Z</time></trkpt><trkpt lat="42.8912318" lon="11.8786579"><ele>602.0</ele><time>2026-04-09T10:34:32.434Z</time></trkpt><trkpt lat="42.8913011" lon="11.8786964"><ele>602.0</ele><time>2026-04-09T10:34:33.424Z</time></trkpt><trkpt lat="42.8913987" lon="11.8786931"><ele>602.0</ele><time>2026-04-09T10:34:34.443Z</time></trkpt><trkpt lat="42.8914962" lon="11.878684"><ele>602.0</ele><time>2026-04-09T10:34:35.445Z</time></trkpt><trkpt lat="42.8915989" lon="11.8786833"><ele>602.0</ele><time>2026-04-09T10:34:36.447Z</time></trkpt><trkpt lat="42.8916913" lon="11.8786851"><ele>605.0</ele><time>2026-04-09T10:34:37.445Z</time></trkpt><trkpt lat="42.8917812" lon="11.8786835"><ele>608.0</ele><time>2026-04-09T10:34:38.448Z</time></trkpt><trkpt lat="42.8918475" lon="11.8787003"><ele>611.0</ele><time>2026-04-09T10:34:39.422Z</time></trkpt><trkpt lat="42.8919717" lon="11.878725"><ele>614.0</ele><time>2026-04-09T10:34:41.433Z</time></trkpt><trkpt lat="42.8920347" lon="11.8787575"><ele>617.0</ele><time>2026-04-09T10:34:42.42Z</time></trkpt><trkpt lat="42.8921066" lon="11.8788124"><ele>620.0</ele><time>2026-04-09T10:34:43.427Z</time></trkpt><trkpt lat="42.8921689" lon="11.8789119"><ele>620.0</ele><time>2026-04-09T10:34:44.429Z</time></trkpt><trkpt lat="42.8922442" lon="11.8790076"><ele>620.0</ele><time>2026-04-09T10:34:45.417Z</time></trkpt><trkpt lat="42.892318" lon="11.8791007"><ele>620.0</ele><time>2026-04-09T10:34:46.429Z</time></trkpt><trkpt lat="42.892395" lon="11.879175"><ele>620.0</ele><time>2026-04-09T10:34:47.427Z</time></trkpt><trkpt lat="42.8924747" lon="11.8792531"><ele>620.0</ele><time>2026-04-09T10:34:48.426Z</time></trkpt><trkpt lat="42.8925768" lon="11.8793172"><ele>622.0</ele><time>2026-04-09T10:34:49.459Z</time></trkpt><trkpt lat="42.8926783" lon="11.8793859"><ele>624.0</ele><time>2026-04-09T10:34:50.458Z</time></trkpt><trkpt lat="42.8927742" lon="11.879461"><ele>626.0</ele><time>2026-04-09T10:34:51.456Z</time></trkpt><trkpt lat="42.8928631" lon="11.8795442"><ele>628.0</ele><time>2026-04-09T10:34:52.461Z</time></trkpt><trkpt lat="42.8929487" lon="11.8796136"><ele>630.0</ele><time>2026-04-09T10:34:53.449Z</time></trkpt><trkpt lat="42.8930075" lon="11.8796948"><ele>630.0</ele><time>2026-04-09T10:34:54.452Z</time></trkpt><trkpt lat="42.8930707" lon="11.8797534"><ele>630.0</ele><time>2026-04-09T10:34:55.453Z</time></trkpt><trkpt lat="42.893132" lon="11.8798111"><ele>630.0</ele><time>2026-04-09T10:34:56.445Z</time></trkpt><trkpt lat="42.8932197" lon="11.8798526"><ele>630.0</ele><time>2026-04-09T10:34:57.454Z</time></trkpt><trkpt lat="42.8933154" lon="11.8798838"><ele>630.0</ele><time>2026-04-09T10:34:58.424Z</time></trkpt><trkpt lat="42.8934058" lon="11.8799143"><ele>630.0</ele><time>2026-04-09T10:34:59.428Z</time></trkpt><trkpt lat="42.8934975" lon="11.8799423"><ele>630.0</ele><time>2026-04-09T10:35:00.439Z</time></trkpt><trkpt lat="42.8935778" lon="11.8799435"><ele>630.0</ele><time>2026-04-09T10:35:01.592Z</time></trkpt><trkpt lat="42.8937471" lon="11.8799248"><ele>630.0</ele><time>2026-04-09T10:35:03.429Z</time></trkpt><trkpt lat="42.8938185" lon="11.8798827"><ele>630.0</ele><time>2026-04-09T10:35:04.432Z</time></trkpt><trkpt lat="42.8938799" lon="11.8798219"><ele>630.0</ele><time>2026-04-09T10:35:05.432Z</time></trkpt><trkpt lat="42.8939372" lon="11.8797809"><ele>630.0</ele><time>2026-04-09T10:35:06.454Z</time></trkpt><trkpt lat="42.8940161" lon="11.8797497"><ele>630.0</ele><time>2026-04-09T10:35:07.452Z</time></trkpt><trkpt lat="42.8941139" lon="11.8797267"><ele>630.0</ele><time>2026-04-09T10:35:08.433Z</time></trkpt><trkpt lat="42.8942111" lon="11.8796833"><ele>630.0</ele><time>2026-04-09T10:35:09.428Z</time></trkpt><trkpt lat="42.8943175" lon="11.8796454"><ele>630.0</ele><time>2026-04-09T10:35:10.454Z</time></trkpt><trkpt lat="42.8944081" lon="11.8796131"><ele>628.5</ele><time>2026-04-09T10:35:11.454Z</time></trkpt><trkpt lat="42.894502" lon="11.879599"><ele>627.0</ele><time>2026-04-09T10:35:12.453Z</time></trkpt><trkpt lat="42.8945898" lon="11.8795786"><ele>625.5</ele><time>2026-04-09T10:35:13.449Z</time></trkpt><trkpt lat="42.8946699" lon="11.8795761"><ele>624.0</ele><time>2026-04-09T10:35:14.451Z</time></trkpt><trkpt lat="42.8947412" lon="11.879588"><ele>622.5</ele><time>2026-04-09T10:35:15.448Z</time></trkpt><trkpt lat="42.8948146" lon="11.8795998"><ele>621.0</ele><time>2026-04-09T10:35:16.424Z</time></trkpt><trkpt lat="42.8948752" lon="11.879628"><ele>621.0</ele><time>2026-04-09T10:35:17.431Z</time></trkpt><trkpt lat="42.894997" lon="11.879676"><ele>621.0</ele><time>2026-04-09T10:35:19.43Z</time></trkpt><trkpt lat="42.8950657" lon="11.8797039"><ele>621.0</ele><time>2026-04-09T10:35:20.433Z</time></trkpt><trkpt lat="42.8951291" lon="11.8797187"><ele>621.0</ele><time>2026-04-09T10:35:21.432Z</time></trkpt><trkpt lat="42.8951949" lon="11.8797535"><ele>621.0</ele><time>2026-04-09T10:35:22.426Z</time></trkpt><trkpt lat="42.8952652" lon="11.8798077"><ele>621.0</ele><time>2026-04-09T10:35:23.435Z</time></trkpt><trkpt lat="42.8953222" lon="11.8798928"><ele>622.2</ele><time>2026-04-09T10:35:24.433Z</time></trkpt><trkpt lat="42.8953943" lon="11.8799716"><ele>623.4000000000001</ele><time>2026-04-09T10:35:25.428Z</time></trkpt><trkpt lat="42.8954733" lon="11.8800429"><ele>624.6</ele><time>2026-04-09T10:35:26.429Z</time></trkpt><trkpt lat="42.8955479" lon="11.8801128"><ele>625.8000000000001</ele><time>2026-04-09T10:35:27.428Z</time></trkpt><trkpt lat="42.8956311" lon="11.8801845"><ele>627.0</ele><time>2026-04-09T10:35:28.422Z</time></trkpt><trkpt lat="42.8957191" lon="11.8802836"><ele>626.3333333333334</ele><time>2026-04-09T10:35:29.422Z</time></trkpt><trkpt lat="42.8957822" lon="11.8803727"><ele>625.6666666666666</ele><time>2026-04-09T10:35:30.418Z</time></trkpt><trkpt lat="42.8958525" lon="11.8804561"><ele>625.0</ele><time>2026-04-09T10:35:31.435Z</time></trkpt><trkpt lat="42.8959236" lon="11.8805433"><ele>624.3333333333333</ele><time>2026-04-09T10:35:32.422Z</time></trkpt><trkpt lat="42.8959938" lon="11.8805249"><ele>623.6666666666666</ele><time>2026-04-09T10:35:33.43Z</time></trkpt><trkpt lat="42.896056" lon="11.8804921"><ele>623.0</ele><time>2026-04-09T10:35:34.431Z</time></trkpt><trkpt lat="42.8961154" lon="11.8804537"><ele>623.0</ele><time>2026-04-09T10:35:35.42Z</time></trkpt><trkpt lat="42.8962424" lon="11.8804144"><ele>623.0</ele><time>2026-04-09T10:35:37.434Z</time></trkpt><trkpt lat="42.8963144" lon="11.8803981"><ele>623.0</ele><time>2026-04-09T10:35:38.435Z</time></trkpt><trkpt lat="42.8963795" lon="11.8803982"><ele>623.0</ele><time>2026-04-09T10:35:39.428Z</time></trkpt><trkpt lat="42.896447" lon="11.8804278"><ele>623.0</ele><time>2026-04-09T10:35:40.426Z</time></trkpt><trkpt lat="42.8965182" lon="11.8804722"><ele>623.0</ele><time>2026-04-09T10:35:41.432Z</time></trkpt><trkpt lat="42.8965907" lon="11.8805166"><ele>623.0</ele><time>2026-04-09T10:35:42.419Z</time></trkpt><trkpt lat="42.8966575" lon="11.8805894"><ele>623.0</ele><time>2026-04-09T10:35:43.428Z</time></trkpt><trkpt lat="42.8967192" lon="11.8806926"><ele>623.0</ele><time>2026-04-09T10:35:44.431Z</time></trkpt><trkpt lat="42.8967634" lon="11.8808089"><ele>623.0</ele><time>2026-04-09T10:35:45.426Z</time></trkpt><trkpt lat="42.8967846" lon="11.880934"><ele>623.0</ele><time>2026-04-09T10:35:46.43Z</time></trkpt><trkpt lat="42.8968114" lon="11.8810473"><ele>623.0</ele><time>2026-04-09T10:35:47.432Z</time></trkpt><trkpt lat="42.8968414" lon="11.8811665"><ele>623.0</ele><time>2026-04-09T10:35:48.429Z</time></trkpt><trkpt lat="42.8968698" lon="11.8812511"><ele>623.0</ele><time>2026-04-09T10:35:49.43Z</time></trkpt><trkpt lat="42.896913" lon="11.881373"><ele>623.0</ele><time>2026-04-09T10:35:51.433Z</time></trkpt><trkpt lat="42.8969627" lon="11.8814663"><ele>623.0</ele><time>2026-04-09T10:35:53.43Z</time></trkpt><trkpt lat="42.8970486" lon="11.8815918"><ele>623.0</ele><time>2026-04-09T10:35:55.425Z</time></trkpt><trkpt lat="42.8970937" lon="11.8816715"><ele>623.0</ele><time>2026-04-09T10:35:56.433Z</time></trkpt><trkpt lat="42.8971302" lon="11.881748"><ele>623.0</ele><time>2026-04-09T10:35:57.431Z</time></trkpt><trkpt lat="42.8972015" lon="11.8818924"><ele>623.0</ele><time>2026-04-09T10:35:59.425Z</time></trkpt><trkpt lat="42.897241" lon="11.8819638"><ele>623.0</ele><time>2026-04-09T10:36:00.432Z</time></trkpt><trkpt lat="42.8972808" lon="11.8820438"><ele>623.0</ele><time>2026-04-09T10:36:01.433Z</time></trkpt><trkpt lat="42.8973247" lon="11.8821182"><ele>621.1666666666666</ele><time>2026-04-09T10:36:02.427Z</time></trkpt><trkpt lat="42.897367" lon="11.8821991"><ele>619.3333333333333</ele><time>2026-04-09T10:36:03.431Z</time></trkpt><trkpt lat="42.8974171" lon="11.8822843"><ele>617.5</ele><time>2026-04-09T10:36:04.437Z</time></trkpt><trkpt lat="42.8974688" lon="11.8823681"><ele>615.6666666666666</ele><time>2026-04-09T10:36:05.43Z</time></trkpt><trkpt lat="42.8975242" lon="11.8824532"><ele>613.8333333333334</ele><time>2026-04-09T10:36:06.428Z</time></trkpt><trkpt lat="42.8975923" lon="11.8825148"><ele>612.0</ele><time>2026-04-09T10:36:07.427Z</time></trkpt><trkpt lat="42.8976825" lon="11.8825691"><ele>609.0</ele><time>2026-04-09T10:36:08.425Z</time></trkpt><trkpt lat="42.8977735" lon="11.8826202"><ele>606.0</ele><time>2026-04-09T10:36:09.43Z</time></trkpt><trkpt lat="42.8978579" lon="11.8826551"><ele>603.0</ele><time>2026-04-09T10:36:10.434Z</time></trkpt><trkpt lat="42.8979327" lon="11.8826795"><ele>600.0</ele><time>2026-04-09T10:36:11.42Z</time></trkpt><trkpt lat="42.8980115" lon="11.8827018"><ele>597.0</ele><time>2026-04-09T10:36:12.425Z</time></trkpt><trkpt lat="42.8980814" lon="11.8827322"><ele>594.0</ele><time>2026-04-09T10:36:13.42Z</time></trkpt><trkpt lat="42.8981849" lon="11.8827772"><ele>594.0</ele><time>2026-04-09T10:36:15.422Z</time></trkpt><trkpt lat="42.8982627" lon="11.8827897"><ele>594.0</ele><time>2026-04-09T10:36:17.42Z</time></trkpt><trkpt lat="42.8983694" lon="11.882772"><ele>594.0</ele><time>2026-04-09T10:36:19.416Z</time></trkpt><trkpt lat="42.8984693" lon="11.8828399"><ele>594.0</ele><time>2026-04-09T10:36:21.423Z</time></trkpt><trkpt lat="42.8985112" lon="11.8829103"><ele>594.0</ele><time>2026-04-09T10:36:22.413Z</time></trkpt><trkpt lat="42.8985448" lon="11.8829937"><ele>594.0</ele><time>2026-04-09T10:36:23.42Z</time></trkpt><trkpt lat="42.8985856" lon="11.8830796"><ele>595.8</ele><time>2026-04-09T10:36:24.421Z</time></trkpt><trkpt lat="42.8986403" lon="11.8831713"><ele>597.5999999999999</ele><time>2026-04-09T10:36:25.423Z</time></trkpt><trkpt lat="42.8986738" lon="11.8832649"><ele>599.4</ele><time>2026-04-09T10:36:26.424Z</time></trkpt><trkpt lat="42.8987031" lon="11.8833675"><ele>601.1999999999999</ele><time>2026-04-09T10:36:27.424Z</time></trkpt><trkpt lat="42.8987446" lon="11.8835012"><ele>603.0</ele><time>2026-04-09T10:36:28.425Z</time></trkpt><trkpt lat="42.8987845" lon="11.8836368"><ele>603.0</ele><time>2026-04-09T10:36:29.424Z</time></trkpt><trkpt lat="42.8988363" lon="11.8837244"><ele>603.0</ele><time>2026-04-09T10:36:30.426Z</time></trkpt><trkpt lat="42.898878" lon="11.8838126"><ele>603.0</ele><time>2026-04-09T10:36:31.421Z</time></trkpt><trkpt lat="42.8989281" lon="11.8838929"><ele>603.0</ele><time>2026-04-09T10:36:32.425Z</time></trkpt><trkpt lat="42.8989794" lon="11.8839485"><ele>603.0</ele><time>2026-04-09T10:36:33.43Z</time></trkpt><trkpt lat="42.8990702" lon="11.8839859"><ele>603.0</ele><time>2026-04-09T10:36:35.429Z</time></trkpt><trkpt lat="42.8991666" lon="11.8840403"><ele>603.0</ele><time>2026-04-09T10:36:37.422Z</time></trkpt><trkpt lat="42.8992228" lon="11.8841072"><ele>603.0</ele><time>2026-04-09T10:36:38.424Z</time></trkpt><trkpt lat="42.8992823" lon="11.8841443"><ele>603.0</ele><time>2026-04-09T10:36:39.425Z</time></trkpt><trkpt lat="42.899355" lon="11.8841873"><ele>603.0</ele><time>2026-04-09T10:36:40.422Z</time></trkpt><trkpt lat="42.8994278" lon="11.8842313"><ele>603.0</ele><time>2026-04-09T10:36:41.423Z</time></trkpt><trkpt lat="42.8995144" lon="11.8842836"><ele>603.0</ele><time>2026-04-09T10:36:42.43Z</time></trkpt><trkpt lat="42.8996178" lon="11.8843203"><ele>599.0</ele><time>2026-04-09T10:36:43.418Z</time></trkpt><trkpt lat="42.8997233" lon="11.884347"><ele>595.0</ele><time>2026-04-09T10:36:44.42Z</time></trkpt><trkpt lat="42.8998421" lon="11.8843472"><ele>591.0</ele><time>2026-04-09T10:36:45.429Z</time></trkpt><trkpt lat="42.8999724" lon="11.8843498"><ele>587.0</ele><time>2026-04-09T10:36:46.413Z</time></trkpt><trkpt lat="42.9001006" lon="11.8843587"><ele>587.0</ele><time>2026-04-09T10:36:47.424Z</time></trkpt><trkpt lat="42.9002128" lon="11.8843647"><ele>587.0</ele><time>2026-04-09T10:36:48.423Z</time></trkpt><trkpt lat="42.9003153" lon="11.8843709"><ele>587.0</ele><time>2026-04-09T10:36:49.415Z</time></trkpt><trkpt lat="42.9004129" lon="11.884403"><ele>587.0</ele><time>2026-04-09T10:36:50.422Z</time></trkpt><trkpt lat="42.9005079" lon="11.8844416"><ele>587.0</ele><time>2026-04-09T10:36:51.421Z</time></trkpt><trkpt lat="42.9005871" lon="11.8845144"><ele>587.0</ele><time>2026-04-09T10:36:52.416Z</time></trkpt><trkpt lat="42.9006701" lon="11.8845617"><ele>587.0</ele><time>2026-04-09T10:36:53.501Z</time></trkpt><trkpt lat="42.9007534" lon="11.8845802"><ele>587.0</ele><time>2026-04-09T10:36:54.414Z</time></trkpt><trkpt lat="42.900836" lon="11.8845813"><ele>587.0</ele><time>2026-04-09T10:36:55.423Z</time></trkpt><trkpt lat="42.9009287" lon="11.8845645"><ele>587.0</ele><time>2026-04-09T10:36:56.571Z</time></trkpt><trkpt lat="42.9011098" lon="11.8843943"><ele>586.4</ele><time>2026-04-09T10:36:58.418Z</time></trkpt><trkpt lat="42.9011965" lon="11.8842977"><ele>585.8000000000001</ele><time>2026-04-09T10:36:59.428Z</time></trkpt><trkpt lat="42.9012684" lon="11.884206"><ele>585.2</ele><time>2026-04-09T10:37:00.41Z</time></trkpt><trkpt lat="42.9013342" lon="11.8841233"><ele>584.6</ele><time>2026-04-09T10:37:01.408Z</time></trkpt><trkpt lat="42.9014031" lon="11.88404"><ele>584.0</ele><time>2026-04-09T10:37:02.41Z</time></trkpt><trkpt lat="42.9014654" lon="11.883969"><ele>586.8333333333333</ele><time>2026-04-09T10:37:03.415Z</time></trkpt><trkpt lat="42.9015399" lon="11.8839382"><ele>589.6666666666666</ele><time>2026-04-09T10:37:04.418Z</time></trkpt><trkpt lat="42.9016146" lon="11.8839273"><ele>592.5</ele><time>2026-04-09T10:37:05.415Z</time></trkpt><trkpt lat="42.9016919" lon="11.8839083"><ele>595.3333333333334</ele><time>2026-04-09T10:37:06.41Z</time></trkpt><trkpt lat="42.9017603" lon="11.8838858"><ele>598.1666666666667</ele><time>2026-04-09T10:37:07.415Z</time></trkpt><trkpt lat="42.9018365" lon="11.8838466"><ele>601.0</ele><time>2026-04-09T10:37:08.415Z</time></trkpt><trkpt lat="42.9019293" lon="11.8837895"><ele>602.2</ele><time>2026-04-09T10:37:09.415Z</time></trkpt><trkpt lat="42.9020231" lon="11.8837354"><ele>603.4000000000001</ele><time>2026-04-09T10:37:10.412Z</time></trkpt><trkpt lat="42.9021164" lon="11.8836841"><ele>604.6</ele><time>2026-04-09T10:37:11.416Z</time></trkpt><trkpt lat="42.9022105" lon="11.8836159"><ele>605.8000000000001</ele><time>2026-04-09T10:37:12.44Z</time></trkpt><trkpt lat="42.9023065" lon="11.8835219"><ele>607.0</ele><time>2026-04-09T10:37:13.413Z</time></trkpt><trkpt lat="42.9023933" lon="11.8833977"><ele>609.5</ele><time>2026-04-09T10:37:14.416Z</time></trkpt><trkpt lat="42.9024878" lon="11.8832978"><ele>612.0</ele><time>2026-04-09T10:37:15.427Z</time></trkpt><trkpt lat="42.9025939" lon="11.8832039"><ele>614.5</ele><time>2026-04-09T10:37:16.417Z</time></trkpt><trkpt lat="42.9027062" lon="11.8831023"><ele>617.0</ele><time>2026-04-09T10:37:17.416Z</time></trkpt><trkpt lat="42.9028277" lon="11.8829988"><ele>617.0</ele><time>2026-04-09T10:37:18.421Z</time></trkpt><trkpt lat="42.9029233" lon="11.8828993"><ele>617.0</ele><time>2026-04-09T10:37:19.421Z</time></trkpt><trkpt lat="42.9030134" lon="11.8828185"><ele>617.0</ele><time>2026-04-09T10:37:20.426Z</time></trkpt><trkpt lat="42.9031201" lon="11.8827359"><ele>617.0</ele><time>2026-04-09T10:37:21.417Z</time></trkpt><trkpt lat="42.9032282" lon="11.8826746"><ele>617.0</ele><time>2026-04-09T10:37:22.412Z</time></trkpt><trkpt lat="42.9033338" lon="11.8826212"><ele>617.0</ele><time>2026-04-09T10:37:23.419Z</time></trkpt><trkpt lat="42.9034377" lon="11.8826075"><ele>617.0</ele><time>2026-04-09T10:37:24.423Z</time></trkpt><trkpt lat="42.9035318" lon="11.8825741"><ele>617.0</ele><time>2026-04-09T10:37:25.425Z</time></trkpt><trkpt lat="42.9036156" lon="11.8825585"><ele>617.0</ele><time>2026-04-09T10:37:26.421Z</time></trkpt><trkpt lat="42.9037004" lon="11.8825292"><ele>616.6</ele><time>2026-04-09T10:37:27.409Z</time></trkpt><trkpt lat="42.9038069" lon="11.8825076"><ele>616.2</ele><time>2026-04-09T10:37:29.422Z</time></trkpt><trkpt lat="42.9038995" lon="11.8825256"><ele>615.8</ele><time>2026-04-09T10:37:31.442Z</time></trkpt><trkpt lat="42.9039625" lon="11.882557"><ele>615.4</ele><time>2026-04-09T10:37:32.441Z</time></trkpt><trkpt lat="42.9040277" lon="11.8825887"><ele>615.0</ele><time>2026-04-09T10:37:33.422Z</time></trkpt><trkpt lat="42.9041223" lon="11.8826897"><ele>615.0</ele><time>2026-04-09T10:37:35.412Z</time></trkpt><trkpt lat="42.9041587" lon="11.8827648"><ele>615.0</ele><time>2026-04-09T10:37:36.424Z</time></trkpt><trkpt lat="42.9041907" lon="11.8828616"><ele>615.0</ele><time>2026-04-09T10:37:37.419Z</time></trkpt><trkpt lat="42.9042089" lon="11.8829838"><ele>615.0</ele><time>2026-04-09T10:37:38.419Z</time></trkpt><trkpt lat="42.9042123" lon="11.8831221"><ele>615.0</ele><time>2026-04-09T10:37:39.419Z</time></trkpt><trkpt lat="42.9042076" lon="11.8832725"><ele>615.0</ele><time>2026-04-09T10:37:40.427Z</time></trkpt><trkpt lat="42.9041984" lon="11.8834307"><ele>613.2</ele><time>2026-04-09T10:37:41.41Z</time></trkpt><trkpt lat="42.9041798" lon="11.8835804"><ele>611.4</ele><time>2026-04-09T10:37:42.424Z</time></trkpt><trkpt lat="42.9041634" lon="11.8837225"><ele>609.6</ele><time>2026-04-09T10:37:43.421Z</time></trkpt><trkpt lat="42.9041452" lon="11.8838605"><ele>607.8</ele><time>2026-04-09T10:37:44.412Z</time></trkpt><trkpt lat="42.9041192" lon="11.8839941"><ele>606.0</ele><time>2026-04-09T10:37:45.419Z</time></trkpt><trkpt lat="42.9040862" lon="11.8841215"><ele>606.0</ele><time>2026-04-09T10:37:46.407Z</time></trkpt><trkpt lat="42.9040561" lon="11.8842326"><ele>606.0</ele><time>2026-04-09T10:37:47.428Z</time></trkpt><trkpt lat="42.9040248" lon="11.8843361"><ele>606.0</ele><time>2026-04-09T10:37:48.419Z</time></trkpt><trkpt lat="42.9040053" lon="11.8844322"><ele>606.0</ele><time>2026-04-09T10:37:49.411Z</time></trkpt><trkpt lat="42.9040215" lon="11.8845777"><ele>606.0</ele><time>2026-04-09T10:37:51.417Z</time></trkpt><trkpt lat="42.9040957" lon="11.8847298"><ele>606.2</ele><time>2026-04-09T10:37:53.416Z</time></trkpt><trkpt lat="42.9041631" lon="11.8848207"><ele>606.4000000000001</ele><time>2026-04-09T10:37:54.412Z</time></trkpt><trkpt lat="42.9042475" lon="11.8849242"><ele>606.6</ele><time>2026-04-09T10:37:55.418Z</time></trkpt><trkpt lat="42.9043159" lon="11.8850402"><ele>606.8000000000001</ele><time>2026-04-09T10:37:56.407Z</time></trkpt><trkpt lat="42.904385" lon="11.8851274"><ele>607.0</ele><time>2026-04-09T10:37:57.409Z</time></trkpt><trkpt lat="42.9044644" lon="11.8851973"><ele>607.0</ele><time>2026-04-09T10:37:58.418Z</time></trkpt><trkpt lat="42.904549" lon="11.8852354"><ele>607.0</ele><time>2026-04-09T10:37:59.407Z</time></trkpt><trkpt lat="42.9046337" lon="11.8852586"><ele>607.0</ele><time>2026-04-09T10:38:00.418Z</time></trkpt><trkpt lat="42.90474" lon="11.8852506"><ele>607.0</ele><time>2026-04-09T10:38:01.414Z</time></trkpt><trkpt lat="42.9048345" lon="11.8852515"><ele>607.0</ele><time>2026-04-09T10:38:02.411Z</time></trkpt><trkpt lat="42.9049247" lon="11.8852628"><ele>607.0</ele><time>2026-04-09T10:38:03.415Z</time></trkpt><trkpt lat="42.9050221" lon="11.8852815"><ele>607.0</ele><time>2026-04-09T10:38:04.403Z</time></trkpt><trkpt lat="42.9051214" lon="11.8853214"><ele>607.0</ele><time>2026-04-09T10:38:05.416Z</time></trkpt><trkpt lat="42.9052154" lon="11.885352"><ele>607.0</ele><time>2026-04-09T10:38:06.427Z</time></trkpt><trkpt lat="42.9053157" lon="11.8853767"><ele>607.0</ele><time>2026-04-09T10:38:07.415Z</time></trkpt><trkpt lat="42.9054035" lon="11.8853908"><ele>609.1666666666667</ele><time>2026-04-09T10:38:08.41Z</time></trkpt><trkpt lat="42.9054856" lon="11.8854077"><ele>611.3333333333334</ele><time>2026-04-09T10:38:09.414Z</time></trkpt><trkpt lat="42.9055649" lon="11.8854319"><ele>613.5</ele><time>2026-04-09T10:38:10.41Z</time></trkpt><trkpt lat="42.9056452" lon="11.8854763"><ele>615.6666666666666</ele><time>2026-04-09T10:38:11.409Z</time></trkpt><trkpt lat="42.9057" lon="11.8855443"><ele>617.8333333333333</ele><time>2026-04-09T10:38:12.413Z</time></trkpt><trkpt lat="42.905745" lon="11.8856198"><ele>620.0</ele><time>2026-04-09T10:38:13.411Z</time></trkpt><trkpt lat="42.9057636" lon="11.8857208"><ele>620.0</ele><time>2026-04-09T10:38:14.411Z</time></trkpt><trkpt lat="42.9057854" lon="11.8858358"><ele>620.0</ele><time>2026-04-09T10:38:15.406Z</time></trkpt><trkpt lat="42.9057952" lon="11.8859649"><ele>620.0</ele><time>2026-04-09T10:38:16.411Z</time></trkpt><trkpt lat="42.9058107" lon="11.886134"><ele>620.0</ele><time>2026-04-09T10:38:18.407Z</time></trkpt><trkpt lat="42.9058501" lon="11.8862023"><ele>620.0</ele><time>2026-04-09T10:38:21.407Z</time></trkpt><trkpt lat="42.9058855" lon="11.8860955"><ele>621.2</ele><time>2026-04-09T10:38:23.416Z</time></trkpt><trkpt lat="42.9059295" lon="11.8859116"><ele>622.4</ele><time>2026-04-09T10:38:25.411Z</time></trkpt><trkpt lat="42.9059568" lon="11.8858168"><ele>623.6</ele><time>2026-04-09T10:38:26.412Z</time></trkpt><trkpt lat="42.9059821" lon="11.8857377"><ele>624.8</ele><time>2026-04-09T10:38:27.432Z</time></trkpt><trkpt lat="42.9060663" lon="11.8856657"><ele>626.0</ele><time>2026-04-09T10:38:29.413Z</time></trkpt><trkpt lat="42.9062017" lon="11.8856844"><ele>626.0</ele><time>2026-04-09T10:38:31.411Z</time></trkpt><trkpt lat="42.9062916" lon="11.8856923"><ele>626.0</ele><time>2026-04-09T10:38:32.412Z</time></trkpt><trkpt lat="42.9063784" lon="11.8857205"><ele>626.0</ele><time>2026-04-09T10:38:33.414Z</time></trkpt><trkpt lat="42.9064573" lon="11.8857465"><ele>626.0</ele><time>2026-04-09T10:38:34.411Z</time></trkpt><trkpt lat="42.9065359" lon="11.885779"><ele>626.0</ele><time>2026-04-09T10:38:35.409Z</time></trkpt><trkpt lat="42.9066022" lon="11.8858137"><ele>626.0</ele><time>2026-04-09T10:38:36.409Z</time></trkpt><trkpt lat="42.9066611" lon="11.8858574"><ele>627.0</ele><time>2026-04-09T10:38:37.41Z</time></trkpt><trkpt lat="42.9067284" lon="11.8859285"><ele>628.0</ele><time>2026-04-09T10:38:38.413Z</time></trkpt><trkpt lat="42.9067858" lon="11.8859951"><ele>629.0</ele><time>2026-04-09T10:38:39.413Z</time></trkpt><trkpt lat="42.9068486" lon="11.8860892"><ele>630.0</ele><time>2026-04-09T10:38:40.406Z</time></trkpt><trkpt lat="42.9069137" lon="11.8861652"><ele>631.0</ele><time>2026-04-09T10:38:41.421Z</time></trkpt><trkpt lat="42.9069925" lon="11.8862028"><ele>632.0</ele><time>2026-04-09T10:38:42.412Z</time></trkpt><trkpt lat="42.9070798" lon="11.8862322"><ele>632.0</ele><time>2026-04-09T10:38:43.406Z</time></trkpt><trkpt lat="42.9071879" lon="11.8862679"><ele>632.0</ele><time>2026-04-09T10:38:44.421Z</time></trkpt><trkpt lat="42.9073112" lon="11.8863151"><ele>632.0</ele><time>2026-04-09T10:38:45.417Z</time></trkpt><trkpt lat="42.9074413" lon="11.8863681"><ele>632.0</ele><time>2026-04-09T10:38:46.409Z</time></trkpt><trkpt lat="42.9075708" lon="11.8864095"><ele>632.2</ele><time>2026-04-09T10:38:47.408Z</time></trkpt><trkpt lat="42.9076748" lon="11.8864541"><ele>632.4000000000001</ele><time>2026-04-09T10:38:48.41Z</time></trkpt><trkpt lat="42.9077755" lon="11.886524"><ele>632.5999999999999</ele><time>2026-04-09T10:38:49.41Z</time></trkpt><trkpt lat="42.907863" lon="11.8866134"><ele>632.8</ele><time>2026-04-09T10:38:50.408Z</time></trkpt><trkpt lat="42.9079264" lon="11.8867058"><ele>633.0</ele><time>2026-04-09T10:38:51.417Z</time></trkpt><trkpt lat="42.9080014" lon="11.8868209"><ele>633.0</ele><time>2026-04-09T10:38:52.409Z</time></trkpt><trkpt lat="42.9080927" lon="11.886934"><ele>633.0</ele><time>2026-04-09T10:38:53.415Z</time></trkpt><trkpt lat="42.9081699" lon="11.8870182"><ele>633.0</ele><time>2026-04-09T10:38:54.416Z</time></trkpt><trkpt lat="42.9082414" lon="11.8870818"><ele>633.0</ele><time>2026-04-09T10:38:55.412Z</time></trkpt><trkpt lat="42.9083122" lon="11.8871441"><ele>633.0</ele><time>2026-04-09T10:38:56.417Z</time></trkpt><trkpt lat="42.9083852" lon="11.8872053"><ele>633.25</ele><time>2026-04-09T10:38:57.32Z</time></trkpt><trkpt lat="42.9085109" lon="11.8873269"><ele>633.5</ele><time>2026-04-09T10:38:59.116Z</time></trkpt><trkpt lat="42.9085813" lon="11.8873795"><ele>633.75</ele><time>2026-04-09T10:39:00.034Z</time></trkpt><trkpt lat="42.9087185" lon="11.8874309"><ele>634.0</ele><time>2026-04-09T10:39:01.817Z</time></trkpt><trkpt lat="42.9087946" lon="11.8874335"><ele>634.0</ele><time>2026-04-09T10:39:02.816Z</time></trkpt><trkpt lat="42.9088688" lon="11.8874313"><ele>634.0</ele><time>2026-04-09T10:39:03.811Z</time></trkpt><trkpt lat="42.9089658" lon="11.8874421"><ele>634.0</ele><time>2026-04-09T10:39:04.817Z</time></trkpt><trkpt lat="42.9090789" lon="11.8874593"><ele>634.0</ele><time>2026-04-09T10:39:05.809Z</time></trkpt><trkpt lat="42.9092027" lon="11.8874926"><ele>634.0</ele><time>2026-04-09T10:39:06.81Z</time></trkpt><trkpt lat="42.9093204" lon="11.8875393"><ele>633.8</ele><time>2026-04-09T10:39:07.814Z</time></trkpt><trkpt lat="42.9094338" lon="11.8875867"><ele>633.5999999999999</ele><time>2026-04-09T10:39:08.807Z</time></trkpt><trkpt lat="42.9095296" lon="11.8876294"><ele>633.4</ele><time>2026-04-09T10:39:09.809Z</time></trkpt><trkpt lat="42.9096159" lon="11.8876294"><ele>633.1999999999999</ele><time>2026-04-09T10:39:10.813Z</time></trkpt><trkpt lat="42.9096875" lon="11.8876111"><ele>633.0</ele><time>2026-04-09T10:39:11.808Z</time></trkpt><trkpt lat="42.9098035" lon="11.8875363"><ele>633.0</ele><time>2026-04-09T10:39:13.803Z</time></trkpt><trkpt lat="42.9098581" lon="11.8874877"><ele>633.0</ele><time>2026-04-09T10:39:14.811Z</time></trkpt><trkpt lat="42.9099709" lon="11.8874387"><ele>633.0</ele><time>2026-04-09T10:39:16.807Z</time></trkpt><trkpt lat="42.9100137" lon="11.88752"><ele>633.0</ele><time>2026-04-09T10:39:19.806Z</time></trkpt><trkpt lat="42.9100361" lon="11.8876163"><ele>633.0</ele><time>2026-04-09T10:39:20.808Z</time></trkpt><trkpt lat="42.9100484" lon="11.8877627"><ele>633.0</ele><time>2026-04-09T10:39:21.805Z</time></trkpt><trkpt lat="42.910056" lon="11.8879295"><ele>633.0</ele><time>2026-04-09T10:39:22.81Z</time></trkpt><trkpt lat="42.9100529" lon="11.8880902"><ele>633.0</ele><time>2026-04-09T10:39:23.806Z</time></trkpt><trkpt lat="42.9100615" lon="11.8882411"><ele>633.0</ele><time>2026-04-09T10:39:24.81Z</time></trkpt><trkpt lat="42.9100691" lon="11.8883863"><ele>633.0</ele><time>2026-04-09T10:39:25.818Z</time></trkpt><trkpt lat="42.9100768" lon="11.8885087"><ele>633.0</ele><time>2026-04-09T10:39:26.809Z</time></trkpt><trkpt lat="42.9100619" lon="11.8886243"><ele>633.5</ele><time>2026-04-09T10:39:27.805Z</time></trkpt><trkpt lat="42.9100534" lon="11.8887316"><ele>634.0</ele><time>2026-04-09T10:39:28.807Z</time></trkpt><trkpt lat="42.9100449" lon="11.8888203"><ele>634.5</ele><time>2026-04-09T10:39:29.809Z</time></trkpt><trkpt lat="42.9101134" lon="11.8888796"><ele>635.0</ele><time>2026-04-09T10:39:31.811Z</time></trkpt><trkpt lat="42.9102311" lon="11.8888361"><ele>635.5</ele><time>2026-04-09T10:39:33.805Z</time></trkpt><trkpt lat="42.9102931" lon="11.8887995"><ele>636.0</ele><time>2026-04-09T10:39:34.89Z</time></trkpt><trkpt lat="42.9103693" lon="11.8887373"><ele>637.3333333333334</ele><time>2026-04-09T10:39:35.812Z</time></trkpt><trkpt lat="42.9104522" lon="11.8886815"><ele>638.6666666666666</ele><time>2026-04-09T10:39:36.81Z</time></trkpt><trkpt lat="42.9105175" lon="11.888638"><ele>640.0</ele><time>2026-04-09T10:39:37.809Z</time></trkpt><trkpt lat="42.9105707" lon="11.8885871"><ele>641.3333333333333</ele><time>2026-04-09T10:39:48.441Z</time></trkpt><trkpt lat="42.9106237" lon="11.8884961"><ele>642.6666666666666</ele><time>2026-04-09T10:39:51.436Z</time></trkpt><trkpt lat="42.9106429" lon="11.8884055"><ele>644.0</ele><time>2026-04-09T10:39:52.434Z</time></trkpt><trkpt lat="42.9106695" lon="11.888275"><ele>645.1666666666666</ele><time>2026-04-09T10:39:53.44Z</time></trkpt><trkpt lat="42.9106899" lon="11.8881505"><ele>646.3333333333333</ele><time>2026-04-09T10:39:54.458Z</time></trkpt><trkpt lat="42.910709" lon="11.8880603"><ele>647.5</ele><time>2026-04-09T10:39:55.434Z</time></trkpt><trkpt lat="42.9107441" lon="11.8879163"><ele>648.6666666666666</ele><time>2026-04-09T10:39:57.424Z</time></trkpt><trkpt lat="42.910764" lon="11.8878284"><ele>649.8333333333334</ele><time>2026-04-09T10:39:59.456Z</time></trkpt><trkpt lat="42.9107058" lon="11.887924"><ele>651.0</ele><time>2026-04-09T10:40:11.43Z</time></trkpt><trkpt lat="42.9106732" lon="11.8880378"><ele>651.0</ele><time>2026-04-09T10:40:13.426Z</time></trkpt><trkpt lat="42.9106617" lon="11.8881233"><ele>651.0</ele><time>2026-04-09T10:40:14.432Z</time></trkpt><trkpt lat="42.9106457" lon="11.8882158"><ele>651.0</ele><time>2026-04-09T10:40:15.435Z</time></trkpt><trkpt lat="42.9106266" lon="11.8883163"><ele>651.0</ele><time>2026-04-09T10:40:16.433Z</time></trkpt><trkpt lat="42.9106059" lon="11.8884242"><ele>651.0</ele><time>2026-04-09T10:40:17.433Z</time></trkpt><trkpt lat="42.9105818" lon="11.8885518"><ele>651.0</ele><time>2026-04-09T10:40:18.433Z</time></trkpt><trkpt lat="42.9105488" lon="11.8886836"><ele>650.0</ele><time>2026-04-09T10:40:19.439Z</time></trkpt><trkpt lat="42.9105368" lon="11.8888116"><ele>649.0</ele><time>2026-04-09T10:40:20.431Z</time></trkpt><trkpt lat="42.9105359" lon="11.8889557"><ele>648.0</ele><time>2026-04-09T10:40:21.424Z</time></trkpt><trkpt lat="42.9105512" lon="11.8891133"><ele>647.0</ele><time>2026-04-09T10:40:22.465Z</time></trkpt><trkpt lat="42.9105721" lon="11.8893058"><ele>647.0</ele><time>2026-04-09T10:40:23.46Z</time></trkpt><trkpt lat="42.9105996" lon="11.889494"><ele>647.0</ele><time>2026-04-09T10:40:24.44Z</time></trkpt><trkpt lat="42.9106445" lon="11.889692"><ele>647.0</ele><time>2026-04-09T10:40:25.444Z</time></trkpt><trkpt lat="42.9106881" lon="11.8898998"><ele>648.6666666666666</ele><time>2026-04-09T10:40:26.435Z</time></trkpt><trkpt lat="42.9107239" lon="11.8901109"><ele>650.3333333333334</ele><time>2026-04-09T10:40:27.441Z</time></trkpt><trkpt lat="42.9107596" lon="11.8903108"><ele>652.0</ele><time>2026-04-09T10:40:28.433Z</time></trkpt><trkpt lat="42.9108286" lon="11.8905128"><ele>652.0</ele><time>2026-04-09T10:40:29.515Z</time></trkpt><trkpt lat="42.910889" lon="11.8907525"><ele>652.0</ele><time>2026-04-09T10:40:30.449Z</time></trkpt><trkpt lat="42.9109754" lon="11.8909823"><ele>652.0</ele><time>2026-04-09T10:40:31.439Z</time></trkpt><trkpt lat="42.9110264" lon="11.8911619"><ele>650.3333333333334</ele><time>2026-04-09T10:40:32.433Z</time></trkpt><trkpt lat="42.9110936" lon="11.8913835"><ele>648.6666666666666</ele><time>2026-04-09T10:40:33.436Z</time></trkpt><trkpt lat="42.9111252" lon="11.8915857"><ele>647.0</ele><time>2026-04-09T10:40:34.427Z</time></trkpt><trkpt lat="42.9111542" lon="11.8917483"><ele>646.5</ele><time>2026-04-09T10:40:35.429Z</time></trkpt><trkpt lat="42.9111701" lon="11.8919054"><ele>646.0</ele><time>2026-04-09T10:40:36.435Z</time></trkpt><trkpt lat="42.9111767" lon="11.8921159"><ele>645.5</ele><time>2026-04-09T10:40:37.437Z</time></trkpt><trkpt lat="42.9112162" lon="11.8923348"><ele>645.0</ele><time>2026-04-09T10:40:38.43Z</time></trkpt><trkpt lat="42.9112731" lon="11.8925083"><ele>645.0</ele><time>2026-04-09T10:40:39.432Z</time></trkpt><trkpt lat="42.911322" lon="11.8926766"><ele>645.0</ele><time>2026-04-09T10:40:40.426Z</time></trkpt><trkpt lat="42.9113737" lon="11.8928522"><ele>645.0</ele><time>2026-04-09T10:40:41.433Z</time></trkpt><trkpt lat="42.9114046" lon="11.8930045"><ele>645.0</ele><time>2026-04-09T10:40:42.437Z</time></trkpt><trkpt lat="42.9114345" lon="11.8931603"><ele>645.0</ele><time>2026-04-09T10:40:43.438Z</time></trkpt><trkpt lat="42.9114692" lon="11.8933107"><ele>645.0</ele><time>2026-04-09T10:40:44.421Z</time></trkpt><trkpt lat="42.9114998" lon="11.89345"><ele>645.0</ele><time>2026-04-09T10:40:45.44Z</time></trkpt><trkpt lat="42.9115674" lon="11.8936215"><ele>645.0</ele><time>2026-04-09T10:40:46.42Z</time></trkpt><trkpt lat="42.9116568" lon="11.8938462"><ele>643.3333333333334</ele><time>2026-04-09T10:40:47.602Z</time></trkpt><trkpt lat="42.9118034" lon="11.8941919"><ele>641.6666666666667</ele><time>2026-04-09T10:40:49.435Z</time></trkpt><trkpt lat="42.9118944" lon="11.8943322"><ele>640.0</ele><time>2026-04-09T10:40:50.435Z</time></trkpt><trkpt lat="42.9119861" lon="11.8945029"><ele>639.75</ele><time>2026-04-09T10:40:51.44Z</time></trkpt><trkpt lat="42.9120563" lon="11.894662"><ele>639.5</ele><time>2026-04-09T10:40:52.437Z</time></trkpt><trkpt lat="42.9121075" lon="11.8948083"><ele>639.25</ele><time>2026-04-09T10:40:53.443Z</time></trkpt><trkpt lat="42.9121991" lon="11.8949661"><ele>639.0</ele><time>2026-04-09T10:40:54.439Z</time></trkpt><trkpt lat="42.9122831" lon="11.8951417"><ele>638.0</ele><time>2026-04-09T10:40:55.436Z</time></trkpt><trkpt lat="42.9123507" lon="11.8952648"><ele>637.0</ele><time>2026-04-09T10:40:56.445Z</time></trkpt><trkpt lat="42.9124045" lon="11.8953633"><ele>636.0</ele><time>2026-04-09T10:40:57.443Z</time></trkpt><trkpt lat="42.9124423" lon="11.8954798"><ele>635.0</ele><time>2026-04-09T10:40:58.436Z</time></trkpt><trkpt lat="42.9124653" lon="11.8955614"><ele>634.0</ele><time>2026-04-09T10:40:59.44Z</time></trkpt><trkpt lat="42.91254" lon="11.8956803"><ele>634.0</ele><time>2026-04-09T10:41:01.44Z</time></trkpt><trkpt lat="42.9125565" lon="11.8957709"><ele>634.0</ele><time>2026-04-09T10:41:02.437Z</time></trkpt><trkpt lat="42.9125813" lon="11.8959171"><ele>634.0</ele><time>2026-04-09T10:41:04.427Z</time></trkpt><trkpt lat="42.9126347" lon="11.8959762"><ele>634.0</ele><time>2026-04-09T10:41:08.438Z</time></trkpt><trkpt lat="42.9126735" lon="11.8958868"><ele>634.0</ele><time>2026-04-09T10:41:11.438Z</time></trkpt><trkpt lat="42.9126965" lon="11.8957602"><ele>634.0</ele><time>2026-04-09T10:41:13.436Z</time></trkpt><trkpt lat="42.9127166" lon="11.8956202"><ele>630.8333333333334</ele><time>2026-04-09T10:41:15.434Z</time></trkpt><trkpt lat="42.9127164" lon="11.8955291"><ele>627.6666666666667</ele><time>2026-04-09T10:41:16.433Z</time></trkpt><trkpt lat="42.9127195" lon="11.8953618"><ele>624.5</ele><time>2026-04-09T10:41:18.433Z</time></trkpt><trkpt lat="42.9127243" lon="11.8952636"><ele>621.3333333333334</ele><time>2026-04-09T10:41:19.425Z</time></trkpt><trkpt lat="42.9127227" lon="11.8951643"><ele>618.1666666666666</ele><time>2026-04-09T10:41:20.434Z</time></trkpt><trkpt lat="42.9127249" lon="11.8950655"><ele>615.0</ele><time>2026-04-09T10:41:21.428Z</time></trkpt><trkpt lat="42.9127396" lon="11.8949671"><ele>615.0</ele><time>2026-04-09T10:41:22.431Z</time></trkpt><trkpt lat="42.9127599" lon="11.8948559"><ele>615.0</ele><time>2026-04-09T10:41:23.433Z</time></trkpt><trkpt lat="42.9127877" lon="11.8947702"><ele>615.0</ele><time>2026-04-09T10:41:24.43Z</time></trkpt><trkpt lat="42.9128039" lon="11.8946815"><ele>615.0</ele><time>2026-04-09T10:41:25.427Z</time></trkpt><trkpt lat="42.9128301" lon="11.8945715"><ele>615.0</ele><time>2026-04-09T10:41:26.434Z</time></trkpt><trkpt lat="42.9128558" lon="11.8944579"><ele>615.0</ele><time>2026-04-09T10:41:27.426Z</time></trkpt><trkpt lat="42.9128972" lon="11.8943392"><ele>614.6</ele><time>2026-04-09T10:41:28.439Z</time></trkpt><trkpt lat="42.9129498" lon="11.894219"><ele>614.2</ele><time>2026-04-09T10:41:29.431Z</time></trkpt><trkpt lat="42.9129952" lon="11.8941019"><ele>613.8</ele><time>2026-04-09T10:41:30.449Z</time></trkpt><trkpt lat="42.9130525" lon="11.8939952"><ele>613.4</ele><time>2026-04-09T10:41:31.449Z</time></trkpt><trkpt lat="42.9131156" lon="11.8939003"><ele>613.0</ele><time>2026-04-09T10:41:32.418Z</time></trkpt><trkpt lat="42.9131652" lon="11.893788"><ele>613.0</ele><time>2026-04-09T10:41:33.425Z</time></trkpt><trkpt lat="42.9132313" lon="11.893689"><ele>613.0</ele><time>2026-04-09T10:41:34.428Z</time></trkpt><trkpt lat="42.913296" lon="11.8936149"><ele>613.0</ele><time>2026-04-09T10:41:35.42Z</time></trkpt><trkpt lat="42.9133568" lon="11.8935665"><ele>613.0</ele><time>2026-04-09T10:41:36.434Z</time></trkpt><trkpt lat="42.9134087" lon="11.8935158"><ele>613.0</ele><time>2026-04-09T10:41:37.43Z</time></trkpt><trkpt lat="42.9134535" lon="11.8934486"><ele>613.0</ele><time>2026-04-09T10:41:38.43Z</time></trkpt><trkpt lat="42.9134901" lon="11.8933728"><ele>611.3333333333334</ele><time>2026-04-09T10:41:39.427Z</time></trkpt><trkpt lat="42.9135217" lon="11.8931899"><ele>609.6666666666667</ele><time>2026-04-09T10:41:41.43Z</time></trkpt><trkpt lat="42.9135236" lon="11.8930787"><ele>608.0</ele><time>2026-04-09T10:41:42.435Z</time></trkpt><trkpt lat="42.913535" lon="11.8929936"><ele>606.3333333333334</ele><time>2026-04-09T10:41:43.428Z</time></trkpt><trkpt lat="42.9135351" lon="11.8928898"><ele>604.6666666666666</ele><time>2026-04-09T10:41:44.434Z</time></trkpt><trkpt lat="42.9135405" lon="11.8927745"><ele>603.0</ele><time>2026-04-09T10:41:45.427Z</time></trkpt><trkpt lat="42.9135341" lon="11.892649"><ele>604.3333333333334</ele><time>2026-04-09T10:41:46.43Z</time></trkpt><trkpt lat="42.9135166" lon="11.8925108"><ele>605.6666666666666</ele><time>2026-04-09T10:41:47.429Z</time></trkpt><trkpt lat="42.913514" lon="11.8924185"><ele>607.0</ele><time>2026-04-09T10:41:48.431Z</time></trkpt><trkpt lat="42.9135063" lon="11.8923029"><ele>608.3333333333333</ele><time>2026-04-09T10:41:49.424Z</time></trkpt><trkpt lat="42.9134955" lon="11.892198"><ele>609.6666666666666</ele><time>2026-04-09T10:41:50.428Z</time></trkpt><trkpt lat="42.9134771" lon="11.8920798"><ele>611.0</ele><time>2026-04-09T10:41:51.443Z</time></trkpt><trkpt lat="42.9134716" lon="11.8919699"><ele>611.0</ele><time>2026-04-09T10:41:52.424Z</time></trkpt><trkpt lat="42.9134989" lon="11.8918853"><ele>611.0</ele><time>2026-04-09T10:41:53.431Z</time></trkpt><trkpt lat="42.913557" lon="11.8918358"><ele>611.0</ele><time>2026-04-09T10:41:54.43Z</time></trkpt><trkpt lat="42.9136247" lon="11.8918396"><ele>611.0</ele><time>2026-04-09T10:41:55.445Z</time></trkpt><trkpt lat="42.913701" lon="11.8918809"><ele>611.0</ele><time>2026-04-09T10:41:56.436Z</time></trkpt><trkpt lat="42.9137844" lon="11.8919458"><ele>611.0</ele><time>2026-04-09T10:41:57.433Z</time></trkpt><trkpt lat="42.9138741" lon="11.8920357"><ele>611.0</ele><time>2026-04-09T10:41:58.421Z</time></trkpt><trkpt lat="42.9139551" lon="11.8921551"><ele>611.0</ele><time>2026-04-09T10:41:59.44Z</time></trkpt><trkpt lat="42.9140425" lon="11.8922662"><ele>611.0</ele><time>2026-04-09T10:42:00.428Z</time></trkpt><trkpt lat="42.9141191" lon="11.8923823"><ele>611.0</ele><time>2026-04-09T10:42:01.436Z</time></trkpt><trkpt lat="42.9141978" lon="11.8925068"><ele>612.5</ele><time>2026-04-09T10:42:02.439Z</time></trkpt><trkpt lat="42.9142757" lon="11.8926243"><ele>614.0</ele><time>2026-04-09T10:42:03.433Z</time></trkpt><trkpt lat="42.9143536" lon="11.8927299"><ele>615.5</ele><time>2026-04-09T10:42:04.432Z</time></trkpt><trkpt lat="42.9144476" lon="11.8928311"><ele>617.0</ele><time>2026-04-09T10:42:05.429Z</time></trkpt><trkpt lat="42.914547" lon="11.8929176"><ele>617.0</ele><time>2026-04-09T10:42:06.433Z</time></trkpt><trkpt lat="42.9146228" lon="11.8930144"><ele>617.0</ele><time>2026-04-09T10:42:07.434Z</time></trkpt><trkpt lat="42.9147146" lon="11.8931104"><ele>617.0</ele><time>2026-04-09T10:42:08.439Z</time></trkpt><trkpt lat="42.9148214" lon="11.8931762"><ele>617.0</ele><time>2026-04-09T10:42:09.453Z</time></trkpt><trkpt lat="42.9149087" lon="11.8932426"><ele>617.0</ele><time>2026-04-09T10:42:10.596Z</time></trkpt><trkpt lat="42.9151141" lon="11.8933714"><ele>615.5</ele><time>2026-04-09T10:42:12.431Z</time></trkpt><trkpt lat="42.9152312" lon="11.8934346"><ele>614.0</ele><time>2026-04-09T10:42:13.444Z</time></trkpt><trkpt lat="42.9153569" lon="11.8935039"><ele>612.5</ele><time>2026-04-09T10:42:14.442Z</time></trkpt><trkpt lat="42.9154884" lon="11.8935758"><ele>611.0</ele><time>2026-04-09T10:42:15.434Z</time></trkpt><trkpt lat="42.9156215" lon="11.893654"><ele>611.0</ele><time>2026-04-09T10:42:16.439Z</time></trkpt><trkpt lat="42.9157924" lon="11.893811"><ele>611.0</ele><time>2026-04-09T10:42:17.442Z</time></trkpt><trkpt lat="42.9159586" lon="11.8939358"><ele>611.0</ele><time>2026-04-09T10:42:18.459Z</time></trkpt><trkpt lat="42.9160721" lon="11.8940315"><ele>612.1666666666666</ele><time>2026-04-09T10:42:19.431Z</time></trkpt><trkpt lat="42.9161489" lon="11.8941075"><ele>613.3333333333333</ele><time>2026-04-09T10:42:20.462Z</time></trkpt><trkpt lat="42.9162358" lon="11.8941565"><ele>614.5</ele><time>2026-04-09T10:42:21.453Z</time></trkpt><trkpt lat="42.9162996" lon="11.8941841"><ele>615.6666666666666</ele><time>2026-04-09T10:42:22.464Z</time></trkpt><trkpt lat="42.9163816" lon="11.8942006"><ele>616.8333333333334</ele><time>2026-04-09T10:42:23.437Z</time></trkpt><trkpt lat="42.9164672" lon="11.8942272"><ele>618.0</ele><time>2026-04-09T10:42:24.451Z</time></trkpt><trkpt lat="42.9165621" lon="11.8942358"><ele>618.0</ele><time>2026-04-09T10:42:25.443Z</time></trkpt><trkpt lat="42.9166688" lon="11.8942468"><ele>618.0</ele><time>2026-04-09T10:42:26.468Z</time></trkpt><trkpt lat="42.9167791" lon="11.89424"><ele>618.0</ele><time>2026-04-09T10:42:27.458Z</time></trkpt><trkpt lat="42.9168991" lon="11.8942699"><ele>618.0</ele><time>2026-04-09T10:42:28.43Z</time></trkpt><trkpt lat="42.9170141" lon="11.8942937"><ele>615.25</ele><time>2026-04-09T10:42:29.437Z</time></trkpt><trkpt lat="42.9171584" lon="11.8943208"><ele>612.5</ele><time>2026-04-09T10:42:30.427Z</time></trkpt><trkpt lat="42.9173042" lon="11.8943627"><ele>609.75</ele><time>2026-04-09T10:42:31.434Z</time></trkpt><trkpt lat="42.9174422" lon="11.8944168"><ele>607.0</ele><time>2026-04-09T10:42:32.433Z</time></trkpt><trkpt lat="42.9175385" lon="11.8944618"><ele>609.0</ele><time>2026-04-09T10:42:33.433Z</time></trkpt><trkpt lat="42.9176526" lon="11.8945048"><ele>611.0</ele><time>2026-04-09T10:42:34.419Z</time></trkpt><trkpt lat="42.917771" lon="11.8944969"><ele>613.0</ele><time>2026-04-09T10:42:35.428Z</time></trkpt><trkpt lat="42.9178663" lon="11.8944726"><ele>615.0</ele><time>2026-04-09T10:42:36.428Z</time></trkpt><trkpt lat="42.9179748" lon="11.8944198"><ele>617.0</ele><time>2026-04-09T10:42:37.449Z</time></trkpt><trkpt lat="42.9180664" lon="11.8943772"><ele>617.0</ele><time>2026-04-09T10:42:38.459Z</time></trkpt><trkpt lat="42.9181573" lon="11.894318"><ele>617.0</ele><time>2026-04-09T10:42:39.454Z</time></trkpt><trkpt lat="42.9182465" lon="11.8942311"><ele>617.0</ele><time>2026-04-09T10:42:40.453Z</time></trkpt><trkpt lat="42.9183294" lon="11.8941559"><ele>617.0</ele><time>2026-04-09T10:42:41.433Z</time></trkpt><trkpt lat="42.9183978" lon="11.8941064"><ele>617.0</ele><time>2026-04-09T10:42:42.458Z</time></trkpt><trkpt lat="42.9184954" lon="11.8940048"><ele>617.0</ele><time>2026-04-09T10:42:44.456Z</time></trkpt><trkpt lat="42.9185419" lon="11.8939407"><ele>617.0</ele><time>2026-04-09T10:42:45.43Z</time></trkpt><trkpt lat="42.9185697" lon="11.8938477"><ele>617.0</ele><time>2026-04-09T10:42:46.444Z</time></trkpt><trkpt lat="42.9185857" lon="11.8937492"><ele>617.0</ele><time>2026-04-09T10:42:47.429Z</time></trkpt><trkpt lat="42.918592" lon="11.8936426"><ele>617.0</ele><time>2026-04-09T10:42:48.427Z</time></trkpt><trkpt lat="42.9185976" lon="11.893533"><ele>617.0</ele><time>2026-04-09T10:42:49.434Z</time></trkpt><trkpt lat="42.9186081" lon="11.8934201"><ele>617.0</ele><time>2026-04-09T10:42:50.436Z</time></trkpt><trkpt lat="42.9186147" lon="11.8932837"><ele>617.0</ele><time>2026-04-09T10:42:51.423Z</time></trkpt><trkpt lat="42.9186199" lon="11.8931359"><ele>617.0</ele><time>2026-04-09T10:42:52.434Z</time></trkpt><trkpt lat="42.9186355" lon="11.8930046"><ele>617.0</ele><time>2026-04-09T10:42:53.427Z</time></trkpt><trkpt lat="42.9186509" lon="11.8928584"><ele>617.0</ele><time>2026-04-09T10:42:54.432Z</time></trkpt><trkpt lat="42.9186663" lon="11.8927196"><ele>617.0</ele><time>2026-04-09T10:42:55.431Z</time></trkpt><trkpt lat="42.9186978" lon="11.8925967"><ele>617.0</ele><time>2026-04-09T10:42:56.427Z</time></trkpt><trkpt lat="42.9187344" lon="11.8924592"><ele>617.0</ele><time>2026-04-09T10:42:57.43Z</time></trkpt><trkpt lat="42.918774" lon="11.8923223"><ele>617.0</ele><time>2026-04-09T10:42:58.453Z</time></trkpt><trkpt lat="42.9188279" lon="11.8922008"><ele>617.0</ele><time>2026-04-09T10:42:59.457Z</time></trkpt><trkpt lat="42.9188833" lon="11.8920799"><ele>617.8000000000001</ele><time>2026-04-09T10:43:00.455Z</time></trkpt><trkpt lat="42.9189314" lon="11.8919466"><ele>618.6</ele><time>2026-04-09T10:43:01.592Z</time></trkpt><trkpt lat="42.9190343" lon="11.8917686"><ele>619.4000000000001</ele><time>2026-04-09T10:43:03.427Z</time></trkpt><trkpt lat="42.9190864" lon="11.891717"><ele>620.2</ele><time>2026-04-09T10:43:04.434Z</time></trkpt><trkpt lat="42.9191413" lon="11.8916508"><ele>621.0</ele><time>2026-04-09T10:43:06.437Z</time></trkpt><trkpt lat="42.9192082" lon="11.8916683"><ele>619.2</ele><time>2026-04-09T10:43:09.433Z</time></trkpt><trkpt lat="42.9192649" lon="11.8916109"><ele>617.4000000000001</ele><time>2026-04-09T10:43:11.433Z</time></trkpt><trkpt lat="42.9193003" lon="11.8915396"><ele>615.6</ele><time>2026-04-09T10:43:12.437Z</time></trkpt><trkpt lat="42.9193536" lon="11.8914687"><ele>613.8000000000001</ele><time>2026-04-09T10:43:13.43Z</time></trkpt><trkpt lat="42.919438" lon="11.8913734"><ele>612.0</ele><time>2026-04-09T10:43:14.438Z</time></trkpt><trkpt lat="42.9195415" lon="11.8912588"><ele>612.0</ele><time>2026-04-09T10:43:15.435Z</time></trkpt><trkpt lat="42.9196346" lon="11.8911625"><ele>612.0</ele><time>2026-04-09T10:43:16.424Z</time></trkpt><trkpt lat="42.9197298" lon="11.8910781"><ele>612.0</ele><time>2026-04-09T10:43:17.429Z</time></trkpt><trkpt lat="42.91984" lon="11.8910023"><ele>612.0</ele><time>2026-04-09T10:43:18.43Z</time></trkpt><trkpt lat="42.9199778" lon="11.8909705"><ele>611.3333333333334</ele><time>2026-04-09T10:43:19.424Z</time></trkpt><trkpt lat="42.9201319" lon="11.8909436"><ele>610.6666666666667</ele><time>2026-04-09T10:43:20.428Z</time></trkpt><trkpt lat="42.9203196" lon="11.8908745"><ele>610.0</ele><time>2026-04-09T10:43:21.433Z</time></trkpt><trkpt lat="42.9205243" lon="11.8908199"><ele>611.3333333333334</ele><time>2026-04-09T10:43:22.429Z</time></trkpt><trkpt lat="42.9207399" lon="11.8907863"><ele>612.6666666666666</ele><time>2026-04-09T10:43:23.429Z</time></trkpt><trkpt lat="42.9209222" lon="11.8907692"><ele>614.0</ele><time>2026-04-09T10:43:24.426Z</time></trkpt><trkpt lat="42.9210487" lon="11.8906931"><ele>614.0</ele><time>2026-04-09T10:43:25.434Z</time></trkpt><trkpt lat="42.9212083" lon="11.8906239"><ele>614.0</ele><time>2026-04-09T10:43:26.431Z</time></trkpt><trkpt lat="42.9213288" lon="11.8905484"><ele>614.0</ele><time>2026-04-09T10:43:27.425Z</time></trkpt><trkpt lat="42.9214355" lon="11.8904121"><ele>614.0</ele><time>2026-04-09T10:43:28.427Z</time></trkpt><trkpt lat="42.9215295" lon="11.8902137"><ele>617.6666666666666</ele><time>2026-04-09T10:43:29.582Z</time></trkpt><trkpt lat="42.9217063" lon="11.889915"><ele>621.3333333333334</ele><time>2026-04-09T10:43:31.448Z</time></trkpt><trkpt lat="42.9217787" lon="11.8897697"><ele>625.0</ele><time>2026-04-09T10:43:32.429Z</time></trkpt><trkpt lat="42.9218407" lon="11.8896479"><ele>625.0</ele><time>2026-04-09T10:43:33.435Z</time></trkpt><trkpt lat="42.9218861" lon="11.8895222"><ele>625.0</ele><time>2026-04-09T10:43:34.427Z</time></trkpt><trkpt lat="42.9219238" lon="11.8894002"><ele>625.0</ele><time>2026-04-09T10:43:35.433Z</time></trkpt><trkpt lat="42.9219534" lon="11.8892772"><ele>625.0</ele><time>2026-04-09T10:43:36.444Z</time></trkpt><trkpt lat="42.9219894" lon="11.8891595"><ele>625.0</ele><time>2026-04-09T10:43:37.43Z</time></trkpt><trkpt lat="42.9220455" lon="11.8890425"><ele>628.75</ele><time>2026-04-09T10:43:38.423Z</time></trkpt><trkpt lat="42.9221124" lon="11.8889207"><ele>632.5</ele><time>2026-04-09T10:43:39.42Z</time></trkpt><trkpt lat="42.9222215" lon="11.8888498"><ele>636.25</ele><time>2026-04-09T10:43:40.428Z</time></trkpt><trkpt lat="42.9223676" lon="11.8888395"><ele>640.0</ele><time>2026-04-09T10:43:41.429Z</time></trkpt><trkpt lat="42.9225016" lon="11.8888521"><ele>641.25</ele><time>2026-04-09T10:43:42.431Z</time></trkpt><trkpt lat="42.9226386" lon="11.88891"><ele>642.5</ele><time>2026-04-09T10:43:43.425Z</time></trkpt><trkpt lat="42.9227527" lon="11.8890477"><ele>643.75</ele><time>2026-04-09T10:43:44.436Z</time></trkpt><trkpt lat="42.9228492" lon="11.889181"><ele>645.0</ele><time>2026-04-09T10:43:45.428Z</time></trkpt><trkpt lat="42.922924" lon="11.8892795"><ele>645.0</ele><time>2026-04-09T10:43:46.424Z</time></trkpt><trkpt lat="42.9230059" lon="11.8893352"><ele>645.0</ele><time>2026-04-09T10:43:47.439Z</time></trkpt><trkpt lat="42.9230992" lon="11.8893127"><ele>645.0</ele><time>2026-04-09T10:43:48.427Z</time></trkpt><trkpt lat="42.9231946" lon="11.8892289"><ele>645.0</ele><time>2026-04-09T10:43:49.421Z</time></trkpt><trkpt lat="42.9232789" lon="11.8891252"><ele>645.0</ele><time>2026-04-09T10:43:50.424Z</time></trkpt><trkpt lat="42.9233435" lon="11.8890101"><ele>645.0</ele><time>2026-04-09T10:43:51.418Z</time></trkpt><trkpt lat="42.923375" lon="11.8888703"><ele>645.0</ele><time>2026-04-09T10:43:52.454Z</time></trkpt><trkpt lat="42.9233617" lon="11.8887302"><ele>645.0</ele><time>2026-04-09T10:43:53.446Z</time></trkpt><trkpt lat="42.9233205" lon="11.8885862"><ele>645.0</ele><time>2026-04-09T10:43:54.454Z</time></trkpt><trkpt lat="42.9232474" lon="11.8884694"><ele>645.0</ele><time>2026-04-09T10:43:55.431Z</time></trkpt><trkpt lat="42.9231589" lon="11.8883687"><ele>646.75</ele><time>2026-04-09T10:43:56.43Z</time></trkpt><trkpt lat="42.923078" lon="11.8882928"><ele>648.5</ele><time>2026-04-09T10:43:57.426Z</time></trkpt><trkpt lat="42.9229942" lon="11.8882003"><ele>650.25</ele><time>2026-04-09T10:43:58.416Z</time></trkpt><trkpt lat="42.9228973" lon="11.8881097"><ele>652.0</ele><time>2026-04-09T10:43:59.428Z</time></trkpt><trkpt lat="42.9227576" lon="11.8879996"><ele>652.0</ele><time>2026-04-09T10:44:00.427Z</time></trkpt><trkpt lat="42.922592" lon="11.8878898"><ele>652.0</ele><time>2026-04-09T10:44:01.424Z</time></trkpt><trkpt lat="42.9223631" lon="11.8877385"><ele>652.0</ele><time>2026-04-09T10:44:02.427Z</time></trkpt><trkpt lat="42.9221196" lon="11.8875998"><ele>655.3333333333334</ele><time>2026-04-09T10:44:03.432Z</time></trkpt><trkpt lat="42.9219114" lon="11.8874728"><ele>658.6666666666666</ele><time>2026-04-09T10:44:04.427Z</time></trkpt><trkpt lat="42.9216997" lon="11.887418"><ele>662.0</ele><time>2026-04-09T10:44:05.416Z</time></trkpt><trkpt lat="42.9214739" lon="11.8873912"><ele>662.0</ele><time>2026-04-09T10:44:06.426Z</time></trkpt><trkpt lat="42.9212311" lon="11.8873683"><ele>662.0</ele><time>2026-04-09T10:44:07.425Z</time></trkpt><trkpt lat="42.9209785" lon="11.887317"><ele>664.5</ele><time>2026-04-09T10:44:08.426Z</time></trkpt><trkpt lat="42.9207487" lon="11.8872381"><ele>667.0</ele><time>2026-04-09T10:44:09.422Z</time></trkpt><trkpt lat="42.9204714" lon="11.887138"><ele>667.0</ele><time>2026-04-09T10:44:10.427Z</time></trkpt><trkpt lat="42.9202235" lon="11.887076"><ele>667.0</ele><time>2026-04-09T10:44:11.425Z</time></trkpt><trkpt lat="42.920007" lon="11.8870325"><ele>671.5</ele><time>2026-04-09T10:44:12.433Z</time></trkpt><trkpt lat="42.9197823" lon="11.8869708"><ele>676.0</ele><time>2026-04-09T10:44:13.435Z</time></trkpt><trkpt lat="42.919555" lon="11.886904"><ele>676.0</ele><time>2026-04-09T10:44:14.43Z</time></trkpt><trkpt lat="42.9193277" lon="11.8868713"><ele>676.0</ele><time>2026-04-09T10:44:15.435Z</time></trkpt><trkpt lat="42.9190748" lon="11.8868253"><ele>678.0</ele><time>2026-04-09T10:44:16.429Z</time></trkpt><trkpt lat="42.9188342" lon="11.8867778"><ele>680.0</ele><time>2026-04-09T10:44:17.425Z</time></trkpt><trkpt lat="42.9186326" lon="11.8867216"><ele>682.0</ele><time>2026-04-09T10:44:18.447Z</time></trkpt><trkpt lat="42.9184345" lon="11.8866873"><ele>686.6666666666667</ele><time>2026-04-09T10:44:19.455Z</time></trkpt><trkpt lat="42.9182248" lon="11.886638"><ele>691.3333333333334</ele><time>2026-04-09T10:44:20.424Z</time></trkpt><trkpt lat="42.9180208" lon="11.8865659"><ele>696.0</ele><time>2026-04-09T10:44:21.434Z</time></trkpt><trkpt lat="42.9178195" lon="11.8864939"><ele>696.0</ele><time>2026-04-09T10:44:22.425Z</time></trkpt><trkpt lat="42.9176532" lon="11.8864639"><ele>696.0</ele><time>2026-04-09T10:44:23.43Z</time></trkpt><trkpt lat="42.9174734" lon="11.8864123"><ele>696.0</ele><time>2026-04-09T10:44:24.455Z</time></trkpt><trkpt lat="42.9173093" lon="11.8863047"><ele>697.0</ele><time>2026-04-09T10:44:25.473Z</time></trkpt><trkpt lat="42.9171438" lon="11.8861933"><ele>698.0</ele><time>2026-04-09T10:44:26.457Z</time></trkpt><trkpt lat="42.9169907" lon="11.8860624"><ele>699.0</ele><time>2026-04-09T10:44:27.45Z</time></trkpt><trkpt lat="42.9168457" lon="11.8858996"><ele>702.0</ele><time>2026-04-09T10:44:28.43Z</time></trkpt><trkpt lat="42.9167277" lon="11.8857432"><ele>705.0</ele><time>2026-04-09T10:44:29.431Z</time></trkpt><trkpt lat="42.9166372" lon="11.8855499"><ele>708.0</ele><time>2026-04-09T10:44:30.431Z</time></trkpt><trkpt lat="42.9165647" lon="11.8853386"><ele>715.0</ele><time>2026-04-09T10:44:31.433Z</time></trkpt><trkpt lat="42.9164988" lon="11.8850838"><ele>722.0</ele><time>2026-04-09T10:44:32.432Z</time></trkpt><trkpt lat="42.916429" lon="11.8848908"><ele>729.0</ele><time>2026-04-09T10:44:33.436Z</time></trkpt><trkpt lat="42.9163313" lon="11.8847849"><ele>729.0</ele><time>2026-04-09T10:44:34.429Z</time></trkpt><trkpt lat="42.9162328" lon="11.8846874"><ele>729.0</ele><time>2026-04-09T10:44:35.423Z</time></trkpt><trkpt lat="42.9161056" lon="11.8846495"><ele>729.0</ele><time>2026-04-09T10:44:36.426Z</time></trkpt><trkpt lat="42.9159559" lon="11.8846834"><ele>729.0</ele><time>2026-04-09T10:44:37.428Z</time></trkpt><trkpt lat="42.9158013" lon="11.8847237"><ele>727.75</ele><time>2026-04-09T10:44:38.433Z</time></trkpt><trkpt lat="42.9156387" lon="11.8847343"><ele>726.5</ele><time>2026-04-09T10:44:39.434Z</time></trkpt><trkpt lat="42.9154944" lon="11.884711"><ele>725.25</ele><time>2026-04-09T10:44:40.431Z</time></trkpt><trkpt lat="42.9153952" lon="11.8846517"><ele>724.0</ele><time>2026-04-09T10:44:41.434Z</time></trkpt><trkpt lat="42.9152955" lon="11.8845399"><ele>724.0</ele><time>2026-04-09T10:44:42.452Z</time></trkpt><trkpt lat="42.9152367" lon="11.8843567"><ele>724.0</ele><time>2026-04-09T10:44:43.427Z</time></trkpt><trkpt lat="42.9152128" lon="11.8840791"><ele>724.0</ele><time>2026-04-09T10:44:44.435Z</time></trkpt><trkpt lat="42.9152067" lon="11.8837866"><ele>730.3333333333334</ele><time>2026-04-09T10:44:45.431Z</time></trkpt><trkpt lat="42.91522" lon="11.8835246"><ele>736.6666666666666</ele><time>2026-04-09T10:44:46.431Z</time></trkpt><trkpt lat="42.9152248" lon="11.8832157"><ele>743.0</ele><time>2026-04-09T10:44:47.435Z</time></trkpt><trkpt lat="42.9152016" lon="11.8829671"><ele>746.75</ele><time>2026-04-09T10:44:48.427Z</time></trkpt><trkpt lat="42.9152006" lon="11.88275"><ele>750.5</ele><time>2026-04-09T10:44:49.429Z</time></trkpt><trkpt lat="42.9152297" lon="11.8825443"><ele>754.25</ele><time>2026-04-09T10:44:50.429Z</time></trkpt><trkpt lat="42.9152106" lon="11.8824041"><ele>758.0</ele><time>2026-04-09T10:44:51.424Z</time></trkpt><trkpt lat="42.9151639" lon="11.8823153"><ele>758.25</ele><time>2026-04-09T10:44:52.425Z</time></trkpt><trkpt lat="42.9150222" lon="11.8823418"><ele>758.5</ele><time>2026-04-09T10:44:54.424Z</time></trkpt><trkpt lat="42.9148985" lon="11.8824109"><ele>758.75</ele><time>2026-04-09T10:44:55.433Z</time></trkpt><trkpt lat="42.9147929" lon="11.8824471"><ele>759.0</ele><time>2026-04-09T10:44:56.423Z</time></trkpt><trkpt lat="42.9146703" lon="11.8825033"><ele>759.0</ele><time>2026-04-09T10:44:57.451Z</time></trkpt><trkpt lat="42.9145515" lon="11.8825421"><ele>759.0</ele><time>2026-04-09T10:44:58.425Z</time></trkpt><trkpt lat="42.9144633" lon="11.8825117"><ele>759.0</ele><time>2026-04-09T10:44:59.439Z</time></trkpt><trkpt lat="42.9143884" lon="11.8824407"><ele>759.0</ele><time>2026-04-09T10:45:00.448Z</time></trkpt><trkpt lat="42.9143361" lon="11.8823178"><ele>759.0</ele><time>2026-04-09T10:45:01.417Z</time></trkpt><trkpt lat="42.914305" lon="11.882162"><ele>759.0</ele><time>2026-04-09T10:45:02.431Z</time></trkpt><trkpt lat="42.9142988" lon="11.8819686"><ele>759.0</ele><time>2026-04-09T10:45:03.424Z</time></trkpt><trkpt lat="42.9143105" lon="11.8817636"><ele>759.0</ele><time>2026-04-09T10:45:04.421Z</time></trkpt><trkpt lat="42.9143364" lon="11.8815435"><ele>765.6666666666667</ele><time>2026-04-09T10:45:05.426Z</time></trkpt><trkpt lat="42.9143667" lon="11.8812778"><ele>772.3333333333334</ele><time>2026-04-09T10:45:06.412Z</time></trkpt><trkpt lat="42.914402" lon="11.8810092"><ele>779.0</ele><time>2026-04-09T10:45:07.416Z</time></trkpt><trkpt lat="42.91446" lon="11.8808017"><ele>782.25</ele><time>2026-04-09T10:45:08.414Z</time></trkpt><trkpt lat="42.9145011" lon="11.8805653"><ele>785.5</ele><time>2026-04-09T10:45:09.415Z</time></trkpt><trkpt lat="42.9145231" lon="11.8803816"><ele>788.75</ele><time>2026-04-09T10:45:10.422Z</time></trkpt><trkpt lat="42.9145594" lon="11.8802484"><ele>792.0</ele><time>2026-04-09T10:45:11.413Z</time></trkpt><trkpt lat="42.9146393" lon="11.8801583"><ele>791.25</ele><time>2026-04-09T10:45:12.414Z</time></trkpt><trkpt lat="42.9147512" lon="11.8800717"><ele>790.5</ele><time>2026-04-09T10:45:13.419Z</time></trkpt><trkpt lat="42.9148645" lon="11.8799769"><ele>789.75</ele><time>2026-04-09T10:45:14.417Z</time></trkpt><trkpt lat="42.9149434" lon="11.8798829"><ele>789.0</ele><time>2026-04-09T10:45:15.421Z</time></trkpt><trkpt lat="42.9150385" lon="11.8797815"><ele>789.4000000000001</ele><time>2026-04-09T10:45:16.416Z</time></trkpt><trkpt lat="42.9151024" lon="11.8796621"><ele>789.8</ele><time>2026-04-09T10:45:17.416Z</time></trkpt><trkpt lat="42.9151172" lon="11.8795172"><ele>790.2</ele><time>2026-04-09T10:45:18.44Z</time></trkpt><trkpt lat="42.9151007" lon="11.8793732"><ele>790.5999999999999</ele><time>2026-04-09T10:45:19.418Z</time></trkpt><trkpt lat="42.915044" lon="11.879224"><ele>791.0</ele><time>2026-04-09T10:45:20.418Z</time></trkpt><trkpt lat="42.9149282" lon="11.8790849"><ele>791.0</ele><time>2026-04-09T10:45:21.424Z</time></trkpt><trkpt lat="42.914791" lon="11.8789764"><ele>791.0</ele><time>2026-04-09T10:45:22.409Z</time></trkpt><trkpt lat="42.914662" lon="11.878877"><ele>791.0</ele><time>2026-04-09T10:45:23.417Z</time></trkpt><trkpt lat="42.9145431" lon="11.8787295"><ele>791.0</ele><time>2026-04-09T10:45:24.42Z</time></trkpt><trkpt lat="42.9144045" lon="11.8784967"><ele>791.0</ele><time>2026-04-09T10:45:25.409Z</time></trkpt><trkpt lat="42.9142452" lon="11.8783066"><ele>791.0</ele><time>2026-04-09T10:45:26.414Z</time></trkpt><trkpt lat="42.914109" lon="11.8780889"><ele>792.3333333333334</ele><time>2026-04-09T10:45:27.42Z</time></trkpt><trkpt lat="42.9140029" lon="11.8779231"><ele>793.6666666666667</ele><time>2026-04-09T10:45:28.414Z</time></trkpt><trkpt lat="42.9139106" lon="11.8777141"><ele>795.0</ele><time>2026-04-09T10:45:29.409Z</time></trkpt><trkpt lat="42.9138378" lon="11.8775752"><ele>795.6</ele><time>2026-04-09T10:45:30.416Z</time></trkpt><trkpt lat="42.9137978" lon="11.8774391"><ele>796.2</ele><time>2026-04-09T10:45:31.417Z</time></trkpt><trkpt lat="42.9137775" lon="11.877319"><ele>796.8</ele><time>2026-04-09T10:45:32.412Z</time></trkpt><trkpt lat="42.9137856" lon="11.8772064"><ele>797.4</ele><time>2026-04-09T10:45:33.419Z</time></trkpt><trkpt lat="42.9138284" lon="11.8770756"><ele>798.0</ele><time>2026-04-09T10:45:34.415Z</time></trkpt><trkpt lat="42.9138711" lon="11.8769212"><ele>798.0</ele><time>2026-04-09T10:45:35.417Z</time></trkpt><trkpt lat="42.9138976" lon="11.876795"><ele>798.0</ele><time>2026-04-09T10:45:36.412Z</time></trkpt><trkpt lat="42.9139123" lon="11.8766409"><ele>798.0</ele><time>2026-04-09T10:45:37.415Z</time></trkpt><trkpt lat="42.9139185" lon="11.8764741"><ele>798.0</ele><time>2026-04-09T10:45:38.42Z</time></trkpt><trkpt lat="42.913921" lon="11.8762989"><ele>799.3333333333333</ele><time>2026-04-09T10:45:39.415Z</time></trkpt><trkpt lat="42.9139036" lon="11.8761064"><ele>800.6666666666666</ele><time>2026-04-09T10:45:40.421Z</time></trkpt><trkpt lat="42.9138844" lon="11.8759051"><ele>802.0</ele><time>2026-04-09T10:45:41.414Z</time></trkpt><trkpt lat="42.9138867" lon="11.8756626"><ele>802.25</ele><time>2026-04-09T10:45:42.421Z</time></trkpt><trkpt lat="42.9138853" lon="11.8754393"><ele>802.5</ele><time>2026-04-09T10:45:43.421Z</time></trkpt><trkpt lat="42.9138483" lon="11.875248"><ele>802.75</ele><time>2026-04-09T10:45:44.415Z</time></trkpt><trkpt lat="42.9138248" lon="11.875115"><ele>803.0</ele><time>2026-04-09T10:45:45.425Z</time></trkpt><trkpt lat="42.9138197" lon="11.8749902"><ele>803.0</ele><time>2026-04-09T10:45:46.419Z</time></trkpt><trkpt lat="42.9138163" lon="11.8748531"><ele>803.0</ele><time>2026-04-09T10:45:47.441Z</time></trkpt><trkpt lat="42.913848" lon="11.8747028"><ele>803.0</ele><time>2026-04-09T10:45:48.451Z</time></trkpt><trkpt lat="42.9139024" lon="11.8745948"><ele>803.0</ele><time>2026-04-09T10:45:49.45Z</time></trkpt><trkpt lat="42.9139477" lon="11.8744804"><ele>803.0</ele><time>2026-04-09T10:45:50.448Z</time></trkpt><trkpt lat="42.9139952" lon="11.8743649"><ele>802.8</ele><time>2026-04-09T10:45:51.439Z</time></trkpt><trkpt lat="42.9140634" lon="11.8742665"><ele>802.5999999999999</ele><time>2026-04-09T10:45:52.441Z</time></trkpt><trkpt lat="42.9141501" lon="11.8741814"><ele>802.4000000000001</ele><time>2026-04-09T10:45:53.422Z</time></trkpt><trkpt lat="42.9142364" lon="11.8741073"><ele>802.2</ele><time>2026-04-09T10:45:54.416Z</time></trkpt><trkpt lat="42.9143201" lon="11.8740409"><ele>802.0</ele><time>2026-04-09T10:45:55.419Z</time></trkpt><trkpt lat="42.9144208" lon="11.8739808"><ele>805.5</ele><time>2026-04-09T10:45:56.423Z</time></trkpt><trkpt lat="42.9145238" lon="11.8738895"><ele>809.0</ele><time>2026-04-09T10:45:57.414Z</time></trkpt><trkpt lat="42.9146222" lon="11.8737756"><ele>812.5</ele><time>2026-04-09T10:45:58.417Z</time></trkpt><trkpt lat="42.914723" lon="11.8736671"><ele>816.0</ele><time>2026-04-09T10:45:59.42Z</time></trkpt><trkpt lat="42.9148069" lon="11.8735582"><ele>816.0</ele><time>2026-04-09T10:46:00.411Z</time></trkpt><trkpt lat="42.9148883" lon="11.8734447"><ele>816.0</ele><time>2026-04-09T10:46:01.419Z</time></trkpt><trkpt lat="42.9149703" lon="11.873362"><ele>816.0</ele><time>2026-04-09T10:46:02.421Z</time></trkpt><trkpt lat="42.915072" lon="11.8733192"><ele>816.0</ele><time>2026-04-09T10:46:03.411Z</time></trkpt><trkpt lat="42.9151662" lon="11.8732649"><ele>816.0</ele><time>2026-04-09T10:46:04.418Z</time></trkpt><trkpt lat="42.9152755" lon="11.8732511"><ele>817.4</ele><time>2026-04-09T10:46:05.42Z</time></trkpt><trkpt lat="42.9153774" lon="11.87325"><ele>818.8</ele><time>2026-04-09T10:46:06.416Z</time></trkpt><trkpt lat="42.9154888" lon="11.8732441"><ele>820.1999999999999</ele><time>2026-04-09T10:46:07.416Z</time></trkpt><trkpt lat="42.9155997" lon="11.8732444"><ele>821.5999999999999</ele><time>2026-04-09T10:46:08.419Z</time></trkpt><trkpt lat="42.9156906" lon="11.8732195"><ele>823.0</ele><time>2026-04-09T10:46:09.407Z</time></trkpt><trkpt lat="42.9157752" lon="11.8731579"><ele>823.0</ele><time>2026-04-09T10:46:10.408Z</time></trkpt><trkpt lat="42.9158576" lon="11.8730964"><ele>823.0</ele><time>2026-04-09T10:46:11.413Z</time></trkpt><trkpt lat="42.9159568" lon="11.8730406"><ele>823.0</ele><time>2026-04-09T10:46:12.413Z</time></trkpt><trkpt lat="42.9160536" lon="11.8729813"><ele>823.0</ele><time>2026-04-09T10:46:13.412Z</time></trkpt><trkpt lat="42.9161558" lon="11.8729051"><ele>823.0</ele><time>2026-04-09T10:46:14.416Z</time></trkpt><trkpt lat="42.9162463" lon="11.8728013"><ele>821.25</ele><time>2026-04-09T10:46:15.419Z</time></trkpt><trkpt lat="42.9163432" lon="11.8726892"><ele>819.5</ele><time>2026-04-09T10:46:16.443Z</time></trkpt><trkpt lat="42.9164372" lon="11.8725539"><ele>817.75</ele><time>2026-04-09T10:46:17.419Z</time></trkpt><trkpt lat="42.9165223" lon="11.8724242"><ele>816.0</ele><time>2026-04-09T10:46:18.425Z</time></trkpt><trkpt lat="42.916594" lon="11.8723043"><ele>816.0</ele><time>2026-04-09T10:46:19.421Z</time></trkpt><trkpt lat="42.9166458" lon="11.872226"><ele>816.0</ele><time>2026-04-09T10:46:20.417Z</time></trkpt><trkpt lat="42.9167115" lon="11.8721033"><ele>816.0</ele><time>2026-04-09T10:46:22.417Z</time></trkpt><trkpt lat="42.9167742" lon="11.8720615"><ele>816.0</ele><time>2026-04-09T10:46:24.42Z</time></trkpt><trkpt lat="42.916861" lon="11.8721027"><ele>816.0</ele><time>2026-04-09T10:46:27.419Z</time></trkpt><trkpt lat="42.9167779" lon="11.8721061"><ele>816.0</ele><time>2026-04-09T10:46:37.442Z</time></trkpt><trkpt lat="42.9167029" lon="11.87216"><ele>816.0</ele><time>2026-04-09T10:46:39.417Z</time></trkpt><trkpt lat="42.9166441" lon="11.8722083"><ele>816.0</ele><time>2026-04-09T10:46:40.424Z</time></trkpt><trkpt lat="42.9165458" lon="11.8722955"><ele>816.0</ele><time>2026-04-09T10:46:42.423Z</time></trkpt><trkpt lat="42.91655" lon="11.8724022"><ele>816.0</ele><time>2026-04-09T10:46:48.419Z</time></trkpt><trkpt lat="42.9166365" lon="11.8724232"><ele>816.0</ele><time>2026-04-09T10:46:50.42Z</time></trkpt><trkpt lat="42.9167025" lon="11.8724307"><ele>816.0</ele><time>2026-04-09T10:46:51.412Z</time></trkpt><trkpt lat="42.9167826" lon="11.8724539"><ele>816.5999999999999</ele><time>2026-04-09T10:46:52.416Z</time></trkpt><trkpt lat="42.9168751" lon="11.8724844"><ele>817.2</ele><time>2026-04-09T10:46:53.423Z</time></trkpt><trkpt lat="42.9169563" lon="11.8725349"><ele>817.8</ele><time>2026-04-09T10:46:54.417Z</time></trkpt><trkpt lat="42.9170499" lon="11.8725996"><ele>818.4000000000001</ele><time>2026-04-09T10:46:55.415Z</time></trkpt><trkpt lat="42.9171391" lon="11.8726692"><ele>819.0</ele><time>2026-04-09T10:46:56.413Z</time></trkpt><trkpt lat="42.9172412" lon="11.8727266"><ele>822.4000000000001</ele><time>2026-04-09T10:46:57.423Z</time></trkpt><trkpt lat="42.9173385" lon="11.872775"><ele>825.8</ele><time>2026-04-09T10:46:58.41Z</time></trkpt><trkpt lat="42.9174339" lon="11.8728139"><ele>829.2</ele><time>2026-04-09T10:46:59.415Z</time></trkpt><trkpt lat="42.9175329" lon="11.8728616"><ele>832.5999999999999</ele><time>2026-04-09T10:47:00.42Z</time></trkpt><trkpt lat="42.9176301" lon="11.8729143"><ele>836.0</ele><time>2026-04-09T10:47:01.412Z</time></trkpt><trkpt lat="42.9177278" lon="11.8729628"><ele>836.1666666666667</ele><time>2026-04-09T10:47:02.414Z</time></trkpt><trkpt lat="42.9178288" lon="11.8730076"><ele>836.3333333333334</ele><time>2026-04-09T10:47:03.418Z</time></trkpt><trkpt lat="42.9179116" lon="11.873046"><ele>836.5</ele><time>2026-04-09T10:47:04.418Z</time></trkpt><trkpt lat="42.9179997" lon="11.8730778"><ele>836.6666666666667</ele><time>2026-04-09T10:47:05.414Z</time></trkpt><trkpt lat="42.9180677" lon="11.8731038"><ele>836.8333333333334</ele><time>2026-04-09T10:47:06.421Z</time></trkpt><trkpt lat="42.918134" lon="11.8731177"><ele>837.0</ele><time>2026-04-09T10:47:07.411Z</time></trkpt><trkpt lat="42.9182062" lon="11.8731242"><ele>837.0</ele><time>2026-04-09T10:47:08.413Z</time></trkpt><trkpt lat="42.9182859" lon="11.8731152"><ele>837.0</ele><time>2026-04-09T10:47:09.418Z</time></trkpt><trkpt lat="42.9183673" lon="11.8731115"><ele>837.0</ele><time>2026-04-09T10:47:10.412Z</time></trkpt><trkpt lat="42.918456" lon="11.8731215"><ele>837.0</ele><time>2026-04-09T10:47:11.415Z</time></trkpt><trkpt lat="42.918571" lon="11.8731317"><ele>837.0</ele><time>2026-04-09T10:47:12.412Z</time></trkpt><trkpt lat="42.9186779" lon="11.8731298"><ele>837.6666666666666</ele><time>2026-04-09T10:47:13.417Z</time></trkpt><trkpt lat="42.9187734" lon="11.8731314"><ele>838.3333333333333</ele><time>2026-04-09T10:47:14.414Z</time></trkpt><trkpt lat="42.9188643" lon="11.873117"><ele>839.0</ele><time>2026-04-09T10:47:15.419Z</time></trkpt><trkpt lat="42.9189585" lon="11.873106"><ele>839.6666666666666</ele><time>2026-04-09T10:47:16.415Z</time></trkpt><trkpt lat="42.9190443" lon="11.873116"><ele>840.3333333333333</ele><time>2026-04-09T10:47:17.416Z</time></trkpt><trkpt lat="42.9191214" lon="11.873128"><ele>841.0</ele><time>2026-04-09T10:47:18.419Z</time></trkpt><trkpt lat="42.9192002" lon="11.873164"><ele>841.4999999999999</ele><time>2026-04-09T10:47:19.41Z</time></trkpt><trkpt lat="42.9192865" lon="11.8731889"><ele>842.0</ele><time>2026-04-09T10:47:20.419Z</time></trkpt><trkpt lat="42.919365" lon="11.8732511"><ele>842.5</ele><time>2026-04-09T10:47:21.417Z</time></trkpt><trkpt lat="42.919436" lon="11.8733007"><ele>843.0</ele><time>2026-04-09T10:47:22.404Z</time></trkpt><trkpt lat="42.9195234" lon="11.8733513"><ele>843.4999999999999</ele><time>2026-04-09T10:47:23.425Z</time></trkpt><trkpt lat="42.9196097" lon="11.8733906"><ele>844.0</ele><time>2026-04-09T10:47:24.414Z</time></trkpt><trkpt lat="42.9196859" lon="11.8734075"><ele>846.4999999999999</ele><time>2026-04-09T10:47:25.414Z</time></trkpt><trkpt lat="42.9197607" lon="11.8734564"><ele>849.0</ele><time>2026-04-09T10:47:26.419Z</time></trkpt><trkpt lat="42.9198142" lon="11.8735249"><ele>851.5</ele><time>2026-04-09T10:47:27.416Z</time></trkpt><trkpt lat="42.919876" lon="11.8735707"><ele>854.0</ele><time>2026-04-09T10:47:28.409Z</time></trkpt><trkpt lat="42.9199485" lon="11.8736052"><ele>856.4999999999999</ele><time>2026-04-09T10:47:29.416Z</time></trkpt><trkpt lat="42.9200343" lon="11.8736165"><ele>859.0</ele><time>2026-04-09T10:47:30.414Z</time></trkpt><trkpt lat="42.9201304" lon="11.8736298"><ele>859.2</ele><time>2026-04-09T10:47:31.408Z</time></trkpt><trkpt lat="42.9202393" lon="11.873652"><ele>859.4000000000001</ele><time>2026-04-09T10:47:32.417Z</time></trkpt><trkpt lat="42.9203334" lon="11.8736762"><ele>859.6</ele><time>2026-04-09T10:47:33.411Z</time></trkpt><trkpt lat="42.920429" lon="11.8736962"><ele>859.8</ele><time>2026-04-09T10:47:34.41Z</time></trkpt><trkpt lat="42.9205242" lon="11.8737163"><ele>860.0</ele><time>2026-04-09T10:47:35.418Z</time></trkpt><trkpt lat="42.9206063" lon="11.8737337"><ele>860.0000000000001</ele><time>2026-04-09T10:47:36.418Z</time></trkpt><trkpt lat="42.9206713" lon="11.87373"><ele>860.0</ele><time>2026-04-09T10:47:37.416Z</time></trkpt><trkpt lat="42.9207432" lon="11.8737358"><ele>860.0</ele><time>2026-04-09T10:47:38.413Z</time></trkpt><trkpt lat="42.9208176" lon="11.8737484"><ele>860.0</ele><time>2026-04-09T10:47:39.415Z</time></trkpt><trkpt lat="42.9208951" lon="11.8737404"><ele>860.0000000000001</ele><time>2026-04-09T10:47:40.407Z</time></trkpt><trkpt lat="42.9209878" lon="11.8737547"><ele>860.0</ele><time>2026-04-09T10:47:41.416Z</time></trkpt><trkpt lat="42.921075" lon="11.8737442"><ele>861.0000000000001</ele><time>2026-04-09T10:47:42.409Z</time></trkpt><trkpt lat="42.921155" lon="11.8737289"><ele>862.0</ele><time>2026-04-09T10:47:43.416Z</time></trkpt><trkpt lat="42.9212381" lon="11.8737142"><ele>863.0</ele><time>2026-04-09T10:47:44.41Z</time></trkpt><trkpt lat="42.9213485" lon="11.8736925"><ele>864.0</ele><time>2026-04-09T10:47:45.444Z</time></trkpt><trkpt lat="42.9214107" lon="11.8736383"><ele>865.0000000000001</ele><time>2026-04-09T10:47:46.413Z</time></trkpt><trkpt lat="42.9214609" lon="11.8735625"><ele>866.0</ele><time>2026-04-09T10:47:47.417Z</time></trkpt><trkpt lat="42.9215191" lon="11.8734985"><ele>866.0000000000001</ele><time>2026-04-09T10:47:48.418Z</time></trkpt><trkpt lat="42.9215462" lon="11.8734205"><ele>866.0</ele><time>2026-04-09T10:47:49.418Z</time></trkpt><trkpt lat="42.9215985" lon="11.8733548"><ele>866.0</ele><time>2026-04-09T10:47:51.418Z</time></trkpt><trkpt lat="42.9217067" lon="11.8733407"><ele>866.0</ele><time>2026-04-09T10:47:53.415Z</time></trkpt><trkpt lat="42.9218084" lon="11.8733506"><ele>866.0000000000001</ele><time>2026-04-09T10:47:55.423Z</time></trkpt><trkpt lat="42.921886" lon="11.8732734"><ele>866.0</ele><time>2026-04-09T10:47:57.417Z</time></trkpt><trkpt lat="42.9219256" lon="11.8732009"><ele>866.0</ele><time>2026-04-09T10:47:58.419Z</time></trkpt><trkpt lat="42.9219972" lon="11.8730496"><ele>865.9999999999999</ele><time>2026-04-09T10:48:00.42Z</time></trkpt><trkpt lat="42.9220569" lon="11.8729909"><ele>865.9999999999999</ele><time>2026-04-09T10:48:01.417Z</time></trkpt><trkpt lat="42.9221089" lon="11.8729323"><ele>866.0</ele><time>2026-04-09T10:48:02.424Z</time></trkpt><trkpt lat="42.9222137" lon="11.8728587"><ele>866.0</ele><time>2026-04-09T10:48:04.415Z</time></trkpt><trkpt lat="42.9222877" lon="11.8728358"><ele>866.0000000000001</ele><time>2026-04-09T10:48:05.416Z</time></trkpt><trkpt lat="42.9223654" lon="11.8728026"><ele>866.0</ele><time>2026-04-09T10:48:06.415Z</time></trkpt><trkpt lat="42.9224375" lon="11.8727612"><ele>866.0</ele><time>2026-04-09T10:48:07.414Z</time></trkpt><trkpt lat="42.9224989" lon="11.872712"><ele>866.0</ele><time>2026-04-09T10:48:08.414Z</time></trkpt><trkpt lat="42.9225603" lon="11.872636"><ele>866.0000000000001</ele><time>2026-04-09T10:48:09.414Z</time></trkpt><trkpt lat="42.9226402" lon="11.8725685"><ele>866.0</ele><time>2026-04-09T10:48:10.42Z</time></trkpt><trkpt lat="42.9227162" lon="11.872486"><ele>865.0</ele><time>2026-04-09T10:48:11.416Z</time></trkpt><trkpt lat="42.9228035" lon="11.8724166"><ele>863.9999999999999</ele><time>2026-04-09T10:48:12.412Z</time></trkpt><trkpt lat="42.9228899" lon="11.8723665"><ele>862.9999999999999</ele><time>2026-04-09T10:48:13.414Z</time></trkpt><trkpt lat="42.9229742" lon="11.8723046"><ele>862.0</ele><time>2026-04-09T10:48:14.411Z</time></trkpt><trkpt lat="42.9230596" lon="11.8722517"><ele>861.0</ele><time>2026-04-09T10:48:15.413Z</time></trkpt><trkpt lat="42.9231374" lon="11.8722053"><ele>861.0</ele><time>2026-04-09T10:48:16.413Z</time></trkpt><trkpt lat="42.9232023" lon="11.8721685"><ele>861.0</ele><time>2026-04-09T10:48:17.413Z</time></trkpt><trkpt lat="42.9232798" lon="11.8721227"><ele>861.0</ele><time>2026-04-09T10:48:18.414Z</time></trkpt><trkpt lat="42.923357" lon="11.8720729"><ele>861.0</ele><time>2026-04-09T10:48:19.41Z</time></trkpt><trkpt lat="42.9234296" lon="11.8720452"><ele>861.0</ele><time>2026-04-09T10:48:20.408Z</time></trkpt><trkpt lat="42.9234964" lon="11.8720228"><ele>861.0</ele><time>2026-04-09T10:48:21.407Z</time></trkpt><trkpt lat="42.92358" lon="11.872013"><ele>862.5</ele><time>2026-04-09T10:48:22.404Z</time></trkpt><trkpt lat="42.923655" lon="11.872006"><ele>864.0</ele><time>2026-04-09T10:48:23.426Z</time></trkpt><trkpt lat="42.9237016" lon="11.8719443"><ele>865.5</ele><time>2026-04-09T10:48:24.407Z</time></trkpt><trkpt lat="42.9237369" lon="11.8718075"><ele>867.0</ele><time>2026-04-09T10:48:26.407Z</time></trkpt><trkpt lat="42.9237376" lon="11.8717134"><ele>868.5</ele><time>2026-04-09T10:48:27.413Z</time></trkpt><trkpt lat="42.9237111" lon="11.8716034"><ele>870.0</ele><time>2026-04-09T10:48:28.413Z</time></trkpt><trkpt lat="42.9237009" lon="11.8714952"><ele>870.0</ele><time>2026-04-09T10:48:29.402Z</time></trkpt><trkpt lat="42.9236921" lon="11.8713835"><ele>870.0</ele><time>2026-04-09T10:48:30.421Z</time></trkpt><trkpt lat="42.9236801" lon="11.8712868"><ele>870.0</ele><time>2026-04-09T10:48:31.421Z</time></trkpt><trkpt lat="42.9236571" lon="11.871176"><ele>870.0</ele><time>2026-04-09T10:48:32.41Z</time></trkpt><trkpt lat="42.9236363" lon="11.871076"><ele>870.0</ele><time>2026-04-09T10:48:33.412Z</time></trkpt><trkpt lat="42.9235942" lon="11.87098"><ele>870.0</ele><time>2026-04-09T10:48:34.409Z</time></trkpt><trkpt lat="42.9235436" lon="11.8708729"><ele>869.5</ele><time>2026-04-09T10:48:35.418Z</time></trkpt><trkpt lat="42.9234933" lon="11.8707657"><ele>869.0</ele><time>2026-04-09T10:48:36.439Z</time></trkpt><trkpt lat="42.9234435" lon="11.8706687"><ele>868.5</ele><time>2026-04-09T10:48:37.419Z</time></trkpt><trkpt lat="42.9234162" lon="11.8705825"><ele>868.0</ele><time>2026-04-09T10:48:38.424Z</time></trkpt><trkpt lat="42.923409" lon="11.8704921"><ele>867.5</ele><time>2026-04-09T10:48:39.415Z</time></trkpt><trkpt lat="42.9234238" lon="11.8704061"><ele>867.0</ele><time>2026-04-09T10:48:40.438Z</time></trkpt><trkpt lat="42.9234585" lon="11.8702479"><ele>867.0</ele><time>2026-04-09T10:48:42.411Z</time></trkpt><trkpt lat="42.9235014" lon="11.8701678"><ele>867.0</ele><time>2026-04-09T10:48:43.411Z</time></trkpt><trkpt lat="42.9235741" lon="11.8700902"><ele>867.0</ele><time>2026-04-09T10:48:44.415Z</time></trkpt><trkpt lat="42.9236584" lon="11.8700006"><ele>867.0</ele><time>2026-04-09T10:48:45.41Z</time></trkpt><trkpt lat="42.9237434" lon="11.8699087"><ele>867.0</ele><time>2026-04-09T10:48:46.412Z</time></trkpt><trkpt lat="42.9238299" lon="11.8698309"><ele>864.8</ele><time>2026-04-09T10:48:47.421Z</time></trkpt><trkpt lat="42.9239182" lon="11.8697616"><ele>862.6</ele><time>2026-04-09T10:48:48.41Z</time></trkpt><trkpt lat="42.9240001" lon="11.8696996"><ele>860.3999999999999</ele><time>2026-04-09T10:48:49.413Z</time></trkpt><trkpt lat="42.924066" lon="11.8696529"><ele>858.1999999999999</ele><time>2026-04-09T10:48:50.438Z</time></trkpt><trkpt lat="42.9241238" lon="11.8695982"><ele>856.0</ele><time>2026-04-09T10:48:51.442Z</time></trkpt><trkpt lat="42.9242205" lon="11.8694911"><ele>856.1999999999999</ele><time>2026-04-09T10:48:53.422Z</time></trkpt><trkpt lat="42.9242748" lon="11.8694302"><ele>856.3999999999999</ele><time>2026-04-09T10:48:54.417Z</time></trkpt><trkpt lat="42.9243776" lon="11.8693087"><ele>856.6</ele><time>2026-04-09T10:48:56.318Z</time></trkpt><trkpt lat="42.9244343" lon="11.8692346"><ele>856.8</ele><time>2026-04-09T10:48:57.316Z</time></trkpt><trkpt lat="42.9245327" lon="11.8690919"><ele>857.0</ele><time>2026-04-09T10:48:59.213Z</time></trkpt><trkpt lat="42.9245848" lon="11.8690076"><ele>857.0000000000001</ele><time>2026-04-09T10:49:00.213Z</time></trkpt><trkpt lat="42.9246218" lon="11.868937"><ele>857.0</ele><time>2026-04-09T10:49:01.215Z</time></trkpt><trkpt lat="42.9246685" lon="11.8688635"><ele>857.0</ele><time>2026-04-09T10:49:02.211Z</time></trkpt><trkpt lat="42.9247134" lon="11.8687993"><ele>857.0</ele><time>2026-04-09T10:49:03.217Z</time></trkpt><trkpt lat="42.9247562" lon="11.868657"><ele>857.0000000000001</ele><time>2026-04-09T10:49:05.216Z</time></trkpt><trkpt lat="42.9248072" lon="11.8685075"><ele>857.0</ele><time>2026-04-09T10:49:07.21Z</time></trkpt><trkpt lat="42.9248783" lon="11.8683899"><ele>856.8</ele><time>2026-04-09T10:49:09.219Z</time></trkpt><trkpt lat="42.9249534" lon="11.8682717"><ele>856.6</ele><time>2026-04-09T10:49:11.217Z</time></trkpt><trkpt lat="42.925013" lon="11.86814"><ele>856.3999999999999</ele><time>2026-04-09T10:49:13.232Z</time></trkpt><trkpt lat="42.9250408" lon="11.8680613"><ele>856.1999999999999</ele><time>2026-04-09T10:49:14.229Z</time></trkpt><trkpt lat="42.9250823" lon="11.8679885"><ele>856.0</ele><time>2026-04-09T10:49:15.208Z</time></trkpt><trkpt lat="42.9251488" lon="11.8678314"><ele>855.9999999999999</ele><time>2026-04-09T10:49:17.231Z</time></trkpt><trkpt lat="42.9251854" lon="11.8676723"><ele>856.0</ele><time>2026-04-09T10:49:19.228Z</time></trkpt><trkpt lat="42.9252133" lon="11.8675744"><ele>856.0</ele><time>2026-04-09T10:49:20.209Z</time></trkpt><trkpt lat="42.9252445" lon="11.867483"><ele>856.0</ele><time>2026-04-09T10:49:21.242Z</time></trkpt><trkpt lat="42.9252979" lon="11.8673951"><ele>855.9999999999999</ele><time>2026-04-09T10:49:22.211Z</time></trkpt><trkpt lat="42.9253449" lon="11.8673193"><ele>856.0</ele><time>2026-04-09T10:49:23.212Z</time></trkpt><trkpt lat="42.9253955" lon="11.8672407"><ele>852.1999999999999</ele><time>2026-04-09T10:49:24.212Z</time></trkpt><trkpt lat="42.9254578" lon="11.8671742"><ele>848.3999999999999</ele><time>2026-04-09T10:49:25.205Z</time></trkpt><trkpt lat="42.9255312" lon="11.8671198"><ele>844.6</ele><time>2026-04-09T10:49:26.21Z</time></trkpt><trkpt lat="42.9256317" lon="11.8670841"><ele>840.8</ele><time>2026-04-09T10:49:27.234Z</time></trkpt><trkpt lat="42.9257236" lon="11.8670616"><ele>837.0</ele><time>2026-04-09T10:49:28.224Z</time></trkpt><trkpt lat="42.9258106" lon="11.8670282"><ele>839.5</ele><time>2026-04-09T10:49:29.364Z</time></trkpt><trkpt lat="42.9260323" lon="11.8670182"><ele>842.0</ele><time>2026-04-09T10:49:31.201Z</time></trkpt><trkpt lat="42.9261326" lon="11.8670046"><ele>844.5</ele><time>2026-04-09T10:49:32.212Z</time></trkpt><trkpt lat="42.9262217" lon="11.867003"><ele>847.0</ele><time>2026-04-09T10:49:33.214Z</time></trkpt><trkpt lat="42.9263277" lon="11.8670091"><ele>847.0</ele><time>2026-04-09T10:49:34.198Z</time></trkpt><trkpt lat="42.9264326" lon="11.8670223"><ele>847.0</ele><time>2026-04-09T10:49:35.207Z</time></trkpt><trkpt lat="42.9265429" lon="11.8670229"><ele>847.0</ele><time>2026-04-09T10:49:36.208Z</time></trkpt><trkpt lat="42.9266416" lon="11.8670302"><ele>847.0</ele><time>2026-04-09T10:49:37.204Z</time></trkpt><trkpt lat="42.926758" lon="11.8670289"><ele>847.0</ele><time>2026-04-09T10:49:38.202Z</time></trkpt><trkpt lat="42.9268603" lon="11.867034"><ele>848.8</ele><time>2026-04-09T10:49:39.213Z</time></trkpt><trkpt lat="42.9269594" lon="11.8670111"><ele>850.6</ele><time>2026-04-09T10:49:40.204Z</time></trkpt><trkpt lat="42.9270566" lon="11.8669939"><ele>852.3999999999999</ele><time>2026-04-09T10:49:41.105Z</time></trkpt><trkpt lat="42.9271647" lon="11.8669921"><ele>854.1999999999999</ele><time>2026-04-09T10:49:42.11Z</time></trkpt><trkpt lat="42.9272388" lon="11.8669593"><ele>856.0</ele><time>2026-04-09T10:49:43.101Z</time></trkpt><trkpt lat="42.9273082" lon="11.866909"><ele>856.0</ele><time>2026-04-09T10:49:44.007Z</time></trkpt><trkpt lat="42.9273973" lon="11.866892"><ele>855.9999999999999</ele><time>2026-04-09T10:49:45.009Z</time></trkpt><trkpt lat="42.9274824" lon="11.8668482"><ele>855.9999999999999</ele><time>2026-04-09T10:49:46.003Z</time></trkpt><trkpt lat="42.9276015" lon="11.8668246"><ele>856.0</ele><time>2026-04-09T10:49:47.004Z</time></trkpt><trkpt lat="42.9277237" lon="11.8668083"><ele>856.0</ele><time>2026-04-09T10:49:48.032Z</time></trkpt><trkpt lat="42.9278497" lon="11.8667938"><ele>853.5</ele><time>2026-04-09T10:49:48.998Z</time></trkpt><trkpt lat="42.9279669" lon="11.8667636"><ele>851.0</ele><time>2026-04-09T10:49:50.029Z</time></trkpt><trkpt lat="42.928084" lon="11.8667206"><ele>848.5</ele><time>2026-04-09T10:49:51.03Z</time></trkpt><trkpt lat="42.9281933" lon="11.8666902"><ele>846.0</ele><time>2026-04-09T10:49:52.004Z</time></trkpt><trkpt lat="42.9283135" lon="11.8666437"><ele>844.5999999999999</ele><time>2026-04-09T10:49:53.005Z</time></trkpt><trkpt lat="42.9284015" lon="11.8665847"><ele>843.2</ele><time>2026-04-09T10:49:54.032Z</time></trkpt><trkpt lat="42.9284878" lon="11.8665411"><ele>841.8</ele><time>2026-04-09T10:49:55.024Z</time></trkpt><trkpt lat="42.9285963" lon="11.8665245"><ele>840.4000000000001</ele><time>2026-04-09T10:49:56.029Z</time></trkpt><trkpt lat="42.9287208" lon="11.8665174"><ele>839.0</ele><time>2026-04-09T10:49:57.034Z</time></trkpt><trkpt lat="42.9288399" lon="11.8664975"><ele>839.0000000000001</ele><time>2026-04-09T10:49:58.023Z</time></trkpt><trkpt lat="42.9289343" lon="11.8664826"><ele>839.0</ele><time>2026-04-09T10:49:59.009Z</time></trkpt><trkpt lat="42.9290156" lon="11.8664522"><ele>839.0</ele><time>2026-04-09T10:50:00.005Z</time></trkpt><trkpt lat="42.9290841" lon="11.8664279"><ele>839.0</ele><time>2026-04-09T10:50:01.004Z</time></trkpt><trkpt lat="42.929146" lon="11.8664104"><ele>839.0000000000001</ele><time>2026-04-09T10:50:02.014Z</time></trkpt><trkpt lat="42.9292725" lon="11.8664095"><ele>839.0</ele><time>2026-04-09T10:50:04.005Z</time></trkpt><trkpt lat="42.9293798" lon="11.8664542"><ele>835.75</ele><time>2026-04-09T10:50:06.011Z</time></trkpt><trkpt lat="42.9294754" lon="11.8665131"><ele>832.5</ele><time>2026-04-09T10:50:08.001Z</time></trkpt><trkpt lat="42.929672" lon="11.8665724"><ele>829.25</ele><time>2026-04-09T10:50:10.802Z</time></trkpt><trkpt lat="42.9297639" lon="11.8666015"><ele>826.0</ele><time>2026-04-09T10:50:11.8Z</time></trkpt><trkpt lat="42.9298679" lon="11.8666198"><ele>826.0</ele><time>2026-04-09T10:50:12.798Z</time></trkpt><trkpt lat="42.9300429" lon="11.8666369"><ele>826.0</ele><time>2026-04-09T10:50:14.699Z</time></trkpt><trkpt lat="42.9301181" lon="11.8666289"><ele>826.0</ele><time>2026-04-09T10:50:15.699Z</time></trkpt><trkpt lat="42.9302099" lon="11.8666357"><ele>826.0</ele><time>2026-04-09T10:50:16.7Z</time></trkpt><trkpt lat="42.9302986" lon="11.866643"><ele>826.0</ele><time>2026-04-09T10:50:17.698Z</time></trkpt><trkpt lat="42.9304007" lon="11.8666561"><ele>825.8</ele><time>2026-04-09T10:50:18.698Z</time></trkpt><trkpt lat="42.9305115" lon="11.866673"><ele>825.5999999999999</ele><time>2026-04-09T10:50:19.7Z</time></trkpt><trkpt lat="42.930617" lon="11.8667143"><ele>825.4</ele><time>2026-04-09T10:50:20.7Z</time></trkpt><trkpt lat="42.9307112" lon="11.8667684"><ele>825.2</ele><time>2026-04-09T10:50:21.612Z</time></trkpt><trkpt lat="42.9308025" lon="11.8668171"><ele>825.0</ele><time>2026-04-09T10:50:22.683Z</time></trkpt><trkpt lat="42.9310622" lon="11.8669211"><ele>828.1666666666666</ele><time>2026-04-09T10:50:25.429Z</time></trkpt><trkpt lat="42.9311528" lon="11.8669653"><ele>831.3333333333333</ele><time>2026-04-09T10:50:26.408Z</time></trkpt><trkpt lat="42.9312378" lon="11.8669985"><ele>834.5</ele><time>2026-04-09T10:50:27.427Z</time></trkpt><trkpt lat="42.9313193" lon="11.8670267"><ele>837.6666666666666</ele><time>2026-04-09T10:50:28.409Z</time></trkpt><trkpt lat="42.9314086" lon="11.8670237"><ele>840.8333333333333</ele><time>2026-04-09T10:50:29.405Z</time></trkpt><trkpt lat="42.9314935" lon="11.8670394"><ele>844.0</ele><time>2026-04-09T10:50:30.405Z</time></trkpt><trkpt lat="42.9315733" lon="11.8670529"><ele>843.9999999999999</ele><time>2026-04-09T10:50:31.432Z</time></trkpt><trkpt lat="42.9316624" lon="11.8670805"><ele>844.0</ele><time>2026-04-09T10:50:32.402Z</time></trkpt><trkpt lat="42.9317489" lon="11.8670803"><ele>844.0</ele><time>2026-04-09T10:50:33.403Z</time></trkpt><trkpt lat="42.9318337" lon="11.8670703"><ele>844.0</ele><time>2026-04-09T10:50:34.407Z</time></trkpt><trkpt lat="42.9319094" lon="11.8670726"><ele>843.9999999999999</ele><time>2026-04-09T10:50:35.427Z</time></trkpt><trkpt lat="42.9319853" lon="11.8670639"><ele>844.0</ele><time>2026-04-09T10:50:36.43Z</time></trkpt><trkpt lat="42.9320551" lon="11.8670137"><ele>846.2</ele><time>2026-04-09T10:50:37.413Z</time></trkpt><trkpt lat="42.9321343" lon="11.8669098"><ele>848.4000000000001</ele><time>2026-04-09T10:50:39.435Z</time></trkpt><trkpt lat="42.9321789" lon="11.866825"><ele>850.6</ele><time>2026-04-09T10:50:40.411Z</time></trkpt><trkpt lat="42.9322516" lon="11.866747"><ele>852.8</ele><time>2026-04-09T10:50:41.415Z</time></trkpt><trkpt lat="42.9323288" lon="11.8666824"><ele>855.0</ele><time>2026-04-09T10:50:42.421Z</time></trkpt><trkpt lat="42.9324118" lon="11.8666053"><ele>855.0</ele><time>2026-04-09T10:50:43.413Z</time></trkpt><trkpt lat="42.9325002" lon="11.8665226"><ele>855.0</ele><time>2026-04-09T10:50:44.418Z</time></trkpt><trkpt lat="42.9325929" lon="11.8664433"><ele>855.0</ele><time>2026-04-09T10:50:45.413Z</time></trkpt><trkpt lat="42.932688" lon="11.8663691"><ele>855.0</ele><time>2026-04-09T10:50:46.407Z</time></trkpt><trkpt lat="42.9327812" lon="11.8663019"><ele>855.0</ele><time>2026-04-09T10:50:47.412Z</time></trkpt><trkpt lat="42.9328783" lon="11.8662496"><ele>854.6</ele><time>2026-04-09T10:50:48.438Z</time></trkpt><trkpt lat="42.9329755" lon="11.8661949"><ele>854.2</ele><time>2026-04-09T10:50:49.429Z</time></trkpt><trkpt lat="42.9330712" lon="11.8661331"><ele>853.8</ele><time>2026-04-09T10:50:50.412Z</time></trkpt><trkpt lat="42.9331481" lon="11.8660635"><ele>853.4</ele><time>2026-04-09T10:50:51.418Z</time></trkpt><trkpt lat="42.933222" lon="11.8659909"><ele>853.0</ele><time>2026-04-09T10:50:52.411Z</time></trkpt><trkpt lat="42.9332947" lon="11.8659395"><ele>853.0</ele><time>2026-04-09T10:50:53.413Z</time></trkpt><trkpt lat="42.9333461" lon="11.8658627"><ele>853.0</ele><time>2026-04-09T10:50:54.418Z</time></trkpt><trkpt lat="42.9334054" lon="11.8658201"><ele>853.0</ele><time>2026-04-09T10:50:55.41Z</time></trkpt><trkpt lat="42.9334647" lon="11.8657869"><ele>853.0</ele><time>2026-04-09T10:50:56.412Z</time></trkpt><trkpt lat="42.9335248" lon="11.8657362"><ele>853.0</ele><time>2026-04-09T10:50:57.419Z</time></trkpt><trkpt lat="42.9335865" lon="11.865665"><ele>853.0</ele><time>2026-04-09T10:50:58.404Z</time></trkpt><trkpt lat="42.9336222" lon="11.8655769"><ele>853.0</ele><time>2026-04-09T10:50:59.49Z</time></trkpt><trkpt lat="42.9336702" lon="11.8654773"><ele>854.4</ele><time>2026-04-09T10:51:00.414Z</time></trkpt><trkpt lat="42.9336924" lon="11.8653397"><ele>855.8</ele><time>2026-04-09T10:51:01.408Z</time></trkpt><trkpt lat="42.933729" lon="11.8652201"><ele>857.2</ele><time>2026-04-09T10:51:02.411Z</time></trkpt><trkpt lat="42.933754" lon="11.8650779"><ele>858.6</ele><time>2026-04-09T10:51:03.418Z</time></trkpt><trkpt lat="42.9337819" lon="11.864934"><ele>860.0</ele><time>2026-04-09T10:51:04.41Z</time></trkpt><trkpt lat="42.9338191" lon="11.8648123"><ele>860.0000000000001</ele><time>2026-04-09T10:51:05.428Z</time></trkpt><trkpt lat="42.9338442" lon="11.8646813"><ele>860.0</ele><time>2026-04-09T10:51:06.435Z</time></trkpt><trkpt lat="42.9338385" lon="11.8645537"><ele>860.0</ele><time>2026-04-09T10:51:07.408Z</time></trkpt><trkpt lat="42.9338504" lon="11.8644484"><ele>860.0</ele><time>2026-04-09T10:51:09.416Z</time></trkpt><trkpt lat="42.9338115" lon="11.8643767"><ele>860.0000000000001</ele><time>2026-04-09T10:51:12.412Z</time></trkpt><trkpt lat="42.9337394" lon="11.8643352"><ele>860.0</ele><time>2026-04-09T10:51:14.408Z</time></trkpt><trkpt lat="42.933687" lon="11.8642832"><ele>858.6</ele><time>2026-04-09T10:51:15.417Z</time></trkpt><trkpt lat="42.933577" lon="11.8642071"><ele>857.2</ele><time>2026-04-09T10:51:17.414Z</time></trkpt><trkpt lat="42.9334614" lon="11.8641577"><ele>855.8</ele><time>2026-04-09T10:51:19.414Z</time></trkpt><trkpt lat="42.9333829" lon="11.8640678"><ele>854.4</ele><time>2026-04-09T10:51:21.417Z</time></trkpt><trkpt lat="42.933339" lon="11.8639981"><ele>853.0</ele><time>2026-04-09T10:51:22.412Z</time></trkpt><trkpt lat="42.9333155" lon="11.8638396"><ele>853.0</ele><time>2026-04-09T10:51:24.417Z</time></trkpt><trkpt lat="42.9333286" lon="11.8637504"><ele>853.0</ele><time>2026-04-09T10:51:25.412Z</time></trkpt><trkpt lat="42.9333848" lon="11.8636068"><ele>853.0</ele><time>2026-04-09T10:51:27.415Z</time></trkpt><trkpt lat="42.933417" lon="11.8635126"><ele>853.0</ele><time>2026-04-09T10:51:28.414Z</time></trkpt><trkpt lat="42.9334613" lon="11.8634129"><ele>853.0</ele><time>2026-04-09T10:51:29.416Z</time></trkpt><trkpt lat="42.9335146" lon="11.8632886"><ele>849.8</ele><time>2026-04-09T10:51:30.405Z</time></trkpt><trkpt lat="42.9335813" lon="11.8631837"><ele>846.5999999999999</ele><time>2026-04-09T10:51:31.405Z</time></trkpt><trkpt lat="42.9336598" lon="11.86308"><ele>843.4000000000001</ele><time>2026-04-09T10:51:32.414Z</time></trkpt><trkpt lat="42.9337367" lon="11.8629817"><ele>840.2</ele><time>2026-04-09T10:51:33.409Z</time></trkpt><trkpt lat="42.9338162" lon="11.8628891"><ele>837.0</ele><time>2026-04-09T10:51:34.411Z</time></trkpt><trkpt lat="42.9338979" lon="11.8628105"><ele>837.0</ele><time>2026-04-09T10:51:35.414Z</time></trkpt><trkpt lat="42.9339904" lon="11.8627615"><ele>837.0</ele><time>2026-04-09T10:51:36.412Z</time></trkpt><trkpt lat="42.9341255" lon="11.8627131"><ele>837.0</ele><time>2026-04-09T10:51:37.431Z</time></trkpt><trkpt lat="42.9342453" lon="11.8626603"><ele>837.0</ele><time>2026-04-09T10:51:38.436Z</time></trkpt><trkpt lat="42.9343564" lon="11.8626113"><ele>834.0</ele><time>2026-04-09T10:51:39.413Z</time></trkpt><trkpt lat="42.9344698" lon="11.8625809"><ele>831.0</ele><time>2026-04-09T10:51:40.428Z</time></trkpt><trkpt lat="42.9345853" lon="11.8625309"><ele>828.0</ele><time>2026-04-09T10:51:41.42Z</time></trkpt><trkpt lat="42.9346937" lon="11.8624709"><ele>825.0</ele><time>2026-04-09T10:51:42.41Z</time></trkpt><trkpt lat="42.9348069" lon="11.8624084"><ele>825.0</ele><time>2026-04-09T10:51:43.416Z</time></trkpt><trkpt lat="42.9349094" lon="11.8623469"><ele>825.0</ele><time>2026-04-09T10:51:44.411Z</time></trkpt><trkpt lat="42.9350263" lon="11.8622919"><ele>825.0</ele><time>2026-04-09T10:51:45.44Z</time></trkpt><trkpt lat="42.9351498" lon="11.8622378"><ele>825.0</ele><time>2026-04-09T10:51:46.409Z</time></trkpt><trkpt lat="42.9352734" lon="11.8621824"><ele>824.5</ele><time>2026-04-09T10:51:47.411Z</time></trkpt><trkpt lat="42.9354016" lon="11.8621271"><ele>824.0</ele><time>2026-04-09T10:51:48.411Z</time></trkpt><trkpt lat="42.9355316" lon="11.862086"><ele>823.5</ele><time>2026-04-09T10:51:49.404Z</time></trkpt><trkpt lat="42.9356822" lon="11.8620553"><ele>823.0</ele><time>2026-04-09T10:51:50.415Z</time></trkpt><trkpt lat="42.9358176" lon="11.8620049"><ele>823.0</ele><time>2026-04-09T10:51:51.418Z</time></trkpt><trkpt lat="42.9359064" lon="11.8619784"><ele>823.0</ele><time>2026-04-09T10:51:52.404Z</time></trkpt><trkpt lat="42.9360417" lon="11.8619616"><ele>823.0</ele><time>2026-04-09T10:51:53.572Z</time></trkpt><trkpt lat="42.9362254" lon="11.8617754"><ele>818.0</ele><time>2026-04-09T10:51:55.429Z</time></trkpt><trkpt lat="42.9363406" lon="11.8616812"><ele>813.0</ele><time>2026-04-09T10:51:56.573Z</time></trkpt><trkpt lat="42.9365269" lon="11.8615265"><ele>808.0</ele><time>2026-04-09T10:51:58.428Z</time></trkpt><trkpt lat="42.9366282" lon="11.8614816"><ele>807.5</ele><time>2026-04-09T10:51:59.407Z</time></trkpt><trkpt lat="42.936725" lon="11.8613877"><ele>807.0</ele><time>2026-04-09T10:52:00.417Z</time></trkpt><trkpt lat="42.9368529" lon="11.8613352"><ele>806.5</ele><time>2026-04-09T10:52:01.407Z</time></trkpt><trkpt lat="42.9369693" lon="11.8613054"><ele>806.0</ele><time>2026-04-09T10:52:02.408Z</time></trkpt><trkpt lat="42.9371141" lon="11.8612935"><ele>806.0</ele><time>2026-04-09T10:52:03.418Z</time></trkpt><trkpt lat="42.9372155" lon="11.8612491"><ele>806.0</ele><time>2026-04-09T10:52:04.409Z</time></trkpt><trkpt lat="42.9373125" lon="11.8612328"><ele>806.0</ele><time>2026-04-09T10:52:05.41Z</time></trkpt><trkpt lat="42.9374027" lon="11.8612182"><ele>806.0</ele><time>2026-04-09T10:52:06.412Z</time></trkpt><trkpt lat="42.9375024" lon="11.8612158"><ele>806.0</ele><time>2026-04-09T10:52:07.408Z</time></trkpt><trkpt lat="42.9375878" lon="11.861151"><ele>805.8</ele><time>2026-04-09T10:52:08.41Z</time></trkpt><trkpt lat="42.9376614" lon="11.8610868"><ele>805.5999999999999</ele><time>2026-04-09T10:52:09.414Z</time></trkpt><trkpt lat="42.9377163" lon="11.8609913"><ele>805.4</ele><time>2026-04-09T10:52:10.406Z</time></trkpt><trkpt lat="42.9377522" lon="11.8608792"><ele>805.2</ele><time>2026-04-09T10:52:11.413Z</time></trkpt><trkpt lat="42.9377838" lon="11.8607801"><ele>805.0</ele><time>2026-04-09T10:52:12.413Z</time></trkpt><trkpt lat="42.9378398" lon="11.8606459"><ele>803.2</ele><time>2026-04-09T10:52:14.411Z</time></trkpt><trkpt lat="42.9378487" lon="11.8605061"><ele>801.4</ele><time>2026-04-09T10:52:16.409Z</time></trkpt><trkpt lat="42.9378142" lon="11.860386"><ele>799.5999999999999</ele><time>2026-04-09T10:52:18.407Z</time></trkpt><trkpt lat="42.9377562" lon="11.8602586"><ele>797.8</ele><time>2026-04-09T10:52:20.411Z</time></trkpt><trkpt lat="42.9376893" lon="11.8601915"><ele>796.0</ele><time>2026-04-09T10:52:21.41Z</time></trkpt><trkpt lat="42.9376143" lon="11.8601214"><ele>793.8</ele><time>2026-04-09T10:52:22.407Z</time></trkpt><trkpt lat="42.9375436" lon="11.8600372"><ele>791.5999999999999</ele><time>2026-04-09T10:52:23.41Z</time></trkpt><trkpt lat="42.9374499" lon="11.8599438"><ele>789.4</ele><time>2026-04-09T10:52:24.416Z</time></trkpt><trkpt lat="42.9373488" lon="11.8598541"><ele>787.2</ele><time>2026-04-09T10:52:25.407Z</time></trkpt><trkpt lat="42.9372672" lon="11.859774"><ele>785.0</ele><time>2026-04-09T10:52:26.409Z</time></trkpt><trkpt lat="42.9371888" lon="11.8596598"><ele>785.0</ele><time>2026-04-09T10:52:27.413Z</time></trkpt><trkpt lat="42.9371166" lon="11.8595566"><ele>785.0</ele><time>2026-04-09T10:52:28.408Z</time></trkpt><trkpt lat="42.9370439" lon="11.8594735"><ele>785.0</ele><time>2026-04-09T10:52:29.415Z</time></trkpt><trkpt lat="42.9369766" lon="11.8594037"><ele>785.0</ele><time>2026-04-09T10:52:30.41Z</time></trkpt><trkpt lat="42.936906" lon="11.8593402"><ele>785.0</ele><time>2026-04-09T10:52:31.402Z</time></trkpt><trkpt lat="42.9368222" lon="11.8592821"><ele>784.0</ele><time>2026-04-09T10:52:32.494Z</time></trkpt><trkpt lat="42.9367014" lon="11.8592317"><ele>783.0</ele><time>2026-04-09T10:52:33.415Z</time></trkpt><trkpt lat="42.9365871" lon="11.8592069"><ele>782.0</ele><time>2026-04-09T10:52:34.43Z</time></trkpt><trkpt lat="42.9364779" lon="11.859178"><ele>781.0</ele><time>2026-04-09T10:52:35.574Z</time></trkpt><trkpt lat="42.9362865" lon="11.8591302"><ele>781.0</ele><time>2026-04-09T10:52:37.406Z</time></trkpt><trkpt lat="42.9361874" lon="11.8590915"><ele>781.0</ele><time>2026-04-09T10:52:38.412Z</time></trkpt><trkpt lat="42.9361066" lon="11.8590651"><ele>781.0</ele><time>2026-04-09T10:52:39.439Z</time></trkpt><trkpt lat="42.9360301" lon="11.8590307"><ele>781.0</ele><time>2026-04-09T10:52:40.427Z</time></trkpt><trkpt lat="42.9359553" lon="11.8589838"><ele>781.0</ele><time>2026-04-09T10:52:41.581Z</time></trkpt><trkpt lat="42.9357967" lon="11.8588637"><ele>781.0</ele><time>2026-04-09T10:52:43.433Z</time></trkpt><trkpt lat="42.9357087" lon="11.8588224"><ele>781.0</ele><time>2026-04-09T10:52:44.417Z</time></trkpt><trkpt lat="42.9356202" lon="11.8587929"><ele>781.0</ele><time>2026-04-09T10:52:45.435Z</time></trkpt><trkpt lat="42.9355272" lon="11.8587699"><ele>781.0</ele><time>2026-04-09T10:52:46.412Z</time></trkpt><trkpt lat="42.9354325" lon="11.8587565"><ele>781.0</ele><time>2026-04-09T10:52:47.419Z</time></trkpt><trkpt lat="42.9353288" lon="11.8587402"><ele>781.0</ele><time>2026-04-09T10:52:48.416Z</time></trkpt><trkpt lat="42.9352422" lon="11.8587261"><ele>781.0</ele><time>2026-04-09T10:52:49.41Z</time></trkpt><trkpt lat="42.9351487" lon="11.8586937"><ele>781.0</ele><time>2026-04-09T10:52:50.411Z</time></trkpt><trkpt lat="42.9350457" lon="11.858667"><ele>781.0</ele><time>2026-04-09T10:52:51.413Z</time></trkpt><trkpt lat="42.9349392" lon="11.858649"><ele>781.0</ele><time>2026-04-09T10:52:52.434Z</time></trkpt><trkpt lat="42.9348251" lon="11.8586247"><ele>780.25</ele><time>2026-04-09T10:52:53.441Z</time></trkpt><trkpt lat="42.9347106" lon="11.858636"><ele>779.5</ele><time>2026-04-09T10:52:54.413Z</time></trkpt><trkpt lat="42.9345922" lon="11.8586433"><ele>778.75</ele><time>2026-04-09T10:52:55.411Z</time></trkpt><trkpt lat="42.9344673" lon="11.8586513"><ele>778.0</ele><time>2026-04-09T10:52:56.413Z</time></trkpt><trkpt lat="42.9343457" lon="11.8586683"><ele>778.0</ele><time>2026-04-09T10:52:57.408Z</time></trkpt><trkpt lat="42.9342352" lon="11.8586987"><ele>778.0</ele><time>2026-04-09T10:52:58.427Z</time></trkpt><trkpt lat="42.9341158" lon="11.85872"><ele>778.0</ele><time>2026-04-09T10:52:59.411Z</time></trkpt><trkpt lat="42.9340346" lon="11.8587587"><ele>778.0</ele><time>2026-04-09T10:53:00.41Z</time></trkpt><trkpt lat="42.9339632" lon="11.8587953"><ele>778.0</ele><time>2026-04-09T10:53:01.414Z</time></trkpt><trkpt lat="42.9338899" lon="11.8588173"><ele>777.6666666666666</ele><time>2026-04-09T10:53:02.417Z</time></trkpt><trkpt lat="42.9338475" lon="11.8586958"><ele>777.3333333333333</ele><time>2026-04-09T10:53:08.415Z</time></trkpt><trkpt lat="42.9338132" lon="11.8586172"><ele>777.0</ele><time>2026-04-09T10:53:09.405Z</time></trkpt><trkpt lat="42.9337787" lon="11.8585418"><ele>776.6666666666667</ele><time>2026-04-09T10:53:10.41Z</time></trkpt><trkpt lat="42.9337316" lon="11.8584321"><ele>776.3333333333334</ele><time>2026-04-09T10:53:11.414Z</time></trkpt><trkpt lat="42.9337031" lon="11.8583312"><ele>776.0</ele><time>2026-04-09T10:53:12.403Z</time></trkpt><trkpt lat="42.9336622" lon="11.8582153"><ele>773.4</ele><time>2026-04-09T10:53:13.417Z</time></trkpt><trkpt lat="42.9336155" lon="11.8580896"><ele>770.8</ele><time>2026-04-09T10:53:14.417Z</time></trkpt><trkpt lat="42.933576" lon="11.8579756"><ele>768.1999999999999</ele><time>2026-04-09T10:53:15.405Z</time></trkpt><trkpt lat="42.9335318" lon="11.8578522"><ele>765.5999999999999</ele><time>2026-04-09T10:53:16.412Z</time></trkpt><trkpt lat="42.9334835" lon="11.8577322"><ele>763.0</ele><time>2026-04-09T10:53:17.41Z</time></trkpt><trkpt lat="42.9334409" lon="11.8576017"><ele>761.4</ele><time>2026-04-09T10:53:18.409Z</time></trkpt><trkpt lat="42.9333913" lon="11.8574619"><ele>759.8</ele><time>2026-04-09T10:53:19.409Z</time></trkpt><trkpt lat="42.9333511" lon="11.8573344"><ele>758.2</ele><time>2026-04-09T10:53:20.412Z</time></trkpt><trkpt lat="42.9333165" lon="11.8572079"><ele>756.6</ele><time>2026-04-09T10:53:21.408Z</time></trkpt><trkpt lat="42.9332755" lon="11.8570956"><ele>755.0</ele><time>2026-04-09T10:53:22.409Z</time></trkpt><trkpt lat="42.9332418" lon="11.8569744"><ele>754.0</ele><time>2026-04-09T10:53:23.405Z</time></trkpt><trkpt lat="42.933204" lon="11.8568602"><ele>753.0</ele><time>2026-04-09T10:53:24.415Z</time></trkpt><trkpt lat="42.9331397" lon="11.8567168"><ele>752.0</ele><time>2026-04-09T10:53:25.41Z</time></trkpt><trkpt lat="42.9330814" lon="11.8565916"><ele>751.0</ele><time>2026-04-09T10:53:26.429Z</time></trkpt><trkpt lat="42.9330128" lon="11.8564594"><ele>750.0</ele><time>2026-04-09T10:53:27.448Z</time></trkpt><trkpt lat="42.932962" lon="11.8563251"><ele>748.2</ele><time>2026-04-09T10:53:28.44Z</time></trkpt><trkpt lat="42.9329281" lon="11.8561875"><ele>746.4</ele><time>2026-04-09T10:53:29.424Z</time></trkpt><trkpt lat="42.9329129" lon="11.8560626"><ele>744.5999999999999</ele><time>2026-04-09T10:53:30.438Z</time></trkpt><trkpt lat="42.9328843" lon="11.8559438"><ele>742.8</ele><time>2026-04-09T10:53:31.417Z</time></trkpt><trkpt lat="42.9328582" lon="11.8558215"><ele>741.0</ele><time>2026-04-09T10:53:32.41Z</time></trkpt><trkpt lat="42.9328619" lon="11.8557071"><ele>739.6666666666666</ele><time>2026-04-09T10:53:33.414Z</time></trkpt><trkpt lat="42.9328529" lon="11.8555973"><ele>738.3333333333334</ele><time>2026-04-09T10:53:34.408Z</time></trkpt><trkpt lat="42.9328684" lon="11.8555075"><ele>737.0</ele><time>2026-04-09T10:53:35.412Z</time></trkpt><trkpt lat="42.9328586" lon="11.8553953"><ele>735.6666666666667</ele><time>2026-04-09T10:53:36.411Z</time></trkpt><trkpt lat="42.9328661" lon="11.8552891"><ele>734.3333333333334</ele><time>2026-04-09T10:53:37.417Z</time></trkpt><trkpt lat="42.9329" lon="11.8552074"><ele>733.0</ele><time>2026-04-09T10:53:57.423Z</time></trkpt><trkpt lat="42.9329771" lon="11.85511"><ele>733.0</ele><time>2026-04-09T10:53:59.415Z</time></trkpt><trkpt lat="42.9330656" lon="11.8550306"><ele>733.0</ele><time>2026-04-09T10:54:01.413Z</time></trkpt><trkpt lat="42.9331422" lon="11.8549047"><ele>733.0</ele><time>2026-04-09T10:54:03.411Z</time></trkpt><trkpt lat="42.9331923" lon="11.8547794"><ele>733.0</ele><time>2026-04-09T10:54:05.407Z</time></trkpt><trkpt lat="42.933227" lon="11.8546988"><ele>733.0</ele><time>2026-04-09T10:54:06.409Z</time></trkpt><trkpt lat="42.9332733" lon="11.8545894"><ele>733.0</ele><time>2026-04-09T10:54:08.413Z</time></trkpt><trkpt lat="42.9333492" lon="11.8545353"><ele>733.0</ele><time>2026-04-09T10:54:10.421Z</time></trkpt><trkpt lat="42.9334303" lon="11.8544832"><ele>733.0</ele><time>2026-04-09T10:54:13.408Z</time></trkpt><trkpt lat="42.9334632" lon="11.8544022"><ele>733.0</ele><time>2026-04-09T10:54:15.409Z</time></trkpt><trkpt lat="42.9334751" lon="11.8542936"><ele>733.0</ele><time>2026-04-09T10:54:17.428Z</time></trkpt><trkpt lat="42.9335204" lon="11.8541996"><ele>733.0</ele><time>2026-04-09T10:54:19.427Z</time></trkpt><trkpt lat="42.9334499" lon="11.8540434"><ele>733.0</ele><time>2026-04-09T10:54:42.416Z</time></trkpt><trkpt lat="42.9334287" lon="11.8541581"><ele>733.0</ele><time>2026-04-09T10:54:45.421Z</time></trkpt><trkpt lat="42.9334015" lon="11.8542422"><ele>733.0</ele><time>2026-04-09T10:54:49.414Z</time></trkpt><trkpt lat="42.9333679" lon="11.85433"><ele>733.0</ele><time>2026-04-09T10:54:52.417Z</time></trkpt><trkpt lat="42.9333013" lon="11.8543686"><ele>733.0</ele><time>2026-04-09T10:54:55.413Z</time></trkpt><trkpt lat="42.9332425" lon="11.854438"><ele>733.0</ele><time>2026-04-09T10:54:58.41Z</time></trkpt><trkpt lat="42.9331844" lon="11.8545434"><ele>733.0</ele><time>2026-04-09T10:55:01.412Z</time></trkpt><trkpt lat="42.933156" lon="11.8546442"><ele>733.0</ele><time>2026-04-09T10:55:03.414Z</time></trkpt><trkpt lat="42.9331462" lon="11.8547675"><ele>733.0</ele><time>2026-04-09T10:55:06.41Z</time></trkpt><trkpt lat="42.9331258" lon="11.8548661"><ele>733.0</ele><time>2026-04-09T10:55:12.415Z</time></trkpt><trkpt lat="42.9331102" lon="11.8549602"><ele>733.0</ele><time>2026-04-09T10:55:21.408Z</time></trkpt><trkpt lat="42.9331289" lon="11.8550557"><ele>733.0</ele><time>2026-04-09T10:55:26.414Z</time></trkpt><trkpt lat="42.9331909" lon="11.8550135"><ele>733.0</ele><time>2026-04-09T10:55:32.408Z</time></trkpt><trkpt lat="42.9332472" lon="11.8549359"><ele>733.0</ele><time>2026-04-09T10:55:34.418Z</time></trkpt><trkpt lat="42.9332969" lon="11.8548212"><ele>733.0</ele><time>2026-04-09T10:55:36.411Z</time></trkpt><trkpt lat="42.9333564" lon="11.8547533"><ele>733.0</ele><time>2026-04-09T10:55:39.414Z</time></trkpt><trkpt lat="42.9333621" lon="11.8546338"><ele>733.0</ele><time>2026-04-09T10:55:42.417Z</time></trkpt><trkpt lat="42.9333807" lon="11.8545411"><ele>733.0</ele><time>2026-04-09T10:55:44.42Z</time></trkpt><trkpt lat="42.9333766" lon="11.8544457"><ele>733.0</ele><time>2026-04-09T10:55:47.412Z</time></trkpt><trkpt lat="42.9333637" lon="11.8543528"><ele>733.0</ele><time>2026-04-09T10:55:49.411Z</time></trkpt><trkpt lat="42.9333138" lon="11.8542797"><ele>733.0</ele><time>2026-04-09T10:55:52.415Z</time></trkpt><trkpt lat="42.9332358" lon="11.854298"><ele>733.0</ele><time>2026-04-09T10:55:54.416Z</time></trkpt><trkpt lat="42.9331657" lon="11.8543147"><ele>733.0</ele><time>2026-04-09T10:55:56.411Z</time></trkpt><trkpt lat="42.933109" lon="11.8543678"><ele>733.0</ele><time>2026-04-09T10:55:58.417Z</time></trkpt><trkpt lat="42.9330634" lon="11.8544802"><ele>733.0</ele><time>2026-04-09T10:56:01.412Z</time></trkpt><trkpt lat="42.9330567" lon="11.8545712"><ele>733.0</ele><time>2026-04-09T10:56:03.406Z</time></trkpt><trkpt lat="42.9330506" lon="11.8546898"><ele>733.0</ele><time>2026-04-09T10:56:05.416Z</time></trkpt><trkpt lat="42.9330431" lon="11.8548086"><ele>733.0</ele><time>2026-04-09T10:56:07.434Z</time></trkpt><trkpt lat="42.9330533" lon="11.854901"><ele>733.0</ele><time>2026-04-09T10:56:09.441Z</time></trkpt><trkpt lat="42.933084" lon="11.8550002"><ele>733.0</ele><time>2026-04-09T10:56:12.443Z</time></trkpt><trkpt lat="42.9331542" lon="11.8550133"><ele>733.0</ele><time>2026-04-09T10:56:14.415Z</time></trkpt><trkpt lat="42.9332299" lon="11.8550152"><ele>733.0</ele><time>2026-04-09T10:56:20.415Z</time></trkpt><trkpt lat="42.9332903" lon="11.8549225"><ele>733.0</ele><time>2026-04-09T10:56:27.413Z</time></trkpt><trkpt lat="42.9333296" lon="11.8548481"><ele>733.0</ele><time>2026-04-09T10:56:29.412Z</time></trkpt><trkpt lat="42.9333805" lon="11.8547784"><ele>733.0</ele><time>2026-04-09T10:56:37.42Z</time></trkpt><trkpt lat="42.9334349" lon="11.8547108"><ele>733.0</ele><time>2026-04-09T10:56:41.42Z</time></trkpt><trkpt lat="42.933514" lon="11.8546799"><ele>731.8333333333334</ele><time>2026-04-09T10:56:45.423Z</time></trkpt><trkpt lat="42.9335818" lon="11.8546491"><ele>730.6666666666667</ele><time>2026-04-09T10:56:48.412Z</time></trkpt><trkpt lat="42.9336473" lon="11.8546034"><ele>729.5</ele><time>2026-04-09T10:56:51.422Z</time></trkpt><trkpt lat="42.933697" lon="11.8545412"><ele>728.3333333333334</ele><time>2026-04-09T10:56:53.422Z</time></trkpt><trkpt lat="42.9337819" lon="11.8544943"><ele>727.1666666666666</ele><time>2026-04-09T10:56:55.42Z</time></trkpt><trkpt lat="42.9338794" lon="11.8544521"><ele>726.0</ele><time>2026-04-09T10:56:57.423Z</time></trkpt><trkpt lat="42.9339417" lon="11.854412"><ele>725.9999999999999</ele><time>2026-04-09T10:56:59.423Z</time></trkpt><trkpt lat="42.9338809" lon="11.8544627"><ele>726.0</ele><time>2026-04-09T10:57:13.429Z</time></trkpt><trkpt lat="42.9338165" lon="11.854485"><ele>726.0</ele><time>2026-04-09T10:57:15.422Z</time></trkpt><trkpt lat="42.9337617" lon="11.85453"><ele>726.0</ele><time>2026-04-09T10:57:17.438Z</time></trkpt><trkpt lat="42.9337015" lon="11.854569"><ele>726.0</ele><time>2026-04-09T10:57:19.415Z</time></trkpt><trkpt lat="42.9336163" lon="11.8546177"><ele>725.9999999999999</ele><time>2026-04-09T10:57:22.435Z</time></trkpt><trkpt lat="42.9335478" lon="11.8546327"><ele>726.0</ele><time>2026-04-09T10:57:24.418Z</time></trkpt><trkpt lat="42.9334634" lon="11.8546423"><ele>726.0</ele><time>2026-04-09T10:57:27.437Z</time></trkpt><trkpt lat="42.9334173" lon="11.8547324"><ele>726.0</ele><time>2026-04-09T10:57:30.415Z</time></trkpt><trkpt lat="42.9333803" lon="11.854829"><ele>726.0</ele><time>2026-04-09T10:57:32.411Z</time></trkpt><trkpt lat="42.9333197" lon="11.8549125"><ele>726.0</ele><time>2026-04-09T10:57:35.426Z</time></trkpt><trkpt lat="42.9332488" lon="11.85493"><ele>726.0</ele><time>2026-04-09T10:57:39.42Z</time></trkpt><trkpt lat="42.9331956" lon="11.8548795"><ele>726.0</ele><time>2026-04-09T10:57:42.415Z</time></trkpt><trkpt lat="42.9332381" lon="11.8548066"><ele>727.1666666666666</ele><time>2026-04-09T10:57:50.42Z</time></trkpt><trkpt lat="42.9333131" lon="11.8547444"><ele>728.3333333333334</ele><time>2026-04-09T10:57:53.419Z</time></trkpt><trkpt lat="42.9333683" lon="11.8546689"><ele>729.5</ele><time>2026-04-09T10:57:55.411Z</time></trkpt><trkpt lat="42.9333593" lon="11.8545738"><ele>730.6666666666667</ele><time>2026-04-09T10:57:58.413Z</time></trkpt><trkpt lat="42.9333394" lon="11.8544543"><ele>731.8333333333334</ele><time>2026-04-09T10:58:01.413Z</time></trkpt><trkpt lat="42.933332" lon="11.8543605"><ele>733.0</ele><time>2026-04-09T10:58:04.41Z</time></trkpt><trkpt lat="42.9332915" lon="11.8542838"><ele>733.0</ele><time>2026-04-09T10:58:10.42Z</time></trkpt><trkpt lat="42.9332597" lon="11.8543632"><ele>733.0</ele><time>2026-04-09T10:58:46.419Z</time></trkpt><trkpt lat="42.93337" lon="11.8544271"><ele>733.0</ele><time>2026-04-09T11:02:33.425Z</time></trkpt><trkpt lat="42.9332958" lon="11.8544279"><ele>733.0</ele><time>2026-04-09T11:02:40.423Z</time></trkpt><trkpt lat="42.9332039" lon="11.8544453"><ele>733.0</ele><time>2026-04-09T11:02:44.421Z</time></trkpt><trkpt lat="42.9331349" lon="11.8544327"><ele>733.0</ele><time>2026-04-09T11:03:02.416Z</time></trkpt><trkpt lat="42.9330553" lon="11.8544187"><ele>732.9999999999999</ele><time>2026-04-09T11:03:08.401Z</time></trkpt><trkpt lat="42.9329888" lon="11.8544204"><ele>733.0</ele><time>2026-04-09T11:05:16.432Z</time></trkpt><trkpt lat="42.9329114" lon="11.8543966"><ele>733.0</ele><time>2026-04-09T11:07:21.436Z</time></trkpt><trkpt lat="42.9329181" lon="11.854488"><ele>733.0</ele><time>2026-04-09T11:07:28.41Z</time></trkpt><trkpt lat="42.9329113" lon="11.8545918"><ele>733.0</ele><time>2026-04-09T11:07:31.431Z</time></trkpt><trkpt lat="42.9328751" lon="11.8546689"><ele>732.9999999999999</ele><time>2026-04-09T11:07:33.428Z</time></trkpt><trkpt lat="42.9328242" lon="11.8547272"><ele>733.0</ele><time>2026-04-09T11:07:36.426Z</time></trkpt><trkpt lat="42.9327782" lon="11.854797"><ele>733.0</ele><time>2026-04-09T11:07:39.424Z</time></trkpt><trkpt lat="42.9327232" lon="11.854846"><ele>733.0</ele><time>2026-04-09T11:07:42.418Z</time></trkpt><trkpt lat="42.9326495" lon="11.8548605"><ele>733.0</ele><time>2026-04-09T11:07:45.428Z</time></trkpt><trkpt lat="42.9325824" lon="11.8548202"><ele>733.0</ele><time>2026-04-09T11:07:49.423Z</time></trkpt><trkpt lat="42.9325832" lon="11.854721"><ele>733.0</ele><time>2026-04-09T11:07:54.424Z</time></trkpt><trkpt lat="42.9325241" lon="11.8546236"><ele>733.0</ele><time>2026-04-09T11:08:01.421Z</time></trkpt><trkpt lat="42.9324922" lon="11.8545143"><ele>734.0</ele><time>2026-04-09T11:08:03.42Z</time></trkpt><trkpt lat="42.9324509" lon="11.8543844"><ele>735.0</ele><time>2026-04-09T11:08:05.436Z</time></trkpt><trkpt lat="42.9324314" lon="11.8542942"><ele>736.0</ele><time>2026-04-09T11:08:06.425Z</time></trkpt><trkpt lat="42.9323732" lon="11.8541537"><ele>737.0</ele><time>2026-04-09T11:08:08.442Z</time></trkpt><trkpt lat="42.9323074" lon="11.8540468"><ele>738.0</ele><time>2026-04-09T11:08:10.421Z</time></trkpt><trkpt lat="42.9322764" lon="11.853947"><ele>738.5999999999999</ele><time>2026-04-09T11:08:12.43Z</time></trkpt><trkpt lat="42.9323093" lon="11.8538501"><ele>739.1999999999999</ele><time>2026-04-09T11:08:14.421Z</time></trkpt><trkpt lat="42.9323966" lon="11.8537365"><ele>739.8</ele><time>2026-04-09T11:08:16.416Z</time></trkpt><trkpt lat="42.9324992" lon="11.8536543"><ele>740.4</ele><time>2026-04-09T11:08:18.421Z</time></trkpt><trkpt lat="42.9325938" lon="11.8535553"><ele>741.0</ele><time>2026-04-09T11:08:20.422Z</time></trkpt><trkpt lat="42.932652" lon="11.8534934"><ele>742.1999999999999</ele><time>2026-04-09T11:08:21.417Z</time></trkpt><trkpt lat="42.9327607" lon="11.8533692"><ele>743.4</ele><time>2026-04-09T11:08:23.426Z</time></trkpt><trkpt lat="42.932831" lon="11.853308"><ele>744.6</ele><time>2026-04-09T11:08:24.409Z</time></trkpt><trkpt lat="42.9329052" lon="11.8532311"><ele>745.8</ele><time>2026-04-09T11:08:25.42Z</time></trkpt><trkpt lat="42.9329767" lon="11.8531654"><ele>747.0</ele><time>2026-04-09T11:08:26.428Z</time></trkpt><trkpt lat="42.9330394" lon="11.8530993"><ele>746.9999999999999</ele><time>2026-04-09T11:08:27.416Z</time></trkpt><trkpt lat="42.9331023" lon="11.8530538"><ele>747.0</ele><time>2026-04-09T11:08:28.425Z</time></trkpt><trkpt lat="42.9331653" lon="11.8529988"><ele>747.0</ele><time>2026-04-09T11:08:29.42Z</time></trkpt><trkpt lat="42.9332246" lon="11.8529497"><ele>747.0</ele><time>2026-04-09T11:08:30.417Z</time></trkpt><trkpt lat="42.9332819" lon="11.8529114"><ele>747.0</ele><time>2026-04-09T11:08:31.419Z</time></trkpt><trkpt lat="42.9333506" lon="11.8528661"><ele>746.9999999999999</ele><time>2026-04-09T11:08:32.408Z</time></trkpt><trkpt lat="42.9334304" lon="11.8528177"><ele>747.0</ele><time>2026-04-09T11:08:33.415Z</time></trkpt><trkpt lat="42.9335093" lon="11.8527702"><ele>746.6666666666666</ele><time>2026-04-09T11:08:34.412Z</time></trkpt><trkpt lat="42.9335896" lon="11.8527258"><ele>746.3333333333334</ele><time>2026-04-09T11:08:35.417Z</time></trkpt><trkpt lat="42.9336696" lon="11.852666"><ele>746.0</ele><time>2026-04-09T11:08:36.408Z</time></trkpt><trkpt lat="42.9337495" lon="11.8526077"><ele>745.6666666666667</ele><time>2026-04-09T11:08:37.422Z</time></trkpt><trkpt lat="42.9338227" lon="11.8525573"><ele>745.3333333333334</ele><time>2026-04-09T11:08:38.415Z</time></trkpt><trkpt lat="42.9338849" lon="11.8525159"><ele>745.0</ele><time>2026-04-09T11:08:39.415Z</time></trkpt><trkpt lat="42.9339448" lon="11.8524597"><ele>745.0</ele><time>2026-04-09T11:08:40.422Z</time></trkpt><trkpt lat="42.9340096" lon="11.8524167"><ele>745.0</ele><time>2026-04-09T11:08:42.419Z</time></trkpt><trkpt lat="42.9339323" lon="11.8524812"><ele>745.0</ele><time>2026-04-09T11:08:48.421Z</time></trkpt><trkpt lat="42.9338356" lon="11.8525789"><ele>745.0</ele><time>2026-04-09T11:08:50.414Z</time></trkpt><trkpt lat="42.9337845" lon="11.8526403"><ele>745.0</ele><time>2026-04-09T11:08:51.428Z</time></trkpt><trkpt lat="42.933731" lon="11.852696"><ele>745.0</ele><time>2026-04-09T11:08:52.416Z</time></trkpt><trkpt lat="42.9336621" lon="11.852775"><ele>744.8333333333334</ele><time>2026-04-09T11:08:53.429Z</time></trkpt><trkpt lat="42.9335928" lon="11.8528297"><ele>744.6666666666667</ele><time>2026-04-09T11:08:54.419Z</time></trkpt><trkpt lat="42.9335229" lon="11.8528917"><ele>744.5</ele><time>2026-04-09T11:08:55.397Z</time></trkpt><trkpt lat="42.933438" lon="11.8529658"><ele>744.3333333333334</ele><time>2026-04-09T11:08:56.422Z</time></trkpt><trkpt lat="42.9333684" lon="11.8530357"><ele>744.1666666666666</ele><time>2026-04-09T11:08:57.418Z</time></trkpt><trkpt lat="42.9332946" lon="11.8531052"><ele>744.0</ele><time>2026-04-09T11:08:58.416Z</time></trkpt><trkpt lat="42.9332182" lon="11.8531795"><ele>744.6</ele><time>2026-04-09T11:08:59.423Z</time></trkpt><trkpt lat="42.9331623" lon="11.8532292"><ele>745.2</ele><time>2026-04-09T11:09:00.416Z</time></trkpt><trkpt lat="42.9330728" lon="11.8533241"><ele>745.8000000000001</ele><time>2026-04-09T11:09:02.424Z</time></trkpt><trkpt lat="42.9329682" lon="11.8534069"><ele>746.4000000000001</ele><time>2026-04-09T11:09:04.388Z</time></trkpt><trkpt lat="42.9328783" lon="11.8534722"><ele>747.0</ele><time>2026-04-09T11:09:05.42Z</time></trkpt><trkpt lat="42.9327788" lon="11.8535699"><ele>746.75</ele><time>2026-04-09T11:09:06.416Z</time></trkpt><trkpt lat="42.9326596" lon="11.8536718"><ele>746.5</ele><time>2026-04-09T11:09:07.424Z</time></trkpt><trkpt lat="42.9325681" lon="11.8537586"><ele>746.25</ele><time>2026-04-09T11:09:08.417Z</time></trkpt><trkpt lat="42.9324816" lon="11.8538402"><ele>746.0</ele><time>2026-04-09T11:09:09.418Z</time></trkpt><trkpt lat="42.932406" lon="11.8539147"><ele>746.0</ele><time>2026-04-09T11:09:10.417Z</time></trkpt><trkpt lat="42.9323302" lon="11.8539793"><ele>746.0</ele><time>2026-04-09T11:09:11.427Z</time></trkpt><trkpt lat="42.9322739" lon="11.8540342"><ele>746.0</ele><time>2026-04-09T11:09:12.419Z</time></trkpt><trkpt lat="42.9322195" lon="11.854081"><ele>746.0</ele><time>2026-04-09T11:09:13.427Z</time></trkpt><trkpt lat="42.9321464" lon="11.854136"><ele>746.0</ele><time>2026-04-09T11:09:15.424Z</time></trkpt><trkpt lat="42.9320795" lon="11.8541799"><ele>746.0</ele><time>2026-04-09T11:09:27.427Z</time></trkpt><trkpt lat="42.9320065" lon="11.8541654"><ele>746.0</ele><time>2026-04-09T11:09:35.424Z</time></trkpt><trkpt lat="42.9319339" lon="11.8541115"><ele>746.0</ele><time>2026-04-09T11:09:38.423Z</time></trkpt><trkpt lat="42.9318513" lon="11.8540818"><ele>746.0</ele><time>2026-04-09T11:09:41.416Z</time></trkpt><trkpt lat="42.9317783" lon="11.8540513"><ele>746.0</ele><time>2026-04-09T11:09:45.425Z</time></trkpt><trkpt lat="42.9317752" lon="11.8539538"><ele>746.0</ele><time>2026-04-09T11:09:48.426Z</time></trkpt><trkpt lat="42.9318198" lon="11.8538867"><ele>746.0</ele><time>2026-04-09T11:09:51.424Z</time></trkpt><trkpt lat="42.9318788" lon="11.85381"><ele>746.0</ele><time>2026-04-09T11:09:54.418Z</time></trkpt><trkpt lat="42.9318847" lon="11.8537147"><ele>746.0</ele><time>2026-04-09T11:09:57.422Z</time></trkpt><trkpt lat="42.931849" lon="11.8536401"><ele>746.0</ele><time>2026-04-09T11:09:59.426Z</time></trkpt><trkpt lat="42.9318008" lon="11.8535717"><ele>746.0</ele><time>2026-04-09T11:10:01.432Z</time></trkpt><trkpt lat="42.9317558" lon="11.8534866"><ele>746.0</ele><time>2026-04-09T11:10:03.424Z</time></trkpt><trkpt lat="42.9317226" lon="11.8534101"><ele>746.0</ele><time>2026-04-09T11:10:05.427Z</time></trkpt><trkpt lat="42.9316792" lon="11.8533339"><ele>746.0</ele><time>2026-04-09T11:10:07.426Z</time></trkpt><trkpt lat="42.9317331" lon="11.853464"><ele>746.0</ele><time>2026-04-09T11:10:32.425Z</time></trkpt><trkpt lat="42.9317943" lon="11.8536123"><ele>746.0</ele><time>2026-04-09T11:10:34.42Z</time></trkpt><trkpt lat="42.9318236" lon="11.8537201"><ele>746.0</ele><time>2026-04-09T11:10:36.415Z</time></trkpt><trkpt lat="42.9317749" lon="11.8538627"><ele>746.0</ele><time>2026-04-09T11:10:39.425Z</time></trkpt><trkpt lat="42.9317297" lon="11.8539567"><ele>746.0</ele><time>2026-04-09T11:10:41.42Z</time></trkpt><trkpt lat="42.9317075" lon="11.8540689"><ele>745.5714285714286</ele><time>2026-04-09T11:10:44.42Z</time></trkpt><trkpt lat="42.9316991" lon="11.8541801"><ele>745.1428571428571</ele><time>2026-04-09T11:10:46.424Z</time></trkpt><trkpt lat="42.9316895" lon="11.8542696"><ele>744.7142857142858</ele><time>2026-04-09T11:10:48.424Z</time></trkpt><trkpt lat="42.9316774" lon="11.8543576"><ele>744.2857142857142</ele><time>2026-04-09T11:10:50.427Z</time></trkpt><trkpt lat="42.9316976" lon="11.8544513"><ele>743.8571428571428</ele><time>2026-04-09T11:10:53.428Z</time></trkpt><trkpt lat="42.9317772" lon="11.8544653"><ele>743.4285714285714</ele><time>2026-04-09T11:10:56.423Z</time></trkpt><trkpt lat="42.9318395" lon="11.8544911"><ele>743.0</ele><time>2026-04-09T11:11:00.429Z</time></trkpt><trkpt lat="42.9317693" lon="11.8546102"><ele>741.0</ele><time>2026-04-09T11:11:08.427Z</time></trkpt><trkpt lat="42.9316866" lon="11.8547367"><ele>739.0</ele><time>2026-04-09T11:11:10.428Z</time></trkpt><trkpt lat="42.9316118" lon="11.8548659"><ele>737.0</ele><time>2026-04-09T11:11:12.417Z</time></trkpt><trkpt lat="42.9315373" lon="11.8549934"><ele>735.0</ele><time>2026-04-09T11:11:14.42Z</time></trkpt><trkpt lat="42.9314615" lon="11.8551285"><ele>734.6</ele><time>2026-04-09T11:11:16.42Z</time></trkpt><trkpt lat="42.9314212" lon="11.8551953"><ele>734.2</ele><time>2026-04-09T11:11:17.423Z</time></trkpt><trkpt lat="42.9313453" lon="11.855313"><ele>733.8</ele><time>2026-04-09T11:11:19.423Z</time></trkpt><trkpt lat="42.9312738" lon="11.8554293"><ele>733.4</ele><time>2026-04-09T11:11:21.419Z</time></trkpt><trkpt lat="42.9312254" lon="11.8555777"><ele>733.0</ele><time>2026-04-09T11:11:23.421Z</time></trkpt><trkpt lat="42.9311945" lon="11.8556607"><ele>733.0</ele><time>2026-04-09T11:11:24.419Z</time></trkpt><trkpt lat="42.9311649" lon="11.8557378"><ele>733.0</ele><time>2026-04-09T11:11:25.423Z</time></trkpt><trkpt lat="42.9311156" lon="11.8558803"><ele>733.0</ele><time>2026-04-09T11:11:27.405Z</time></trkpt><trkpt lat="42.9310878" lon="11.8559917"><ele>733.0</ele><time>2026-04-09T11:11:29.406Z</time></trkpt><trkpt lat="42.9310834" lon="11.8561224"><ele>733.0</ele><time>2026-04-09T11:11:31.416Z</time></trkpt><trkpt lat="42.9310857" lon="11.8562262"><ele>733.0</ele><time>2026-04-09T11:11:35.419Z</time></trkpt><trkpt lat="42.9310877" lon="11.8563144"><ele>733.8333333333334</ele><time>2026-04-09T11:11:37.419Z</time></trkpt><trkpt lat="42.9310881" lon="11.856434"><ele>734.6666666666667</ele><time>2026-04-09T11:11:39.419Z</time></trkpt><trkpt lat="42.9310896" lon="11.856562"><ele>735.5</ele><time>2026-04-09T11:11:41.416Z</time></trkpt><trkpt lat="42.9310843" lon="11.8566851"><ele>736.3333333333334</ele><time>2026-04-09T11:11:43.42Z</time></trkpt><trkpt lat="42.9310764" lon="11.8567912"><ele>737.1666666666666</ele><time>2026-04-09T11:11:45.416Z</time></trkpt><trkpt lat="42.9310598" lon="11.8568956"><ele>738.0</ele><time>2026-04-09T11:11:47.42Z</time></trkpt><trkpt lat="42.9309883" lon="11.8570264"><ele>738.2</ele><time>2026-04-09T11:11:49.426Z</time></trkpt><trkpt lat="42.9309304" lon="11.8571462"><ele>738.4</ele><time>2026-04-09T11:11:51.424Z</time></trkpt><trkpt lat="42.9308653" lon="11.8572432"><ele>738.6</ele><time>2026-04-09T11:11:53.427Z</time></trkpt><trkpt lat="42.9308007" lon="11.8573154"><ele>738.8000000000001</ele><time>2026-04-09T11:11:55.422Z</time></trkpt><trkpt lat="42.9307186" lon="11.8573535"><ele>739.0</ele><time>2026-04-09T11:11:57.427Z</time></trkpt><trkpt lat="42.930586" lon="11.857317"><ele>739.0</ele><time>2026-04-09T11:11:59.425Z</time></trkpt><trkpt lat="42.9305203" lon="11.857277"><ele>739.0</ele><time>2026-04-09T11:12:00.42Z</time></trkpt><trkpt lat="42.9304489" lon="11.857245"><ele>739.0</ele><time>2026-04-09T11:12:01.417Z</time></trkpt><trkpt lat="42.9303595" lon="11.8572229"><ele>739.0</ele><time>2026-04-09T11:12:02.423Z</time></trkpt><trkpt lat="42.9302766" lon="11.8571957"><ele>739.0</ele><time>2026-04-09T11:12:03.416Z</time></trkpt><trkpt lat="42.9301894" lon="11.8571777"><ele>739.0</ele><time>2026-04-09T11:12:04.416Z</time></trkpt><trkpt lat="42.9300734" lon="11.8571575"><ele>738.2</ele><time>2026-04-09T11:12:05.425Z</time></trkpt><trkpt lat="42.9299748" lon="11.8571359"><ele>737.4000000000001</ele><time>2026-04-09T11:12:06.415Z</time></trkpt><trkpt lat="42.9298788" lon="11.8571274"><ele>736.6</ele><time>2026-04-09T11:12:07.417Z</time></trkpt><trkpt lat="42.9297667" lon="11.8571194"><ele>735.8</ele><time>2026-04-09T11:12:08.419Z</time></trkpt><trkpt lat="42.9296813" lon="11.8571169"><ele>735.0</ele><time>2026-04-09T11:12:09.417Z</time></trkpt><trkpt lat="42.9296023" lon="11.8571215"><ele>735.0</ele><time>2026-04-09T11:12:10.431Z</time></trkpt><trkpt lat="42.9295377" lon="11.8571403"><ele>735.0</ele><time>2026-04-09T11:12:11.41Z</time></trkpt><trkpt lat="42.9294641" lon="11.8571457"><ele>735.0</ele><time>2026-04-09T11:12:12.418Z</time></trkpt><trkpt lat="42.9293692" lon="11.8571571"><ele>735.0</ele><time>2026-04-09T11:12:13.425Z</time></trkpt><trkpt lat="42.9292963" lon="11.8571844"><ele>735.0</ele><time>2026-04-09T11:12:14.414Z</time></trkpt><trkpt lat="42.929224" lon="11.8572248"><ele>735.0</ele><time>2026-04-09T11:12:15.419Z</time></trkpt><trkpt lat="42.9291513" lon="11.8572574"><ele>738.0</ele><time>2026-04-09T11:12:16.407Z</time></trkpt><trkpt lat="42.9290857" lon="11.8572791"><ele>741.0</ele><time>2026-04-09T11:12:17.575Z</time></trkpt><trkpt lat="42.9289344" lon="11.8573532"><ele>744.0</ele><time>2026-04-09T11:12:19.411Z</time></trkpt><trkpt lat="42.9288451" lon="11.8573741"><ele>747.0</ele><time>2026-04-09T11:12:20.416Z</time></trkpt><trkpt lat="42.928752" lon="11.8574029"><ele>750.0</ele><time>2026-04-09T11:12:21.416Z</time></trkpt><trkpt lat="42.9286555" lon="11.8574134"><ele>750.0</ele><time>2026-04-09T11:12:22.415Z</time></trkpt><trkpt lat="42.928559" lon="11.8574297"><ele>750.0</ele><time>2026-04-09T11:12:23.42Z</time></trkpt><trkpt lat="42.9284544" lon="11.85743"><ele>750.0</ele><time>2026-04-09T11:12:24.436Z</time></trkpt><trkpt lat="42.9283501" lon="11.8573473"><ele>750.0</ele><time>2026-04-09T11:12:25.417Z</time></trkpt><trkpt lat="42.9282626" lon="11.8573385"><ele>750.0</ele><time>2026-04-09T11:12:26.415Z</time></trkpt><trkpt lat="42.928138" lon="11.8572745"><ele>750.4</ele><time>2026-04-09T11:12:27.42Z</time></trkpt><trkpt lat="42.9280308" lon="11.8572082"><ele>750.8</ele><time>2026-04-09T11:12:28.428Z</time></trkpt><trkpt lat="42.9279218" lon="11.8571768"><ele>751.2</ele><time>2026-04-09T11:12:29.418Z</time></trkpt><trkpt lat="42.9278242" lon="11.8571887"><ele>751.6</ele><time>2026-04-09T11:12:30.417Z</time></trkpt><trkpt lat="42.9277252" lon="11.8572231"><ele>752.0</ele><time>2026-04-09T11:12:31.42Z</time></trkpt><trkpt lat="42.9276321" lon="11.8572164"><ele>751.5</ele><time>2026-04-09T11:12:32.414Z</time></trkpt><trkpt lat="42.9275491" lon="11.8572644"><ele>751.0</ele><time>2026-04-09T11:12:33.419Z</time></trkpt><trkpt lat="42.9274773" lon="11.8572622"><ele>750.5</ele><time>2026-04-09T11:12:34.411Z</time></trkpt><trkpt lat="42.9274099" lon="11.8572891"><ele>750.0</ele><time>2026-04-09T11:12:35.498Z</time></trkpt><trkpt lat="42.927344" lon="11.8572884"><ele>749.5</ele><time>2026-04-09T11:12:36.417Z</time></trkpt><trkpt lat="42.9272302" lon="11.8572809"><ele>749.0</ele><time>2026-04-09T11:12:38.415Z</time></trkpt><trkpt lat="42.9271321" lon="11.857332"><ele>749.0</ele><time>2026-04-09T11:12:40.41Z</time></trkpt><trkpt lat="42.927092" lon="11.8574086"><ele>749.0</ele><time>2026-04-09T11:12:44.421Z</time></trkpt><trkpt lat="42.9270361" lon="11.8573304"><ele>749.0</ele><time>2026-04-09T11:12:50.412Z</time></trkpt><trkpt lat="42.9270345" lon="11.8572324"><ele>749.0</ele><time>2026-04-09T11:12:52.411Z</time></trkpt><trkpt lat="42.9270213" lon="11.8571299"><ele>749.0</ele><time>2026-04-09T11:12:54.417Z</time></trkpt><trkpt lat="42.9270105" lon="11.856995"><ele>749.0</ele><time>2026-04-09T11:12:56.419Z</time></trkpt><trkpt lat="42.9270395" lon="11.8568371"><ele>748.2</ele><time>2026-04-09T11:12:58.421Z</time></trkpt><trkpt lat="42.9270525" lon="11.8567363"><ele>747.4000000000001</ele><time>2026-04-09T11:12:59.421Z</time></trkpt><trkpt lat="42.9270539" lon="11.8566237"><ele>746.6</ele><time>2026-04-09T11:13:00.414Z</time></trkpt><trkpt lat="42.9270404" lon="11.8564995"><ele>745.8</ele><time>2026-04-09T11:13:01.415Z</time></trkpt><trkpt lat="42.9270311" lon="11.8563844"><ele>745.0</ele><time>2026-04-09T11:13:02.417Z</time></trkpt><trkpt lat="42.9269992" lon="11.8562112"><ele>745.0</ele><time>2026-04-09T11:13:03.418Z</time></trkpt><trkpt lat="42.9269727" lon="11.8560886"><ele>745.0</ele><time>2026-04-09T11:13:04.413Z</time></trkpt><trkpt lat="42.9269315" lon="11.8559479"><ele>745.0</ele><time>2026-04-09T11:13:05.422Z</time></trkpt><trkpt lat="42.926897" lon="11.8558459"><ele>745.0</ele><time>2026-04-09T11:13:06.421Z</time></trkpt><trkpt lat="42.9268367" lon="11.8557381"><ele>745.0</ele><time>2026-04-09T11:13:07.432Z</time></trkpt><trkpt lat="42.9267989" lon="11.8556667"><ele>743.2</ele><time>2026-04-09T11:13:08.424Z</time></trkpt><trkpt lat="42.92673" lon="11.8555966"><ele>741.4</ele><time>2026-04-09T11:13:09.423Z</time></trkpt><trkpt lat="42.9266639" lon="11.855521"><ele>739.5999999999999</ele><time>2026-04-09T11:13:11.436Z</time></trkpt><trkpt lat="42.9265736" lon="11.8554012"><ele>737.8</ele><time>2026-04-09T11:13:16.434Z</time></trkpt><trkpt lat="42.9265289" lon="11.8554795"><ele>736.0</ele><time>2026-04-09T11:13:17.429Z</time></trkpt><trkpt lat="42.9264564" lon="11.8555233"><ele>733.8333333333334</ele><time>2026-04-09T11:13:18.441Z</time></trkpt><trkpt lat="42.9263821" lon="11.8555664"><ele>731.6666666666667</ele><time>2026-04-09T11:13:19.428Z</time></trkpt><trkpt lat="42.9263044" lon="11.8555789"><ele>729.5</ele><time>2026-04-09T11:13:20.428Z</time></trkpt><trkpt lat="42.9262433" lon="11.8555277"><ele>727.3333333333334</ele><time>2026-04-09T11:13:21.438Z</time></trkpt><trkpt lat="42.9261574" lon="11.855445"><ele>725.1666666666666</ele><time>2026-04-09T11:13:23.425Z</time></trkpt><trkpt lat="42.9260921" lon="11.8553229"><ele>723.0</ele><time>2026-04-09T11:13:25.429Z</time></trkpt><trkpt lat="42.9260513" lon="11.8551587"><ele>721.0</ele><time>2026-04-09T11:13:27.436Z</time></trkpt><trkpt lat="42.9260144" lon="11.8550107"><ele>719.0</ele><time>2026-04-09T11:13:29.438Z</time></trkpt><trkpt lat="42.9259999" lon="11.8549247"><ele>717.0</ele><time>2026-04-09T11:13:30.43Z</time></trkpt><trkpt lat="42.9259704" lon="11.8547597"><ele>715.0</ele><time>2026-04-09T11:13:32.43Z</time></trkpt><trkpt lat="42.9259165" lon="11.8546163"><ele>713.0</ele><time>2026-04-09T11:13:34.428Z</time></trkpt><trkpt lat="42.9258715" lon="11.8544761"><ele>711.8</ele><time>2026-04-09T11:13:36.428Z</time></trkpt><trkpt lat="42.9258633" lon="11.854342"><ele>710.5999999999999</ele><time>2026-04-09T11:13:38.425Z</time></trkpt><trkpt lat="42.9259083" lon="11.8542213"><ele>709.4000000000001</ele><time>2026-04-09T11:13:40.451Z</time></trkpt><trkpt lat="42.925976" lon="11.8541385"><ele>708.2</ele><time>2026-04-09T11:13:42.422Z</time></trkpt><trkpt lat="42.925892" lon="11.8542143"><ele>707.0</ele><time>2026-04-09T11:13:52.427Z</time></trkpt><trkpt lat="42.925829" lon="11.8543279"><ele>706.0</ele><time>2026-04-09T11:13:54.434Z</time></trkpt><trkpt lat="42.925828" lon="11.8544694"><ele>705.0</ele><time>2026-04-09T11:13:56.432Z</time></trkpt><trkpt lat="42.9258442" lon="11.85456"><ele>704.0</ele><time>2026-04-09T11:13:57.43Z</time></trkpt><trkpt lat="42.9258725" lon="11.854708"><ele>703.0</ele><time>2026-04-09T11:13:59.427Z</time></trkpt><trkpt lat="42.9258991" lon="11.8548572"><ele>702.0</ele><time>2026-04-09T11:14:01.433Z</time></trkpt><trkpt lat="42.9259075" lon="11.854949"><ele>702.0000000000001</ele><time>2026-04-09T11:14:03.426Z</time></trkpt><trkpt lat="42.9259079" lon="11.8550531"><ele>702.0</ele><time>2026-04-09T11:14:05.437Z</time></trkpt><trkpt lat="42.9259031" lon="11.8551399"><ele>702.0</ele><time>2026-04-09T11:15:48.43Z</time></trkpt><trkpt lat="42.925946" lon="11.8550735"><ele>702.0</ele><time>2026-04-09T11:16:07.428Z</time></trkpt><trkpt lat="42.9258712" lon="11.8550623"><ele>702.0</ele><time>2026-04-09T11:16:21.429Z</time></trkpt><trkpt lat="42.9258268" lon="11.8550013"><ele>702.0000000000001</ele><time>2026-04-09T11:16:29.432Z</time></trkpt><trkpt lat="42.9258675" lon="11.8549143"><ele>702.0</ele><time>2026-04-09T11:16:47.44Z</time></trkpt><trkpt lat="42.9259212" lon="11.8548627"><ele>702.0</ele><time>2026-04-09T11:17:15.432Z</time></trkpt><trkpt lat="42.9258775" lon="11.8547873"><ele>702.0</ele><time>2026-04-09T11:17:52.436Z</time></trkpt><trkpt lat="42.9258854" lon="11.854885"><ele>702.0</ele><time>2026-04-09T11:18:20.448Z</time></trkpt><trkpt lat="42.9259086" lon="11.854965"><ele>702.0</ele><time>2026-04-09T11:18:23.431Z</time></trkpt><trkpt lat="42.9259287" lon="11.855053"><ele>702.0</ele><time>2026-04-09T11:18:25.43Z</time></trkpt><trkpt lat="42.925972" lon="11.8551426"><ele>702.0</ele><time>2026-04-09T11:18:27.43Z</time></trkpt><trkpt lat="42.9260615" lon="11.8552266"><ele>705.5</ele><time>2026-04-09T11:18:29.427Z</time></trkpt><trkpt lat="42.9261687" lon="11.8552749"><ele>709.0</ele><time>2026-04-09T11:18:31.428Z</time></trkpt><trkpt lat="42.9262324" lon="11.855283"><ele>712.5</ele><time>2026-04-09T11:18:33.427Z</time></trkpt><trkpt lat="42.9263192" lon="11.8552593"><ele>716.0</ele><time>2026-04-09T11:18:36.426Z</time></trkpt><trkpt lat="42.926373" lon="11.8552004"><ele>719.5</ele><time>2026-04-09T11:18:38.452Z</time></trkpt><trkpt lat="42.9264441" lon="11.8552274"><ele>723.0</ele><time>2026-04-09T11:18:42.424Z</time></trkpt><trkpt lat="42.9265026" lon="11.8552939"><ele>723.0</ele><time>2026-04-09T11:18:44.435Z</time></trkpt><trkpt lat="42.9265581" lon="11.8554454"><ele>723.0</ele><time>2026-04-09T11:18:46.423Z</time></trkpt><trkpt lat="42.9265901" lon="11.8555332"><ele>723.0</ele><time>2026-04-09T11:18:47.425Z</time></trkpt><trkpt lat="42.9266105" lon="11.8556159"><ele>723.0</ele><time>2026-04-09T11:18:48.435Z</time></trkpt><trkpt lat="42.9266351" lon="11.8557031"><ele>723.0</ele><time>2026-04-09T11:18:49.422Z</time></trkpt><trkpt lat="42.9266651" lon="11.855802"><ele>723.0</ele><time>2026-04-09T11:18:50.425Z</time></trkpt><trkpt lat="42.9267071" lon="11.8559192"><ele>724.0</ele><time>2026-04-09T11:18:51.425Z</time></trkpt><trkpt lat="42.9267265" lon="11.8560277"><ele>725.0</ele><time>2026-04-09T11:18:52.423Z</time></trkpt><trkpt lat="42.9267477" lon="11.8561578"><ele>726.0</ele><time>2026-04-09T11:18:53.512Z</time></trkpt><trkpt lat="42.926737" lon="11.8562624"><ele>727.0</ele><time>2026-04-09T11:18:54.434Z</time></trkpt><trkpt lat="42.9267357" lon="11.8563697"><ele>728.0</ele><time>2026-04-09T11:18:55.43Z</time></trkpt><trkpt lat="42.9267228" lon="11.8564699"><ele>729.0</ele><time>2026-04-09T11:18:56.447Z</time></trkpt><trkpt lat="42.9267116" lon="11.8565692"><ele>729.0</ele><time>2026-04-09T11:18:57.454Z</time></trkpt><trkpt lat="42.9267089" lon="11.8566691"><ele>729.0</ele><time>2026-04-09T11:18:58.425Z</time></trkpt><trkpt lat="42.926704" lon="11.8567745"><ele>729.0</ele><time>2026-04-09T11:18:59.429Z</time></trkpt><trkpt lat="42.9267054" lon="11.8568617"><ele>729.0</ele><time>2026-04-09T11:19:00.425Z</time></trkpt><trkpt lat="42.9266988" lon="11.8569525"><ele>729.0</ele><time>2026-04-09T11:19:01.445Z</time></trkpt><trkpt lat="42.9266872" lon="11.8570735"><ele>729.0</ele><time>2026-04-09T11:19:03.449Z</time></trkpt><trkpt lat="42.9266916" lon="11.857174"><ele>729.0</ele><time>2026-04-09T11:19:15.432Z</time></trkpt><trkpt lat="42.9266893" lon="11.8572658"><ele>730.1666666666666</ele><time>2026-04-09T11:19:27.437Z</time></trkpt><trkpt lat="42.9266973" lon="11.8573665"><ele>731.3333333333334</ele><time>2026-04-09T11:19:29.427Z</time></trkpt><trkpt lat="42.9266773" lon="11.8575283"><ele>732.5</ele><time>2026-04-09T11:19:31.421Z</time></trkpt><trkpt lat="42.9266665" lon="11.8576219"><ele>733.6666666666667</ele><time>2026-04-09T11:19:32.422Z</time></trkpt><trkpt lat="42.9266192" lon="11.8577428"><ele>734.8333333333334</ele><time>2026-04-09T11:19:33.429Z</time></trkpt><trkpt lat="42.9265703" lon="11.8578315"><ele>736.0</ele><time>2026-04-09T11:19:34.424Z</time></trkpt><trkpt lat="42.9265012" lon="11.8579122"><ele>736.8333333333334</ele><time>2026-04-09T11:19:35.43Z</time></trkpt><trkpt lat="42.9264248" lon="11.8579803"><ele>737.6666666666667</ele><time>2026-04-09T11:19:36.421Z</time></trkpt><trkpt lat="42.9263538" lon="11.858043"><ele>738.5</ele><time>2026-04-09T11:19:37.427Z</time></trkpt><trkpt lat="42.9262874" lon="11.8581093"><ele>739.3333333333334</ele><time>2026-04-09T11:19:38.425Z</time></trkpt><trkpt lat="42.9262175" lon="11.8581475"><ele>740.1666666666666</ele><time>2026-04-09T11:19:39.422Z</time></trkpt><trkpt lat="42.9261135" lon="11.8581574"><ele>741.0</ele><time>2026-04-09T11:19:41.449Z</time></trkpt><trkpt lat="42.9260038" lon="11.8580973"><ele>741.0</ele><time>2026-04-09T11:19:43.415Z</time></trkpt><trkpt lat="42.9258773" lon="11.8580401"><ele>741.0</ele><time>2026-04-09T11:19:45.414Z</time></trkpt><trkpt lat="42.9257777" lon="11.858041"><ele>741.0</ele><time>2026-04-09T11:19:47.448Z</time></trkpt><trkpt lat="42.9257047" lon="11.8580822"><ele>741.0</ele><time>2026-04-09T11:19:49.417Z</time></trkpt><trkpt lat="42.9256385" lon="11.8581039"><ele>741.0</ele><time>2026-04-09T11:19:59.424Z</time></trkpt><trkpt lat="42.9256969" lon="11.8581537"><ele>741.0</ele><time>2026-04-09T11:20:05.421Z</time></trkpt><trkpt lat="42.9259633" lon="11.8581587"><ele>741.0</ele><time>2026-04-09T11:20:10.444Z</time></trkpt><trkpt lat="42.926044" lon="11.8581566"><ele>741.0</ele><time>2026-04-09T11:20:11.427Z</time></trkpt><trkpt lat="42.9261419" lon="11.8581886"><ele>741.0</ele><time>2026-04-09T11:20:12.431Z</time></trkpt><trkpt lat="42.9262178" lon="11.8581783"><ele>741.0</ele><time>2026-04-09T11:20:13.412Z</time></trkpt><trkpt lat="42.9263014" lon="11.8581227"><ele>741.0</ele><time>2026-04-09T11:20:14.421Z</time></trkpt><trkpt lat="42.9263896" lon="11.8580749"><ele>741.0</ele><time>2026-04-09T11:20:15.423Z</time></trkpt><trkpt lat="42.9264497" lon="11.857983"><ele>741.0</ele><time>2026-04-09T11:20:16.421Z</time></trkpt><trkpt lat="42.9264983" lon="11.8578963"><ele>741.0</ele><time>2026-04-09T11:20:17.41Z</time></trkpt><trkpt lat="42.9265272" lon="11.8578096"><ele>741.0</ele><time>2026-04-09T11:20:18.413Z</time></trkpt><trkpt lat="42.9265595" lon="11.8577062"><ele>741.0</ele><time>2026-04-09T11:20:19.428Z</time></trkpt><trkpt lat="42.9265832" lon="11.8575893"><ele>741.0</ele><time>2026-04-09T11:20:20.417Z</time></trkpt><trkpt lat="42.9266187" lon="11.8574773"><ele>741.0</ele><time>2026-04-09T11:20:21.424Z</time></trkpt><trkpt lat="42.9266437" lon="11.8573769"><ele>740.1666666666666</ele><time>2026-04-09T11:20:22.416Z</time></trkpt><trkpt lat="42.9267067" lon="11.8572926"><ele>739.3333333333334</ele><time>2026-04-09T11:20:23.438Z</time></trkpt><trkpt lat="42.926757" lon="11.8572055"><ele>738.5</ele><time>2026-04-09T11:20:24.427Z</time></trkpt><trkpt lat="42.9268078" lon="11.8571334"><ele>737.6666666666667</ele><time>2026-04-09T11:20:25.412Z</time></trkpt><trkpt lat="42.9268797" lon="11.8570738"><ele>736.8333333333334</ele><time>2026-04-09T11:20:26.449Z</time></trkpt><trkpt lat="42.9269458" lon="11.8570169"><ele>736.0</ele><time>2026-04-09T11:20:27.42Z</time></trkpt><trkpt lat="42.9270405" lon="11.8569463"><ele>737.8</ele><time>2026-04-09T11:20:28.419Z</time></trkpt><trkpt lat="42.9271293" lon="11.8568682"><ele>739.5999999999999</ele><time>2026-04-09T11:20:29.419Z</time></trkpt><trkpt lat="42.9272261" lon="11.8568215"><ele>741.4</ele><time>2026-04-09T11:20:30.421Z</time></trkpt><trkpt lat="42.9273115" lon="11.8567634"><ele>743.2</ele><time>2026-04-09T11:20:31.414Z</time></trkpt><trkpt lat="42.9274089" lon="11.8567118"><ele>745.0</ele><time>2026-04-09T11:20:32.417Z</time></trkpt><trkpt lat="42.9274957" lon="11.8566626"><ele>745.0</ele><time>2026-04-09T11:20:33.418Z</time></trkpt><trkpt lat="42.92758" lon="11.8566284"><ele>745.0</ele><time>2026-04-09T11:20:34.413Z</time></trkpt><trkpt lat="42.9276732" lon="11.8565959"><ele>745.0</ele><time>2026-04-09T11:20:35.42Z</time></trkpt><trkpt lat="42.9277545" lon="11.8565567"><ele>745.0</ele><time>2026-04-09T11:20:36.418Z</time></trkpt><trkpt lat="42.9278495" lon="11.8565546"><ele>745.0</ele><time>2026-04-09T11:20:37.414Z</time></trkpt><trkpt lat="42.9279473" lon="11.8565556"><ele>745.0</ele><time>2026-04-09T11:20:38.416Z</time></trkpt><trkpt lat="42.9280273" lon="11.8565633"><ele>745.0</ele><time>2026-04-09T11:20:39.417Z</time></trkpt><trkpt lat="42.928116" lon="11.8565956"><ele>745.0</ele><time>2026-04-09T11:20:40.42Z</time></trkpt><trkpt lat="42.9281969" lon="11.8566006"><ele>745.0</ele><time>2026-04-09T11:20:41.417Z</time></trkpt><trkpt lat="42.928275" lon="11.8566047"><ele>745.0</ele><time>2026-04-09T11:20:42.416Z</time></trkpt><trkpt lat="42.9283638" lon="11.8566334"><ele>745.0</ele><time>2026-04-09T11:20:43.418Z</time></trkpt><trkpt lat="42.9284462" lon="11.856675"><ele>744.6666666666667</ele><time>2026-04-09T11:20:44.408Z</time></trkpt><trkpt lat="42.9285295" lon="11.8567414"><ele>744.3333333333334</ele><time>2026-04-09T11:20:45.412Z</time></trkpt><trkpt lat="42.9286118" lon="11.8567973"><ele>744.0</ele><time>2026-04-09T11:20:46.418Z</time></trkpt><trkpt lat="42.9286986" lon="11.8568458"><ele>743.6666666666666</ele><time>2026-04-09T11:20:47.408Z</time></trkpt><trkpt lat="42.9287766" lon="11.8568768"><ele>743.3333333333333</ele><time>2026-04-09T11:20:48.433Z</time></trkpt><trkpt lat="42.9288551" lon="11.8568935"><ele>743.0</ele><time>2026-04-09T11:20:49.408Z</time></trkpt><trkpt lat="42.9289382" lon="11.856905"><ele>744.4</ele><time>2026-04-09T11:20:50.413Z</time></trkpt><trkpt lat="42.9290195" lon="11.856906"><ele>745.8</ele><time>2026-04-09T11:20:51.416Z</time></trkpt><trkpt lat="42.9291009" lon="11.8568935"><ele>747.2</ele><time>2026-04-09T11:20:52.416Z</time></trkpt><trkpt lat="42.9291761" lon="11.8568728"><ele>748.6</ele><time>2026-04-09T11:20:53.416Z</time></trkpt><trkpt lat="42.9292636" lon="11.8568765"><ele>750.0</ele><time>2026-04-09T11:20:54.42Z</time></trkpt><trkpt lat="42.9293857" lon="11.856875"><ele>747.0</ele><time>2026-04-09T11:20:56.423Z</time></trkpt><trkpt lat="42.9295213" lon="11.8568833"><ele>744.0</ele><time>2026-04-09T11:20:58.411Z</time></trkpt><trkpt lat="42.9296016" lon="11.8568704"><ele>741.0</ele><time>2026-04-09T11:20:59.421Z</time></trkpt><trkpt lat="42.9296933" lon="11.8568878"><ele>738.0</ele><time>2026-04-09T11:21:00.435Z</time></trkpt><trkpt lat="42.9297828" lon="11.8569157"><ele>735.0</ele><time>2026-04-09T11:21:01.41Z</time></trkpt><trkpt lat="42.9298831" lon="11.8569667"><ele>735.0</ele><time>2026-04-09T11:21:02.42Z</time></trkpt><trkpt lat="42.9299776" lon="11.8569908"><ele>735.0</ele><time>2026-04-09T11:21:03.408Z</time></trkpt><trkpt lat="42.9300716" lon="11.8570468"><ele>735.0</ele><time>2026-04-09T11:21:04.416Z</time></trkpt><trkpt lat="42.9301566" lon="11.8570888"><ele>735.0</ele><time>2026-04-09T11:21:05.413Z</time></trkpt><trkpt lat="42.9302524" lon="11.8571337"><ele>735.0</ele><time>2026-04-09T11:21:06.413Z</time></trkpt><trkpt lat="42.9303259" lon="11.8571729"><ele>735.6666666666666</ele><time>2026-04-09T11:21:07.409Z</time></trkpt><trkpt lat="42.930417" lon="11.8572275"><ele>736.3333333333334</ele><time>2026-04-09T11:21:08.442Z</time></trkpt><trkpt lat="42.9304828" lon="11.8572124"><ele>737.0</ele><time>2026-04-09T11:21:09.436Z</time></trkpt><trkpt lat="42.9305516" lon="11.8571904"><ele>737.6666666666667</ele><time>2026-04-09T11:21:10.415Z</time></trkpt><trkpt lat="42.9306296" lon="11.85707"><ele>738.3333333333334</ele><time>2026-04-09T11:21:12.42Z</time></trkpt><trkpt lat="42.930675" lon="11.856989"><ele>739.0</ele><time>2026-04-09T11:21:13.414Z</time></trkpt><trkpt lat="42.9307005" lon="11.8569067"><ele>739.0</ele><time>2026-04-09T11:21:14.413Z</time></trkpt><trkpt lat="42.9307114" lon="11.8568135"><ele>739.0</ele><time>2026-04-09T11:21:15.393Z</time></trkpt><trkpt lat="42.9307033" lon="11.8567268"><ele>739.0</ele><time>2026-04-09T11:21:16.407Z</time></trkpt><trkpt lat="42.9307021" lon="11.8566287"><ele>739.0</ele><time>2026-04-09T11:21:17.488Z</time></trkpt><trkpt lat="42.9306911" lon="11.8565347"><ele>739.0</ele><time>2026-04-09T11:21:18.413Z</time></trkpt><trkpt lat="42.9306869" lon="11.8564378"><ele>739.0</ele><time>2026-04-09T11:21:19.398Z</time></trkpt><trkpt lat="42.9306875" lon="11.8563453"><ele>739.0</ele><time>2026-04-09T11:21:20.411Z</time></trkpt><trkpt lat="42.9306944" lon="11.8562368"><ele>737.5</ele><time>2026-04-09T11:21:21.415Z</time></trkpt><trkpt lat="42.9306986" lon="11.8561254"><ele>736.0</ele><time>2026-04-09T11:21:22.41Z</time></trkpt><trkpt lat="42.9306962" lon="11.8560238"><ele>734.5</ele><time>2026-04-09T11:21:23.428Z</time></trkpt><trkpt lat="42.9306939" lon="11.8558767"><ele>733.0</ele><time>2026-04-09T11:21:25.434Z</time></trkpt><trkpt lat="42.9307145" lon="11.8557213"><ele>731.5</ele><time>2026-04-09T11:21:27.418Z</time></trkpt><trkpt lat="42.93074" lon="11.8556419"><ele>730.0</ele><time>2026-04-09T11:21:28.416Z</time></trkpt><trkpt lat="42.9307694" lon="11.8555494"><ele>730.5</ele><time>2026-04-09T11:21:29.428Z</time></trkpt><trkpt lat="42.9308187" lon="11.855476"><ele>731.0</ele><time>2026-04-09T11:21:30.421Z</time></trkpt><trkpt lat="42.9308781" lon="11.8554025"><ele>731.5</ele><time>2026-04-09T11:21:31.419Z</time></trkpt><trkpt lat="42.9309401" lon="11.8553334"><ele>732.0</ele><time>2026-04-09T11:21:32.424Z</time></trkpt><trkpt lat="42.9310037" lon="11.8552473"><ele>732.5</ele><time>2026-04-09T11:21:33.416Z</time></trkpt><trkpt lat="42.9310766" lon="11.8551697"><ele>733.0</ele><time>2026-04-09T11:21:34.423Z</time></trkpt><trkpt lat="42.9311342" lon="11.8550819"><ele>733.3333333333334</ele><time>2026-04-09T11:21:35.412Z</time></trkpt><trkpt lat="42.9311905" lon="11.8549954"><ele>733.6666666666667</ele><time>2026-04-09T11:21:36.412Z</time></trkpt><trkpt lat="42.9312434" lon="11.8549113"><ele>734.0</ele><time>2026-04-09T11:21:37.412Z</time></trkpt><trkpt lat="42.9313087" lon="11.8548451"><ele>734.3333333333334</ele><time>2026-04-09T11:21:38.431Z</time></trkpt><trkpt lat="42.9313689" lon="11.854762"><ele>734.6666666666666</ele><time>2026-04-09T11:21:39.41Z</time></trkpt><trkpt lat="42.9314242" lon="11.8546762"><ele>735.0</ele><time>2026-04-09T11:21:40.421Z</time></trkpt><trkpt lat="42.9314797" lon="11.8546122"><ele>735.0</ele><time>2026-04-09T11:21:41.424Z</time></trkpt><trkpt lat="42.9315706" lon="11.854511"><ele>735.0</ele><time>2026-04-09T11:21:43.418Z</time></trkpt><trkpt lat="42.9316525" lon="11.8544897"><ele>735.0</ele><time>2026-04-09T11:21:45.423Z</time></trkpt><trkpt lat="42.9317082" lon="11.8545882"><ele>735.0</ele><time>2026-04-09T11:21:48.422Z</time></trkpt><trkpt lat="42.9317324" lon="11.8547063"><ele>735.0</ele><time>2026-04-09T11:21:50.427Z</time></trkpt><trkpt lat="42.9317674" lon="11.8548212"><ele>735.5</ele><time>2026-04-09T11:21:52.425Z</time></trkpt><trkpt lat="42.9317995" lon="11.8549638"><ele>736.0</ele><time>2026-04-09T11:21:54.425Z</time></trkpt><trkpt lat="42.9318296" lon="11.8550642"><ele>736.5</ele><time>2026-04-09T11:21:56.42Z</time></trkpt><trkpt lat="42.9318168" lon="11.8551677"><ele>737.0</ele><time>2026-04-09T11:21:58.404Z</time></trkpt><trkpt lat="42.9317633" lon="11.8552516"><ele>737.5</ele><time>2026-04-09T11:22:00.423Z</time></trkpt><trkpt lat="42.9317491" lon="11.8553794"><ele>738.0</ele><time>2026-04-09T11:22:02.42Z</time></trkpt><trkpt lat="42.9317556" lon="11.8554848"><ele>738.1666666666666</ele><time>2026-04-09T11:22:04.417Z</time></trkpt><trkpt lat="42.931766" lon="11.8555885"><ele>738.3333333333334</ele><time>2026-04-09T11:22:06.41Z</time></trkpt><trkpt lat="42.9317904" lon="11.8556999"><ele>738.5</ele><time>2026-04-09T11:22:08.425Z</time></trkpt><trkpt lat="42.9317989" lon="11.8558223"><ele>738.6666666666667</ele><time>2026-04-09T11:22:11.418Z</time></trkpt><trkpt lat="42.9317959" lon="11.8559549"><ele>738.8333333333334</ele><time>2026-04-09T11:22:13.416Z</time></trkpt><trkpt lat="42.9317836" lon="11.8560395"><ele>739.0</ele><time>2026-04-09T11:22:14.419Z</time></trkpt><trkpt lat="42.9317522" lon="11.8561726"><ele>739.0</ele><time>2026-04-09T11:22:16.413Z</time></trkpt><trkpt lat="42.9317507" lon="11.8563062"><ele>739.0</ele><time>2026-04-09T11:22:18.408Z</time></trkpt><trkpt lat="42.931759" lon="11.8564261"><ele>739.0</ele><time>2026-04-09T11:22:20.419Z</time></trkpt><trkpt lat="42.9317727" lon="11.856552"><ele>739.0</ele><time>2026-04-09T11:22:22.415Z</time></trkpt><trkpt lat="42.931785" lon="11.8566645"><ele>739.0</ele><time>2026-04-09T11:22:24.413Z</time></trkpt><trkpt lat="42.9318434" lon="11.8567833"><ele>740.5</ele><time>2026-04-09T11:22:26.412Z</time></trkpt><trkpt lat="42.9319199" lon="11.8569159"><ele>742.0</ele><time>2026-04-09T11:22:28.414Z</time></trkpt><trkpt lat="42.9319503" lon="11.856994"><ele>743.5</ele><time>2026-04-09T11:22:29.452Z</time></trkpt><trkpt lat="42.9319819" lon="11.8570693"><ele>745.0</ele><time>2026-04-09T11:22:30.42Z</time></trkpt><trkpt lat="42.9320261" lon="11.857142"><ele>746.5</ele><time>2026-04-09T11:22:31.424Z</time></trkpt><trkpt lat="42.9320722" lon="11.8572066"><ele>748.0</ele><time>2026-04-09T11:22:32.421Z</time></trkpt><trkpt lat="42.9321091" lon="11.857291"><ele>748.0</ele><time>2026-04-09T11:22:33.414Z</time></trkpt><trkpt lat="42.9321729" lon="11.857402"><ele>748.0</ele><time>2026-04-09T11:22:35.415Z</time></trkpt><trkpt lat="42.9322706" lon="11.8575332"><ele>748.0</ele><time>2026-04-09T11:22:37.424Z</time></trkpt><trkpt lat="42.9323052" lon="11.8576119"><ele>748.0</ele><time>2026-04-09T11:22:38.422Z</time></trkpt><trkpt lat="42.9323373" lon="11.857709"><ele>748.0</ele><time>2026-04-09T11:22:39.419Z</time></trkpt><trkpt lat="42.9323644" lon="11.8578004"><ele>749.3333333333334</ele><time>2026-04-09T11:22:40.422Z</time></trkpt><trkpt lat="42.9324012" lon="11.8579144"><ele>750.6666666666667</ele><time>2026-04-09T11:22:41.419Z</time></trkpt><trkpt lat="42.9324544" lon="11.8580257"><ele>752.0</ele><time>2026-04-09T11:22:42.421Z</time></trkpt><trkpt lat="42.9325024" lon="11.8581193"><ele>753.3333333333334</ele><time>2026-04-09T11:22:43.42Z</time></trkpt><trkpt lat="42.9325364" lon="11.858211"><ele>754.6666666666666</ele><time>2026-04-09T11:22:44.42Z</time></trkpt><trkpt lat="42.9325898" lon="11.8583156"><ele>756.0</ele><time>2026-04-09T11:22:45.423Z</time></trkpt><trkpt lat="42.932657" lon="11.8584511"><ele>759.1999999999999</ele><time>2026-04-09T11:22:46.421Z</time></trkpt><trkpt lat="42.9327335" lon="11.8585721"><ele>762.4</ele><time>2026-04-09T11:22:47.431Z</time></trkpt><trkpt lat="42.9327968" lon="11.8586814"><ele>765.6</ele><time>2026-04-09T11:22:48.419Z</time></trkpt><trkpt lat="42.9328507" lon="11.8587879"><ele>768.8</ele><time>2026-04-09T11:22:49.421Z</time></trkpt><trkpt lat="42.9328781" lon="11.8588757"><ele>772.0</ele><time>2026-04-09T11:22:50.439Z</time></trkpt><trkpt lat="42.9329305" lon="11.8589834"><ele>771.9999999999999</ele><time>2026-04-09T11:22:51.422Z</time></trkpt><trkpt lat="42.9329707" lon="11.859072"><ele>772.0</ele><time>2026-04-09T11:22:52.418Z</time></trkpt><trkpt lat="42.9329983" lon="11.8591507"><ele>772.0</ele><time>2026-04-09T11:22:53.416Z</time></trkpt><trkpt lat="42.9330445" lon="11.8592106"><ele>772.0</ele><time>2026-04-09T11:22:54.445Z</time></trkpt><trkpt lat="42.9331398" lon="11.8592316"><ele>771.9999999999999</ele><time>2026-04-09T11:22:56.439Z</time></trkpt><trkpt lat="42.9332051" lon="11.8591832"><ele>772.0</ele><time>2026-04-09T11:22:57.442Z</time></trkpt><trkpt lat="42.933281" lon="11.8591621"><ele>772.0</ele><time>2026-04-09T11:22:58.416Z</time></trkpt><trkpt lat="42.9333686" lon="11.8591283"><ele>772.0</ele><time>2026-04-09T11:22:59.421Z</time></trkpt><trkpt lat="42.933469" lon="11.8591059"><ele>772.0</ele><time>2026-04-09T11:23:00.428Z</time></trkpt><trkpt lat="42.9335745" lon="11.8591005"><ele>772.0</ele><time>2026-04-09T11:23:01.421Z</time></trkpt><trkpt lat="42.9336873" lon="11.8590776"><ele>772.0</ele><time>2026-04-09T11:23:02.424Z</time></trkpt><trkpt lat="42.9337965" lon="11.8590494"><ele>772.8</ele><time>2026-04-09T11:23:03.425Z</time></trkpt><trkpt lat="42.9338942" lon="11.859022"><ele>773.6</ele><time>2026-04-09T11:23:04.414Z</time></trkpt><trkpt lat="42.9339849" lon="11.8590125"><ele>774.4</ele><time>2026-04-09T11:23:05.426Z</time></trkpt><trkpt lat="42.9340811" lon="11.8590161"><ele>775.1999999999999</ele><time>2026-04-09T11:23:06.437Z</time></trkpt><trkpt lat="42.9341789" lon="11.8590174"><ele>776.0</ele><time>2026-04-09T11:23:07.438Z</time></trkpt><trkpt lat="42.9342853" lon="11.8590205"><ele>776.5</ele><time>2026-04-09T11:23:08.451Z</time></trkpt><trkpt lat="42.9343843" lon="11.8590309"><ele>777.0</ele><time>2026-04-09T11:23:09.439Z</time></trkpt><trkpt lat="42.9344988" lon="11.8590358"><ele>777.5</ele><time>2026-04-09T11:23:10.439Z</time></trkpt><trkpt lat="42.9346193" lon="11.8590555"><ele>778.0</ele><time>2026-04-09T11:23:11.422Z</time></trkpt><trkpt lat="42.9347311" lon="11.8590925"><ele>778.0</ele><time>2026-04-09T11:23:12.426Z</time></trkpt><trkpt lat="42.9348414" lon="11.8591195"><ele>778.0</ele><time>2026-04-09T11:23:13.411Z</time></trkpt><trkpt lat="42.9349499" lon="11.8591617"><ele>778.0</ele><time>2026-04-09T11:23:14.424Z</time></trkpt><trkpt lat="42.9350459" lon="11.8592091"><ele>778.0</ele><time>2026-04-09T11:23:15.418Z</time></trkpt><trkpt lat="42.9351525" lon="11.8592852"><ele>778.0</ele><time>2026-04-09T11:23:16.421Z</time></trkpt><trkpt lat="42.9352428" lon="11.8593582"><ele>779.9999999999999</ele><time>2026-04-09T11:23:17.416Z</time></trkpt><trkpt lat="42.9353204" lon="11.859435"><ele>782.0</ele><time>2026-04-09T11:23:18.45Z</time></trkpt><trkpt lat="42.9353914" lon="11.8594936"><ele>784.0</ele><time>2026-04-09T11:23:19.432Z</time></trkpt><trkpt lat="42.9354629" lon="11.8595515"><ele>786.0</ele><time>2026-04-09T11:23:20.446Z</time></trkpt><trkpt lat="42.9355302" lon="11.8595969"><ele>787.9999999999999</ele><time>2026-04-09T11:23:21.436Z</time></trkpt><trkpt lat="42.9355987" lon="11.8596444"><ele>790.0</ele><time>2026-04-09T11:23:22.433Z</time></trkpt><trkpt lat="42.9356772" lon="11.8596854"><ele>790.0</ele><time>2026-04-09T11:23:23.414Z</time></trkpt><trkpt lat="42.9357599" lon="11.8597152"><ele>790.0</ele><time>2026-04-09T11:23:24.413Z</time></trkpt><trkpt lat="42.9358692" lon="11.8597615"><ele>790.0</ele><time>2026-04-09T11:23:25.414Z</time></trkpt><trkpt lat="42.9359616" lon="11.8598065"><ele>790.0</ele><time>2026-04-09T11:23:26.426Z</time></trkpt><trkpt lat="42.9360559" lon="11.8598566"><ele>790.0</ele><time>2026-04-09T11:23:27.44Z</time></trkpt><trkpt lat="42.9361525" lon="11.8599066"><ele>789.6</ele><time>2026-04-09T11:23:28.416Z</time></trkpt><trkpt lat="42.9362356" lon="11.8599737"><ele>789.2</ele><time>2026-04-09T11:23:29.44Z</time></trkpt><trkpt lat="42.9363054" lon="11.8600684"><ele>788.8</ele><time>2026-04-09T11:23:30.447Z</time></trkpt><trkpt lat="42.9363667" lon="11.8601708"><ele>788.4</ele><time>2026-04-09T11:23:31.431Z</time></trkpt><trkpt lat="42.9364337" lon="11.8602817"><ele>788.0</ele><time>2026-04-09T11:23:32.438Z</time></trkpt><trkpt lat="42.936499" lon="11.8604008"><ele>789.5999999999999</ele><time>2026-04-09T11:23:33.409Z</time></trkpt><trkpt lat="42.9365526" lon="11.8605059"><ele>791.1999999999999</ele><time>2026-04-09T11:23:34.417Z</time></trkpt><trkpt lat="42.9366235" lon="11.8606139"><ele>792.8</ele><time>2026-04-09T11:23:35.412Z</time></trkpt><trkpt lat="42.9366926" lon="11.8607034"><ele>794.4</ele><time>2026-04-09T11:23:36.408Z</time></trkpt><trkpt lat="42.9367619" lon="11.860788"><ele>796.0</ele><time>2026-04-09T11:23:37.413Z</time></trkpt><trkpt lat="42.9368309" lon="11.8608616"><ele>796.1999999999999</ele><time>2026-04-09T11:23:38.419Z</time></trkpt><trkpt lat="42.9369056" lon="11.8609243"><ele>796.4</ele><time>2026-04-09T11:23:39.418Z</time></trkpt><trkpt lat="42.936971" lon="11.8609878"><ele>796.6</ele><time>2026-04-09T11:23:40.439Z</time></trkpt><trkpt lat="42.9370299" lon="11.8610708"><ele>796.8</ele><time>2026-04-09T11:23:41.575Z</time></trkpt><trkpt lat="42.9371218" lon="11.861246"><ele>797.0</ele><time>2026-04-09T11:23:43.438Z</time></trkpt><trkpt lat="42.9371601" lon="11.8613339"><ele>798.8</ele><time>2026-04-09T11:23:44.45Z</time></trkpt><trkpt lat="42.9371987" lon="11.8614651"><ele>800.6</ele><time>2026-04-09T11:23:46.418Z</time></trkpt><trkpt lat="42.9372159" lon="11.861611"><ele>802.4</ele><time>2026-04-09T11:23:48.42Z</time></trkpt><trkpt lat="42.9372394" lon="11.8617023"><ele>804.1999999999999</ele><time>2026-04-09T11:23:50.42Z</time></trkpt><trkpt lat="42.9372779" lon="11.8618233"><ele>806.0</ele><time>2026-04-09T11:23:52.416Z</time></trkpt><trkpt lat="42.9373563" lon="11.8619308"><ele>809.25</ele><time>2026-04-09T11:23:54.438Z</time></trkpt><trkpt lat="42.9374496" lon="11.8620361"><ele>812.5</ele><time>2026-04-09T11:23:56.414Z</time></trkpt><trkpt lat="42.9375574" lon="11.8621366"><ele>815.75</ele><time>2026-04-09T11:23:58.411Z</time></trkpt><trkpt lat="42.9376791" lon="11.8622133"><ele>819.0</ele><time>2026-04-09T11:24:00.421Z</time></trkpt><trkpt lat="42.9378303" lon="11.8622706"><ele>819.1666666666666</ele><time>2026-04-09T11:24:02.421Z</time></trkpt><trkpt lat="42.9379031" lon="11.8622979"><ele>819.3333333333333</ele><time>2026-04-09T11:24:03.412Z</time></trkpt><trkpt lat="42.937973" lon="11.8623162"><ele>819.5</ele><time>2026-04-09T11:24:04.414Z</time></trkpt><trkpt lat="42.93805" lon="11.8623227"><ele>819.6666666666666</ele><time>2026-04-09T11:24:05.432Z</time></trkpt><trkpt lat="42.9381256" lon="11.8623374"><ele>819.8333333333333</ele><time>2026-04-09T11:24:06.433Z</time></trkpt><trkpt lat="42.9382094" lon="11.8623505"><ele>820.0</ele><time>2026-04-09T11:24:07.404Z</time></trkpt><trkpt lat="42.9383056" lon="11.8623626"><ele>819.9999999999999</ele><time>2026-04-09T11:24:08.424Z</time></trkpt><trkpt lat="42.9383795" lon="11.8623702"><ele>820.0</ele><time>2026-04-09T11:24:09.412Z</time></trkpt><trkpt lat="42.9384691" lon="11.8623882"><ele>820.0</ele><time>2026-04-09T11:24:10.41Z</time></trkpt><trkpt lat="42.938546" lon="11.8624015"><ele>820.0</ele><time>2026-04-09T11:24:11.414Z</time></trkpt><trkpt lat="42.9386217" lon="11.8624094"><ele>819.9999999999999</ele><time>2026-04-09T11:24:12.415Z</time></trkpt><trkpt lat="42.9386946" lon="11.8624164"><ele>820.0</ele><time>2026-04-09T11:24:13.409Z</time></trkpt><trkpt lat="42.9387734" lon="11.8624768"><ele>819.4</ele><time>2026-04-09T11:24:14.417Z</time></trkpt><trkpt lat="42.9388916" lon="11.8625373"><ele>818.8</ele><time>2026-04-09T11:24:16.412Z</time></trkpt><trkpt lat="42.9390116" lon="11.8626499"><ele>818.2</ele><time>2026-04-09T11:24:18.42Z</time></trkpt><trkpt lat="42.9390806" lon="11.8627037"><ele>817.6</ele><time>2026-04-09T11:24:19.408Z</time></trkpt><trkpt lat="42.9391581" lon="11.8627706"><ele>817.0</ele><time>2026-04-09T11:24:20.424Z</time></trkpt><trkpt lat="42.9392351" lon="11.8628398"><ele>820.2</ele><time>2026-04-09T11:24:21.413Z</time></trkpt><trkpt lat="42.9393126" lon="11.8629243"><ele>823.4000000000001</ele><time>2026-04-09T11:24:22.408Z</time></trkpt><trkpt lat="42.9393925" lon="11.8629904"><ele>826.5999999999999</ele><time>2026-04-09T11:24:23.415Z</time></trkpt><trkpt lat="42.9394805" lon="11.8630627"><ele>829.8</ele><time>2026-04-09T11:24:24.417Z</time></trkpt><trkpt lat="42.9395526" lon="11.8631171"><ele>833.0</ele><time>2026-04-09T11:24:25.411Z</time></trkpt><trkpt lat="42.9396347" lon="11.8631948"><ele>833.0</ele><time>2026-04-09T11:24:26.421Z</time></trkpt><trkpt lat="42.9397173" lon="11.8632744"><ele>833.0</ele><time>2026-04-09T11:24:27.416Z</time></trkpt><trkpt lat="42.9398227" lon="11.8633765"><ele>833.0</ele><time>2026-04-09T11:24:28.419Z</time></trkpt><trkpt lat="42.9399123" lon="11.8634563"><ele>833.0</ele><time>2026-04-09T11:24:29.415Z</time></trkpt><trkpt lat="42.9400192" lon="11.8635441"><ele>836.0</ele><time>2026-04-09T11:24:30.418Z</time></trkpt><trkpt lat="42.9401023" lon="11.8636037"><ele>839.0</ele><time>2026-04-09T11:24:31.415Z</time></trkpt><trkpt lat="42.9402168" lon="11.8636958"><ele>842.0</ele><time>2026-04-09T11:24:32.418Z</time></trkpt><trkpt lat="42.9402919" lon="11.8637656"><ele>845.0</ele><time>2026-04-09T11:24:33.411Z</time></trkpt><trkpt lat="42.9403756" lon="11.8638815"><ele>848.0</ele><time>2026-04-09T11:24:34.414Z</time></trkpt><trkpt lat="42.9404505" lon="11.8639468"><ele>848.0</ele><time>2026-04-09T11:24:35.413Z</time></trkpt><trkpt lat="42.9405305" lon="11.8640203"><ele>848.0</ele><time>2026-04-09T11:24:36.417Z</time></trkpt><trkpt lat="42.9405933" lon="11.8640684"><ele>848.0</ele><time>2026-04-09T11:24:37.431Z</time></trkpt><trkpt lat="42.9407152" lon="11.8641965"><ele>848.0</ele><time>2026-04-09T11:24:39.442Z</time></trkpt><trkpt lat="42.9407727" lon="11.8642747"><ele>848.0</ele><time>2026-04-09T11:24:40.413Z</time></trkpt><trkpt lat="42.9408343" lon="11.8643578"><ele>851.4</ele><time>2026-04-09T11:24:41.421Z</time></trkpt><trkpt lat="42.9409085" lon="11.8644308"><ele>854.8</ele><time>2026-04-09T11:24:42.413Z</time></trkpt><trkpt lat="42.9410031" lon="11.8645076"><ele>858.2</ele><time>2026-04-09T11:24:43.41Z</time></trkpt><trkpt lat="42.941081" lon="11.8645883"><ele>861.6</ele><time>2026-04-09T11:24:44.417Z</time></trkpt><trkpt lat="42.9411604" lon="11.8646509"><ele>865.0</ele><time>2026-04-09T11:24:45.439Z</time></trkpt><trkpt lat="42.9412345" lon="11.8647297"><ele>865.0</ele><time>2026-04-09T11:24:46.434Z</time></trkpt><trkpt lat="42.9413113" lon="11.8648273"><ele>865.0</ele><time>2026-04-09T11:24:47.418Z</time></trkpt><trkpt lat="42.9413767" lon="11.8649089"><ele>865.0</ele><time>2026-04-09T11:24:48.433Z</time></trkpt><trkpt lat="42.9414486" lon="11.8650124"><ele>865.0</ele><time>2026-04-09T11:24:49.438Z</time></trkpt><trkpt lat="42.9415048" lon="11.8651138"><ele>865.0</ele><time>2026-04-09T11:24:50.411Z</time></trkpt><trkpt lat="42.9415789" lon="11.8652211"><ele>865.2857142857143</ele><time>2026-04-09T11:24:51.418Z</time></trkpt><trkpt lat="42.9416178" lon="11.8652956"><ele>865.5714285714287</ele><time>2026-04-09T11:24:52.411Z</time></trkpt><trkpt lat="42.9416722" lon="11.8653751"><ele>865.8571428571429</ele><time>2026-04-09T11:24:53.429Z</time></trkpt><trkpt lat="42.9417323" lon="11.8654388"><ele>866.1428571428571</ele><time>2026-04-09T11:24:54.404Z</time></trkpt><trkpt lat="42.9417887" lon="11.865489"><ele>866.4285714285714</ele><time>2026-04-09T11:24:55.409Z</time></trkpt><trkpt lat="42.9418443" lon="11.8655534"><ele>866.7142857142857</ele><time>2026-04-09T11:24:56.405Z</time></trkpt><trkpt lat="42.9418979" lon="11.865619"><ele>867.0</ele><time>2026-04-09T11:24:57.427Z</time></trkpt><trkpt lat="42.9419593" lon="11.8656909"><ele>867.0</ele><time>2026-04-09T11:24:58.426Z</time></trkpt><trkpt lat="42.9420402" lon="11.8657629"><ele>867.0</ele><time>2026-04-09T11:24:59.406Z</time></trkpt><trkpt lat="42.9421261" lon="11.8658417"><ele>867.0</ele><time>2026-04-09T11:25:00.407Z</time></trkpt><trkpt lat="42.9422138" lon="11.8659173"><ele>867.0</ele><time>2026-04-09T11:25:01.405Z</time></trkpt><trkpt lat="42.9423061" lon="11.8659931"><ele>867.0</ele><time>2026-04-09T11:25:02.405Z</time></trkpt><trkpt lat="42.9424077" lon="11.8660885"><ele>868.0</ele><time>2026-04-09T11:25:03.406Z</time></trkpt><trkpt lat="42.9425028" lon="11.8661746"><ele>869.0</ele><time>2026-04-09T11:25:04.404Z</time></trkpt><trkpt lat="42.9426171" lon="11.866268"><ele>870.0</ele><time>2026-04-09T11:25:05.414Z</time></trkpt><trkpt lat="42.942739" lon="11.8663708"><ele>871.0</ele><time>2026-04-09T11:25:06.407Z</time></trkpt><trkpt lat="42.9428524" lon="11.8664743"><ele>871.0</ele><time>2026-04-09T11:25:07.428Z</time></trkpt><trkpt lat="42.9429506" lon="11.8665557"><ele>870.9999999999999</ele><time>2026-04-09T11:25:08.428Z</time></trkpt><trkpt lat="42.9430584" lon="11.8666445"><ele>870.9999999999999</ele><time>2026-04-09T11:25:09.428Z</time></trkpt><trkpt lat="42.9431507" lon="11.8667328"><ele>871.0</ele><time>2026-04-09T11:25:10.407Z</time></trkpt><trkpt lat="42.9432183" lon="11.8667883"><ele>871.0</ele><time>2026-04-09T11:25:11.408Z</time></trkpt><trkpt lat="42.9432823" lon="11.8668341"><ele>872.6666666666666</ele><time>2026-04-09T11:25:12.427Z</time></trkpt><trkpt lat="42.9433482" lon="11.8668756"><ele>874.3333333333333</ele><time>2026-04-09T11:25:13.406Z</time></trkpt><trkpt lat="42.943409" lon="11.8669022"><ele>876.0</ele><time>2026-04-09T11:25:14.412Z</time></trkpt><trkpt lat="42.9435189" lon="11.8669488"><ele>877.6666666666667</ele><time>2026-04-09T11:25:16.416Z</time></trkpt><trkpt lat="42.9435782" lon="11.8670022"><ele>879.3333333333334</ele><time>2026-04-09T11:25:17.419Z</time></trkpt><trkpt lat="42.9436146" lon="11.867087"><ele>881.0</ele><time>2026-04-09T11:25:25.419Z</time></trkpt><trkpt lat="42.9436987" lon="11.8671356"><ele>881.0000000000001</ele><time>2026-04-09T11:26:55.436Z</time></trkpt><trkpt lat="42.9437652" lon="11.8671755"><ele>881.0</ele><time>2026-04-09T11:27:39.436Z</time></trkpt><trkpt lat="42.9438265" lon="11.8672233"><ele>881.0</ele><time>2026-04-09T11:28:04.434Z</time></trkpt><trkpt lat="42.9438908" lon="11.8672732"><ele>881.0</ele><time>2026-04-09T11:28:08.431Z</time></trkpt><trkpt lat="42.943936" lon="11.8673346"><ele>881.0000000000001</ele><time>2026-04-09T11:28:11.432Z</time></trkpt><trkpt lat="42.944008" lon="11.8673794"><ele>881.0</ele><time>2026-04-09T11:28:13.444Z</time></trkpt><trkpt lat="42.9441133" lon="11.8673736"><ele>881.0</ele><time>2026-04-09T11:28:15.426Z</time></trkpt><trkpt lat="42.9441869" lon="11.8673795"><ele>881.0</ele><time>2026-04-09T11:28:16.446Z</time></trkpt><trkpt lat="42.9442529" lon="11.8673921"><ele>881.0</ele><time>2026-04-09T11:28:17.442Z</time></trkpt><trkpt lat="42.9443218" lon="11.8673625"><ele>881.0</ele><time>2026-04-09T11:28:18.476Z</time></trkpt><trkpt lat="42.9443907" lon="11.86738"><ele>881.0</ele><time>2026-04-09T11:28:19.469Z</time></trkpt><trkpt lat="42.9444657" lon="11.8673927"><ele>881.0</ele><time>2026-04-09T11:28:20.45Z</time></trkpt><trkpt lat="42.9445332" lon="11.8674222"><ele>881.0</ele><time>2026-04-09T11:28:21.468Z</time></trkpt><trkpt lat="42.9446002" lon="11.8674576"><ele>881.6666666666667</ele><time>2026-04-09T11:28:22.45Z</time></trkpt><trkpt lat="42.9446595" lon="11.8675149"><ele>882.3333333333334</ele><time>2026-04-09T11:28:23.45Z</time></trkpt><trkpt lat="42.9447399" lon="11.8675858"><ele>883.0</ele><time>2026-04-09T11:28:24.47Z</time></trkpt><trkpt lat="42.9448113" lon="11.8676554"><ele>883.6666666666667</ele><time>2026-04-09T11:28:25.448Z</time></trkpt><trkpt lat="42.9448777" lon="11.8677169"><ele>884.3333333333334</ele><time>2026-04-09T11:28:26.427Z</time></trkpt><trkpt lat="42.9449482" lon="11.8678152"><ele>885.0</ele><time>2026-04-09T11:28:27.424Z</time></trkpt><trkpt lat="42.9450139" lon="11.8679193"><ele>879.8</ele><time>2026-04-09T11:28:28.429Z</time></trkpt><trkpt lat="42.9450894" lon="11.8680079"><ele>874.6</ele><time>2026-04-09T11:28:29.422Z</time></trkpt><trkpt lat="42.9451488" lon="11.8680511"><ele>869.4000000000001</ele><time>2026-04-09T11:28:30.453Z</time></trkpt><trkpt lat="42.9452103" lon="11.8681239"><ele>864.2</ele><time>2026-04-09T11:28:31.446Z</time></trkpt><trkpt lat="42.9452689" lon="11.8681822"><ele>859.0</ele><time>2026-04-09T11:28:32.43Z</time></trkpt><trkpt lat="42.9453848" lon="11.8682995"><ele>858.9999999999999</ele><time>2026-04-09T11:28:34.425Z</time></trkpt><trkpt lat="42.9454479" lon="11.8683603"><ele>859.0</ele><time>2026-04-09T11:28:35.426Z</time></trkpt><trkpt lat="42.9455225" lon="11.8684347"><ele>859.0</ele><time>2026-04-09T11:28:36.421Z</time></trkpt><trkpt lat="42.9455964" lon="11.8685144"><ele>859.0</ele><time>2026-04-09T11:28:37.423Z</time></trkpt><trkpt lat="42.9456602" lon="11.8685799"><ele>858.9999999999999</ele><time>2026-04-09T11:28:38.419Z</time></trkpt><trkpt lat="42.9457278" lon="11.8686427"><ele>859.0</ele><time>2026-04-09T11:28:39.444Z</time></trkpt><trkpt lat="42.945797" lon="11.8687127"><ele>859.3333333333333</ele><time>2026-04-09T11:28:40.422Z</time></trkpt><trkpt lat="42.9458619" lon="11.8687883"><ele>859.6666666666666</ele><time>2026-04-09T11:28:41.449Z</time></trkpt><trkpt lat="42.9459206" lon="11.8688562"><ele>860.0</ele><time>2026-04-09T11:28:42.428Z</time></trkpt><trkpt lat="42.9459809" lon="11.868911"><ele>860.3333333333333</ele><time>2026-04-09T11:28:43.446Z</time></trkpt><trkpt lat="42.9460487" lon="11.8689599"><ele>860.6666666666666</ele><time>2026-04-09T11:28:44.426Z</time></trkpt><trkpt lat="42.9461093" lon="11.8690153"><ele>861.0</ele><time>2026-04-09T11:28:45.427Z</time></trkpt><trkpt lat="42.9461689" lon="11.8690667"><ele>861.0</ele><time>2026-04-09T11:28:46.43Z</time></trkpt><trkpt lat="42.9462649" lon="11.8691426"><ele>860.9999999999999</ele><time>2026-04-09T11:28:48.451Z</time></trkpt><trkpt lat="42.9463625" lon="11.869223"><ele>860.9999999999999</ele><time>2026-04-09T11:28:50.449Z</time></trkpt><trkpt lat="42.9464735" lon="11.8693244"><ele>861.0</ele><time>2026-04-09T11:28:52.447Z</time></trkpt><trkpt lat="42.9465392" lon="11.8693685"><ele>861.0</ele><time>2026-04-09T11:28:53.429Z</time></trkpt><trkpt lat="42.9465965" lon="11.869416"><ele>861.0</ele><time>2026-04-09T11:28:54.423Z</time></trkpt><trkpt lat="42.9466534" lon="11.8694547"><ele>861.0</ele><time>2026-04-09T11:28:55.424Z</time></trkpt><trkpt lat="42.9467194" lon="11.869493"><ele>861.0</ele><time>2026-04-09T11:28:56.419Z</time></trkpt><trkpt lat="42.9467962" lon="11.869517"><ele>861.0</ele><time>2026-04-09T11:28:57.452Z</time></trkpt><trkpt lat="42.9468648" lon="11.8695171"><ele>861.0</ele><time>2026-04-09T11:28:58.44Z</time></trkpt><trkpt lat="42.9469877" lon="11.8695465"><ele>861.0</ele><time>2026-04-09T11:29:00.43Z</time></trkpt><trkpt lat="42.9470976" lon="11.8696347"><ele>860.1666666666666</ele><time>2026-04-09T11:29:02.428Z</time></trkpt><trkpt lat="42.9471599" lon="11.8696916"><ele>859.3333333333333</ele><time>2026-04-09T11:29:03.427Z</time></trkpt><trkpt lat="42.9472202" lon="11.8697404"><ele>858.5</ele><time>2026-04-09T11:29:04.423Z</time></trkpt><trkpt lat="42.947284" lon="11.8697985"><ele>857.6666666666666</ele><time>2026-04-09T11:29:05.424Z</time></trkpt><trkpt lat="42.9473619" lon="11.8698956"><ele>856.8333333333333</ele><time>2026-04-09T11:29:07.469Z</time></trkpt><trkpt lat="42.9474172" lon="11.8699833"><ele>856.0</ele><time>2026-04-09T11:29:09.449Z</time></trkpt><trkpt lat="42.9474637" lon="11.8701066"><ele>854.8</ele><time>2026-04-09T11:29:11.429Z</time></trkpt><trkpt lat="42.9475154" lon="11.8702439"><ele>853.5999999999999</ele><time>2026-04-09T11:29:13.436Z</time></trkpt><trkpt lat="42.9475793" lon="11.8703562"><ele>852.4</ele><time>2026-04-09T11:29:15.43Z</time></trkpt><trkpt lat="42.9476204" lon="11.870428"><ele>851.2</ele><time>2026-04-09T11:29:16.428Z</time></trkpt><trkpt lat="42.9477042" lon="11.8705285"><ele>850.0</ele><time>2026-04-09T11:29:18.427Z</time></trkpt><trkpt lat="42.9477717" lon="11.8705584"><ele>849.9999999999999</ele><time>2026-04-09T11:29:20.427Z</time></trkpt><trkpt lat="42.9478411" lon="11.8705634"><ele>850.0</ele><time>2026-04-09T11:29:35.434Z</time></trkpt><trkpt lat="42.9478915" lon="11.8706296"><ele>850.0</ele><time>2026-04-09T11:29:39.432Z</time></trkpt><trkpt lat="42.9478883" lon="11.8707252"><ele>850.0</ele><time>2026-04-09T11:29:42.434Z</time></trkpt><trkpt lat="42.9478429" lon="11.8708148"><ele>849.9999999999999</ele><time>2026-04-09T11:29:45.436Z</time></trkpt><trkpt lat="42.9478252" lon="11.8709355"><ele>850.0</ele><time>2026-04-09T11:29:48.438Z</time></trkpt><trkpt lat="42.9478228" lon="11.8710542"><ele>846.5714285714286</ele><time>2026-04-09T11:29:51.439Z</time></trkpt><trkpt lat="42.9478307" lon="11.8711646"><ele>843.1428571428571</ele><time>2026-04-09T11:29:54.435Z</time></trkpt><trkpt lat="42.9478129" lon="11.871259"><ele>839.7142857142858</ele><time>2026-04-09T11:29:58.435Z</time></trkpt><trkpt lat="42.9477666" lon="11.8713376"><ele>836.2857142857142</ele><time>2026-04-09T11:30:01.433Z</time></trkpt><trkpt lat="42.9477062" lon="11.8714235"><ele>832.8571428571429</ele><time>2026-04-09T11:30:04.434Z</time></trkpt><trkpt lat="42.9476479" lon="11.8714745"><ele>829.4285714285714</ele><time>2026-04-09T11:30:06.432Z</time></trkpt><trkpt lat="42.9475886" lon="11.8715048"><ele>826.0</ele><time>2026-04-09T11:30:08.427Z</time></trkpt><trkpt lat="42.9475141" lon="11.8715165"><ele>823.9999999999999</ele><time>2026-04-09T11:30:10.429Z</time></trkpt><trkpt lat="42.9474254" lon="11.8715175"><ele>822.0</ele><time>2026-04-09T11:30:12.433Z</time></trkpt><trkpt lat="42.9473468" lon="11.8715415"><ele>820.0</ele><time>2026-04-09T11:30:14.434Z</time></trkpt><trkpt lat="42.9472863" lon="11.8715916"><ele>818.0</ele><time>2026-04-09T11:30:16.431Z</time></trkpt><trkpt lat="42.9472896" lon="11.8716945"><ele>815.9999999999999</ele><time>2026-04-09T11:30:20.431Z</time></trkpt><trkpt lat="42.9473866" lon="11.8716626"><ele>814.0</ele><time>2026-04-09T11:30:23.432Z</time></trkpt><trkpt lat="42.9474863" lon="11.871605"><ele>812.4285714285714</ele><time>2026-04-09T11:30:25.422Z</time></trkpt><trkpt lat="42.9475579" lon="11.8716053"><ele>810.8571428571429</ele><time>2026-04-09T11:30:27.43Z</time></trkpt><trkpt lat="42.9476306" lon="11.871669"><ele>809.2857142857142</ele><time>2026-04-09T11:30:30.453Z</time></trkpt><trkpt lat="42.9476747" lon="11.8717472"><ele>807.7142857142858</ele><time>2026-04-09T11:30:32.428Z</time></trkpt><trkpt lat="42.9477075" lon="11.8718362"><ele>806.1428571428571</ele><time>2026-04-09T11:30:34.432Z</time></trkpt><trkpt lat="42.9477639" lon="11.8718913"><ele>804.5714285714286</ele><time>2026-04-09T11:30:36.429Z</time></trkpt><trkpt lat="42.9478326" lon="11.8719259"><ele>803.0</ele><time>2026-04-09T11:30:38.427Z</time></trkpt><trkpt lat="42.9478904" lon="11.8719662"><ele>803.0000000000001</ele><time>2026-04-09T11:30:40.457Z</time></trkpt><trkpt lat="42.9479653" lon="11.8720313"><ele>803.0</ele><time>2026-04-09T11:30:42.452Z</time></trkpt><trkpt lat="42.9480388" lon="11.8721016"><ele>803.0</ele><time>2026-04-09T11:30:44.433Z</time></trkpt><trkpt lat="42.9481122" lon="11.8721773"><ele>803.0</ele><time>2026-04-09T11:30:46.433Z</time></trkpt><trkpt lat="42.9481802" lon="11.8722537"><ele>803.0000000000001</ele><time>2026-04-09T11:30:48.434Z</time></trkpt><trkpt lat="42.9482383" lon="11.8723272"><ele>803.0</ele><time>2026-04-09T11:30:50.451Z</time></trkpt><trkpt lat="42.94828" lon="11.8724137"><ele>803.0000000000001</ele><time>2026-04-09T11:30:52.433Z</time></trkpt><trkpt lat="42.9483253" lon="11.8725008"><ele>803.0</ele><time>2026-04-09T11:30:54.437Z</time></trkpt><trkpt lat="42.9483678" lon="11.872582"><ele>803.0</ele><time>2026-04-09T11:30:56.437Z</time></trkpt><trkpt lat="42.9484414" lon="11.8726804"><ele>803.0</ele><time>2026-04-09T11:30:59.437Z</time></trkpt><trkpt lat="42.9484929" lon="11.8727832"><ele>803.0000000000001</ele><time>2026-04-09T11:31:01.437Z</time></trkpt><trkpt lat="42.9485522" lon="11.87286"><ele>803.0</ele><time>2026-04-09T11:31:03.436Z</time></trkpt><trkpt lat="42.9485976" lon="11.8729238"><ele>801.2857142857142</ele><time>2026-04-09T11:31:05.434Z</time></trkpt><trkpt lat="42.9485265" lon="11.8729613"><ele>799.5714285714286</ele><time>2026-04-09T11:31:13.427Z</time></trkpt><trkpt lat="42.9484605" lon="11.8729609"><ele>797.8571428571429</ele><time>2026-04-09T11:31:15.439Z</time></trkpt><trkpt lat="42.9483835" lon="11.8729553"><ele>796.1428571428571</ele><time>2026-04-09T11:31:17.434Z</time></trkpt><trkpt lat="42.94829" lon="11.8729635"><ele>794.4285714285714</ele><time>2026-04-09T11:31:19.433Z</time></trkpt><trkpt lat="42.9482268" lon="11.8729713"><ele>792.7142857142857</ele><time>2026-04-09T11:31:21.437Z</time></trkpt><trkpt lat="42.9481619" lon="11.8729765"><ele>791.0</ele><time>2026-04-09T11:31:24.437Z</time></trkpt><trkpt lat="42.948073" lon="11.8729894"><ele>789.4285714285714</ele><time>2026-04-09T11:31:48.421Z</time></trkpt><trkpt lat="42.9480357" lon="11.8730646"><ele>787.8571428571429</ele><time>2026-04-09T11:31:53.431Z</time></trkpt><trkpt lat="42.9480725" lon="11.8729793"><ele>786.2857142857142</ele><time>2026-04-09T11:32:30.433Z</time></trkpt><trkpt lat="42.9480057" lon="11.8730189"><ele>784.7142857142858</ele><time>2026-04-09T11:32:36.452Z</time></trkpt><trkpt lat="42.9480117" lon="11.8729196"><ele>783.1428571428571</ele><time>2026-04-09T11:32:58.433Z</time></trkpt><trkpt lat="42.9479561" lon="11.8729736"><ele>781.5714285714286</ele><time>2026-04-09T11:33:59.441Z</time></trkpt><trkpt lat="42.9478941" lon="11.8729978"><ele>780.0</ele><time>2026-04-09T11:34:01.43Z</time></trkpt><trkpt lat="42.9478174" lon="11.8730267"><ele>780.0</ele><time>2026-04-09T11:34:03.437Z</time></trkpt><trkpt lat="42.9477591" lon="11.8730692"><ele>780.0</ele><time>2026-04-09T11:34:05.443Z</time></trkpt><trkpt lat="42.9477182" lon="11.8731556"><ele>780.0</ele><time>2026-04-09T11:34:07.446Z</time></trkpt><trkpt lat="42.9476807" lon="11.8732562"><ele>780.0</ele><time>2026-04-09T11:34:10.423Z</time></trkpt><trkpt lat="42.9476263" lon="11.873333"><ele>780.0</ele><time>2026-04-09T11:34:12.439Z</time></trkpt><trkpt lat="42.947561" lon="11.8734114"><ele>780.0</ele><time>2026-04-09T11:34:14.441Z</time></trkpt><trkpt lat="42.9474927" lon="11.8734815"><ele>775.2</ele><time>2026-04-09T11:34:16.44Z</time></trkpt><trkpt lat="42.94742" lon="11.8735464"><ele>770.4</ele><time>2026-04-09T11:34:18.441Z</time></trkpt><trkpt lat="42.9473267" lon="11.873621"><ele>765.5999999999999</ele><time>2026-04-09T11:34:20.432Z</time></trkpt><trkpt lat="42.9472431" lon="11.8737083"><ele>760.8</ele><time>2026-04-09T11:34:22.441Z</time></trkpt><trkpt lat="42.9471717" lon="11.8737815"><ele>756.0</ele><time>2026-04-09T11:34:24.441Z</time></trkpt><trkpt lat="42.9470986" lon="11.8738165"><ele>756.0</ele><time>2026-04-09T11:34:26.44Z</time></trkpt><trkpt lat="42.9470159" lon="11.8738673"><ele>756.0</ele><time>2026-04-09T11:34:28.436Z</time></trkpt><trkpt lat="42.9469624" lon="11.8739556"><ele>756.0</ele><time>2026-04-09T11:34:30.44Z</time></trkpt><trkpt lat="42.9469176" lon="11.8740475"><ele>756.0</ele><time>2026-04-09T11:34:35.427Z</time></trkpt><trkpt lat="42.9468953" lon="11.874138"><ele>756.0</ele><time>2026-04-09T11:34:37.442Z</time></trkpt><trkpt lat="42.9469116" lon="11.8742333"><ele>756.0</ele><time>2026-04-09T11:34:39.439Z</time></trkpt><trkpt lat="42.9469381" lon="11.8743384"><ele>753.1666666666666</ele><time>2026-04-09T11:34:41.436Z</time></trkpt><trkpt lat="42.9469408" lon="11.8744452"><ele>750.3333333333334</ele><time>2026-04-09T11:34:43.431Z</time></trkpt><trkpt lat="42.946948" lon="11.8745971"><ele>747.5</ele><time>2026-04-09T11:34:45.438Z</time></trkpt><trkpt lat="42.9469452" lon="11.874707"><ele>744.6666666666667</ele><time>2026-04-09T11:34:47.439Z</time></trkpt><trkpt lat="42.94694" lon="11.8748082"><ele>741.8333333333334</ele><time>2026-04-09T11:34:49.432Z</time></trkpt><trkpt lat="42.9469182" lon="11.8748998"><ele>739.0</ele><time>2026-04-09T11:34:51.445Z</time></trkpt><trkpt lat="42.9468771" lon="11.8749994"><ele>737.5</ele><time>2026-04-09T11:34:53.438Z</time></trkpt><trkpt lat="42.9468315" lon="11.875113"><ele>736.0</ele><time>2026-04-09T11:34:55.428Z</time></trkpt><trkpt lat="42.9468019" lon="11.8752374"><ele>734.5</ele><time>2026-04-09T11:34:57.436Z</time></trkpt><trkpt lat="42.9467929" lon="11.8753795"><ele>733.0</ele><time>2026-04-09T11:34:59.439Z</time></trkpt><trkpt lat="42.9467899" lon="11.8754815"><ele>731.5</ele><time>2026-04-09T11:35:02.458Z</time></trkpt><trkpt lat="42.9467225" lon="11.8754914"><ele>730.0</ele><time>2026-04-09T11:35:09.438Z</time></trkpt><trkpt lat="42.9466589" lon="11.8755271"><ele>730.0</ele><time>2026-04-09T11:35:11.439Z</time></trkpt><trkpt lat="42.9465938" lon="11.8755584"><ele>730.0</ele><time>2026-04-09T11:35:13.434Z</time></trkpt><trkpt lat="42.9465294" lon="11.8756026"><ele>730.0</ele><time>2026-04-09T11:35:15.442Z</time></trkpt><trkpt lat="42.9464855" lon="11.8757049"><ele>730.0</ele><time>2026-04-09T11:35:17.468Z</time></trkpt><trkpt lat="42.9464559" lon="11.8758504"><ele>730.0</ele><time>2026-04-09T11:35:19.457Z</time></trkpt><trkpt lat="42.9464726" lon="11.8759936"><ele>730.0</ele><time>2026-04-09T11:35:21.438Z</time></trkpt><trkpt lat="42.9464946" lon="11.8761431"><ele>728.3333333333334</ele><time>2026-04-09T11:35:23.436Z</time></trkpt><trkpt lat="42.946477" lon="11.8763091"><ele>726.6666666666667</ele><time>2026-04-09T11:35:25.438Z</time></trkpt><trkpt lat="42.9464614" lon="11.8763969"><ele>725.0</ele><time>2026-04-09T11:35:26.442Z</time></trkpt><trkpt lat="42.9464275" lon="11.8764703"><ele>723.3333333333334</ele><time>2026-04-09T11:35:27.439Z</time></trkpt><trkpt lat="42.9463636" lon="11.8765572"><ele>721.6666666666666</ele><time>2026-04-09T11:35:29.465Z</time></trkpt><trkpt lat="42.9463063" lon="11.876654"><ele>720.0</ele><time>2026-04-09T11:35:31.441Z</time></trkpt><trkpt lat="42.9462654" lon="11.8767611"><ele>718.0</ele><time>2026-04-09T11:35:33.442Z</time></trkpt><trkpt lat="42.9462652" lon="11.8768868"><ele>716.0</ele><time>2026-04-09T11:35:35.448Z</time></trkpt><trkpt lat="42.9463075" lon="11.8769855"><ele>714.0</ele><time>2026-04-09T11:35:37.43Z</time></trkpt><trkpt lat="42.9463724" lon="11.8771016"><ele>712.0</ele><time>2026-04-09T11:35:39.434Z</time></trkpt><trkpt lat="42.9464483" lon="11.8771479"><ele>710.0</ele><time>2026-04-09T11:35:41.438Z</time></trkpt><trkpt lat="42.9465147" lon="11.8771908"><ele>708.0</ele><time>2026-04-09T11:35:43.437Z</time></trkpt><trkpt lat="42.9466038" lon="11.8772495"><ele>705.8</ele><time>2026-04-09T11:35:45.442Z</time></trkpt><trkpt lat="42.9467193" lon="11.8772758"><ele>703.5999999999999</ele><time>2026-04-09T11:35:47.438Z</time></trkpt><trkpt lat="42.9468182" lon="11.8772212"><ele>701.4000000000001</ele><time>2026-04-09T11:35:49.46Z</time></trkpt><trkpt lat="42.9468866" lon="11.8771487"><ele>699.2</ele><time>2026-04-09T11:35:50.464Z</time></trkpt><trkpt lat="42.9469344" lon="11.8770863"><ele>697.0</ele><time>2026-04-09T11:35:51.473Z</time></trkpt><trkpt lat="42.9470374" lon="11.8770236"><ele>697.0</ele><time>2026-04-09T11:35:53.438Z</time></trkpt><trkpt lat="42.9471032" lon="11.8770003"><ele>697.0</ele><time>2026-04-09T11:35:54.448Z</time></trkpt><trkpt lat="42.9472093" lon="11.8769507"><ele>697.0</ele><time>2026-04-09T11:35:56.433Z</time></trkpt><trkpt lat="42.9472798" lon="11.876899"><ele>697.0</ele><time>2026-04-09T11:35:58.437Z</time></trkpt><trkpt lat="42.9473307" lon="11.8768099"><ele>697.0</ele><time>2026-04-09T11:36:00.441Z</time></trkpt><trkpt lat="42.9473643" lon="11.8766757"><ele>697.0</ele><time>2026-04-09T11:36:02.437Z</time></trkpt><trkpt lat="42.9474478" lon="11.8766043"><ele>697.2</ele><time>2026-04-09T11:36:04.436Z</time></trkpt><trkpt lat="42.9475116" lon="11.8765864"><ele>697.4000000000001</ele><time>2026-04-09T11:36:05.44Z</time></trkpt><trkpt lat="42.9476341" lon="11.8766355"><ele>697.5999999999999</ele><time>2026-04-09T11:36:07.444Z</time></trkpt><trkpt lat="42.9477213" lon="11.8767145"><ele>697.8</ele><time>2026-04-09T11:36:08.435Z</time></trkpt><trkpt lat="42.9478127" lon="11.8767995"><ele>698.0</ele><time>2026-04-09T11:36:09.432Z</time></trkpt><trkpt lat="42.9479113" lon="11.8768848"><ele>698.0</ele><time>2026-04-09T11:36:10.436Z</time></trkpt><trkpt lat="42.9479948" lon="11.8769851"><ele>698.0</ele><time>2026-04-09T11:36:11.442Z</time></trkpt><trkpt lat="42.9480641" lon="11.8770807"><ele>698.0</ele><time>2026-04-09T11:36:12.441Z</time></trkpt><trkpt lat="42.9481221" lon="11.877166"><ele>698.0</ele><time>2026-04-09T11:36:13.439Z</time></trkpt><trkpt lat="42.9481826" lon="11.8772458"><ele>698.0</ele><time>2026-04-09T11:36:14.44Z</time></trkpt><trkpt lat="42.9482375" lon="11.8773232"><ele>698.0</ele><time>2026-04-09T11:36:15.443Z</time></trkpt><trkpt lat="42.9482878" lon="11.8773916"><ele>698.0</ele><time>2026-04-09T11:36:16.44Z</time></trkpt><trkpt lat="42.948338" lon="11.8774448"><ele>698.0</ele><time>2026-04-09T11:36:17.445Z</time></trkpt><trkpt lat="42.9483952" lon="11.8774879"><ele>698.0</ele><time>2026-04-09T11:36:18.447Z</time></trkpt><trkpt lat="42.9484902" lon="11.8775604"><ele>698.0</ele><time>2026-04-09T11:36:20.441Z</time></trkpt><trkpt lat="42.9486043" lon="11.8775901"><ele>698.0</ele><time>2026-04-09T11:36:22.431Z</time></trkpt><trkpt lat="42.9486801" lon="11.8776129"><ele>696.7142857142857</ele><time>2026-04-09T11:36:23.441Z</time></trkpt><trkpt lat="42.9487446" lon="11.877641"><ele>695.4285714285714</ele><time>2026-04-09T11:36:24.442Z</time></trkpt><trkpt lat="42.9488086" lon="11.8776768"><ele>694.1428571428571</ele><time>2026-04-09T11:36:25.452Z</time></trkpt><trkpt lat="42.9488769" lon="11.8777383"><ele>692.8571428571429</ele><time>2026-04-09T11:36:26.446Z</time></trkpt><trkpt lat="42.9489437" lon="11.8777879"><ele>691.5714285714286</ele><time>2026-04-09T11:36:27.444Z</time></trkpt><trkpt lat="42.9490096" lon="11.8778177"><ele>690.2857142857142</ele><time>2026-04-09T11:36:28.445Z</time></trkpt><trkpt lat="42.949074" lon="11.8778412"><ele>689.0</ele><time>2026-04-09T11:36:29.437Z</time></trkpt><trkpt lat="42.9491416" lon="11.8778591"><ele>689.2</ele><time>2026-04-09T11:36:30.442Z</time></trkpt><trkpt lat="42.9492251" lon="11.8778777"><ele>689.4000000000001</ele><time>2026-04-09T11:36:31.448Z</time></trkpt><trkpt lat="42.9493153" lon="11.8778836"><ele>689.6</ele><time>2026-04-09T11:36:32.463Z</time></trkpt><trkpt lat="42.9494241" lon="11.8778684"><ele>689.8</ele><time>2026-04-09T11:36:33.436Z</time></trkpt><trkpt lat="42.9495207" lon="11.8778403"><ele>690.0</ele><time>2026-04-09T11:36:34.435Z</time></trkpt><trkpt lat="42.9496188" lon="11.8778028"><ele>690.0</ele><time>2026-04-09T11:36:35.439Z</time></trkpt><trkpt lat="42.9497192" lon="11.8777697"><ele>690.0</ele><time>2026-04-09T11:36:36.438Z</time></trkpt><trkpt lat="42.9498059" lon="11.8777395"><ele>690.0</ele><time>2026-04-09T11:36:37.434Z</time></trkpt><trkpt lat="42.9498817" lon="11.8777055"><ele>690.0</ele><time>2026-04-09T11:36:38.456Z</time></trkpt><trkpt lat="42.9499446" lon="11.8776741"><ele>690.0</ele><time>2026-04-09T11:36:39.432Z</time></trkpt><trkpt lat="42.9500507" lon="11.877666"><ele>690.0</ele><time>2026-04-09T11:36:41.432Z</time></trkpt><trkpt lat="42.9501323" lon="11.8776999"><ele>689.6</ele><time>2026-04-09T11:36:43.434Z</time></trkpt><trkpt lat="42.9502155" lon="11.877783"><ele>689.2</ele><time>2026-04-09T11:36:45.425Z</time></trkpt><trkpt lat="42.9503122" lon="11.877855"><ele>688.8</ele><time>2026-04-09T11:36:47.427Z</time></trkpt><trkpt lat="42.9503759" lon="11.8778876"><ele>688.4</ele><time>2026-04-09T11:36:48.43Z</time></trkpt><trkpt lat="42.9505152" lon="11.8779105"><ele>688.0</ele><time>2026-04-09T11:36:50.424Z</time></trkpt><trkpt lat="42.9505925" lon="11.877903"><ele>688.0</ele><time>2026-04-09T11:36:51.43Z</time></trkpt><trkpt lat="42.9506602" lon="11.8779191"><ele>688.0</ele><time>2026-04-09T11:36:52.431Z</time></trkpt><trkpt lat="42.9507335" lon="11.8779369"><ele>688.0</ele><time>2026-04-09T11:36:53.431Z</time></trkpt><trkpt lat="42.9508155" lon="11.87797"><ele>688.0</ele><time>2026-04-09T11:36:54.431Z</time></trkpt><trkpt lat="42.9509111" lon="11.8780181"><ele>688.0</ele><time>2026-04-09T11:36:55.425Z</time></trkpt><trkpt lat="42.9510051" lon="11.8780752"><ele>688.0</ele><time>2026-04-09T11:36:56.434Z</time></trkpt><trkpt lat="42.9510988" lon="11.8781267"><ele>687.2</ele><time>2026-04-09T11:36:57.431Z</time></trkpt><trkpt lat="42.9511969" lon="11.8781708"><ele>686.4</ele><time>2026-04-09T11:36:58.428Z</time></trkpt><trkpt lat="42.951294" lon="11.8782117"><ele>685.6</ele><time>2026-04-09T11:36:59.451Z</time></trkpt><trkpt lat="42.9513819" lon="11.8782334"><ele>684.8000000000001</ele><time>2026-04-09T11:37:00.425Z</time></trkpt><trkpt lat="42.9514637" lon="11.8782186"><ele>684.0</ele><time>2026-04-09T11:37:01.433Z</time></trkpt><trkpt lat="42.9515387" lon="11.8781903"><ele>684.0</ele><time>2026-04-09T11:37:02.428Z</time></trkpt><trkpt lat="42.9516012" lon="11.8781234"><ele>684.0</ele><time>2026-04-09T11:37:04.422Z</time></trkpt><trkpt lat="42.9516484" lon="11.8782551"><ele>684.0</ele><time>2026-04-09T11:37:11.44Z</time></trkpt><trkpt lat="42.9516856" lon="11.8783568"><ele>684.0</ele><time>2026-04-09T11:37:13.431Z</time></trkpt><trkpt lat="42.9519034" lon="11.8783786"><ele>682.6</ele><time>2026-04-09T11:37:17.436Z</time></trkpt><trkpt lat="42.9519981" lon="11.8784162"><ele>681.2</ele><time>2026-04-09T11:37:18.437Z</time></trkpt><trkpt lat="42.9520937" lon="11.8784359"><ele>679.8000000000001</ele><time>2026-04-09T11:37:19.434Z</time></trkpt><trkpt lat="42.9521713" lon="11.8784715"><ele>678.4000000000001</ele><time>2026-04-09T11:37:20.427Z</time></trkpt><trkpt lat="42.9523112" lon="11.8784606"><ele>677.0</ele><time>2026-04-09T11:37:21.427Z</time></trkpt><trkpt lat="42.9524287" lon="11.8784503"><ele>677.0</ele><time>2026-04-09T11:37:22.436Z</time></trkpt><trkpt lat="42.9525236" lon="11.8784031"><ele>677.0</ele><time>2026-04-09T11:37:23.432Z</time></trkpt><trkpt lat="42.9525863" lon="11.8783804"><ele>677.0</ele><time>2026-04-09T11:37:24.44Z</time></trkpt><trkpt lat="42.9526705" lon="11.878476"><ele>677.0</ele><time>2026-04-09T11:37:48.437Z</time></trkpt><trkpt lat="42.9526548" lon="11.8783782"><ele>677.0</ele><time>2026-04-09T11:38:00.427Z</time></trkpt><trkpt lat="42.952584" lon="11.8783934"><ele>677.0</ele><time>2026-04-09T11:38:10.43Z</time></trkpt><trkpt lat="42.9526872" lon="11.8783631"><ele>675.8</ele><time>2026-04-09T11:38:13.429Z</time></trkpt><trkpt lat="42.952787" lon="11.8783199"><ele>674.6</ele><time>2026-04-09T11:38:15.435Z</time></trkpt><trkpt lat="42.9529085" lon="11.8782705"><ele>673.4</ele><time>2026-04-09T11:38:17.437Z</time></trkpt><trkpt lat="42.9530257" lon="11.8782131"><ele>672.1999999999999</ele><time>2026-04-09T11:38:19.431Z</time></trkpt><trkpt lat="42.9530834" lon="11.8781719"><ele>671.0</ele><time>2026-04-09T11:38:20.437Z</time></trkpt><trkpt lat="42.9531494" lon="11.8781514"><ele>671.0</ele><time>2026-04-09T11:38:21.429Z</time></trkpt><trkpt lat="42.9532151" lon="11.878163"><ele>671.0</ele><time>2026-04-09T11:38:22.432Z</time></trkpt><trkpt lat="42.9532771" lon="11.8781844"><ele>671.0</ele><time>2026-04-09T11:38:23.43Z</time></trkpt><trkpt lat="42.9533748" lon="11.8782615"><ele>671.0</ele><time>2026-04-09T11:38:25.453Z</time></trkpt><trkpt lat="42.9534538" lon="11.8783378"><ele>671.0</ele><time>2026-04-09T11:38:27.425Z</time></trkpt><trkpt lat="42.9535219" lon="11.8784217"><ele>671.0</ele><time>2026-04-09T11:38:29.428Z</time></trkpt><trkpt lat="42.9536125" lon="11.8784908"><ele>668.0</ele><time>2026-04-09T11:38:31.421Z</time></trkpt><trkpt lat="42.9536837" lon="11.8784994"><ele>665.0</ele><time>2026-04-09T11:38:32.435Z</time></trkpt><trkpt lat="42.9538084" lon="11.878517"><ele>662.0</ele><time>2026-04-09T11:38:34.432Z</time></trkpt><trkpt lat="42.9539151" lon="11.878537"><ele>659.0</ele><time>2026-04-09T11:38:36.429Z</time></trkpt><trkpt lat="42.9540236" lon="11.8786103"><ele>656.0</ele><time>2026-04-09T11:38:38.425Z</time></trkpt><trkpt lat="42.9541313" lon="11.8786819"><ele>656.0</ele><time>2026-04-09T11:38:40.432Z</time></trkpt><trkpt lat="42.9541852" lon="11.8787348"><ele>656.0</ele><time>2026-04-09T11:38:41.428Z</time></trkpt><trkpt lat="42.9542403" lon="11.8787912"><ele>656.0</ele><time>2026-04-09T11:38:42.443Z</time></trkpt><trkpt lat="42.9543117" lon="11.8788404"><ele>656.0</ele><time>2026-04-09T11:38:43.417Z</time></trkpt><trkpt lat="42.9543698" lon="11.8789061"><ele>656.0</ele><time>2026-04-09T11:38:44.443Z</time></trkpt><trkpt lat="42.9544276" lon="11.8789663"><ele>656.0</ele><time>2026-04-09T11:38:45.451Z</time></trkpt><trkpt lat="42.9544886" lon="11.8790642"><ele>654.0</ele><time>2026-04-09T11:38:47.45Z</time></trkpt><trkpt lat="42.9545396" lon="11.8792122"><ele>652.0</ele><time>2026-04-09T11:38:53.431Z</time></trkpt><trkpt lat="42.9545722" lon="11.8792898"><ele>650.0</ele><time>2026-04-09T11:38:55.441Z</time></trkpt><trkpt lat="42.954645" lon="11.8793841"><ele>648.0</ele><time>2026-04-09T11:38:58.436Z</time></trkpt><trkpt lat="42.9547569" lon="11.8794222"><ele>646.0</ele><time>2026-04-09T11:39:00.443Z</time></trkpt><trkpt lat="42.954866" lon="11.8794228"><ele>644.8</ele><time>2026-04-09T11:39:02.49Z</time></trkpt><trkpt lat="42.9549353" lon="11.8794799"><ele>643.5999999999999</ele><time>2026-04-09T11:39:04.441Z</time></trkpt><trkpt lat="42.9549469" lon="11.8795738"><ele>642.4</ele><time>2026-04-09T11:39:06.44Z</time></trkpt><trkpt lat="42.954862" lon="11.8796685"><ele>641.2</ele><time>2026-04-09T11:39:08.431Z</time></trkpt><trkpt lat="42.9547501" lon="11.8797321"><ele>640.0</ele><time>2026-04-09T11:39:10.438Z</time></trkpt><trkpt lat="42.9546557" lon="11.8798251"><ele>640.0</ele><time>2026-04-09T11:39:12.436Z</time></trkpt><trkpt lat="42.95461" lon="11.87989"><ele>640.0</ele><time>2026-04-09T11:39:13.438Z</time></trkpt><trkpt lat="42.95453" lon="11.8799966"><ele>640.0</ele><time>2026-04-09T11:39:15.442Z</time></trkpt><trkpt lat="42.9544213" lon="11.8800807"><ele>640.0</ele><time>2026-04-09T11:39:17.447Z</time></trkpt><trkpt lat="42.954336" lon="11.8801698"><ele>640.0</ele><time>2026-04-09T11:39:19.445Z</time></trkpt><trkpt lat="42.9542836" lon="11.8802634"><ele>637.2</ele><time>2026-04-09T11:39:21.438Z</time></trkpt><trkpt lat="42.9543114" lon="11.8803607"><ele>634.4</ele><time>2026-04-09T11:39:23.429Z</time></trkpt><trkpt lat="42.9543936" lon="11.8804044"><ele>631.6</ele><time>2026-04-09T11:39:25.433Z</time></trkpt><trkpt lat="42.9545151" lon="11.8803966"><ele>628.8</ele><time>2026-04-09T11:39:27.44Z</time></trkpt><trkpt lat="42.9546233" lon="11.8804094"><ele>626.0</ele><time>2026-04-09T11:39:29.435Z</time></trkpt><trkpt lat="42.9547149" lon="11.8804262"><ele>626.0</ele><time>2026-04-09T11:39:31.434Z</time></trkpt><trkpt lat="42.9547792" lon="11.8804913"><ele>626.0</ele><time>2026-04-09T11:39:33.437Z</time></trkpt><trkpt lat="42.9548524" lon="11.8805851"><ele>626.0</ele><time>2026-04-09T11:39:35.433Z</time></trkpt><trkpt lat="42.9549191" lon="11.880684"><ele>626.0</ele><time>2026-04-09T11:39:37.436Z</time></trkpt><trkpt lat="42.9550092" lon="11.8807648"><ele>626.0</ele><time>2026-04-09T11:39:39.436Z</time></trkpt><trkpt lat="42.9550814" lon="11.8808338"><ele>624.2</ele><time>2026-04-09T11:39:41.476Z</time></trkpt><trkpt lat="42.9551222" lon="11.8809391"><ele>622.4000000000001</ele><time>2026-04-09T11:39:43.442Z</time></trkpt><trkpt lat="42.9550677" lon="11.8810545"><ele>620.6</ele><time>2026-04-09T11:39:45.436Z</time></trkpt><trkpt lat="42.9550353" lon="11.881152"><ele>618.8000000000001</ele><time>2026-04-09T11:39:46.436Z</time></trkpt><trkpt lat="42.9549876" lon="11.881284"><ele>617.0</ele><time>2026-04-09T11:39:47.432Z</time></trkpt><trkpt lat="42.9549769" lon="11.8814152"><ele>617.0</ele><time>2026-04-09T11:39:48.448Z</time></trkpt><trkpt lat="42.9549695" lon="11.8815276"><ele>617.0</ele><time>2026-04-09T11:39:49.445Z</time></trkpt><trkpt lat="42.9549662" lon="11.8816325"><ele>617.0</ele><time>2026-04-09T11:39:50.441Z</time></trkpt><trkpt lat="42.9549761" lon="11.8817409"><ele>617.0</ele><time>2026-04-09T11:39:51.44Z</time></trkpt><trkpt lat="42.9549754" lon="11.8818486"><ele>617.0</ele><time>2026-04-09T11:39:52.444Z</time></trkpt><trkpt lat="42.9549772" lon="11.8819539"><ele>617.0</ele><time>2026-04-09T11:39:53.44Z</time></trkpt><trkpt lat="42.9549752" lon="11.8820462"><ele>616.1666666666666</ele><time>2026-04-09T11:39:54.43Z</time></trkpt><trkpt lat="42.9550254" lon="11.8821009"><ele>615.3333333333333</ele><time>2026-04-09T11:39:56.46Z</time></trkpt><trkpt lat="42.9551034" lon="11.8820896"><ele>614.5</ele><time>2026-04-09T11:39:58.464Z</time></trkpt><trkpt lat="42.9551892" lon="11.8820707"><ele>613.6666666666666</ele><time>2026-04-09T11:39:59.461Z</time></trkpt><trkpt lat="42.9552719" lon="11.8820641"><ele>612.8333333333334</ele><time>2026-04-09T11:40:00.444Z</time></trkpt><trkpt lat="42.9553553" lon="11.8820812"><ele>612.0</ele><time>2026-04-09T11:40:01.458Z</time></trkpt><trkpt lat="42.9554363" lon="11.8821175"><ele>610.0</ele><time>2026-04-09T11:40:02.435Z</time></trkpt><trkpt lat="42.9555298" lon="11.8821778"><ele>608.0</ele><time>2026-04-09T11:40:03.449Z</time></trkpt><trkpt lat="42.9556173" lon="11.8822428"><ele>606.0</ele><time>2026-04-09T11:40:04.432Z</time></trkpt><trkpt lat="42.9556831" lon="11.8823277"><ele>604.0</ele><time>2026-04-09T11:40:05.435Z</time></trkpt><trkpt lat="42.9557482" lon="11.8824177"><ele>602.0</ele><time>2026-04-09T11:40:06.44Z</time></trkpt><trkpt lat="42.9558183" lon="11.8825265"><ele>598.75</ele><time>2026-04-09T11:40:07.434Z</time></trkpt><trkpt lat="42.9558966" lon="11.8826492"><ele>595.5</ele><time>2026-04-09T11:40:08.443Z</time></trkpt><trkpt lat="42.9559801" lon="11.8827908"><ele>592.25</ele><time>2026-04-09T11:40:09.441Z</time></trkpt><trkpt lat="42.9560647" lon="11.8829192"><ele>589.0</ele><time>2026-04-09T11:40:10.443Z</time></trkpt><trkpt lat="42.95614" lon="11.8830472"><ele>589.0</ele><time>2026-04-09T11:40:11.446Z</time></trkpt><trkpt lat="42.9562157" lon="11.883169"><ele>589.0</ele><time>2026-04-09T11:40:12.442Z</time></trkpt><trkpt lat="42.956294" lon="11.8832814"><ele>589.0</ele><time>2026-04-09T11:40:13.446Z</time></trkpt><trkpt lat="42.9563661" lon="11.8834057"><ele>589.0</ele><time>2026-04-09T11:40:14.442Z</time></trkpt><trkpt lat="42.9564331" lon="11.8835202"><ele>588.2</ele><time>2026-04-09T11:40:15.447Z</time></trkpt><trkpt lat="42.9564943" lon="11.8836227"><ele>587.4</ele><time>2026-04-09T11:40:16.446Z</time></trkpt><trkpt lat="42.956543" lon="11.8837093"><ele>586.6</ele><time>2026-04-09T11:40:17.436Z</time></trkpt><trkpt lat="42.9565882" lon="11.8837805"><ele>585.8</ele><time>2026-04-09T11:40:18.442Z</time></trkpt><trkpt lat="42.9566543" lon="11.8838726"><ele>585.0</ele><time>2026-04-09T11:40:20.438Z</time></trkpt><trkpt lat="42.9567237" lon="11.883999"><ele>585.0</ele><time>2026-04-09T11:40:24.44Z</time></trkpt><trkpt lat="42.9567564" lon="11.8841265"><ele>585.0</ele><time>2026-04-09T11:40:26.443Z</time></trkpt><trkpt lat="42.9566932" lon="11.8842169"><ele>585.0</ele><time>2026-04-09T11:40:27.435Z</time></trkpt><trkpt lat="42.9566143" lon="11.8843118"><ele>585.0</ele><time>2026-04-09T11:40:28.438Z</time></trkpt><trkpt lat="42.9565028" lon="11.8844332"><ele>585.0</ele><time>2026-04-09T11:40:29.443Z</time></trkpt><trkpt lat="42.956383" lon="11.8845376"><ele>584.75</ele><time>2026-04-09T11:40:30.438Z</time></trkpt><trkpt lat="42.9562614" lon="11.8846325"><ele>584.5</ele><time>2026-04-09T11:40:31.42Z</time></trkpt><trkpt lat="42.956119" lon="11.8847261"><ele>584.25</ele><time>2026-04-09T11:40:32.44Z</time></trkpt><trkpt lat="42.955996" lon="11.8848134"><ele>584.0</ele><time>2026-04-09T11:40:33.417Z</time></trkpt><trkpt lat="42.9558697" lon="11.8849164"><ele>584.0</ele><time>2026-04-09T11:40:34.421Z</time></trkpt><trkpt lat="42.9557617" lon="11.8850193"><ele>584.0</ele><time>2026-04-09T11:40:35.425Z</time></trkpt><trkpt lat="42.9556593" lon="11.8851245"><ele>584.0</ele><time>2026-04-09T11:40:36.422Z</time></trkpt><trkpt lat="42.9555429" lon="11.8852116"><ele>584.0</ele><time>2026-04-09T11:40:37.419Z</time></trkpt><trkpt lat="42.9554156" lon="11.8852977"><ele>578.75</ele><time>2026-04-09T11:40:38.42Z</time></trkpt><trkpt lat="42.955289" lon="11.8853654"><ele>573.5</ele><time>2026-04-09T11:40:39.435Z</time></trkpt><trkpt lat="42.9551512" lon="11.8854243"><ele>568.25</ele><time>2026-04-09T11:40:40.43Z</time></trkpt><trkpt lat="42.9550015" lon="11.8854988"><ele>563.0</ele><time>2026-04-09T11:40:41.435Z</time></trkpt><trkpt lat="42.9548219" lon="11.8856097"><ele>563.0</ele><time>2026-04-09T11:40:42.434Z</time></trkpt><trkpt lat="42.95467" lon="11.8856823"><ele>563.0</ele><time>2026-04-09T11:40:43.435Z</time></trkpt><trkpt lat="42.9545069" lon="11.8857318"><ele>563.0</ele><time>2026-04-09T11:40:44.438Z</time></trkpt><trkpt lat="42.9543293" lon="11.8857669"><ele>562.6666666666666</ele><time>2026-04-09T11:40:45.429Z</time></trkpt><trkpt lat="42.9541686" lon="11.8857709"><ele>562.3333333333334</ele><time>2026-04-09T11:40:46.454Z</time></trkpt><trkpt lat="42.9540151" lon="11.8857545"><ele>562.0</ele><time>2026-04-09T11:40:47.435Z</time></trkpt><trkpt lat="42.9538537" lon="11.8857124"><ele>562.0</ele><time>2026-04-09T11:40:48.434Z</time></trkpt><trkpt lat="42.953689" lon="11.8857103"><ele>562.0</ele><time>2026-04-09T11:40:49.442Z</time></trkpt><trkpt lat="42.9535586" lon="11.8857031"><ele>562.0</ele><time>2026-04-09T11:40:50.439Z</time></trkpt><trkpt lat="42.95344" lon="11.8856967"><ele>562.0</ele><time>2026-04-09T11:40:51.437Z</time></trkpt><trkpt lat="42.9533242" lon="11.8856948"><ele>560.25</ele><time>2026-04-09T11:40:52.433Z</time></trkpt><trkpt lat="42.9531929" lon="11.8856392"><ele>558.5</ele><time>2026-04-09T11:40:53.438Z</time></trkpt><trkpt lat="42.9530837" lon="11.8856052"><ele>556.75</ele><time>2026-04-09T11:40:54.44Z</time></trkpt><trkpt lat="42.9529807" lon="11.8855254"><ele>555.0</ele><time>2026-04-09T11:40:55.421Z</time></trkpt><trkpt lat="42.9529135" lon="11.885415"><ele>555.0</ele><time>2026-04-09T11:40:56.427Z</time></trkpt><trkpt lat="42.952832" lon="11.885324"><ele>555.0</ele><time>2026-04-09T11:40:57.419Z</time></trkpt><trkpt lat="42.9527295" lon="11.8852874"><ele>555.0</ele><time>2026-04-09T11:40:58.428Z</time></trkpt><trkpt lat="42.9526071" lon="11.885308"><ele>555.0</ele><time>2026-04-09T11:40:59.415Z</time></trkpt><trkpt lat="42.9524669" lon="11.8853572"><ele>550.0</ele><time>2026-04-09T11:41:00.421Z</time></trkpt><trkpt lat="42.9523133" lon="11.8854205"><ele>545.0</ele><time>2026-04-09T11:41:01.422Z</time></trkpt><trkpt lat="42.9521192" lon="11.885554"><ele>540.0</ele><time>2026-04-09T11:41:02.437Z</time></trkpt><trkpt lat="42.9519054" lon="11.8856765"><ele>537.6666666666666</ele><time>2026-04-09T11:41:03.433Z</time></trkpt><trkpt lat="42.9517038" lon="11.8858088"><ele>535.3333333333333</ele><time>2026-04-09T11:41:04.436Z</time></trkpt><trkpt lat="42.9515253" lon="11.885881"><ele>533.0</ele><time>2026-04-09T11:41:05.43Z</time></trkpt><trkpt lat="42.9513384" lon="11.8859391"><ele>532.6666666666666</ele><time>2026-04-09T11:41:06.43Z</time></trkpt><trkpt lat="42.9511518" lon="11.8859923"><ele>532.3333333333334</ele><time>2026-04-09T11:41:07.426Z</time></trkpt><trkpt lat="42.9509828" lon="11.8860148"><ele>532.0</ele><time>2026-04-09T11:41:08.43Z</time></trkpt><trkpt lat="42.9508337" lon="11.8860288"><ele>532.0</ele><time>2026-04-09T11:41:09.425Z</time></trkpt><trkpt lat="42.9507051" lon="11.8860434"><ele>532.0</ele><time>2026-04-09T11:41:10.434Z</time></trkpt><trkpt lat="42.9506098" lon="11.8860531"><ele>532.0</ele><time>2026-04-09T11:41:11.435Z</time></trkpt><trkpt lat="42.9505207" lon="11.8860362"><ele>532.0</ele><time>2026-04-09T11:41:12.461Z</time></trkpt><trkpt lat="42.9504008" lon="11.8860211"><ele>532.0</ele><time>2026-04-09T11:41:13.435Z</time></trkpt><trkpt lat="42.9502922" lon="11.8860445"><ele>532.0</ele><time>2026-04-09T11:41:14.432Z</time></trkpt><trkpt lat="42.9501665" lon="11.8861093"><ele>532.0</ele><time>2026-04-09T11:41:15.442Z</time></trkpt><trkpt lat="42.9500544" lon="11.8861625"><ele>532.0</ele><time>2026-04-09T11:41:16.436Z</time></trkpt><trkpt lat="42.9499437" lon="11.8862131"><ele>532.0</ele><time>2026-04-09T11:41:17.429Z</time></trkpt><trkpt lat="42.949837" lon="11.8862604"><ele>532.5</ele><time>2026-04-09T11:41:18.439Z</time></trkpt><trkpt lat="42.9497314" lon="11.8862834"><ele>533.0</ele><time>2026-04-09T11:41:19.43Z</time></trkpt><trkpt lat="42.9496161" lon="11.8862994"><ele>533.5</ele><time>2026-04-09T11:41:20.439Z</time></trkpt><trkpt lat="42.949467" lon="11.8863045"><ele>534.0</ele><time>2026-04-09T11:41:21.44Z</time></trkpt><trkpt lat="42.9493009" lon="11.8862853"><ele>533.3333333333334</ele><time>2026-04-09T11:41:22.441Z</time></trkpt><trkpt lat="42.949075" lon="11.8863002"><ele>532.6666666666667</ele><time>2026-04-09T11:41:23.438Z</time></trkpt><trkpt lat="42.94888" lon="11.8862817"><ele>532.0</ele><time>2026-04-09T11:41:24.441Z</time></trkpt><trkpt lat="42.9486747" lon="11.8862725"><ele>532.0</ele><time>2026-04-09T11:41:25.443Z</time></trkpt><trkpt lat="42.9485153" lon="11.8862693"><ele>532.0</ele><time>2026-04-09T11:41:26.431Z</time></trkpt><trkpt lat="42.9483424" lon="11.8862551"><ele>532.0</ele><time>2026-04-09T11:41:27.433Z</time></trkpt><trkpt lat="42.9481912" lon="11.8862324"><ele>529.25</ele><time>2026-04-09T11:41:28.445Z</time></trkpt><trkpt lat="42.948056" lon="11.8861977"><ele>526.5</ele><time>2026-04-09T11:41:29.438Z</time></trkpt><trkpt lat="42.9479421" lon="11.8861833"><ele>523.75</ele><time>2026-04-09T11:41:30.434Z</time></trkpt><trkpt lat="42.9478147" lon="11.8861442"><ele>521.0</ele><time>2026-04-09T11:41:31.44Z</time></trkpt><trkpt lat="42.9477198" lon="11.8860935"><ele>521.0</ele><time>2026-04-09T11:41:32.449Z</time></trkpt><trkpt lat="42.9476091" lon="11.8860544"><ele>521.0</ele><time>2026-04-09T11:41:33.432Z</time></trkpt><trkpt lat="42.9475004" lon="11.8859713"><ele>521.0</ele><time>2026-04-09T11:41:34.439Z</time></trkpt><trkpt lat="42.9474152" lon="11.8858478"><ele>521.0</ele><time>2026-04-09T11:41:35.431Z</time></trkpt><trkpt lat="42.9473196" lon="11.8857031"><ele>523.3333333333333</ele><time>2026-04-09T11:41:36.436Z</time></trkpt><trkpt lat="42.9472269" lon="11.8855083"><ele>525.6666666666666</ele><time>2026-04-09T11:41:37.432Z</time></trkpt><trkpt lat="42.9471564" lon="11.8853088"><ele>528.0</ele><time>2026-04-09T11:41:38.435Z</time></trkpt><trkpt lat="42.9470904" lon="11.8850782"><ele>528.25</ele><time>2026-04-09T11:41:39.433Z</time></trkpt><trkpt lat="42.947033" lon="11.8848841"><ele>528.5</ele><time>2026-04-09T11:41:40.426Z</time></trkpt><trkpt lat="42.9469645" lon="11.8847309"><ele>528.75</ele><time>2026-04-09T11:41:41.511Z</time></trkpt><trkpt lat="42.946917" lon="11.8845892"><ele>529.0</ele><time>2026-04-09T11:41:42.436Z</time></trkpt><trkpt lat="42.9468618" lon="11.8844692"><ele>529.0</ele><time>2026-04-09T11:41:43.434Z</time></trkpt><trkpt lat="42.946787" lon="11.8843854"><ele>529.0</ele><time>2026-04-09T11:41:44.43Z</time></trkpt><trkpt lat="42.9467304" lon="11.8842851"><ele>529.0</ele><time>2026-04-09T11:41:45.429Z</time></trkpt><trkpt lat="42.9466574" lon="11.8841833"><ele>529.0</ele><time>2026-04-09T11:41:46.437Z</time></trkpt><trkpt lat="42.9465391" lon="11.8841244"><ele>529.0</ele><time>2026-04-09T11:41:47.433Z</time></trkpt><trkpt lat="42.9463961" lon="11.8840801"><ele>528.3333333333334</ele><time>2026-04-09T11:41:48.435Z</time></trkpt><trkpt lat="42.9462119" lon="11.8840395"><ele>527.6666666666666</ele><time>2026-04-09T11:41:49.439Z</time></trkpt><trkpt lat="42.9460478" lon="11.8839885"><ele>527.0</ele><time>2026-04-09T11:41:50.446Z</time></trkpt><trkpt lat="42.9458758" lon="11.8839524"><ele>526.0</ele><time>2026-04-09T11:41:51.439Z</time></trkpt><trkpt lat="42.9456637" lon="11.8839121"><ele>525.0</ele><time>2026-04-09T11:41:52.441Z</time></trkpt><trkpt lat="42.9454429" lon="11.8838618"><ele>524.0</ele><time>2026-04-09T11:41:53.445Z</time></trkpt><trkpt lat="42.9452246" lon="11.8838355"><ele>524.5</ele><time>2026-04-09T11:41:54.441Z</time></trkpt><trkpt lat="42.9449822" lon="11.8838322"><ele>525.0</ele><time>2026-04-09T11:41:55.447Z</time></trkpt><trkpt lat="42.9447593" lon="11.8838468"><ele>525.0</ele><time>2026-04-09T11:41:56.445Z</time></trkpt><trkpt lat="42.9445663" lon="11.8838508"><ele>525.0</ele><time>2026-04-09T11:41:57.441Z</time></trkpt><trkpt lat="42.944373" lon="11.8838583"><ele>525.0</ele><time>2026-04-09T11:41:58.444Z</time></trkpt><trkpt lat="42.9442135" lon="11.8838616"><ele>528.0</ele><time>2026-04-09T11:41:59.443Z</time></trkpt><trkpt lat="42.9440987" lon="11.8838713"><ele>531.0</ele><time>2026-04-09T11:42:00.445Z</time></trkpt><trkpt lat="42.9439848" lon="11.8839008"><ele>534.0</ele><time>2026-04-09T11:42:01.444Z</time></trkpt><trkpt lat="42.9438655" lon="11.8839607"><ele>537.0</ele><time>2026-04-09T11:42:02.452Z</time></trkpt><trkpt lat="42.9437449" lon="11.8840412"><ele>537.0</ele><time>2026-04-09T11:42:03.445Z</time></trkpt><trkpt lat="42.9436362" lon="11.8841379"><ele>537.0</ele><time>2026-04-09T11:42:04.442Z</time></trkpt><trkpt lat="42.9435116" lon="11.8842981"><ele>537.0</ele><time>2026-04-09T11:42:05.443Z</time></trkpt><trkpt lat="42.9434397" lon="11.8844567"><ele>537.0</ele><time>2026-04-09T11:42:06.423Z</time></trkpt><trkpt lat="42.9434231" lon="11.8846432"><ele>536.6666666666666</ele><time>2026-04-09T11:42:07.441Z</time></trkpt><trkpt lat="42.9434042" lon="11.8848557"><ele>536.3333333333333</ele><time>2026-04-09T11:42:08.435Z</time></trkpt><trkpt lat="42.9433992" lon="11.8851145"><ele>536.0</ele><time>2026-04-09T11:42:09.436Z</time></trkpt><trkpt lat="42.9434076" lon="11.8853654"><ele>536.0</ele><time>2026-04-09T11:42:10.441Z</time></trkpt><trkpt lat="42.9434263" lon="11.8855723"><ele>536.0</ele><time>2026-04-09T11:42:11.433Z</time></trkpt><trkpt lat="42.9434168" lon="11.8857709"><ele>536.0</ele><time>2026-04-09T11:42:12.434Z</time></trkpt><trkpt lat="42.9433907" lon="11.885969"><ele>536.0</ele><time>2026-04-09T11:42:13.448Z</time></trkpt><trkpt lat="42.9433497" lon="11.8861763"><ele>536.6666666666666</ele><time>2026-04-09T11:42:14.441Z</time></trkpt><trkpt lat="42.9432875" lon="11.8863691"><ele>537.3333333333334</ele><time>2026-04-09T11:42:15.43Z</time></trkpt><trkpt lat="42.9431899" lon="11.8865692"><ele>538.0</ele><time>2026-04-09T11:42:16.437Z</time></trkpt><trkpt lat="42.9430587" lon="11.8867684"><ele>538.0</ele><time>2026-04-09T11:42:17.438Z</time></trkpt><trkpt lat="42.9429081" lon="11.8869529"><ele>538.0</ele><time>2026-04-09T11:42:18.433Z</time></trkpt><trkpt lat="42.9427438" lon="11.8871698"><ele>538.0</ele><time>2026-04-09T11:42:19.441Z</time></trkpt><trkpt lat="42.9426303" lon="11.8873412"><ele>539.3333333333334</ele><time>2026-04-09T11:42:20.439Z</time></trkpt><trkpt lat="42.9424896" lon="11.887498"><ele>540.6666666666666</ele><time>2026-04-09T11:42:21.438Z</time></trkpt><trkpt lat="42.9423703" lon="11.8876217"><ele>542.0</ele><time>2026-04-09T11:42:22.44Z</time></trkpt><trkpt lat="42.9422466" lon="11.8877421"><ele>542.0</ele><time>2026-04-09T11:42:23.44Z</time></trkpt><trkpt lat="42.9420995" lon="11.8878024"><ele>542.0</ele><time>2026-04-09T11:42:24.444Z</time></trkpt><trkpt lat="42.9419653" lon="11.8877583"><ele>542.0</ele><time>2026-04-09T11:42:25.438Z</time></trkpt><trkpt lat="42.941819" lon="11.8877868"><ele>542.0</ele><time>2026-04-09T11:42:26.441Z</time></trkpt><trkpt lat="42.9417093" lon="11.887829"><ele>542.6666666666666</ele><time>2026-04-09T11:42:27.442Z</time></trkpt><trkpt lat="42.9416302" lon="11.8878132"><ele>543.3333333333333</ele><time>2026-04-09T11:42:28.441Z</time></trkpt><trkpt lat="42.9415293" lon="11.8877703"><ele>544.0</ele><time>2026-04-09T11:42:30.438Z</time></trkpt><trkpt lat="42.9414627" lon="11.8877932"><ele>544.6666666666666</ele><time>2026-04-09T11:42:32.446Z</time></trkpt><trkpt lat="42.9415235" lon="11.887923"><ele>545.3333333333334</ele><time>2026-04-09T11:42:36.438Z</time></trkpt><trkpt lat="42.9415765" lon="11.8879927"><ele>546.0</ele><time>2026-04-09T11:42:37.461Z</time></trkpt><trkpt lat="42.9416482" lon="11.8881021"><ele>545.2</ele><time>2026-04-09T11:42:38.465Z</time></trkpt><trkpt lat="42.9417268" lon="11.8882187"><ele>544.4000000000001</ele><time>2026-04-09T11:42:39.47Z</time></trkpt><trkpt lat="42.9417998" lon="11.8883196"><ele>543.6</ele><time>2026-04-09T11:42:40.441Z</time></trkpt><trkpt lat="42.9418645" lon="11.8884102"><ele>542.8000000000001</ele><time>2026-04-09T11:42:41.441Z</time></trkpt><trkpt lat="42.9419223" lon="11.8884954"><ele>542.0</ele><time>2026-04-09T11:42:42.469Z</time></trkpt><trkpt lat="42.9419731" lon="11.88858"><ele>541.3333333333333</ele><time>2026-04-09T11:42:43.443Z</time></trkpt><trkpt lat="42.9420212" lon="11.8886724"><ele>540.6666666666666</ele><time>2026-04-09T11:42:44.45Z</time></trkpt><trkpt lat="42.9420713" lon="11.8887624"><ele>540.0</ele><time>2026-04-09T11:42:45.443Z</time></trkpt><trkpt lat="42.9421209" lon="11.888855"><ele>539.3333333333334</ele><time>2026-04-09T11:42:46.446Z</time></trkpt><trkpt lat="42.94217" lon="11.8889366"><ele>538.6666666666667</ele><time>2026-04-09T11:42:47.445Z</time></trkpt><trkpt lat="42.9422284" lon="11.8890122"><ele>538.0</ele><time>2026-04-09T11:42:48.454Z</time></trkpt><trkpt lat="42.9422868" lon="11.8890717"><ele>538.0</ele><time>2026-04-09T11:42:49.446Z</time></trkpt><trkpt lat="42.9423496" lon="11.8891142"><ele>538.0</ele><time>2026-04-09T11:42:50.441Z</time></trkpt><trkpt lat="42.9424197" lon="11.8891418"><ele>538.0</ele><time>2026-04-09T11:42:51.441Z</time></trkpt><trkpt lat="42.9424896" lon="11.889164"><ele>538.0</ele><time>2026-04-09T11:42:52.435Z</time></trkpt><trkpt lat="42.9425588" lon="11.8891966"><ele>538.0</ele><time>2026-04-09T11:42:53.443Z</time></trkpt><trkpt lat="42.9426231" lon="11.8892304"><ele>538.0</ele><time>2026-04-09T11:42:54.441Z</time></trkpt><trkpt lat="42.9427118" lon="11.8893083"><ele>534.1999999999999</ele><time>2026-04-09T11:42:56.433Z</time></trkpt><trkpt lat="42.9427937" lon="11.889398"><ele>530.4</ele><time>2026-04-09T11:42:58.44Z</time></trkpt><trkpt lat="42.9428765" lon="11.8894156"><ele>526.5999999999999</ele><time>2026-04-09T11:43:00.44Z</time></trkpt><trkpt lat="42.9429618" lon="11.8894059"><ele>522.8</ele><time>2026-04-09T11:43:02.443Z</time></trkpt><trkpt lat="42.9430773" lon="11.8894827"><ele>519.0</ele><time>2026-04-09T11:43:04.431Z</time></trkpt><trkpt lat="42.9431527" lon="11.8895575"><ele>519.0</ele><time>2026-04-09T11:43:05.441Z</time></trkpt><trkpt lat="42.9432314" lon="11.8896195"><ele>519.0</ele><time>2026-04-09T11:43:06.437Z</time></trkpt><trkpt lat="42.9433189" lon="11.8896877"><ele>519.0</ele><time>2026-04-09T11:43:07.441Z</time></trkpt><trkpt lat="42.9434082" lon="11.8897542"><ele>519.0</ele><time>2026-04-09T11:43:08.434Z</time></trkpt><trkpt lat="42.9435095" lon="11.8898277"><ele>519.0</ele><time>2026-04-09T11:43:09.438Z</time></trkpt><trkpt lat="42.9435998" lon="11.8898996"><ele>518.0</ele><time>2026-04-09T11:43:10.447Z</time></trkpt><trkpt lat="42.9436998" lon="11.8899722"><ele>517.0</ele><time>2026-04-09T11:43:11.446Z</time></trkpt><trkpt lat="42.9437855" lon="11.8900353"><ele>516.0</ele><time>2026-04-09T11:43:12.45Z</time></trkpt><trkpt lat="42.9438624" lon="11.8900945"><ele>515.0</ele><time>2026-04-09T11:43:13.443Z</time></trkpt><trkpt lat="42.9439285" lon="11.8901515"><ele>514.0</ele><time>2026-04-09T11:43:14.445Z</time></trkpt><trkpt lat="42.9439843" lon="11.8902036"><ele>513.0</ele><time>2026-04-09T11:43:15.437Z</time></trkpt><trkpt lat="42.944041" lon="11.8902452"><ele>512.0000000000001</ele><time>2026-04-09T11:43:16.44Z</time></trkpt><trkpt lat="42.9441012" lon="11.8902912"><ele>511.0</ele><time>2026-04-09T11:43:17.433Z</time></trkpt><trkpt lat="42.9441645" lon="11.8903494"><ele>510.00000000000006</ele><time>2026-04-09T11:43:18.444Z</time></trkpt><trkpt lat="42.9442213" lon="11.8904266"><ele>509.00000000000006</ele><time>2026-04-09T11:43:19.444Z</time></trkpt><trkpt lat="42.9442846" lon="11.890489"><ele>508.0</ele><time>2026-04-09T11:43:20.435Z</time></trkpt><trkpt lat="42.9443338" lon="11.8905521"><ele>507.00000000000006</ele><time>2026-04-09T11:43:21.439Z</time></trkpt><trkpt lat="42.9443791" lon="11.8906242"><ele>506.00000000000006</ele><time>2026-04-09T11:43:22.433Z</time></trkpt><trkpt lat="42.9444487" lon="11.8907652"><ele>504.20000000000005</ele><time>2026-04-09T11:43:24.434Z</time></trkpt><trkpt lat="42.944527" lon="11.8908757"><ele>502.40000000000003</ele><time>2026-04-09T11:43:26.439Z</time></trkpt><trkpt lat="42.9446342" lon="11.8909337"><ele>500.6</ele><time>2026-04-09T11:43:28.441Z</time></trkpt><trkpt lat="42.9447673" lon="11.8909178"><ele>498.8</ele><time>2026-04-09T11:43:30.439Z</time></trkpt><trkpt lat="42.9448534" lon="11.8909284"><ele>497.0</ele><time>2026-04-09T11:43:31.459Z</time></trkpt><trkpt lat="42.9449424" lon="11.8909604"><ele>496.66666666666663</ele><time>2026-04-09T11:43:32.435Z</time></trkpt><trkpt lat="42.9450247" lon="11.891014"><ele>496.3333333333333</ele><time>2026-04-09T11:43:33.435Z</time></trkpt><trkpt lat="42.9450987" lon="11.8910769"><ele>496.0</ele><time>2026-04-09T11:43:34.423Z</time></trkpt><trkpt lat="42.9451748" lon="11.891137"><ele>495.66666666666663</ele><time>2026-04-09T11:43:35.437Z</time></trkpt><trkpt lat="42.94525" lon="11.8912048"><ele>495.3333333333333</ele><time>2026-04-09T11:43:36.434Z</time></trkpt><trkpt lat="42.9453147" lon="11.8912568"><ele>495.0</ele><time>2026-04-09T11:43:37.435Z</time></trkpt><trkpt lat="42.9453792" lon="11.8912864"><ele>492.3333333333333</ele><time>2026-04-09T11:43:38.441Z</time></trkpt><trkpt lat="42.9454399" lon="11.8913225"><ele>489.66666666666663</ele><time>2026-04-09T11:43:39.467Z</time></trkpt><trkpt lat="42.9454947" lon="11.8913766"><ele>487.0</ele><time>2026-04-09T11:43:40.445Z</time></trkpt><trkpt lat="42.9455562" lon="11.8914728"><ele>484.3333333333333</ele><time>2026-04-09T11:43:41.437Z</time></trkpt><trkpt lat="42.9456185" lon="11.8915874"><ele>481.66666666666663</ele><time>2026-04-09T11:43:42.465Z</time></trkpt><trkpt lat="42.9456841" lon="11.8917081"><ele>479.0</ele><time>2026-04-09T11:43:43.468Z</time></trkpt><trkpt lat="42.9457389" lon="11.8918152"><ele>477.8333333333333</ele><time>2026-04-09T11:43:44.448Z</time></trkpt><trkpt lat="42.945788" lon="11.8919195"><ele>476.66666666666663</ele><time>2026-04-09T11:43:45.446Z</time></trkpt><trkpt lat="42.9458436" lon="11.892024"><ele>475.5</ele><time>2026-04-09T11:43:46.447Z</time></trkpt><trkpt lat="42.9458868" lon="11.8921176"><ele>474.33333333333337</ele><time>2026-04-09T11:43:47.44Z</time></trkpt><trkpt lat="42.9459366" lon="11.8922161"><ele>473.1666666666667</ele><time>2026-04-09T11:43:48.448Z</time></trkpt><trkpt lat="42.9459769" lon="11.8923054"><ele>472.0</ele><time>2026-04-09T11:43:49.447Z</time></trkpt><trkpt lat="42.9460185" lon="11.8923955"><ele>468.83333333333337</ele><time>2026-04-09T11:43:50.449Z</time></trkpt><trkpt lat="42.946049" lon="11.8925009"><ele>465.6666666666667</ele><time>2026-04-09T11:43:51.445Z</time></trkpt><trkpt lat="42.9460728" lon="11.892617"><ele>462.5</ele><time>2026-04-09T11:43:52.449Z</time></trkpt><trkpt lat="42.9460995" lon="11.8927297"><ele>459.33333333333337</ele><time>2026-04-09T11:43:53.442Z</time></trkpt><trkpt lat="42.9461323" lon="11.8928448"><ele>456.1666666666667</ele><time>2026-04-09T11:43:54.446Z</time></trkpt><trkpt lat="42.9461659" lon="11.8929538"><ele>453.0</ele><time>2026-04-09T11:43:55.448Z</time></trkpt><trkpt lat="42.9461864" lon="11.8930633"><ele>452.8333333333333</ele><time>2026-04-09T11:43:56.439Z</time></trkpt><trkpt lat="42.9462034" lon="11.893178"><ele>452.66666666666663</ele><time>2026-04-09T11:43:57.442Z</time></trkpt><trkpt lat="42.9462204" lon="11.8932913"><ele>452.5</ele><time>2026-04-09T11:43:58.446Z</time></trkpt><trkpt lat="42.9462302" lon="11.8934025"><ele>452.3333333333333</ele><time>2026-04-09T11:43:59.441Z</time></trkpt><trkpt lat="42.9462396" lon="11.8935282"><ele>452.16666666666663</ele><time>2026-04-09T11:44:00.441Z</time></trkpt><trkpt lat="42.9462493" lon="11.893656"><ele>452.0</ele><time>2026-04-09T11:44:01.445Z</time></trkpt><trkpt lat="42.9462638" lon="11.8937946"><ele>450.8333333333333</ele><time>2026-04-09T11:44:02.446Z</time></trkpt><trkpt lat="42.9462706" lon="11.8939277"><ele>449.66666666666663</ele><time>2026-04-09T11:44:03.444Z</time></trkpt><trkpt lat="42.9462789" lon="11.8940567"><ele>448.5</ele><time>2026-04-09T11:44:04.464Z</time></trkpt><trkpt lat="42.9462927" lon="11.894175"><ele>447.33333333333337</ele><time>2026-04-09T11:44:05.441Z</time></trkpt><trkpt lat="42.9463005" lon="11.8942902"><ele>446.1666666666667</ele><time>2026-04-09T11:44:06.442Z</time></trkpt><trkpt lat="42.9463011" lon="11.8943911"><ele>445.0</ele><time>2026-04-09T11:44:07.436Z</time></trkpt><trkpt lat="42.946301" lon="11.8945467"><ele>444.33333333333337</ele><time>2026-04-09T11:44:09.438Z</time></trkpt><trkpt lat="42.9463068" lon="11.8946684"><ele>443.6666666666667</ele><time>2026-04-09T11:44:11.442Z</time></trkpt><trkpt lat="42.9463165" lon="11.8948276"><ele>443.0</ele><time>2026-04-09T11:44:13.442Z</time></trkpt><trkpt lat="42.9463229" lon="11.8949164"><ele>442.33333333333337</ele><time>2026-04-09T11:44:14.441Z</time></trkpt><trkpt lat="42.9463341" lon="11.8950147"><ele>441.6666666666667</ele><time>2026-04-09T11:44:15.444Z</time></trkpt><trkpt lat="42.9463407" lon="11.8951308"><ele>441.0</ele><time>2026-04-09T11:44:16.446Z</time></trkpt><trkpt lat="42.9463442" lon="11.8952451"><ele>440.0</ele><time>2026-04-09T11:44:17.442Z</time></trkpt><trkpt lat="42.9463428" lon="11.8953582"><ele>439.0</ele><time>2026-04-09T11:44:18.444Z</time></trkpt><trkpt lat="42.9463361" lon="11.8954698"><ele>438.0</ele><time>2026-04-09T11:44:19.441Z</time></trkpt><trkpt lat="42.9463197" lon="11.8955925"><ele>437.0</ele><time>2026-04-09T11:44:20.435Z</time></trkpt><trkpt lat="42.9462936" lon="11.8957176"><ele>436.0</ele><time>2026-04-09T11:44:21.442Z</time></trkpt><trkpt lat="42.9462608" lon="11.8958383"><ele>435.0</ele><time>2026-04-09T11:44:22.44Z</time></trkpt><trkpt lat="42.9462217" lon="11.895938"><ele>434.0</ele><time>2026-04-09T11:44:23.446Z</time></trkpt><trkpt lat="42.9461708" lon="11.8960404"><ele>433.0</ele><time>2026-04-09T11:44:24.44Z</time></trkpt><trkpt lat="42.9461266" lon="11.8961454"><ele>432.0</ele><time>2026-04-09T11:44:25.436Z</time></trkpt><trkpt lat="42.9460872" lon="11.8962471"><ele>431.0</ele><time>2026-04-09T11:44:26.447Z</time></trkpt><trkpt lat="42.9460601" lon="11.8963399"><ele>430.0</ele><time>2026-04-09T11:44:27.442Z</time></trkpt><trkpt lat="42.9460356" lon="11.8964302"><ele>429.0</ele><time>2026-04-09T11:44:28.439Z</time></trkpt><trkpt lat="42.9460181" lon="11.8965211"><ele>429.0</ele><time>2026-04-09T11:44:29.44Z</time></trkpt><trkpt lat="42.9460152" lon="11.8966079"><ele>429.0</ele><time>2026-04-09T11:44:30.425Z</time></trkpt><trkpt lat="42.9460321" lon="11.89671"><ele>429.0</ele><time>2026-04-09T11:44:31.441Z</time></trkpt><trkpt lat="42.9460456" lon="11.8968009"><ele>429.0</ele><time>2026-04-09T11:44:32.441Z</time></trkpt><trkpt lat="42.9460744" lon="11.8968946"><ele>429.0</ele><time>2026-04-09T11:44:33.444Z</time></trkpt><trkpt lat="42.9461054" lon="11.896984"><ele>429.0</ele><time>2026-04-09T11:44:34.442Z</time></trkpt><trkpt lat="42.946141" lon="11.8970822"><ele>429.0</ele><time>2026-04-09T11:44:35.435Z</time></trkpt><trkpt lat="42.9461858" lon="11.8971706"><ele>427.5</ele><time>2026-04-09T11:44:36.435Z</time></trkpt><trkpt lat="42.9462362" lon="11.8972387"><ele>426.0</ele><time>2026-04-09T11:44:37.441Z</time></trkpt><trkpt lat="42.9462928" lon="11.8972916"><ele>424.5</ele><time>2026-04-09T11:44:38.463Z</time></trkpt><trkpt lat="42.9463539" lon="11.8973425"><ele>423.0</ele><time>2026-04-09T11:44:39.439Z</time></trkpt><trkpt lat="42.9464187" lon="11.8974115"><ele>421.5</ele><time>2026-04-09T11:44:40.447Z</time></trkpt><trkpt lat="42.946479" lon="11.8975025"><ele>420.0</ele><time>2026-04-09T11:44:41.439Z</time></trkpt><trkpt lat="42.946532" lon="11.897595"><ele>418.0</ele><time>2026-04-09T11:44:42.464Z</time></trkpt><trkpt lat="42.9465847" lon="11.8976926"><ele>416.0</ele><time>2026-04-09T11:44:43.441Z</time></trkpt><trkpt lat="42.9466357" lon="11.8977786"><ele>414.0</ele><time>2026-04-09T11:44:44.441Z</time></trkpt><trkpt lat="42.9466864" lon="11.8978578"><ele>412.0</ele><time>2026-04-09T11:44:45.437Z</time></trkpt><trkpt lat="42.9467413" lon="11.8979414"><ele>410.0</ele><time>2026-04-09T11:44:46.465Z</time></trkpt><trkpt lat="42.9467983" lon="11.8980185"><ele>408.0</ele><time>2026-04-09T11:44:47.439Z</time></trkpt><trkpt lat="42.9468598" lon="11.8980815"><ele>407.0</ele><time>2026-04-09T11:44:48.457Z</time></trkpt><trkpt lat="42.9469278" lon="11.8981426"><ele>406.0</ele><time>2026-04-09T11:44:49.459Z</time></trkpt><trkpt lat="42.9469926" lon="11.8981882"><ele>405.0</ele><time>2026-04-09T11:44:50.456Z</time></trkpt><trkpt lat="42.9470597" lon="11.8982295"><ele>404.0</ele><time>2026-04-09T11:44:51.429Z</time></trkpt><trkpt lat="42.9471255" lon="11.8982632"><ele>403.0</ele><time>2026-04-09T11:44:52.462Z</time></trkpt><trkpt lat="42.947238" lon="11.8982859"><ele>402.0</ele><time>2026-04-09T11:44:54.453Z</time></trkpt><trkpt lat="42.947318" lon="11.89825"><ele>402.0</ele><time>2026-04-09T11:44:56.427Z</time></trkpt><trkpt lat="42.9473993" lon="11.8982267"><ele>402.0</ele><time>2026-04-09T11:44:58.455Z</time></trkpt><trkpt lat="42.9475026" lon="11.8982813"><ele>402.0</ele><time>2026-04-09T11:45:00.423Z</time></trkpt><trkpt lat="42.9475618" lon="11.8983372"><ele>402.0</ele><time>2026-04-09T11:45:01.426Z</time></trkpt><trkpt lat="42.9476251" lon="11.8984173"><ele>402.0</ele><time>2026-04-09T11:45:02.424Z</time></trkpt><trkpt lat="42.9477023" lon="11.8985089"><ele>396.40000000000003</ele><time>2026-04-09T11:45:03.425Z</time></trkpt><trkpt lat="42.9477829" lon="11.8986047"><ele>390.8</ele><time>2026-04-09T11:45:04.434Z</time></trkpt><trkpt lat="42.9478634" lon="11.8987021"><ele>385.2</ele><time>2026-04-09T11:45:05.425Z</time></trkpt><trkpt lat="42.9479475" lon="11.8988067"><ele>379.6</ele><time>2026-04-09T11:45:06.434Z</time></trkpt><trkpt lat="42.9480199" lon="11.8988912"><ele>374.0</ele><time>2026-04-09T11:45:07.429Z</time></trkpt><trkpt lat="42.9480894" lon="11.8989798"><ele>374.0</ele><time>2026-04-09T11:45:08.428Z</time></trkpt><trkpt lat="42.9481527" lon="11.8990609"><ele>374.0</ele><time>2026-04-09T11:45:09.428Z</time></trkpt><trkpt lat="42.94821" lon="11.8991448"><ele>374.0</ele><time>2026-04-09T11:45:10.431Z</time></trkpt><trkpt lat="42.9482707" lon="11.8992286"><ele>374.0</ele><time>2026-04-09T11:45:11.43Z</time></trkpt><trkpt lat="42.9483321" lon="11.8993114"><ele>374.0</ele><time>2026-04-09T11:45:12.436Z</time></trkpt><trkpt lat="42.948395" lon="11.8993966"><ele>374.0</ele><time>2026-04-09T11:45:13.431Z</time></trkpt><trkpt lat="42.9484625" lon="11.8994709"><ele>371.79999999999995</ele><time>2026-04-09T11:45:14.432Z</time></trkpt><trkpt lat="42.9485367" lon="11.8995367"><ele>369.59999999999997</ele><time>2026-04-09T11:45:15.451Z</time></trkpt><trkpt lat="42.9486138" lon="11.8996039"><ele>367.4</ele><time>2026-04-09T11:45:16.434Z</time></trkpt><trkpt lat="42.9487009" lon="11.8996731"><ele>365.2</ele><time>2026-04-09T11:45:17.434Z</time></trkpt><trkpt lat="42.9487833" lon="11.8997337"><ele>363.0</ele><time>2026-04-09T11:45:18.43Z</time></trkpt><trkpt lat="42.948842" lon="11.8998"><ele>363.0</ele><time>2026-04-09T11:45:19.43Z</time></trkpt><trkpt lat="42.9488847" lon="11.899869"><ele>363.0</ele><time>2026-04-09T11:45:20.458Z</time></trkpt><trkpt lat="42.9489473" lon="11.9000226"><ele>363.0</ele><time>2026-04-09T11:45:22.433Z</time></trkpt><trkpt lat="42.9489803" lon="11.9001257"><ele>363.0</ele><time>2026-04-09T11:45:23.433Z</time></trkpt><trkpt lat="42.949027" lon="11.9002541"><ele>363.0</ele><time>2026-04-09T11:45:24.434Z</time></trkpt><trkpt lat="42.9490774" lon="11.9003926"><ele>361.4</ele><time>2026-04-09T11:45:25.438Z</time></trkpt><trkpt lat="42.9491219" lon="11.9005304"><ele>359.79999999999995</ele><time>2026-04-09T11:45:26.455Z</time></trkpt><trkpt lat="42.9491689" lon="11.9006652"><ele>358.2</ele><time>2026-04-09T11:45:27.439Z</time></trkpt><trkpt lat="42.9492171" lon="11.9007999"><ele>356.6</ele><time>2026-04-09T11:45:28.438Z</time></trkpt><trkpt lat="42.9492659" lon="11.9009212"><ele>355.0</ele><time>2026-04-09T11:45:29.435Z</time></trkpt><trkpt lat="42.9493224" lon="11.9010356"><ele>351.8</ele><time>2026-04-09T11:45:30.435Z</time></trkpt><trkpt lat="42.9493786" lon="11.9011522"><ele>348.6</ele><time>2026-04-09T11:45:31.439Z</time></trkpt><trkpt lat="42.9494233" lon="11.9012627"><ele>345.4</ele><time>2026-04-09T11:45:32.437Z</time></trkpt><trkpt lat="42.9494829" lon="11.9013954"><ele>342.2</ele><time>2026-04-09T11:45:33.463Z</time></trkpt><trkpt lat="42.94955" lon="11.9015491"><ele>339.0</ele><time>2026-04-09T11:45:34.435Z</time></trkpt><trkpt lat="42.9496209" lon="11.9017014"><ele>337.75</ele><time>2026-04-09T11:45:35.438Z</time></trkpt><trkpt lat="42.9496867" lon="11.9018425"><ele>336.5</ele><time>2026-04-09T11:45:36.44Z</time></trkpt><trkpt lat="42.9497536" lon="11.9019761"><ele>335.25</ele><time>2026-04-09T11:45:37.433Z</time></trkpt><trkpt lat="42.9498203" lon="11.9021179"><ele>334.0</ele><time>2026-04-09T11:45:38.442Z</time></trkpt><trkpt lat="42.9498812" lon="11.9022578"><ele>334.0</ele><time>2026-04-09T11:45:39.428Z</time></trkpt><trkpt lat="42.9499305" lon="11.9023777"><ele>334.0</ele><time>2026-04-09T11:45:40.435Z</time></trkpt><trkpt lat="42.9499709" lon="11.9024847"><ele>334.0</ele><time>2026-04-09T11:45:41.442Z</time></trkpt><trkpt lat="42.9500058" lon="11.9025903"><ele>334.0</ele><time>2026-04-09T11:45:42.433Z</time></trkpt><trkpt lat="42.9500371" lon="11.902692"><ele>334.0</ele><time>2026-04-09T11:45:43.434Z</time></trkpt><trkpt lat="42.9500581" lon="11.9027967"><ele>334.0</ele><time>2026-04-09T11:45:44.439Z</time></trkpt><trkpt lat="42.9500813" lon="11.902906"><ele>331.66666666666663</ele><time>2026-04-09T11:45:45.434Z</time></trkpt><trkpt lat="42.950109" lon="11.9030121"><ele>329.3333333333333</ele><time>2026-04-09T11:45:46.433Z</time></trkpt><trkpt lat="42.9501408" lon="11.9031065"><ele>327.0</ele><time>2026-04-09T11:45:47.438Z</time></trkpt><trkpt lat="42.9501866" lon="11.9031874"><ele>324.6666666666667</ele><time>2026-04-09T11:45:48.435Z</time></trkpt><trkpt lat="42.9502385" lon="11.9032549"><ele>322.33333333333337</ele><time>2026-04-09T11:45:49.437Z</time></trkpt><trkpt lat="42.9502957" lon="11.903332"><ele>320.0</ele><time>2026-04-09T11:45:50.435Z</time></trkpt><trkpt lat="42.9503588" lon="11.9034108"><ele>318.8</ele><time>2026-04-09T11:45:51.434Z</time></trkpt><trkpt lat="42.9504226" lon="11.9034937"><ele>317.6</ele><time>2026-04-09T11:45:52.434Z</time></trkpt><trkpt lat="42.950486" lon="11.903586"><ele>316.4</ele><time>2026-04-09T11:45:53.43Z</time></trkpt><trkpt lat="42.9505547" lon="11.9036762"><ele>315.2</ele><time>2026-04-09T11:45:54.443Z</time></trkpt><trkpt lat="42.9506151" lon="11.9037718"><ele>314.0</ele><time>2026-04-09T11:45:55.432Z</time></trkpt><trkpt lat="42.9506711" lon="11.9038827"><ele>314.0</ele><time>2026-04-09T11:45:56.432Z</time></trkpt><trkpt lat="42.9507284" lon="11.9040275"><ele>314.0</ele><time>2026-04-09T11:45:57.434Z</time></trkpt><trkpt lat="42.9507645" lon="11.9041866"><ele>314.0</ele><time>2026-04-09T11:45:58.435Z</time></trkpt><trkpt lat="42.9507954" lon="11.9043333"><ele>314.0</ele><time>2026-04-09T11:45:59.427Z</time></trkpt><trkpt lat="42.9508252" lon="11.9044732"><ele>313.2</ele><time>2026-04-09T11:46:00.424Z</time></trkpt><trkpt lat="42.950858" lon="11.9045973"><ele>312.4</ele><time>2026-04-09T11:46:01.43Z</time></trkpt><trkpt lat="42.9508918" lon="11.9047192"><ele>311.6</ele><time>2026-04-09T11:46:02.432Z</time></trkpt><trkpt lat="42.9509147" lon="11.9048403"><ele>310.8</ele><time>2026-04-09T11:46:03.427Z</time></trkpt><trkpt lat="42.9509322" lon="11.904965"><ele>310.0</ele><time>2026-04-09T11:46:04.424Z</time></trkpt><trkpt lat="42.9509534" lon="11.905083"><ele>308.8333333333333</ele><time>2026-04-09T11:46:05.429Z</time></trkpt><trkpt lat="42.9509726" lon="11.9051837"><ele>307.66666666666663</ele><time>2026-04-09T11:46:06.427Z</time></trkpt><trkpt lat="42.9509884" lon="11.9052737"><ele>306.5</ele><time>2026-04-09T11:46:07.425Z</time></trkpt><trkpt lat="42.9510478" lon="11.9054161"><ele>305.3333333333333</ele><time>2026-04-09T11:46:09.419Z</time></trkpt><trkpt lat="42.9511053" lon="11.9054735"><ele>304.1666666666667</ele><time>2026-04-09T11:46:10.428Z</time></trkpt><trkpt lat="42.9511971" lon="11.9055147"><ele>303.0</ele><time>2026-04-09T11:46:11.419Z</time></trkpt><trkpt lat="42.9513158" lon="11.9055745"><ele>303.0</ele><time>2026-04-09T11:46:12.431Z</time></trkpt><trkpt lat="42.9514352" lon="11.9056267"><ele>303.0</ele><time>2026-04-09T11:46:13.437Z</time></trkpt><trkpt lat="42.9515512" lon="11.9056695"><ele>303.0</ele><time>2026-04-09T11:46:14.451Z</time></trkpt><trkpt lat="42.9516691" lon="11.9057118"><ele>303.0</ele><time>2026-04-09T11:46:15.432Z</time></trkpt><trkpt lat="42.9517976" lon="11.9057432"><ele>305.0</ele><time>2026-04-09T11:46:16.45Z</time></trkpt><trkpt lat="42.9519338" lon="11.9057617"><ele>307.0</ele><time>2026-04-09T11:46:17.422Z</time></trkpt><trkpt lat="42.9520803" lon="11.9057582"><ele>309.0</ele><time>2026-04-09T11:46:18.435Z</time></trkpt><trkpt lat="42.9522268" lon="11.9057437"><ele>311.0</ele><time>2026-04-09T11:46:19.43Z</time></trkpt><trkpt lat="42.9523565" lon="11.9057311"><ele>311.0</ele><time>2026-04-09T11:46:20.43Z</time></trkpt><trkpt lat="42.9524837" lon="11.9057115"><ele>311.0</ele><time>2026-04-09T11:46:21.427Z</time></trkpt><trkpt lat="42.9526092" lon="11.9056883"><ele>311.0</ele><time>2026-04-09T11:46:22.428Z</time></trkpt><trkpt lat="42.9527269" lon="11.9056609"><ele>311.0</ele><time>2026-04-09T11:46:23.436Z</time></trkpt><trkpt lat="42.95283" lon="11.9056393"><ele>312.2</ele><time>2026-04-09T11:46:24.421Z</time></trkpt><trkpt lat="42.9529339" lon="11.9056239"><ele>313.40000000000003</ele><time>2026-04-09T11:46:25.424Z</time></trkpt><trkpt lat="42.9530151" lon="11.9056169"><ele>314.6</ele><time>2026-04-09T11:46:26.42Z</time></trkpt><trkpt lat="42.953112" lon="11.9056165"><ele>315.8</ele><time>2026-04-09T11:46:27.409Z</time></trkpt><trkpt lat="42.9532116" lon="11.9056241"><ele>317.0</ele><time>2026-04-09T11:46:28.42Z</time></trkpt><trkpt lat="42.9533102" lon="11.9056437"><ele>316.2</ele><time>2026-04-09T11:46:29.413Z</time></trkpt><trkpt lat="42.9534055" lon="11.9056774"><ele>315.4</ele><time>2026-04-09T11:46:30.418Z</time></trkpt><trkpt lat="42.9534866" lon="11.9057209"><ele>314.6</ele><time>2026-04-09T11:46:31.441Z</time></trkpt><trkpt lat="42.9535649" lon="11.9058009"><ele>313.8</ele><time>2026-04-09T11:46:32.426Z</time></trkpt><trkpt lat="42.9536378" lon="11.9059042"><ele>313.0</ele><time>2026-04-09T11:46:33.428Z</time></trkpt><trkpt lat="42.9537068" lon="11.905987"><ele>312.8</ele><time>2026-04-09T11:46:34.426Z</time></trkpt><trkpt lat="42.9537682" lon="11.9060691"><ele>312.6</ele><time>2026-04-09T11:46:35.425Z</time></trkpt><trkpt lat="42.953842" lon="11.9061742"><ele>312.4</ele><time>2026-04-09T11:46:36.433Z</time></trkpt><trkpt lat="42.9539084" lon="11.9062616"><ele>312.2</ele><time>2026-04-09T11:46:37.438Z</time></trkpt><trkpt lat="42.9539778" lon="11.9063364"><ele>312.0</ele><time>2026-04-09T11:46:38.436Z</time></trkpt><trkpt lat="42.9540496" lon="11.9064002"><ele>312.0</ele><time>2026-04-09T11:46:39.433Z</time></trkpt><trkpt lat="42.9541247" lon="11.9064432"><ele>312.0</ele><time>2026-04-09T11:46:40.436Z</time></trkpt><trkpt lat="42.9541962" lon="11.906476"><ele>312.0</ele><time>2026-04-09T11:46:41.435Z</time></trkpt><trkpt lat="42.95426" lon="11.9064931"><ele>312.0</ele><time>2026-04-09T11:46:42.431Z</time></trkpt><trkpt lat="42.9543302" lon="11.9065115"><ele>312.0</ele><time>2026-04-09T11:46:43.446Z</time></trkpt><trkpt lat="42.9544112" lon="11.906521"><ele>312.0</ele><time>2026-04-09T11:46:44.44Z</time></trkpt><trkpt lat="42.9545025" lon="11.9065173"><ele>310.8333333333333</ele><time>2026-04-09T11:46:45.439Z</time></trkpt><trkpt lat="42.9546002" lon="11.9065034"><ele>309.6666666666667</ele><time>2026-04-09T11:46:46.43Z</time></trkpt><trkpt lat="42.9546922" lon="11.9064777"><ele>308.5</ele><time>2026-04-09T11:46:47.432Z</time></trkpt><trkpt lat="42.9547686" lon="11.9064623"><ele>307.33333333333337</ele><time>2026-04-09T11:46:48.43Z</time></trkpt><trkpt lat="42.9548382" lon="11.9064572"><ele>306.1666666666667</ele><time>2026-04-09T11:46:49.437Z</time></trkpt><trkpt lat="42.9549019" lon="11.906442"><ele>305.0</ele><time>2026-04-09T11:46:50.436Z</time></trkpt><trkpt lat="42.954974" lon="11.9064435"><ele>304.8571428571429</ele><time>2026-04-09T11:46:51.434Z</time></trkpt><trkpt lat="42.9550472" lon="11.9064506"><ele>304.71428571428567</ele><time>2026-04-09T11:46:52.43Z</time></trkpt><trkpt lat="42.9551176" lon="11.9064641"><ele>304.57142857142856</ele><time>2026-04-09T11:46:53.423Z</time></trkpt><trkpt lat="42.955188" lon="11.9064829"><ele>304.42857142857144</ele><time>2026-04-09T11:46:54.431Z</time></trkpt><trkpt lat="42.9552613" lon="11.9064809"><ele>304.28571428571433</ele><time>2026-04-09T11:46:55.422Z</time></trkpt><trkpt lat="42.9553342" lon="11.9064735"><ele>304.1428571428571</ele><time>2026-04-09T11:46:56.432Z</time></trkpt><trkpt lat="42.9554053" lon="11.9064607"><ele>304.0</ele><time>2026-04-09T11:46:57.422Z</time></trkpt><trkpt lat="42.9554731" lon="11.9064529"><ele>304.0</ele><time>2026-04-09T11:46:58.431Z</time></trkpt><trkpt lat="42.9555468" lon="11.906431"><ele>304.0</ele><time>2026-04-09T11:46:59.425Z</time></trkpt><trkpt lat="42.9556304" lon="11.9064111"><ele>304.0</ele><time>2026-04-09T11:47:00.423Z</time></trkpt><trkpt lat="42.9557119" lon="11.9063835"><ele>304.0</ele><time>2026-04-09T11:47:01.425Z</time></trkpt><trkpt lat="42.9557865" lon="11.9063355"><ele>304.0</ele><time>2026-04-09T11:47:02.432Z</time></trkpt><trkpt lat="42.9558494" lon="11.9062809"><ele>304.0</ele><time>2026-04-09T11:47:03.42Z</time></trkpt><trkpt lat="42.9559122" lon="11.9062204"><ele>302.59999999999997</ele><time>2026-04-09T11:47:04.428Z</time></trkpt><trkpt lat="42.9559787" lon="11.9061424"><ele>301.2</ele><time>2026-04-09T11:47:05.422Z</time></trkpt><trkpt lat="42.9560522" lon="11.9060436"><ele>299.79999999999995</ele><time>2026-04-09T11:47:06.429Z</time></trkpt><trkpt lat="42.9561283" lon="11.9059386"><ele>298.4</ele><time>2026-04-09T11:47:07.423Z</time></trkpt><trkpt lat="42.9561955" lon="11.9058349"><ele>297.0</ele><time>2026-04-09T11:47:08.422Z</time></trkpt><trkpt lat="42.9562581" lon="11.905744"><ele>294.6</ele><time>2026-04-09T11:47:09.422Z</time></trkpt><trkpt lat="42.9563132" lon="11.905637"><ele>292.2</ele><time>2026-04-09T11:47:10.43Z</time></trkpt><trkpt lat="42.9563807" lon="11.9055385"><ele>289.8</ele><time>2026-04-09T11:47:11.431Z</time></trkpt><trkpt lat="42.956449" lon="11.9054518"><ele>287.4</ele><time>2026-04-09T11:47:12.429Z</time></trkpt><trkpt lat="42.9565154" lon="11.905368"><ele>285.0</ele><time>2026-04-09T11:47:13.444Z</time></trkpt><trkpt lat="42.9565795" lon="11.9053072"><ele>285.0</ele><time>2026-04-09T11:47:14.437Z</time></trkpt><trkpt lat="42.9566446" lon="11.9052683"><ele>285.0</ele><time>2026-04-09T11:47:15.436Z</time></trkpt><trkpt lat="42.9567433" lon="11.9052371"><ele>285.0</ele><time>2026-04-09T11:47:17.433Z</time></trkpt><trkpt lat="42.9568302" lon="11.9052982"><ele>285.0</ele><time>2026-04-09T11:47:19.441Z</time></trkpt><trkpt lat="42.956878" lon="11.9054126"><ele>285.0</ele><time>2026-04-09T11:47:20.436Z</time></trkpt><trkpt lat="42.9569303" lon="11.9055662"><ele>283.6666666666667</ele><time>2026-04-09T11:47:21.426Z</time></trkpt><trkpt lat="42.9569985" lon="11.9057563"><ele>282.33333333333337</ele><time>2026-04-09T11:47:22.433Z</time></trkpt><trkpt lat="42.9570719" lon="11.9059645"><ele>281.0</ele><time>2026-04-09T11:47:23.429Z</time></trkpt><trkpt lat="42.9572008" lon="11.9062883"><ele>281.0</ele><time>2026-04-09T11:47:24.453Z</time></trkpt><trkpt lat="42.9573238" lon="11.906587"><ele>281.0</ele><time>2026-04-09T11:47:25.456Z</time></trkpt><trkpt lat="42.9574469" lon="11.9068461"><ele>281.0</ele><time>2026-04-09T11:47:26.428Z</time></trkpt><trkpt lat="42.9575653" lon="11.907097"><ele>281.0</ele><time>2026-04-09T11:47:27.454Z</time></trkpt><trkpt lat="42.9576644" lon="11.9073349"><ele>281.0</ele><time>2026-04-09T11:47:28.444Z</time></trkpt><trkpt lat="42.957771" lon="11.9075554"><ele>278.6666666666667</ele><time>2026-04-09T11:47:29.431Z</time></trkpt><trkpt lat="42.9578576" lon="11.9077412"><ele>276.3333333333333</ele><time>2026-04-09T11:47:30.426Z</time></trkpt><trkpt lat="42.9579682" lon="11.9079323"><ele>274.0</ele><time>2026-04-09T11:47:31.427Z</time></trkpt><trkpt lat="42.9580797" lon="11.9080937"><ele>274.0</ele><time>2026-04-09T11:47:32.434Z</time></trkpt><trkpt lat="42.9582048" lon="11.9082991"><ele>274.0</ele><time>2026-04-09T11:47:33.425Z</time></trkpt><trkpt lat="42.958333" lon="11.9084674"><ele>274.0</ele><time>2026-04-09T11:47:34.436Z</time></trkpt><trkpt lat="42.9584585" lon="11.9086032"><ele>274.25</ele><time>2026-04-09T11:47:35.421Z</time></trkpt><trkpt lat="42.9585799" lon="11.9087142"><ele>274.5</ele><time>2026-04-09T11:47:36.438Z</time></trkpt><trkpt lat="42.9587096" lon="11.9088128"><ele>274.75</ele><time>2026-04-09T11:47:37.433Z</time></trkpt><trkpt lat="42.9588292" lon="11.9088989"><ele>275.0</ele><time>2026-04-09T11:47:38.434Z</time></trkpt><trkpt lat="42.9589336" lon="11.9089758"><ele>275.0</ele><time>2026-04-09T11:47:39.431Z</time></trkpt><trkpt lat="42.9590139" lon="11.9090498"><ele>275.0</ele><time>2026-04-09T11:47:40.429Z</time></trkpt><trkpt lat="42.9590614" lon="11.9091083"><ele>275.0</ele><time>2026-04-09T11:47:41.425Z</time></trkpt><trkpt lat="42.9591136" lon="11.9091665"><ele>275.0</ele><time>2026-04-09T11:47:43.428Z</time></trkpt><trkpt lat="42.9592053" lon="11.9091732"><ele>275.0</ele><time>2026-04-09T11:47:46.431Z</time></trkpt><trkpt lat="42.9593074" lon="11.9090585"><ele>277.25</ele><time>2026-04-09T11:47:48.427Z</time></trkpt><trkpt lat="42.9593788" lon="11.908982"><ele>279.5</ele><time>2026-04-09T11:47:49.429Z</time></trkpt><trkpt lat="42.9594737" lon="11.9089083"><ele>281.75</ele><time>2026-04-09T11:47:50.431Z</time></trkpt><trkpt lat="42.959589" lon="11.9088412"><ele>284.0</ele><time>2026-04-09T11:47:51.428Z</time></trkpt><trkpt lat="42.9597178" lon="11.9087916"><ele>284.0</ele><time>2026-04-09T11:47:52.428Z</time></trkpt><trkpt lat="42.959854" lon="11.9087566"><ele>284.0</ele><time>2026-04-09T11:47:53.422Z</time></trkpt><trkpt lat="42.9599881" lon="11.9087267"><ele>284.0</ele><time>2026-04-09T11:47:54.426Z</time></trkpt><trkpt lat="42.9601239" lon="11.9087025"><ele>284.0</ele><time>2026-04-09T11:47:55.42Z</time></trkpt><trkpt lat="42.9602707" lon="11.9086645"><ele>289.0</ele><time>2026-04-09T11:47:56.425Z</time></trkpt><trkpt lat="42.9604521" lon="11.9086326"><ele>294.0</ele><time>2026-04-09T11:47:57.425Z</time></trkpt><trkpt lat="42.9606181" lon="11.908553"><ele>299.0</ele><time>2026-04-09T11:47:58.43Z</time></trkpt><trkpt lat="42.960791" lon="11.9084866"><ele>301.6666666666667</ele><time>2026-04-09T11:47:59.42Z</time></trkpt><trkpt lat="42.9609791" lon="11.9084526"><ele>304.3333333333333</ele><time>2026-04-09T11:48:00.417Z</time></trkpt><trkpt lat="42.9611696" lon="11.9084151"><ele>307.0</ele><time>2026-04-09T11:48:01.422Z</time></trkpt><trkpt lat="42.9613424" lon="11.9083717"><ele>303.0</ele><time>2026-04-09T11:48:02.417Z</time></trkpt><trkpt lat="42.9614987" lon="11.9083348"><ele>299.0</ele><time>2026-04-09T11:48:03.42Z</time></trkpt><trkpt lat="42.9616344" lon="11.9082944"><ele>295.0</ele><time>2026-04-09T11:48:04.411Z</time></trkpt><trkpt lat="42.9617546" lon="11.9082264"><ele>291.0</ele><time>2026-04-09T11:48:05.41Z</time></trkpt><trkpt lat="42.9618842" lon="11.9081434"><ele>291.0</ele><time>2026-04-09T11:48:06.416Z</time></trkpt><trkpt lat="42.9619694" lon="11.9080425"><ele>291.0</ele><time>2026-04-09T11:48:07.418Z</time></trkpt><trkpt lat="42.9620601" lon="11.9079255"><ele>291.0</ele><time>2026-04-09T11:48:08.425Z</time></trkpt><trkpt lat="42.9621594" lon="11.9077171"><ele>291.0</ele><time>2026-04-09T11:48:09.42Z</time></trkpt><trkpt lat="42.9622655" lon="11.9074601"><ele>290.0</ele><time>2026-04-09T11:48:10.425Z</time></trkpt><trkpt lat="42.9623581" lon="11.9072124"><ele>289.0</ele><time>2026-04-09T11:48:11.426Z</time></trkpt><trkpt lat="42.96246" lon="11.90699"><ele>288.0</ele><time>2026-04-09T11:48:12.419Z</time></trkpt><trkpt lat="42.9625672" lon="11.9068322"><ele>291.6666666666667</ele><time>2026-04-09T11:48:13.417Z</time></trkpt><trkpt lat="42.9626912" lon="11.9066571"><ele>295.33333333333337</ele><time>2026-04-09T11:48:14.424Z</time></trkpt><trkpt lat="42.9628139" lon="11.9064894"><ele>299.0</ele><time>2026-04-09T11:48:15.417Z</time></trkpt><trkpt lat="42.9629221" lon="11.9063571"><ele>299.0</ele><time>2026-04-09T11:48:16.421Z</time></trkpt><trkpt lat="42.9630118" lon="11.9062018"><ele>299.0</ele><time>2026-04-09T11:48:17.422Z</time></trkpt><trkpt lat="42.9631167" lon="11.9060901"><ele>299.0</ele><time>2026-04-09T11:48:18.423Z</time></trkpt><trkpt lat="42.9632095" lon="11.9059627"><ele>299.0</ele><time>2026-04-09T11:48:19.419Z</time></trkpt><trkpt lat="42.9632984" lon="11.9058554"><ele>300.4</ele><time>2026-04-09T11:48:20.421Z</time></trkpt><trkpt lat="42.9633676" lon="11.9057602"><ele>301.79999999999995</ele><time>2026-04-09T11:48:21.42Z</time></trkpt><trkpt lat="42.9634443" lon="11.9056933"><ele>303.20000000000005</ele><time>2026-04-09T11:48:22.426Z</time></trkpt><trkpt lat="42.9635393" lon="11.9056588"><ele>304.6</ele><time>2026-04-09T11:48:23.42Z</time></trkpt><trkpt lat="42.963657" lon="11.90564"><ele>306.0</ele><time>2026-04-09T11:48:24.424Z</time></trkpt><trkpt lat="42.9637891" lon="11.9056502"><ele>306.0</ele><time>2026-04-09T11:48:25.427Z</time></trkpt><trkpt lat="42.9638945" lon="11.9056553"><ele>306.0</ele><time>2026-04-09T11:48:26.431Z</time></trkpt><trkpt lat="42.9639929" lon="11.905671"><ele>306.0</ele><time>2026-04-09T11:48:27.428Z</time></trkpt><trkpt lat="42.9640813" lon="11.9056747"><ele>306.0</ele><time>2026-04-09T11:48:28.43Z</time></trkpt><trkpt lat="42.9641654" lon="11.9056741"><ele>306.0</ele><time>2026-04-09T11:48:29.431Z</time></trkpt><trkpt lat="42.964253" lon="11.9056773"><ele>306.40000000000003</ele><time>2026-04-09T11:48:30.427Z</time></trkpt><trkpt lat="42.9643498" lon="11.905677"><ele>306.8</ele><time>2026-04-09T11:48:31.433Z</time></trkpt><trkpt lat="42.9644582" lon="11.9056796"><ele>307.20000000000005</ele><time>2026-04-09T11:48:32.426Z</time></trkpt><trkpt lat="42.9645625" lon="11.9056945"><ele>307.6</ele><time>2026-04-09T11:48:33.42Z</time></trkpt><trkpt lat="42.9646695" lon="11.9057448"><ele>308.0</ele><time>2026-04-09T11:48:34.417Z</time></trkpt><trkpt lat="42.9647797" lon="11.9058072"><ele>308.0</ele><time>2026-04-09T11:48:35.431Z</time></trkpt><trkpt lat="42.9648884" lon="11.9058841"><ele>308.0</ele><time>2026-04-09T11:48:36.418Z</time></trkpt><trkpt lat="42.964996" lon="11.9059713"><ele>308.0</ele><time>2026-04-09T11:48:37.422Z</time></trkpt><trkpt lat="42.9650967" lon="11.9060714"><ele>308.0</ele><time>2026-04-09T11:48:38.421Z</time></trkpt><trkpt lat="42.9651855" lon="11.9061752"><ele>310.6</ele><time>2026-04-09T11:48:39.417Z</time></trkpt><trkpt lat="42.9652734" lon="11.9062567"><ele>313.20000000000005</ele><time>2026-04-09T11:48:40.412Z</time></trkpt><trkpt lat="42.965371" lon="11.9063104"><ele>315.8</ele><time>2026-04-09T11:48:41.422Z</time></trkpt><trkpt lat="42.9654731" lon="11.9063058"><ele>318.40000000000003</ele><time>2026-04-09T11:48:42.427Z</time></trkpt><trkpt lat="42.9655751" lon="11.9062508"><ele>321.0</ele><time>2026-04-09T11:48:43.43Z</time></trkpt><trkpt lat="42.965669" lon="11.9061278"><ele>321.0</ele><time>2026-04-09T11:48:44.419Z</time></trkpt><trkpt lat="42.9657426" lon="11.905984"><ele>321.0</ele><time>2026-04-09T11:48:45.42Z</time></trkpt><trkpt lat="42.9657892" lon="11.9058331"><ele>321.0</ele><time>2026-04-09T11:48:46.412Z</time></trkpt><trkpt lat="42.96579" lon="11.9056786"><ele>321.0</ele><time>2026-04-09T11:48:47.418Z</time></trkpt><trkpt lat="42.9657449" lon="11.9055168"><ele>320.25</ele><time>2026-04-09T11:48:48.429Z</time></trkpt><trkpt lat="42.9656666" lon="11.9053517"><ele>319.5</ele><time>2026-04-09T11:48:49.427Z</time></trkpt><trkpt lat="42.9655858" lon="11.9051898"><ele>318.75</ele><time>2026-04-09T11:48:50.431Z</time></trkpt><trkpt lat="42.965514" lon="11.9050381"><ele>318.0</ele><time>2026-04-09T11:48:51.422Z</time></trkpt><trkpt lat="42.9654612" lon="11.9048749"><ele>318.0</ele><time>2026-04-09T11:48:52.43Z</time></trkpt><trkpt lat="42.9653917" lon="11.9046964"><ele>318.0</ele><time>2026-04-09T11:48:53.42Z</time></trkpt><trkpt lat="42.9654277" lon="11.9045793"><ele>318.0</ele><time>2026-04-09T11:48:54.421Z</time></trkpt><trkpt lat="42.9655095" lon="11.9044901"><ele>318.0</ele><time>2026-04-09T11:48:55.421Z</time></trkpt><trkpt lat="42.9656183" lon="11.9044243"><ele>318.0</ele><time>2026-04-09T11:48:56.409Z</time></trkpt><trkpt lat="42.9657495" lon="11.9043939"><ele>318.0</ele><time>2026-04-09T11:48:57.419Z</time></trkpt><trkpt lat="42.9658826" lon="11.9043815"><ele>318.0</ele><time>2026-04-09T11:48:58.443Z</time></trkpt><trkpt lat="42.9660097" lon="11.9043501"><ele>318.0</ele><time>2026-04-09T11:48:59.434Z</time></trkpt><trkpt lat="42.9661353" lon="11.9043028"><ele>320.3333333333333</ele><time>2026-04-09T11:49:00.414Z</time></trkpt><trkpt lat="42.9662354" lon="11.9041995"><ele>322.66666666666663</ele><time>2026-04-09T11:49:01.429Z</time></trkpt><trkpt lat="42.9663084" lon="11.9040129"><ele>325.0</ele><time>2026-04-09T11:49:02.426Z</time></trkpt><trkpt lat="42.9663692" lon="11.903733"><ele>325.0</ele><time>2026-04-09T11:49:03.423Z</time></trkpt><trkpt lat="42.9664238" lon="11.9034663"><ele>325.0</ele><time>2026-04-09T11:49:04.417Z</time></trkpt><trkpt lat="42.9664756" lon="11.9032933"><ele>325.0</ele><time>2026-04-09T11:49:05.418Z</time></trkpt><trkpt lat="42.9665235" lon="11.9031636"><ele>325.0</ele><time>2026-04-09T11:49:06.416Z</time></trkpt><trkpt lat="42.9665814" lon="11.9030105"><ele>325.0</ele><time>2026-04-09T11:49:07.419Z</time></trkpt><trkpt lat="42.966659" lon="11.9028825"><ele>325.0</ele><time>2026-04-09T11:49:08.41Z</time></trkpt><trkpt lat="42.9667043" lon="11.9027758"><ele>325.0</ele><time>2026-04-09T11:49:09.426Z</time></trkpt><trkpt lat="42.9667617" lon="11.9026908"><ele>325.0</ele><time>2026-04-09T11:49:10.419Z</time></trkpt><trkpt lat="42.9668033" lon="11.9026145"><ele>325.0</ele><time>2026-04-09T11:49:11.421Z</time></trkpt><trkpt lat="42.9668537" lon="11.902549"><ele>325.0</ele><time>2026-04-09T11:49:13.427Z</time></trkpt><trkpt lat="42.9668061" lon="11.9024026"><ele>324.4</ele><time>2026-04-09T11:49:16.43Z</time></trkpt><trkpt lat="42.9667527" lon="11.9023166"><ele>323.8</ele><time>2026-04-09T11:49:17.43Z</time></trkpt><trkpt lat="42.9666779" lon="11.9022182"><ele>323.20000000000005</ele><time>2026-04-09T11:49:18.434Z</time></trkpt><trkpt lat="42.9665935" lon="11.9021031"><ele>322.6</ele><time>2026-04-09T11:49:19.431Z</time></trkpt><trkpt lat="42.966493" lon="11.9019798"><ele>322.0</ele><time>2026-04-09T11:49:20.428Z</time></trkpt><trkpt lat="42.9663812" lon="11.9018508"><ele>326.0</ele><time>2026-04-09T11:49:21.425Z</time></trkpt><trkpt lat="42.9662671" lon="11.9017183"><ele>330.0</ele><time>2026-04-09T11:49:22.422Z</time></trkpt><trkpt lat="42.9661181" lon="11.9015475"><ele>334.0</ele><time>2026-04-09T11:49:23.423Z</time></trkpt><trkpt lat="42.9660051" lon="11.9014443"><ele>334.0</ele><time>2026-04-09T11:49:24.42Z</time></trkpt><trkpt lat="42.965911" lon="11.9013472"><ele>334.0</ele><time>2026-04-09T11:49:25.411Z</time></trkpt><trkpt lat="42.9658368" lon="11.9012431"><ele>334.0</ele><time>2026-04-09T11:49:26.415Z</time></trkpt><trkpt lat="42.9657795" lon="11.9011844"><ele>334.0</ele><time>2026-04-09T11:49:27.409Z</time></trkpt><trkpt lat="42.9657309" lon="11.9011145"><ele>334.0</ele><time>2026-04-09T11:49:28.419Z</time></trkpt><trkpt lat="42.9656325" lon="11.9010198"><ele>333.1428571428571</ele><time>2026-04-09T11:49:30.421Z</time></trkpt><trkpt lat="42.9655876" lon="11.9009464"><ele>332.2857142857143</ele><time>2026-04-09T11:49:31.446Z</time></trkpt><trkpt lat="42.9655467" lon="11.9008704"><ele>331.42857142857144</ele><time>2026-04-09T11:49:32.428Z</time></trkpt><trkpt lat="42.9655089" lon="11.9007974"><ele>330.57142857142856</ele><time>2026-04-09T11:49:33.422Z</time></trkpt><trkpt lat="42.965465" lon="11.900727"><ele>329.7142857142857</ele><time>2026-04-09T11:49:34.422Z</time></trkpt><trkpt lat="42.9654184" lon="11.9006388"><ele>328.85714285714283</ele><time>2026-04-09T11:49:35.415Z</time></trkpt><trkpt lat="42.9653857" lon="11.9005559"><ele>328.0</ele><time>2026-04-09T11:49:36.418Z</time></trkpt><trkpt lat="42.9653494" lon="11.900411"><ele>331.0</ele><time>2026-04-09T11:49:38.427Z</time></trkpt><trkpt lat="42.9653321" lon="11.9002315"><ele>334.0</ele><time>2026-04-09T11:49:40.42Z</time></trkpt><trkpt lat="42.9653456" lon="11.9001191"><ele>337.0</ele><time>2026-04-09T11:49:41.424Z</time></trkpt><trkpt lat="42.9653724" lon="11.9000022"><ele>340.0</ele><time>2026-04-09T11:49:42.417Z</time></trkpt><trkpt lat="42.9653998" lon="11.8998957"><ele>343.0</ele><time>2026-04-09T11:49:43.416Z</time></trkpt><trkpt lat="42.9654311" lon="11.8997892"><ele>344.59999999999997</ele><time>2026-04-09T11:49:44.415Z</time></trkpt><trkpt lat="42.9654767" lon="11.8996818"><ele>346.2</ele><time>2026-04-09T11:49:45.412Z</time></trkpt><trkpt lat="42.9655252" lon="11.8995861"><ele>347.8</ele><time>2026-04-09T11:49:46.414Z</time></trkpt><trkpt lat="42.965579" lon="11.8994641"><ele>349.4</ele><time>2026-04-09T11:49:47.435Z</time></trkpt><trkpt lat="42.9656315" lon="11.8993552"><ele>351.0</ele><time>2026-04-09T11:49:48.416Z</time></trkpt><trkpt lat="42.9656816" lon="11.8992463"><ele>351.20000000000005</ele><time>2026-04-09T11:49:49.425Z</time></trkpt><trkpt lat="42.9657217" lon="11.8991483"><ele>351.40000000000003</ele><time>2026-04-09T11:49:50.417Z</time></trkpt><trkpt lat="42.9657657" lon="11.8990432"><ele>351.6</ele><time>2026-04-09T11:49:51.441Z</time></trkpt><trkpt lat="42.9658079" lon="11.8989349"><ele>351.8</ele><time>2026-04-09T11:49:52.422Z</time></trkpt><trkpt lat="42.9658551" lon="11.8988255"><ele>352.0</ele><time>2026-04-09T11:49:53.441Z</time></trkpt><trkpt lat="42.9659011" lon="11.8987069"><ele>352.20000000000005</ele><time>2026-04-09T11:49:54.42Z</time></trkpt><trkpt lat="42.9659462" lon="11.8985848"><ele>352.4</ele><time>2026-04-09T11:49:55.422Z</time></trkpt><trkpt lat="42.965995" lon="11.8984684"><ele>352.6</ele><time>2026-04-09T11:49:56.423Z</time></trkpt><trkpt lat="42.9660415" lon="11.8983478"><ele>352.79999999999995</ele><time>2026-04-09T11:49:57.417Z</time></trkpt><trkpt lat="42.9661012" lon="11.8982126"><ele>353.0</ele><time>2026-04-09T11:49:58.419Z</time></trkpt><trkpt lat="42.9661638" lon="11.8980747"><ele>352.25</ele><time>2026-04-09T11:49:59.41Z</time></trkpt><trkpt lat="42.9662199" lon="11.8979345"><ele>351.5</ele><time>2026-04-09T11:50:00.416Z</time></trkpt><trkpt lat="42.9662777" lon="11.8977825"><ele>350.75</ele><time>2026-04-09T11:50:01.425Z</time></trkpt><trkpt lat="42.9663395" lon="11.8976324"><ele>350.0</ele><time>2026-04-09T11:50:02.417Z</time></trkpt><trkpt lat="42.9664044" lon="11.8974789"><ele>352.0</ele><time>2026-04-09T11:50:03.422Z</time></trkpt><trkpt lat="42.966466" lon="11.8973135"><ele>354.0</ele><time>2026-04-09T11:50:04.42Z</time></trkpt><trkpt lat="42.9665332" lon="11.8971686"><ele>356.0</ele><time>2026-04-09T11:50:05.526Z</time></trkpt><trkpt lat="42.9666548" lon="11.8968821"><ele>357.5</ele><time>2026-04-09T11:50:07.422Z</time></trkpt><trkpt lat="42.9667173" lon="11.8967247"><ele>359.0</ele><time>2026-04-09T11:50:08.421Z</time></trkpt><trkpt lat="42.9667883" lon="11.8965499"><ele>360.5</ele><time>2026-04-09T11:50:09.422Z</time></trkpt><trkpt lat="42.9668716" lon="11.8963447"><ele>362.0</ele><time>2026-04-09T11:50:10.423Z</time></trkpt><trkpt lat="42.9669393" lon="11.8961898"><ele>362.0</ele><time>2026-04-09T11:50:11.426Z</time></trkpt><trkpt lat="42.9669898" lon="11.8960439"><ele>362.0</ele><time>2026-04-09T11:50:12.415Z</time></trkpt><trkpt lat="42.967035" lon="11.8959134"><ele>362.0</ele><time>2026-04-09T11:50:13.421Z</time></trkpt><trkpt lat="42.9670898" lon="11.8957791"><ele>362.0</ele><time>2026-04-09T11:50:14.419Z</time></trkpt><trkpt lat="42.9671548" lon="11.8956449"><ele>363.40000000000003</ele><time>2026-04-09T11:50:15.445Z</time></trkpt><trkpt lat="42.9672039" lon="11.8955648"><ele>364.8</ele><time>2026-04-09T11:50:16.43Z</time></trkpt><trkpt lat="42.967252" lon="11.8954533"><ele>366.2</ele><time>2026-04-09T11:50:17.422Z</time></trkpt><trkpt lat="42.9673041" lon="11.8953343"><ele>367.6</ele><time>2026-04-09T11:50:18.415Z</time></trkpt><trkpt lat="42.9673536" lon="11.8952003"><ele>369.0</ele><time>2026-04-09T11:50:19.414Z</time></trkpt><trkpt lat="42.9673957" lon="11.8950676"><ele>369.0</ele><time>2026-04-09T11:50:20.415Z</time></trkpt><trkpt lat="42.9674412" lon="11.8949227"><ele>369.0</ele><time>2026-04-09T11:50:21.418Z</time></trkpt><trkpt lat="42.9674994" lon="11.8947625"><ele>369.0</ele><time>2026-04-09T11:50:22.413Z</time></trkpt><trkpt lat="42.9675638" lon="11.8946161"><ele>369.0</ele><time>2026-04-09T11:50:23.426Z</time></trkpt><trkpt lat="42.9676272" lon="11.8944736"><ele>366.25</ele><time>2026-04-09T11:50:24.428Z</time></trkpt><trkpt lat="42.9676882" lon="11.894316"><ele>363.5</ele><time>2026-04-09T11:50:25.422Z</time></trkpt><trkpt lat="42.9677517" lon="11.8941571"><ele>360.75</ele><time>2026-04-09T11:50:26.429Z</time></trkpt><trkpt lat="42.9678065" lon="11.8939958"><ele>358.0</ele><time>2026-04-09T11:50:27.437Z</time></trkpt><trkpt lat="42.967865" lon="11.8938439"><ele>358.0</ele><time>2026-04-09T11:50:28.43Z</time></trkpt><trkpt lat="42.9679365" lon="11.8936788"><ele>358.0</ele><time>2026-04-09T11:50:29.424Z</time></trkpt><trkpt lat="42.9680193" lon="11.8934965"><ele>358.0</ele><time>2026-04-09T11:50:30.428Z</time></trkpt><trkpt lat="42.9680915" lon="11.8933146"><ele>358.0</ele><time>2026-04-09T11:50:31.433Z</time></trkpt><trkpt lat="42.968149" lon="11.8931719"><ele>358.0</ele><time>2026-04-09T11:50:32.432Z</time></trkpt><trkpt lat="42.9682098" lon="11.8930219"><ele>358.0</ele><time>2026-04-09T11:50:33.427Z</time></trkpt><trkpt lat="42.9682801" lon="11.892915"><ele>358.0</ele><time>2026-04-09T11:50:34.429Z</time></trkpt><trkpt lat="42.9683653" lon="11.8928253"><ele>358.0</ele><time>2026-04-09T11:50:35.423Z</time></trkpt><trkpt lat="42.9684359" lon="11.8927385"><ele>358.0</ele><time>2026-04-09T11:50:36.42Z</time></trkpt><trkpt lat="42.9684974" lon="11.8926677"><ele>358.0</ele><time>2026-04-09T11:50:37.421Z</time></trkpt><trkpt lat="42.9685823" lon="11.8925898"><ele>358.0</ele><time>2026-04-09T11:50:38.424Z</time></trkpt><trkpt lat="42.9686823" lon="11.8925015"><ele>358.0</ele><time>2026-04-09T11:50:39.424Z</time></trkpt><trkpt lat="42.9688028" lon="11.8923894"><ele>358.0</ele><time>2026-04-09T11:50:40.428Z</time></trkpt><trkpt lat="42.9689211" lon="11.8922618"><ele>359.0</ele><time>2026-04-09T11:50:41.429Z</time></trkpt><trkpt lat="42.9690397" lon="11.8921414"><ele>360.0</ele><time>2026-04-09T11:50:42.428Z</time></trkpt><trkpt lat="42.9691346" lon="11.8919955"><ele>361.0</ele><time>2026-04-09T11:50:43.429Z</time></trkpt><trkpt lat="42.9692151" lon="11.8918112"><ele>362.0</ele><time>2026-04-09T11:50:44.428Z</time></trkpt><trkpt lat="42.9692835" lon="11.8916068"><ele>362.0</ele><time>2026-04-09T11:50:45.429Z</time></trkpt><trkpt lat="42.9693614" lon="11.8914277"><ele>362.0</ele><time>2026-04-09T11:50:46.426Z</time></trkpt><trkpt lat="42.9694449" lon="11.8912474"><ele>362.0</ele><time>2026-04-09T11:50:47.431Z</time></trkpt><trkpt lat="42.9695162" lon="11.8910316"><ele>363.5</ele><time>2026-04-09T11:50:48.421Z</time></trkpt><trkpt lat="42.969596" lon="11.8908485"><ele>365.0</ele><time>2026-04-09T11:50:49.422Z</time></trkpt><trkpt lat="42.9696775" lon="11.8906782"><ele>366.5</ele><time>2026-04-09T11:50:50.424Z</time></trkpt><trkpt lat="42.9697327" lon="11.8905173"><ele>368.0</ele><time>2026-04-09T11:50:51.422Z</time></trkpt><trkpt lat="42.9697773" lon="11.890372"><ele>368.0</ele><time>2026-04-09T11:50:52.427Z</time></trkpt><trkpt lat="42.9698061" lon="11.890236"><ele>368.0</ele><time>2026-04-09T11:50:53.408Z</time></trkpt><trkpt lat="42.9698509" lon="11.8901119"><ele>368.0</ele><time>2026-04-09T11:50:54.42Z</time></trkpt><trkpt lat="42.9698818" lon="11.8900015"><ele>368.0</ele><time>2026-04-09T11:50:55.425Z</time></trkpt><trkpt lat="42.9699183" lon="11.8898577"><ele>368.0</ele><time>2026-04-09T11:50:56.418Z</time></trkpt><trkpt lat="42.9699337" lon="11.8897379"><ele>368.75</ele><time>2026-04-09T11:50:57.423Z</time></trkpt><trkpt lat="42.969974" lon="11.8896073"><ele>369.5</ele><time>2026-04-09T11:50:58.421Z</time></trkpt><trkpt lat="42.9700407" lon="11.8895221"><ele>370.25</ele><time>2026-04-09T11:50:59.578Z</time></trkpt><trkpt lat="42.9702468" lon="11.8893613"><ele>371.0</ele><time>2026-04-09T11:51:01.413Z</time></trkpt><trkpt lat="42.9703729" lon="11.8893476"><ele>365.6666666666667</ele><time>2026-04-09T11:51:02.418Z</time></trkpt><trkpt lat="42.9705027" lon="11.889361"><ele>360.3333333333333</ele><time>2026-04-09T11:51:03.406Z</time></trkpt><trkpt lat="42.970664" lon="11.8894153"><ele>355.0</ele><time>2026-04-09T11:51:04.412Z</time></trkpt><trkpt lat="42.9709061" lon="11.8895776"><ele>354.3333333333333</ele><time>2026-04-09T11:51:05.416Z</time></trkpt><trkpt lat="42.9711231" lon="11.889701"><ele>353.6666666666667</ele><time>2026-04-09T11:51:06.408Z</time></trkpt><trkpt lat="42.9713097" lon="11.8897657"><ele>353.0</ele><time>2026-04-09T11:51:07.418Z</time></trkpt><trkpt lat="42.9714758" lon="11.8898214"><ele>353.0</ele><time>2026-04-09T11:51:08.421Z</time></trkpt><trkpt lat="42.9716208" lon="11.8898549"><ele>353.0</ele><time>2026-04-09T11:51:09.414Z</time></trkpt><trkpt lat="42.9717579" lon="11.8898981"><ele>353.0</ele><time>2026-04-09T11:51:10.448Z</time></trkpt><trkpt lat="42.9718864" lon="11.8899354"><ele>353.0</ele><time>2026-04-09T11:51:11.442Z</time></trkpt><trkpt lat="42.9720242" lon="11.8899879"><ele>352.75</ele><time>2026-04-09T11:51:12.437Z</time></trkpt><trkpt lat="42.9721863" lon="11.8900286"><ele>352.5</ele><time>2026-04-09T11:51:13.429Z</time></trkpt><trkpt lat="42.9723191" lon="11.8900757"><ele>352.25</ele><time>2026-04-09T11:51:14.427Z</time></trkpt><trkpt lat="42.972448" lon="11.8901053"><ele>352.0</ele><time>2026-04-09T11:51:15.42Z</time></trkpt><trkpt lat="42.9725679" lon="11.8901359"><ele>348.25</ele><time>2026-04-09T11:51:16.43Z</time></trkpt><trkpt lat="42.9726878" lon="11.8901754"><ele>344.5</ele><time>2026-04-09T11:51:17.433Z</time></trkpt><trkpt lat="42.972805" lon="11.8902339"><ele>340.75</ele><time>2026-04-09T11:51:18.441Z</time></trkpt><trkpt lat="42.9729313" lon="11.890357"><ele>337.0</ele><time>2026-04-09T11:51:19.432Z</time></trkpt><trkpt lat="42.9730453" lon="11.8905253"><ele>337.0</ele><time>2026-04-09T11:51:20.431Z</time></trkpt><trkpt lat="42.9731376" lon="11.8907128"><ele>337.0</ele><time>2026-04-09T11:51:21.426Z</time></trkpt><trkpt lat="42.9732213" lon="11.8908508"><ele>337.0</ele><time>2026-04-09T11:51:22.434Z</time></trkpt><trkpt lat="42.973297" lon="11.8909921"><ele>337.0</ele><time>2026-04-09T11:51:23.43Z</time></trkpt><trkpt lat="42.973374" lon="11.8911316"><ele>336.40000000000003</ele><time>2026-04-09T11:51:24.428Z</time></trkpt><trkpt lat="42.9734384" lon="11.8912653"><ele>335.8</ele><time>2026-04-09T11:51:25.42Z</time></trkpt><trkpt lat="42.9735113" lon="11.8913552"><ele>335.2</ele><time>2026-04-09T11:51:26.421Z</time></trkpt><trkpt lat="42.9736044" lon="11.8914334"><ele>334.6</ele><time>2026-04-09T11:51:27.422Z</time></trkpt><trkpt lat="42.9737096" lon="11.8914401"><ele>334.0</ele><time>2026-04-09T11:51:28.436Z</time></trkpt><trkpt lat="42.9738076" lon="11.891411"><ele>334.0</ele><time>2026-04-09T11:51:29.426Z</time></trkpt><trkpt lat="42.9739128" lon="11.8913782"><ele>334.0</ele><time>2026-04-09T11:51:30.418Z</time></trkpt><trkpt lat="42.9739806" lon="11.8913019"><ele>334.0</ele><time>2026-04-09T11:51:31.425Z</time></trkpt><trkpt lat="42.9740413" lon="11.8911949"><ele>334.0</ele><time>2026-04-09T11:51:32.421Z</time></trkpt><trkpt lat="42.9740798" lon="11.8910685"><ele>334.0</ele><time>2026-04-09T11:51:33.428Z</time></trkpt><trkpt lat="42.974085" lon="11.8909196"><ele>333.5</ele><time>2026-04-09T11:51:34.426Z</time></trkpt><trkpt lat="42.9740593" lon="11.8907513"><ele>333.0</ele><time>2026-04-09T11:51:35.429Z</time></trkpt><trkpt lat="42.9739993" lon="11.8905813"><ele>332.5</ele><time>2026-04-09T11:51:36.416Z</time></trkpt><trkpt lat="42.9739279" lon="11.890411"><ele>332.0</ele><time>2026-04-09T11:51:37.413Z</time></trkpt><trkpt lat="42.9738491" lon="11.8902206"><ele>330.6666666666667</ele><time>2026-04-09T11:51:38.421Z</time></trkpt><trkpt lat="42.9737409" lon="11.890012"><ele>329.3333333333333</ele><time>2026-04-09T11:51:39.422Z</time></trkpt><trkpt lat="42.973646" lon="11.8898357"><ele>328.0</ele><time>2026-04-09T11:51:40.412Z</time></trkpt><trkpt lat="42.9735659" lon="11.8896138"><ele>328.0</ele><time>2026-04-09T11:51:41.418Z</time></trkpt><trkpt lat="42.9735382" lon="11.8894093"><ele>328.0</ele><time>2026-04-09T11:51:42.423Z</time></trkpt><trkpt lat="42.9735405" lon="11.889224"><ele>328.0</ele><time>2026-04-09T11:51:43.419Z</time></trkpt><trkpt lat="42.9735483" lon="11.8890377"><ele>328.0</ele><time>2026-04-09T11:51:44.415Z</time></trkpt><trkpt lat="42.9736061" lon="11.8888518"><ele>328.25</ele><time>2026-04-09T11:51:45.413Z</time></trkpt><trkpt lat="42.9736851" lon="11.888709"><ele>328.5</ele><time>2026-04-09T11:51:46.41Z</time></trkpt><trkpt lat="42.9737852" lon="11.8885948"><ele>328.75</ele><time>2026-04-09T11:51:47.429Z</time></trkpt><trkpt lat="42.9739149" lon="11.8884878"><ele>329.0</ele><time>2026-04-09T11:51:48.422Z</time></trkpt><trkpt lat="42.9740757" lon="11.8884217"><ele>328.25</ele><time>2026-04-09T11:51:49.436Z</time></trkpt><trkpt lat="42.9742348" lon="11.8884006"><ele>327.5</ele><time>2026-04-09T11:51:50.445Z</time></trkpt><trkpt lat="42.9743759" lon="11.8883358"><ele>326.75</ele><time>2026-04-09T11:51:51.425Z</time></trkpt><trkpt lat="42.9745138" lon="11.888351"><ele>326.0</ele><time>2026-04-09T11:51:52.419Z</time></trkpt><trkpt lat="42.9746697" lon="11.8884351"><ele>325.33333333333337</ele><time>2026-04-09T11:51:53.418Z</time></trkpt><trkpt lat="42.9748716" lon="11.888545"><ele>324.6666666666667</ele><time>2026-04-09T11:51:54.415Z</time></trkpt><trkpt lat="42.9750769" lon="11.8886355"><ele>324.0</ele><time>2026-04-09T11:51:55.411Z</time></trkpt><trkpt lat="42.9752828" lon="11.8887258"><ele>323.0</ele><time>2026-04-09T11:51:56.433Z</time></trkpt><trkpt lat="42.9754712" lon="11.8888339"><ele>322.0</ele><time>2026-04-09T11:51:57.417Z</time></trkpt><trkpt lat="42.9756468" lon="11.8889332"><ele>321.0</ele><time>2026-04-09T11:51:58.419Z</time></trkpt><trkpt lat="42.9757946" lon="11.8890231"><ele>321.25</ele><time>2026-04-09T11:51:59.42Z</time></trkpt><trkpt lat="42.9759475" lon="11.8890916"><ele>321.5</ele><time>2026-04-09T11:52:00.413Z</time></trkpt><trkpt lat="42.9760811" lon="11.8891335"><ele>321.75</ele><time>2026-04-09T11:52:01.415Z</time></trkpt><trkpt lat="42.9761833" lon="11.8891697"><ele>322.0</ele><time>2026-04-09T11:52:02.437Z</time></trkpt><trkpt lat="42.9762948" lon="11.889129"><ele>322.0</ele><time>2026-04-09T11:52:03.44Z</time></trkpt><trkpt lat="42.9764692" lon="11.8890084"><ele>322.0</ele><time>2026-04-09T11:52:04.449Z</time></trkpt><trkpt lat="42.9766084" lon="11.8888458"><ele>322.0</ele><time>2026-04-09T11:52:05.425Z</time></trkpt><trkpt lat="42.9767269" lon="11.8887014"><ele>322.3333333333333</ele><time>2026-04-09T11:52:06.427Z</time></trkpt><trkpt lat="42.9768681" lon="11.8885889"><ele>322.6666666666667</ele><time>2026-04-09T11:52:07.428Z</time></trkpt><trkpt lat="42.9769982" lon="11.8884897"><ele>323.0</ele><time>2026-04-09T11:52:08.43Z</time></trkpt><trkpt lat="42.977141" lon="11.8884031"><ele>325.33333333333337</ele><time>2026-04-09T11:52:09.446Z</time></trkpt><trkpt lat="42.9772892" lon="11.8883565"><ele>327.6666666666667</ele><time>2026-04-09T11:52:10.448Z</time></trkpt><trkpt lat="42.9774603" lon="11.8883392"><ele>330.0</ele><time>2026-04-09T11:52:11.451Z</time></trkpt><trkpt lat="42.977611" lon="11.8883677"><ele>331.0</ele><time>2026-04-09T11:52:12.448Z</time></trkpt><trkpt lat="42.977752" lon="11.8884846"><ele>332.0</ele><time>2026-04-09T11:52:13.427Z</time></trkpt><trkpt lat="42.9778955" lon="11.888661"><ele>333.0</ele><time>2026-04-09T11:52:14.424Z</time></trkpt><trkpt lat="42.9780415" lon="11.8888299"><ele>333.0</ele><time>2026-04-09T11:52:15.418Z</time></trkpt><trkpt lat="42.9781551" lon="11.8889638"><ele>333.0</ele><time>2026-04-09T11:52:16.425Z</time></trkpt><trkpt lat="42.9782647" lon="11.8890795"><ele>333.0</ele><time>2026-04-09T11:52:17.419Z</time></trkpt><trkpt lat="42.9783686" lon="11.8891588"><ele>333.0</ele><time>2026-04-09T11:52:18.466Z</time></trkpt><trkpt lat="42.9785009" lon="11.8891759"><ele>336.0</ele><time>2026-04-09T11:52:19.416Z</time></trkpt><trkpt lat="42.9786265" lon="11.8891325"><ele>339.0</ele><time>2026-04-09T11:52:20.426Z</time></trkpt><trkpt lat="42.9787383" lon="11.8890103"><ele>342.0</ele><time>2026-04-09T11:52:21.418Z</time></trkpt><trkpt lat="42.9788469" lon="11.8888856"><ele>345.0</ele><time>2026-04-09T11:52:22.42Z</time></trkpt><trkpt lat="42.9788995" lon="11.8887178"><ele>345.0</ele><time>2026-04-09T11:52:23.416Z</time></trkpt><trkpt lat="42.9789013" lon="11.888527"><ele>345.0</ele><time>2026-04-09T11:52:24.424Z</time></trkpt><trkpt lat="42.9788618" lon="11.8883611"><ele>345.0</ele><time>2026-04-09T11:52:25.421Z</time></trkpt><trkpt lat="42.978778" lon="11.8881982"><ele>345.0</ele><time>2026-04-09T11:52:26.421Z</time></trkpt><trkpt lat="42.9786874" lon="11.8880281"><ele>346.3333333333333</ele><time>2026-04-09T11:52:27.434Z</time></trkpt><trkpt lat="42.9785274" lon="11.8878474"><ele>347.66666666666663</ele><time>2026-04-09T11:52:28.429Z</time></trkpt><trkpt lat="42.9784086" lon="11.8877305"><ele>349.0</ele><time>2026-04-09T11:52:29.414Z</time></trkpt><trkpt lat="42.978301" lon="11.8876027"><ele>349.25</ele><time>2026-04-09T11:52:30.417Z</time></trkpt><trkpt lat="42.978214" lon="11.8874896"><ele>349.5</ele><time>2026-04-09T11:52:31.424Z</time></trkpt><trkpt lat="42.9781374" lon="11.8873457"><ele>349.75</ele><time>2026-04-09T11:52:32.422Z</time></trkpt><trkpt lat="42.9780518" lon="11.8871976"><ele>350.0</ele><time>2026-04-09T11:52:33.418Z</time></trkpt><trkpt lat="42.9779808" lon="11.887039"><ele>350.0</ele><time>2026-04-09T11:52:34.421Z</time></trkpt><trkpt lat="42.977947" lon="11.8868728"><ele>350.0</ele><time>2026-04-09T11:52:35.416Z</time></trkpt><trkpt lat="42.9779647" lon="11.8867282"><ele>350.0</ele><time>2026-04-09T11:52:36.418Z</time></trkpt><trkpt lat="42.9780194" lon="11.8865607"><ele>350.0</ele><time>2026-04-09T11:52:37.423Z</time></trkpt><trkpt lat="42.9780861" lon="11.8864209"><ele>351.0</ele><time>2026-04-09T11:52:38.417Z</time></trkpt><trkpt lat="42.9781639" lon="11.8863065"><ele>352.0</ele><time>2026-04-09T11:52:39.419Z</time></trkpt><trkpt lat="42.9782542" lon="11.8862233"><ele>353.0</ele><time>2026-04-09T11:52:40.423Z</time></trkpt><trkpt lat="42.9783371" lon="11.886172"><ele>354.0</ele><time>2026-04-09T11:52:41.418Z</time></trkpt><trkpt lat="42.9784456" lon="11.8861932"><ele>355.0</ele><time>2026-04-09T11:52:42.417Z</time></trkpt><trkpt lat="42.9785469" lon="11.8861957"><ele>360.3333333333333</ele><time>2026-04-09T11:52:43.413Z</time></trkpt><trkpt lat="42.9786744" lon="11.8862648"><ele>365.6666666666667</ele><time>2026-04-09T11:52:44.411Z</time></trkpt><trkpt lat="42.9788294" lon="11.8864334"><ele>371.0</ele><time>2026-04-09T11:52:45.423Z</time></trkpt><trkpt lat="42.9789793" lon="11.8866147"><ele>372.5</ele><time>2026-04-09T11:52:46.417Z</time></trkpt><trkpt lat="42.9791221" lon="11.8868533"><ele>374.0</ele><time>2026-04-09T11:52:47.431Z</time></trkpt><trkpt lat="42.9792871" lon="11.8871243"><ele>374.0</ele><time>2026-04-09T11:52:48.421Z</time></trkpt><trkpt lat="42.9794302" lon="11.8873698"><ele>374.0</ele><time>2026-04-09T11:52:49.429Z</time></trkpt><trkpt lat="42.9795863" lon="11.8875948"><ele>371.75</ele><time>2026-04-09T11:52:50.444Z</time></trkpt><trkpt lat="42.9797491" lon="11.8877285"><ele>369.5</ele><time>2026-04-09T11:52:51.431Z</time></trkpt><trkpt lat="42.9798663" lon="11.8877704"><ele>367.25</ele><time>2026-04-09T11:52:52.425Z</time></trkpt><trkpt lat="42.9799585" lon="11.8877247"><ele>365.0</ele><time>2026-04-09T11:52:53.426Z</time></trkpt><trkpt lat="42.980065" lon="11.8876667"><ele>372.5</ele><time>2026-04-09T11:52:54.428Z</time></trkpt><trkpt lat="42.9801306" lon="11.8875205"><ele>380.0</ele><time>2026-04-09T11:52:55.425Z</time></trkpt><trkpt lat="42.9801873" lon="11.8873332"><ele>387.5</ele><time>2026-04-09T11:52:56.421Z</time></trkpt><trkpt lat="42.9802072" lon="11.8871255"><ele>395.0</ele><time>2026-04-09T11:52:57.425Z</time></trkpt><trkpt lat="42.9802088" lon="11.8869508"><ele>395.0</ele><time>2026-04-09T11:52:58.423Z</time></trkpt><trkpt lat="42.9801835" lon="11.8867842"><ele>395.0</ele><time>2026-04-09T11:52:59.416Z</time></trkpt><trkpt lat="42.9801327" lon="11.886618"><ele>395.0</ele><time>2026-04-09T11:53:00.419Z</time></trkpt><trkpt lat="42.9800602" lon="11.8864712"><ele>395.0</ele><time>2026-04-09T11:53:01.418Z</time></trkpt><trkpt lat="42.9799666" lon="11.8863572"><ele>392.0</ele><time>2026-04-09T11:53:02.418Z</time></trkpt><trkpt lat="42.9798382" lon="11.886312"><ele>389.0</ele><time>2026-04-09T11:53:03.437Z</time></trkpt><trkpt lat="42.9797241" lon="11.8862756"><ele>386.0</ele><time>2026-04-09T11:53:04.435Z</time></trkpt><trkpt lat="42.979597" lon="11.8862398"><ele>383.0</ele><time>2026-04-09T11:53:05.426Z</time></trkpt><trkpt lat="42.9794585" lon="11.8862178"><ele>383.0</ele><time>2026-04-09T11:53:06.426Z</time></trkpt><trkpt lat="42.979351" lon="11.886154"><ele>383.0</ele><time>2026-04-09T11:53:07.421Z</time></trkpt><trkpt lat="42.9792914" lon="11.8860328"><ele>383.0</ele><time>2026-04-09T11:53:08.425Z</time></trkpt><trkpt lat="42.9792399" lon="11.8859095"><ele>383.0</ele><time>2026-04-09T11:53:09.418Z</time></trkpt><trkpt lat="42.9792178" lon="11.8857767"><ele>383.0</ele><time>2026-04-09T11:53:10.423Z</time></trkpt><trkpt lat="42.9792467" lon="11.8856096"><ele>385.5</ele><time>2026-04-09T11:53:11.423Z</time></trkpt><trkpt lat="42.9793052" lon="11.8854655"><ele>388.0</ele><time>2026-04-09T11:53:12.419Z</time></trkpt><trkpt lat="42.9793831" lon="11.8853492"><ele>390.5</ele><time>2026-04-09T11:53:13.417Z</time></trkpt><trkpt lat="42.9794831" lon="11.8852643"><ele>393.0</ele><time>2026-04-09T11:53:14.426Z</time></trkpt><trkpt lat="42.9795826" lon="11.8852199"><ele>393.0</ele><time>2026-04-09T11:53:15.419Z</time></trkpt><trkpt lat="42.9797037" lon="11.8852358"><ele>393.0</ele><time>2026-04-09T11:53:16.417Z</time></trkpt><trkpt lat="42.9798298" lon="11.8852768"><ele>393.0</ele><time>2026-04-09T11:53:17.414Z</time></trkpt><trkpt lat="42.9799751" lon="11.8853745"><ele>393.0</ele><time>2026-04-09T11:53:18.415Z</time></trkpt><trkpt lat="42.9801161" lon="11.885494"><ele>395.33333333333337</ele><time>2026-04-09T11:53:19.417Z</time></trkpt><trkpt lat="42.9802456" lon="11.8856275"><ele>397.6666666666667</ele><time>2026-04-09T11:53:20.42Z</time></trkpt><trkpt lat="42.9803546" lon="11.8858153"><ele>400.0</ele><time>2026-04-09T11:53:21.418Z</time></trkpt><trkpt lat="42.9804901" lon="11.8860333"><ele>400.0</ele><time>2026-04-09T11:53:22.42Z</time></trkpt><trkpt lat="42.9805365" lon="11.8862828"><ele>400.0</ele><time>2026-04-09T11:53:23.441Z</time></trkpt><trkpt lat="42.9805581" lon="11.8865253"><ele>400.0</ele><time>2026-04-09T11:53:24.414Z</time></trkpt><trkpt lat="42.980548" lon="11.8867479"><ele>398.33333333333337</ele><time>2026-04-09T11:53:25.419Z</time></trkpt><trkpt lat="42.9805318" lon="11.8869289"><ele>396.66666666666663</ele><time>2026-04-09T11:53:26.425Z</time></trkpt><trkpt lat="42.9805699" lon="11.8871656"><ele>395.0</ele><time>2026-04-09T11:53:27.419Z</time></trkpt><trkpt lat="42.9806214" lon="11.8874106"><ele>394.25</ele><time>2026-04-09T11:53:28.419Z</time></trkpt><trkpt lat="42.9806806" lon="11.8876065"><ele>393.5</ele><time>2026-04-09T11:53:29.423Z</time></trkpt><trkpt lat="42.9807568" lon="11.8877664"><ele>392.75</ele><time>2026-04-09T11:53:30.422Z</time></trkpt><trkpt lat="42.9808594" lon="11.8878844"><ele>392.0</ele><time>2026-04-09T11:53:31.425Z</time></trkpt><trkpt lat="42.9809765" lon="11.8879651"><ele>392.0</ele><time>2026-04-09T11:53:32.425Z</time></trkpt><trkpt lat="42.9811184" lon="11.888066"><ele>392.0</ele><time>2026-04-09T11:53:33.421Z</time></trkpt><trkpt lat="42.9813054" lon="11.8880903"><ele>392.0</ele><time>2026-04-09T11:53:34.42Z</time></trkpt><trkpt lat="42.9814633" lon="11.8881267"><ele>392.0</ele><time>2026-04-09T11:53:35.421Z</time></trkpt><trkpt lat="42.9816127" lon="11.8881163"><ele>392.0</ele><time>2026-04-09T11:53:36.42Z</time></trkpt><trkpt lat="42.9817168" lon="11.8880392"><ele>392.0</ele><time>2026-04-09T11:53:37.429Z</time></trkpt><trkpt lat="42.9818147" lon="11.8878943"><ele>392.0</ele><time>2026-04-09T11:53:38.424Z</time></trkpt><trkpt lat="42.9819028" lon="11.8877439"><ele>398.66666666666663</ele><time>2026-04-09T11:53:39.422Z</time></trkpt><trkpt lat="42.9819468" lon="11.8875335"><ele>405.33333333333337</ele><time>2026-04-09T11:53:40.427Z</time></trkpt><trkpt lat="42.9819618" lon="11.8872773"><ele>412.0</ele><time>2026-04-09T11:53:41.428Z</time></trkpt><trkpt lat="42.9819908" lon="11.8870303"><ele>412.0</ele><time>2026-04-09T11:53:42.421Z</time></trkpt><trkpt lat="42.9820215" lon="11.8867621"><ele>412.0</ele><time>2026-04-09T11:53:43.427Z</time></trkpt><trkpt lat="42.9820307" lon="11.8865592"><ele>412.0</ele><time>2026-04-09T11:53:44.428Z</time></trkpt><trkpt lat="42.9820509" lon="11.8863197"><ele>413.6666666666667</ele><time>2026-04-09T11:53:45.42Z</time></trkpt><trkpt lat="42.9820715" lon="11.8860844"><ele>415.33333333333337</ele><time>2026-04-09T11:53:46.427Z</time></trkpt><trkpt lat="42.9820836" lon="11.885858"><ele>417.0</ele><time>2026-04-09T11:53:47.418Z</time></trkpt><trkpt lat="42.982123" lon="11.885713"><ele>417.0</ele><time>2026-04-09T11:53:48.421Z</time></trkpt><trkpt lat="42.9821763" lon="11.8857724"><ele>417.0</ele><time>2026-04-09T11:53:55.427Z</time></trkpt><trkpt lat="42.9822623" lon="11.8859045"><ele>417.0</ele><time>2026-04-09T11:53:57.419Z</time></trkpt><trkpt lat="42.9823085" lon="11.8860199"><ele>417.0</ele><time>2026-04-09T11:53:58.43Z</time></trkpt><trkpt lat="42.9823616" lon="11.8861197"><ele>417.0</ele><time>2026-04-09T11:53:59.421Z</time></trkpt><trkpt lat="42.9824105" lon="11.8862125"><ele>417.0</ele><time>2026-04-09T11:54:00.416Z</time></trkpt><trkpt lat="42.9824665" lon="11.8863146"><ele>417.0</ele><time>2026-04-09T11:54:01.426Z</time></trkpt><trkpt lat="42.9825448" lon="11.8864293"><ele>417.0</ele><time>2026-04-09T11:54:02.42Z</time></trkpt><trkpt lat="42.9826227" lon="11.8865465"><ele>417.0</ele><time>2026-04-09T11:54:03.427Z</time></trkpt><trkpt lat="42.98271" lon="11.8866744"><ele>418.20000000000005</ele><time>2026-04-09T11:54:04.428Z</time></trkpt><trkpt lat="42.9827921" lon="11.8867881"><ele>419.4</ele><time>2026-04-09T11:54:05.427Z</time></trkpt><trkpt lat="42.9828659" lon="11.8868893"><ele>420.6</ele><time>2026-04-09T11:54:06.421Z</time></trkpt><trkpt lat="42.9829306" lon="11.8869716"><ele>421.79999999999995</ele><time>2026-04-09T11:54:07.434Z</time></trkpt><trkpt lat="42.9829902" lon="11.8870485"><ele>423.0</ele><time>2026-04-09T11:54:08.418Z</time></trkpt><trkpt lat="42.9830596" lon="11.8871111"><ele>423.0</ele><time>2026-04-09T11:54:09.427Z</time></trkpt><trkpt lat="42.9831431" lon="11.8871649"><ele>423.0</ele><time>2026-04-09T11:54:10.418Z</time></trkpt><trkpt lat="42.9832434" lon="11.8872105"><ele>423.0</ele><time>2026-04-09T11:54:11.424Z</time></trkpt><trkpt lat="42.9833219" lon="11.8872712"><ele>423.0</ele><time>2026-04-09T11:54:12.425Z</time></trkpt><trkpt lat="42.9833738" lon="11.8873427"><ele>423.0</ele><time>2026-04-09T11:54:13.422Z</time></trkpt><trkpt lat="42.9834062" lon="11.8874235"><ele>423.0</ele><time>2026-04-09T11:54:14.42Z</time></trkpt><trkpt lat="42.9834253" lon="11.8875146"><ele>423.4</ele><time>2026-04-09T11:54:15.43Z</time></trkpt><trkpt lat="42.983423" lon="11.8876289"><ele>423.79999999999995</ele><time>2026-04-09T11:54:16.424Z</time></trkpt><trkpt lat="42.9834234" lon="11.8877571"><ele>424.2</ele><time>2026-04-09T11:54:17.425Z</time></trkpt><trkpt lat="42.9834337" lon="11.8878822"><ele>424.6</ele><time>2026-04-09T11:54:18.43Z</time></trkpt><trkpt lat="42.9834214" lon="11.8880149"><ele>425.0</ele><time>2026-04-09T11:54:19.452Z</time></trkpt><trkpt lat="42.9834076" lon="11.888137"><ele>425.0</ele><time>2026-04-09T11:54:20.421Z</time></trkpt><trkpt lat="42.983401" lon="11.8882556"><ele>425.0</ele><time>2026-04-09T11:54:21.433Z</time></trkpt><trkpt lat="42.9834122" lon="11.8883891"><ele>425.0</ele><time>2026-04-09T11:54:22.433Z</time></trkpt><trkpt lat="42.9834448" lon="11.8885032"><ele>425.0</ele><time>2026-04-09T11:54:23.43Z</time></trkpt><trkpt lat="42.9834887" lon="11.8885833"><ele>425.0</ele><time>2026-04-09T11:54:24.422Z</time></trkpt><trkpt lat="42.9835858" lon="11.888656"><ele>423.49999999999994</ele><time>2026-04-09T11:54:26.428Z</time></trkpt><trkpt lat="42.9837251" lon="11.8886521"><ele>422.0</ele><time>2026-04-09T11:54:28.436Z</time></trkpt><trkpt lat="42.9838136" lon="11.8886182"><ele>420.5</ele><time>2026-04-09T11:54:29.426Z</time></trkpt><trkpt lat="42.9838857" lon="11.8885845"><ele>419.0</ele><time>2026-04-09T11:54:30.425Z</time></trkpt><trkpt lat="42.9839459" lon="11.8885526"><ele>417.49999999999994</ele><time>2026-04-09T11:54:31.433Z</time></trkpt><trkpt lat="42.9840131" lon="11.888523"><ele>416.0</ele><time>2026-04-09T11:54:32.429Z</time></trkpt><trkpt lat="42.9841232" lon="11.8885006"><ele>417.0</ele><time>2026-04-09T11:54:34.429Z</time></trkpt><trkpt lat="42.9841925" lon="11.888506"><ele>418.0</ele><time>2026-04-09T11:54:35.428Z</time></trkpt><trkpt lat="42.9842758" lon="11.8885371"><ele>419.0</ele><time>2026-04-09T11:54:36.432Z</time></trkpt><trkpt lat="42.9843643" lon="11.8886007"><ele>420.0</ele><time>2026-04-09T11:54:37.426Z</time></trkpt><trkpt lat="42.984464" lon="11.8886648"><ele>421.0</ele><time>2026-04-09T11:54:38.428Z</time></trkpt><trkpt lat="42.9845548" lon="11.8886964"><ele>421.0</ele><time>2026-04-09T11:54:39.43Z</time></trkpt><trkpt lat="42.984663" lon="11.8887265"><ele>421.0</ele><time>2026-04-09T11:54:40.428Z</time></trkpt><trkpt lat="42.9847773" lon="11.8887399"><ele>421.0</ele><time>2026-04-09T11:54:41.431Z</time></trkpt><trkpt lat="42.9848711" lon="11.8887425"><ele>421.0</ele><time>2026-04-09T11:54:42.429Z</time></trkpt><trkpt lat="42.9849639" lon="11.888745"><ele>421.0</ele><time>2026-04-09T11:54:44.431Z</time></trkpt><trkpt lat="42.9850114" lon="11.8888579"><ele>421.20000000000005</ele><time>2026-04-09T11:54:47.439Z</time></trkpt><trkpt lat="42.9850268" lon="11.888952"><ele>421.40000000000003</ele><time>2026-04-09T11:54:48.431Z</time></trkpt><trkpt lat="42.9850313" lon="11.8890833"><ele>421.6</ele><time>2026-04-09T11:54:49.431Z</time></trkpt><trkpt lat="42.985036" lon="11.8892448"><ele>421.8</ele><time>2026-04-09T11:54:50.429Z</time></trkpt><trkpt lat="42.9850425" lon="11.8894046"><ele>422.0</ele><time>2026-04-09T11:54:51.45Z</time></trkpt><trkpt lat="42.9850503" lon="11.8895465"><ele>421.99999999999994</ele><time>2026-04-09T11:54:52.465Z</time></trkpt><trkpt lat="42.9850527" lon="11.8896821"><ele>422.0</ele><time>2026-04-09T11:54:53.44Z</time></trkpt><trkpt lat="42.9850536" lon="11.8897982"><ele>422.0</ele><time>2026-04-09T11:54:54.433Z</time></trkpt><trkpt lat="42.9850597" lon="11.889904"><ele>422.0</ele><time>2026-04-09T11:54:55.433Z</time></trkpt><trkpt lat="42.9850791" lon="11.8899997"><ele>421.99999999999994</ele><time>2026-04-09T11:54:56.431Z</time></trkpt><trkpt lat="42.985105" lon="11.8900787"><ele>422.0</ele><time>2026-04-09T11:54:57.433Z</time></trkpt><trkpt lat="42.9851962" lon="11.8902074"><ele>420.49999999999994</ele><time>2026-04-09T11:54:59.432Z</time></trkpt><trkpt lat="42.9852772" lon="11.8903424"><ele>419.0</ele><time>2026-04-09T11:55:01.426Z</time></trkpt><trkpt lat="42.9853224" lon="11.8904073"><ele>417.5</ele><time>2026-04-09T11:55:02.43Z</time></trkpt><trkpt lat="42.9853679" lon="11.8904843"><ele>416.0</ele><time>2026-04-09T11:55:03.43Z</time></trkpt><trkpt lat="42.9854171" lon="11.8905595"><ele>414.49999999999994</ele><time>2026-04-09T11:55:04.43Z</time></trkpt><trkpt lat="42.9854764" lon="11.8906307"><ele>413.0</ele><time>2026-04-09T11:55:05.423Z</time></trkpt><trkpt lat="42.985536" lon="11.8906948"><ele>412.99999999999994</ele><time>2026-04-09T11:55:06.426Z</time></trkpt><trkpt lat="42.9855963" lon="11.8907575"><ele>413.0</ele><time>2026-04-09T11:55:07.429Z</time></trkpt><trkpt lat="42.985656" lon="11.8908333"><ele>413.0</ele><time>2026-04-09T11:55:08.421Z</time></trkpt><trkpt lat="42.9857097" lon="11.8909077"><ele>413.0</ele><time>2026-04-09T11:55:09.428Z</time></trkpt><trkpt lat="42.9857728" lon="11.8909825"><ele>412.99999999999994</ele><time>2026-04-09T11:55:10.414Z</time></trkpt><trkpt lat="42.9858406" lon="11.8910494"><ele>413.0</ele><time>2026-04-09T11:55:11.425Z</time></trkpt><trkpt lat="42.98589" lon="11.8911093"><ele>410.79999999999995</ele><time>2026-04-09T11:55:12.425Z</time></trkpt><trkpt lat="42.9859348" lon="11.891181"><ele>408.6</ele><time>2026-04-09T11:55:13.429Z</time></trkpt><trkpt lat="42.9859737" lon="11.8912573"><ele>406.4</ele><time>2026-04-09T11:55:14.428Z</time></trkpt><trkpt lat="42.9860208" lon="11.8914186"><ele>404.20000000000005</ele><time>2026-04-09T11:55:16.428Z</time></trkpt><trkpt lat="42.9860606" lon="11.8915804"><ele>402.0</ele><time>2026-04-09T11:55:18.429Z</time></trkpt><trkpt lat="42.9860903" lon="11.8916711"><ele>400.3333333333333</ele><time>2026-04-09T11:55:19.422Z</time></trkpt><trkpt lat="42.9861269" lon="11.8917602"><ele>398.66666666666663</ele><time>2026-04-09T11:55:20.417Z</time></trkpt><trkpt lat="42.9861672" lon="11.8918547"><ele>397.0</ele><time>2026-04-09T11:55:21.429Z</time></trkpt><trkpt lat="42.9862122" lon="11.8919444"><ele>395.3333333333333</ele><time>2026-04-09T11:55:22.429Z</time></trkpt><trkpt lat="42.9862596" lon="11.8920278"><ele>393.66666666666663</ele><time>2026-04-09T11:55:23.421Z</time></trkpt><trkpt lat="42.9863053" lon="11.8921063"><ele>392.0</ele><time>2026-04-09T11:55:24.432Z</time></trkpt><trkpt lat="42.9863448" lon="11.8921893"><ele>392.0</ele><time>2026-04-09T11:55:25.423Z</time></trkpt><trkpt lat="42.9863786" lon="11.8922714"><ele>392.0</ele><time>2026-04-09T11:55:26.429Z</time></trkpt><trkpt lat="42.9864065" lon="11.8923549"><ele>392.0</ele><time>2026-04-09T11:55:27.423Z</time></trkpt><trkpt lat="42.9864419" lon="11.8924279"><ele>392.0</ele><time>2026-04-09T11:55:28.427Z</time></trkpt><trkpt lat="42.9864779" lon="11.8925078"><ele>392.0</ele><time>2026-04-09T11:55:29.431Z</time></trkpt><trkpt lat="42.9865073" lon="11.8925941"><ele>392.0</ele><time>2026-04-09T11:55:30.451Z</time></trkpt><trkpt lat="42.9865307" lon="11.8926994"><ele>392.0</ele><time>2026-04-09T11:55:31.448Z</time></trkpt><trkpt lat="42.986559" lon="11.8927886"><ele>391.0</ele><time>2026-04-09T11:55:32.424Z</time></trkpt><trkpt lat="42.9865875" lon="11.892886"><ele>390.0</ele><time>2026-04-09T11:55:33.426Z</time></trkpt><trkpt lat="42.9866049" lon="11.8929749"><ele>389.0</ele><time>2026-04-09T11:55:34.424Z</time></trkpt><trkpt lat="42.9866149" lon="11.893081"><ele>388.0</ele><time>2026-04-09T11:55:35.425Z</time></trkpt><trkpt lat="42.9866302" lon="11.8931808"><ele>387.0</ele><time>2026-04-09T11:55:36.428Z</time></trkpt><trkpt lat="42.9866426" lon="11.8932733"><ele>386.0</ele><time>2026-04-09T11:55:37.423Z</time></trkpt><trkpt lat="42.9866533" lon="11.8933602"><ele>385.0</ele><time>2026-04-09T11:55:38.425Z</time></trkpt><trkpt lat="42.9866855" lon="11.8935185"><ele>383.4</ele><time>2026-04-09T11:55:40.421Z</time></trkpt><trkpt lat="42.9867163" lon="11.893671"><ele>381.8</ele><time>2026-04-09T11:55:42.422Z</time></trkpt><trkpt lat="42.9867603" lon="11.8938259"><ele>380.20000000000005</ele><time>2026-04-09T11:55:44.418Z</time></trkpt><trkpt lat="42.9867991" lon="11.8939027"><ele>378.6</ele><time>2026-04-09T11:55:45.426Z</time></trkpt><trkpt lat="42.9868366" lon="11.8939784"><ele>377.0</ele><time>2026-04-09T11:55:46.419Z</time></trkpt><trkpt lat="42.9868871" lon="11.8940981"><ele>377.0</ele><time>2026-04-09T11:55:48.419Z</time></trkpt><trkpt lat="42.9868787" lon="11.8942191"><ele>377.0</ele><time>2026-04-09T11:55:50.418Z</time></trkpt><trkpt lat="42.9868177" lon="11.8943608"><ele>377.0</ele><time>2026-04-09T11:55:52.417Z</time></trkpt><trkpt lat="42.9867717" lon="11.894485"><ele>377.0</ele><time>2026-04-09T11:55:54.422Z</time></trkpt><trkpt lat="42.9867685" lon="11.8946105"><ele>377.0</ele><time>2026-04-09T11:55:56.415Z</time></trkpt><trkpt lat="42.9868049" lon="11.894703"><ele>374.8</ele><time>2026-04-09T11:55:58.437Z</time></trkpt><trkpt lat="42.9868887" lon="11.8948026"><ele>372.6</ele><time>2026-04-09T11:56:00.428Z</time></trkpt><trkpt lat="42.9869876" lon="11.8948734"><ele>370.40000000000003</ele><time>2026-04-09T11:56:02.43Z</time></trkpt><trkpt lat="42.9870603" lon="11.8949679"><ele>368.20000000000005</ele><time>2026-04-09T11:56:04.43Z</time></trkpt><trkpt lat="42.987088" lon="11.8950946"><ele>366.0</ele><time>2026-04-09T11:56:06.424Z</time></trkpt><trkpt lat="42.9870857" lon="11.8951881"><ele>364.1666666666667</ele><time>2026-04-09T11:56:07.43Z</time></trkpt><trkpt lat="42.9870736" lon="11.8952876"><ele>362.3333333333333</ele><time>2026-04-09T11:56:08.429Z</time></trkpt><trkpt lat="42.9870707" lon="11.8954"><ele>360.5</ele><time>2026-04-09T11:56:09.426Z</time></trkpt><trkpt lat="42.9870787" lon="11.8955068"><ele>358.66666666666663</ele><time>2026-04-09T11:56:10.427Z</time></trkpt><trkpt lat="42.9870849" lon="11.895611"><ele>356.8333333333333</ele><time>2026-04-09T11:56:11.429Z</time></trkpt><trkpt lat="42.9870967" lon="11.8957084"><ele>355.0</ele><time>2026-04-09T11:56:12.432Z</time></trkpt><trkpt lat="42.9871095" lon="11.8958047"><ele>355.0</ele><time>2026-04-09T11:56:13.434Z</time></trkpt><trkpt lat="42.987117" lon="11.8958912"><ele>355.0</ele><time>2026-04-09T11:56:14.429Z</time></trkpt><trkpt lat="42.9871247" lon="11.8959792"><ele>355.0</ele><time>2026-04-09T11:56:15.422Z</time></trkpt><trkpt lat="42.9871367" lon="11.8960761"><ele>355.0</ele><time>2026-04-09T11:56:16.424Z</time></trkpt><trkpt lat="42.987216" lon="11.8962342"><ele>355.0</ele><time>2026-04-09T11:56:18.443Z</time></trkpt><trkpt lat="42.9872648" lon="11.896342"><ele>355.0</ele><time>2026-04-09T11:56:19.459Z</time></trkpt><trkpt lat="42.987307" lon="11.8964574"><ele>354.16666666666663</ele><time>2026-04-09T11:56:20.454Z</time></trkpt><trkpt lat="42.987352" lon="11.8965617"><ele>353.3333333333333</ele><time>2026-04-09T11:56:21.426Z</time></trkpt><trkpt lat="42.9873933" lon="11.8966592"><ele>352.5</ele><time>2026-04-09T11:56:22.431Z</time></trkpt><trkpt lat="42.9874275" lon="11.8967548"><ele>351.6666666666667</ele><time>2026-04-09T11:56:23.43Z</time></trkpt><trkpt lat="42.9874516" lon="11.8968537"><ele>350.83333333333337</ele><time>2026-04-09T11:56:24.419Z</time></trkpt><trkpt lat="42.9874919" lon="11.8969752"><ele>350.0</ele><time>2026-04-09T11:56:25.426Z</time></trkpt><trkpt lat="42.9875396" lon="11.8970862"><ele>350.0</ele><time>2026-04-09T11:56:26.419Z</time></trkpt><trkpt lat="42.9875853" lon="11.8971907"><ele>350.0</ele><time>2026-04-09T11:56:27.423Z</time></trkpt><trkpt lat="42.9876269" lon="11.8973027"><ele>350.0</ele><time>2026-04-09T11:56:28.423Z</time></trkpt><trkpt lat="42.9876693" lon="11.8974051"><ele>350.0</ele><time>2026-04-09T11:56:29.422Z</time></trkpt><trkpt lat="42.9877014" lon="11.8974984"><ele>350.0</ele><time>2026-04-09T11:56:30.425Z</time></trkpt><trkpt lat="42.9877333" lon="11.8975743"><ele>350.0</ele><time>2026-04-09T11:56:31.432Z</time></trkpt><trkpt lat="42.9877789" lon="11.8976556"><ele>349.33333333333337</ele><time>2026-04-09T11:56:32.427Z</time></trkpt><trkpt lat="42.9878368" lon="11.8977366"><ele>348.6666666666667</ele><time>2026-04-09T11:56:33.434Z</time></trkpt><trkpt lat="42.9878928" lon="11.8977988"><ele>348.0</ele><time>2026-04-09T11:56:34.427Z</time></trkpt><trkpt lat="42.9879552" lon="11.8978554"><ele>347.3333333333333</ele><time>2026-04-09T11:56:35.425Z</time></trkpt><trkpt lat="42.9880241" lon="11.897902"><ele>346.66666666666663</ele><time>2026-04-09T11:56:36.421Z</time></trkpt><trkpt lat="42.9880957" lon="11.8979292"><ele>346.0</ele><time>2026-04-09T11:56:37.428Z</time></trkpt><trkpt lat="42.9881848" lon="11.8979213"><ele>346.0</ele><time>2026-04-09T11:56:38.447Z</time></trkpt><trkpt lat="42.9882682" lon="11.8978966"><ele>346.0</ele><time>2026-04-09T11:56:39.428Z</time></trkpt><trkpt lat="42.9883728" lon="11.8979014"><ele>346.0</ele><time>2026-04-09T11:56:40.417Z</time></trkpt><trkpt lat="42.9884983" lon="11.8978869"><ele>346.0</ele><time>2026-04-09T11:56:41.538Z</time></trkpt><trkpt lat="42.9886273" lon="11.8978833"><ele>346.0</ele><time>2026-04-09T11:56:42.453Z</time></trkpt><trkpt lat="42.9887454" lon="11.8978759"><ele>346.8</ele><time>2026-04-09T11:56:43.454Z</time></trkpt><trkpt lat="42.9888508" lon="11.8978648"><ele>347.6</ele><time>2026-04-09T11:56:44.433Z</time></trkpt><trkpt lat="42.9889399" lon="11.8978531"><ele>348.4</ele><time>2026-04-09T11:56:45.438Z</time></trkpt><trkpt lat="42.9890248" lon="11.8978448"><ele>349.2</ele><time>2026-04-09T11:56:46.435Z</time></trkpt><trkpt lat="42.9891099" lon="11.897823"><ele>350.0</ele><time>2026-04-09T11:56:47.457Z</time></trkpt><trkpt lat="42.9891969" lon="11.8977842"><ele>350.0</ele><time>2026-04-09T11:56:48.437Z</time></trkpt><trkpt lat="42.9892937" lon="11.8977215"><ele>350.0</ele><time>2026-04-09T11:56:49.435Z</time></trkpt><trkpt lat="42.9893988" lon="11.8976543"><ele>350.0</ele><time>2026-04-09T11:56:50.433Z</time></trkpt><trkpt lat="42.9895072" lon="11.8975934"><ele>350.0</ele><time>2026-04-09T11:56:51.434Z</time></trkpt><trkpt lat="42.9896214" lon="11.8975409"><ele>351.0</ele><time>2026-04-09T11:56:52.431Z</time></trkpt><trkpt lat="42.9897714" lon="11.8974927"><ele>352.0</ele><time>2026-04-09T11:56:53.44Z</time></trkpt><trkpt lat="42.9899582" lon="11.897428"><ele>353.0</ele><time>2026-04-09T11:56:54.459Z</time></trkpt><trkpt lat="42.9901454" lon="11.8973719"><ele>353.6666666666667</ele><time>2026-04-09T11:56:55.437Z</time></trkpt><trkpt lat="42.9903473" lon="11.8973181"><ele>354.3333333333333</ele><time>2026-04-09T11:56:56.44Z</time></trkpt><trkpt lat="42.9905051" lon="11.8972623"><ele>355.0</ele><time>2026-04-09T11:56:57.441Z</time></trkpt><trkpt lat="42.9906289" lon="11.8972184"><ele>355.0</ele><time>2026-04-09T11:56:58.442Z</time></trkpt><trkpt lat="42.9907243" lon="11.8971836"><ele>355.0</ele><time>2026-04-09T11:56:59.44Z</time></trkpt><trkpt lat="42.990845" lon="11.8971332"><ele>355.0</ele><time>2026-04-09T11:57:00.44Z</time></trkpt><trkpt lat="42.9909328" lon="11.8970963"><ele>355.0</ele><time>2026-04-09T11:57:01.439Z</time></trkpt><trkpt lat="42.9910269" lon="11.897048"><ele>355.0</ele><time>2026-04-09T11:57:02.437Z</time></trkpt><trkpt lat="42.9910979" lon="11.8970248"><ele>355.0</ele><time>2026-04-09T11:57:03.439Z</time></trkpt><trkpt lat="42.9911875" lon="11.8969221"><ele>355.0</ele><time>2026-04-09T11:57:05.43Z</time></trkpt><trkpt lat="42.991258" lon="11.8968586"><ele>355.0</ele><time>2026-04-09T11:57:07.433Z</time></trkpt><trkpt lat="42.9912553" lon="11.8969506"><ele>355.0</ele><time>2026-04-09T11:57:20.428Z</time></trkpt><trkpt lat="42.9911801" lon="11.8969275"><ele>355.0</ele><time>2026-04-09T11:57:24.427Z</time></trkpt><trkpt lat="42.9912187" lon="11.8968302"><ele>355.0</ele><time>2026-04-09T11:57:27.425Z</time></trkpt><trkpt lat="42.9912922" lon="11.8966802"><ele>355.16666666666663</ele><time>2026-04-09T11:57:29.425Z</time></trkpt><trkpt lat="42.9913335" lon="11.8965888"><ele>355.3333333333333</ele><time>2026-04-09T11:57:30.427Z</time></trkpt><trkpt lat="42.9913772" lon="11.89651"><ele>355.5</ele><time>2026-04-09T11:57:31.431Z</time></trkpt><trkpt lat="42.9914444" lon="11.8964126"><ele>355.6666666666667</ele><time>2026-04-09T11:57:33.426Z</time></trkpt><trkpt lat="42.9913869" lon="11.8964649"><ele>355.83333333333337</ele><time>2026-04-09T11:57:46.438Z</time></trkpt><trkpt lat="42.9913512" lon="11.8965395"><ele>356.0</ele><time>2026-04-09T11:57:59.424Z</time></trkpt><trkpt lat="42.9914828" lon="11.896456"><ele>356.0</ele><time>2026-04-09T11:58:22.414Z</time></trkpt><trkpt lat="42.991564" lon="11.8964157"><ele>356.0</ele><time>2026-04-09T11:58:24.414Z</time></trkpt><trkpt lat="42.9916407" lon="11.8964739"><ele>356.0</ele><time>2026-04-09T11:58:27.416Z</time></trkpt><trkpt lat="42.9916937" lon="11.8965274"><ele>356.0</ele><time>2026-04-09T11:58:37.425Z</time></trkpt><trkpt lat="42.9917602" lon="11.8965598"><ele>356.0</ele><time>2026-04-09T11:58:47.425Z</time></trkpt><trkpt lat="42.9918269" lon="11.8965688"><ele>356.0</ele><time>2026-04-09T11:58:51.43Z</time></trkpt><trkpt lat="42.9919432" lon="11.8965387"><ele>356.20000000000005</ele><time>2026-04-09T11:59:04.427Z</time></trkpt><trkpt lat="42.9919509" lon="11.8967107"><ele>356.40000000000003</ele><time>2026-04-09T11:59:06.429Z</time></trkpt><trkpt lat="42.9919471" lon="11.8968184"><ele>356.6</ele><time>2026-04-09T11:59:07.43Z</time></trkpt><trkpt lat="42.9919317" lon="11.8969388"><ele>356.8</ele><time>2026-04-09T11:59:08.424Z</time></trkpt><trkpt lat="42.9919132" lon="11.8970519"><ele>357.0</ele><time>2026-04-09T11:59:09.425Z</time></trkpt><trkpt lat="42.9918986" lon="11.8971462"><ele>357.0</ele><time>2026-04-09T11:59:10.425Z</time></trkpt><trkpt lat="42.9918784" lon="11.8972344"><ele>357.0</ele><time>2026-04-09T11:59:11.427Z</time></trkpt><trkpt lat="42.991847" lon="11.897324"><ele>357.0</ele><time>2026-04-09T11:59:12.428Z</time></trkpt><trkpt lat="42.991799" lon="11.8974376"><ele>357.0</ele><time>2026-04-09T11:59:13.422Z</time></trkpt><trkpt lat="42.9917428" lon="11.8975666"><ele>357.0</ele><time>2026-04-09T11:59:14.425Z</time></trkpt><trkpt lat="42.9916929" lon="11.8977038"><ele>356.5</ele><time>2026-04-09T11:59:15.421Z</time></trkpt><trkpt lat="42.9916456" lon="11.8978468"><ele>356.0</ele><time>2026-04-09T11:59:16.423Z</time></trkpt><trkpt lat="42.9916141" lon="11.8979959"><ele>355.5</ele><time>2026-04-09T11:59:17.422Z</time></trkpt><trkpt lat="42.991601" lon="11.8981605"><ele>355.0</ele><time>2026-04-09T11:59:18.417Z</time></trkpt><trkpt lat="42.9915972" lon="11.8983271"><ele>354.4</ele><time>2026-04-09T11:59:19.43Z</time></trkpt><trkpt lat="42.9916053" lon="11.8984933"><ele>353.8</ele><time>2026-04-09T11:59:20.433Z</time></trkpt><trkpt lat="42.99162" lon="11.8986493"><ele>353.20000000000005</ele><time>2026-04-09T11:59:21.433Z</time></trkpt><trkpt lat="42.9916368" lon="11.8987974"><ele>352.6</ele><time>2026-04-09T11:59:22.41Z</time></trkpt><trkpt lat="42.9916433" lon="11.8989348"><ele>352.0</ele><time>2026-04-09T11:59:23.587Z</time></trkpt><trkpt lat="42.9916285" lon="11.8992829"><ele>351.66666666666663</ele><time>2026-04-09T11:59:25.428Z</time></trkpt><trkpt lat="42.9916168" lon="11.8994917"><ele>351.3333333333333</ele><time>2026-04-09T11:59:26.423Z</time></trkpt><trkpt lat="42.9915478" lon="11.8997808"><ele>351.0</ele><time>2026-04-09T11:59:27.43Z</time></trkpt><trkpt lat="42.9914756" lon="11.9000461"><ele>350.75</ele><time>2026-04-09T11:59:28.429Z</time></trkpt><trkpt lat="42.9914325" lon="11.9002678"><ele>350.5</ele><time>2026-04-09T11:59:29.425Z</time></trkpt><trkpt lat="42.9914202" lon="11.9004477"><ele>350.25</ele><time>2026-04-09T11:59:30.422Z</time></trkpt><trkpt lat="42.9914281" lon="11.9006181"><ele>350.0</ele><time>2026-04-09T11:59:31.433Z</time></trkpt><trkpt lat="42.9914346" lon="11.9007504"><ele>350.0</ele><time>2026-04-09T11:59:32.432Z</time></trkpt><trkpt lat="42.9914238" lon="11.9008434"><ele>350.0</ele><time>2026-04-09T11:59:33.434Z</time></trkpt><trkpt lat="42.99142" lon="11.9009768"><ele>350.0</ele><time>2026-04-09T11:59:34.425Z</time></trkpt><trkpt lat="42.9914025" lon="11.9011171"><ele>350.0</ele><time>2026-04-09T11:59:35.429Z</time></trkpt><trkpt lat="42.9913808" lon="11.9012748"><ele>350.0</ele><time>2026-04-09T11:59:36.425Z</time></trkpt><trkpt lat="42.9913782" lon="11.9014417"><ele>350.1666666666667</ele><time>2026-04-09T11:59:37.427Z</time></trkpt><trkpt lat="42.9913784" lon="11.9015951"><ele>350.33333333333337</ele><time>2026-04-09T11:59:38.43Z</time></trkpt><trkpt lat="42.9913747" lon="11.901723"><ele>350.5</ele><time>2026-04-09T11:59:39.424Z</time></trkpt><trkpt lat="42.9913681" lon="11.9018419"><ele>350.6666666666667</ele><time>2026-04-09T11:59:40.426Z</time></trkpt><trkpt lat="42.9913602" lon="11.9019441"><ele>350.8333333333333</ele><time>2026-04-09T11:59:41.433Z</time></trkpt><trkpt lat="42.9913561" lon="11.9020314"><ele>351.0</ele><time>2026-04-09T11:59:42.43Z</time></trkpt><trkpt lat="42.991392" lon="11.9021796"><ele>350.20000000000005</ele><time>2026-04-09T11:59:44.42Z</time></trkpt><trkpt lat="42.991499" lon="11.902287"><ele>349.40000000000003</ele><time>2026-04-09T11:59:46.417Z</time></trkpt><trkpt lat="42.9915712" lon="11.9023236"><ele>348.6</ele><time>2026-04-09T11:59:47.423Z</time></trkpt><trkpt lat="42.9916481" lon="11.9023593"><ele>347.8</ele><time>2026-04-09T11:59:48.42Z</time></trkpt><trkpt lat="42.9917346" lon="11.9024032"><ele>347.0</ele><time>2026-04-09T11:59:49.422Z</time></trkpt><trkpt lat="42.9918323" lon="11.90246"><ele>346.5</ele><time>2026-04-09T11:59:50.422Z</time></trkpt><trkpt lat="42.9919318" lon="11.9025178"><ele>346.0</ele><time>2026-04-09T11:59:51.421Z</time></trkpt><trkpt lat="42.9920351" lon="11.9025858"><ele>345.5</ele><time>2026-04-09T11:59:52.417Z</time></trkpt><trkpt lat="42.9921334" lon="11.9026442"><ele>345.0</ele><time>2026-04-09T11:59:53.421Z</time></trkpt><trkpt lat="42.9922452" lon="11.9027051"><ele>344.75</ele><time>2026-04-09T11:59:54.417Z</time></trkpt><trkpt lat="42.9923646" lon="11.9027665"><ele>344.5</ele><time>2026-04-09T11:59:55.416Z</time></trkpt><trkpt lat="42.9924903" lon="11.9028349"><ele>344.25</ele><time>2026-04-09T11:59:56.42Z</time></trkpt><trkpt lat="42.9926101" lon="11.9028985"><ele>344.0</ele><time>2026-04-09T11:59:57.402Z</time></trkpt><trkpt lat="42.992711" lon="11.9029458"><ele>344.0</ele><time>2026-04-09T11:59:58.407Z</time></trkpt><trkpt lat="42.9927854" lon="11.9029866"><ele>344.0</ele><time>2026-04-09T11:59:59.408Z</time></trkpt><trkpt lat="42.9928525" lon="11.9030201"><ele>344.0</ele><time>2026-04-09T12:00:00.397Z</time></trkpt><trkpt lat="42.9929296" lon="11.9030184"><ele>344.0</ele><time>2026-04-09T12:00:02.422Z</time></trkpt><trkpt lat="42.9930192" lon="11.9029347"><ele>344.0</ele><time>2026-04-09T12:00:04.398Z</time></trkpt><trkpt lat="42.9931379" lon="11.9029225"><ele>344.0</ele><time>2026-04-09T12:00:06.4Z</time></trkpt><trkpt lat="42.993245" lon="11.902975"><ele>344.0</ele><time>2026-04-09T12:00:07.399Z</time></trkpt><trkpt lat="42.9933784" lon="11.9030606"><ele>344.0</ele><time>2026-04-09T12:00:08.399Z</time></trkpt><trkpt lat="42.9934885" lon="11.9031235"><ele>344.0</ele><time>2026-04-09T12:00:09.402Z</time></trkpt><trkpt lat="42.9935659" lon="11.9032011"><ele>344.2</ele><time>2026-04-09T12:00:10.404Z</time></trkpt><trkpt lat="42.9936553" lon="11.9032429"><ele>344.4</ele><time>2026-04-09T12:00:11.407Z</time></trkpt><trkpt lat="42.9937481" lon="11.903266"><ele>344.6</ele><time>2026-04-09T12:00:12.405Z</time></trkpt><trkpt lat="42.9938452" lon="11.9032424"><ele>344.8</ele><time>2026-04-09T12:00:13.406Z</time></trkpt><trkpt lat="42.9939463" lon="11.9031903"><ele>345.0</ele><time>2026-04-09T12:00:14.409Z</time></trkpt><trkpt lat="42.9940573" lon="11.9031361"><ele>345.0</ele><time>2026-04-09T12:00:15.414Z</time></trkpt><trkpt lat="42.994151" lon="11.9030517"><ele>345.0</ele><time>2026-04-09T12:00:16.417Z</time></trkpt><trkpt lat="42.9942594" lon="11.9029476"><ele>345.0</ele><time>2026-04-09T12:00:17.421Z</time></trkpt><trkpt lat="42.9943498" lon="11.9028587"><ele>345.0</ele><time>2026-04-09T12:00:18.406Z</time></trkpt><trkpt lat="42.9944338" lon="11.9027865"><ele>344.3333333333333</ele><time>2026-04-09T12:00:19.416Z</time></trkpt><trkpt lat="42.9945178" lon="11.9027398"><ele>343.6666666666667</ele><time>2026-04-09T12:00:20.416Z</time></trkpt><trkpt lat="42.9945908" lon="11.9027127"><ele>343.0</ele><time>2026-04-09T12:00:21.412Z</time></trkpt><trkpt lat="42.9946695" lon="11.9027308"><ele>342.33333333333337</ele><time>2026-04-09T12:00:22.411Z</time></trkpt><trkpt lat="42.9947629" lon="11.9027352"><ele>341.6666666666667</ele><time>2026-04-09T12:00:23.408Z</time></trkpt><trkpt lat="42.9948669" lon="11.90275"><ele>341.0</ele><time>2026-04-09T12:00:24.431Z</time></trkpt><trkpt lat="42.9949627" lon="11.9027595"><ele>341.33333333333337</ele><time>2026-04-09T12:00:25.406Z</time></trkpt><trkpt lat="42.9950455" lon="11.9027696"><ele>341.6666666666667</ele><time>2026-04-09T12:00:26.406Z</time></trkpt><trkpt lat="42.9951126" lon="11.9027287"><ele>342.0</ele><time>2026-04-09T12:00:27.408Z</time></trkpt><trkpt lat="42.9951654" lon="11.9026575"><ele>342.3333333333333</ele><time>2026-04-09T12:00:28.407Z</time></trkpt><trkpt lat="42.9952209" lon="11.9025594"><ele>342.66666666666663</ele><time>2026-04-09T12:00:29.401Z</time></trkpt><trkpt lat="42.9952862" lon="11.9024708"><ele>343.0</ele><time>2026-04-09T12:00:30.414Z</time></trkpt><trkpt lat="42.9953594" lon="11.9023832"><ele>343.0</ele><time>2026-04-09T12:00:31.401Z</time></trkpt><trkpt lat="42.9954268" lon="11.9023066"><ele>343.0</ele><time>2026-04-09T12:00:32.41Z</time></trkpt><trkpt lat="42.9954731" lon="11.9024174"><ele>343.0</ele><time>2026-04-09T12:00:37.401Z</time></trkpt><trkpt lat="42.9954843" lon="11.9025435"><ele>343.0</ele><time>2026-04-09T12:00:39.406Z</time></trkpt><trkpt lat="42.9955449" lon="11.9026057"><ele>343.0</ele><time>2026-04-09T12:00:41.402Z</time></trkpt><trkpt lat="42.9956527" lon="11.9025266"><ele>343.0</ele><time>2026-04-09T12:00:43.406Z</time></trkpt><trkpt lat="42.9957173" lon="11.9024611"><ele>343.0</ele><time>2026-04-09T12:00:44.403Z</time></trkpt><trkpt lat="42.9957833" lon="11.9023675"><ele>343.0</ele><time>2026-04-09T12:00:45.411Z</time></trkpt><trkpt lat="42.9958463" lon="11.9022625"><ele>343.0</ele><time>2026-04-09T12:00:46.407Z</time></trkpt><trkpt lat="42.9959084" lon="11.9021851"><ele>343.0</ele><time>2026-04-09T12:00:47.404Z</time></trkpt><trkpt lat="42.9959609" lon="11.9021217"><ele>343.0</ele><time>2026-04-09T12:00:48.413Z</time></trkpt><trkpt lat="42.9960151" lon="11.90206"><ele>342.0</ele><time>2026-04-09T12:00:49.401Z</time></trkpt><trkpt lat="42.9960796" lon="11.9019917"><ele>341.0</ele><time>2026-04-09T12:00:50.402Z</time></trkpt><trkpt lat="42.9961723" lon="11.9018852"><ele>340.0</ele><time>2026-04-09T12:00:51.41Z</time></trkpt><trkpt lat="42.9962759" lon="11.9017594"><ele>339.0</ele><time>2026-04-09T12:00:52.411Z</time></trkpt><trkpt lat="42.9963629" lon="11.9016454"><ele>339.0</ele><time>2026-04-09T12:00:53.4Z</time></trkpt><trkpt lat="42.9964507" lon="11.9015325"><ele>339.0</ele><time>2026-04-09T12:00:54.402Z</time></trkpt><trkpt lat="42.9965506" lon="11.9014298"><ele>339.0</ele><time>2026-04-09T12:00:55.407Z</time></trkpt><trkpt lat="42.9966653" lon="11.901329"><ele>339.0</ele><time>2026-04-09T12:00:56.41Z</time></trkpt><trkpt lat="42.9967682" lon="11.9012175"><ele>340.0</ele><time>2026-04-09T12:00:57.403Z</time></trkpt><trkpt lat="42.9968812" lon="11.9011265"><ele>341.0</ele><time>2026-04-09T12:00:58.405Z</time></trkpt><trkpt lat="42.9970002" lon="11.9010348"><ele>342.0</ele><time>2026-04-09T12:00:59.408Z</time></trkpt><trkpt lat="42.9970918" lon="11.9009428"><ele>343.0</ele><time>2026-04-09T12:01:00.427Z</time></trkpt><trkpt lat="42.9971693" lon="11.9008631"><ele>343.0</ele><time>2026-04-09T12:01:01.426Z</time></trkpt><trkpt lat="42.9972379" lon="11.9007983"><ele>343.0</ele><time>2026-04-09T12:01:02.432Z</time></trkpt><trkpt lat="42.9973066" lon="11.9007392"><ele>343.0</ele><time>2026-04-09T12:01:03.409Z</time></trkpt><trkpt lat="42.9973715" lon="11.9006673"><ele>343.0</ele><time>2026-04-09T12:01:04.406Z</time></trkpt><trkpt lat="42.9974437" lon="11.9005899"><ele>343.0</ele><time>2026-04-09T12:01:05.413Z</time></trkpt><trkpt lat="42.997521" lon="11.9005083"><ele>343.0</ele><time>2026-04-09T12:01:06.406Z</time></trkpt><trkpt lat="42.9975865" lon="11.9004263"><ele>341.8333333333333</ele><time>2026-04-09T12:01:07.413Z</time></trkpt><trkpt lat="42.9976521" lon="11.9003588"><ele>340.66666666666663</ele><time>2026-04-09T12:01:08.413Z</time></trkpt><trkpt lat="42.997731" lon="11.9002827"><ele>339.5</ele><time>2026-04-09T12:01:09.409Z</time></trkpt><trkpt lat="42.9978115" lon="11.9002194"><ele>338.3333333333333</ele><time>2026-04-09T12:01:10.416Z</time></trkpt><trkpt lat="42.9978836" lon="11.900172"><ele>337.1666666666667</ele><time>2026-04-09T12:01:11.417Z</time></trkpt><trkpt lat="42.9979532" lon="11.9001357"><ele>336.0</ele><time>2026-04-09T12:01:12.408Z</time></trkpt><trkpt lat="42.9980331" lon="11.9000999"><ele>336.6666666666667</ele><time>2026-04-09T12:01:13.425Z</time></trkpt><trkpt lat="42.9981137" lon="11.900067"><ele>337.3333333333333</ele><time>2026-04-09T12:01:14.402Z</time></trkpt><trkpt lat="42.9982159" lon="11.900054"><ele>338.0</ele><time>2026-04-09T12:01:15.4Z</time></trkpt><trkpt lat="42.9982998" lon="11.9000314"><ele>338.66666666666663</ele><time>2026-04-09T12:01:16.397Z</time></trkpt><trkpt lat="42.9983809" lon="11.8999912"><ele>339.3333333333333</ele><time>2026-04-09T12:01:17.4Z</time></trkpt><trkpt lat="42.9984666" lon="11.8999697"><ele>340.0</ele><time>2026-04-09T12:01:18.4Z</time></trkpt><trkpt lat="42.9985508" lon="11.8999387"><ele>340.0</ele><time>2026-04-09T12:01:19.401Z</time></trkpt><trkpt lat="42.9986234" lon="11.8999183"><ele>340.0</ele><time>2026-04-09T12:01:20.406Z</time></trkpt><trkpt lat="42.9986931" lon="11.899894"><ele>340.0</ele><time>2026-04-09T12:01:21.402Z</time></trkpt><trkpt lat="42.9987555" lon="11.8998805"><ele>340.0</ele><time>2026-04-09T12:01:22.421Z</time></trkpt><trkpt lat="42.9988366" lon="11.8998469"><ele>340.0</ele><time>2026-04-09T12:01:24.402Z</time></trkpt><trkpt lat="42.9989099" lon="11.8998169"><ele>340.0</ele><time>2026-04-09T12:01:28.412Z</time></trkpt><trkpt lat="42.9989734" lon="11.8997861"><ele>340.0</ele><time>2026-04-09T12:01:32.407Z</time></trkpt><trkpt lat="42.9990448" lon="11.8997441"><ele>340.0</ele><time>2026-04-09T12:01:41.408Z</time></trkpt><trkpt lat="42.9989767" lon="11.8997683"><ele>340.0</ele><time>2026-04-09T12:02:03.415Z</time></trkpt><trkpt lat="42.9988668" lon="11.8998434"><ele>340.0</ele><time>2026-04-09T12:02:05.411Z</time></trkpt><trkpt lat="42.9987677" lon="11.8998911"><ele>340.0</ele><time>2026-04-09T12:02:07.404Z</time></trkpt><trkpt lat="42.9987071" lon="11.8999171"><ele>340.0</ele><time>2026-04-09T12:02:08.401Z</time></trkpt><trkpt lat="42.9986425" lon="11.8999469"><ele>340.0</ele><time>2026-04-09T12:02:09.427Z</time></trkpt><trkpt lat="42.9985434" lon="11.8999758"><ele>340.0</ele><time>2026-04-09T12:02:10.432Z</time></trkpt><trkpt lat="42.9984575" lon="11.8999927"><ele>340.0</ele><time>2026-04-09T12:02:11.426Z</time></trkpt><trkpt lat="42.998355" lon="11.9000319"><ele>340.0</ele><time>2026-04-09T12:02:12.409Z</time></trkpt><trkpt lat="42.9982534" lon="11.9000755"><ele>340.0</ele><time>2026-04-09T12:02:13.413Z</time></trkpt><trkpt lat="42.9981518" lon="11.9001171"><ele>340.0</ele><time>2026-04-09T12:02:14.408Z</time></trkpt><trkpt lat="42.9980499" lon="11.9001452"><ele>339.3333333333333</ele><time>2026-04-09T12:02:15.407Z</time></trkpt><trkpt lat="42.9979666" lon="11.9001814"><ele>338.66666666666663</ele><time>2026-04-09T12:02:16.407Z</time></trkpt><trkpt lat="42.9978905" lon="11.9002094"><ele>338.0</ele><time>2026-04-09T12:02:17.404Z</time></trkpt><trkpt lat="42.9978135" lon="11.9002549"><ele>337.3333333333333</ele><time>2026-04-09T12:02:18.405Z</time></trkpt><trkpt lat="42.9977351" lon="11.9002976"><ele>336.6666666666667</ele><time>2026-04-09T12:02:19.407Z</time></trkpt><trkpt lat="42.9976665" lon="11.9003398"><ele>336.0</ele><time>2026-04-09T12:02:20.41Z</time></trkpt><trkpt lat="42.99761" lon="11.9003936"><ele>336.0</ele><time>2026-04-09T12:02:22.417Z</time></trkpt><trkpt lat="42.9975714" lon="11.9004731"><ele>336.0</ele><time>2026-04-09T12:02:49.413Z</time></trkpt><trkpt lat="42.9976089" lon="11.9004021"><ele>336.0</ele><time>2026-04-09T12:03:13.421Z</time></trkpt><trkpt lat="42.9976298" lon="11.9002846"><ele>336.0</ele><time>2026-04-09T12:05:54.457Z</time></trkpt><trkpt lat="42.9976913" lon="11.9002429"><ele>336.0</ele><time>2026-04-09T12:05:56.42Z</time></trkpt><trkpt lat="42.9976264" lon="11.9003373"><ele>336.0</ele><time>2026-04-09T12:08:52.434Z</time></trkpt><trkpt lat="42.997563" lon="11.9003479"><ele>336.0</ele><time>2026-04-09T12:08:53.432Z</time></trkpt><trkpt lat="42.997455" lon="11.9003686"><ele>336.0</ele><time>2026-04-09T12:08:55.419Z</time></trkpt><trkpt lat="42.9973918" lon="11.9003831"><ele>336.0</ele><time>2026-04-09T12:10:22.442Z</time></trkpt><trkpt lat="42.9973259" lon="11.9003864"><ele>336.0</ele><time>2026-04-09T12:12:09.431Z</time></trkpt><trkpt lat="42.9973843" lon="11.9004263"><ele>336.0</ele><time>2026-04-09T12:12:19.419Z</time></trkpt><trkpt lat="42.997472" lon="11.9004882"><ele>336.0</ele><time>2026-04-09T12:12:43.436Z</time></trkpt><trkpt lat="42.9975399" lon="11.9004217"><ele>336.0</ele><time>2026-04-09T12:13:18.431Z</time></trkpt><trkpt lat="42.9975166" lon="11.9005266"><ele>336.0</ele><time>2026-04-09T12:15:38.439Z</time></trkpt><trkpt lat="42.9974673" lon="11.9005935"><ele>336.0</ele><time>2026-04-09T12:15:40.442Z</time></trkpt><trkpt lat="42.9974159" lon="11.9006794"><ele>336.0</ele><time>2026-04-09T12:15:42.445Z</time></trkpt><trkpt lat="42.9973611" lon="11.9007349"><ele>336.0</ele><time>2026-04-09T12:15:44.453Z</time></trkpt><trkpt lat="42.9974197" lon="11.9006567"><ele>336.0</ele><time>2026-04-09T12:16:05.434Z</time></trkpt><trkpt lat="42.9974761" lon="11.90061"><ele>336.0</ele><time>2026-04-09T12:16:06.433Z</time></trkpt><trkpt lat="42.9975276" lon="11.900552"><ele>336.0</ele><time>2026-04-09T12:16:07.433Z</time></trkpt><trkpt lat="42.99759" lon="11.9004739"><ele>336.0</ele><time>2026-04-09T12:16:08.434Z</time></trkpt><trkpt lat="42.9976658" lon="11.9004056"><ele>336.0</ele><time>2026-04-09T12:16:09.432Z</time></trkpt><trkpt lat="42.9977158" lon="11.9003441"><ele>336.0</ele><time>2026-04-09T12:16:10.424Z</time></trkpt><trkpt lat="42.9977775" lon="11.9002861"><ele>336.0</ele><time>2026-04-09T12:16:11.603Z</time></trkpt><trkpt lat="42.9979034" lon="11.9002269"><ele>336.0</ele><time>2026-04-09T12:16:13.434Z</time></trkpt><trkpt lat="42.997971" lon="11.9001931"><ele>336.0</ele><time>2026-04-09T12:16:14.434Z</time></trkpt><trkpt lat="42.9980381" lon="11.9001748"><ele>336.0</ele><time>2026-04-09T12:16:15.431Z</time></trkpt><trkpt lat="42.9981182" lon="11.9001641"><ele>336.0</ele><time>2026-04-09T12:16:16.431Z</time></trkpt><trkpt lat="42.9981822" lon="11.9001434"><ele>336.0</ele><time>2026-04-09T12:16:17.426Z</time></trkpt><trkpt lat="42.9982585" lon="11.9001207"><ele>336.0</ele><time>2026-04-09T12:16:18.433Z</time></trkpt><trkpt lat="42.9983341" lon="11.9000905"><ele>336.0</ele><time>2026-04-09T12:16:19.424Z</time></trkpt><trkpt lat="42.9984037" lon="11.9000581"><ele>336.8</ele><time>2026-04-09T12:16:20.437Z</time></trkpt><trkpt lat="42.9984927" lon="11.9000265"><ele>337.6</ele><time>2026-04-09T12:16:21.434Z</time></trkpt><trkpt lat="42.998582" lon="11.8999952"><ele>338.4</ele><time>2026-04-09T12:16:22.433Z</time></trkpt><trkpt lat="42.9986749" lon="11.899974"><ele>339.2</ele><time>2026-04-09T12:16:23.433Z</time></trkpt><trkpt lat="42.9987682" lon="11.8999912"><ele>340.0</ele><time>2026-04-09T12:16:24.423Z</time></trkpt><trkpt lat="42.9988504" lon="11.9000044"><ele>340.0</ele><time>2026-04-09T12:16:25.425Z</time></trkpt><trkpt lat="42.9989155" lon="11.8999904"><ele>340.0</ele><time>2026-04-09T12:16:26.452Z</time></trkpt><trkpt lat="42.9989952" lon="11.899978"><ele>340.0</ele><time>2026-04-09T12:16:28.464Z</time></trkpt><trkpt lat="42.9990862" lon="11.8999345"><ele>340.0</ele><time>2026-04-09T12:16:30.422Z</time></trkpt><trkpt lat="42.9991586" lon="11.8998144"><ele>340.0</ele><time>2026-04-09T12:16:32.436Z</time></trkpt><trkpt lat="42.9991864" lon="11.8996859"><ele>340.2</ele><time>2026-04-09T12:16:34.456Z</time></trkpt><trkpt lat="42.9992329" lon="11.8995686"><ele>340.4</ele><time>2026-04-09T12:16:36.422Z</time></trkpt><trkpt lat="42.9992907" lon="11.8995169"><ele>340.6</ele><time>2026-04-09T12:16:37.423Z</time></trkpt><trkpt lat="42.999362" lon="11.8993857"><ele>340.8</ele><time>2026-04-09T12:16:39.422Z</time></trkpt><trkpt lat="42.999474" lon="11.8992985"><ele>341.0</ele><time>2026-04-09T12:16:41.424Z</time></trkpt><trkpt lat="42.9995261" lon="11.8992383"><ele>341.0</ele><time>2026-04-09T12:16:42.434Z</time></trkpt><trkpt lat="42.9995757" lon="11.8991755"><ele>341.0</ele><time>2026-04-09T12:16:43.432Z</time></trkpt><trkpt lat="42.9996455" lon="11.8991233"><ele>341.0</ele><time>2026-04-09T12:16:44.431Z</time></trkpt><trkpt lat="42.9997091" lon="11.899067"><ele>341.0</ele><time>2026-04-09T12:16:45.429Z</time></trkpt><trkpt lat="42.999778" lon="11.899011"><ele>341.0</ele><time>2026-04-09T12:16:46.439Z</time></trkpt><trkpt lat="42.9998531" lon="11.8989507"><ele>341.0</ele><time>2026-04-09T12:16:47.435Z</time></trkpt><trkpt lat="42.9999369" lon="11.8988708"><ele>341.0</ele><time>2026-04-09T12:16:48.429Z</time></trkpt><trkpt lat="43.0000009" lon="11.8987962"><ele>341.0</ele><time>2026-04-09T12:16:49.432Z</time></trkpt><trkpt lat="43.0000552" lon="11.8987388"><ele>341.0</ele><time>2026-04-09T12:16:50.458Z</time></trkpt><trkpt lat="43.0000921" lon="11.898667"><ele>341.0</ele><time>2026-04-09T12:16:51.429Z</time></trkpt><trkpt lat="43.0001171" lon="11.8985514"><ele>341.0</ele><time>2026-04-09T12:16:53.429Z</time></trkpt><trkpt lat="43.0001516" lon="11.8984037"><ele>341.0</ele><time>2026-04-09T12:16:55.431Z</time></trkpt><trkpt lat="43.0002141" lon="11.8982835"><ele>342.4</ele><time>2026-04-09T12:16:57.433Z</time></trkpt><trkpt lat="43.0003298" lon="11.898217"><ele>343.8</ele><time>2026-04-09T12:16:59.449Z</time></trkpt><trkpt lat="43.0004469" lon="11.8981558"><ele>345.2</ele><time>2026-04-09T12:17:01.428Z</time></trkpt><trkpt lat="43.000503" lon="11.8981133"><ele>346.59999999999997</ele><time>2026-04-09T12:17:02.424Z</time></trkpt><trkpt lat="43.0005589" lon="11.8980485"><ele>348.0</ele><time>2026-04-09T12:17:03.432Z</time></trkpt><trkpt lat="43.0006089" lon="11.8979807"><ele>348.0</ele><time>2026-04-09T12:17:04.437Z</time></trkpt><trkpt lat="43.0006604" lon="11.8979185"><ele>348.0</ele><time>2026-04-09T12:17:05.429Z</time></trkpt><trkpt lat="43.0007033" lon="11.8978476"><ele>348.0</ele><time>2026-04-09T12:17:06.458Z</time></trkpt><trkpt lat="43.0007803" lon="11.8977064"><ele>348.0</ele><time>2026-04-09T12:17:08.428Z</time></trkpt><trkpt lat="43.0008362" lon="11.897628"><ele>348.0</ele><time>2026-04-09T12:17:09.433Z</time></trkpt><trkpt lat="43.0009005" lon="11.8975862"><ele>348.0</ele><time>2026-04-09T12:17:10.433Z</time></trkpt><trkpt lat="43.000964" lon="11.8975705"><ele>347.59999999999997</ele><time>2026-04-09T12:17:11.454Z</time></trkpt><trkpt lat="43.0010594" lon="11.8975341"><ele>347.2</ele><time>2026-04-09T12:17:13.437Z</time></trkpt><trkpt lat="43.0010878" lon="11.8973982"><ele>346.8</ele><time>2026-04-09T12:17:15.437Z</time></trkpt><trkpt lat="43.0011098" lon="11.8973096"><ele>346.4</ele><time>2026-04-09T12:17:16.437Z</time></trkpt><trkpt lat="43.0011218" lon="11.8972075"><ele>346.0</ele><time>2026-04-09T12:17:17.434Z</time></trkpt><trkpt lat="43.0011042" lon="11.8970619"><ele>346.0</ele><time>2026-04-09T12:17:19.46Z</time></trkpt><trkpt lat="43.0011491" lon="11.8969582"><ele>346.0</ele><time>2026-04-09T12:17:21.445Z</time></trkpt><trkpt lat="43.0012038" lon="11.8968948"><ele>346.0</ele><time>2026-04-09T12:17:24.451Z</time></trkpt><trkpt lat="43.0012734" lon="11.8968103"><ele>346.0</ele><time>2026-04-09T12:17:30.435Z</time></trkpt><trkpt lat="43.0013312" lon="11.8967684"><ele>346.0</ele><time>2026-04-09T12:17:33.429Z</time></trkpt><trkpt lat="43.0013823" lon="11.8967173"><ele>346.0</ele><time>2026-04-09T12:17:36.427Z</time></trkpt><trkpt lat="43.0014569" lon="11.8966704"><ele>346.6</ele><time>2026-04-09T12:17:40.45Z</time></trkpt><trkpt lat="43.0015206" lon="11.8965921"><ele>347.20000000000005</ele><time>2026-04-09T12:17:43.434Z</time></trkpt><trkpt lat="43.0015697" lon="11.8965241"><ele>347.79999999999995</ele><time>2026-04-09T12:17:47.433Z</time></trkpt><trkpt lat="43.0016831" lon="11.8965043"><ele>348.4</ele><time>2026-04-09T12:17:59.428Z</time></trkpt><trkpt lat="43.0017704" lon="11.8963957"><ele>349.0</ele><time>2026-04-09T12:18:01.448Z</time></trkpt><trkpt lat="43.0018869" lon="11.8963527"><ele>347.2</ele><time>2026-04-09T12:18:03.419Z</time></trkpt><trkpt lat="43.0019731" lon="11.8963228"><ele>345.4</ele><time>2026-04-09T12:18:05.427Z</time></trkpt><trkpt lat="43.0020305" lon="11.8962725"><ele>343.6</ele><time>2026-04-09T12:18:07.425Z</time></trkpt><trkpt lat="43.0021332" lon="11.8962079"><ele>341.8</ele><time>2026-04-09T12:18:09.432Z</time></trkpt><trkpt lat="43.0022449" lon="11.8961758"><ele>340.0</ele><time>2026-04-09T12:18:11.437Z</time></trkpt><trkpt lat="43.002332" lon="11.8961574"><ele>340.0</ele><time>2026-04-09T12:18:13.439Z</time></trkpt><trkpt lat="43.0024039" lon="11.896141"><ele>340.0</ele><time>2026-04-09T12:18:16.43Z</time></trkpt><trkpt lat="43.0024804" lon="11.8961206"><ele>340.0</ele><time>2026-04-09T12:18:19.425Z</time></trkpt><trkpt lat="43.0024831" lon="11.8962131"><ele>340.0</ele><time>2026-04-09T12:18:25.424Z</time></trkpt><trkpt lat="43.0023973" lon="11.8962221"><ele>340.0</ele><time>2026-04-09T12:18:27.424Z</time></trkpt><trkpt lat="43.0023036" lon="11.8962522"><ele>340.0</ele><time>2026-04-09T12:18:29.432Z</time></trkpt><trkpt lat="43.0022351" lon="11.896258"><ele>340.0</ele><time>2026-04-09T12:18:30.424Z</time></trkpt><trkpt lat="43.0021277" lon="11.8962777"><ele>340.0</ele><time>2026-04-09T12:18:32.423Z</time></trkpt><trkpt lat="43.0020401" lon="11.8963303"><ele>340.0</ele><time>2026-04-09T12:18:34.428Z</time></trkpt><trkpt lat="43.0019397" lon="11.8964162"><ele>340.0</ele><time>2026-04-09T12:18:36.448Z</time></trkpt><trkpt lat="43.0018473" lon="11.896472"><ele>340.0</ele><time>2026-04-09T12:18:38.438Z</time></trkpt><trkpt lat="43.0017744" lon="11.8965007"><ele>340.0</ele><time>2026-04-09T12:18:39.421Z</time></trkpt><trkpt lat="43.0016982" lon="11.8965109"><ele>340.0</ele><time>2026-04-09T12:18:40.441Z</time></trkpt><trkpt lat="43.0016263" lon="11.8965236"><ele>340.0</ele><time>2026-04-09T12:18:41.42Z</time></trkpt><trkpt lat="43.0015518" lon="11.8965346"><ele>340.0</ele><time>2026-04-09T12:18:43.427Z</time></trkpt><trkpt lat="43.0014889" lon="11.8966104"><ele>340.0</ele><time>2026-04-09T12:18:45.427Z</time></trkpt><trkpt lat="43.0014447" lon="11.8966779"><ele>340.0</ele><time>2026-04-09T12:18:47.424Z</time></trkpt><trkpt lat="43.0013804" lon="11.89673"><ele>340.0</ele><time>2026-04-09T12:18:49.425Z</time></trkpt><trkpt lat="43.001298" lon="11.8967718"><ele>341.0</ele><time>2026-04-09T12:18:51.428Z</time></trkpt><trkpt lat="43.0012355" lon="11.8968273"><ele>342.0</ele><time>2026-04-09T12:18:53.426Z</time></trkpt><trkpt lat="43.0012039" lon="11.8969251"><ele>343.0</ele><time>2026-04-09T12:18:56.423Z</time></trkpt><trkpt lat="43.0011686" lon="11.897008"><ele>344.0</ele><time>2026-04-09T12:18:58.416Z</time></trkpt><trkpt lat="43.0011388" lon="11.8970967"><ele>345.0</ele><time>2026-04-09T12:19:00.453Z</time></trkpt><trkpt lat="43.0010659" lon="11.8970978"><ele>346.0</ele><time>2026-04-09T12:19:02.442Z</time></trkpt><trkpt lat="43.0010086" lon="11.8970136"><ele>346.0</ele><time>2026-04-09T12:19:04.449Z</time></trkpt><trkpt lat="43.0009596" lon="11.8969213"><ele>346.0</ele><time>2026-04-09T12:19:06.438Z</time></trkpt><trkpt lat="43.000953" lon="11.8968012"><ele>346.0</ele><time>2026-04-09T12:19:08.454Z</time></trkpt><trkpt lat="43.0009991" lon="11.8966251"><ele>346.0</ele><time>2026-04-09T12:19:10.437Z</time></trkpt><trkpt lat="43.001038" lon="11.896532"><ele>346.0</ele><time>2026-04-09T12:19:11.507Z</time></trkpt><trkpt lat="43.001072" lon="11.8964546"><ele>346.6</ele><time>2026-04-09T12:19:12.455Z</time></trkpt><trkpt lat="43.0011365" lon="11.8962905"><ele>347.20000000000005</ele><time>2026-04-09T12:19:14.454Z</time></trkpt><trkpt lat="43.0011925" lon="11.8962157"><ele>347.79999999999995</ele><time>2026-04-09T12:19:15.448Z</time></trkpt><trkpt lat="43.0012246" lon="11.896131"><ele>348.4</ele><time>2026-04-09T12:19:16.435Z</time></trkpt><trkpt lat="43.0012997" lon="11.8960251"><ele>349.0</ele><time>2026-04-09T12:19:18.431Z</time></trkpt><trkpt lat="43.001376" lon="11.8959633"><ele>349.5</ele><time>2026-04-09T12:19:20.45Z</time></trkpt><trkpt lat="43.0014165" lon="11.895891"><ele>350.0</ele><time>2026-04-09T12:19:22.45Z</time></trkpt><trkpt lat="43.0015186" lon="11.895793"><ele>350.5</ele><time>2026-04-09T12:19:24.431Z</time></trkpt><trkpt lat="43.0015576" lon="11.8957129"><ele>351.0</ele><time>2026-04-09T12:19:25.434Z</time></trkpt><trkpt lat="43.0016051" lon="11.8956562"><ele>351.5</ele><time>2026-04-09T12:19:26.433Z</time></trkpt><trkpt lat="43.0016857" lon="11.895548"><ele>352.0</ele><time>2026-04-09T12:19:28.435Z</time></trkpt><trkpt lat="43.0017575" lon="11.8953726"><ele>351.6</ele><time>2026-04-09T12:19:31.423Z</time></trkpt><trkpt lat="43.0017783" lon="11.8952636"><ele>351.20000000000005</ele><time>2026-04-09T12:19:33.438Z</time></trkpt><trkpt lat="43.0018335" lon="11.8951384"><ele>350.8</ele><time>2026-04-09T12:19:35.455Z</time></trkpt><trkpt lat="43.0018925" lon="11.8950006"><ele>350.4</ele><time>2026-04-09T12:19:37.429Z</time></trkpt><trkpt lat="43.0019333" lon="11.8949038"><ele>350.0</ele><time>2026-04-09T12:19:38.454Z</time></trkpt><trkpt lat="43.0019592" lon="11.894806"><ele>350.0</ele><time>2026-04-09T12:19:39.458Z</time></trkpt><trkpt lat="43.0019803" lon="11.8946498"><ele>350.0</ele><time>2026-04-09T12:19:41.459Z</time></trkpt><trkpt lat="43.0020188" lon="11.8945233"><ele>350.0</ele><time>2026-04-09T12:19:43.433Z</time></trkpt><trkpt lat="43.0020492" lon="11.8943997"><ele>350.0</ele><time>2026-04-09T12:19:45.428Z</time></trkpt><trkpt lat="43.002088" lon="11.8942747"><ele>350.0</ele><time>2026-04-09T12:19:47.43Z</time></trkpt><trkpt lat="43.0020957" lon="11.8941628"><ele>350.1666666666667</ele><time>2026-04-09T12:19:49.429Z</time></trkpt><trkpt lat="43.0021044" lon="11.8940585"><ele>350.33333333333337</ele><time>2026-04-09T12:19:52.433Z</time></trkpt><trkpt lat="43.002112" lon="11.8939658"><ele>350.5</ele><time>2026-04-09T12:19:54.426Z</time></trkpt><trkpt lat="43.0021006" lon="11.8938737"><ele>350.6666666666667</ele><time>2026-04-09T12:19:57.44Z</time></trkpt><trkpt lat="43.0020143" lon="11.8937787"><ele>350.8333333333333</ele><time>2026-04-09T12:19:59.431Z</time></trkpt><trkpt lat="43.0019335" lon="11.8936785"><ele>351.0</ele><time>2026-04-09T12:20:00.447Z</time></trkpt><trkpt lat="43.0018266" lon="11.8935355"><ele>351.0</ele><time>2026-04-09T12:20:01.462Z</time></trkpt><trkpt lat="43.0017045" lon="11.8933921"><ele>351.0</ele><time>2026-04-09T12:20:02.437Z</time></trkpt><trkpt lat="43.0015916" lon="11.8932416"><ele>351.0</ele><time>2026-04-09T12:20:03.441Z</time></trkpt><trkpt lat="43.0014151" lon="11.8930686"><ele>351.3333333333333</ele><time>2026-04-09T12:20:04.441Z</time></trkpt><trkpt lat="43.0012083" lon="11.8928978"><ele>351.66666666666663</ele><time>2026-04-09T12:20:05.435Z</time></trkpt><trkpt lat="43.0010629" lon="11.8927133"><ele>352.0</ele><time>2026-04-09T12:20:06.44Z</time></trkpt><trkpt lat="43.0009556" lon="11.8925343"><ele>352.25</ele><time>2026-04-09T12:20:07.435Z</time></trkpt><trkpt lat="43.0008822" lon="11.8924049"><ele>352.5</ele><time>2026-04-09T12:20:08.432Z</time></trkpt><trkpt lat="43.0008098" lon="11.8922255"><ele>352.75</ele><time>2026-04-09T12:20:09.427Z</time></trkpt><trkpt lat="43.0007357" lon="11.8920736"><ele>353.0</ele><time>2026-04-09T12:20:10.427Z</time></trkpt><trkpt lat="43.0006717" lon="11.8919248"><ele>353.6666666666667</ele><time>2026-04-09T12:20:11.425Z</time></trkpt><trkpt lat="43.0006233" lon="11.8918393"><ele>354.33333333333337</ele><time>2026-04-09T12:20:12.429Z</time></trkpt><trkpt lat="43.0006146" lon="11.8917452"><ele>355.0</ele><time>2026-04-09T12:20:17.427Z</time></trkpt><trkpt lat="43.0005299" lon="11.8917776"><ele>355.6666666666667</ele><time>2026-04-09T12:21:10.423Z</time></trkpt><trkpt lat="43.0004635" lon="11.8917272"><ele>356.3333333333333</ele><time>2026-04-09T12:21:12.43Z</time></trkpt><trkpt lat="43.0003755" lon="11.8916869"><ele>357.0</ele><time>2026-04-09T12:21:13.42Z</time></trkpt><trkpt lat="43.0002631" lon="11.8916443"><ele>357.0</ele><time>2026-04-09T12:21:14.432Z</time></trkpt><trkpt lat="43.0001211" lon="11.891589"><ele>357.0</ele><time>2026-04-09T12:21:15.431Z</time></trkpt><trkpt lat="42.999975" lon="11.8915453"><ele>357.0</ele><time>2026-04-09T12:21:16.43Z</time></trkpt><trkpt lat="42.9998383" lon="11.8914976"><ele>357.0</ele><time>2026-04-09T12:21:17.429Z</time></trkpt><trkpt lat="42.9996618" lon="11.8914505"><ele>357.0</ele><time>2026-04-09T12:21:18.46Z</time></trkpt><trkpt lat="42.9994309" lon="11.8913866"><ele>357.0</ele><time>2026-04-09T12:21:19.45Z</time></trkpt><trkpt lat="42.9992085" lon="11.8913137"><ele>358.3333333333333</ele><time>2026-04-09T12:21:20.429Z</time></trkpt><trkpt lat="42.9989934" lon="11.8912475"><ele>359.66666666666663</ele><time>2026-04-09T12:21:21.424Z</time></trkpt><trkpt lat="42.9988355" lon="11.8912212"><ele>361.0</ele><time>2026-04-09T12:21:22.427Z</time></trkpt><trkpt lat="42.9986669" lon="11.891246"><ele>361.0</ele><time>2026-04-09T12:21:23.426Z</time></trkpt><trkpt lat="42.9985153" lon="11.8913205"><ele>361.0</ele><time>2026-04-09T12:21:24.429Z</time></trkpt><trkpt lat="42.9983438" lon="11.8914533"><ele>361.0</ele><time>2026-04-09T12:21:25.424Z</time></trkpt><trkpt lat="42.9982329" lon="11.8915105"><ele>362.0</ele><time>2026-04-09T12:21:26.423Z</time></trkpt><trkpt lat="42.9980836" lon="11.8916444"><ele>363.0</ele><time>2026-04-09T12:21:27.432Z</time></trkpt><trkpt lat="42.9979456" lon="11.8917743"><ele>364.0</ele><time>2026-04-09T12:21:28.442Z</time></trkpt><trkpt lat="42.9978281" lon="11.8918435"><ele>364.66666666666663</ele><time>2026-04-09T12:21:29.427Z</time></trkpt><trkpt lat="42.9977492" lon="11.8919276"><ele>365.3333333333333</ele><time>2026-04-09T12:21:30.429Z</time></trkpt><trkpt lat="42.9975806" lon="11.8920106"><ele>366.0</ele><time>2026-04-09T12:21:31.421Z</time></trkpt><trkpt lat="42.9974175" lon="11.8920902"><ele>366.0</ele><time>2026-04-09T12:21:32.416Z</time></trkpt><trkpt lat="42.9972553" lon="11.8921847"><ele>366.0</ele><time>2026-04-09T12:21:33.426Z</time></trkpt><trkpt lat="42.9970434" lon="11.8921586"><ele>366.0</ele><time>2026-04-09T12:21:34.409Z</time></trkpt><trkpt lat="42.9968618" lon="11.8921253"><ele>366.0</ele><time>2026-04-09T12:21:35.425Z</time></trkpt><trkpt lat="42.9966698" lon="11.8921232"><ele>366.0</ele><time>2026-04-09T12:21:36.419Z</time></trkpt><trkpt lat="42.9965043" lon="11.8921285"><ele>366.0</ele><time>2026-04-09T12:21:37.413Z</time></trkpt><trkpt lat="42.9962761" lon="11.8920584"><ele>367.3333333333333</ele><time>2026-04-09T12:21:38.441Z</time></trkpt><trkpt lat="42.996058" lon="11.8919711"><ele>368.66666666666663</ele><time>2026-04-09T12:21:39.413Z</time></trkpt><trkpt lat="42.9958514" lon="11.8918688"><ele>370.0</ele><time>2026-04-09T12:21:40.442Z</time></trkpt><trkpt lat="42.9956595" lon="11.8918119"><ele>371.25</ele><time>2026-04-09T12:21:41.412Z</time></trkpt><trkpt lat="42.9955039" lon="11.8917928"><ele>372.5</ele><time>2026-04-09T12:21:42.425Z</time></trkpt><trkpt lat="42.9953577" lon="11.8918219"><ele>373.75</ele><time>2026-04-09T12:21:43.427Z</time></trkpt><trkpt lat="42.9952291" lon="11.8918672"><ele>375.0</ele><time>2026-04-09T12:21:44.428Z</time></trkpt><trkpt lat="42.9951402" lon="11.8919112"><ele>375.0</ele><time>2026-04-09T12:21:45.42Z</time></trkpt><trkpt lat="42.995053" lon="11.8919593"><ele>375.0</ele><time>2026-04-09T12:21:46.424Z</time></trkpt><trkpt lat="42.994907" lon="11.8919999"><ele>375.0</ele><time>2026-04-09T12:21:47.417Z</time></trkpt><trkpt lat="42.9947782" lon="11.8919906"><ele>375.0</ele><time>2026-04-09T12:21:48.424Z</time></trkpt><trkpt lat="42.994679" lon="11.891924"><ele>376.5</ele><time>2026-04-09T12:21:49.433Z</time></trkpt><trkpt lat="42.9945675" lon="11.8918451"><ele>378.0</ele><time>2026-04-09T12:21:50.43Z</time></trkpt><trkpt lat="42.9945132" lon="11.8916812"><ele>379.5</ele><time>2026-04-09T12:21:51.424Z</time></trkpt><trkpt lat="42.9945255" lon="11.8915412"><ele>381.0</ele><time>2026-04-09T12:21:52.426Z</time></trkpt><trkpt lat="42.9945297" lon="11.8913908"><ele>383.5</ele><time>2026-04-09T12:21:53.428Z</time></trkpt><trkpt lat="42.9945984" lon="11.8912836"><ele>386.0</ele><time>2026-04-09T12:21:54.404Z</time></trkpt><trkpt lat="42.9947043" lon="11.8912005"><ele>388.5</ele><time>2026-04-09T12:21:55.44Z</time></trkpt><trkpt lat="42.9948254" lon="11.8911393"><ele>391.0</ele><time>2026-04-09T12:21:56.428Z</time></trkpt><trkpt lat="42.9949883" lon="11.8911244"><ele>388.6666666666667</ele><time>2026-04-09T12:21:57.415Z</time></trkpt><trkpt lat="42.995199" lon="11.89108"><ele>386.33333333333337</ele><time>2026-04-09T12:21:58.425Z</time></trkpt><trkpt lat="42.995393" lon="11.8910501"><ele>384.0</ele><time>2026-04-09T12:21:59.42Z</time></trkpt><trkpt lat="42.995613" lon="11.891031"><ele>384.0</ele><time>2026-04-09T12:22:00.43Z</time></trkpt><trkpt lat="42.9958735" lon="11.8910589"><ele>384.0</ele><time>2026-04-09T12:22:01.432Z</time></trkpt><trkpt lat="42.9960365" lon="11.890947"><ele>384.0</ele><time>2026-04-09T12:22:02.433Z</time></trkpt><trkpt lat="42.9962069" lon="11.8908213"><ele>387.5</ele><time>2026-04-09T12:22:03.43Z</time></trkpt><trkpt lat="42.9963073" lon="11.8906874"><ele>391.0</ele><time>2026-04-09T12:22:04.432Z</time></trkpt><trkpt lat="42.9963218" lon="11.8905515"><ele>394.5</ele><time>2026-04-09T12:22:05.434Z</time></trkpt><trkpt lat="42.9963559" lon="11.8904061"><ele>398.0</ele><time>2026-04-09T12:22:06.428Z</time></trkpt><trkpt lat="42.9963659" lon="11.8902264"><ele>399.0</ele><time>2026-04-09T12:22:07.429Z</time></trkpt><trkpt lat="42.9963521" lon="11.8900613"><ele>400.0</ele><time>2026-04-09T12:22:08.425Z</time></trkpt><trkpt lat="42.9963164" lon="11.8899139"><ele>401.0</ele><time>2026-04-09T12:22:09.425Z</time></trkpt><trkpt lat="42.9962366" lon="11.8897765"><ele>402.0</ele><time>2026-04-09T12:22:10.432Z</time></trkpt><trkpt lat="42.9961126" lon="11.8896525"><ele>402.0</ele><time>2026-04-09T12:22:11.435Z</time></trkpt><trkpt lat="42.9959152" lon="11.8895114"><ele>402.0</ele><time>2026-04-09T12:22:12.423Z</time></trkpt><trkpt lat="42.9956776" lon="11.8894452"><ele>404.0</ele><time>2026-04-09T12:22:13.419Z</time></trkpt><trkpt lat="42.9954434" lon="11.8893589"><ele>406.0</ele><time>2026-04-09T12:22:14.43Z</time></trkpt><trkpt lat="42.9952649" lon="11.8892351"><ele>408.0</ele><time>2026-04-09T12:22:15.428Z</time></trkpt><trkpt lat="42.995092" lon="11.8890941"><ele>409.66666666666663</ele><time>2026-04-09T12:22:16.418Z</time></trkpt><trkpt lat="42.9949393" lon="11.8889443"><ele>411.3333333333333</ele><time>2026-04-09T12:22:17.409Z</time></trkpt><trkpt lat="42.9948572" lon="11.8887568"><ele>413.0</ele><time>2026-04-09T12:22:18.414Z</time></trkpt><trkpt lat="42.9947732" lon="11.8885623"><ele>414.0</ele><time>2026-04-09T12:22:19.416Z</time></trkpt><trkpt lat="42.9946853" lon="11.8883347"><ele>415.0</ele><time>2026-04-09T12:22:20.42Z</time></trkpt><trkpt lat="42.9945836" lon="11.8880615"><ele>416.0</ele><time>2026-04-09T12:22:21.419Z</time></trkpt><trkpt lat="42.9945032" lon="11.8877934"><ele>417.3333333333333</ele><time>2026-04-09T12:22:22.427Z</time></trkpt><trkpt lat="42.9943937" lon="11.8875258"><ele>418.66666666666663</ele><time>2026-04-09T12:22:23.426Z</time></trkpt><trkpt lat="42.9942597" lon="11.8873091"><ele>420.0</ele><time>2026-04-09T12:22:24.429Z</time></trkpt><trkpt lat="42.9941766" lon="11.8870925"><ele>421.0</ele><time>2026-04-09T12:22:25.427Z</time></trkpt><trkpt lat="42.9940892" lon="11.8868971"><ele>422.0</ele><time>2026-04-09T12:22:26.44Z</time></trkpt><trkpt lat="42.9940115" lon="11.8866844"><ele>423.0</ele><time>2026-04-09T12:22:27.429Z</time></trkpt><trkpt lat="42.9939075" lon="11.8865006"><ele>424.0</ele><time>2026-04-09T12:22:28.431Z</time></trkpt><trkpt lat="42.9938398" lon="11.8862934"><ele>425.0</ele><time>2026-04-09T12:22:29.432Z</time></trkpt><trkpt lat="42.9937676" lon="11.8860107"><ele>426.0</ele><time>2026-04-09T12:22:30.455Z</time></trkpt><trkpt lat="42.9936988" lon="11.8857321"><ele>426.66666666666663</ele><time>2026-04-09T12:22:31.425Z</time></trkpt><trkpt lat="42.9936447" lon="11.8854774"><ele>427.3333333333333</ele><time>2026-04-09T12:22:32.433Z</time></trkpt><trkpt lat="42.9936112" lon="11.885265"><ele>428.0</ele><time>2026-04-09T12:22:33.423Z</time></trkpt><trkpt lat="42.9936126" lon="11.8850709"><ele>429.0</ele><time>2026-04-09T12:22:34.433Z</time></trkpt><trkpt lat="42.9936407" lon="11.8848624"><ele>430.0</ele><time>2026-04-09T12:22:35.421Z</time></trkpt><trkpt lat="42.99371" lon="11.8846942"><ele>431.0</ele><time>2026-04-09T12:22:36.432Z</time></trkpt><trkpt lat="42.9938013" lon="11.88455"><ele>432.0</ele><time>2026-04-09T12:22:37.42Z</time></trkpt><trkpt lat="42.9939321" lon="11.8844546"><ele>432.0</ele><time>2026-04-09T12:22:38.427Z</time></trkpt><trkpt lat="42.9940677" lon="11.8843781"><ele>432.0</ele><time>2026-04-09T12:22:39.428Z</time></trkpt><trkpt lat="42.9942189" lon="11.8843588"><ele>432.0</ele><time>2026-04-09T12:22:40.425Z</time></trkpt><trkpt lat="42.9943354" lon="11.8842933"><ele>432.0</ele><time>2026-04-09T12:22:41.429Z</time></trkpt><trkpt lat="42.9944528" lon="11.8842178"><ele>433.0</ele><time>2026-04-09T12:22:42.429Z</time></trkpt><trkpt lat="42.9945443" lon="11.8841016"><ele>434.0</ele><time>2026-04-09T12:22:43.427Z</time></trkpt><trkpt lat="42.9946216" lon="11.8839197"><ele>435.0</ele><time>2026-04-09T12:22:44.425Z</time></trkpt><trkpt lat="42.9945826" lon="11.883755"><ele>436.0</ele><time>2026-04-09T12:22:45.434Z</time></trkpt><trkpt lat="42.9944869" lon="11.8836186"><ele>436.0</ele><time>2026-04-09T12:22:46.429Z</time></trkpt><trkpt lat="42.9943673" lon="11.883512"><ele>436.0</ele><time>2026-04-09T12:22:47.418Z</time></trkpt><trkpt lat="42.9942251" lon="11.8833796"><ele>436.0</ele><time>2026-04-09T12:22:48.415Z</time></trkpt><trkpt lat="42.9940723" lon="11.8832403"><ele>438.33333333333337</ele><time>2026-04-09T12:22:49.424Z</time></trkpt><trkpt lat="42.9939104" lon="11.8831049"><ele>440.66666666666663</ele><time>2026-04-09T12:22:50.424Z</time></trkpt><trkpt lat="42.9937769" lon="11.883023"><ele>443.0</ele><time>2026-04-09T12:22:51.424Z</time></trkpt><trkpt lat="42.9936048" lon="11.8829807"><ele>443.0</ele><time>2026-04-09T12:22:52.416Z</time></trkpt><trkpt lat="42.9934562" lon="11.8829607"><ele>443.0</ele><time>2026-04-09T12:22:53.425Z</time></trkpt><trkpt lat="42.9933137" lon="11.8829942"><ele>443.0</ele><time>2026-04-09T12:22:54.409Z</time></trkpt><trkpt lat="42.9931691" lon="11.8831095"><ele>442.0</ele><time>2026-04-09T12:22:55.419Z</time></trkpt><trkpt lat="42.993047" lon="11.8832839"><ele>441.0</ele><time>2026-04-09T12:22:56.414Z</time></trkpt><trkpt lat="42.9929088" lon="11.8834795"><ele>440.0</ele><time>2026-04-09T12:22:57.407Z</time></trkpt><trkpt lat="42.9927534" lon="11.8835869"><ele>440.0</ele><time>2026-04-09T12:22:58.393Z</time></trkpt><trkpt lat="42.9925995" lon="11.883733"><ele>440.0</ele><time>2026-04-09T12:22:59.405Z</time></trkpt><trkpt lat="42.992405" lon="11.8838618"><ele>440.0</ele><time>2026-04-09T12:23:00.414Z</time></trkpt><trkpt lat="42.9922183" lon="11.8839262"><ele>439.0</ele><time>2026-04-09T12:23:01.414Z</time></trkpt><trkpt lat="42.992055" lon="11.8839818"><ele>438.0</ele><time>2026-04-09T12:23:02.418Z</time></trkpt><trkpt lat="42.9919204" lon="11.884049"><ele>437.0</ele><time>2026-04-09T12:23:03.419Z</time></trkpt><trkpt lat="42.9918169" lon="11.8841695"><ele>436.0</ele><time>2026-04-09T12:23:04.423Z</time></trkpt><trkpt lat="42.9917283" lon="11.8843688"><ele>443.0</ele><time>2026-04-09T12:23:05.421Z</time></trkpt><trkpt lat="42.9916268" lon="11.884587"><ele>450.0</ele><time>2026-04-09T12:23:06.42Z</time></trkpt><trkpt lat="42.9914965" lon="11.8847674"><ele>457.0</ele><time>2026-04-09T12:23:07.425Z</time></trkpt><trkpt lat="42.991367" lon="11.8849519"><ele>453.0</ele><time>2026-04-09T12:23:08.432Z</time></trkpt><trkpt lat="42.9912472" lon="11.8851349"><ele>449.0</ele><time>2026-04-09T12:23:09.417Z</time></trkpt><trkpt lat="42.9911384" lon="11.885282"><ele>445.0</ele><time>2026-04-09T12:23:10.498Z</time></trkpt><trkpt lat="42.9910331" lon="11.8853916"><ele>445.0</ele><time>2026-04-09T12:23:11.446Z</time></trkpt><trkpt lat="42.9909082" lon="11.8854631"><ele>445.0</ele><time>2026-04-09T12:23:12.429Z</time></trkpt><trkpt lat="42.9907648" lon="11.8855255"><ele>445.0</ele><time>2026-04-09T12:23:13.423Z</time></trkpt><trkpt lat="42.9906329" lon="11.8855679"><ele>445.0</ele><time>2026-04-09T12:23:14.435Z</time></trkpt><trkpt lat="42.9905331" lon="11.8856063"><ele>449.25</ele><time>2026-04-09T12:23:15.419Z</time></trkpt><trkpt lat="42.9904111" lon="11.8856081"><ele>453.5</ele><time>2026-04-09T12:23:16.425Z</time></trkpt><trkpt lat="42.9902948" lon="11.8855951"><ele>457.75</ele><time>2026-04-09T12:23:17.43Z</time></trkpt><trkpt lat="42.990206" lon="11.8855185"><ele>462.0</ele><time>2026-04-09T12:23:18.423Z</time></trkpt><trkpt lat="42.9901325" lon="11.8853831"><ele>462.0</ele><time>2026-04-09T12:23:19.428Z</time></trkpt><trkpt lat="42.9901162" lon="11.8852155"><ele>462.0</ele><time>2026-04-09T12:23:20.422Z</time></trkpt><trkpt lat="42.9900955" lon="11.8850787"><ele>462.0</ele><time>2026-04-09T12:23:21.416Z</time></trkpt><trkpt lat="42.9901194" lon="11.88491"><ele>462.0</ele><time>2026-04-09T12:23:22.411Z</time></trkpt><trkpt lat="42.990226" lon="11.8847364"><ele>466.0</ele><time>2026-04-09T12:23:23.422Z</time></trkpt><trkpt lat="42.9903968" lon="11.8846297"><ele>470.0</ele><time>2026-04-09T12:23:24.406Z</time></trkpt><trkpt lat="42.9905429" lon="11.8844767"><ele>474.0</ele><time>2026-04-09T12:23:25.413Z</time></trkpt><trkpt lat="42.9906853" lon="11.884307"><ele>472.0</ele><time>2026-04-09T12:23:26.411Z</time></trkpt><trkpt lat="42.9908264" lon="11.8841181"><ele>470.0</ele><time>2026-04-09T12:23:27.42Z</time></trkpt><trkpt lat="42.9909356" lon="11.8839969"><ele>468.0</ele><time>2026-04-09T12:23:28.411Z</time></trkpt><trkpt lat="42.9910659" lon="11.8838652"><ele>468.0</ele><time>2026-04-09T12:23:29.419Z</time></trkpt><trkpt lat="42.99122" lon="11.8836486"><ele>468.0</ele><time>2026-04-09T12:23:30.416Z</time></trkpt><trkpt lat="42.9913566" lon="11.8834773"><ele>468.0</ele><time>2026-04-09T12:23:31.43Z</time></trkpt><trkpt lat="42.9914886" lon="11.8832651"><ele>469.0</ele><time>2026-04-09T12:23:32.413Z</time></trkpt><trkpt lat="42.9916127" lon="11.8831403"><ele>470.0</ele><time>2026-04-09T12:23:33.427Z</time></trkpt><trkpt lat="42.9917279" lon="11.8830491"><ele>471.0</ele><time>2026-04-09T12:23:34.424Z</time></trkpt><trkpt lat="42.9918355" lon="11.8829205"><ele>472.0</ele><time>2026-04-09T12:23:35.429Z</time></trkpt><trkpt lat="42.9918884" lon="11.8827961"><ele>472.0</ele><time>2026-04-09T12:23:36.435Z</time></trkpt><trkpt lat="42.9918942" lon="11.8826565"><ele>472.0</ele><time>2026-04-09T12:23:37.423Z</time></trkpt><trkpt lat="42.9918808" lon="11.8825027"><ele>472.0</ele><time>2026-04-09T12:23:38.432Z</time></trkpt><trkpt lat="42.9918512" lon="11.8823422"><ele>472.0</ele><time>2026-04-09T12:23:39.434Z</time></trkpt><trkpt lat="42.9918092" lon="11.8821591"><ele>480.33333333333337</ele><time>2026-04-09T12:23:40.422Z</time></trkpt><trkpt lat="42.9917582" lon="11.881992"><ele>488.66666666666663</ele><time>2026-04-09T12:23:41.416Z</time></trkpt><trkpt lat="42.9917203" lon="11.8817889"><ele>497.0</ele><time>2026-04-09T12:23:42.412Z</time></trkpt><trkpt lat="42.9916063" lon="11.8816096"><ele>499.3333333333333</ele><time>2026-04-09T12:23:43.411Z</time></trkpt><trkpt lat="42.991501" lon="11.8813488"><ele>501.66666666666663</ele><time>2026-04-09T12:23:44.437Z</time></trkpt><trkpt lat="42.9914165" lon="11.8811513"><ele>504.0</ele><time>2026-04-09T12:23:45.414Z</time></trkpt><trkpt lat="42.991295" lon="11.8809874"><ele>504.33333333333337</ele><time>2026-04-09T12:23:46.422Z</time></trkpt><trkpt lat="42.9912017" lon="11.8807934"><ele>504.6666666666667</ele><time>2026-04-09T12:23:47.415Z</time></trkpt><trkpt lat="42.9910928" lon="11.8805851"><ele>505.0</ele><time>2026-04-09T12:23:48.423Z</time></trkpt><trkpt lat="42.9909908" lon="11.8803506"><ele>505.0</ele><time>2026-04-09T12:23:49.426Z</time></trkpt><trkpt lat="42.9908587" lon="11.8801497"><ele>505.0</ele><time>2026-04-09T12:23:50.417Z</time></trkpt><trkpt lat="42.9907942" lon="11.8799813"><ele>505.0</ele><time>2026-04-09T12:23:51.435Z</time></trkpt><trkpt lat="42.9907328" lon="11.8797492"><ele>507.0</ele><time>2026-04-09T12:23:52.424Z</time></trkpt><trkpt lat="42.9906401" lon="11.8795489"><ele>509.0</ele><time>2026-04-09T12:23:53.431Z</time></trkpt><trkpt lat="42.9905832" lon="11.8793474"><ele>511.0</ele><time>2026-04-09T12:23:54.427Z</time></trkpt><trkpt lat="42.9905322" lon="11.8791578"><ele>512.0</ele><time>2026-04-09T12:23:55.437Z</time></trkpt><trkpt lat="42.9905047" lon="11.878988"><ele>513.0</ele><time>2026-04-09T12:23:56.43Z</time></trkpt><trkpt lat="42.9904965" lon="11.8787497"><ele>514.0</ele><time>2026-04-09T12:23:57.434Z</time></trkpt><trkpt lat="42.9904544" lon="11.8785435"><ele>513.3333333333334</ele><time>2026-04-09T12:23:58.429Z</time></trkpt><trkpt lat="42.9903608" lon="11.8783443"><ele>512.6666666666666</ele><time>2026-04-09T12:23:59.436Z</time></trkpt><trkpt lat="42.990291" lon="11.878076"><ele>512.0</ele><time>2026-04-09T12:24:00.422Z</time></trkpt><trkpt lat="42.9902392" lon="11.877858"><ele>512.0</ele><time>2026-04-09T12:24:01.435Z</time></trkpt><trkpt lat="42.990142" lon="11.8776029"><ele>512.0</ele><time>2026-04-09T12:24:02.437Z</time></trkpt><trkpt lat="42.9900629" lon="11.877405"><ele>512.0</ele><time>2026-04-09T12:24:03.431Z</time></trkpt><trkpt lat="42.9899666" lon="11.877175"><ele>512.3333333333333</ele><time>2026-04-09T12:24:04.428Z</time></trkpt><trkpt lat="42.9898801" lon="11.8769239"><ele>512.6666666666666</ele><time>2026-04-09T12:24:05.421Z</time></trkpt><trkpt lat="42.989859" lon="11.8767282"><ele>513.0</ele><time>2026-04-09T12:24:06.419Z</time></trkpt><trkpt lat="42.9898419" lon="11.8765479"><ele>513.0</ele><time>2026-04-09T12:24:07.422Z</time></trkpt><trkpt lat="42.9897978" lon="11.8763733"><ele>513.0</ele><time>2026-04-09T12:24:08.434Z</time></trkpt><trkpt lat="42.9897609" lon="11.8762046"><ele>513.0</ele><time>2026-04-09T12:24:09.427Z</time></trkpt><trkpt lat="42.9897171" lon="11.876037"><ele>513.0</ele><time>2026-04-09T12:24:10.429Z</time></trkpt><trkpt lat="42.9896948" lon="11.8758903"><ele>513.0</ele><time>2026-04-09T12:24:11.423Z</time></trkpt><trkpt lat="42.9896811" lon="11.8757571"><ele>513.0</ele><time>2026-04-09T12:24:12.437Z</time></trkpt><trkpt lat="42.9896627" lon="11.8756374"><ele>513.0</ele><time>2026-04-09T12:24:13.435Z</time></trkpt><trkpt lat="42.9896278" lon="11.8754859"><ele>513.0</ele><time>2026-04-09T12:24:15.433Z</time></trkpt><trkpt lat="42.989603" lon="11.8754052"><ele>513.0</ele><time>2026-04-09T12:24:16.436Z</time></trkpt><trkpt lat="42.9895713" lon="11.8753104"><ele>513.0</ele><time>2026-04-09T12:24:17.434Z</time></trkpt><trkpt lat="42.9895388" lon="11.8752296"><ele>513.0</ele><time>2026-04-09T12:24:18.433Z</time></trkpt><trkpt lat="42.989474" lon="11.875163"><ele>513.0</ele><time>2026-04-09T12:24:20.44Z</time></trkpt><trkpt lat="42.9894209" lon="11.8752094"><ele>513.0</ele><time>2026-04-09T12:24:27.424Z</time></trkpt><trkpt lat="42.9894819" lon="11.8751275"><ele>513.0</ele><time>2026-04-09T12:25:03.429Z</time></trkpt><trkpt lat="42.989481" lon="11.8750271"><ele>513.0</ele><time>2026-04-09T12:25:04.435Z</time></trkpt><trkpt lat="42.9894527" lon="11.8749053"><ele>513.0</ele><time>2026-04-09T12:25:05.428Z</time></trkpt><trkpt lat="42.9894288" lon="11.874756"><ele>514.0</ele><time>2026-04-09T12:25:06.434Z</time></trkpt><trkpt lat="42.9894046" lon="11.8745719"><ele>515.0</ele><time>2026-04-09T12:25:07.435Z</time></trkpt><trkpt lat="42.9893707" lon="11.874388"><ele>516.0</ele><time>2026-04-09T12:25:08.422Z</time></trkpt><trkpt lat="42.9893369" lon="11.8742104"><ele>517.0</ele><time>2026-04-09T12:25:09.426Z</time></trkpt><trkpt lat="42.9892868" lon="11.8740225"><ele>517.2</ele><time>2026-04-09T12:25:10.428Z</time></trkpt><trkpt lat="42.9892456" lon="11.873869"><ele>517.4000000000001</ele><time>2026-04-09T12:25:11.439Z</time></trkpt><trkpt lat="42.9892023" lon="11.8737264"><ele>517.5999999999999</ele><time>2026-04-09T12:25:12.426Z</time></trkpt><trkpt lat="42.9891869" lon="11.8735806"><ele>517.8</ele><time>2026-04-09T12:25:13.443Z</time></trkpt><trkpt lat="42.9891602" lon="11.8734611"><ele>518.0</ele><time>2026-04-09T12:25:14.423Z</time></trkpt><trkpt lat="42.9891406" lon="11.8733577"><ele>518.4</ele><time>2026-04-09T12:25:15.436Z</time></trkpt><trkpt lat="42.9891022" lon="11.8732114"><ele>518.8</ele><time>2026-04-09T12:25:17.424Z</time></trkpt><trkpt lat="42.9891217" lon="11.8730859"><ele>519.2</ele><time>2026-04-09T12:25:19.431Z</time></trkpt><trkpt lat="42.9891142" lon="11.8728903"><ele>519.6</ele><time>2026-04-09T12:25:21.419Z</time></trkpt><trkpt lat="42.9890973" lon="11.8727993"><ele>520.0</ele><time>2026-04-09T12:25:22.432Z</time></trkpt><trkpt lat="42.9890356" lon="11.8726614"><ele>520.2</ele><time>2026-04-09T12:25:24.43Z</time></trkpt><trkpt lat="42.9890296" lon="11.8725593"><ele>520.4</ele><time>2026-04-09T12:25:25.437Z</time></trkpt><trkpt lat="42.9890469" lon="11.8724253"><ele>520.6</ele><time>2026-04-09T12:25:26.419Z</time></trkpt><trkpt lat="42.9890458" lon="11.8722859"><ele>520.8</ele><time>2026-04-09T12:25:27.433Z</time></trkpt><trkpt lat="42.9890448" lon="11.8721419"><ele>521.0</ele><time>2026-04-09T12:25:28.435Z</time></trkpt><trkpt lat="42.9890816" lon="11.8719903"><ele>521.0</ele><time>2026-04-09T12:25:29.426Z</time></trkpt><trkpt lat="42.9891037" lon="11.8718349"><ele>521.0</ele><time>2026-04-09T12:25:30.422Z</time></trkpt><trkpt lat="42.9891193" lon="11.8717099"><ele>521.0</ele><time>2026-04-09T12:25:31.429Z</time></trkpt><trkpt lat="42.9891312" lon="11.8715813"><ele>521.0</ele><time>2026-04-09T12:25:32.426Z</time></trkpt><trkpt lat="42.9891422" lon="11.8714204"><ele>521.0</ele><time>2026-04-09T12:25:33.416Z</time></trkpt><trkpt lat="42.9891568" lon="11.871243"><ele>521.75</ele><time>2026-04-09T12:25:34.42Z</time></trkpt><trkpt lat="42.9891524" lon="11.8710654"><ele>522.5</ele><time>2026-04-09T12:25:35.414Z</time></trkpt><trkpt lat="42.9891634" lon="11.8708721"><ele>523.25</ele><time>2026-04-09T12:25:36.429Z</time></trkpt><trkpt lat="42.9891849" lon="11.8706789"><ele>524.0</ele><time>2026-04-09T12:25:37.423Z</time></trkpt><trkpt lat="42.989195" lon="11.8704923"><ele>526.75</ele><time>2026-04-09T12:25:38.439Z</time></trkpt><trkpt lat="42.9892045" lon="11.8702946"><ele>529.5</ele><time>2026-04-09T12:25:39.441Z</time></trkpt><trkpt lat="42.9892012" lon="11.8700971"><ele>532.25</ele><time>2026-04-09T12:25:40.428Z</time></trkpt><trkpt lat="42.9892281" lon="11.8699225"><ele>535.0</ele><time>2026-04-09T12:25:41.439Z</time></trkpt><trkpt lat="42.9892224" lon="11.8697821"><ele>536.4</ele><time>2026-04-09T12:25:42.437Z</time></trkpt><trkpt lat="42.9891864" lon="11.8696387"><ele>537.8</ele><time>2026-04-09T12:25:43.418Z</time></trkpt><trkpt lat="42.9892414" lon="11.8695327"><ele>539.2</ele><time>2026-04-09T12:25:44.437Z</time></trkpt><trkpt lat="42.9892778" lon="11.8694154"><ele>540.6</ele><time>2026-04-09T12:25:45.429Z</time></trkpt><trkpt lat="42.9893156" lon="11.8692867"><ele>542.0</ele><time>2026-04-09T12:25:46.431Z</time></trkpt><trkpt lat="42.9893105" lon="11.8691526"><ele>542.4</ele><time>2026-04-09T12:25:47.455Z</time></trkpt><trkpt lat="42.9892747" lon="11.8690346"><ele>542.8000000000001</ele><time>2026-04-09T12:25:48.432Z</time></trkpt><trkpt lat="42.9892614" lon="11.868893"><ele>543.2</ele><time>2026-04-09T12:25:49.433Z</time></trkpt><trkpt lat="42.9892626" lon="11.868768"><ele>543.6</ele><time>2026-04-09T12:25:50.43Z</time></trkpt><trkpt lat="42.9892613" lon="11.8686447"><ele>544.0</ele><time>2026-04-09T12:25:51.437Z</time></trkpt><trkpt lat="42.9892404" lon="11.8685015"><ele>545.0</ele><time>2026-04-09T12:25:52.424Z</time></trkpt><trkpt lat="42.9891973" lon="11.8683711"><ele>546.0</ele><time>2026-04-09T12:25:53.44Z</time></trkpt><trkpt lat="42.9891785" lon="11.868218"><ele>547.0</ele><time>2026-04-09T12:25:54.425Z</time></trkpt><trkpt lat="42.98914" lon="11.8680817"><ele>548.0</ele><time>2026-04-09T12:25:55.431Z</time></trkpt><trkpt lat="42.98911" lon="11.8679247"><ele>549.0</ele><time>2026-04-09T12:25:56.444Z</time></trkpt><trkpt lat="42.9890904" lon="11.8677861"><ele>546.1666666666666</ele><time>2026-04-09T12:25:57.431Z</time></trkpt><trkpt lat="42.9890719" lon="11.8676527"><ele>543.3333333333334</ele><time>2026-04-09T12:25:58.437Z</time></trkpt><trkpt lat="42.9890529" lon="11.86753"><ele>540.5</ele><time>2026-04-09T12:25:59.433Z</time></trkpt><trkpt lat="42.9890377" lon="11.8673927"><ele>537.6666666666667</ele><time>2026-04-09T12:26:00.417Z</time></trkpt><trkpt lat="42.9890233" lon="11.8673075"><ele>534.8333333333334</ele><time>2026-04-09T12:26:01.436Z</time></trkpt><trkpt lat="42.9889819" lon="11.8672013"><ele>532.0</ele><time>2026-04-09T12:26:03.445Z</time></trkpt><trkpt lat="42.9889484" lon="11.8672808"><ele>531.8333333333334</ele><time>2026-04-09T12:26:12.429Z</time></trkpt><trkpt lat="42.9889403" lon="11.86737"><ele>531.6666666666667</ele><time>2026-04-09T12:26:16.428Z</time></trkpt><trkpt lat="42.9890152" lon="11.8673938"><ele>531.5</ele><time>2026-04-09T12:26:43.426Z</time></trkpt><trkpt lat="42.9891017" lon="11.867246"><ele>531.3333333333334</ele><time>2026-04-09T12:28:24.413Z</time></trkpt><trkpt lat="42.9890383" lon="11.8672187"><ele>531.1666666666666</ele><time>2026-04-09T12:28:28.418Z</time></trkpt><trkpt lat="42.9889719" lon="11.8672265"><ele>531.0</ele><time>2026-04-09T12:28:29.413Z</time></trkpt><trkpt lat="42.9888915" lon="11.8672218"><ele>531.0</ele><time>2026-04-09T12:28:35.397Z</time></trkpt><trkpt lat="42.9888286" lon="11.8672054"><ele>531.0</ele><time>2026-04-09T12:29:04.429Z</time></trkpt><trkpt lat="42.9890113" lon="11.867334"><ele>531.0</ele><time>2026-04-09T12:29:45.205Z</time></trkpt><trkpt lat="42.9885915" lon="11.8672692"><ele>531.0</ele><time>2026-04-09T12:29:49.386Z</time></trkpt><trkpt lat="42.9891411" lon="11.8672871"><ele>531.0</ele><time>2026-04-09T12:29:50.396Z</time></trkpt><trkpt lat="42.9892534" lon="11.8672745"><ele>531.0</ele><time>2026-04-09T12:29:51.401Z</time></trkpt><trkpt lat="42.9890343" lon="11.8673196"><ele>531.0</ele><time>2026-04-09T12:29:52.403Z</time></trkpt><trkpt lat="42.9892439" lon="11.8673179"><ele>531.0</ele><time>2026-04-09T12:29:54.415Z</time></trkpt><trkpt lat="42.9892517" lon="11.8672304"><ele>531.0</ele><time>2026-04-09T12:32:57.434Z</time></trkpt><trkpt lat="42.9892065" lon="11.8672969"><ele>531.0</ele><time>2026-04-09T12:34:04.435Z</time></trkpt><trkpt lat="42.9891446" lon="11.86734"><ele>531.0</ele><time>2026-04-09T12:34:13.429Z</time></trkpt><trkpt lat="42.9892207" lon="11.867325"><ele>531.0</ele><time>2026-04-09T12:34:20.435Z</time></trkpt><trkpt lat="42.9893411" lon="11.867265"><ele>531.0</ele><time>2026-04-09T12:34:39.441Z</time></trkpt><trkpt lat="42.9892535" lon="11.8672469"><ele>531.0</ele><time>2026-04-09T12:34:41.428Z</time></trkpt><trkpt lat="42.9891957" lon="11.8672122"><ele>531.0</ele><time>2026-04-09T12:34:49.431Z</time></trkpt><trkpt lat="42.9891286" lon="11.8672138"><ele>531.0</ele><time>2026-04-09T12:35:04.434Z</time></trkpt><trkpt lat="42.989194" lon="11.8672377"><ele>531.0</ele><time>2026-04-09T12:36:34.439Z</time></trkpt><trkpt lat="42.9892311" lon="11.8673161"><ele>531.0</ele><time>2026-04-09T12:39:17.43Z</time></trkpt><trkpt lat="42.989218" lon="11.8674187"><ele>531.0</ele><time>2026-04-09T12:41:59.454Z</time></trkpt><trkpt lat="42.9891816" lon="11.8674885"><ele>531.0</ele><time>2026-04-09T12:47:16.707Z</time></trkpt><trkpt lat="42.9890253" lon="11.8675296"><ele>531.0</ele><time>2026-04-09T12:47:40.708Z</time></trkpt><trkpt lat="42.9893044" lon="11.8674806"><ele>531.0</ele><time>2026-04-09T12:49:18.918Z</time></trkpt><trkpt lat="42.98924" lon="11.8674153"><ele>531.0</ele><time>2026-04-09T12:49:25.927Z</time></trkpt><trkpt lat="42.9891665" lon="11.867431"><ele>531.0</ele><time>2026-04-09T12:49:28.925Z</time></trkpt><trkpt lat="42.9890927" lon="11.8674841"><ele>531.0</ele><time>2026-04-09T12:49:31.924Z</time></trkpt><trkpt lat="42.989022" lon="11.8675397"><ele>531.0</ele><time>2026-04-09T12:49:33.935Z</time></trkpt><trkpt lat="42.989089" lon="11.8675067"><ele>531.0</ele><time>2026-04-09T12:49:50.843Z</time></trkpt><trkpt lat="42.9890194" lon="11.8675444"><ele>531.0</ele><time>2026-04-09T12:50:34.428Z</time></trkpt><trkpt lat="42.9889514" lon="11.8675545"><ele>531.0</ele><time>2026-04-09T12:50:46.429Z</time></trkpt><trkpt lat="42.9890773" lon="11.8675008"><ele>531.0</ele><time>2026-04-09T12:53:11.428Z</time></trkpt><trkpt lat="42.9891495" lon="11.8675128"><ele>531.0</ele><time>2026-04-09T12:53:37.438Z</time></trkpt><trkpt lat="42.9891523" lon="11.8676264"><ele>531.0</ele><time>2026-04-09T12:53:41.44Z</time></trkpt><trkpt lat="42.9892048" lon="11.8676757"><ele>531.0</ele><time>2026-04-09T12:53:44.426Z</time></trkpt><trkpt lat="42.9892183" lon="11.8675837"><ele>531.0</ele><time>2026-04-09T12:53:47.435Z</time></trkpt><trkpt lat="42.9891822" lon="11.8674674"><ele>531.0</ele><time>2026-04-09T12:53:48.417Z</time></trkpt><trkpt lat="42.9891562" lon="11.8672643"><ele>531.0</ele><time>2026-04-09T12:53:50.42Z</time></trkpt><trkpt lat="42.989155" lon="11.8671592"><ele>531.0</ele><time>2026-04-09T12:53:51.435Z</time></trkpt><trkpt lat="42.9891568" lon="11.8670527"><ele>531.0</ele><time>2026-04-09T12:53:52.432Z</time></trkpt><trkpt lat="42.9891651" lon="11.8668829"><ele>531.0</ele><time>2026-04-09T12:53:54.434Z</time></trkpt><trkpt lat="42.9892106" lon="11.8667305"><ele>531.0</ele><time>2026-04-09T12:53:56.436Z</time></trkpt><trkpt lat="42.9892382" lon="11.8666247"><ele>531.4285714285714</ele><time>2026-04-09T12:53:57.516Z</time></trkpt><trkpt lat="42.9892707" lon="11.8665302"><ele>531.8571428571429</ele><time>2026-04-09T12:53:58.43Z</time></trkpt><trkpt lat="42.9892836" lon="11.8664398"><ele>532.2857142857143</ele><time>2026-04-09T12:53:59.431Z</time></trkpt><trkpt lat="42.989264" lon="11.8663553"><ele>532.7142857142858</ele><time>2026-04-09T12:54:00.439Z</time></trkpt><trkpt lat="42.9892237" lon="11.8662824"><ele>533.1428571428571</ele><time>2026-04-09T12:54:01.433Z</time></trkpt><trkpt lat="42.9891776" lon="11.8662048"><ele>533.5714285714287</ele><time>2026-04-09T12:54:02.434Z</time></trkpt><trkpt lat="42.9891258" lon="11.8661207"><ele>534.0</ele><time>2026-04-09T12:54:03.445Z</time></trkpt><trkpt lat="42.989099" lon="11.8660229"><ele>534.0</ele><time>2026-04-09T12:54:04.428Z</time></trkpt><trkpt lat="42.9890752" lon="11.8659297"><ele>534.0</ele><time>2026-04-09T12:54:05.435Z</time></trkpt><trkpt lat="42.9890421" lon="11.8658373"><ele>534.0</ele><time>2026-04-09T12:54:06.425Z</time></trkpt><trkpt lat="42.9890112" lon="11.8657396"><ele>534.0</ele><time>2026-04-09T12:54:07.429Z</time></trkpt><trkpt lat="42.9889838" lon="11.8656331"><ele>534.0</ele><time>2026-04-09T12:54:08.432Z</time></trkpt><trkpt lat="42.9889585" lon="11.8655252"><ele>534.0</ele><time>2026-04-09T12:54:09.424Z</time></trkpt><trkpt lat="42.9889276" lon="11.8654305"><ele>534.0</ele><time>2026-04-09T12:54:10.442Z</time></trkpt><trkpt lat="42.9888996" lon="11.8653514"><ele>534.0</ele><time>2026-04-09T12:54:11.418Z</time></trkpt><trkpt lat="42.988803" lon="11.8652702"><ele>534.0</ele><time>2026-04-09T12:54:13.429Z</time></trkpt><trkpt lat="42.9887178" lon="11.8652634"><ele>534.0</ele><time>2026-04-09T12:54:14.418Z</time></trkpt><trkpt lat="42.9886045" lon="11.8652704"><ele>534.0</ele><time>2026-04-09T12:54:15.429Z</time></trkpt><trkpt lat="42.9884703" lon="11.8652527"><ele>534.0</ele><time>2026-04-09T12:54:16.421Z</time></trkpt><trkpt lat="42.9883436" lon="11.8652338"><ele>534.0</ele><time>2026-04-09T12:54:17.418Z</time></trkpt><trkpt lat="42.9882239" lon="11.8652193"><ele>534.0</ele><time>2026-04-09T12:54:18.432Z</time></trkpt><trkpt lat="42.9880774" lon="11.865207"><ele>534.0</ele><time>2026-04-09T12:54:19.423Z</time></trkpt><trkpt lat="42.9879615" lon="11.8651699"><ele>533.6666666666666</ele><time>2026-04-09T12:54:20.422Z</time></trkpt><trkpt lat="42.9878684" lon="11.8651169"><ele>533.3333333333334</ele><time>2026-04-09T12:54:21.436Z</time></trkpt><trkpt lat="42.9878127" lon="11.8650447"><ele>533.0</ele><time>2026-04-09T12:54:22.423Z</time></trkpt><trkpt lat="42.9877556" lon="11.8649649"><ele>532.6666666666667</ele><time>2026-04-09T12:54:23.432Z</time></trkpt><trkpt lat="42.9876621" lon="11.8649899"><ele>532.3333333333334</ele><time>2026-04-09T12:54:25.416Z</time></trkpt><trkpt lat="42.9876176" lon="11.8650571"><ele>532.0</ele><time>2026-04-09T12:54:26.429Z</time></trkpt><trkpt lat="42.9875952" lon="11.8651412"><ele>532.0</ele><time>2026-04-09T12:54:27.427Z</time></trkpt><trkpt lat="42.9875659" lon="11.8652541"><ele>532.0</ele><time>2026-04-09T12:54:28.424Z</time></trkpt><trkpt lat="42.9875299" lon="11.8654014"><ele>532.0</ele><time>2026-04-09T12:54:29.413Z</time></trkpt><trkpt lat="42.9874775" lon="11.8655626"><ele>532.0</ele><time>2026-04-09T12:54:30.425Z</time></trkpt><trkpt lat="42.9874193" lon="11.8657227"><ele>531.5</ele><time>2026-04-09T12:54:31.42Z</time></trkpt><trkpt lat="42.9873688" lon="11.8659163"><ele>531.0</ele><time>2026-04-09T12:54:32.425Z</time></trkpt><trkpt lat="42.9873277" lon="11.8661171"><ele>530.5</ele><time>2026-04-09T12:54:33.426Z</time></trkpt><trkpt lat="42.9872965" lon="11.8663017"><ele>530.0</ele><time>2026-04-09T12:54:34.422Z</time></trkpt><trkpt lat="42.9872975" lon="11.8664742"><ele>529.5</ele><time>2026-04-09T12:54:35.507Z</time></trkpt><trkpt lat="42.9873197" lon="11.8666344"><ele>529.0</ele><time>2026-04-09T12:54:36.422Z</time></trkpt><trkpt lat="42.9873412" lon="11.8667888"><ele>528.5</ele><time>2026-04-09T12:54:37.41Z</time></trkpt><trkpt lat="42.987361" lon="11.8669379"><ele>528.0</ele><time>2026-04-09T12:54:38.425Z</time></trkpt><trkpt lat="42.9874028" lon="11.8670704"><ele>527.6666666666666</ele><time>2026-04-09T12:54:39.417Z</time></trkpt><trkpt lat="42.9874468" lon="11.8671788"><ele>527.3333333333334</ele><time>2026-04-09T12:54:40.434Z</time></trkpt><trkpt lat="42.9874739" lon="11.8672823"><ele>527.0</ele><time>2026-04-09T12:54:41.422Z</time></trkpt><trkpt lat="42.9874935" lon="11.8673669"><ele>526.6666666666667</ele><time>2026-04-09T12:54:42.418Z</time></trkpt><trkpt lat="42.98756" lon="11.8674206"><ele>526.3333333333334</ele><time>2026-04-09T12:54:44.422Z</time></trkpt><trkpt lat="42.9875428" lon="11.8672755"><ele>526.0</ele><time>2026-04-09T12:54:48.432Z</time></trkpt><trkpt lat="42.9875115" lon="11.8671985"><ele>526.0</ele><time>2026-04-09T12:54:49.428Z</time></trkpt><trkpt lat="42.9874782" lon="11.8671009"><ele>526.0</ele><time>2026-04-09T12:54:50.428Z</time></trkpt><trkpt lat="42.9874432" lon="11.8669859"><ele>526.0</ele><time>2026-04-09T12:54:51.434Z</time></trkpt><trkpt lat="42.987406" lon="11.8668656"><ele>526.0</ele><time>2026-04-09T12:54:52.434Z</time></trkpt><trkpt lat="42.9873836" lon="11.8667634"><ele>526.0</ele><time>2026-04-09T12:54:53.438Z</time></trkpt><trkpt lat="42.9873607" lon="11.8666662"><ele>526.0</ele><time>2026-04-09T12:54:54.436Z</time></trkpt><trkpt lat="42.9873383" lon="11.8665741"><ele>526.3333333333334</ele><time>2026-04-09T12:54:55.436Z</time></trkpt><trkpt lat="42.9873168" lon="11.8664847"><ele>526.6666666666667</ele><time>2026-04-09T12:54:57.435Z</time></trkpt><trkpt lat="42.9872598" lon="11.8664429"><ele>527.0</ele><time>2026-04-09T12:54:59.438Z</time></trkpt><trkpt lat="42.9871805" lon="11.866391"><ele>527.3333333333334</ele><time>2026-04-09T12:55:01.454Z</time></trkpt><trkpt lat="42.9871196" lon="11.8664496"><ele>527.6666666666666</ele><time>2026-04-09T12:55:03.458Z</time></trkpt><trkpt lat="42.9870777" lon="11.8665485"><ele>528.0</ele><time>2026-04-09T12:55:04.434Z</time></trkpt><trkpt lat="42.987021" lon="11.8666339"><ele>528.0</ele><time>2026-04-09T12:55:05.425Z</time></trkpt><trkpt lat="42.9869764" lon="11.8667112"><ele>528.0</ele><time>2026-04-09T12:55:06.417Z</time></trkpt><trkpt lat="42.9869055" lon="11.8667719"><ele>528.0</ele><time>2026-04-09T12:55:07.431Z</time></trkpt><trkpt lat="42.9868471" lon="11.8668388"><ele>528.0</ele><time>2026-04-09T12:55:08.428Z</time></trkpt><trkpt lat="42.9868182" lon="11.8669955"><ele>528.0</ele><time>2026-04-09T12:55:10.433Z</time></trkpt><trkpt lat="42.9868297" lon="11.8670932"><ele>528.0</ele><time>2026-04-09T12:55:11.433Z</time></trkpt><trkpt lat="42.9868483" lon="11.8671835"><ele>527.6666666666666</ele><time>2026-04-09T12:55:12.424Z</time></trkpt><trkpt lat="42.9868698" lon="11.8672676"><ele>527.3333333333334</ele><time>2026-04-09T12:55:13.433Z</time></trkpt><trkpt lat="42.9868993" lon="11.8673827"><ele>527.0</ele><time>2026-04-09T12:55:14.424Z</time></trkpt><trkpt lat="42.9869167" lon="11.8674889"><ele>526.6666666666667</ele><time>2026-04-09T12:55:15.435Z</time></trkpt><trkpt lat="42.9869393" lon="11.8676064"><ele>526.3333333333334</ele><time>2026-04-09T12:55:16.427Z</time></trkpt><trkpt lat="42.9869624" lon="11.8677097"><ele>526.0</ele><time>2026-04-09T12:55:17.437Z</time></trkpt><trkpt lat="42.9869807" lon="11.8678"><ele>525.8333333333334</ele><time>2026-04-09T12:55:18.428Z</time></trkpt><trkpt lat="42.9870071" lon="11.8678851"><ele>525.6666666666667</ele><time>2026-04-09T12:55:19.449Z</time></trkpt><trkpt lat="42.9870179" lon="11.8679855"><ele>525.5</ele><time>2026-04-09T12:55:21.445Z</time></trkpt><trkpt lat="42.9870185" lon="11.8680783"><ele>525.3333333333334</ele><time>2026-04-09T12:55:23.439Z</time></trkpt><trkpt lat="42.9870317" lon="11.8679679"><ele>525.1666666666666</ele><time>2026-04-09T12:55:33.468Z</time></trkpt><trkpt lat="42.9870569" lon="11.8678548"><ele>525.0</ele><time>2026-04-09T12:55:35.444Z</time></trkpt><trkpt lat="42.9870777" lon="11.8677101"><ele>525.0</ele><time>2026-04-09T12:55:37.44Z</time></trkpt><trkpt lat="42.9870701" lon="11.8676181"><ele>525.0</ele><time>2026-04-09T12:55:38.434Z</time></trkpt><trkpt lat="42.9870637" lon="11.867463"><ele>525.0</ele><time>2026-04-09T12:55:40.443Z</time></trkpt><trkpt lat="42.9870567" lon="11.8673668"><ele>525.0</ele><time>2026-04-09T12:55:41.436Z</time></trkpt><trkpt lat="42.9870293" lon="11.8672299"><ele>525.0</ele><time>2026-04-09T12:55:43.428Z</time></trkpt><trkpt lat="42.9870051" lon="11.8671118"><ele>525.0</ele><time>2026-04-09T12:55:46.425Z</time></trkpt><trkpt lat="42.9869892" lon="11.8669936"><ele>525.1666666666666</ele><time>2026-04-09T12:55:49.436Z</time></trkpt><trkpt lat="42.9869617" lon="11.8669145"><ele>525.3333333333334</ele><time>2026-04-09T12:55:51.434Z</time></trkpt><trkpt lat="42.9869466" lon="11.8668284"><ele>525.5</ele><time>2026-04-09T12:56:05.447Z</time></trkpt><trkpt lat="42.9870052" lon="11.8667287"><ele>525.6666666666667</ele><time>2026-04-09T12:56:16.435Z</time></trkpt><trkpt lat="42.9870444" lon="11.8666369"><ele>525.8333333333334</ele><time>2026-04-09T12:56:18.445Z</time></trkpt><trkpt lat="42.9871027" lon="11.8665538"><ele>526.0</ele><time>2026-04-09T12:56:20.448Z</time></trkpt><trkpt lat="42.9871697" lon="11.8664493"><ele>526.3333333333334</ele><time>2026-04-09T12:56:22.457Z</time></trkpt><trkpt lat="42.9872331" lon="11.8663564"><ele>526.6666666666667</ele><time>2026-04-09T12:56:25.437Z</time></trkpt><trkpt lat="42.987277" lon="11.8662889"><ele>527.0</ele><time>2026-04-09T12:56:33.433Z</time></trkpt><trkpt lat="42.9873452" lon="11.8661704"><ele>527.3333333333334</ele><time>2026-04-09T12:56:40.447Z</time></trkpt><trkpt lat="42.9873702" lon="11.8660577"><ele>527.6666666666666</ele><time>2026-04-09T12:56:41.419Z</time></trkpt><trkpt lat="42.9873965" lon="11.8659458"><ele>528.0</ele><time>2026-04-09T12:56:42.433Z</time></trkpt><trkpt lat="42.9874354" lon="11.8658211"><ele>528.4</ele><time>2026-04-09T12:56:43.433Z</time></trkpt><trkpt lat="42.9874791" lon="11.8656885"><ele>528.8</ele><time>2026-04-09T12:56:44.432Z</time></trkpt><trkpt lat="42.9875582" lon="11.8655808"><ele>529.2</ele><time>2026-04-09T12:56:45.436Z</time></trkpt><trkpt lat="42.9876353" lon="11.8654706"><ele>529.6</ele><time>2026-04-09T12:56:46.453Z</time></trkpt><trkpt lat="42.9876943" lon="11.8653589"><ele>530.0</ele><time>2026-04-09T12:56:47.426Z</time></trkpt><trkpt lat="42.9877474" lon="11.865259"><ele>530.2</ele><time>2026-04-09T12:56:48.439Z</time></trkpt><trkpt lat="42.9877876" lon="11.8651657"><ele>530.4</ele><time>2026-04-09T12:56:49.434Z</time></trkpt><trkpt lat="42.9878337" lon="11.865052"><ele>530.6</ele><time>2026-04-09T12:56:51.43Z</time></trkpt><trkpt lat="42.9878176" lon="11.8649392"><ele>530.8</ele><time>2026-04-09T12:56:53.428Z</time></trkpt><trkpt lat="42.9877367" lon="11.8650087"><ele>531.0</ele><time>2026-04-09T12:56:56.436Z</time></trkpt><trkpt lat="42.9876618" lon="11.8651412"><ele>531.2</ele><time>2026-04-09T12:56:58.428Z</time></trkpt><trkpt lat="42.9876033" lon="11.8652813"><ele>531.4000000000001</ele><time>2026-04-09T12:57:00.428Z</time></trkpt><trkpt lat="42.9875382" lon="11.8654161"><ele>531.6</ele><time>2026-04-09T12:57:02.435Z</time></trkpt><trkpt lat="42.987467" lon="11.8655595"><ele>531.8000000000001</ele><time>2026-04-09T12:57:04.437Z</time></trkpt><trkpt lat="42.9874171" lon="11.8656386"><ele>532.0</ele><time>2026-04-09T12:57:05.442Z</time></trkpt><trkpt lat="42.9873758" lon="11.8657152"><ele>531.6</ele><time>2026-04-09T12:57:06.435Z</time></trkpt><trkpt lat="42.9873139" lon="11.8658422"><ele>531.2</ele><time>2026-04-09T12:57:08.439Z</time></trkpt><trkpt lat="42.9872873" lon="11.8659204"><ele>530.8</ele><time>2026-04-09T12:57:09.43Z</time></trkpt><trkpt lat="42.9872558" lon="11.8660764"><ele>530.4</ele><time>2026-04-09T12:57:11.435Z</time></trkpt><trkpt lat="42.9872236" lon="11.866217"><ele>530.0</ele><time>2026-04-09T12:57:13.426Z</time></trkpt><trkpt lat="42.9872247" lon="11.8663524"><ele>529.6</ele><time>2026-04-09T12:57:15.43Z</time></trkpt><trkpt lat="42.9871705" lon="11.8664051"><ele>529.2</ele><time>2026-04-09T12:57:19.43Z</time></trkpt><trkpt lat="42.9870784" lon="11.8663258"><ele>528.8</ele><time>2026-04-09T12:57:21.43Z</time></trkpt><trkpt lat="42.9869929" lon="11.8662392"><ele>528.4</ele><time>2026-04-09T12:57:23.433Z</time></trkpt><trkpt lat="42.9869104" lon="11.8661671"><ele>528.0</ele><time>2026-04-09T12:57:25.427Z</time></trkpt><trkpt lat="42.9868103" lon="11.8661261"><ele>528.0</ele><time>2026-04-09T12:57:27.422Z</time></trkpt><trkpt lat="42.9867465" lon="11.8661231"><ele>528.0</ele><time>2026-04-09T12:57:28.425Z</time></trkpt><trkpt lat="42.9866802" lon="11.8661453"><ele>528.0</ele><time>2026-04-09T12:57:29.425Z</time></trkpt><trkpt lat="42.9866159" lon="11.8661456"><ele>528.0</ele><time>2026-04-09T12:57:30.429Z</time></trkpt><trkpt lat="42.9865018" lon="11.8661617"><ele>528.0</ele><time>2026-04-09T12:57:32.439Z</time></trkpt><trkpt lat="42.9864408" lon="11.8661901"><ele>528.0</ele><time>2026-04-09T12:57:33.432Z</time></trkpt><trkpt lat="42.9863076" lon="11.8661737"><ele>527.8333333333334</ele><time>2026-04-09T12:57:35.505Z</time></trkpt><trkpt lat="42.9862395" lon="11.8661686"><ele>527.6666666666666</ele><time>2026-04-09T12:57:36.434Z</time></trkpt><trkpt lat="42.9861602" lon="11.8661813"><ele>527.5</ele><time>2026-04-09T12:57:37.426Z</time></trkpt><trkpt lat="42.9860812" lon="11.8661841"><ele>527.3333333333333</ele><time>2026-04-09T12:57:38.43Z</time></trkpt><trkpt lat="42.9859998" lon="11.8661863"><ele>527.1666666666666</ele><time>2026-04-09T12:57:39.425Z</time></trkpt><trkpt lat="42.9859197" lon="11.8661924"><ele>527.0</ele><time>2026-04-09T12:57:40.451Z</time></trkpt><trkpt lat="42.985833" lon="11.8662016"><ele>527.0</ele><time>2026-04-09T12:57:41.419Z</time></trkpt><trkpt lat="42.9857616" lon="11.8661984"><ele>527.0</ele><time>2026-04-09T12:57:42.427Z</time></trkpt><trkpt lat="42.9856829" lon="11.8661994"><ele>527.0</ele><time>2026-04-09T12:57:43.425Z</time></trkpt><trkpt lat="42.9856045" lon="11.8662032"><ele>527.0</ele><time>2026-04-09T12:57:44.431Z</time></trkpt><trkpt lat="42.9855325" lon="11.8662029"><ele>527.0</ele><time>2026-04-09T12:57:45.425Z</time></trkpt><trkpt lat="42.985431" lon="11.866172"><ele>527.0</ele><time>2026-04-09T12:57:47.419Z</time></trkpt><trkpt lat="42.985365" lon="11.8661468"><ele>527.0</ele><time>2026-04-09T12:57:49.427Z</time></trkpt><trkpt lat="42.9852955" lon="11.866162"><ele>527.0</ele><time>2026-04-09T12:58:07.427Z</time></trkpt><trkpt lat="42.9852656" lon="11.866276"><ele>527.0</ele><time>2026-04-09T12:58:10.439Z</time></trkpt><trkpt lat="42.9852683" lon="11.8664312"><ele>527.0</ele><time>2026-04-09T12:58:12.427Z</time></trkpt><trkpt lat="42.9852809" lon="11.8665371"><ele>527.0</ele><time>2026-04-09T12:58:13.434Z</time></trkpt><trkpt lat="42.9852786" lon="11.8666301"><ele>527.0</ele><time>2026-04-09T12:58:14.426Z</time></trkpt><trkpt lat="42.9852788" lon="11.8667228"><ele>526.6666666666666</ele><time>2026-04-09T12:58:15.43Z</time></trkpt><trkpt lat="42.9852587" lon="11.8668638"><ele>526.3333333333333</ele><time>2026-04-09T12:58:17.42Z</time></trkpt><trkpt lat="42.9851972" lon="11.8669321"><ele>526.0</ele><time>2026-04-09T12:58:19.421Z</time></trkpt><trkpt lat="42.985134" lon="11.8669326"><ele>525.6666666666666</ele><time>2026-04-09T12:58:20.432Z</time></trkpt><trkpt lat="42.9850565" lon="11.8669349"><ele>525.3333333333334</ele><time>2026-04-09T12:58:21.432Z</time></trkpt><trkpt lat="42.9849485" lon="11.8669427"><ele>525.0</ele><time>2026-04-09T12:58:23.424Z</time></trkpt><trkpt lat="42.9848767" lon="11.8669526"><ele>525.0</ele><time>2026-04-09T12:58:24.427Z</time></trkpt><trkpt lat="42.9848046" lon="11.8669605"><ele>525.0</ele><time>2026-04-09T12:58:25.437Z</time></trkpt><trkpt lat="42.984724" lon="11.8669794"><ele>525.0</ele><time>2026-04-09T12:58:26.436Z</time></trkpt><trkpt lat="42.984607" lon="11.8670082"><ele>525.0</ele><time>2026-04-09T12:58:28.415Z</time></trkpt><trkpt lat="42.9845211" lon="11.8669893"><ele>525.0</ele><time>2026-04-09T12:58:30.432Z</time></trkpt><trkpt lat="42.9844429" lon="11.866968"><ele>525.0</ele><time>2026-04-09T12:58:33.423Z</time></trkpt><trkpt lat="42.9843859" lon="11.8668347"><ele>525.2</ele><time>2026-04-09T12:58:35.42Z</time></trkpt><trkpt lat="42.9843467" lon="11.8666585"><ele>525.4</ele><time>2026-04-09T12:58:37.433Z</time></trkpt><trkpt lat="42.9843378" lon="11.8665516"><ele>525.6</ele><time>2026-04-09T12:58:38.426Z</time></trkpt><trkpt lat="42.9843034" lon="11.8664107"><ele>525.8</ele><time>2026-04-09T12:58:40.442Z</time></trkpt><trkpt lat="42.9842062" lon="11.8663288"><ele>526.0</ele><time>2026-04-09T12:58:42.437Z</time></trkpt><trkpt lat="42.9841404" lon="11.866336"><ele>526.0</ele><time>2026-04-09T12:58:43.426Z</time></trkpt><trkpt lat="42.9840675" lon="11.866352"><ele>526.0</ele><time>2026-04-09T12:58:44.424Z</time></trkpt><trkpt lat="42.9840019" lon="11.8663566"><ele>526.0</ele><time>2026-04-09T12:58:45.429Z</time></trkpt><trkpt lat="42.9839392" lon="11.8663442"><ele>526.0</ele><time>2026-04-09T12:58:46.426Z</time></trkpt><trkpt lat="42.9838705" lon="11.8663487"><ele>526.0</ele><time>2026-04-09T12:58:47.434Z</time></trkpt><trkpt lat="42.9838021" lon="11.8663504"><ele>526.0</ele><time>2026-04-09T12:58:48.438Z</time></trkpt><trkpt lat="42.9837317" lon="11.8663375"><ele>526.0</ele><time>2026-04-09T12:58:49.428Z</time></trkpt><trkpt lat="42.9836621" lon="11.8663343"><ele>526.0</ele><time>2026-04-09T12:58:50.443Z</time></trkpt><trkpt lat="42.9835586" lon="11.8663191"><ele>526.0</ele><time>2026-04-09T12:58:52.425Z</time></trkpt><trkpt lat="42.9834658" lon="11.8663417"><ele>526.0</ele><time>2026-04-09T12:58:54.427Z</time></trkpt><trkpt lat="42.9834173" lon="11.8662766"><ele>526.0</ele><time>2026-04-09T12:58:56.43Z</time></trkpt><trkpt lat="42.9833926" lon="11.8661295"><ele>526.0</ele><time>2026-04-09T12:58:58.429Z</time></trkpt><trkpt lat="42.9833689" lon="11.8660396"><ele>526.0</ele><time>2026-04-09T12:58:59.422Z</time></trkpt><trkpt lat="42.983358" lon="11.8658279"><ele>526.0</ele><time>2026-04-09T12:59:01.422Z</time></trkpt><trkpt lat="42.9833514" lon="11.8656885"><ele>526.0</ele><time>2026-04-09T12:59:02.435Z</time></trkpt><trkpt lat="42.9833514" lon="11.865549"><ele>526.0</ele><time>2026-04-09T12:59:03.427Z</time></trkpt><trkpt lat="42.9833481" lon="11.8654193"><ele>526.0</ele><time>2026-04-09T12:59:04.426Z</time></trkpt><trkpt lat="42.9833321" lon="11.8653157"><ele>526.0</ele><time>2026-04-09T12:59:05.43Z</time></trkpt><trkpt lat="42.9833327" lon="11.8652151"><ele>526.3333333333334</ele><time>2026-04-09T12:59:06.429Z</time></trkpt><trkpt lat="42.9833437" lon="11.8650693"><ele>526.6666666666667</ele><time>2026-04-09T12:59:08.425Z</time></trkpt><trkpt lat="42.9832434" lon="11.8651125"><ele>527.0</ele><time>2026-04-09T12:59:12.425Z</time></trkpt><trkpt lat="42.9831777" lon="11.8651338"><ele>527.3333333333334</ele><time>2026-04-09T12:59:13.431Z</time></trkpt><trkpt lat="42.9831097" lon="11.8651422"><ele>527.6666666666666</ele><time>2026-04-09T12:59:14.424Z</time></trkpt><trkpt lat="42.9830399" lon="11.8651556"><ele>528.0</ele><time>2026-04-09T12:59:15.427Z</time></trkpt><trkpt lat="42.9829352" lon="11.8651426"><ele>529.0</ele><time>2026-04-09T12:59:17.424Z</time></trkpt><trkpt lat="42.982827" lon="11.8651117"><ele>530.0</ele><time>2026-04-09T12:59:19.433Z</time></trkpt><trkpt lat="42.9827618" lon="11.8650048"><ele>531.0</ele><time>2026-04-09T12:59:21.432Z</time></trkpt><trkpt lat="42.9827445" lon="11.8648304"><ele>532.0</ele><time>2026-04-09T12:59:23.426Z</time></trkpt><trkpt lat="42.9827363" lon="11.8647175"><ele>533.0</ele><time>2026-04-09T12:59:24.43Z</time></trkpt><trkpt lat="42.9827091" lon="11.8645929"><ele>533.0</ele><time>2026-04-09T12:59:25.426Z</time></trkpt><trkpt lat="42.9826884" lon="11.8644586"><ele>533.0</ele><time>2026-04-09T12:59:26.425Z</time></trkpt><trkpt lat="42.9826779" lon="11.8643105"><ele>533.0</ele><time>2026-04-09T12:59:27.432Z</time></trkpt><trkpt lat="42.9826706" lon="11.8641827"><ele>533.0</ele><time>2026-04-09T12:59:28.429Z</time></trkpt><trkpt lat="42.9826567" lon="11.8640542"><ele>533.0</ele><time>2026-04-09T12:59:29.43Z</time></trkpt><trkpt lat="42.9826515" lon="11.8639227"><ele>533.5</ele><time>2026-04-09T12:59:30.435Z</time></trkpt><trkpt lat="42.9826439" lon="11.8638062"><ele>534.0</ele><time>2026-04-09T12:59:31.436Z</time></trkpt><trkpt lat="42.9826397" lon="11.8637104"><ele>534.5</ele><time>2026-04-09T12:59:32.427Z</time></trkpt><trkpt lat="42.9826433" lon="11.8636054"><ele>535.0</ele><time>2026-04-09T12:59:33.426Z</time></trkpt><trkpt lat="42.9826408" lon="11.863494"><ele>535.5</ele><time>2026-04-09T12:59:34.417Z</time></trkpt><trkpt lat="42.9826362" lon="11.8633878"><ele>536.0</ele><time>2026-04-09T12:59:35.439Z</time></trkpt><trkpt lat="42.982643" lon="11.8632768"><ele>536.1666666666666</ele><time>2026-04-09T12:59:36.422Z</time></trkpt><trkpt lat="42.9826403" lon="11.8631598"><ele>536.3333333333333</ele><time>2026-04-09T12:59:37.443Z</time></trkpt><trkpt lat="42.9826322" lon="11.8630376"><ele>536.5</ele><time>2026-04-09T12:59:38.426Z</time></trkpt><trkpt lat="42.9826159" lon="11.8629428"><ele>536.6666666666666</ele><time>2026-04-09T12:59:39.437Z</time></trkpt><trkpt lat="42.9825866" lon="11.8627925"><ele>536.8333333333334</ele><time>2026-04-09T12:59:41.432Z</time></trkpt><trkpt lat="42.9825693" lon="11.8626872"><ele>537.0</ele><time>2026-04-09T12:59:42.426Z</time></trkpt><trkpt lat="42.9825496" lon="11.862583"><ele>539.4</ele><time>2026-04-09T12:59:43.423Z</time></trkpt><trkpt lat="42.9825323" lon="11.8624822"><ele>541.8000000000001</ele><time>2026-04-09T12:59:44.418Z</time></trkpt><trkpt lat="42.9825068" lon="11.862358"><ele>544.2</ele><time>2026-04-09T12:59:46.418Z</time></trkpt><trkpt lat="42.9824461" lon="11.8622798"><ele>546.6</ele><time>2026-04-09T12:59:50.419Z</time></trkpt><trkpt lat="42.9823369" lon="11.8623543"><ele>549.0</ele><time>2026-04-09T12:59:52.413Z</time></trkpt><trkpt lat="42.9822556" lon="11.862409"><ele>548.4</ele><time>2026-04-09T12:59:53.405Z</time></trkpt><trkpt lat="42.9821648" lon="11.8624639"><ele>547.8</ele><time>2026-04-09T12:59:54.409Z</time></trkpt><trkpt lat="42.982064" lon="11.8625396"><ele>547.2</ele><time>2026-04-09T12:59:55.415Z</time></trkpt><trkpt lat="42.9819658" lon="11.8625994"><ele>546.6</ele><time>2026-04-09T12:59:56.42Z</time></trkpt><trkpt lat="42.9818648" lon="11.862647"><ele>546.0</ele><time>2026-04-09T12:59:57.425Z</time></trkpt><trkpt lat="42.981749" lon="11.8627153"><ele>546.0</ele><time>2026-04-09T12:59:58.425Z</time></trkpt><trkpt lat="42.9816323" lon="11.8627819"><ele>546.0</ele><time>2026-04-09T12:59:59.433Z</time></trkpt><trkpt lat="42.9815164" lon="11.8628509"><ele>546.0</ele><time>2026-04-09T13:00:00.434Z</time></trkpt><trkpt lat="42.9814054" lon="11.8629103"><ele>546.0</ele><time>2026-04-09T13:00:01.433Z</time></trkpt><trkpt lat="42.9812939" lon="11.8629698"><ele>546.0</ele><time>2026-04-09T13:00:02.43Z</time></trkpt><trkpt lat="42.98119" lon="11.863033"><ele>546.0</ele><time>2026-04-09T13:00:03.425Z</time></trkpt><trkpt lat="42.9811038" lon="11.8630779"><ele>546.0</ele><time>2026-04-09T13:00:04.436Z</time></trkpt><trkpt lat="42.9810282" lon="11.8631201"><ele>546.0</ele><time>2026-04-09T13:00:05.432Z</time></trkpt><trkpt lat="42.9809629" lon="11.8631691"><ele>546.0</ele><time>2026-04-09T13:00:06.44Z</time></trkpt><trkpt lat="42.9808958" lon="11.8632173"><ele>546.0</ele><time>2026-04-09T13:00:07.428Z</time></trkpt><trkpt lat="42.9808277" lon="11.8632604"><ele>545.5</ele><time>2026-04-09T13:00:08.415Z</time></trkpt><trkpt lat="42.9807584" lon="11.8632913"><ele>545.0</ele><time>2026-04-09T13:00:09.423Z</time></trkpt><trkpt lat="42.9806786" lon="11.8633336"><ele>544.5</ele><time>2026-04-09T13:00:10.435Z</time></trkpt><trkpt lat="42.9805961" lon="11.8633784"><ele>544.0</ele><time>2026-04-09T13:00:11.422Z</time></trkpt><trkpt lat="42.9805286" lon="11.8634297"><ele>543.5</ele><time>2026-04-09T13:00:12.429Z</time></trkpt><trkpt lat="42.9804491" lon="11.8634737"><ele>543.0</ele><time>2026-04-09T13:00:13.429Z</time></trkpt><trkpt lat="42.9803668" lon="11.8635175"><ele>543.0</ele><time>2026-04-09T13:00:14.428Z</time></trkpt><trkpt lat="42.9802876" lon="11.8635648"><ele>543.0</ele><time>2026-04-09T13:00:15.435Z</time></trkpt><trkpt lat="42.9801976" lon="11.8636218"><ele>543.0</ele><time>2026-04-09T13:00:16.423Z</time></trkpt><trkpt lat="42.9800969" lon="11.8636806"><ele>543.0</ele><time>2026-04-09T13:00:17.433Z</time></trkpt><trkpt lat="42.9799996" lon="11.8637478"><ele>543.0</ele><time>2026-04-09T13:00:18.447Z</time></trkpt><trkpt lat="42.9799183" lon="11.86381"><ele>544.1666666666666</ele><time>2026-04-09T13:00:19.428Z</time></trkpt><trkpt lat="42.9798429" lon="11.863867"><ele>545.3333333333334</ele><time>2026-04-09T13:00:20.431Z</time></trkpt><trkpt lat="42.9797669" lon="11.8639113"><ele>546.5</ele><time>2026-04-09T13:00:21.432Z</time></trkpt><trkpt lat="42.9796881" lon="11.8639563"><ele>547.6666666666667</ele><time>2026-04-09T13:00:22.431Z</time></trkpt><trkpt lat="42.9796216" lon="11.8639978"><ele>548.8333333333334</ele><time>2026-04-09T13:00:23.429Z</time></trkpt><trkpt lat="42.9795384" lon="11.8640543"><ele>550.0</ele><time>2026-04-09T13:00:25.435Z</time></trkpt><trkpt lat="42.9794803" lon="11.8640997"><ele>550.0</ele><time>2026-04-09T13:00:28.432Z</time></trkpt><trkpt lat="42.9794035" lon="11.8641607"><ele>550.0</ele><time>2026-04-09T13:00:30.434Z</time></trkpt><trkpt lat="42.9793436" lon="11.8642083"><ele>550.0</ele><time>2026-04-09T13:00:31.427Z</time></trkpt><trkpt lat="42.9792857" lon="11.8642556"><ele>550.0</ele><time>2026-04-09T13:00:32.426Z</time></trkpt><trkpt lat="42.9792563" lon="11.8643378"><ele>550.0</ele><time>2026-04-09T13:00:33.433Z</time></trkpt><trkpt lat="42.9792575" lon="11.8644767"><ele>550.0</ele><time>2026-04-09T13:00:34.429Z</time></trkpt><trkpt lat="42.9792916" lon="11.8646708"><ele>550.0</ele><time>2026-04-09T13:00:35.427Z</time></trkpt><trkpt lat="42.9793457" lon="11.8649093"><ele>550.0</ele><time>2026-04-09T13:00:36.422Z</time></trkpt><trkpt lat="42.9794259" lon="11.8652334"><ele>550.0</ele><time>2026-04-09T13:00:37.42Z</time></trkpt><trkpt lat="42.9794947" lon="11.8655154"><ele>550.0</ele><time>2026-04-09T13:00:38.43Z</time></trkpt><trkpt lat="42.9795899" lon="11.8657153"><ele>550.0</ele><time>2026-04-09T13:00:39.421Z</time></trkpt><trkpt lat="42.9796517" lon="11.8658936"><ele>550.0</ele><time>2026-04-09T13:00:40.433Z</time></trkpt><trkpt lat="42.9797053" lon="11.8660896"><ele>548.6666666666667</ele><time>2026-04-09T13:00:41.422Z</time></trkpt><trkpt lat="42.9797643" lon="11.8662716"><ele>547.3333333333334</ele><time>2026-04-09T13:00:42.434Z</time></trkpt><trkpt lat="42.9798532" lon="11.8664592"><ele>546.0</ele><time>2026-04-09T13:00:43.421Z</time></trkpt><trkpt lat="42.9799642" lon="11.8666258"><ele>546.25</ele><time>2026-04-09T13:00:44.426Z</time></trkpt><trkpt lat="42.9800673" lon="11.8667628"><ele>546.5</ele><time>2026-04-09T13:00:45.424Z</time></trkpt><trkpt lat="42.980166" lon="11.8668938"><ele>546.75</ele><time>2026-04-09T13:00:46.421Z</time></trkpt><trkpt lat="42.9802772" lon="11.8669764"><ele>547.0</ele><time>2026-04-09T13:00:47.434Z</time></trkpt><trkpt lat="42.9803494" lon="11.8670355"><ele>547.0</ele><time>2026-04-09T13:00:48.428Z</time></trkpt><trkpt lat="42.9804306" lon="11.8671282"><ele>547.0</ele><time>2026-04-09T13:00:50.418Z</time></trkpt><trkpt lat="42.9803418" lon="11.8671634"><ele>547.0</ele><time>2026-04-09T13:00:53.512Z</time></trkpt><trkpt lat="42.9802664" lon="11.8671423"><ele>547.0</ele><time>2026-04-09T13:00:54.422Z</time></trkpt><trkpt lat="42.9801924" lon="11.8671293"><ele>547.0</ele><time>2026-04-09T13:00:55.421Z</time></trkpt><trkpt lat="42.9800793" lon="11.8671185"><ele>546.8000000000001</ele><time>2026-04-09T13:00:56.414Z</time></trkpt><trkpt lat="42.9799843" lon="11.867095"><ele>546.6</ele><time>2026-04-09T13:00:57.419Z</time></trkpt><trkpt lat="42.9798752" lon="11.8670661"><ele>546.4000000000001</ele><time>2026-04-09T13:00:58.42Z</time></trkpt><trkpt lat="42.9797924" lon="11.8670542"><ele>546.2</ele><time>2026-04-09T13:00:59.435Z</time></trkpt><trkpt lat="42.9797124" lon="11.867027"><ele>546.0</ele><time>2026-04-09T13:01:00.433Z</time></trkpt><trkpt lat="42.9796335" lon="11.866989"><ele>546.0</ele><time>2026-04-09T13:01:01.424Z</time></trkpt><trkpt lat="42.9795641" lon="11.8669354"><ele>546.0</ele><time>2026-04-09T13:01:02.427Z</time></trkpt><trkpt lat="42.979488" lon="11.8668777"><ele>546.0</ele><time>2026-04-09T13:01:03.414Z</time></trkpt><trkpt lat="42.9794254" lon="11.8668139"><ele>546.0</ele><time>2026-04-09T13:01:04.426Z</time></trkpt><trkpt lat="42.9793531" lon="11.8667394"><ele>546.0</ele><time>2026-04-09T13:01:05.426Z</time></trkpt><trkpt lat="42.9792797" lon="11.866651"><ele>546.0</ele><time>2026-04-09T13:01:06.419Z</time></trkpt><trkpt lat="42.9792165" lon="11.8665764"><ele>546.8</ele><time>2026-04-09T13:01:07.421Z</time></trkpt><trkpt lat="42.97913" lon="11.8664622"><ele>547.6</ele><time>2026-04-09T13:01:09.427Z</time></trkpt><trkpt lat="42.9790183" lon="11.8663846"><ele>548.4</ele><time>2026-04-09T13:01:11.507Z</time></trkpt><trkpt lat="42.9789109" lon="11.8663327"><ele>549.2</ele><time>2026-04-09T13:01:13.428Z</time></trkpt><trkpt lat="42.9788303" lon="11.8662887"><ele>550.0</ele><time>2026-04-09T13:01:16.416Z</time></trkpt><trkpt lat="42.9787611" lon="11.8662755"><ele>550.0</ele><time>2026-04-09T13:01:24.42Z</time></trkpt><trkpt lat="42.9786869" lon="11.8662607"><ele>550.0</ele><time>2026-04-09T13:01:30.423Z</time></trkpt><trkpt lat="42.9787874" lon="11.8663653"><ele>550.0</ele><time>2026-04-09T13:01:38.433Z</time></trkpt><trkpt lat="42.9788465" lon="11.8664306"><ele>550.0</ele><time>2026-04-09T13:01:39.429Z</time></trkpt><trkpt lat="42.9788937" lon="11.8665008"><ele>550.0</ele><time>2026-04-09T13:01:40.417Z</time></trkpt><trkpt lat="42.9789725" lon="11.866582"><ele>550.0</ele><time>2026-04-09T13:01:41.436Z</time></trkpt><trkpt lat="42.979067" lon="11.8666551"><ele>550.0</ele><time>2026-04-09T13:01:42.426Z</time></trkpt><trkpt lat="42.9791449" lon="11.8667085"><ele>550.0</ele><time>2026-04-09T13:01:43.422Z</time></trkpt><trkpt lat="42.9792239" lon="11.8667461"><ele>550.0</ele><time>2026-04-09T13:01:44.432Z</time></trkpt><trkpt lat="42.9792738" lon="11.8667993"><ele>550.0</ele><time>2026-04-09T13:01:45.42Z</time></trkpt><trkpt lat="42.9792979" lon="11.866907"><ele>550.0</ele><time>2026-04-09T13:01:47.425Z</time></trkpt><trkpt lat="42.979244" lon="11.8669702"><ele>550.0</ele><time>2026-04-09T13:01:49.422Z</time></trkpt><trkpt lat="42.979153" lon="11.8670075"><ele>549.4</ele><time>2026-04-09T13:01:51.416Z</time></trkpt><trkpt lat="42.9790328" lon="11.8670605"><ele>548.8</ele><time>2026-04-09T13:01:53.425Z</time></trkpt><trkpt lat="42.9789502" lon="11.8670986"><ele>548.2</ele><time>2026-04-09T13:01:54.436Z</time></trkpt><trkpt lat="42.9788853" lon="11.8671466"><ele>547.6</ele><time>2026-04-09T13:01:55.415Z</time></trkpt><trkpt lat="42.9788276" lon="11.8672212"><ele>547.0</ele><time>2026-04-09T13:01:56.433Z</time></trkpt><trkpt lat="42.9787573" lon="11.8672929"><ele>547.0</ele><time>2026-04-09T13:01:57.426Z</time></trkpt><trkpt lat="42.9786819" lon="11.8673643"><ele>547.0</ele><time>2026-04-09T13:01:58.425Z</time></trkpt><trkpt lat="42.9786362" lon="11.8674311"><ele>547.0</ele><time>2026-04-09T13:01:59.433Z</time></trkpt><trkpt lat="42.9785209" lon="11.8675425"><ele>547.0</ele><time>2026-04-09T13:02:01.425Z</time></trkpt><trkpt lat="42.9784419" lon="11.8676067"><ele>547.0</ele><time>2026-04-09T13:02:02.43Z</time></trkpt><trkpt lat="42.9783789" lon="11.867669"><ele>547.0</ele><time>2026-04-09T13:02:03.442Z</time></trkpt><trkpt lat="42.9783181" lon="11.8677246"><ele>547.0</ele><time>2026-04-09T13:02:04.423Z</time></trkpt><trkpt lat="42.9782575" lon="11.8677846"><ele>547.0</ele><time>2026-04-09T13:02:05.681Z</time></trkpt><trkpt lat="42.9781552" lon="11.8678679"><ele>547.0</ele><time>2026-04-09T13:02:07.434Z</time></trkpt><trkpt lat="42.9780864" lon="11.8679029"><ele>547.0</ele><time>2026-04-09T13:02:08.424Z</time></trkpt><trkpt lat="42.978023" lon="11.8679457"><ele>547.0</ele><time>2026-04-09T13:02:09.436Z</time></trkpt><trkpt lat="42.9779452" lon="11.8679927"><ele>547.0</ele><time>2026-04-09T13:02:10.43Z</time></trkpt><trkpt lat="42.977883" lon="11.8680451"><ele>547.0</ele><time>2026-04-09T13:02:11.447Z</time></trkpt><trkpt lat="42.9777756" lon="11.8681386"><ele>547.0</ele><time>2026-04-09T13:02:13.425Z</time></trkpt><trkpt lat="42.9777113" lon="11.8681951"><ele>547.0</ele><time>2026-04-09T13:02:14.43Z</time></trkpt><trkpt lat="42.9776502" lon="11.8682491"><ele>547.0</ele><time>2026-04-09T13:02:15.436Z</time></trkpt><trkpt lat="42.9775577" lon="11.8683445"><ele>547.3333333333334</ele><time>2026-04-09T13:02:17.432Z</time></trkpt><trkpt lat="42.9774973" lon="11.8684009"><ele>547.6666666666667</ele><time>2026-04-09T13:02:18.432Z</time></trkpt><trkpt lat="42.9773664" lon="11.8684773"><ele>548.0</ele><time>2026-04-09T13:02:20.437Z</time></trkpt><trkpt lat="42.9772921" lon="11.8685253"><ele>548.3333333333334</ele><time>2026-04-09T13:02:21.427Z</time></trkpt><trkpt lat="42.9772277" lon="11.8685683"><ele>548.6666666666666</ele><time>2026-04-09T13:02:22.428Z</time></trkpt><trkpt lat="42.9771651" lon="11.8686171"><ele>549.0</ele><time>2026-04-09T13:02:23.428Z</time></trkpt><trkpt lat="42.9771001" lon="11.8686573"><ele>549.0</ele><time>2026-04-09T13:02:24.434Z</time></trkpt><trkpt lat="42.9770426" lon="11.868707"><ele>549.0</ele><time>2026-04-09T13:02:25.421Z</time></trkpt><trkpt lat="42.9769536" lon="11.8687515"><ele>549.0</ele><time>2026-04-09T13:02:27.422Z</time></trkpt><trkpt lat="42.9768494" lon="11.8688156"><ele>549.0</ele><time>2026-04-09T13:02:29.432Z</time></trkpt><trkpt lat="42.976786" lon="11.8688729"><ele>549.0</ele><time>2026-04-09T13:02:30.426Z</time></trkpt><trkpt lat="42.9767145" lon="11.8689234"><ele>549.0</ele><time>2026-04-09T13:02:31.433Z</time></trkpt><trkpt lat="42.9766426" lon="11.8689615"><ele>549.3333333333334</ele><time>2026-04-09T13:02:32.435Z</time></trkpt><trkpt lat="42.9765717" lon="11.8689977"><ele>549.6666666666666</ele><time>2026-04-09T13:02:33.464Z</time></trkpt><trkpt lat="42.9765077" lon="11.8690387"><ele>550.0</ele><time>2026-04-09T13:02:34.43Z</time></trkpt><trkpt lat="42.9764024" lon="11.8690948"><ele>550.3333333333333</ele><time>2026-04-09T13:02:36.433Z</time></trkpt><trkpt lat="42.9763242" lon="11.8691494"><ele>550.6666666666666</ele><time>2026-04-09T13:02:38.437Z</time></trkpt><trkpt lat="42.9762582" lon="11.8691652"><ele>551.0</ele><time>2026-04-09T13:02:45.437Z</time></trkpt><trkpt lat="42.9761552" lon="11.869085"><ele>551.0</ele><time>2026-04-09T13:02:48.423Z</time></trkpt><trkpt lat="42.9760611" lon="11.8690615"><ele>551.0</ele><time>2026-04-09T13:02:49.437Z</time></trkpt><trkpt lat="42.9759378" lon="11.8690271"><ele>551.0</ele><time>2026-04-09T13:02:50.426Z</time></trkpt><trkpt lat="42.9757884" lon="11.8690245"><ele>551.0</ele><time>2026-04-09T13:02:51.427Z</time></trkpt><trkpt lat="42.9756408" lon="11.8690415"><ele>551.0</ele><time>2026-04-09T13:02:52.428Z</time></trkpt><trkpt lat="42.9755129" lon="11.8690812"><ele>551.0</ele><time>2026-04-09T13:02:53.425Z</time></trkpt><trkpt lat="42.9753857" lon="11.869149"><ele>551.0</ele><time>2026-04-09T13:02:54.426Z</time></trkpt><trkpt lat="42.9752495" lon="11.8692272"><ele>551.0</ele><time>2026-04-09T13:02:55.422Z</time></trkpt><trkpt lat="42.9750971" lon="11.869409"><ele>548.6666666666666</ele><time>2026-04-09T13:02:56.424Z</time></trkpt><trkpt lat="42.9748994" lon="11.869576"><ele>546.3333333333334</ele><time>2026-04-09T13:02:57.419Z</time></trkpt><trkpt lat="42.9747232" lon="11.8696504"><ele>544.0</ele><time>2026-04-09T13:02:58.426Z</time></trkpt><trkpt lat="42.9745756" lon="11.8696941"><ele>544.0</ele><time>2026-04-09T13:02:59.428Z</time></trkpt><trkpt lat="42.9744445" lon="11.8697299"><ele>544.0</ele><time>2026-04-09T13:03:00.428Z</time></trkpt><trkpt lat="42.9743101" lon="11.8697764"><ele>544.0</ele><time>2026-04-09T13:03:01.427Z</time></trkpt><trkpt lat="42.9741924" lon="11.8698146"><ele>544.0</ele><time>2026-04-09T13:03:02.427Z</time></trkpt><trkpt lat="42.9740848" lon="11.869878"><ele>543.8</ele><time>2026-04-09T13:03:03.43Z</time></trkpt><trkpt lat="42.9739815" lon="11.8699332"><ele>543.5999999999999</ele><time>2026-04-09T13:03:04.591Z</time></trkpt><trkpt lat="42.9738852" lon="11.8699915"><ele>543.4</ele><time>2026-04-09T13:03:05.584Z</time></trkpt><trkpt lat="42.9738" lon="11.870041"><ele>543.1999999999999</ele><time>2026-04-09T13:03:06.585Z</time></trkpt><trkpt lat="42.9736909" lon="11.8701459"><ele>543.0</ele><time>2026-04-09T13:03:07.583Z</time></trkpt><trkpt lat="42.9735898" lon="11.8702431"><ele>543.0</ele><time>2026-04-09T13:03:08.501Z</time></trkpt><trkpt lat="42.9734589" lon="11.8703894"><ele>543.0</ele><time>2026-04-09T13:03:09.426Z</time></trkpt><trkpt lat="42.9733471" lon="11.8705538"><ele>543.0</ele><time>2026-04-09T13:03:10.422Z</time></trkpt><trkpt lat="42.9732123" lon="11.870683"><ele>544.3333333333334</ele><time>2026-04-09T13:03:11.441Z</time></trkpt><trkpt lat="42.9730582" lon="11.8707924"><ele>545.6666666666667</ele><time>2026-04-09T13:03:12.427Z</time></trkpt><trkpt lat="42.9729202" lon="11.870897"><ele>547.0</ele><time>2026-04-09T13:03:13.42Z</time></trkpt><trkpt lat="42.9728035" lon="11.8710018"><ele>544.0</ele><time>2026-04-09T13:03:14.427Z</time></trkpt><trkpt lat="42.972686" lon="11.8710521"><ele>541.0</ele><time>2026-04-09T13:03:15.421Z</time></trkpt><trkpt lat="42.9725131" lon="11.8711184"><ele>538.0</ele><time>2026-04-09T13:03:16.417Z</time></trkpt><trkpt lat="42.9723407" lon="11.8711799"><ele>538.0</ele><time>2026-04-09T13:03:17.572Z</time></trkpt><trkpt lat="42.9720813" lon="11.8712626"><ele>538.0</ele><time>2026-04-09T13:03:19.457Z</time></trkpt><trkpt lat="42.9719708" lon="11.8713355"><ele>538.0</ele><time>2026-04-09T13:03:20.417Z</time></trkpt><trkpt lat="42.9718693" lon="11.8713926"><ele>538.0</ele><time>2026-04-09T13:03:21.415Z</time></trkpt><trkpt lat="42.9717692" lon="11.8714641"><ele>538.0</ele><time>2026-04-09T13:03:22.429Z</time></trkpt><trkpt lat="42.9716498" lon="11.8715257"><ele>538.0</ele><time>2026-04-09T13:03:23.416Z</time></trkpt><trkpt lat="42.9715105" lon="11.8716004"><ele>538.0</ele><time>2026-04-09T13:03:24.415Z</time></trkpt><trkpt lat="42.9713614" lon="11.8716349"><ele>540.6666666666667</ele><time>2026-04-09T13:03:25.415Z</time></trkpt><trkpt lat="42.971229" lon="11.8716556"><ele>543.3333333333334</ele><time>2026-04-09T13:03:26.415Z</time></trkpt><trkpt lat="42.9710693" lon="11.8716746"><ele>546.0</ele><time>2026-04-09T13:03:27.413Z</time></trkpt><trkpt lat="42.9709212" lon="11.8717496"><ele>545.0</ele><time>2026-04-09T13:03:28.419Z</time></trkpt><trkpt lat="42.9707943" lon="11.8718676"><ele>544.0</ele><time>2026-04-09T13:03:29.411Z</time></trkpt><trkpt lat="42.9706824" lon="11.8720163"><ele>543.0</ele><time>2026-04-09T13:03:30.414Z</time></trkpt><trkpt lat="42.9705819" lon="11.872206"><ele>543.0</ele><time>2026-04-09T13:03:31.412Z</time></trkpt><trkpt lat="42.9704778" lon="11.872431"><ele>543.0</ele><time>2026-04-09T13:03:32.411Z</time></trkpt><trkpt lat="42.9703995" lon="11.8726652"><ele>543.0</ele><time>2026-04-09T13:03:33.406Z</time></trkpt><trkpt lat="42.9703043" lon="11.8729434"><ele>542.3333333333334</ele><time>2026-04-09T13:03:34.414Z</time></trkpt><trkpt lat="42.970211" lon="11.8731268"><ele>541.6666666666667</ele><time>2026-04-09T13:03:35.412Z</time></trkpt><trkpt lat="42.9700946" lon="11.8733067"><ele>541.0</ele><time>2026-04-09T13:03:36.408Z</time></trkpt><trkpt lat="42.9699766" lon="11.8734735"><ele>543.3333333333334</ele><time>2026-04-09T13:03:37.408Z</time></trkpt><trkpt lat="42.9698476" lon="11.8736105"><ele>545.6666666666666</ele><time>2026-04-09T13:03:38.408Z</time></trkpt><trkpt lat="42.9697281" lon="11.8737496"><ele>548.0</ele><time>2026-04-09T13:03:39.408Z</time></trkpt><trkpt lat="42.9695828" lon="11.8738844"><ele>548.0</ele><time>2026-04-09T13:03:40.417Z</time></trkpt><trkpt lat="42.9694519" lon="11.8740282"><ele>548.0</ele><time>2026-04-09T13:03:41.416Z</time></trkpt><trkpt lat="42.9693072" lon="11.8741764"><ele>548.0</ele><time>2026-04-09T13:03:42.414Z</time></trkpt><trkpt lat="42.9691742" lon="11.8743113"><ele>549.0</ele><time>2026-04-09T13:03:43.408Z</time></trkpt><trkpt lat="42.9690616" lon="11.8744585"><ele>550.0</ele><time>2026-04-09T13:03:44.419Z</time></trkpt><trkpt lat="42.9689312" lon="11.874619"><ele>551.0</ele><time>2026-04-09T13:03:45.406Z</time></trkpt><trkpt lat="42.9688395" lon="11.8747777"><ele>551.0</ele><time>2026-04-09T13:03:46.424Z</time></trkpt><trkpt lat="42.9687528" lon="11.874946"><ele>551.0</ele><time>2026-04-09T13:03:47.42Z</time></trkpt><trkpt lat="42.9686672" lon="11.8751225"><ele>551.0</ele><time>2026-04-09T13:03:48.418Z</time></trkpt><trkpt lat="42.9685791" lon="11.8753054"><ele>551.0</ele><time>2026-04-09T13:03:49.416Z</time></trkpt><trkpt lat="42.9684781" lon="11.8754382"><ele>551.0</ele><time>2026-04-09T13:03:50.421Z</time></trkpt><trkpt lat="42.9683724" lon="11.8755945"><ele>551.0</ele><time>2026-04-09T13:03:51.409Z</time></trkpt><trkpt lat="42.9682839" lon="11.8757719"><ele>551.0</ele><time>2026-04-09T13:03:52.405Z</time></trkpt><trkpt lat="42.9681641" lon="11.8759136"><ele>551.0</ele><time>2026-04-09T13:03:53.409Z</time></trkpt><trkpt lat="42.9680458" lon="11.8760391"><ele>551.0</ele><time>2026-04-09T13:03:54.405Z</time></trkpt><trkpt lat="42.9679406" lon="11.8761751"><ele>552.0</ele><time>2026-04-09T13:03:55.413Z</time></trkpt><trkpt lat="42.9678491" lon="11.8762978"><ele>553.0</ele><time>2026-04-09T13:03:56.423Z</time></trkpt><trkpt lat="42.9677366" lon="11.8764159"><ele>554.0</ele><time>2026-04-09T13:03:57.413Z</time></trkpt><trkpt lat="42.9676264" lon="11.8764882"><ele>555.0</ele><time>2026-04-09T13:03:58.429Z</time></trkpt><trkpt lat="42.9674948" lon="11.8765907"><ele>555.0</ele><time>2026-04-09T13:03:59.409Z</time></trkpt><trkpt lat="42.9673843" lon="11.8766484"><ele>555.0</ele><time>2026-04-09T13:04:00.415Z</time></trkpt><trkpt lat="42.9672355" lon="11.8766928"><ele>555.0</ele><time>2026-04-09T13:04:01.419Z</time></trkpt><trkpt lat="42.9670918" lon="11.8766736"><ele>555.0</ele><time>2026-04-09T13:04:02.418Z</time></trkpt><trkpt lat="42.9669794" lon="11.876622"><ele>555.0</ele><time>2026-04-09T13:04:03.402Z</time></trkpt><trkpt lat="42.9668485" lon="11.8764761"><ele>555.0</ele><time>2026-04-09T13:04:04.424Z</time></trkpt><trkpt lat="42.9667608" lon="11.8763222"><ele>555.0</ele><time>2026-04-09T13:04:05.406Z</time></trkpt><trkpt lat="42.9666371" lon="11.8761851"><ele>556.75</ele><time>2026-04-09T13:04:06.417Z</time></trkpt><trkpt lat="42.966559" lon="11.8760613"><ele>558.5</ele><time>2026-04-09T13:04:07.407Z</time></trkpt><trkpt lat="42.9664567" lon="11.8759839"><ele>560.25</ele><time>2026-04-09T13:04:08.413Z</time></trkpt><trkpt lat="42.9663255" lon="11.876062"><ele>562.0</ele><time>2026-04-09T13:04:10.42Z</time></trkpt><trkpt lat="42.9662209" lon="11.8762506"><ele>562.0</ele><time>2026-04-09T13:04:11.42Z</time></trkpt><trkpt lat="42.9661173" lon="11.8763996"><ele>562.0</ele><time>2026-04-09T13:04:12.399Z</time></trkpt><trkpt lat="42.9660279" lon="11.8765606"><ele>562.0</ele><time>2026-04-09T13:04:13.407Z</time></trkpt><trkpt lat="42.965928" lon="11.8766791"><ele>562.0</ele><time>2026-04-09T13:04:14.406Z</time></trkpt><trkpt lat="42.9658166" lon="11.8767755"><ele>561.25</ele><time>2026-04-09T13:04:15.409Z</time></trkpt><trkpt lat="42.9656711" lon="11.8768684"><ele>560.5</ele><time>2026-04-09T13:04:16.402Z</time></trkpt><trkpt lat="42.9655293" lon="11.8768996"><ele>559.75</ele><time>2026-04-09T13:04:17.406Z</time></trkpt><trkpt lat="42.9653911" lon="11.8769571"><ele>559.0</ele><time>2026-04-09T13:04:18.413Z</time></trkpt><trkpt lat="42.9652499" lon="11.8770075"><ele>559.0</ele><time>2026-04-09T13:04:19.41Z</time></trkpt><trkpt lat="42.9651365" lon="11.8771407"><ele>559.0</ele><time>2026-04-09T13:04:20.412Z</time></trkpt><trkpt lat="42.9649669" lon="11.8773024"><ele>559.0</ele><time>2026-04-09T13:04:21.411Z</time></trkpt><trkpt lat="42.9647973" lon="11.8774871"><ele>559.6666666666667</ele><time>2026-04-09T13:04:22.408Z</time></trkpt><trkpt lat="42.9646352" lon="11.8776272"><ele>560.3333333333334</ele><time>2026-04-09T13:04:23.411Z</time></trkpt><trkpt lat="42.9644554" lon="11.8777451"><ele>561.0</ele><time>2026-04-09T13:04:24.401Z</time></trkpt><trkpt lat="42.964263" lon="11.8778877"><ele>563.6666666666666</ele><time>2026-04-09T13:04:25.412Z</time></trkpt><trkpt lat="42.9640979" lon="11.8779622"><ele>566.3333333333333</ele><time>2026-04-09T13:04:26.484Z</time></trkpt><trkpt lat="42.963907" lon="11.8780332"><ele>569.0</ele><time>2026-04-09T13:04:27.571Z</time></trkpt><trkpt lat="42.9637112" lon="11.878137"><ele>569.0</ele><time>2026-04-09T13:04:28.564Z</time></trkpt><trkpt lat="42.9635168" lon="11.8782633"><ele>569.0</ele><time>2026-04-09T13:04:29.572Z</time></trkpt><trkpt lat="42.9633029" lon="11.8785435"><ele>568.0</ele><time>2026-04-09T13:04:31.454Z</time></trkpt><trkpt lat="42.9632203" lon="11.8787555"><ele>567.0</ele><time>2026-04-09T13:04:32.407Z</time></trkpt><trkpt lat="42.9630889" lon="11.878972"><ele>566.0</ele><time>2026-04-09T13:04:33.455Z</time></trkpt><trkpt lat="42.9629674" lon="11.8791454"><ele>565.6666666666666</ele><time>2026-04-09T13:04:34.405Z</time></trkpt><trkpt lat="42.9628064" lon="11.8792813"><ele>565.3333333333334</ele><time>2026-04-09T13:04:35.404Z</time></trkpt><trkpt lat="42.962648" lon="11.8794329"><ele>565.0</ele><time>2026-04-09T13:04:36.417Z</time></trkpt><trkpt lat="42.9625111" lon="11.8795884"><ele>565.0</ele><time>2026-04-09T13:04:37.445Z</time></trkpt><trkpt lat="42.9623662" lon="11.8797389"><ele>565.0</ele><time>2026-04-09T13:04:38.43Z</time></trkpt><trkpt lat="42.9622344" lon="11.8799469"><ele>565.0</ele><time>2026-04-09T13:04:39.434Z</time></trkpt><trkpt lat="42.962096" lon="11.8801222"><ele>565.3333333333334</ele><time>2026-04-09T13:04:40.406Z</time></trkpt><trkpt lat="42.9619629" lon="11.8802811"><ele>565.6666666666666</ele><time>2026-04-09T13:04:41.414Z</time></trkpt><trkpt lat="42.9617865" lon="11.8804144"><ele>566.0</ele><time>2026-04-09T13:04:42.425Z</time></trkpt><trkpt lat="42.9615852" lon="11.8805482"><ele>566.0</ele><time>2026-04-09T13:04:43.409Z</time></trkpt><trkpt lat="42.9613548" lon="11.8807067"><ele>566.0</ele><time>2026-04-09T13:04:44.415Z</time></trkpt><trkpt lat="42.9611278" lon="11.8808216"><ele>565.3333333333333</ele><time>2026-04-09T13:04:45.419Z</time></trkpt><trkpt lat="42.9609227" lon="11.880959"><ele>564.6666666666666</ele><time>2026-04-09T13:04:46.418Z</time></trkpt><trkpt lat="42.960756" lon="11.8811149"><ele>564.0</ele><time>2026-04-09T13:04:47.425Z</time></trkpt><trkpt lat="42.9606009" lon="11.8812845"><ele>564.0</ele><time>2026-04-09T13:04:48.445Z</time></trkpt><trkpt lat="42.9604357" lon="11.8814398"><ele>564.0</ele><time>2026-04-09T13:04:49.407Z</time></trkpt><trkpt lat="42.9602735" lon="11.8815899"><ele>564.0</ele><time>2026-04-09T13:04:50.415Z</time></trkpt><trkpt lat="42.9601097" lon="11.8817264"><ele>561.0</ele><time>2026-04-09T13:04:51.417Z</time></trkpt><trkpt lat="42.9599466" lon="11.8818401"><ele>558.0</ele><time>2026-04-09T13:04:52.415Z</time></trkpt><trkpt lat="42.95978" lon="11.8819785"><ele>555.0</ele><time>2026-04-09T13:04:53.428Z</time></trkpt><trkpt lat="42.9596225" lon="11.8820342"><ele>555.0</ele><time>2026-04-09T13:04:54.427Z</time></trkpt><trkpt lat="42.9594828" lon="11.8820978"><ele>555.0</ele><time>2026-04-09T13:04:55.417Z</time></trkpt><trkpt lat="42.9593227" lon="11.8821121"><ele>555.0</ele><time>2026-04-09T13:04:56.422Z</time></trkpt><trkpt lat="42.9591581" lon="11.8820601"><ele>557.0</ele><time>2026-04-09T13:04:57.419Z</time></trkpt><trkpt lat="42.9590041" lon="11.8819944"><ele>559.0</ele><time>2026-04-09T13:04:58.416Z</time></trkpt><trkpt lat="42.9588326" lon="11.881893"><ele>561.0</ele><time>2026-04-09T13:04:59.412Z</time></trkpt><trkpt lat="42.9586663" lon="11.8818036"><ele>563.25</ele><time>2026-04-09T13:05:00.408Z</time></trkpt><trkpt lat="42.9585187" lon="11.8817578"><ele>565.5</ele><time>2026-04-09T13:05:01.411Z</time></trkpt><trkpt lat="42.958387" lon="11.8817209"><ele>567.75</ele><time>2026-04-09T13:05:02.42Z</time></trkpt><trkpt lat="42.9582887" lon="11.8817181"><ele>570.0</ele><time>2026-04-09T13:05:03.418Z</time></trkpt><trkpt lat="42.9582736" lon="11.8818171"><ele>570.0</ele><time>2026-04-09T13:05:04.402Z</time></trkpt><trkpt lat="42.9582536" lon="11.8820213"><ele>570.0</ele><time>2026-04-09T13:05:05.411Z</time></trkpt><trkpt lat="42.958154" lon="11.8822801"><ele>570.0</ele><time>2026-04-09T13:05:06.413Z</time></trkpt><trkpt lat="42.9580104" lon="11.8824917"><ele>568.2</ele><time>2026-04-09T13:05:07.396Z</time></trkpt><trkpt lat="42.957959" lon="11.8826438"><ele>566.4</ele><time>2026-04-09T13:05:08.405Z</time></trkpt><trkpt lat="42.957898" lon="11.8826707"><ele>564.6</ele><time>2026-04-09T13:05:09.41Z</time></trkpt><trkpt lat="42.9577818" lon="11.8827346"><ele>562.8</ele><time>2026-04-09T13:05:10.401Z</time></trkpt><trkpt lat="42.9577132" lon="11.8828165"><ele>561.0</ele><time>2026-04-09T13:05:11.411Z</time></trkpt><trkpt lat="42.957635" lon="11.8828847"><ele>566.3333333333334</ele><time>2026-04-09T13:05:12.424Z</time></trkpt><trkpt lat="42.9575146" lon="11.8830126"><ele>571.6666666666667</ele><time>2026-04-09T13:05:13.408Z</time></trkpt><trkpt lat="42.9573936" lon="11.8831345"><ele>577.0</ele><time>2026-04-09T13:05:14.414Z</time></trkpt><trkpt lat="42.9572405" lon="11.8832072"><ele>577.0</ele><time>2026-04-09T13:05:15.413Z</time></trkpt><trkpt lat="42.9570608" lon="11.8833007"><ele>577.0</ele><time>2026-04-09T13:05:16.424Z</time></trkpt><trkpt lat="42.9569033" lon="11.883459"><ele>577.0</ele><time>2026-04-09T13:05:17.421Z</time></trkpt><trkpt lat="42.9567914" lon="11.8836497"><ele>579.0</ele><time>2026-04-09T13:05:18.417Z</time></trkpt><trkpt lat="42.9566835" lon="11.8838299"><ele>581.0</ele><time>2026-04-09T13:05:19.469Z</time></trkpt><trkpt lat="42.956588" lon="11.8839838"><ele>583.0</ele><time>2026-04-09T13:05:20.408Z</time></trkpt><trkpt lat="42.9565207" lon="11.8841304"><ele>585.0</ele><time>2026-04-09T13:05:21.422Z</time></trkpt><trkpt lat="42.9564612" lon="11.8842656"><ele>579.3333333333334</ele><time>2026-04-09T13:05:22.413Z</time></trkpt><trkpt lat="42.9563875" lon="11.884413"><ele>573.6666666666667</ele><time>2026-04-09T13:05:23.583Z</time></trkpt><trkpt lat="42.9562046" lon="11.8846492"><ele>568.0</ele><time>2026-04-09T13:05:25.422Z</time></trkpt><trkpt lat="42.956124" lon="11.884741"><ele>568.0</ele><time>2026-04-09T13:05:26.422Z</time></trkpt><trkpt lat="42.9560285" lon="11.8848082"><ele>568.0</ele><time>2026-04-09T13:05:27.419Z</time></trkpt><trkpt lat="42.9559252" lon="11.8848646"><ele>568.0</ele><time>2026-04-09T13:05:28.422Z</time></trkpt><trkpt lat="42.9558069" lon="11.884922"><ele>568.0</ele><time>2026-04-09T13:05:29.418Z</time></trkpt><trkpt lat="42.9556974" lon="11.8850147"><ele>566.25</ele><time>2026-04-09T13:05:30.413Z</time></trkpt><trkpt lat="42.9555981" lon="11.8851228"><ele>564.5</ele><time>2026-04-09T13:05:31.41Z</time></trkpt><trkpt lat="42.9554737" lon="11.8852138"><ele>562.75</ele><time>2026-04-09T13:05:32.407Z</time></trkpt><trkpt lat="42.9553415" lon="11.8852821"><ele>561.0</ele><time>2026-04-09T13:05:33.413Z</time></trkpt><trkpt lat="42.9552155" lon="11.8853274"><ele>561.0</ele><time>2026-04-09T13:05:34.408Z</time></trkpt><trkpt lat="42.9550849" lon="11.8853746"><ele>561.0</ele><time>2026-04-09T13:05:35.417Z</time></trkpt><trkpt lat="42.9549661" lon="11.8854416"><ele>561.0</ele><time>2026-04-09T13:05:36.415Z</time></trkpt><trkpt lat="42.9548553" lon="11.8855156"><ele>561.0</ele><time>2026-04-09T13:05:37.421Z</time></trkpt><trkpt lat="42.9547267" lon="11.8855953"><ele>561.5</ele><time>2026-04-09T13:05:38.41Z</time></trkpt><trkpt lat="42.9545982" lon="11.8856512"><ele>562.0</ele><time>2026-04-09T13:05:39.484Z</time></trkpt><trkpt lat="42.9544745" lon="11.8857271"><ele>562.5</ele><time>2026-04-09T13:05:40.41Z</time></trkpt><trkpt lat="42.9543508" lon="11.8857762"><ele>563.0</ele><time>2026-04-09T13:05:41.412Z</time></trkpt><trkpt lat="42.9542069" lon="11.8857712"><ele>562.6666666666666</ele><time>2026-04-09T13:05:42.426Z</time></trkpt><trkpt lat="42.954044" lon="11.8857509"><ele>562.3333333333334</ele><time>2026-04-09T13:05:43.416Z</time></trkpt><trkpt lat="42.953867" lon="11.8857188"><ele>562.0</ele><time>2026-04-09T13:05:44.418Z</time></trkpt><trkpt lat="42.9537131" lon="11.8856394"><ele>562.0</ele><time>2026-04-09T13:05:45.417Z</time></trkpt><trkpt lat="42.9535833" lon="11.885592"><ele>562.0</ele><time>2026-04-09T13:05:46.421Z</time></trkpt><trkpt lat="42.9534565" lon="11.8855513"><ele>562.0</ele><time>2026-04-09T13:05:47.418Z</time></trkpt><trkpt lat="42.9533376" lon="11.8854908"><ele>562.0</ele><time>2026-04-09T13:05:48.424Z</time></trkpt><trkpt lat="42.9532119" lon="11.8854014"><ele>560.25</ele><time>2026-04-09T13:05:49.409Z</time></trkpt><trkpt lat="42.9531114" lon="11.8853174"><ele>558.5</ele><time>2026-04-09T13:05:50.422Z</time></trkpt><trkpt lat="42.9530059" lon="11.8852303"><ele>556.75</ele><time>2026-04-09T13:05:51.41Z</time></trkpt><trkpt lat="42.9528811" lon="11.8851727"><ele>555.0</ele><time>2026-04-09T13:05:52.413Z</time></trkpt><trkpt lat="42.9527492" lon="11.8851537"><ele>555.0</ele><time>2026-04-09T13:05:53.418Z</time></trkpt><trkpt lat="42.9526202" lon="11.885194"><ele>555.0</ele><time>2026-04-09T13:05:54.413Z</time></trkpt><trkpt lat="42.9525012" lon="11.8852568"><ele>555.0</ele><time>2026-04-09T13:05:55.419Z</time></trkpt><trkpt lat="42.9523788" lon="11.8853259"><ele>555.0</ele><time>2026-04-09T13:05:56.416Z</time></trkpt><trkpt lat="42.9522607" lon="11.8853906"><ele>551.25</ele><time>2026-04-09T13:05:57.42Z</time></trkpt><trkpt lat="42.9521338" lon="11.8854688"><ele>547.5</ele><time>2026-04-09T13:05:58.411Z</time></trkpt><trkpt lat="42.9520005" lon="11.885547"><ele>543.75</ele><time>2026-04-09T13:05:59.496Z</time></trkpt><trkpt lat="42.9518541" lon="11.8856401"><ele>540.0</ele><time>2026-04-09T13:06:00.423Z</time></trkpt><trkpt lat="42.9516636" lon="11.8857209"><ele>538.25</ele><time>2026-04-09T13:06:01.41Z</time></trkpt><trkpt lat="42.951508" lon="11.8857701"><ele>536.5</ele><time>2026-04-09T13:06:02.418Z</time></trkpt><trkpt lat="42.951365" lon="11.885818"><ele>534.75</ele><time>2026-04-09T13:06:03.423Z</time></trkpt><trkpt lat="42.9512298" lon="11.885877"><ele>533.0</ele><time>2026-04-09T13:06:04.408Z</time></trkpt><trkpt lat="42.9510998" lon="11.885919"><ele>532.8</ele><time>2026-04-09T13:06:05.425Z</time></trkpt><trkpt lat="42.9509893" lon="11.8859428"><ele>532.5999999999999</ele><time>2026-04-09T13:06:06.422Z</time></trkpt><trkpt lat="42.9509124" lon="11.8859582"><ele>532.4000000000001</ele><time>2026-04-09T13:06:07.416Z</time></trkpt><trkpt lat="42.9508379" lon="11.8860264"><ele>532.2</ele><time>2026-04-09T13:06:10.42Z</time></trkpt><trkpt lat="42.9508268" lon="11.8861585"><ele>532.0</ele><time>2026-04-09T13:06:13.419Z</time></trkpt><trkpt lat="42.9508593" lon="11.8862525"><ele>532.0</ele><time>2026-04-09T13:06:14.431Z</time></trkpt><trkpt lat="42.9509118" lon="11.8863781"><ele>532.0</ele><time>2026-04-09T13:06:15.423Z</time></trkpt><trkpt lat="42.9509657" lon="11.8865155"><ele>532.0</ele><time>2026-04-09T13:06:16.423Z</time></trkpt><trkpt lat="42.9510215" lon="11.8866527"><ele>532.0</ele><time>2026-04-09T13:06:17.42Z</time></trkpt><trkpt lat="42.9510858" lon="11.8867864"><ele>534.2</ele><time>2026-04-09T13:06:18.422Z</time></trkpt><trkpt lat="42.9511427" lon="11.8869071"><ele>536.4000000000001</ele><time>2026-04-09T13:06:19.418Z</time></trkpt><trkpt lat="42.9511908" lon="11.8870232"><ele>538.5999999999999</ele><time>2026-04-09T13:06:20.422Z</time></trkpt><trkpt lat="42.9512229" lon="11.8871376"><ele>540.8</ele><time>2026-04-09T13:06:21.414Z</time></trkpt><trkpt lat="42.9512447" lon="11.887251"><ele>543.0</ele><time>2026-04-09T13:06:22.422Z</time></trkpt><trkpt lat="42.951243" lon="11.8873573"><ele>543.0</ele><time>2026-04-09T13:06:23.423Z</time></trkpt><trkpt lat="42.9512288" lon="11.887468"><ele>543.0</ele><time>2026-04-09T13:06:24.412Z</time></trkpt><trkpt lat="42.9511697" lon="11.8875746"><ele>543.0</ele><time>2026-04-09T13:06:25.418Z</time></trkpt><trkpt lat="42.9511067" lon="11.887667"><ele>543.0</ele><time>2026-04-09T13:06:26.419Z</time></trkpt><trkpt lat="42.9510477" lon="11.887751"><ele>543.0</ele><time>2026-04-09T13:06:27.42Z</time></trkpt><trkpt lat="42.9509762" lon="11.8878274"><ele>543.0</ele><time>2026-04-09T13:06:28.416Z</time></trkpt><trkpt lat="42.9508969" lon="11.8878927"><ele>541.4</ele><time>2026-04-09T13:06:29.415Z</time></trkpt><trkpt lat="42.9508256" lon="11.8879869"><ele>539.8</ele><time>2026-04-09T13:06:30.417Z</time></trkpt><trkpt lat="42.9507519" lon="11.8880865"><ele>538.2</ele><time>2026-04-09T13:06:31.409Z</time></trkpt><trkpt lat="42.9506892" lon="11.8881827"><ele>536.6</ele><time>2026-04-09T13:06:32.423Z</time></trkpt><trkpt lat="42.9506114" lon="11.8882568"><ele>535.0</ele><time>2026-04-09T13:06:33.415Z</time></trkpt><trkpt lat="42.9505339" lon="11.8883398"><ele>536.2</ele><time>2026-04-09T13:06:34.417Z</time></trkpt><trkpt lat="42.9504512" lon="11.8884316"><ele>537.4</ele><time>2026-04-09T13:06:35.412Z</time></trkpt><trkpt lat="42.9503767" lon="11.8885227"><ele>538.6</ele><time>2026-04-09T13:06:36.416Z</time></trkpt><trkpt lat="42.950306" lon="11.8886136"><ele>539.8</ele><time>2026-04-09T13:06:37.411Z</time></trkpt><trkpt lat="42.9502446" lon="11.8887014"><ele>541.0</ele><time>2026-04-09T13:06:38.416Z</time></trkpt><trkpt lat="42.950189" lon="11.8887815"><ele>541.0</ele><time>2026-04-09T13:06:39.414Z</time></trkpt><trkpt lat="42.9501314" lon="11.8888593"><ele>541.0</ele><time>2026-04-09T13:06:40.413Z</time></trkpt><trkpt lat="42.9500673" lon="11.8889442"><ele>541.0</ele><time>2026-04-09T13:06:41.415Z</time></trkpt><trkpt lat="42.9500036" lon="11.8890268"><ele>541.0</ele><time>2026-04-09T13:06:42.419Z</time></trkpt><trkpt lat="42.9499369" lon="11.8891222"><ele>541.0</ele><time>2026-04-09T13:06:43.415Z</time></trkpt><trkpt lat="42.9498774" lon="11.8892251"><ele>537.1666666666667</ele><time>2026-04-09T13:06:44.408Z</time></trkpt><trkpt lat="42.94982" lon="11.8893186"><ele>533.3333333333334</ele><time>2026-04-09T13:06:45.413Z</time></trkpt><trkpt lat="42.9497806" lon="11.8894062"><ele>529.5</ele><time>2026-04-09T13:06:46.412Z</time></trkpt><trkpt lat="42.949735" lon="11.889499"><ele>525.6666666666666</ele><time>2026-04-09T13:06:47.408Z</time></trkpt><trkpt lat="42.9496965" lon="11.8895997"><ele>521.8333333333333</ele><time>2026-04-09T13:06:48.415Z</time></trkpt><trkpt lat="42.9496659" lon="11.8896961"><ele>518.0</ele><time>2026-04-09T13:06:49.416Z</time></trkpt><trkpt lat="42.9496405" lon="11.8897884"><ele>518.0</ele><time>2026-04-09T13:06:50.411Z</time></trkpt><trkpt lat="42.9496157" lon="11.8898753"><ele>518.0</ele><time>2026-04-09T13:06:51.412Z</time></trkpt><trkpt lat="42.9495953" lon="11.8899604"><ele>518.0</ele><time>2026-04-09T13:06:52.413Z</time></trkpt><trkpt lat="42.9495814" lon="11.8900476"><ele>518.0</ele><time>2026-04-09T13:06:53.412Z</time></trkpt><trkpt lat="42.9495721" lon="11.8901401"><ele>518.0</ele><time>2026-04-09T13:06:54.419Z</time></trkpt><trkpt lat="42.9495624" lon="11.8902371"><ele>518.0</ele><time>2026-04-09T13:06:55.417Z</time></trkpt><trkpt lat="42.9495523" lon="11.8903281"><ele>518.0</ele><time>2026-04-09T13:06:56.411Z</time></trkpt><trkpt lat="42.9495461" lon="11.890415"><ele>517.1666666666666</ele><time>2026-04-09T13:06:57.419Z</time></trkpt><trkpt lat="42.9495433" lon="11.8905028"><ele>516.3333333333333</ele><time>2026-04-09T13:06:58.408Z</time></trkpt><trkpt lat="42.9495453" lon="11.8905995"><ele>515.5</ele><time>2026-04-09T13:06:59.412Z</time></trkpt><trkpt lat="42.9495587" lon="11.8906962"><ele>514.6666666666666</ele><time>2026-04-09T13:07:00.418Z</time></trkpt><trkpt lat="42.9496013" lon="11.8908537"><ele>513.8333333333334</ele><time>2026-04-09T13:07:02.422Z</time></trkpt><trkpt lat="42.9496453" lon="11.8909707"><ele>513.0</ele><time>2026-04-09T13:07:04.422Z</time></trkpt><trkpt lat="42.9496652" lon="11.8910537"><ele>511.1666666666667</ele><time>2026-04-09T13:07:22.427Z</time></trkpt><trkpt lat="42.9496566" lon="11.8911448"><ele>509.33333333333337</ele><time>2026-04-09T13:07:57.37Z</time></trkpt><trkpt lat="42.9496905" lon="11.8912192"><ele>507.5</ele><time>2026-04-09T13:08:18.418Z</time></trkpt><trkpt lat="42.9497328" lon="11.8913194"><ele>505.6666666666667</ele><time>2026-04-09T13:08:22.423Z</time></trkpt><trkpt lat="42.9497508" lon="11.8914245"><ele>503.83333333333337</ele><time>2026-04-09T13:08:25.417Z</time></trkpt><trkpt lat="42.9497748" lon="11.8915539"><ele>502.0</ele><time>2026-04-09T13:08:28.412Z</time></trkpt><trkpt lat="42.949784" lon="11.8916845"><ele>498.0</ele><time>2026-04-09T13:08:31.417Z</time></trkpt><trkpt lat="42.9498075" lon="11.8917903"><ele>494.00000000000006</ele><time>2026-04-09T13:08:33.427Z</time></trkpt><trkpt lat="42.9498307" lon="11.8918942"><ele>490.00000000000006</ele><time>2026-04-09T13:08:35.424Z</time></trkpt><trkpt lat="42.9498665" lon="11.8920057"><ele>486.0</ele><time>2026-04-09T13:08:37.423Z</time></trkpt><trkpt lat="42.9499034" lon="11.8921484"><ele>482.0</ele><time>2026-04-09T13:08:39.416Z</time></trkpt><trkpt lat="42.9499432" lon="11.8922725"><ele>481.99999999999994</ele><time>2026-04-09T13:08:41.43Z</time></trkpt><trkpt lat="42.9499732" lon="11.8923778"><ele>482.0</ele><time>2026-04-09T13:08:43.446Z</time></trkpt><trkpt lat="42.9499961" lon="11.8924701"><ele>482.0</ele><time>2026-04-09T13:08:45.42Z</time></trkpt><trkpt lat="42.9500631" lon="11.8925471"><ele>482.0</ele><time>2026-04-09T13:08:47.421Z</time></trkpt><trkpt lat="42.9501616" lon="11.8926114"><ele>481.99999999999994</ele><time>2026-04-09T13:08:49.425Z</time></trkpt><trkpt lat="42.9502296" lon="11.8926388"><ele>482.0</ele><time>2026-04-09T13:08:50.421Z</time></trkpt><trkpt lat="42.9502898" lon="11.892676"><ele>480.8</ele><time>2026-04-09T13:08:51.421Z</time></trkpt><trkpt lat="42.950343" lon="11.8927269"><ele>479.6</ele><time>2026-04-09T13:08:52.427Z</time></trkpt><trkpt lat="42.9504356" lon="11.8928309"><ele>478.40000000000003</ele><time>2026-04-09T13:08:54.418Z</time></trkpt><trkpt lat="42.950517" lon="11.8929479"><ele>477.20000000000005</ele><time>2026-04-09T13:08:56.422Z</time></trkpt><trkpt lat="42.9505927" lon="11.8930179"><ele>476.0</ele><time>2026-04-09T13:08:58.424Z</time></trkpt><trkpt lat="42.9506885" lon="11.8930536"><ele>475.99999999999994</ele><time>2026-04-09T13:09:00.427Z</time></trkpt><trkpt lat="42.9507845" lon="11.8930627"><ele>476.0</ele><time>2026-04-09T13:09:02.422Z</time></trkpt><trkpt lat="42.95085" lon="11.8930796"><ele>476.0</ele><time>2026-04-09T13:09:03.429Z</time></trkpt><trkpt lat="42.9509555" lon="11.8931303"><ele>476.0</ele><time>2026-04-09T13:09:05.432Z</time></trkpt><trkpt lat="42.9510132" lon="11.8931677"><ele>475.99999999999994</ele><time>2026-04-09T13:09:06.421Z</time></trkpt><trkpt lat="42.9510887" lon="11.8932233"><ele>476.0</ele><time>2026-04-09T13:09:07.416Z</time></trkpt><trkpt lat="42.9511837" lon="11.8932984"><ele>476.0</ele><time>2026-04-09T13:09:08.425Z</time></trkpt><trkpt lat="42.9512688" lon="11.8933846"><ele>476.0</ele><time>2026-04-09T13:09:09.414Z</time></trkpt><trkpt lat="42.9513447" lon="11.893466"><ele>476.0</ele><time>2026-04-09T13:09:10.433Z</time></trkpt><trkpt lat="42.9514249" lon="11.8935452"><ele>476.0</ele><time>2026-04-09T13:09:11.427Z</time></trkpt><trkpt lat="42.9515012" lon="11.8936155"><ele>476.0</ele><time>2026-04-09T13:09:12.419Z</time></trkpt><trkpt lat="42.9515722" lon="11.8936927"><ele>473.6</ele><time>2026-04-09T13:09:13.453Z</time></trkpt><trkpt lat="42.9516447" lon="11.8937832"><ele>471.20000000000005</ele><time>2026-04-09T13:09:14.43Z</time></trkpt><trkpt lat="42.9517112" lon="11.8938811"><ele>468.79999999999995</ele><time>2026-04-09T13:09:15.426Z</time></trkpt><trkpt lat="42.9517811" lon="11.8939742"><ele>466.4</ele><time>2026-04-09T13:09:16.432Z</time></trkpt><trkpt lat="42.9518484" lon="11.8940602"><ele>464.0</ele><time>2026-04-09T13:09:17.434Z</time></trkpt><trkpt lat="42.9519072" lon="11.8941378"><ele>463.99999999999994</ele><time>2026-04-09T13:09:18.432Z</time></trkpt><trkpt lat="42.9519651" lon="11.8942149"><ele>464.0</ele><time>2026-04-09T13:09:19.433Z</time></trkpt><trkpt lat="42.952023" lon="11.8942891"><ele>464.0</ele><time>2026-04-09T13:09:20.431Z</time></trkpt><trkpt lat="42.9520781" lon="11.8943545"><ele>464.0</ele><time>2026-04-09T13:09:21.423Z</time></trkpt><trkpt lat="42.9521318" lon="11.8944219"><ele>463.99999999999994</ele><time>2026-04-09T13:09:22.439Z</time></trkpt><trkpt lat="42.9521888" lon="11.8944854"><ele>464.0</ele><time>2026-04-09T13:09:23.43Z</time></trkpt><trkpt lat="42.9522955" lon="11.8945509"><ele>462.6</ele><time>2026-04-09T13:09:25.431Z</time></trkpt><trkpt lat="42.9523931" lon="11.8945331"><ele>461.2</ele><time>2026-04-09T13:09:27.43Z</time></trkpt><trkpt lat="42.9524601" lon="11.8944869"><ele>459.80000000000007</ele><time>2026-04-09T13:09:28.427Z</time></trkpt><trkpt lat="42.9525518" lon="11.8944161"><ele>458.40000000000003</ele><time>2026-04-09T13:09:29.428Z</time></trkpt><trkpt lat="42.9526586" lon="11.8943469"><ele>457.0</ele><time>2026-04-09T13:09:30.432Z</time></trkpt><trkpt lat="42.9527845" lon="11.8942903"><ele>457.5</ele><time>2026-04-09T13:09:31.415Z</time></trkpt><trkpt lat="42.9529045" lon="11.8942196"><ele>458.0</ele><time>2026-04-09T13:09:32.423Z</time></trkpt><trkpt lat="42.953016" lon="11.8941661"><ele>458.5</ele><time>2026-04-09T13:09:33.417Z</time></trkpt><trkpt lat="42.9531324" lon="11.8941138"><ele>459.0</ele><time>2026-04-09T13:09:34.418Z</time></trkpt><trkpt lat="42.9532502" lon="11.8940623"><ele>459.0</ele><time>2026-04-09T13:09:35.501Z</time></trkpt><trkpt lat="42.9533662" lon="11.8940181"><ele>459.0</ele><time>2026-04-09T13:09:36.426Z</time></trkpt><trkpt lat="42.9534846" lon="11.8939817"><ele>459.0</ele><time>2026-04-09T13:09:37.421Z</time></trkpt><trkpt lat="42.953596" lon="11.8939417"><ele>459.0</ele><time>2026-04-09T13:09:38.428Z</time></trkpt><trkpt lat="42.9536979" lon="11.8938944"><ele>457.79999999999995</ele><time>2026-04-09T13:09:39.418Z</time></trkpt><trkpt lat="42.9538031" lon="11.8938619"><ele>456.59999999999997</ele><time>2026-04-09T13:09:40.419Z</time></trkpt><trkpt lat="42.9539208" lon="11.8938394"><ele>455.4</ele><time>2026-04-09T13:09:41.421Z</time></trkpt><trkpt lat="42.9540239" lon="11.893812"><ele>454.2</ele><time>2026-04-09T13:09:42.417Z</time></trkpt><trkpt lat="42.9541217" lon="11.8937813"><ele>453.0</ele><time>2026-04-09T13:09:43.435Z</time></trkpt><trkpt lat="42.9542176" lon="11.8937577"><ele>451.4</ele><time>2026-04-09T13:09:44.425Z</time></trkpt><trkpt lat="42.9543133" lon="11.8937283"><ele>449.79999999999995</ele><time>2026-04-09T13:09:45.421Z</time></trkpt><trkpt lat="42.9544175" lon="11.8937323"><ele>448.2</ele><time>2026-04-09T13:09:46.412Z</time></trkpt><trkpt lat="42.9545281" lon="11.8937497"><ele>446.6</ele><time>2026-04-09T13:09:47.423Z</time></trkpt><trkpt lat="42.9546465" lon="11.8937817"><ele>445.0</ele><time>2026-04-09T13:09:48.413Z</time></trkpt><trkpt lat="42.9547579" lon="11.8938177"><ele>445.0</ele><time>2026-04-09T13:09:49.418Z</time></trkpt><trkpt lat="42.9548657" lon="11.8938534"><ele>445.0</ele><time>2026-04-09T13:09:50.416Z</time></trkpt><trkpt lat="42.9549709" lon="11.8938916"><ele>445.0</ele><time>2026-04-09T13:09:51.408Z</time></trkpt><trkpt lat="42.9550751" lon="11.8939274"><ele>445.0</ele><time>2026-04-09T13:09:52.41Z</time></trkpt><trkpt lat="42.9551935" lon="11.8939857"><ele>445.0</ele><time>2026-04-09T13:09:53.416Z</time></trkpt><trkpt lat="42.955318" lon="11.8940376"><ele>445.0</ele><time>2026-04-09T13:09:54.417Z</time></trkpt><trkpt lat="42.9554373" lon="11.8940834"><ele>445.0</ele><time>2026-04-09T13:09:55.415Z</time></trkpt><trkpt lat="42.9555415" lon="11.8941191"><ele>445.0</ele><time>2026-04-09T13:09:56.419Z</time></trkpt><trkpt lat="42.9556521" lon="11.894157"><ele>445.0</ele><time>2026-04-09T13:09:57.415Z</time></trkpt><trkpt lat="42.95577" lon="11.8941983"><ele>445.0</ele><time>2026-04-09T13:09:58.418Z</time></trkpt><trkpt lat="42.9558732" lon="11.8942369"><ele>445.0</ele><time>2026-04-09T13:09:59.42Z</time></trkpt><trkpt lat="42.9559673" lon="11.8942745"><ele>445.0</ele><time>2026-04-09T13:10:00.417Z</time></trkpt><trkpt lat="42.9560685" lon="11.8943138"><ele>445.0</ele><time>2026-04-09T13:10:01.423Z</time></trkpt><trkpt lat="42.9561634" lon="11.8943545"><ele>441.0</ele><time>2026-04-09T13:10:02.427Z</time></trkpt><trkpt lat="42.956263" lon="11.8943941"><ele>437.0</ele><time>2026-04-09T13:10:03.42Z</time></trkpt><trkpt lat="42.9563613" lon="11.8944469"><ele>433.0</ele><time>2026-04-09T13:10:04.414Z</time></trkpt><trkpt lat="42.9564551" lon="11.8945008"><ele>429.0</ele><time>2026-04-09T13:10:05.431Z</time></trkpt><trkpt lat="42.9565489" lon="11.8945583"><ele>425.0</ele><time>2026-04-09T13:10:06.418Z</time></trkpt><trkpt lat="42.9566456" lon="11.8946102"><ele>423.4</ele><time>2026-04-09T13:10:07.429Z</time></trkpt><trkpt lat="42.9567466" lon="11.894664"><ele>421.8</ele><time>2026-04-09T13:10:08.424Z</time></trkpt><trkpt lat="42.9568401" lon="11.8947246"><ele>420.20000000000005</ele><time>2026-04-09T13:10:09.426Z</time></trkpt><trkpt lat="42.9569294" lon="11.8947704"><ele>418.6</ele><time>2026-04-09T13:10:10.419Z</time></trkpt><trkpt lat="42.9570052" lon="11.89481"><ele>417.0</ele><time>2026-04-09T13:10:11.512Z</time></trkpt><trkpt lat="42.9570776" lon="11.8948484"><ele>417.0</ele><time>2026-04-09T13:10:12.423Z</time></trkpt><trkpt lat="42.9571422" lon="11.8948787"><ele>417.0</ele><time>2026-04-09T13:10:13.43Z</time></trkpt><trkpt lat="42.9572037" lon="11.8949065"><ele>417.0</ele><time>2026-04-09T13:10:14.435Z</time></trkpt><trkpt lat="42.9573396" lon="11.8949341"><ele>417.0</ele><time>2026-04-09T13:10:16.425Z</time></trkpt><trkpt lat="42.9574363" lon="11.8949242"><ele>417.0</ele><time>2026-04-09T13:10:17.428Z</time></trkpt><trkpt lat="42.9575401" lon="11.8948835"><ele>415.6</ele><time>2026-04-09T13:10:18.423Z</time></trkpt><trkpt lat="42.9576388" lon="11.894841"><ele>414.20000000000005</ele><time>2026-04-09T13:10:19.433Z</time></trkpt><trkpt lat="42.9577339" lon="11.8948148"><ele>412.8</ele><time>2026-04-09T13:10:20.421Z</time></trkpt><trkpt lat="42.9578243" lon="11.8948154"><ele>411.4</ele><time>2026-04-09T13:10:21.423Z</time></trkpt><trkpt lat="42.9578944" lon="11.894837"><ele>410.0</ele><time>2026-04-09T13:10:22.428Z</time></trkpt><trkpt lat="42.9580031" lon="11.8948723"><ele>409.99999999999994</ele><time>2026-04-09T13:10:24.424Z</time></trkpt><trkpt lat="42.9580734" lon="11.8948909"><ele>410.0</ele><time>2026-04-09T13:10:25.422Z</time></trkpt><trkpt lat="42.9581589" lon="11.894902"><ele>410.0</ele><time>2026-04-09T13:10:26.427Z</time></trkpt><trkpt lat="42.9582482" lon="11.8948875"><ele>410.0</ele><time>2026-04-09T13:10:27.419Z</time></trkpt><trkpt lat="42.9583327" lon="11.8948595"><ele>409.99999999999994</ele><time>2026-04-09T13:10:28.423Z</time></trkpt><trkpt lat="42.9584132" lon="11.8948341"><ele>410.0</ele><time>2026-04-09T13:10:29.427Z</time></trkpt><trkpt lat="42.9584852" lon="11.8948065"><ele>406.66666666666663</ele><time>2026-04-09T13:10:30.42Z</time></trkpt><trkpt lat="42.958571" lon="11.8947716"><ele>403.3333333333333</ele><time>2026-04-09T13:10:31.419Z</time></trkpt><trkpt lat="42.9586436" lon="11.8947461"><ele>400.0</ele><time>2026-04-09T13:10:32.427Z</time></trkpt><trkpt lat="42.958718" lon="11.8947167"><ele>396.66666666666663</ele><time>2026-04-09T13:10:33.415Z</time></trkpt><trkpt lat="42.958794" lon="11.8946643"><ele>393.3333333333333</ele><time>2026-04-09T13:10:34.419Z</time></trkpt><trkpt lat="42.9588685" lon="11.8945994"><ele>390.0</ele><time>2026-04-09T13:10:35.415Z</time></trkpt><trkpt lat="42.9589451" lon="11.8945301"><ele>390.0</ele><time>2026-04-09T13:10:36.414Z</time></trkpt><trkpt lat="42.9590122" lon="11.8944751"><ele>390.0</ele><time>2026-04-09T13:10:37.417Z</time></trkpt><trkpt lat="42.9590898" lon="11.8944182"><ele>390.0</ele><time>2026-04-09T13:10:38.425Z</time></trkpt><trkpt lat="42.9591758" lon="11.8943751"><ele>390.0</ele><time>2026-04-09T13:10:39.405Z</time></trkpt><trkpt lat="42.9592525" lon="11.8943532"><ele>390.0</ele><time>2026-04-09T13:10:40.417Z</time></trkpt><trkpt lat="42.9593352" lon="11.894353"><ele>390.0</ele><time>2026-04-09T13:10:41.42Z</time></trkpt><trkpt lat="42.9594136" lon="11.894348"><ele>388.1666666666667</ele><time>2026-04-09T13:10:42.416Z</time></trkpt><trkpt lat="42.9594847" lon="11.8943581"><ele>386.3333333333333</ele><time>2026-04-09T13:10:43.428Z</time></trkpt><trkpt lat="42.9595532" lon="11.8944012"><ele>384.5</ele><time>2026-04-09T13:10:44.419Z</time></trkpt><trkpt lat="42.9596014" lon="11.8944807"><ele>382.66666666666663</ele><time>2026-04-09T13:10:45.417Z</time></trkpt><trkpt lat="42.9596394" lon="11.8945727"><ele>380.8333333333333</ele><time>2026-04-09T13:10:46.424Z</time></trkpt><trkpt lat="42.9596749" lon="11.8946677"><ele>379.0</ele><time>2026-04-09T13:10:47.424Z</time></trkpt><trkpt lat="42.9597211" lon="11.8947526"><ele>379.0</ele><time>2026-04-09T13:10:48.42Z</time></trkpt><trkpt lat="42.9597771" lon="11.8948462"><ele>379.0</ele><time>2026-04-09T13:10:49.421Z</time></trkpt><trkpt lat="42.9598324" lon="11.8949389"><ele>379.0</ele><time>2026-04-09T13:10:50.426Z</time></trkpt><trkpt lat="42.9598844" lon="11.895034"><ele>379.0</ele><time>2026-04-09T13:10:51.426Z</time></trkpt><trkpt lat="42.9599366" lon="11.895127"><ele>379.0</ele><time>2026-04-09T13:10:52.42Z</time></trkpt><trkpt lat="42.9599927" lon="11.8952216"><ele>379.0</ele><time>2026-04-09T13:10:53.428Z</time></trkpt><trkpt lat="42.9600544" lon="11.8953105"><ele>378.4</ele><time>2026-04-09T13:10:54.423Z</time></trkpt><trkpt lat="42.9601161" lon="11.8954045"><ele>377.79999999999995</ele><time>2026-04-09T13:10:55.428Z</time></trkpt><trkpt lat="42.9601736" lon="11.8955008"><ele>377.20000000000005</ele><time>2026-04-09T13:10:56.422Z</time></trkpt><trkpt lat="42.9602269" lon="11.8955948"><ele>376.6</ele><time>2026-04-09T13:10:57.426Z</time></trkpt><trkpt lat="42.9602816" lon="11.8956937"><ele>376.0</ele><time>2026-04-09T13:10:58.414Z</time></trkpt><trkpt lat="42.9603342" lon="11.895793"><ele>376.0</ele><time>2026-04-09T13:10:59.433Z</time></trkpt><trkpt lat="42.9603787" lon="11.8958963"><ele>376.0</ele><time>2026-04-09T13:11:00.426Z</time></trkpt><trkpt lat="42.9604315" lon="11.8959849"><ele>376.0</ele><time>2026-04-09T13:11:01.418Z</time></trkpt><trkpt lat="42.9604933" lon="11.8960677"><ele>376.0</ele><time>2026-04-09T13:11:02.421Z</time></trkpt><trkpt lat="42.9605646" lon="11.8961636"><ele>376.0</ele><time>2026-04-09T13:11:03.424Z</time></trkpt><trkpt lat="42.960646" lon="11.8962507"><ele>373.5</ele><time>2026-04-09T13:11:04.418Z</time></trkpt><trkpt lat="42.9607288" lon="11.8963275"><ele>371.0</ele><time>2026-04-09T13:11:05.433Z</time></trkpt><trkpt lat="42.9607994" lon="11.8964065"><ele>368.5</ele><time>2026-04-09T13:11:06.424Z</time></trkpt><trkpt lat="42.9608538" lon="11.8964959"><ele>366.0</ele><time>2026-04-09T13:11:07.423Z</time></trkpt><trkpt lat="42.9608929" lon="11.896587"><ele>363.5</ele><time>2026-04-09T13:11:08.427Z</time></trkpt><trkpt lat="42.960935" lon="11.8966816"><ele>361.0</ele><time>2026-04-09T13:11:09.427Z</time></trkpt><trkpt lat="42.9609709" lon="11.8967745"><ele>357.16666666666663</ele><time>2026-04-09T13:11:10.424Z</time></trkpt><trkpt lat="42.9610019" lon="11.8968746"><ele>353.3333333333333</ele><time>2026-04-09T13:11:11.423Z</time></trkpt><trkpt lat="42.9610209" lon="11.896981"><ele>349.5</ele><time>2026-04-09T13:11:12.429Z</time></trkpt><trkpt lat="42.9610117" lon="11.8970992"><ele>345.6666666666667</ele><time>2026-04-09T13:11:13.433Z</time></trkpt><trkpt lat="42.9609944" lon="11.897207"><ele>341.83333333333337</ele><time>2026-04-09T13:11:14.423Z</time></trkpt><trkpt lat="42.9609811" lon="11.8973308"><ele>338.0</ele><time>2026-04-09T13:11:15.415Z</time></trkpt><trkpt lat="42.9609552" lon="11.8974461"><ele>338.0</ele><time>2026-04-09T13:11:16.419Z</time></trkpt><trkpt lat="42.9609262" lon="11.8975569"><ele>338.0</ele><time>2026-04-09T13:11:17.43Z</time></trkpt><trkpt lat="42.9609097" lon="11.8976586"><ele>338.0</ele><time>2026-04-09T13:11:18.413Z</time></trkpt><trkpt lat="42.9608943" lon="11.8977595"><ele>338.0</ele><time>2026-04-09T13:11:19.423Z</time></trkpt><trkpt lat="42.9608795" lon="11.8978567"><ele>338.0</ele><time>2026-04-09T13:11:20.418Z</time></trkpt><trkpt lat="42.9608697" lon="11.8979516"><ele>338.0</ele><time>2026-04-09T13:11:21.422Z</time></trkpt><trkpt lat="42.9608651" lon="11.8980552"><ele>337.6666666666667</ele><time>2026-04-09T13:11:22.419Z</time></trkpt><trkpt lat="42.9608711" lon="11.8981518"><ele>337.33333333333337</ele><time>2026-04-09T13:11:23.427Z</time></trkpt><trkpt lat="42.960878" lon="11.8982391"><ele>337.0</ele><time>2026-04-09T13:11:24.433Z</time></trkpt><trkpt lat="42.9608795" lon="11.898334"><ele>336.6666666666667</ele><time>2026-04-09T13:11:25.419Z</time></trkpt><trkpt lat="42.9608639" lon="11.8984895"><ele>336.3333333333333</ele><time>2026-04-09T13:11:27.419Z</time></trkpt><trkpt lat="42.9608528" lon="11.8986135"><ele>336.0</ele><time>2026-04-09T13:12:03.423Z</time></trkpt><trkpt lat="42.9608361" lon="11.8987747"><ele>336.0</ele><time>2026-04-09T13:12:05.434Z</time></trkpt><trkpt lat="42.9608336" lon="11.8988622"><ele>336.0</ele><time>2026-04-09T13:12:06.424Z</time></trkpt><trkpt lat="42.9608249" lon="11.8989579"><ele>336.0</ele><time>2026-04-09T13:12:07.422Z</time></trkpt><trkpt lat="42.9608035" lon="11.8990469"><ele>336.0</ele><time>2026-04-09T13:12:08.419Z</time></trkpt><trkpt lat="42.9607766" lon="11.8991488"><ele>336.0</ele><time>2026-04-09T13:12:09.415Z</time></trkpt><trkpt lat="42.9607276" lon="11.8992515"><ele>336.0</ele><time>2026-04-09T13:12:10.412Z</time></trkpt><trkpt lat="42.9606666" lon="11.8993483"><ele>334.0</ele><time>2026-04-09T13:12:11.42Z</time></trkpt><trkpt lat="42.960606" lon="11.8994486"><ele>332.0</ele><time>2026-04-09T13:12:12.418Z</time></trkpt><trkpt lat="42.9605512" lon="11.8995691"><ele>330.0</ele><time>2026-04-09T13:12:13.435Z</time></trkpt><trkpt lat="42.9605055" lon="11.8996919"><ele>328.0</ele><time>2026-04-09T13:12:14.425Z</time></trkpt><trkpt lat="42.9604622" lon="11.8998096"><ele>326.0</ele><time>2026-04-09T13:12:15.425Z</time></trkpt><trkpt lat="42.9604263" lon="11.8999183"><ele>326.0</ele><time>2026-04-09T13:12:16.428Z</time></trkpt><trkpt lat="42.9603909" lon="11.9000155"><ele>326.0</ele><time>2026-04-09T13:12:17.436Z</time></trkpt><trkpt lat="42.9603519" lon="11.9001029"><ele>326.0</ele><time>2026-04-09T13:12:18.426Z</time></trkpt><trkpt lat="42.9603201" lon="11.9001852"><ele>326.0</ele><time>2026-04-09T13:12:19.442Z</time></trkpt><trkpt lat="42.9602931" lon="11.900264"><ele>326.0</ele><time>2026-04-09T13:12:20.433Z</time></trkpt><trkpt lat="42.960261" lon="11.9003441"><ele>326.0</ele><time>2026-04-09T13:12:21.431Z</time></trkpt><trkpt lat="42.9602029" lon="11.9004546"><ele>325.33333333333337</ele><time>2026-04-09T13:12:23.43Z</time></trkpt><trkpt lat="42.9601133" lon="11.9004452"><ele>324.6666666666667</ele><time>2026-04-09T13:12:25.43Z</time></trkpt><trkpt lat="42.9599922" lon="11.9004408"><ele>324.0</ele><time>2026-04-09T13:12:27.422Z</time></trkpt><trkpt lat="42.9599181" lon="11.9004845"><ele>323.3333333333333</ele><time>2026-04-09T13:12:28.423Z</time></trkpt><trkpt lat="42.959857" lon="11.900545"><ele>322.66666666666663</ele><time>2026-04-09T13:12:29.427Z</time></trkpt><trkpt lat="42.9598022" lon="11.9006189"><ele>322.0</ele><time>2026-04-09T13:12:30.415Z</time></trkpt><trkpt lat="42.9597517" lon="11.9007072"><ele>322.0</ele><time>2026-04-09T13:12:31.421Z</time></trkpt><trkpt lat="42.9596962" lon="11.9008027"><ele>322.0</ele><time>2026-04-09T13:12:32.416Z</time></trkpt><trkpt lat="42.9596362" lon="11.9008951"><ele>322.0</ele><time>2026-04-09T13:12:33.42Z</time></trkpt><trkpt lat="42.959563" lon="11.9009745"><ele>322.0</ele><time>2026-04-09T13:12:34.414Z</time></trkpt><trkpt lat="42.9594803" lon="11.9010438"><ele>322.0</ele><time>2026-04-09T13:12:35.419Z</time></trkpt><trkpt lat="42.9593961" lon="11.9011099"><ele>322.20000000000005</ele><time>2026-04-09T13:12:36.418Z</time></trkpt><trkpt lat="42.9593111" lon="11.9011819"><ele>322.4</ele><time>2026-04-09T13:12:37.413Z</time></trkpt><trkpt lat="42.9592282" lon="11.9012545"><ele>322.6</ele><time>2026-04-09T13:12:38.422Z</time></trkpt><trkpt lat="42.9591405" lon="11.9013352"><ele>322.79999999999995</ele><time>2026-04-09T13:12:39.42Z</time></trkpt><trkpt lat="42.9590434" lon="11.9014313"><ele>323.0</ele><time>2026-04-09T13:12:40.423Z</time></trkpt><trkpt lat="42.9589458" lon="11.9015422"><ele>324.33333333333337</ele><time>2026-04-09T13:12:41.424Z</time></trkpt><trkpt lat="42.9588313" lon="11.9016716"><ele>325.6666666666667</ele><time>2026-04-09T13:12:42.422Z</time></trkpt><trkpt lat="42.9586821" lon="11.9018056"><ele>327.0</ele><time>2026-04-09T13:12:43.427Z</time></trkpt><trkpt lat="42.9585457" lon="11.9019392"><ele>327.0</ele><time>2026-04-09T13:12:44.426Z</time></trkpt><trkpt lat="42.9584339" lon="11.9020478"><ele>327.0</ele><time>2026-04-09T13:12:45.408Z</time></trkpt><trkpt lat="42.9583225" lon="11.9021696"><ele>327.0</ele><time>2026-04-09T13:12:46.422Z</time></trkpt><trkpt lat="42.9582534" lon="11.9022612"><ele>327.0</ele><time>2026-04-09T13:12:47.419Z</time></trkpt><trkpt lat="42.9581973" lon="11.902361"><ele>323.8</ele><time>2026-04-09T13:12:48.41Z</time></trkpt><trkpt lat="42.958136" lon="11.9024291"><ele>320.6</ele><time>2026-04-09T13:12:49.416Z</time></trkpt><trkpt lat="42.9580778" lon="11.9025145"><ele>317.40000000000003</ele><time>2026-04-09T13:12:50.42Z</time></trkpt><trkpt lat="42.958027" lon="11.9026205"><ele>314.20000000000005</ele><time>2026-04-09T13:12:51.416Z</time></trkpt><trkpt lat="42.9579889" lon="11.9027665"><ele>311.0</ele><time>2026-04-09T13:12:52.41Z</time></trkpt><trkpt lat="42.9579922" lon="11.9028967"><ele>311.0</ele><time>2026-04-09T13:12:53.426Z</time></trkpt><trkpt lat="42.9580107" lon="11.903046"><ele>311.0</ele><time>2026-04-09T13:12:54.41Z</time></trkpt><trkpt lat="42.9580346" lon="11.903224"><ele>311.0</ele><time>2026-04-09T13:12:55.42Z</time></trkpt><trkpt lat="42.9580414" lon="11.9034075"><ele>311.0</ele><time>2026-04-09T13:12:56.417Z</time></trkpt><trkpt lat="42.9580544" lon="11.9035921"><ele>309.75</ele><time>2026-04-09T13:12:57.427Z</time></trkpt><trkpt lat="42.9580491" lon="11.9037653"><ele>308.5</ele><time>2026-04-09T13:12:58.409Z</time></trkpt><trkpt lat="42.9580374" lon="11.9039298"><ele>307.25</ele><time>2026-04-09T13:12:59.427Z</time></trkpt><trkpt lat="42.9580291" lon="11.904095"><ele>306.0</ele><time>2026-04-09T13:13:00.417Z</time></trkpt><trkpt lat="42.9580235" lon="11.9042514"><ele>304.6</ele><time>2026-04-09T13:13:01.426Z</time></trkpt><trkpt lat="42.9580089" lon="11.9043996"><ele>303.20000000000005</ele><time>2026-04-09T13:13:02.427Z</time></trkpt><trkpt lat="42.9580087" lon="11.9045539"><ele>301.79999999999995</ele><time>2026-04-09T13:13:03.428Z</time></trkpt><trkpt lat="42.9580126" lon="11.9047026"><ele>300.4</ele><time>2026-04-09T13:13:04.428Z</time></trkpt><trkpt lat="42.9580174" lon="11.9048508"><ele>299.0</ele><time>2026-04-09T13:13:05.434Z</time></trkpt><trkpt lat="42.958017" lon="11.9049857"><ele>297.83333333333337</ele><time>2026-04-09T13:13:06.42Z</time></trkpt><trkpt lat="42.9580161" lon="11.9050908"><ele>296.6666666666667</ele><time>2026-04-09T13:13:07.428Z</time></trkpt><trkpt lat="42.9580115" lon="11.9052139"><ele>295.5</ele><time>2026-04-09T13:13:09.428Z</time></trkpt><trkpt lat="42.9579292" lon="11.9053135"><ele>294.3333333333333</ele><time>2026-04-09T13:13:11.424Z</time></trkpt><trkpt lat="42.9578591" lon="11.9053253"><ele>293.16666666666663</ele><time>2026-04-09T13:13:12.417Z</time></trkpt><trkpt lat="42.957781" lon="11.9053075"><ele>292.0</ele><time>2026-04-09T13:13:13.43Z</time></trkpt><trkpt lat="42.95767" lon="11.9052633"><ele>292.0</ele><time>2026-04-09T13:13:14.43Z</time></trkpt><trkpt lat="42.9575665" lon="11.9052226"><ele>292.0</ele><time>2026-04-09T13:13:15.416Z</time></trkpt><trkpt lat="42.9574641" lon="11.9051905"><ele>292.0</ele><time>2026-04-09T13:13:16.421Z</time></trkpt><trkpt lat="42.9573637" lon="11.9051752"><ele>292.0</ele><time>2026-04-09T13:13:17.429Z</time></trkpt><trkpt lat="42.9572759" lon="11.9051649"><ele>292.0</ele><time>2026-04-09T13:13:18.412Z</time></trkpt><trkpt lat="42.9571853" lon="11.9051608"><ele>290.8333333333333</ele><time>2026-04-09T13:13:19.417Z</time></trkpt><trkpt lat="42.9570977" lon="11.9051794"><ele>289.66666666666663</ele><time>2026-04-09T13:13:20.423Z</time></trkpt><trkpt lat="42.9570164" lon="11.9052115"><ele>288.5</ele><time>2026-04-09T13:13:21.423Z</time></trkpt><trkpt lat="42.9569511" lon="11.9052449"><ele>287.3333333333333</ele><time>2026-04-09T13:13:22.42Z</time></trkpt><trkpt lat="42.9568422" lon="11.9053051"><ele>286.1666666666667</ele><time>2026-04-09T13:13:24.421Z</time></trkpt><trkpt lat="42.9567715" lon="11.9053357"><ele>285.0</ele><time>2026-04-09T13:13:25.419Z</time></trkpt><trkpt lat="42.9566916" lon="11.9053732"><ele>285.0</ele><time>2026-04-09T13:13:26.417Z</time></trkpt><trkpt lat="42.9566095" lon="11.9054294"><ele>285.0</ele><time>2026-04-09T13:13:27.42Z</time></trkpt><trkpt lat="42.9565288" lon="11.9055059"><ele>285.0</ele><time>2026-04-09T13:13:28.404Z</time></trkpt><trkpt lat="42.9564383" lon="11.9056067"><ele>285.0</ele><time>2026-04-09T13:13:29.415Z</time></trkpt><trkpt lat="42.9563459" lon="11.9057188"><ele>285.0</ele><time>2026-04-09T13:13:30.41Z</time></trkpt><trkpt lat="42.9562555" lon="11.9058339"><ele>288.0</ele><time>2026-04-09T13:13:31.415Z</time></trkpt><trkpt lat="42.956152" lon="11.9059477"><ele>291.0</ele><time>2026-04-09T13:13:32.399Z</time></trkpt><trkpt lat="42.9560424" lon="11.9060699"><ele>294.0</ele><time>2026-04-09T13:13:33.397Z</time></trkpt><trkpt lat="42.9559318" lon="11.9061836"><ele>297.0</ele><time>2026-04-09T13:13:34.397Z</time></trkpt><trkpt lat="42.9558276" lon="11.9062924"><ele>298.75</ele><time>2026-04-09T13:13:35.394Z</time></trkpt><trkpt lat="42.9557307" lon="11.9063754"><ele>300.5</ele><time>2026-04-09T13:13:36.402Z</time></trkpt><trkpt lat="42.9556404" lon="11.9064359"><ele>302.25</ele><time>2026-04-09T13:13:37.398Z</time></trkpt><trkpt lat="42.9555247" lon="11.9064768"><ele>304.0</ele><time>2026-04-09T13:13:38.413Z</time></trkpt><trkpt lat="42.9554002" lon="11.9064701"><ele>304.0</ele><time>2026-04-09T13:13:39.402Z</time></trkpt><trkpt lat="42.955318" lon="11.9065027"><ele>304.0</ele><time>2026-04-09T13:13:40.393Z</time></trkpt><trkpt lat="42.9552106" lon="11.9065044"><ele>304.0</ele><time>2026-04-09T13:13:41.405Z</time></trkpt><trkpt lat="42.9551334" lon="11.9065104"><ele>304.0</ele><time>2026-04-09T13:13:42.404Z</time></trkpt><trkpt lat="42.9550599" lon="11.9065147"><ele>304.0</ele><time>2026-04-09T13:13:43.42Z</time></trkpt><trkpt lat="42.9549875" lon="11.906511"><ele>304.0</ele><time>2026-04-09T13:13:44.406Z</time></trkpt><trkpt lat="42.9548859" lon="11.9064943"><ele>304.25</ele><time>2026-04-09T13:13:45.41Z</time></trkpt><trkpt lat="42.9547809" lon="11.9064651"><ele>304.5</ele><time>2026-04-09T13:13:46.415Z</time></trkpt><trkpt lat="42.9546752" lon="11.906435"><ele>304.75</ele><time>2026-04-09T13:13:47.419Z</time></trkpt><trkpt lat="42.9545546" lon="11.906426"><ele>305.0</ele><time>2026-04-09T13:13:48.411Z</time></trkpt><trkpt lat="42.954427" lon="11.9064291"><ele>305.0</ele><time>2026-04-09T13:13:49.413Z</time></trkpt><trkpt lat="42.9543143" lon="11.9064462"><ele>305.0</ele><time>2026-04-09T13:13:50.425Z</time></trkpt><trkpt lat="42.9542108" lon="11.9064574"><ele>305.0</ele><time>2026-04-09T13:13:51.417Z</time></trkpt><trkpt lat="42.9541215" lon="11.9064555"><ele>305.0</ele><time>2026-04-09T13:13:52.414Z</time></trkpt><trkpt lat="42.9540487" lon="11.9064433"><ele>305.0</ele><time>2026-04-09T13:13:53.41Z</time></trkpt><trkpt lat="42.9539808" lon="11.9064238"><ele>305.0</ele><time>2026-04-09T13:13:54.414Z</time></trkpt><trkpt lat="42.9539037" lon="11.9063861"><ele>306.4</ele><time>2026-04-09T13:13:55.416Z</time></trkpt><trkpt lat="42.9538195" lon="11.9063366"><ele>307.8</ele><time>2026-04-09T13:13:56.41Z</time></trkpt><trkpt lat="42.9537422" lon="11.9062587"><ele>309.2</ele><time>2026-04-09T13:13:57.422Z</time></trkpt><trkpt lat="42.9536639" lon="11.9061366"><ele>310.6</ele><time>2026-04-09T13:13:58.409Z</time></trkpt><trkpt lat="42.9535862" lon="11.9060366"><ele>312.0</ele><time>2026-04-09T13:13:59.42Z</time></trkpt><trkpt lat="42.9535151" lon="11.9059558"><ele>312.1666666666667</ele><time>2026-04-09T13:14:00.409Z</time></trkpt><trkpt lat="42.9534582" lon="11.9058812"><ele>312.3333333333333</ele><time>2026-04-09T13:14:01.417Z</time></trkpt><trkpt lat="42.9534006" lon="11.9058168"><ele>312.5</ele><time>2026-04-09T13:14:02.419Z</time></trkpt><trkpt lat="42.9533497" lon="11.9057613"><ele>312.66666666666663</ele><time>2026-04-09T13:14:03.412Z</time></trkpt><trkpt lat="42.9533001" lon="11.9057059"><ele>312.8333333333333</ele><time>2026-04-09T13:14:04.415Z</time></trkpt><trkpt lat="42.9531872" lon="11.905639"><ele>313.0</ele><time>2026-04-09T13:14:06.412Z</time></trkpt><trkpt lat="42.9530715" lon="11.9056234"><ele>313.8</ele><time>2026-04-09T13:14:08.411Z</time></trkpt><trkpt lat="42.9529591" lon="11.9056346"><ele>314.6</ele><time>2026-04-09T13:14:10.414Z</time></trkpt><trkpt lat="42.9528538" lon="11.9056453"><ele>315.4</ele><time>2026-04-09T13:14:12.419Z</time></trkpt><trkpt lat="42.9527205" lon="11.9056627"><ele>316.2</ele><time>2026-04-09T13:14:14.421Z</time></trkpt><trkpt lat="42.9526456" lon="11.9056821"><ele>317.0</ele><time>2026-04-09T13:14:15.426Z</time></trkpt><trkpt lat="42.9525683" lon="11.9057011"><ele>316.0</ele><time>2026-04-09T13:14:16.418Z</time></trkpt><trkpt lat="42.9524907" lon="11.9057133"><ele>315.0</ele><time>2026-04-09T13:14:17.425Z</time></trkpt><trkpt lat="42.9524142" lon="11.9057184"><ele>314.0</ele><time>2026-04-09T13:14:18.43Z</time></trkpt><trkpt lat="42.9523375" lon="11.9057257"><ele>313.0</ele><time>2026-04-09T13:14:19.416Z</time></trkpt><trkpt lat="42.9522746" lon="11.9057322"><ele>312.0</ele><time>2026-04-09T13:14:20.428Z</time></trkpt><trkpt lat="42.9521936" lon="11.9057279"><ele>311.0</ele><time>2026-04-09T13:14:22.421Z</time></trkpt><trkpt lat="42.9521009" lon="11.9057267"><ele>311.0</ele><time>2026-04-09T13:14:24.428Z</time></trkpt><trkpt lat="42.9520273" lon="11.9057245"><ele>311.0</ele><time>2026-04-09T13:14:25.42Z</time></trkpt><trkpt lat="42.9519304" lon="11.9057142"><ele>311.0</ele><time>2026-04-09T13:14:26.427Z</time></trkpt><trkpt lat="42.9518362" lon="11.9056994"><ele>311.0</ele><time>2026-04-09T13:14:27.429Z</time></trkpt><trkpt lat="42.9517568" lon="11.9056698"><ele>311.0</ele><time>2026-04-09T13:14:28.413Z</time></trkpt><trkpt lat="42.9516706" lon="11.905637"><ele>311.0</ele><time>2026-04-09T13:14:29.437Z</time></trkpt><trkpt lat="42.9515645" lon="11.9055824"><ele>309.40000000000003</ele><time>2026-04-09T13:14:30.422Z</time></trkpt><trkpt lat="42.951448" lon="11.9055324"><ele>307.8</ele><time>2026-04-09T13:14:31.422Z</time></trkpt><trkpt lat="42.9513504" lon="11.905486"><ele>306.20000000000005</ele><time>2026-04-09T13:14:32.423Z</time></trkpt><trkpt lat="42.9512651" lon="11.9054431"><ele>304.6</ele><time>2026-04-09T13:14:33.416Z</time></trkpt><trkpt lat="42.9511837" lon="11.9054109"><ele>303.0</ele><time>2026-04-09T13:14:34.416Z</time></trkpt><trkpt lat="42.9511082" lon="11.9053777"><ele>303.0</ele><time>2026-04-09T13:14:35.418Z</time></trkpt><trkpt lat="42.9510401" lon="11.9053431"><ele>303.0</ele><time>2026-04-09T13:14:36.41Z</time></trkpt><trkpt lat="42.950987" lon="11.9052599"><ele>303.0</ele><time>2026-04-09T13:14:37.413Z</time></trkpt><trkpt lat="42.9509437" lon="11.9051422"><ele>303.0</ele><time>2026-04-09T13:14:38.405Z</time></trkpt><trkpt lat="42.950904" lon="11.9049846"><ele>303.0</ele><time>2026-04-09T13:14:39.414Z</time></trkpt><trkpt lat="42.950861" lon="11.9048149"><ele>304.5</ele><time>2026-04-09T13:14:40.416Z</time></trkpt><trkpt lat="42.9508222" lon="11.904644"><ele>306.0</ele><time>2026-04-09T13:14:41.415Z</time></trkpt><trkpt lat="42.9507864" lon="11.9044844"><ele>307.5</ele><time>2026-04-09T13:14:42.408Z</time></trkpt><trkpt lat="42.9507615" lon="11.9043369"><ele>309.0</ele><time>2026-04-09T13:14:43.438Z</time></trkpt><trkpt lat="42.9507314" lon="11.9041831"><ele>309.8333333333333</ele><time>2026-04-09T13:14:44.417Z</time></trkpt><trkpt lat="42.9507018" lon="11.9040317"><ele>310.6666666666667</ele><time>2026-04-09T13:14:45.422Z</time></trkpt><trkpt lat="42.9506693" lon="11.9038979"><ele>311.5</ele><time>2026-04-09T13:14:46.422Z</time></trkpt><trkpt lat="42.9506394" lon="11.9037879"><ele>312.33333333333337</ele><time>2026-04-09T13:14:47.426Z</time></trkpt><trkpt lat="42.9506057" lon="11.9036961"><ele>313.1666666666667</ele><time>2026-04-09T13:14:48.42Z</time></trkpt><trkpt lat="42.9505696" lon="11.9036233"><ele>314.0</ele><time>2026-04-09T13:14:49.419Z</time></trkpt><trkpt lat="42.9504871" lon="11.9035655"><ele>314.0</ele><time>2026-04-09T13:14:51.426Z</time></trkpt><trkpt lat="42.9503887" lon="11.9036331"><ele>314.0</ele><time>2026-04-09T13:14:53.417Z</time></trkpt><trkpt lat="42.9503371" lon="11.9036973"><ele>314.0</ele><time>2026-04-09T13:14:55.425Z</time></trkpt><trkpt lat="42.9502901" lon="11.9037572"><ele>314.0</ele><time>2026-04-09T13:14:57.429Z</time></trkpt><trkpt lat="42.9502155" lon="11.9037923"><ele>314.0</ele><time>2026-04-09T13:14:59.425Z</time></trkpt><trkpt lat="42.9501537" lon="11.9038232"><ele>314.0</ele><time>2026-04-09T13:15:00.396Z</time></trkpt><trkpt lat="42.9500502" lon="11.9038675"><ele>315.33333333333337</ele><time>2026-04-09T13:15:01.396Z</time></trkpt><trkpt lat="42.9499021" lon="11.903935"><ele>316.6666666666667</ele><time>2026-04-09T13:15:02.402Z</time></trkpt><trkpt lat="42.9497249" lon="11.9040259"><ele>318.0</ele><time>2026-04-09T13:15:03.4Z</time></trkpt><trkpt lat="42.9495009" lon="11.90413"><ele>318.0</ele><time>2026-04-09T13:15:04.4Z</time></trkpt><trkpt lat="42.9493201" lon="11.904199"><ele>318.0</ele><time>2026-04-09T13:15:05.405Z</time></trkpt><trkpt lat="42.9491739" lon="11.9042515"><ele>318.0</ele><time>2026-04-09T13:15:06.404Z</time></trkpt><trkpt lat="42.9490243" lon="11.9043101"><ele>320.0</ele><time>2026-04-09T13:15:07.406Z</time></trkpt><trkpt lat="42.9488746" lon="11.9043707"><ele>322.0</ele><time>2026-04-09T13:15:08.399Z</time></trkpt><trkpt lat="42.9487524" lon="11.904418"><ele>324.0</ele><time>2026-04-09T13:15:09.406Z</time></trkpt><trkpt lat="42.948625" lon="11.9044665"><ele>326.0</ele><time>2026-04-09T13:15:10.403Z</time></trkpt><trkpt lat="42.9484976" lon="11.9045231"><ele>326.0</ele><time>2026-04-09T13:15:11.408Z</time></trkpt><trkpt lat="42.9483803" lon="11.904568"><ele>326.0</ele><time>2026-04-09T13:15:12.408Z</time></trkpt><trkpt lat="42.9482755" lon="11.9046119"><ele>326.0</ele><time>2026-04-09T13:15:13.424Z</time></trkpt><trkpt lat="42.9481915" lon="11.9046463"><ele>326.0</ele><time>2026-04-09T13:15:14.409Z</time></trkpt><trkpt lat="42.9481053" lon="11.9046857"><ele>326.0</ele><time>2026-04-09T13:15:15.405Z</time></trkpt><trkpt lat="42.9480305" lon="11.9047155"><ele>327.0</ele><time>2026-04-09T13:15:16.408Z</time></trkpt><trkpt lat="42.9479678" lon="11.9047625"><ele>328.0</ele><time>2026-04-09T13:15:17.408Z</time></trkpt><trkpt lat="42.9479108" lon="11.904833"><ele>329.0</ele><time>2026-04-09T13:15:18.408Z</time></trkpt><trkpt lat="42.947852" lon="11.9049112"><ele>330.0</ele><time>2026-04-09T13:15:19.398Z</time></trkpt><trkpt lat="42.9478036" lon="11.9050062"><ele>331.0</ele><time>2026-04-09T13:15:20.411Z</time></trkpt><trkpt lat="42.947758" lon="11.9051195"><ele>332.0</ele><time>2026-04-09T13:15:21.404Z</time></trkpt><trkpt lat="42.9477238" lon="11.9052054"><ele>332.0</ele><time>2026-04-09T13:15:22.402Z</time></trkpt><trkpt lat="42.9476849" lon="11.9052916"><ele>332.0</ele><time>2026-04-09T13:15:23.416Z</time></trkpt><trkpt lat="42.9476355" lon="11.9053667"><ele>332.0</ele><time>2026-04-09T13:15:24.398Z</time></trkpt><trkpt lat="42.9475745" lon="11.9054312"><ele>332.0</ele><time>2026-04-09T13:15:25.409Z</time></trkpt><trkpt lat="42.9474839" lon="11.9054979"><ele>332.0</ele><time>2026-04-09T13:15:27.401Z</time></trkpt><trkpt lat="42.9474141" lon="11.9055308"><ele>332.0</ele><time>2026-04-09T13:15:29.403Z</time></trkpt><trkpt lat="42.9472996" lon="11.9055289"><ele>334.1666666666667</ele><time>2026-04-09T13:15:31.403Z</time></trkpt><trkpt lat="42.9472255" lon="11.9055156"><ele>336.33333333333337</ele><time>2026-04-09T13:15:32.412Z</time></trkpt><trkpt lat="42.9471498" lon="11.9055131"><ele>338.5</ele><time>2026-04-09T13:15:33.403Z</time></trkpt><trkpt lat="42.9470578" lon="11.9055332"><ele>340.6666666666667</ele><time>2026-04-09T13:15:34.397Z</time></trkpt><trkpt lat="42.9469715" lon="11.9055368"><ele>342.8333333333333</ele><time>2026-04-09T13:15:35.486Z</time></trkpt><trkpt lat="42.946859" lon="11.905562"><ele>345.0</ele><time>2026-04-09T13:15:36.397Z</time></trkpt><trkpt lat="42.9467321" lon="11.9056124"><ele>347.0</ele><time>2026-04-09T13:15:37.399Z</time></trkpt><trkpt lat="42.9466136" lon="11.905645"><ele>349.0</ele><time>2026-04-09T13:15:38.403Z</time></trkpt><trkpt lat="42.946503" lon="11.905674"><ele>351.0</ele><time>2026-04-09T13:15:39.4Z</time></trkpt><trkpt lat="42.9463863" lon="11.9056974"><ele>353.0</ele><time>2026-04-09T13:15:40.402Z</time></trkpt><trkpt lat="42.9462832" lon="11.9057167"><ele>353.0</ele><time>2026-04-09T13:15:41.403Z</time></trkpt><trkpt lat="42.9461972" lon="11.9057269"><ele>353.0</ele><time>2026-04-09T13:15:42.397Z</time></trkpt><trkpt lat="42.9461168" lon="11.90574"><ele>353.0</ele><time>2026-04-09T13:15:43.411Z</time></trkpt><trkpt lat="42.9460423" lon="11.9057573"><ele>353.0</ele><time>2026-04-09T13:15:44.398Z</time></trkpt><trkpt lat="42.9460097" lon="11.9058528"><ele>353.0</ele><time>2026-04-09T13:15:46.397Z</time></trkpt><trkpt lat="42.9460683" lon="11.9060305"><ele>351.59999999999997</ele><time>2026-04-09T13:15:48.391Z</time></trkpt><trkpt lat="42.9461158" lon="11.9061197"><ele>350.2</ele><time>2026-04-09T13:15:49.4Z</time></trkpt><trkpt lat="42.946163" lon="11.9062378"><ele>348.8</ele><time>2026-04-09T13:15:50.403Z</time></trkpt><trkpt lat="42.9462198" lon="11.9063737"><ele>347.4</ele><time>2026-04-09T13:15:51.406Z</time></trkpt><trkpt lat="42.9462525" lon="11.9065116"><ele>346.0</ele><time>2026-04-09T13:15:52.398Z</time></trkpt><trkpt lat="42.9462706" lon="11.906663"><ele>346.5</ele><time>2026-04-09T13:15:53.496Z</time></trkpt><trkpt lat="42.9462818" lon="11.9068179"><ele>347.0</ele><time>2026-04-09T13:15:54.409Z</time></trkpt><trkpt lat="42.9462759" lon="11.9069975"><ele>347.5</ele><time>2026-04-09T13:15:55.411Z</time></trkpt><trkpt lat="42.9462779" lon="11.9071515"><ele>348.0</ele><time>2026-04-09T13:15:56.409Z</time></trkpt><trkpt lat="42.9462783" lon="11.9072832"><ele>348.0</ele><time>2026-04-09T13:15:57.407Z</time></trkpt><trkpt lat="42.9462728" lon="11.9073963"><ele>348.0</ele><time>2026-04-09T13:15:58.404Z</time></trkpt><trkpt lat="42.9462678" lon="11.9074868"><ele>348.0</ele><time>2026-04-09T13:15:59.413Z</time></trkpt><trkpt lat="42.9462697" lon="11.9075947"><ele>348.0</ele><time>2026-04-09T13:16:01.407Z</time></trkpt><trkpt lat="42.9463258" lon="11.9076761"><ele>348.0</ele><time>2026-04-09T13:16:11.414Z</time></trkpt><trkpt lat="42.9464187" lon="11.907667"><ele>348.0</ele><time>2026-04-09T13:16:16.408Z</time></trkpt><trkpt lat="42.9465082" lon="11.907618"><ele>348.0</ele><time>2026-04-09T13:16:18.418Z</time></trkpt><trkpt lat="42.9466042" lon="11.9075867"><ele>348.0</ele><time>2026-04-09T13:16:20.418Z</time></trkpt><trkpt lat="42.9466731" lon="11.9076201"><ele>348.0</ele><time>2026-04-09T13:16:21.408Z</time></trkpt><trkpt lat="42.9467346" lon="11.9076595"><ele>348.0</ele><time>2026-04-09T13:16:22.408Z</time></trkpt><trkpt lat="42.9467974" lon="11.9076995"><ele>348.0</ele><time>2026-04-09T13:16:23.411Z</time></trkpt><trkpt lat="42.9468643" lon="11.9077669"><ele>348.0</ele><time>2026-04-09T13:16:24.409Z</time></trkpt><trkpt lat="42.9469342" lon="11.9078289"><ele>347.4</ele><time>2026-04-09T13:16:25.401Z</time></trkpt><trkpt lat="42.94699" lon="11.9079195"><ele>346.79999999999995</ele><time>2026-04-09T13:16:26.417Z</time></trkpt><trkpt lat="42.9470424" lon="11.9080417"><ele>346.2</ele><time>2026-04-09T13:16:27.42Z</time></trkpt><trkpt lat="42.9471078" lon="11.9081646"><ele>345.6</ele><time>2026-04-09T13:16:28.407Z</time></trkpt><trkpt lat="42.9471686" lon="11.9082864"><ele>345.0</ele><time>2026-04-09T13:16:29.418Z</time></trkpt><trkpt lat="42.9472065" lon="11.9083882"><ele>344.8</ele><time>2026-04-09T13:16:30.415Z</time></trkpt><trkpt lat="42.9472165" lon="11.9085158"><ele>344.6</ele><time>2026-04-09T13:16:31.414Z</time></trkpt><trkpt lat="42.9472086" lon="11.9086271"><ele>344.4</ele><time>2026-04-09T13:16:32.414Z</time></trkpt><trkpt lat="42.9472009" lon="11.9087161"><ele>344.2</ele><time>2026-04-09T13:16:33.422Z</time></trkpt><trkpt lat="42.9472099" lon="11.9088706"><ele>344.0</ele><time>2026-04-09T13:16:35.418Z</time></trkpt><trkpt lat="42.9472416" lon="11.9090334"><ele>344.0</ele><time>2026-04-09T13:16:37.415Z</time></trkpt><trkpt lat="42.9472609" lon="11.9091172"><ele>344.0</ele><time>2026-04-09T13:16:38.421Z</time></trkpt><trkpt lat="42.9473093" lon="11.9092668"><ele>344.0</ele><time>2026-04-09T13:16:40.417Z</time></trkpt><trkpt lat="42.9473405" lon="11.9093504"><ele>344.0</ele><time>2026-04-09T13:16:41.418Z</time></trkpt><trkpt lat="42.9473733" lon="11.9094403"><ele>344.0</ele><time>2026-04-09T13:16:42.416Z</time></trkpt><trkpt lat="42.947398" lon="11.9095315"><ele>344.0</ele><time>2026-04-09T13:16:43.423Z</time></trkpt><trkpt lat="42.9474268" lon="11.9096101"><ele>342.5</ele><time>2026-04-09T13:16:44.414Z</time></trkpt><trkpt lat="42.9474836" lon="11.9097548"><ele>341.0</ele><time>2026-04-09T13:16:46.402Z</time></trkpt><trkpt lat="42.9475266" lon="11.9099084"><ele>339.5</ele><time>2026-04-09T13:16:48.406Z</time></trkpt><trkpt lat="42.9475679" lon="11.9100546"><ele>338.0</ele><time>2026-04-09T13:16:50.416Z</time></trkpt><trkpt lat="42.9476055" lon="11.9101978"><ele>337.79999999999995</ele><time>2026-04-09T13:16:52.414Z</time></trkpt><trkpt lat="42.9476262" lon="11.9103237"><ele>337.6</ele><time>2026-04-09T13:16:54.414Z</time></trkpt><trkpt lat="42.9476028" lon="11.910447"><ele>337.4</ele><time>2026-04-09T13:16:56.412Z</time></trkpt><trkpt lat="42.947536" lon="11.9105508"><ele>337.20000000000005</ele><time>2026-04-09T13:16:58.42Z</time></trkpt><trkpt lat="42.9474052" lon="11.9105996"><ele>337.0</ele><time>2026-04-09T13:17:00.419Z</time></trkpt><trkpt lat="42.9473262" lon="11.9106121"><ele>335.3333333333333</ele><time>2026-04-09T13:17:01.412Z</time></trkpt><trkpt lat="42.9472455" lon="11.9106309"><ele>333.66666666666663</ele><time>2026-04-09T13:17:02.415Z</time></trkpt><trkpt lat="42.947162" lon="11.9106496"><ele>332.0</ele><time>2026-04-09T13:17:03.411Z</time></trkpt><trkpt lat="42.9470741" lon="11.9106719"><ele>330.3333333333333</ele><time>2026-04-09T13:17:04.404Z</time></trkpt><trkpt lat="42.9469885" lon="11.9106857"><ele>328.6666666666667</ele><time>2026-04-09T13:17:05.416Z</time></trkpt><trkpt lat="42.9469214" lon="11.9107025"><ele>327.0</ele><time>2026-04-09T13:17:06.404Z</time></trkpt><trkpt lat="42.9468551" lon="11.9107269"><ele>327.0</ele><time>2026-04-09T13:17:07.414Z</time></trkpt><trkpt lat="42.9467317" lon="11.9107701"><ele>327.0</ele><time>2026-04-09T13:17:09.405Z</time></trkpt><trkpt lat="42.9466726" lon="11.9108217"><ele>327.0</ele><time>2026-04-09T13:17:10.415Z</time></trkpt><trkpt lat="42.9465828" lon="11.9108957"><ele>327.0</ele><time>2026-04-09T13:17:12.408Z</time></trkpt><trkpt lat="42.9465124" lon="11.9109654"><ele>327.0</ele><time>2026-04-09T13:17:14.412Z</time></trkpt><trkpt lat="42.9464581" lon="11.9110502"><ele>326.3333333333333</ele><time>2026-04-09T13:17:16.412Z</time></trkpt><trkpt lat="42.946411" lon="11.9111589"><ele>325.6666666666667</ele><time>2026-04-09T13:17:19.41Z</time></trkpt><trkpt lat="42.9464191" lon="11.9112538"><ele>325.0</ele><time>2026-04-09T13:17:21.411Z</time></trkpt><trkpt lat="42.946478" lon="11.9113637"><ele>324.33333333333337</ele><time>2026-04-09T13:17:23.411Z</time></trkpt><trkpt lat="42.9465234" lon="11.9114626"><ele>323.6666666666667</ele><time>2026-04-09T13:17:25.408Z</time></trkpt><trkpt lat="42.946581" lon="11.9115716"><ele>323.0</ele><time>2026-04-09T13:17:27.42Z</time></trkpt><trkpt lat="42.9466361" lon="11.9116721"><ele>321.6666666666667</ele><time>2026-04-09T13:17:29.421Z</time></trkpt><trkpt lat="42.9466785" lon="11.9117524"><ele>320.33333333333337</ele><time>2026-04-09T13:17:31.411Z</time></trkpt><trkpt lat="42.946731" lon="11.9118411"><ele>319.0</ele><time>2026-04-09T13:17:33.412Z</time></trkpt><trkpt lat="42.9467916" lon="11.9119529"><ele>317.6666666666667</ele><time>2026-04-09T13:17:35.416Z</time></trkpt><trkpt lat="42.9468613" lon="11.9120558"><ele>316.3333333333333</ele><time>2026-04-09T13:17:37.408Z</time></trkpt><trkpt lat="42.9469001" lon="11.9121312"><ele>315.0</ele><time>2026-04-09T13:17:38.406Z</time></trkpt><trkpt lat="42.9469379" lon="11.9122001"><ele>314.7142857142857</ele><time>2026-04-09T13:17:39.411Z</time></trkpt><trkpt lat="42.946974" lon="11.9122827"><ele>314.42857142857144</ele><time>2026-04-09T13:17:40.402Z</time></trkpt><trkpt lat="42.9470087" lon="11.9123699"><ele>314.1428571428571</ele><time>2026-04-09T13:17:41.412Z</time></trkpt><trkpt lat="42.9470484" lon="11.912444"><ele>313.8571428571429</ele><time>2026-04-09T13:17:42.405Z</time></trkpt><trkpt lat="42.9470533" lon="11.9125324"><ele>313.57142857142856</ele><time>2026-04-09T13:17:43.417Z</time></trkpt><trkpt lat="42.9470465" lon="11.9126265"><ele>313.2857142857143</ele><time>2026-04-09T13:17:44.412Z</time></trkpt><trkpt lat="42.9470431" lon="11.9127185"><ele>313.0</ele><time>2026-04-09T13:17:45.412Z</time></trkpt><trkpt lat="42.947043" lon="11.9128257"><ele>313.0</ele><time>2026-04-09T13:17:46.41Z</time></trkpt><trkpt lat="42.947041" lon="11.912936"><ele>313.0</ele><time>2026-04-09T13:17:47.417Z</time></trkpt><trkpt lat="42.9470375" lon="11.9130487"><ele>313.0</ele><time>2026-04-09T13:17:48.419Z</time></trkpt><trkpt lat="42.9470327" lon="11.9131825"><ele>313.0</ele><time>2026-04-09T13:17:49.408Z</time></trkpt><trkpt lat="42.9470282" lon="11.9133468"><ele>313.0</ele><time>2026-04-09T13:17:50.415Z</time></trkpt><trkpt lat="42.9470196" lon="11.9135209"><ele>312.5</ele><time>2026-04-09T13:17:51.409Z</time></trkpt><trkpt lat="42.946999" lon="11.9137056"><ele>312.0</ele><time>2026-04-09T13:17:52.412Z</time></trkpt><trkpt lat="42.9469682" lon="11.9139017"><ele>311.5</ele><time>2026-04-09T13:17:53.415Z</time></trkpt><trkpt lat="42.9469272" lon="11.9141138"><ele>311.0</ele><time>2026-04-09T13:17:54.409Z</time></trkpt><trkpt lat="42.946897" lon="11.9142644"><ele>311.0</ele><time>2026-04-09T13:17:55.414Z</time></trkpt><trkpt lat="42.9468709" lon="11.914431"><ele>311.0</ele><time>2026-04-09T13:17:56.416Z</time></trkpt><trkpt lat="42.9468352" lon="11.9145925"><ele>311.0</ele><time>2026-04-09T13:17:57.418Z</time></trkpt><trkpt lat="42.9467883" lon="11.9147496"><ele>311.0</ele><time>2026-04-09T13:17:58.416Z</time></trkpt><trkpt lat="42.9467274" lon="11.9149075"><ele>311.25</ele><time>2026-04-09T13:17:59.425Z</time></trkpt><trkpt lat="42.9466482" lon="11.9150515"><ele>311.5</ele><time>2026-04-09T13:18:00.414Z</time></trkpt><trkpt lat="42.9465796" lon="11.9152201"><ele>311.75</ele><time>2026-04-09T13:18:01.41Z</time></trkpt><trkpt lat="42.9464709" lon="11.915403"><ele>312.0</ele><time>2026-04-09T13:18:02.423Z</time></trkpt><trkpt lat="42.9463417" lon="11.9156126"><ele>311.5</ele><time>2026-04-09T13:18:03.415Z</time></trkpt><trkpt lat="42.9462435" lon="11.9157998"><ele>311.0</ele><time>2026-04-09T13:18:04.413Z</time></trkpt><trkpt lat="42.9461647" lon="11.915959"><ele>310.5</ele><time>2026-04-09T13:18:05.422Z</time></trkpt><trkpt lat="42.9460896" lon="11.9161137"><ele>310.0</ele><time>2026-04-09T13:18:06.41Z</time></trkpt><trkpt lat="42.9460095" lon="11.9163032"><ele>309.2</ele><time>2026-04-09T13:18:07.411Z</time></trkpt><trkpt lat="42.945947" lon="11.9164206"><ele>308.4</ele><time>2026-04-09T13:18:08.413Z</time></trkpt><trkpt lat="42.9458894" lon="11.9165431"><ele>307.6</ele><time>2026-04-09T13:18:09.412Z</time></trkpt><trkpt lat="42.9458403" lon="11.9166831"><ele>306.8</ele><time>2026-04-09T13:18:10.412Z</time></trkpt><trkpt lat="42.9458083" lon="11.9168096"><ele>306.0</ele><time>2026-04-09T13:18:11.417Z</time></trkpt><trkpt lat="42.9457763" lon="11.9169402"><ele>307.8</ele><time>2026-04-09T13:18:12.406Z</time></trkpt><trkpt lat="42.9457568" lon="11.9170777"><ele>309.6</ele><time>2026-04-09T13:18:13.415Z</time></trkpt><trkpt lat="42.945767" lon="11.9172078"><ele>311.4</ele><time>2026-04-09T13:18:14.405Z</time></trkpt><trkpt lat="42.9458014" lon="11.9173504"><ele>313.2</ele><time>2026-04-09T13:18:15.404Z</time></trkpt><trkpt lat="42.945848" lon="11.9174632"><ele>315.0</ele><time>2026-04-09T13:18:16.404Z</time></trkpt><trkpt lat="42.9459183" lon="11.9175933"><ele>315.0</ele><time>2026-04-09T13:18:17.413Z</time></trkpt><trkpt lat="42.9459952" lon="11.9177412"><ele>315.0</ele><time>2026-04-09T13:18:18.4Z</time></trkpt><trkpt lat="42.9460762" lon="11.9179013"><ele>315.0</ele><time>2026-04-09T13:18:19.411Z</time></trkpt><trkpt lat="42.9461434" lon="11.9180369"><ele>315.0</ele><time>2026-04-09T13:18:20.406Z</time></trkpt><trkpt lat="42.9461993" lon="11.9181533"><ele>315.0</ele><time>2026-04-09T13:18:21.412Z</time></trkpt><trkpt lat="42.9462301" lon="11.9182657"><ele>315.0</ele><time>2026-04-09T13:18:22.41Z</time></trkpt><trkpt lat="42.9462459" lon="11.9183822"><ele>315.0</ele><time>2026-04-09T13:18:23.41Z</time></trkpt><trkpt lat="42.9462504" lon="11.9184995"><ele>315.0</ele><time>2026-04-09T13:18:24.41Z</time></trkpt><trkpt lat="42.9462463" lon="11.9186196"><ele>315.0</ele><time>2026-04-09T13:18:25.403Z</time></trkpt><trkpt lat="42.9462508" lon="11.9187119"><ele>315.0</ele><time>2026-04-09T13:18:26.418Z</time></trkpt><trkpt lat="42.9462928" lon="11.9187899"><ele>315.0</ele><time>2026-04-09T13:18:37.433Z</time></trkpt><trkpt lat="42.9464149" lon="11.9189165"><ele>315.0</ele><time>2026-04-09T13:18:40.421Z</time></trkpt><trkpt lat="42.9464792" lon="11.9190139"><ele>315.0</ele><time>2026-04-09T13:18:41.562Z</time></trkpt><trkpt lat="42.9466269" lon="11.919251"><ele>314.2</ele><time>2026-04-09T13:18:43.418Z</time></trkpt><trkpt lat="42.9466986" lon="11.919381"><ele>313.4</ele><time>2026-04-09T13:18:44.399Z</time></trkpt><trkpt lat="42.946769" lon="11.9195043"><ele>312.6</ele><time>2026-04-09T13:18:45.406Z</time></trkpt><trkpt lat="42.9468353" lon="11.9196239"><ele>311.8</ele><time>2026-04-09T13:18:46.402Z</time></trkpt><trkpt lat="42.946895" lon="11.9197311"><ele>311.0</ele><time>2026-04-09T13:18:47.401Z</time></trkpt><trkpt lat="42.9469566" lon="11.9198436"><ele>308.75</ele><time>2026-04-09T13:18:48.401Z</time></trkpt><trkpt lat="42.9470201" lon="11.9199523"><ele>306.5</ele><time>2026-04-09T13:18:49.398Z</time></trkpt><trkpt lat="42.9470822" lon="11.9200604"><ele>304.25</ele><time>2026-04-09T13:18:50.404Z</time></trkpt><trkpt lat="42.9471698" lon="11.9201752"><ele>302.0</ele><time>2026-04-09T13:18:51.401Z</time></trkpt><trkpt lat="42.947269" lon="11.9202897"><ele>301.2</ele><time>2026-04-09T13:18:52.404Z</time></trkpt><trkpt lat="42.9473629" lon="11.9203959"><ele>300.4</ele><time>2026-04-09T13:18:53.404Z</time></trkpt><trkpt lat="42.9474413" lon="11.9204952"><ele>299.6</ele><time>2026-04-09T13:18:54.404Z</time></trkpt><trkpt lat="42.9475162" lon="11.920596"><ele>298.8</ele><time>2026-04-09T13:18:55.423Z</time></trkpt><trkpt lat="42.9475947" lon="11.9207011"><ele>298.0</ele><time>2026-04-09T13:18:56.408Z</time></trkpt><trkpt lat="42.9476758" lon="11.9207957"><ele>298.0</ele><time>2026-04-09T13:18:57.427Z</time></trkpt><trkpt lat="42.9477548" lon="11.9208748"><ele>298.0</ele><time>2026-04-09T13:18:58.422Z</time></trkpt><trkpt lat="42.9478394" lon="11.9209428"><ele>298.0</ele><time>2026-04-09T13:18:59.4Z</time></trkpt><trkpt lat="42.9479053" lon="11.920997"><ele>298.0</ele><time>2026-04-09T13:19:00.402Z</time></trkpt><trkpt lat="42.9479501" lon="11.9210577"><ele>298.0</ele><time>2026-04-09T13:19:01.402Z</time></trkpt><trkpt lat="42.9480294" lon="11.9211273"><ele>298.0</ele><time>2026-04-09T13:19:03.399Z</time></trkpt><trkpt lat="42.9480961" lon="11.9210818"><ele>298.0</ele><time>2026-04-09T13:19:05.399Z</time></trkpt><trkpt lat="42.9481427" lon="11.9210065"><ele>298.0</ele><time>2026-04-09T13:19:06.405Z</time></trkpt><trkpt lat="42.9481972" lon="11.9209366"><ele>298.0</ele><time>2026-04-09T13:19:07.399Z</time></trkpt><trkpt lat="42.9482511" lon="11.9208897"><ele>298.0</ele><time>2026-04-09T13:19:08.4Z</time></trkpt><trkpt lat="42.948346" lon="11.9208273"><ele>298.0</ele><time>2026-04-09T13:19:10.391Z</time></trkpt><trkpt lat="42.9484132" lon="11.9208118"><ele>298.0</ele><time>2026-04-09T13:19:14.559Z</time></trkpt><trkpt lat="42.9484028" lon="11.9209117"><ele>298.0</ele><time>2026-04-09T13:19:16.394Z</time></trkpt><trkpt lat="42.9483466" lon="11.9210613"><ele>298.0</ele><time>2026-04-09T13:19:18.395Z</time></trkpt><trkpt lat="42.9482757" lon="11.9211504"><ele>298.0</ele><time>2026-04-09T13:19:19.4Z</time></trkpt><trkpt lat="42.9481934" lon="11.9212344"><ele>298.0</ele><time>2026-04-09T13:19:20.4Z</time></trkpt><trkpt lat="42.9480956" lon="11.9213225"><ele>298.0</ele><time>2026-04-09T13:19:21.406Z</time></trkpt><trkpt lat="42.9480151" lon="11.9213921"><ele>298.0</ele><time>2026-04-09T13:19:22.389Z</time></trkpt><trkpt lat="42.9479508" lon="11.9214673"><ele>298.0</ele><time>2026-04-09T13:19:23.407Z</time></trkpt><trkpt lat="42.9479132" lon="11.9215423"><ele>298.0</ele><time>2026-04-09T13:19:24.404Z</time></trkpt><trkpt lat="42.947888" lon="11.921657"><ele>298.0</ele><time>2026-04-09T13:19:26.406Z</time></trkpt><trkpt lat="42.9479333" lon="11.9217661"><ele>298.0</ele><time>2026-04-09T13:19:28.405Z</time></trkpt><trkpt lat="42.9479687" lon="11.9218848"><ele>298.0</ele><time>2026-04-09T13:19:29.434Z</time></trkpt><trkpt lat="42.948016" lon="11.9220028"><ele>298.25</ele><time>2026-04-09T13:19:30.421Z</time></trkpt><trkpt lat="42.9480696" lon="11.9221448"><ele>298.5</ele><time>2026-04-09T13:19:31.428Z</time></trkpt><trkpt lat="42.9481309" lon="11.9223175"><ele>298.75</ele><time>2026-04-09T13:19:32.411Z</time></trkpt><trkpt lat="42.9481954" lon="11.9224747"><ele>299.0</ele><time>2026-04-09T13:19:33.408Z</time></trkpt><trkpt lat="42.9482776" lon="11.9226289"><ele>299.5</ele><time>2026-04-09T13:19:34.398Z</time></trkpt><trkpt lat="42.9483417" lon="11.9227661"><ele>300.0</ele><time>2026-04-09T13:19:35.425Z</time></trkpt><trkpt lat="42.9483956" lon="11.9229199"><ele>300.5</ele><time>2026-04-09T13:19:36.399Z</time></trkpt><trkpt lat="42.948428" lon="11.9230822"><ele>301.0</ele><time>2026-04-09T13:19:37.417Z</time></trkpt><trkpt lat="42.9484458" lon="11.9232404"><ele>302.0</ele><time>2026-04-09T13:19:38.553Z</time></trkpt><trkpt lat="42.9484376" lon="11.9235142"><ele>303.0</ele><time>2026-04-09T13:19:40.391Z</time></trkpt><trkpt lat="42.9484155" lon="11.9236304"><ele>304.0</ele><time>2026-04-09T13:19:41.404Z</time></trkpt><trkpt lat="42.948391" lon="11.9237552"><ele>305.0</ele><time>2026-04-09T13:19:42.403Z</time></trkpt><trkpt lat="42.9483483" lon="11.9238884"><ele>305.0</ele><time>2026-04-09T13:19:43.407Z</time></trkpt><trkpt lat="42.9483141" lon="11.9240279"><ele>305.0</ele><time>2026-04-09T13:19:44.421Z</time></trkpt><trkpt lat="42.9482897" lon="11.9241606"><ele>305.0</ele><time>2026-04-09T13:19:45.412Z</time></trkpt><trkpt lat="42.9482676" lon="11.9242853"><ele>305.0</ele><time>2026-04-09T13:19:46.408Z</time></trkpt><trkpt lat="42.9482451" lon="11.9244024"><ele>305.0</ele><time>2026-04-09T13:19:47.406Z</time></trkpt><trkpt lat="42.9482214" lon="11.9245163"><ele>304.83333333333337</ele><time>2026-04-09T13:19:48.416Z</time></trkpt><trkpt lat="42.9482108" lon="11.9246215"><ele>304.6666666666667</ele><time>2026-04-09T13:19:49.41Z</time></trkpt><trkpt lat="42.948223" lon="11.9247104"><ele>304.5</ele><time>2026-04-09T13:19:50.416Z</time></trkpt><trkpt lat="42.9482358" lon="11.9248"><ele>304.3333333333333</ele><time>2026-04-09T13:19:51.413Z</time></trkpt><trkpt lat="42.9482424" lon="11.9249037"><ele>304.16666666666663</ele><time>2026-04-09T13:19:52.405Z</time></trkpt><trkpt lat="42.9482503" lon="11.9250215"><ele>304.0</ele><time>2026-04-09T13:19:53.412Z</time></trkpt><trkpt lat="42.9482612" lon="11.9251382"><ele>303.2</ele><time>2026-04-09T13:19:54.414Z</time></trkpt><trkpt lat="42.9482656" lon="11.9252644"><ele>302.4</ele><time>2026-04-09T13:19:55.41Z</time></trkpt><trkpt lat="42.9482681" lon="11.9253868"><ele>301.6</ele><time>2026-04-09T13:19:56.415Z</time></trkpt><trkpt lat="42.9482719" lon="11.9255227"><ele>300.8</ele><time>2026-04-09T13:19:57.414Z</time></trkpt><trkpt lat="42.9482805" lon="11.9256589"><ele>300.0</ele><time>2026-04-09T13:19:58.41Z</time></trkpt><trkpt lat="42.9483021" lon="11.9257847"><ele>300.0</ele><time>2026-04-09T13:19:59.41Z</time></trkpt><trkpt lat="42.9483403" lon="11.9258948"><ele>300.0</ele><time>2026-04-09T13:20:00.408Z</time></trkpt><trkpt lat="42.9484017" lon="11.9259958"><ele>300.0</ele><time>2026-04-09T13:20:01.396Z</time></trkpt><trkpt lat="42.9484722" lon="11.9260831"><ele>300.0</ele><time>2026-04-09T13:20:02.404Z</time></trkpt><trkpt lat="42.9485428" lon="11.9261647"><ele>300.0</ele><time>2026-04-09T13:20:03.406Z</time></trkpt><trkpt lat="42.9486016" lon="11.9262577"><ele>299.0</ele><time>2026-04-09T13:20:04.402Z</time></trkpt><trkpt lat="42.948645" lon="11.9263731"><ele>298.0</ele><time>2026-04-09T13:20:05.404Z</time></trkpt><trkpt lat="42.9486611" lon="11.9265253"><ele>297.0</ele><time>2026-04-09T13:20:06.402Z</time></trkpt><trkpt lat="42.9486755" lon="11.9266872"><ele>296.0</ele><time>2026-04-09T13:20:07.428Z</time></trkpt><trkpt lat="42.9486938" lon="11.9268621"><ele>296.0</ele><time>2026-04-09T13:20:08.408Z</time></trkpt><trkpt lat="42.9487191" lon="11.9270398"><ele>296.0</ele><time>2026-04-09T13:20:09.409Z</time></trkpt><trkpt lat="42.9487488" lon="11.9271943"><ele>296.0</ele><time>2026-04-09T13:20:10.394Z</time></trkpt><trkpt lat="42.9487776" lon="11.9273501"><ele>296.0</ele><time>2026-04-09T13:20:11.404Z</time></trkpt><trkpt lat="42.9488071" lon="11.9274876"><ele>295.6</ele><time>2026-04-09T13:20:12.401Z</time></trkpt><trkpt lat="42.9488378" lon="11.9276062"><ele>295.20000000000005</ele><time>2026-04-09T13:20:13.401Z</time></trkpt><trkpt lat="42.9488709" lon="11.927692"><ele>294.79999999999995</ele><time>2026-04-09T13:20:14.405Z</time></trkpt><trkpt lat="42.9489177" lon="11.9278144"><ele>294.4</ele><time>2026-04-09T13:20:16.398Z</time></trkpt><trkpt lat="42.9489442" lon="11.9279484"><ele>294.0</ele><time>2026-04-09T13:20:18.404Z</time></trkpt><trkpt lat="42.9489137" lon="11.9281251"><ele>294.0</ele><time>2026-04-09T13:20:20.397Z</time></trkpt><trkpt lat="42.9488689" lon="11.9282406"><ele>294.0</ele><time>2026-04-09T13:20:21.402Z</time></trkpt><trkpt lat="42.948794" lon="11.9283699"><ele>294.0</ele><time>2026-04-09T13:20:22.396Z</time></trkpt><trkpt lat="42.9487063" lon="11.9285068"><ele>294.0</ele><time>2026-04-09T13:20:23.49Z</time></trkpt><trkpt lat="42.9486044" lon="11.9286423"><ele>294.0</ele><time>2026-04-09T13:20:24.41Z</time></trkpt><trkpt lat="42.9485052" lon="11.9287752"><ele>294.0</ele><time>2026-04-09T13:20:25.399Z</time></trkpt><trkpt lat="42.9484263" lon="11.9288905"><ele>294.0</ele><time>2026-04-09T13:20:26.404Z</time></trkpt><trkpt lat="42.9483665" lon="11.929003"><ele>294.0</ele><time>2026-04-09T13:20:27.403Z</time></trkpt><trkpt lat="42.9483191" lon="11.929119"><ele>294.0</ele><time>2026-04-09T13:20:28.398Z</time></trkpt><trkpt lat="42.9482847" lon="11.9292444"><ele>294.0</ele><time>2026-04-09T13:20:29.404Z</time></trkpt><trkpt lat="42.9482664" lon="11.9293873"><ele>294.0</ele><time>2026-04-09T13:20:30.413Z</time></trkpt><trkpt lat="42.9482667" lon="11.9295327"><ele>294.0</ele><time>2026-04-09T13:20:31.409Z</time></trkpt><trkpt lat="42.9482894" lon="11.9296828"><ele>294.0</ele><time>2026-04-09T13:20:32.408Z</time></trkpt><trkpt lat="42.9483223" lon="11.9298477"><ele>294.0</ele><time>2026-04-09T13:20:33.405Z</time></trkpt><trkpt lat="42.9483583" lon="11.9300313"><ele>294.0</ele><time>2026-04-09T13:20:34.408Z</time></trkpt><trkpt lat="42.9483987" lon="11.9302725"><ele>294.0</ele><time>2026-04-09T13:20:35.404Z</time></trkpt><trkpt lat="42.9484321" lon="11.9305249"><ele>292.75</ele><time>2026-04-09T13:20:36.408Z</time></trkpt><trkpt lat="42.9484671" lon="11.930726"><ele>291.5</ele><time>2026-04-09T13:20:37.399Z</time></trkpt><trkpt lat="42.9484711" lon="11.9309089"><ele>290.25</ele><time>2026-04-09T13:20:38.407Z</time></trkpt><trkpt lat="42.9484606" lon="11.9310715"><ele>289.0</ele><time>2026-04-09T13:20:39.424Z</time></trkpt><trkpt lat="42.9484532" lon="11.931231"><ele>289.0</ele><time>2026-04-09T13:20:40.41Z</time></trkpt><trkpt lat="42.9484345" lon="11.9314051"><ele>289.0</ele><time>2026-04-09T13:20:41.41Z</time></trkpt><trkpt lat="42.9484544" lon="11.931608"><ele>289.0</ele><time>2026-04-09T13:20:42.398Z</time></trkpt><trkpt lat="42.9485" lon="11.9318033"><ele>289.0</ele><time>2026-04-09T13:20:43.44Z</time></trkpt><trkpt lat="42.9485491" lon="11.9319601"><ele>290.8</ele><time>2026-04-09T13:20:44.408Z</time></trkpt><trkpt lat="42.9485639" lon="11.9320819"><ele>292.59999999999997</ele><time>2026-04-09T13:20:45.404Z</time></trkpt><trkpt lat="42.9485914" lon="11.9322273"><ele>294.4</ele><time>2026-04-09T13:20:46.4Z</time></trkpt><trkpt lat="42.9486276" lon="11.9323756"><ele>296.2</ele><time>2026-04-09T13:20:47.41Z</time></trkpt><trkpt lat="42.9486687" lon="11.9325158"><ele>298.0</ele><time>2026-04-09T13:20:48.401Z</time></trkpt><trkpt lat="42.9487166" lon="11.9326718"><ele>298.0</ele><time>2026-04-09T13:20:49.414Z</time></trkpt><trkpt lat="42.9487587" lon="11.9328375"><ele>298.0</ele><time>2026-04-09T13:20:50.407Z</time></trkpt><trkpt lat="42.9487881" lon="11.9329985"><ele>298.0</ele><time>2026-04-09T13:20:51.393Z</time></trkpt><trkpt lat="42.9488074" lon="11.9331533"><ele>298.0</ele><time>2026-04-09T13:20:52.414Z</time></trkpt><trkpt lat="42.9488256" lon="11.9333106"><ele>298.2</ele><time>2026-04-09T13:20:53.409Z</time></trkpt><trkpt lat="42.9488449" lon="11.9334517"><ele>298.4</ele><time>2026-04-09T13:20:54.401Z</time></trkpt><trkpt lat="42.9488767" lon="11.933585"><ele>298.59999999999997</ele><time>2026-04-09T13:20:55.405Z</time></trkpt><trkpt lat="42.9489138" lon="11.933725"><ele>298.8</ele><time>2026-04-09T13:20:56.408Z</time></trkpt><trkpt lat="42.9489639" lon="11.9338544"><ele>299.0</ele><time>2026-04-09T13:20:57.395Z</time></trkpt><trkpt lat="42.9490323" lon="11.9339747"><ele>299.0</ele><time>2026-04-09T13:20:58.418Z</time></trkpt><trkpt lat="42.9491017" lon="11.9340809"><ele>299.0</ele><time>2026-04-09T13:20:59.406Z</time></trkpt><trkpt lat="42.9491629" lon="11.9341808"><ele>299.0</ele><time>2026-04-09T13:21:00.399Z</time></trkpt><trkpt lat="42.9492007" lon="11.9342764"><ele>299.0</ele><time>2026-04-09T13:21:01.409Z</time></trkpt><trkpt lat="42.94921" lon="11.9343857"><ele>299.0</ele><time>2026-04-09T13:21:02.404Z</time></trkpt><trkpt lat="42.9491918" lon="11.9345066"><ele>298.4</ele><time>2026-04-09T13:21:03.401Z</time></trkpt><trkpt lat="42.9491516" lon="11.9346355"><ele>297.79999999999995</ele><time>2026-04-09T13:21:04.407Z</time></trkpt><trkpt lat="42.9490847" lon="11.9347558"><ele>297.20000000000005</ele><time>2026-04-09T13:21:05.409Z</time></trkpt><trkpt lat="42.9490063" lon="11.9348612"><ele>296.6</ele><time>2026-04-09T13:21:06.402Z</time></trkpt><trkpt lat="42.9489369" lon="11.9349532"><ele>296.0</ele><time>2026-04-09T13:21:07.398Z</time></trkpt><trkpt lat="42.9488715" lon="11.9350214"><ele>294.33333333333337</ele><time>2026-04-09T13:21:08.404Z</time></trkpt><trkpt lat="42.9487979" lon="11.9350868"><ele>292.6666666666667</ele><time>2026-04-09T13:21:09.395Z</time></trkpt><trkpt lat="42.9487318" lon="11.9351533"><ele>291.0</ele><time>2026-04-09T13:21:10.41Z</time></trkpt><trkpt lat="42.9486657" lon="11.9352048"><ele>289.3333333333333</ele><time>2026-04-09T13:21:11.402Z</time></trkpt><trkpt lat="42.9486109" lon="11.9352636"><ele>287.66666666666663</ele><time>2026-04-09T13:21:12.398Z</time></trkpt><trkpt lat="42.9485518" lon="11.9353249"><ele>286.0</ele><time>2026-04-09T13:21:13.416Z</time></trkpt><trkpt lat="42.9484892" lon="11.9353829"><ele>286.0</ele><time>2026-04-09T13:21:14.405Z</time></trkpt><trkpt lat="42.948424" lon="11.9354439"><ele>286.0</ele><time>2026-04-09T13:21:15.401Z</time></trkpt><trkpt lat="42.9483644" lon="11.9355227"><ele>286.0</ele><time>2026-04-09T13:21:16.401Z</time></trkpt><trkpt lat="42.9483034" lon="11.935617"><ele>286.0</ele><time>2026-04-09T13:21:17.397Z</time></trkpt><trkpt lat="42.9482609" lon="11.9357287"><ele>286.0</ele><time>2026-04-09T13:21:18.397Z</time></trkpt><trkpt lat="42.9482229" lon="11.9358807"><ele>284.25</ele><time>2026-04-09T13:21:19.392Z</time></trkpt><trkpt lat="42.948184" lon="11.9360486"><ele>282.5</ele><time>2026-04-09T13:21:20.397Z</time></trkpt><trkpt lat="42.9481387" lon="11.9362158"><ele>280.75</ele><time>2026-04-09T13:21:21.4Z</time></trkpt><trkpt lat="42.9481004" lon="11.9363626"><ele>279.0</ele><time>2026-04-09T13:21:22.396Z</time></trkpt><trkpt lat="42.9480649" lon="11.9364873"><ele>279.0</ele><time>2026-04-09T13:21:23.397Z</time></trkpt><trkpt lat="42.9480305" lon="11.9366092"><ele>279.0</ele><time>2026-04-09T13:21:24.394Z</time></trkpt><trkpt lat="42.9479958" lon="11.9367418"><ele>279.0</ele><time>2026-04-09T13:21:25.401Z</time></trkpt><trkpt lat="42.9479567" lon="11.9368686"><ele>279.0</ele><time>2026-04-09T13:21:26.403Z</time></trkpt><trkpt lat="42.9479154" lon="11.9369852"><ele>279.0</ele><time>2026-04-09T13:21:27.408Z</time></trkpt><trkpt lat="42.9478625" lon="11.9370963"><ele>278.4</ele><time>2026-04-09T13:21:28.401Z</time></trkpt><trkpt lat="42.9477942" lon="11.9371993"><ele>277.79999999999995</ele><time>2026-04-09T13:21:29.398Z</time></trkpt><trkpt lat="42.9477105" lon="11.9372949"><ele>277.20000000000005</ele><time>2026-04-09T13:21:30.41Z</time></trkpt><trkpt lat="42.9476174" lon="11.9373815"><ele>276.6</ele><time>2026-04-09T13:21:31.403Z</time></trkpt><trkpt lat="42.9475251" lon="11.9374506"><ele>276.0</ele><time>2026-04-09T13:21:32.404Z</time></trkpt><trkpt lat="42.9474334" lon="11.9375222"><ele>273.8333333333333</ele><time>2026-04-09T13:21:33.409Z</time></trkpt><trkpt lat="42.9473463" lon="11.9375877"><ele>271.6666666666667</ele><time>2026-04-09T13:21:34.397Z</time></trkpt><trkpt lat="42.9472659" lon="11.9376468"><ele>269.5</ele><time>2026-04-09T13:21:35.406Z</time></trkpt><trkpt lat="42.9471901" lon="11.9376945"><ele>267.33333333333337</ele><time>2026-04-09T13:21:36.413Z</time></trkpt><trkpt lat="42.9471238" lon="11.9377383"><ele>265.1666666666667</ele><time>2026-04-09T13:21:37.403Z</time></trkpt><trkpt lat="42.9470621" lon="11.937777"><ele>263.0</ele><time>2026-04-09T13:21:38.404Z</time></trkpt><trkpt lat="42.9470087" lon="11.9378236"><ele>263.0</ele><time>2026-04-09T13:21:39.41Z</time></trkpt><trkpt lat="42.9469373" lon="11.9379486"><ele>263.0</ele><time>2026-04-09T13:21:41.41Z</time></trkpt><trkpt lat="42.9469066" lon="11.9381178"><ele>263.0</ele><time>2026-04-09T13:21:43.412Z</time></trkpt><trkpt lat="42.9468948" lon="11.9382037"><ele>263.0</ele><time>2026-04-09T13:21:44.409Z</time></trkpt><trkpt lat="42.9468844" lon="11.9382893"><ele>263.0</ele><time>2026-04-09T13:21:45.401Z</time></trkpt><trkpt lat="42.9468708" lon="11.9383764"><ele>263.0</ele><time>2026-04-09T13:21:46.402Z</time></trkpt><trkpt lat="42.9468512" lon="11.9384639"><ele>261.0</ele><time>2026-04-09T13:21:47.405Z</time></trkpt><trkpt lat="42.9468364" lon="11.9385585"><ele>259.0</ele><time>2026-04-09T13:21:48.399Z</time></trkpt><trkpt lat="42.9468204" lon="11.9386577"><ele>257.0</ele><time>2026-04-09T13:21:49.403Z</time></trkpt><trkpt lat="42.9468038" lon="11.9387506"><ele>255.0</ele><time>2026-04-09T13:21:50.407Z</time></trkpt><trkpt lat="42.9467834" lon="11.9388397"><ele>253.00000000000003</ele><time>2026-04-09T13:21:51.41Z</time></trkpt><trkpt lat="42.9467721" lon="11.938982"><ele>251.0</ele><time>2026-04-09T13:21:53.41Z</time></trkpt><trkpt lat="42.9467637" lon="11.9390909"><ele>251.0</ele><time>2026-04-09T13:21:55.402Z</time></trkpt><trkpt lat="42.9467229" lon="11.9392049"><ele>251.00000000000003</ele><time>2026-04-09T13:21:57.396Z</time></trkpt><trkpt lat="42.946639" lon="11.9392669"><ele>251.00000000000003</ele><time>2026-04-09T13:21:59.412Z</time></trkpt><trkpt lat="42.9465452" lon="11.9392625"><ele>251.0</ele><time>2026-04-09T13:22:01.403Z</time></trkpt><trkpt lat="42.9464745" lon="11.9392129"><ele>251.0</ele><time>2026-04-09T13:22:03.392Z</time></trkpt><trkpt lat="42.9464065" lon="11.9390455"><ele>252.0</ele><time>2026-04-09T13:22:05.398Z</time></trkpt><trkpt lat="42.9463437" lon="11.9389091"><ele>253.0</ele><time>2026-04-09T13:22:06.403Z</time></trkpt><trkpt lat="42.946272" lon="11.9387743"><ele>254.0</ele><time>2026-04-09T13:22:07.41Z</time></trkpt><trkpt lat="42.9461956" lon="11.9386476"><ele>255.0</ele><time>2026-04-09T13:22:08.401Z</time></trkpt><trkpt lat="42.9461286" lon="11.9385241"><ele>255.0</ele><time>2026-04-09T13:22:09.402Z</time></trkpt><trkpt lat="42.9460557" lon="11.9384117"><ele>255.0</ele><time>2026-04-09T13:22:10.4Z</time></trkpt><trkpt lat="42.9459899" lon="11.9382859"><ele>255.0</ele><time>2026-04-09T13:22:11.408Z</time></trkpt><trkpt lat="42.9459294" lon="11.9381408"><ele>255.0</ele><time>2026-04-09T13:22:12.392Z</time></trkpt><trkpt lat="42.9458796" lon="11.938005"><ele>255.75</ele><time>2026-04-09T13:22:13.419Z</time></trkpt><trkpt lat="42.9458239" lon="11.9378728"><ele>256.5</ele><time>2026-04-09T13:22:14.397Z</time></trkpt><trkpt lat="42.9457458" lon="11.9377481"><ele>257.25</ele><time>2026-04-09T13:22:15.4Z</time></trkpt><trkpt lat="42.9456385" lon="11.9376288"><ele>258.0</ele><time>2026-04-09T13:22:16.401Z</time></trkpt><trkpt lat="42.9455337" lon="11.9375222"><ele>260.25</ele><time>2026-04-09T13:22:17.406Z</time></trkpt><trkpt lat="42.9454357" lon="11.9374145"><ele>262.5</ele><time>2026-04-09T13:22:18.404Z</time></trkpt><trkpt lat="42.9453448" lon="11.9373156"><ele>264.75</ele><time>2026-04-09T13:22:19.4Z</time></trkpt><trkpt lat="42.9452605" lon="11.9372029"><ele>267.0</ele><time>2026-04-09T13:22:20.411Z</time></trkpt><trkpt lat="42.9451796" lon="11.9370601"><ele>267.0</ele><time>2026-04-09T13:22:21.403Z</time></trkpt><trkpt lat="42.9450981" lon="11.9369201"><ele>267.0</ele><time>2026-04-09T13:22:22.402Z</time></trkpt><trkpt lat="42.9450297" lon="11.9367956"><ele>267.0</ele><time>2026-04-09T13:22:23.405Z</time></trkpt><trkpt lat="42.9449752" lon="11.9366803"><ele>267.0</ele><time>2026-04-09T13:22:24.402Z</time></trkpt><trkpt lat="42.9449302" lon="11.9365913"><ele>267.0</ele><time>2026-04-09T13:22:25.397Z</time></trkpt><trkpt lat="42.9448739" lon="11.9365193"><ele>265.3333333333333</ele><time>2026-04-09T13:22:26.398Z</time></trkpt><trkpt lat="42.9448121" lon="11.9364893"><ele>263.6666666666667</ele><time>2026-04-09T13:22:27.403Z</time></trkpt><trkpt lat="42.9447337" lon="11.9364797"><ele>262.0</ele><time>2026-04-09T13:22:28.391Z</time></trkpt><trkpt lat="42.9446508" lon="11.9365071"><ele>260.33333333333337</ele><time>2026-04-09T13:22:29.405Z</time></trkpt><trkpt lat="42.9445528" lon="11.9365434"><ele>258.6666666666667</ele><time>2026-04-09T13:22:30.4Z</time></trkpt><trkpt lat="42.9444534" lon="11.9365827"><ele>257.0</ele><time>2026-04-09T13:22:31.4Z</time></trkpt><trkpt lat="42.9443273" lon="11.9366386"><ele>255.66666666666669</ele><time>2026-04-09T13:22:32.404Z</time></trkpt><trkpt lat="42.944176" lon="11.9367036"><ele>254.33333333333331</ele><time>2026-04-09T13:22:33.4Z</time></trkpt><trkpt lat="42.9440021" lon="11.9368116"><ele>253.0</ele><time>2026-04-09T13:22:34.399Z</time></trkpt><trkpt lat="42.9438693" lon="11.9368852"><ele>253.0</ele><time>2026-04-09T13:22:35.4Z</time></trkpt><trkpt lat="42.9437428" lon="11.9369253"><ele>253.0</ele><time>2026-04-09T13:22:36.402Z</time></trkpt><trkpt lat="42.9436213" lon="11.9369601"><ele>253.0</ele><time>2026-04-09T13:22:37.4Z</time></trkpt><trkpt lat="42.943524" lon="11.9369805"><ele>253.0</ele><time>2026-04-09T13:22:38.403Z</time></trkpt><trkpt lat="42.9434454" lon="11.9370041"><ele>253.0</ele><time>2026-04-09T13:22:39.4Z</time></trkpt><trkpt lat="42.9433777" lon="11.9370251"><ele>253.14285714285717</ele><time>2026-04-09T13:22:41.395Z</time></trkpt><trkpt lat="42.943304" lon="11.9370157"><ele>253.28571428571428</ele><time>2026-04-09T13:23:07.398Z</time></trkpt><trkpt lat="42.9432398" lon="11.9370188"><ele>253.42857142857144</ele><time>2026-04-09T13:23:09.405Z</time></trkpt><trkpt lat="42.9432242" lon="11.9371346"><ele>253.57142857142858</ele><time>2026-04-09T13:23:11.407Z</time></trkpt><trkpt lat="42.9432263" lon="11.9372269"><ele>253.71428571428572</ele><time>2026-04-09T13:23:12.404Z</time></trkpt><trkpt lat="42.943236" lon="11.9373298"><ele>253.85714285714286</ele><time>2026-04-09T13:23:13.412Z</time></trkpt><trkpt lat="42.9432503" lon="11.9374356"><ele>254.0</ele><time>2026-04-09T13:23:14.413Z</time></trkpt><trkpt lat="42.9432639" lon="11.9375453"><ele>254.25</ele><time>2026-04-09T13:23:15.391Z</time></trkpt><trkpt lat="42.9432778" lon="11.9376724"><ele>254.5</ele><time>2026-04-09T13:23:16.408Z</time></trkpt><trkpt lat="42.9432903" lon="11.937819"><ele>254.75</ele><time>2026-04-09T13:23:17.408Z</time></trkpt><trkpt lat="42.9433047" lon="11.9379769"><ele>255.0</ele><time>2026-04-09T13:23:18.401Z</time></trkpt><trkpt lat="42.9433197" lon="11.9381581"><ele>255.0</ele><time>2026-04-09T13:23:19.406Z</time></trkpt><trkpt lat="42.9433354" lon="11.9383377"><ele>255.0</ele><time>2026-04-09T13:23:20.399Z</time></trkpt><trkpt lat="42.9433525" lon="11.9384997"><ele>255.0</ele><time>2026-04-09T13:23:21.396Z</time></trkpt><trkpt lat="42.9433735" lon="11.9386425"><ele>255.0</ele><time>2026-04-09T13:23:22.406Z</time></trkpt><trkpt lat="42.9433903" lon="11.938766"><ele>254.5</ele><time>2026-04-09T13:23:23.401Z</time></trkpt><trkpt lat="42.9434048" lon="11.9388741"><ele>254.0</ele><time>2026-04-09T13:23:24.398Z</time></trkpt><trkpt lat="42.9434168" lon="11.9389657"><ele>253.5</ele><time>2026-04-09T13:23:25.409Z</time></trkpt><trkpt lat="42.9434355" lon="11.9391305"><ele>253.0</ele><time>2026-04-09T13:23:27.4Z</time></trkpt><trkpt lat="42.9434447" lon="11.9392166"><ele>252.5</ele><time>2026-04-09T13:23:28.408Z</time></trkpt><trkpt lat="42.9434509" lon="11.9393078"><ele>252.0</ele><time>2026-04-09T13:23:29.402Z</time></trkpt><trkpt lat="42.943457" lon="11.9394018"><ele>251.66666666666666</ele><time>2026-04-09T13:23:30.413Z</time></trkpt><trkpt lat="42.9434572" lon="11.939493"><ele>251.33333333333331</ele><time>2026-04-09T13:23:31.406Z</time></trkpt><trkpt lat="42.9434604" lon="11.9395855"><ele>251.0</ele><time>2026-04-09T13:23:32.396Z</time></trkpt><trkpt lat="42.9434913" lon="11.9397663"><ele>250.66666666666666</ele><time>2026-04-09T13:23:34.402Z</time></trkpt><trkpt lat="42.9435138" lon="11.9398689"><ele>250.33333333333331</ele><time>2026-04-09T13:23:35.403Z</time></trkpt><trkpt lat="42.9435477" lon="11.9399817"><ele>250.0</ele><time>2026-04-09T13:23:36.392Z</time></trkpt><trkpt lat="42.9435863" lon="11.9401072"><ele>250.0</ele><time>2026-04-09T13:23:37.405Z</time></trkpt><trkpt lat="42.9436252" lon="11.9402376"><ele>250.0</ele><time>2026-04-09T13:23:38.405Z</time></trkpt><trkpt lat="42.9436601" lon="11.940361"><ele>250.0</ele><time>2026-04-09T13:23:39.399Z</time></trkpt><trkpt lat="42.943695" lon="11.9404762"><ele>250.0</ele><time>2026-04-09T13:23:40.41Z</time></trkpt><trkpt lat="42.9437306" lon="11.9405979"><ele>250.0</ele><time>2026-04-09T13:23:41.406Z</time></trkpt><trkpt lat="42.9437656" lon="11.9407345"><ele>250.0</ele><time>2026-04-09T13:23:42.397Z</time></trkpt><trkpt lat="42.9438005" lon="11.9408815"><ele>250.0</ele><time>2026-04-09T13:23:43.413Z</time></trkpt><trkpt lat="42.9438314" lon="11.9410229"><ele>250.0</ele><time>2026-04-09T13:23:44.407Z</time></trkpt><trkpt lat="42.9438609" lon="11.9411481"><ele>250.0</ele><time>2026-04-09T13:23:45.399Z</time></trkpt><trkpt lat="42.9438848" lon="11.9412635"><ele>250.0</ele><time>2026-04-09T13:23:46.403Z</time></trkpt><trkpt lat="42.9439089" lon="11.94138"><ele>250.4</ele><time>2026-04-09T13:23:47.409Z</time></trkpt><trkpt lat="42.9439352" lon="11.9414931"><ele>250.8</ele><time>2026-04-09T13:23:48.397Z</time></trkpt><trkpt lat="42.9439644" lon="11.9416201"><ele>251.2</ele><time>2026-04-09T13:23:49.405Z</time></trkpt><trkpt lat="42.9439952" lon="11.9417592"><ele>251.6</ele><time>2026-04-09T13:23:50.402Z</time></trkpt><trkpt lat="42.944027" lon="11.9418914"><ele>252.0</ele><time>2026-04-09T13:23:51.401Z</time></trkpt><trkpt lat="42.9440581" lon="11.9420174"><ele>252.2</ele><time>2026-04-09T13:23:52.408Z</time></trkpt><trkpt lat="42.9440842" lon="11.9421405"><ele>252.39999999999998</ele><time>2026-04-09T13:23:53.399Z</time></trkpt><trkpt lat="42.9441089" lon="11.9422708"><ele>252.60000000000002</ele><time>2026-04-09T13:23:54.406Z</time></trkpt><trkpt lat="42.9441268" lon="11.9424079"><ele>252.8</ele><time>2026-04-09T13:23:55.397Z</time></trkpt><trkpt lat="42.9441426" lon="11.9425429"><ele>253.0</ele><time>2026-04-09T13:23:56.408Z</time></trkpt><trkpt lat="42.9441548" lon="11.942667"><ele>253.0</ele><time>2026-04-09T13:23:57.403Z</time></trkpt><trkpt lat="42.9441624" lon="11.9427883"><ele>253.0</ele><time>2026-04-09T13:23:58.405Z</time></trkpt><trkpt lat="42.944158" lon="11.9429158"><ele>253.0</ele><time>2026-04-09T13:23:59.402Z</time></trkpt><trkpt lat="42.944156" lon="11.9430567"><ele>253.0</ele><time>2026-04-09T13:24:00.407Z</time></trkpt><trkpt lat="42.9441609" lon="11.9432139"><ele>253.0</ele><time>2026-04-09T13:24:01.402Z</time></trkpt><trkpt lat="42.9441608" lon="11.9433843"><ele>252.5</ele><time>2026-04-09T13:24:02.403Z</time></trkpt><trkpt lat="42.9441584" lon="11.9435548"><ele>252.0</ele><time>2026-04-09T13:24:03.405Z</time></trkpt><trkpt lat="42.9441556" lon="11.9437109"><ele>251.5</ele><time>2026-04-09T13:24:04.402Z</time></trkpt><trkpt lat="42.9441512" lon="11.9438657"><ele>251.0</ele><time>2026-04-09T13:24:05.409Z</time></trkpt><trkpt lat="42.9441474" lon="11.9440338"><ele>251.0</ele><time>2026-04-09T13:24:06.4Z</time></trkpt><trkpt lat="42.9441392" lon="11.9442254"><ele>251.0</ele><time>2026-04-09T13:24:07.423Z</time></trkpt><trkpt lat="42.944125" lon="11.9444165"><ele>251.0</ele><time>2026-04-09T13:24:08.409Z</time></trkpt><trkpt lat="42.944108" lon="11.9446005"><ele>251.0</ele><time>2026-04-09T13:24:09.412Z</time></trkpt><trkpt lat="42.9440905" lon="11.9447662"><ele>251.0</ele><time>2026-04-09T13:24:10.41Z</time></trkpt><trkpt lat="42.9440757" lon="11.9449233"><ele>251.0</ele><time>2026-04-09T13:24:11.419Z</time></trkpt><trkpt lat="42.9440515" lon="11.945088"><ele>251.0</ele><time>2026-04-09T13:24:12.4Z</time></trkpt><trkpt lat="42.9440215" lon="11.9452631"><ele>251.0</ele><time>2026-04-09T13:24:13.407Z</time></trkpt><trkpt lat="42.9439913" lon="11.9454329"><ele>251.25</ele><time>2026-04-09T13:24:14.438Z</time></trkpt><trkpt lat="42.9439636" lon="11.9455974"><ele>251.5</ele><time>2026-04-09T13:24:15.401Z</time></trkpt><trkpt lat="42.9439307" lon="11.9457761"><ele>251.75</ele><time>2026-04-09T13:24:16.411Z</time></trkpt><trkpt lat="42.9439004" lon="11.9459459"><ele>252.0</ele><time>2026-04-09T13:24:17.439Z</time></trkpt><trkpt lat="42.9438635" lon="11.9460939"><ele>251.39999999999998</ele><time>2026-04-09T13:24:18.401Z</time></trkpt><trkpt lat="42.9438279" lon="11.9462344"><ele>250.79999999999998</ele><time>2026-04-09T13:24:19.412Z</time></trkpt><trkpt lat="42.9437983" lon="11.9463593"><ele>250.2</ele><time>2026-04-09T13:24:20.412Z</time></trkpt><trkpt lat="42.9437729" lon="11.9464669"><ele>249.6</ele><time>2026-04-09T13:24:21.417Z</time></trkpt><trkpt lat="42.9437547" lon="11.946554"><ele>249.0</ele><time>2026-04-09T13:24:22.412Z</time></trkpt><trkpt lat="42.9437398" lon="11.9467066"><ele>249.0</ele><time>2026-04-09T13:24:24.397Z</time></trkpt><trkpt lat="42.9437288" lon="11.9468177"><ele>249.0</ele><time>2026-04-09T13:24:26.412Z</time></trkpt><trkpt lat="42.9437084" lon="11.9469018"><ele>249.0</ele><time>2026-04-09T13:24:51.415Z</time></trkpt><trkpt lat="42.9436434" lon="11.9469066"><ele>249.0</ele><time>2026-04-09T13:25:02.423Z</time></trkpt><trkpt lat="42.9436011" lon="11.9467985"><ele>249.0</ele><time>2026-04-09T13:25:05.423Z</time></trkpt><trkpt lat="42.9435597" lon="11.9467207"><ele>249.0</ele><time>2026-04-09T13:25:07.41Z</time></trkpt><trkpt lat="42.9434827" lon="11.9466743"><ele>249.0</ele><time>2026-04-09T13:25:10.421Z</time></trkpt><trkpt lat="42.9434174" lon="11.9466047"><ele>249.0</ele><time>2026-04-09T13:25:13.428Z</time></trkpt><trkpt lat="42.9434923" lon="11.9466037"><ele>249.0</ele><time>2026-04-09T13:25:19.416Z</time></trkpt><trkpt lat="42.9435688" lon="11.9466981"><ele>249.0</ele><time>2026-04-09T13:25:21.425Z</time></trkpt><trkpt lat="42.9436376" lon="11.9467866"><ele>249.0</ele><time>2026-04-09T13:25:23.418Z</time></trkpt><trkpt lat="42.9437034" lon="11.9468092"><ele>249.0</ele><time>2026-04-09T13:25:36.405Z</time></trkpt><trkpt lat="42.9437055" lon="11.9468978"><ele>248.83333333333334</ele><time>2026-04-09T13:25:54.414Z</time></trkpt><trkpt lat="42.943744" lon="11.9469999"><ele>248.66666666666669</ele><time>2026-04-09T13:26:38.422Z</time></trkpt><trkpt lat="42.9437757" lon="11.9470972"><ele>248.5</ele><time>2026-04-09T13:26:41.435Z</time></trkpt><trkpt lat="42.9437878" lon="11.9471823"><ele>248.33333333333334</ele><time>2026-04-09T13:26:45.425Z</time></trkpt><trkpt lat="42.9437371" lon="11.9472557"><ele>248.16666666666669</ele><time>2026-04-09T13:26:47.419Z</time></trkpt><trkpt lat="42.9436594" lon="11.9473781"><ele>248.0</ele><time>2026-04-09T13:26:49.41Z</time></trkpt><trkpt lat="42.9436221" lon="11.9474535"><ele>248.00000000000003</ele><time>2026-04-09T13:26:50.417Z</time></trkpt><trkpt lat="42.943588" lon="11.9475352"><ele>248.0</ele><time>2026-04-09T13:26:51.418Z</time></trkpt><trkpt lat="42.943553" lon="11.9476218"><ele>248.0</ele><time>2026-04-09T13:26:52.402Z</time></trkpt><trkpt lat="42.9435157" lon="11.9477135"><ele>248.0</ele><time>2026-04-09T13:26:53.425Z</time></trkpt><trkpt lat="42.9434868" lon="11.9477969"><ele>248.00000000000003</ele><time>2026-04-09T13:26:54.418Z</time></trkpt><trkpt lat="42.9434396" lon="11.9479454"><ele>248.0</ele><time>2026-04-09T13:26:56.427Z</time></trkpt><trkpt lat="42.9433937" lon="11.9480928"><ele>248.00000000000003</ele><time>2026-04-09T13:26:58.415Z</time></trkpt><trkpt lat="42.9433499" lon="11.9482459"><ele>248.0</ele><time>2026-04-09T13:27:00.419Z</time></trkpt><trkpt lat="42.9433241" lon="11.9483349"><ele>248.0</ele><time>2026-04-09T13:27:01.416Z</time></trkpt><trkpt lat="42.9432899" lon="11.948429"><ele>248.0</ele><time>2026-04-09T13:27:02.421Z</time></trkpt><trkpt lat="42.9432536" lon="11.9485141"><ele>248.00000000000003</ele><time>2026-04-09T13:27:03.414Z</time></trkpt><trkpt lat="42.9432162" lon="11.9486005"><ele>248.0</ele><time>2026-04-09T13:27:04.411Z</time></trkpt><trkpt lat="42.9431851" lon="11.9486975"><ele>247.8</ele><time>2026-04-09T13:27:05.425Z</time></trkpt><trkpt lat="42.9431523" lon="11.9488056"><ele>247.60000000000002</ele><time>2026-04-09T13:27:06.41Z</time></trkpt><trkpt lat="42.9431156" lon="11.9489341"><ele>247.39999999999998</ele><time>2026-04-09T13:27:07.408Z</time></trkpt><trkpt lat="42.9430732" lon="11.9490712"><ele>247.2</ele><time>2026-04-09T13:27:08.427Z</time></trkpt><trkpt lat="42.9430306" lon="11.9492029"><ele>247.0</ele><time>2026-04-09T13:27:09.415Z</time></trkpt><trkpt lat="42.9429916" lon="11.9493323"><ele>247.0</ele><time>2026-04-09T13:27:10.41Z</time></trkpt><trkpt lat="42.9429483" lon="11.9494658"><ele>247.0</ele><time>2026-04-09T13:27:11.425Z</time></trkpt><trkpt lat="42.9429028" lon="11.9495974"><ele>247.0</ele><time>2026-04-09T13:27:12.418Z</time></trkpt><trkpt lat="42.9428576" lon="11.9497318"><ele>247.0</ele><time>2026-04-09T13:27:13.419Z</time></trkpt><trkpt lat="42.9428137" lon="11.9498706"><ele>247.0</ele><time>2026-04-09T13:27:14.426Z</time></trkpt><trkpt lat="42.9427735" lon="11.9500046"><ele>247.2</ele><time>2026-04-09T13:27:15.422Z</time></trkpt><trkpt lat="42.942735" lon="11.9501302"><ele>247.39999999999998</ele><time>2026-04-09T13:27:16.414Z</time></trkpt><trkpt lat="42.9426924" lon="11.9502546"><ele>247.60000000000002</ele><time>2026-04-09T13:27:17.435Z</time></trkpt><trkpt lat="42.9426512" lon="11.9503791"><ele>247.8</ele><time>2026-04-09T13:27:18.417Z</time></trkpt><trkpt lat="42.9426128" lon="11.950502"><ele>248.0</ele><time>2026-04-09T13:27:19.412Z</time></trkpt><trkpt lat="42.9425787" lon="11.9506186"><ele>248.0</ele><time>2026-04-09T13:27:20.421Z</time></trkpt><trkpt lat="42.942544" lon="11.9507231"><ele>248.00000000000003</ele><time>2026-04-09T13:27:21.415Z</time></trkpt><trkpt lat="42.9425153" lon="11.9508166"><ele>248.0</ele><time>2026-04-09T13:27:22.414Z</time></trkpt><trkpt lat="42.9424879" lon="11.9509056"><ele>248.0</ele><time>2026-04-09T13:27:23.423Z</time></trkpt><trkpt lat="42.9424611" lon="11.9509914"><ele>248.00000000000003</ele><time>2026-04-09T13:27:24.412Z</time></trkpt><trkpt lat="42.9424334" lon="11.9510807"><ele>248.0</ele><time>2026-04-09T13:27:25.415Z</time></trkpt><trkpt lat="42.9424078" lon="11.9511662"><ele>248.0</ele><time>2026-04-09T13:27:26.416Z</time></trkpt><trkpt lat="42.9423507" lon="11.9513229"><ele>247.66666666666669</ele><time>2026-04-09T13:27:28.406Z</time></trkpt><trkpt lat="42.9423126" lon="11.9514113"><ele>247.33333333333334</ele><time>2026-04-09T13:27:29.415Z</time></trkpt><trkpt lat="42.9422774" lon="11.9514997"><ele>247.0</ele><time>2026-04-09T13:27:30.406Z</time></trkpt><trkpt lat="42.9422473" lon="11.9515885"><ele>246.66666666666669</ele><time>2026-04-09T13:27:31.409Z</time></trkpt><trkpt lat="42.9422167" lon="11.9516738"><ele>246.33333333333334</ele><time>2026-04-09T13:27:32.412Z</time></trkpt><trkpt lat="42.9421859" lon="11.9517517"><ele>246.0</ele><time>2026-04-09T13:27:33.398Z</time></trkpt><trkpt lat="42.9421312" lon="11.9518997"><ele>246.0</ele><time>2026-04-09T13:27:35.389Z</time></trkpt><trkpt lat="42.9420954" lon="11.9520572"><ele>246.0</ele><time>2026-04-09T13:27:37.395Z</time></trkpt><trkpt lat="42.9421127" lon="11.9521537"><ele>246.0</ele><time>2026-04-09T13:27:39.398Z</time></trkpt><trkpt lat="42.9421512" lon="11.952225"><ele>246.0</ele><time>2026-04-09T13:27:55.403Z</time></trkpt><trkpt lat="42.9421199" lon="11.9521225"><ele>246.0</ele><time>2026-04-09T13:28:02.399Z</time></trkpt><trkpt lat="42.9421173" lon="11.9519994"><ele>246.0</ele><time>2026-04-09T13:28:05.405Z</time></trkpt><trkpt lat="42.9421542" lon="11.9518383"><ele>246.0</ele><time>2026-04-09T13:28:07.488Z</time></trkpt><trkpt lat="42.9421966" lon="11.9516991"><ele>246.0</ele><time>2026-04-09T13:28:08.415Z</time></trkpt><trkpt lat="42.9422647" lon="11.9515299"><ele>246.0</ele><time>2026-04-09T13:28:09.558Z</time></trkpt><trkpt lat="42.9423387" lon="11.9513653"><ele>246.0</ele><time>2026-04-09T13:28:10.568Z</time></trkpt><trkpt lat="42.9424763" lon="11.951058"><ele>246.5</ele><time>2026-04-09T13:28:12.579Z</time></trkpt><trkpt lat="42.9425805" lon="11.950781"><ele>247.0</ele><time>2026-04-09T13:28:14.405Z</time></trkpt><trkpt lat="42.9426234" lon="11.9506484"><ele>247.5</ele><time>2026-04-09T13:28:15.419Z</time></trkpt><trkpt lat="42.9426522" lon="11.9505211"><ele>248.0</ele><time>2026-04-09T13:28:16.415Z</time></trkpt><trkpt lat="42.9426801" lon="11.9503882"><ele>248.0</ele><time>2026-04-09T13:28:17.416Z</time></trkpt><trkpt lat="42.942718" lon="11.950245"><ele>248.0</ele><time>2026-04-09T13:28:18.418Z</time></trkpt><trkpt lat="42.9427639" lon="11.9501015"><ele>248.0</ele><time>2026-04-09T13:28:19.43Z</time></trkpt><trkpt lat="42.9428111" lon="11.9499648"><ele>248.0</ele><time>2026-04-09T13:28:20.414Z</time></trkpt><trkpt lat="42.9428597" lon="11.9498234"><ele>247.8</ele><time>2026-04-09T13:28:21.419Z</time></trkpt><trkpt lat="42.9429068" lon="11.9496858"><ele>247.60000000000002</ele><time>2026-04-09T13:28:22.414Z</time></trkpt><trkpt lat="42.9429498" lon="11.9495474"><ele>247.39999999999998</ele><time>2026-04-09T13:28:23.421Z</time></trkpt><trkpt lat="42.9429925" lon="11.9494118"><ele>247.2</ele><time>2026-04-09T13:28:24.412Z</time></trkpt><trkpt lat="42.9430352" lon="11.9492831"><ele>247.0</ele><time>2026-04-09T13:28:25.414Z</time></trkpt><trkpt lat="42.943076" lon="11.9491524"><ele>247.0</ele><time>2026-04-09T13:28:26.419Z</time></trkpt><trkpt lat="42.9431181" lon="11.9490148"><ele>247.0</ele><time>2026-04-09T13:28:27.412Z</time></trkpt><trkpt lat="42.9431604" lon="11.9488781"><ele>247.0</ele><time>2026-04-09T13:28:28.416Z</time></trkpt><trkpt lat="42.9431984" lon="11.948746"><ele>247.0</ele><time>2026-04-09T13:28:29.418Z</time></trkpt><trkpt lat="42.9432364" lon="11.9486137"><ele>247.0</ele><time>2026-04-09T13:28:30.413Z</time></trkpt><trkpt lat="42.9432753" lon="11.9484757"><ele>247.2</ele><time>2026-04-09T13:28:31.415Z</time></trkpt><trkpt lat="42.9433128" lon="11.9483429"><ele>247.39999999999998</ele><time>2026-04-09T13:28:32.417Z</time></trkpt><trkpt lat="42.9433493" lon="11.9482197"><ele>247.60000000000002</ele><time>2026-04-09T13:28:33.419Z</time></trkpt><trkpt lat="42.9433887" lon="11.9480928"><ele>247.8</ele><time>2026-04-09T13:28:34.41Z</time></trkpt><trkpt lat="42.9434267" lon="11.9479681"><ele>248.0</ele><time>2026-04-09T13:28:35.421Z</time></trkpt><trkpt lat="42.9434578" lon="11.947848"><ele>248.00000000000003</ele><time>2026-04-09T13:28:36.409Z</time></trkpt><trkpt lat="42.9434864" lon="11.9477376"><ele>248.0</ele><time>2026-04-09T13:28:37.412Z</time></trkpt><trkpt lat="42.9435135" lon="11.9476344"><ele>248.0</ele><time>2026-04-09T13:28:38.413Z</time></trkpt><trkpt lat="42.9435473" lon="11.9475167"><ele>248.0</ele><time>2026-04-09T13:28:39.413Z</time></trkpt><trkpt lat="42.9435814" lon="11.9474039"><ele>248.00000000000003</ele><time>2026-04-09T13:28:40.414Z</time></trkpt><trkpt lat="42.9436175" lon="11.9472899"><ele>248.0</ele><time>2026-04-09T13:28:41.422Z</time></trkpt><trkpt lat="42.9436544" lon="11.9471809"><ele>248.00000000000003</ele><time>2026-04-09T13:28:42.407Z</time></trkpt><trkpt lat="42.9436871" lon="11.9470905"><ele>248.0</ele><time>2026-04-09T13:28:43.418Z</time></trkpt><trkpt lat="42.9437419" lon="11.9469724"><ele>248.0</ele><time>2026-04-09T13:28:45.42Z</time></trkpt><trkpt lat="42.9437822" lon="11.946903"><ele>248.0</ele><time>2026-04-09T13:28:47.5Z</time></trkpt><trkpt lat="42.943771" lon="11.9468018"><ele>248.00000000000003</ele><time>2026-04-09T13:28:52.435Z</time></trkpt><trkpt lat="42.9437083" lon="11.9468188"><ele>248.0</ele><time>2026-04-09T13:28:56.419Z</time></trkpt><trkpt lat="42.9436315" lon="11.9467965"><ele>248.00000000000003</ele><time>2026-04-09T13:28:59.412Z</time></trkpt><trkpt lat="42.9435898" lon="11.9467269"><ele>248.0</ele><time>2026-04-09T13:29:01.404Z</time></trkpt><trkpt lat="42.9435481" lon="11.9466409"><ele>248.0</ele><time>2026-04-09T13:29:03.414Z</time></trkpt><trkpt lat="42.9434858" lon="11.9465904"><ele>248.0</ele><time>2026-04-09T13:29:05.409Z</time></trkpt><trkpt lat="42.943432" lon="11.946637"><ele>248.00000000000003</ele><time>2026-04-09T13:29:07.407Z</time></trkpt><trkpt lat="42.9434322" lon="11.9467596"><ele>248.0</ele><time>2026-04-09T13:29:09.409Z</time></trkpt><trkpt lat="42.9434525" lon="11.9469054"><ele>248.0</ele><time>2026-04-09T13:29:11.399Z</time></trkpt><trkpt lat="42.9434245" lon="11.9470696"><ele>248.0</ele><time>2026-04-09T13:29:13.405Z</time></trkpt><trkpt lat="42.9433967" lon="11.9471714"><ele>248.0</ele><time>2026-04-09T13:29:14.401Z</time></trkpt><trkpt lat="42.9433621" lon="11.9472958"><ele>248.0</ele><time>2026-04-09T13:29:15.411Z</time></trkpt><trkpt lat="42.9433121" lon="11.9474616"><ele>248.0</ele><time>2026-04-09T13:29:16.407Z</time></trkpt><trkpt lat="42.9432466" lon="11.9476683"><ele>248.0</ele><time>2026-04-09T13:29:17.404Z</time></trkpt><trkpt lat="42.9431609" lon="11.947927"><ele>248.0</ele><time>2026-04-09T13:29:18.412Z</time></trkpt><trkpt lat="42.9430658" lon="11.9482042"><ele>248.0</ele><time>2026-04-09T13:29:19.413Z</time></trkpt><trkpt lat="42.9429819" lon="11.9484825"><ele>247.66666666666669</ele><time>2026-04-09T13:29:20.417Z</time></trkpt><trkpt lat="42.9428973" lon="11.9487311"><ele>247.33333333333331</ele><time>2026-04-09T13:29:21.412Z</time></trkpt><trkpt lat="42.9428153" lon="11.9489752"><ele>247.0</ele><time>2026-04-09T13:29:22.412Z</time></trkpt><trkpt lat="42.9427371" lon="11.9492002"><ele>247.0</ele><time>2026-04-09T13:29:23.494Z</time></trkpt><trkpt lat="42.942673" lon="11.9493946"><ele>247.0</ele><time>2026-04-09T13:29:24.407Z</time></trkpt><trkpt lat="42.9426102" lon="11.9495947"><ele>247.0</ele><time>2026-04-09T13:29:25.414Z</time></trkpt><trkpt lat="42.9425538" lon="11.9497745"><ele>247.0</ele><time>2026-04-09T13:29:26.408Z</time></trkpt><trkpt lat="42.9425051" lon="11.949943"><ele>247.0</ele><time>2026-04-09T13:29:27.414Z</time></trkpt><trkpt lat="42.9424564" lon="11.9501055"><ele>247.0</ele><time>2026-04-09T13:29:28.414Z</time></trkpt><trkpt lat="42.9424106" lon="11.9502616"><ele>247.0</ele><time>2026-04-09T13:29:29.418Z</time></trkpt><trkpt lat="42.9423703" lon="11.9504127"><ele>247.25</ele><time>2026-04-09T13:29:30.405Z</time></trkpt><trkpt lat="42.9423187" lon="11.9505734"><ele>247.5</ele><time>2026-04-09T13:29:31.414Z</time></trkpt><trkpt lat="42.9422688" lon="11.950738"><ele>247.75</ele><time>2026-04-09T13:29:32.414Z</time></trkpt><trkpt lat="42.9422135" lon="11.9509067"><ele>248.0</ele><time>2026-04-09T13:29:33.407Z</time></trkpt><trkpt lat="42.9421525" lon="11.9510747"><ele>247.5</ele><time>2026-04-09T13:29:34.404Z</time></trkpt><trkpt lat="42.9420864" lon="11.9512494"><ele>247.0</ele><time>2026-04-09T13:29:35.409Z</time></trkpt><trkpt lat="42.9420132" lon="11.9514317"><ele>246.5</ele><time>2026-04-09T13:29:36.408Z</time></trkpt><trkpt lat="42.9419609" lon="11.9516079"><ele>246.0</ele><time>2026-04-09T13:29:37.403Z</time></trkpt><trkpt lat="42.9419151" lon="11.9517802"><ele>246.0</ele><time>2026-04-09T13:29:38.413Z</time></trkpt><trkpt lat="42.9418677" lon="11.9519501"><ele>246.0</ele><time>2026-04-09T13:29:39.4Z</time></trkpt><trkpt lat="42.9418018" lon="11.9521418"><ele>246.0</ele><time>2026-04-09T13:29:40.399Z</time></trkpt><trkpt lat="42.9417282" lon="11.9523514"><ele>246.0</ele><time>2026-04-09T13:29:41.396Z</time></trkpt><trkpt lat="42.9416546" lon="11.9525606"><ele>246.0</ele><time>2026-04-09T13:29:42.396Z</time></trkpt><trkpt lat="42.9415835" lon="11.9527705"><ele>246.0</ele><time>2026-04-09T13:29:43.408Z</time></trkpt><trkpt lat="42.9415092" lon="11.9529688"><ele>246.0</ele><time>2026-04-09T13:29:44.407Z</time></trkpt><trkpt lat="42.9414376" lon="11.9531709"><ele>246.0</ele><time>2026-04-09T13:29:45.402Z</time></trkpt><trkpt lat="42.9413713" lon="11.9533922"><ele>246.0</ele><time>2026-04-09T13:29:46.405Z</time></trkpt><trkpt lat="42.9413083" lon="11.9536269"><ele>246.33333333333331</ele><time>2026-04-09T13:29:47.409Z</time></trkpt><trkpt lat="42.9412411" lon="11.9538625"><ele>246.66666666666666</ele><time>2026-04-09T13:29:48.408Z</time></trkpt><trkpt lat="42.9411672" lon="11.9540897"><ele>247.0</ele><time>2026-04-09T13:29:49.411Z</time></trkpt><trkpt lat="42.9410984" lon="11.9543219"><ele>247.0</ele><time>2026-04-09T13:29:50.411Z</time></trkpt><trkpt lat="42.9410278" lon="11.9545583"><ele>247.0</ele><time>2026-04-09T13:29:51.416Z</time></trkpt><trkpt lat="42.9409577" lon="11.9547967"><ele>247.0</ele><time>2026-04-09T13:29:52.414Z</time></trkpt><trkpt lat="42.9408862" lon="11.9550434"><ele>246.33333333333331</ele><time>2026-04-09T13:29:53.415Z</time></trkpt><trkpt lat="42.9408089" lon="11.9552949"><ele>245.66666666666669</ele><time>2026-04-09T13:29:54.405Z</time></trkpt><trkpt lat="42.940741" lon="11.9555557"><ele>245.0</ele><time>2026-04-09T13:29:55.413Z</time></trkpt><trkpt lat="42.9406671" lon="11.9558217"><ele>245.0</ele><time>2026-04-09T13:29:56.415Z</time></trkpt><trkpt lat="42.9405784" lon="11.9560832"><ele>245.0</ele><time>2026-04-09T13:29:57.403Z</time></trkpt><trkpt lat="42.9404899" lon="11.9563439"><ele>245.0</ele><time>2026-04-09T13:29:58.419Z</time></trkpt><trkpt lat="42.9404017" lon="11.9565848"><ele>245.0</ele><time>2026-04-09T13:29:59.413Z</time></trkpt><trkpt lat="42.9403206" lon="11.9568052"><ele>245.0</ele><time>2026-04-09T13:30:00.418Z</time></trkpt><trkpt lat="42.9402333" lon="11.9570077"><ele>245.0</ele><time>2026-04-09T13:30:01.418Z</time></trkpt><trkpt lat="42.9401554" lon="11.9572094"><ele>245.0</ele><time>2026-04-09T13:30:02.41Z</time></trkpt><trkpt lat="42.9400865" lon="11.9574135"><ele>245.0</ele><time>2026-04-09T13:30:03.414Z</time></trkpt><trkpt lat="42.9400174" lon="11.9576185"><ele>245.0</ele><time>2026-04-09T13:30:04.418Z</time></trkpt><trkpt lat="42.9399528" lon="11.9578203"><ele>245.0</ele><time>2026-04-09T13:30:05.411Z</time></trkpt><trkpt lat="42.9398906" lon="11.9580252"><ele>245.0</ele><time>2026-04-09T13:30:06.414Z</time></trkpt><trkpt lat="42.9398365" lon="11.9582422"><ele>245.0</ele><time>2026-04-09T13:30:07.415Z</time></trkpt><trkpt lat="42.9397855" lon="11.9584777"><ele>245.33333333333334</ele><time>2026-04-09T13:30:08.406Z</time></trkpt><trkpt lat="42.939753" lon="11.958699"><ele>245.66666666666669</ele><time>2026-04-09T13:30:09.437Z</time></trkpt><trkpt lat="42.9397101" lon="11.958948"><ele>246.0</ele><time>2026-04-09T13:30:10.428Z</time></trkpt><trkpt lat="42.9396658" lon="11.9591952"><ele>246.0</ele><time>2026-04-09T13:30:11.418Z</time></trkpt><trkpt lat="42.9396186" lon="11.9594514"><ele>246.0</ele><time>2026-04-09T13:30:12.427Z</time></trkpt><trkpt lat="42.9395799" lon="11.9597142"><ele>246.0</ele><time>2026-04-09T13:30:13.429Z</time></trkpt><trkpt lat="42.9395335" lon="11.9599832"><ele>247.0</ele><time>2026-04-09T13:30:14.421Z</time></trkpt><trkpt lat="42.9394847" lon="11.9602602"><ele>248.0</ele><time>2026-04-09T13:30:15.442Z</time></trkpt><trkpt lat="42.9394458" lon="11.9604972"><ele>249.0</ele><time>2026-04-09T13:30:16.418Z</time></trkpt><trkpt lat="42.939404" lon="11.960729"><ele>248.33333333333331</ele><time>2026-04-09T13:30:17.426Z</time></trkpt><trkpt lat="42.9393637" lon="11.960945"><ele>247.66666666666666</ele><time>2026-04-09T13:30:18.42Z</time></trkpt><trkpt lat="42.9393235" lon="11.9611777"><ele>247.0</ele><time>2026-04-09T13:30:19.423Z</time></trkpt><trkpt lat="42.939285" lon="11.9614315"><ele>247.0</ele><time>2026-04-09T13:30:20.421Z</time></trkpt><trkpt lat="42.9392359" lon="11.9616889"><ele>247.0</ele><time>2026-04-09T13:30:21.423Z</time></trkpt><trkpt lat="42.9391925" lon="11.9619197"><ele>247.0</ele><time>2026-04-09T13:30:22.422Z</time></trkpt><trkpt lat="42.9391615" lon="11.9621276"><ele>246.75</ele><time>2026-04-09T13:30:23.423Z</time></trkpt><trkpt lat="42.939134" lon="11.9623148"><ele>246.5</ele><time>2026-04-09T13:30:24.416Z</time></trkpt><trkpt lat="42.9390941" lon="11.9624881"><ele>246.25</ele><time>2026-04-09T13:30:25.43Z</time></trkpt><trkpt lat="42.9390435" lon="11.9626445"><ele>246.0</ele><time>2026-04-09T13:30:26.421Z</time></trkpt><trkpt lat="42.9389727" lon="11.9627954"><ele>245.33333333333331</ele><time>2026-04-09T13:30:27.419Z</time></trkpt><trkpt lat="42.9388794" lon="11.9629577"><ele>244.66666666666666</ele><time>2026-04-09T13:30:28.419Z</time></trkpt><trkpt lat="42.938758" lon="11.9631493"><ele>244.0</ele><time>2026-04-09T13:30:29.42Z</time></trkpt><trkpt lat="42.9386131" lon="11.9633616"><ele>244.0</ele><time>2026-04-09T13:30:30.427Z</time></trkpt><trkpt lat="42.9384806" lon="11.9635513"><ele>244.0</ele><time>2026-04-09T13:30:31.425Z</time></trkpt><trkpt lat="42.9383599" lon="11.9637212"><ele>244.0</ele><time>2026-04-09T13:30:32.427Z</time></trkpt><trkpt lat="42.9382403" lon="11.963893"><ele>243.66666666666666</ele><time>2026-04-09T13:30:33.426Z</time></trkpt><trkpt lat="42.9381226" lon="11.9640779"><ele>243.33333333333331</ele><time>2026-04-09T13:30:34.423Z</time></trkpt><trkpt lat="42.9380066" lon="11.964274"><ele>243.0</ele><time>2026-04-09T13:30:35.43Z</time></trkpt><trkpt lat="42.9378985" lon="11.9644473"><ele>244.0</ele><time>2026-04-09T13:30:36.416Z</time></trkpt><trkpt lat="42.9377955" lon="11.9646219"><ele>245.0</ele><time>2026-04-09T13:30:37.426Z</time></trkpt><trkpt lat="42.937688" lon="11.9647876"><ele>246.0</ele><time>2026-04-09T13:30:38.421Z</time></trkpt><trkpt lat="42.937575" lon="11.9649725"><ele>245.75</ele><time>2026-04-09T13:30:39.429Z</time></trkpt><trkpt lat="42.9374671" lon="11.9651462"><ele>245.5</ele><time>2026-04-09T13:30:40.419Z</time></trkpt><trkpt lat="42.9373851" lon="11.9653147"><ele>245.25</ele><time>2026-04-09T13:30:41.424Z</time></trkpt><trkpt lat="42.937332" lon="11.9654606"><ele>245.0</ele><time>2026-04-09T13:30:42.413Z</time></trkpt><trkpt lat="42.9372884" lon="11.9655594"><ele>245.00000000000003</ele><time>2026-04-09T13:30:43.416Z</time></trkpt><trkpt lat="42.9372366" lon="11.9656279"><ele>245.0</ele><time>2026-04-09T13:30:44.429Z</time></trkpt><trkpt lat="42.9371652" lon="11.9656686"><ele>245.0</ele><time>2026-04-09T13:30:45.413Z</time></trkpt><trkpt lat="42.9370909" lon="11.9656914"><ele>245.0</ele><time>2026-04-09T13:30:46.422Z</time></trkpt><trkpt lat="42.9370287" lon="11.9657192"><ele>245.00000000000003</ele><time>2026-04-09T13:30:47.423Z</time></trkpt><trkpt lat="42.9369446" lon="11.9657951"><ele>245.0</ele><time>2026-04-09T13:30:49.425Z</time></trkpt><trkpt lat="42.9369023" lon="11.9659135"><ele>245.0</ele><time>2026-04-09T13:30:51.418Z</time></trkpt><trkpt lat="42.9368" lon="11.9660159"><ele>245.0</ele><time>2026-04-09T13:30:53.431Z</time></trkpt><trkpt lat="42.9367044" lon="11.9660316"><ele>245.0</ele><time>2026-04-09T13:30:54.413Z</time></trkpt><trkpt lat="42.9365741" lon="11.9660186"><ele>245.0</ele><time>2026-04-09T13:30:55.422Z</time></trkpt><trkpt lat="42.9364264" lon="11.9659849"><ele>245.66666666666669</ele><time>2026-04-09T13:30:56.422Z</time></trkpt><trkpt lat="42.9362581" lon="11.9659626"><ele>246.33333333333331</ele><time>2026-04-09T13:30:57.413Z</time></trkpt><trkpt lat="42.9360858" lon="11.9659875"><ele>247.0</ele><time>2026-04-09T13:30:58.431Z</time></trkpt><trkpt lat="42.9359149" lon="11.9660736"><ele>246.33333333333331</ele><time>2026-04-09T13:30:59.419Z</time></trkpt><trkpt lat="42.9357433" lon="11.9662196"><ele>245.66666666666669</ele><time>2026-04-09T13:31:00.417Z</time></trkpt><trkpt lat="42.9355795" lon="11.966386"><ele>245.0</ele><time>2026-04-09T13:31:01.423Z</time></trkpt><trkpt lat="42.9354202" lon="11.9665735"><ele>245.33333333333334</ele><time>2026-04-09T13:31:02.41Z</time></trkpt><trkpt lat="42.9352558" lon="11.9667776"><ele>245.66666666666669</ele><time>2026-04-09T13:31:03.414Z</time></trkpt><trkpt lat="42.9350889" lon="11.9669732"><ele>246.0</ele><time>2026-04-09T13:31:04.425Z</time></trkpt><trkpt lat="42.9349235" lon="11.9671589"><ele>246.33333333333331</ele><time>2026-04-09T13:31:05.42Z</time></trkpt><trkpt lat="42.9347717" lon="11.9673298"><ele>246.66666666666666</ele><time>2026-04-09T13:31:06.414Z</time></trkpt><trkpt lat="42.9346332" lon="11.9674759"><ele>247.0</ele><time>2026-04-09T13:31:07.426Z</time></trkpt><trkpt lat="42.9344941" lon="11.9676042"><ele>247.0</ele><time>2026-04-09T13:31:08.418Z</time></trkpt><trkpt lat="42.9343533" lon="11.967709"><ele>247.0</ele><time>2026-04-09T13:31:09.42Z</time></trkpt><trkpt lat="42.9341965" lon="11.9677861"><ele>247.0</ele><time>2026-04-09T13:31:10.411Z</time></trkpt><trkpt lat="42.9340297" lon="11.9678582"><ele>247.0</ele><time>2026-04-09T13:31:11.424Z</time></trkpt><trkpt lat="42.9338747" lon="11.9679365"><ele>247.0</ele><time>2026-04-09T13:31:12.416Z</time></trkpt><trkpt lat="42.9337162" lon="11.9679889"><ele>247.0</ele><time>2026-04-09T13:31:13.415Z</time></trkpt><trkpt lat="42.9335504" lon="11.9680355"><ele>247.0</ele><time>2026-04-09T13:31:14.416Z</time></trkpt><trkpt lat="42.9333847" lon="11.9680801"><ele>247.0</ele><time>2026-04-09T13:31:15.42Z</time></trkpt><trkpt lat="42.9332264" lon="11.9681133"><ele>247.0</ele><time>2026-04-09T13:31:16.417Z</time></trkpt><trkpt lat="42.9330788" lon="11.9681444"><ele>247.0</ele><time>2026-04-09T13:31:17.419Z</time></trkpt><trkpt lat="42.9329439" lon="11.9681701"><ele>247.0</ele><time>2026-04-09T13:31:18.421Z</time></trkpt><trkpt lat="42.932807" lon="11.9681895"><ele>247.0</ele><time>2026-04-09T13:31:19.425Z</time></trkpt><trkpt lat="42.9326768" lon="11.9681979"><ele>247.0</ele><time>2026-04-09T13:31:20.42Z</time></trkpt><trkpt lat="42.9325779" lon="11.9681745"><ele>247.16666666666666</ele><time>2026-04-09T13:31:21.415Z</time></trkpt><trkpt lat="42.9325026" lon="11.9681295"><ele>247.33333333333331</ele><time>2026-04-09T13:31:22.421Z</time></trkpt><trkpt lat="42.9324683" lon="11.9680395"><ele>247.5</ele><time>2026-04-09T13:31:24.421Z</time></trkpt><trkpt lat="42.9324052" lon="11.9679655"><ele>247.66666666666669</ele><time>2026-04-09T13:31:27.414Z</time></trkpt><trkpt lat="42.9323208" lon="11.9679387"><ele>247.83333333333334</ele><time>2026-04-09T13:31:29.507Z</time></trkpt><trkpt lat="42.9322673" lon="11.9678868"><ele>248.0</ele><time>2026-04-09T13:31:31.426Z</time></trkpt><trkpt lat="42.9322006" lon="11.9678498"><ele>248.0</ele><time>2026-04-09T13:32:48.429Z</time></trkpt><trkpt lat="42.9321357" lon="11.9677973"><ele>248.00000000000003</ele><time>2026-04-09T13:33:24.418Z</time></trkpt><trkpt lat="42.9320763" lon="11.9677533"><ele>248.0</ele><time>2026-04-09T13:33:55.426Z</time></trkpt><trkpt lat="42.9320183" lon="11.9677067"><ele>248.0</ele><time>2026-04-09T13:34:14.43Z</time></trkpt><trkpt lat="42.931958" lon="11.9676591"><ele>248.00000000000003</ele><time>2026-04-09T13:34:40.411Z</time></trkpt><trkpt lat="42.9318972" lon="11.9676084"><ele>248.0</ele><time>2026-04-09T13:35:29.433Z</time></trkpt><trkpt lat="42.9318283" lon="11.967558"><ele>248.0</ele><time>2026-04-09T13:35:57.426Z</time></trkpt><trkpt lat="42.9317565" lon="11.9675128"><ele>247.4</ele><time>2026-04-09T13:36:00.432Z</time></trkpt><trkpt lat="42.9316961" lon="11.96743"><ele>246.8</ele><time>2026-04-09T13:36:02.431Z</time></trkpt><trkpt lat="42.9317018" lon="11.9672969"><ele>246.2</ele><time>2026-04-09T13:36:04.428Z</time></trkpt><trkpt lat="42.9317377" lon="11.9671826"><ele>245.6</ele><time>2026-04-09T13:36:06.43Z</time></trkpt><trkpt lat="42.9316627" lon="11.9671119"><ele>245.0</ele><time>2026-04-09T13:36:09.425Z</time></trkpt><trkpt lat="42.9316461" lon="11.9672412"><ele>245.0</ele><time>2026-04-09T13:36:19.426Z</time></trkpt><trkpt lat="42.9316396" lon="11.9673452"><ele>245.0</ele><time>2026-04-09T13:36:20.429Z</time></trkpt><trkpt lat="42.9316472" lon="11.967478"><ele>245.0</ele><time>2026-04-09T13:36:21.424Z</time></trkpt><trkpt lat="42.9316577" lon="11.9676414"><ele>245.0</ele><time>2026-04-09T13:36:22.421Z</time></trkpt><trkpt lat="42.9316704" lon="11.9678238"><ele>245.0</ele><time>2026-04-09T13:36:23.434Z</time></trkpt><trkpt lat="42.9316835" lon="11.9680148"><ele>245.0</ele><time>2026-04-09T13:36:24.429Z</time></trkpt><trkpt lat="42.9316984" lon="11.9682038"><ele>245.0</ele><time>2026-04-09T13:36:25.425Z</time></trkpt><trkpt lat="42.9317132" lon="11.9683928"><ele>245.0</ele><time>2026-04-09T13:36:26.425Z</time></trkpt><trkpt lat="42.9317263" lon="11.9685756"><ele>245.0</ele><time>2026-04-09T13:36:27.431Z</time></trkpt><trkpt lat="42.9317349" lon="11.9687582"><ele>245.0</ele><time>2026-04-09T13:36:28.427Z</time></trkpt><trkpt lat="42.9317442" lon="11.9689455"><ele>245.0</ele><time>2026-04-09T13:36:29.432Z</time></trkpt><trkpt lat="42.9317478" lon="11.9691379"><ele>245.0</ele><time>2026-04-09T13:36:30.429Z</time></trkpt><trkpt lat="42.9317481" lon="11.9693345"><ele>245.0</ele><time>2026-04-09T13:36:31.424Z</time></trkpt><trkpt lat="42.9317534" lon="11.9695357"><ele>245.0</ele><time>2026-04-09T13:36:32.427Z</time></trkpt><trkpt lat="42.9317675" lon="11.9697616"><ele>245.0</ele><time>2026-04-09T13:36:33.432Z</time></trkpt><trkpt lat="42.9318027" lon="11.9699844"><ele>245.0</ele><time>2026-04-09T13:36:34.429Z</time></trkpt><trkpt lat="42.9318369" lon="11.9702067"><ele>244.75</ele><time>2026-04-09T13:36:35.42Z</time></trkpt><trkpt lat="42.9318395" lon="11.9704183"><ele>244.5</ele><time>2026-04-09T13:36:36.429Z</time></trkpt><trkpt lat="42.9318133" lon="11.9706186"><ele>244.25</ele><time>2026-04-09T13:36:37.42Z</time></trkpt><trkpt lat="42.9317616" lon="11.9707945"><ele>244.0</ele><time>2026-04-09T13:36:38.423Z</time></trkpt><trkpt lat="42.9316869" lon="11.9709489"><ele>244.5</ele><time>2026-04-09T13:36:39.425Z</time></trkpt><trkpt lat="42.9315968" lon="11.9710843"><ele>245.0</ele><time>2026-04-09T13:36:40.422Z</time></trkpt><trkpt lat="42.9314887" lon="11.9712177"><ele>245.5</ele><time>2026-04-09T13:36:41.424Z</time></trkpt><trkpt lat="42.9313505" lon="11.9713526"><ele>246.0</ele><time>2026-04-09T13:36:42.422Z</time></trkpt><trkpt lat="42.9312075" lon="11.9714885"><ele>246.0</ele><time>2026-04-09T13:36:43.42Z</time></trkpt><trkpt lat="42.9310607" lon="11.9716448"><ele>246.0</ele><time>2026-04-09T13:36:44.427Z</time></trkpt><trkpt lat="42.9309317" lon="11.9718113"><ele>246.0</ele><time>2026-04-09T13:36:45.414Z</time></trkpt><trkpt lat="42.9308295" lon="11.9719857"><ele>246.0</ele><time>2026-04-09T13:36:46.424Z</time></trkpt><trkpt lat="42.9307606" lon="11.9721748"><ele>246.0</ele><time>2026-04-09T13:36:47.424Z</time></trkpt><trkpt lat="42.9307162" lon="11.9723667"><ele>246.0</ele><time>2026-04-09T13:36:48.424Z</time></trkpt><trkpt lat="42.9306972" lon="11.9725645"><ele>246.0</ele><time>2026-04-09T13:36:49.431Z</time></trkpt><trkpt lat="42.9306878" lon="11.9727665"><ele>246.0</ele><time>2026-04-09T13:36:50.422Z</time></trkpt><trkpt lat="42.9306804" lon="11.9729674"><ele>246.0</ele><time>2026-04-09T13:36:51.429Z</time></trkpt><trkpt lat="42.9306995" lon="11.9731566"><ele>246.0</ele><time>2026-04-09T13:36:52.416Z</time></trkpt><trkpt lat="42.9307377" lon="11.9733547"><ele>246.0</ele><time>2026-04-09T13:36:53.51Z</time></trkpt><trkpt lat="42.9307932" lon="11.9735487"><ele>246.66666666666669</ele><time>2026-04-09T13:36:54.428Z</time></trkpt><trkpt lat="42.9308658" lon="11.9737511"><ele>247.33333333333334</ele><time>2026-04-09T13:36:55.424Z</time></trkpt><trkpt lat="42.930947" lon="11.9739322"><ele>248.0</ele><time>2026-04-09T13:36:56.423Z</time></trkpt><trkpt lat="42.9310297" lon="11.9740774"><ele>248.5</ele><time>2026-04-09T13:36:57.425Z</time></trkpt><trkpt lat="42.9311261" lon="11.9741975"><ele>249.0</ele><time>2026-04-09T13:36:58.433Z</time></trkpt><trkpt lat="42.9312215" lon="11.9742993"><ele>249.5</ele><time>2026-04-09T13:36:59.433Z</time></trkpt><trkpt lat="42.9313178" lon="11.9744015"><ele>250.0</ele><time>2026-04-09T13:37:00.439Z</time></trkpt><trkpt lat="42.9314009" lon="11.9745135"><ele>250.0</ele><time>2026-04-09T13:37:01.425Z</time></trkpt><trkpt lat="42.9314749" lon="11.9746328"><ele>250.0</ele><time>2026-04-09T13:37:02.433Z</time></trkpt><trkpt lat="42.931547" lon="11.9747555"><ele>250.0</ele><time>2026-04-09T13:37:03.433Z</time></trkpt><trkpt lat="42.9316048" lon="11.9748596"><ele>250.0</ele><time>2026-04-09T13:37:04.427Z</time></trkpt><trkpt lat="42.9316578" lon="11.9749594"><ele>250.0</ele><time>2026-04-09T13:37:05.435Z</time></trkpt><trkpt lat="42.931706" lon="11.9750456"><ele>250.16666666666666</ele><time>2026-04-09T13:37:06.419Z</time></trkpt><trkpt lat="42.931744" lon="11.9751311"><ele>250.33333333333331</ele><time>2026-04-09T13:37:07.423Z</time></trkpt><trkpt lat="42.9317594" lon="11.9752194"><ele>250.5</ele><time>2026-04-09T13:37:08.431Z</time></trkpt><trkpt lat="42.9317405" lon="11.9753058"><ele>250.66666666666669</ele><time>2026-04-09T13:37:09.425Z</time></trkpt><trkpt lat="42.931684" lon="11.9753851"><ele>250.83333333333334</ele><time>2026-04-09T13:37:10.422Z</time></trkpt><trkpt lat="42.9316009" lon="11.9754505"><ele>251.0</ele><time>2026-04-09T13:37:11.421Z</time></trkpt><trkpt lat="42.9314953" lon="11.9755072"><ele>251.66666666666669</ele><time>2026-04-09T13:37:12.42Z</time></trkpt><trkpt lat="42.9313683" lon="11.975555"><ele>252.33333333333331</ele><time>2026-04-09T13:37:13.428Z</time></trkpt><trkpt lat="42.9312216" lon="11.9755978"><ele>253.0</ele><time>2026-04-09T13:37:14.421Z</time></trkpt><trkpt lat="42.9310455" lon="11.9756449"><ele>252.0</ele><time>2026-04-09T13:37:15.427Z</time></trkpt><trkpt lat="42.9308388" lon="11.9757013"><ele>251.0</ele><time>2026-04-09T13:37:16.409Z</time></trkpt><trkpt lat="42.9306198" lon="11.9757734"><ele>250.0</ele><time>2026-04-09T13:37:17.434Z</time></trkpt><trkpt lat="42.9304031" lon="11.9758324"><ele>252.0</ele><time>2026-04-09T13:37:18.422Z</time></trkpt><trkpt lat="42.9302054" lon="11.9758952"><ele>254.0</ele><time>2026-04-09T13:37:19.418Z</time></trkpt><trkpt lat="42.9300243" lon="11.9759663"><ele>256.0</ele><time>2026-04-09T13:37:20.433Z</time></trkpt><trkpt lat="42.9298552" lon="11.9760202"><ele>256.0</ele><time>2026-04-09T13:37:21.421Z</time></trkpt><trkpt lat="42.9296963" lon="11.976063"><ele>256.0</ele><time>2026-04-09T13:37:22.422Z</time></trkpt><trkpt lat="42.9295605" lon="11.9761054"><ele>256.0</ele><time>2026-04-09T13:37:23.429Z</time></trkpt><trkpt lat="42.9294256" lon="11.9761703"><ele>256.0</ele><time>2026-04-09T13:37:24.417Z</time></trkpt><trkpt lat="42.9292957" lon="11.9762498"><ele>254.5</ele><time>2026-04-09T13:37:25.416Z</time></trkpt><trkpt lat="42.9291763" lon="11.9763439"><ele>253.0</ele><time>2026-04-09T13:37:26.426Z</time></trkpt><trkpt lat="42.9290722" lon="11.9764402"><ele>251.5</ele><time>2026-04-09T13:37:27.421Z</time></trkpt><trkpt lat="42.9289866" lon="11.9765275"><ele>250.0</ele><time>2026-04-09T13:37:28.426Z</time></trkpt><trkpt lat="42.9289187" lon="11.9765934"><ele>250.0</ele><time>2026-04-09T13:37:29.425Z</time></trkpt><trkpt lat="42.928856" lon="11.9766466"><ele>250.0</ele><time>2026-04-09T13:37:30.418Z</time></trkpt><trkpt lat="42.9288006" lon="11.976709"><ele>250.0</ele><time>2026-04-09T13:37:31.418Z</time></trkpt><trkpt lat="42.9287319" lon="11.9767793"><ele>250.0</ele><time>2026-04-09T13:37:32.429Z</time></trkpt><trkpt lat="42.9286424" lon="11.9768619"><ele>250.0</ele><time>2026-04-09T13:37:33.421Z</time></trkpt><trkpt lat="42.9285324" lon="11.976956"><ele>250.66666666666666</ele><time>2026-04-09T13:37:34.428Z</time></trkpt><trkpt lat="42.9284037" lon="11.9770523"><ele>251.33333333333331</ele><time>2026-04-09T13:37:35.428Z</time></trkpt><trkpt lat="42.9282672" lon="11.9771444"><ele>252.0</ele><time>2026-04-09T13:37:36.434Z</time></trkpt><trkpt lat="42.928124" lon="11.9772388"><ele>252.0</ele><time>2026-04-09T13:37:37.424Z</time></trkpt><trkpt lat="42.9279445" lon="11.9773386"><ele>252.0</ele><time>2026-04-09T13:37:38.424Z</time></trkpt><trkpt lat="42.9277496" lon="11.9774377"><ele>252.0</ele><time>2026-04-09T13:37:39.419Z</time></trkpt><trkpt lat="42.9275566" lon="11.9775253"><ele>251.33333333333331</ele><time>2026-04-09T13:37:40.428Z</time></trkpt><trkpt lat="42.9273625" lon="11.9776023"><ele>250.66666666666666</ele><time>2026-04-09T13:37:41.428Z</time></trkpt><trkpt lat="42.9271651" lon="11.9776797"><ele>250.0</ele><time>2026-04-09T13:37:42.42Z</time></trkpt><trkpt lat="42.9269827" lon="11.9777428"><ele>250.0</ele><time>2026-04-09T13:37:43.434Z</time></trkpt><trkpt lat="42.926815" lon="11.9777882"><ele>250.0</ele><time>2026-04-09T13:37:44.434Z</time></trkpt><trkpt lat="42.9266755" lon="11.9778135"><ele>250.0</ele><time>2026-04-09T13:37:45.421Z</time></trkpt><trkpt lat="42.9265723" lon="11.9778336"><ele>250.0</ele><time>2026-04-09T13:37:46.424Z</time></trkpt><trkpt lat="42.9264932" lon="11.9778498"><ele>249.83333333333331</ele><time>2026-04-09T13:37:47.424Z</time></trkpt><trkpt lat="42.9264157" lon="11.977862"><ele>249.66666666666666</ele><time>2026-04-09T13:37:48.418Z</time></trkpt><trkpt lat="42.9263397" lon="11.9778357"><ele>249.5</ele><time>2026-04-09T13:37:49.432Z</time></trkpt><trkpt lat="42.9262691" lon="11.9777835"><ele>249.33333333333331</ele><time>2026-04-09T13:37:50.427Z</time></trkpt><trkpt lat="42.9262115" lon="11.9777027"><ele>249.16666666666666</ele><time>2026-04-09T13:37:51.421Z</time></trkpt><trkpt lat="42.9261568" lon="11.9775777"><ele>249.0</ele><time>2026-04-09T13:37:52.422Z</time></trkpt><trkpt lat="42.9261014" lon="11.9774228"><ele>248.39999999999998</ele><time>2026-04-09T13:37:53.429Z</time></trkpt><trkpt lat="42.9260567" lon="11.9772785"><ele>247.79999999999998</ele><time>2026-04-09T13:37:54.42Z</time></trkpt><trkpt lat="42.9260175" lon="11.9771553"><ele>247.20000000000002</ele><time>2026-04-09T13:37:55.427Z</time></trkpt><trkpt lat="42.9259891" lon="11.9770573"><ele>246.60000000000002</ele><time>2026-04-09T13:37:56.425Z</time></trkpt><trkpt lat="42.9259615" lon="11.9769716"><ele>246.0</ele><time>2026-04-09T13:37:57.423Z</time></trkpt><trkpt lat="42.9258921" lon="11.9768216"><ele>246.00000000000003</ele><time>2026-04-09T13:37:59.41Z</time></trkpt><trkpt lat="42.9258517" lon="11.9767358"><ele>246.0</ele><time>2026-04-09T13:38:00.414Z</time></trkpt><trkpt lat="42.925811" lon="11.9766426"><ele>246.00000000000003</ele><time>2026-04-09T13:38:01.411Z</time></trkpt><trkpt lat="42.9257705" lon="11.976551"><ele>246.00000000000003</ele><time>2026-04-09T13:38:02.421Z</time></trkpt><trkpt lat="42.925731" lon="11.9764702"><ele>246.0</ele><time>2026-04-09T13:38:03.413Z</time></trkpt><trkpt lat="42.9256868" lon="11.9763971"><ele>246.00000000000003</ele><time>2026-04-09T13:38:04.433Z</time></trkpt><trkpt lat="42.9256217" lon="11.9763737"><ele>246.00000000000003</ele><time>2026-04-09T13:38:05.425Z</time></trkpt><trkpt lat="42.9255431" lon="11.9764039"><ele>246.0</ele><time>2026-04-09T13:38:06.421Z</time></trkpt><trkpt lat="42.9254589" lon="11.9764781"><ele>246.00000000000003</ele><time>2026-04-09T13:38:07.439Z</time></trkpt><trkpt lat="42.9253828" lon="11.9765772"><ele>246.00000000000003</ele><time>2026-04-09T13:38:08.423Z</time></trkpt><trkpt lat="42.9253182" lon="11.9766865"><ele>246.0</ele><time>2026-04-09T13:38:09.421Z</time></trkpt><trkpt lat="42.9252709" lon="11.9767959"><ele>246.0</ele><time>2026-04-09T13:38:10.428Z</time></trkpt><trkpt lat="42.9252393" lon="11.9769079"><ele>246.0</ele><time>2026-04-09T13:38:11.424Z</time></trkpt><trkpt lat="42.9252062" lon="11.9770087"><ele>246.0</ele><time>2026-04-09T13:38:12.418Z</time></trkpt><trkpt lat="42.9251701" lon="11.9770997"><ele>246.0</ele><time>2026-04-09T13:38:13.419Z</time></trkpt><trkpt lat="42.9251326" lon="11.977193"><ele>246.0</ele><time>2026-04-09T13:38:14.409Z</time></trkpt><trkpt lat="42.9250833" lon="11.9773004"><ele>246.0</ele><time>2026-04-09T13:38:15.404Z</time></trkpt><trkpt lat="42.925028" lon="11.9774113"><ele>246.0</ele><time>2026-04-09T13:38:16.407Z</time></trkpt><trkpt lat="42.9249875" lon="11.9774993"><ele>246.20000000000002</ele><time>2026-04-09T13:38:17.417Z</time></trkpt><trkpt lat="42.924935" lon="11.9775744"><ele>246.40000000000003</ele><time>2026-04-09T13:38:18.421Z</time></trkpt><trkpt lat="42.9248661" lon="11.9776522"><ele>246.6</ele><time>2026-04-09T13:38:19.426Z</time></trkpt><trkpt lat="42.9247834" lon="11.9777367"><ele>246.8</ele><time>2026-04-09T13:38:20.428Z</time></trkpt><trkpt lat="42.9246939" lon="11.977828"><ele>247.0</ele><time>2026-04-09T13:38:21.428Z</time></trkpt><trkpt lat="42.9246006" lon="11.9779262"><ele>247.0</ele><time>2026-04-09T13:38:22.426Z</time></trkpt><trkpt lat="42.9245105" lon="11.9780557"><ele>247.0</ele><time>2026-04-09T13:38:23.42Z</time></trkpt><trkpt lat="42.924421" lon="11.9781678"><ele>247.0</ele><time>2026-04-09T13:38:24.414Z</time></trkpt><trkpt lat="42.9243305" lon="11.9782716"><ele>247.0</ele><time>2026-04-09T13:38:25.427Z</time></trkpt><trkpt lat="42.924239" lon="11.9783571"><ele>247.2</ele><time>2026-04-09T13:38:26.42Z</time></trkpt><trkpt lat="42.9241436" lon="11.9784402"><ele>247.39999999999998</ele><time>2026-04-09T13:38:27.422Z</time></trkpt><trkpt lat="42.9240472" lon="11.9785276"><ele>247.60000000000002</ele><time>2026-04-09T13:38:28.426Z</time></trkpt><trkpt lat="42.9239546" lon="11.9786125"><ele>247.8</ele><time>2026-04-09T13:38:29.419Z</time></trkpt><trkpt lat="42.9238627" lon="11.9786914"><ele>248.0</ele><time>2026-04-09T13:38:30.422Z</time></trkpt><trkpt lat="42.9237696" lon="11.9787687"><ele>248.0</ele><time>2026-04-09T13:38:31.43Z</time></trkpt><trkpt lat="42.9236768" lon="11.9788475"><ele>248.0</ele><time>2026-04-09T13:38:32.423Z</time></trkpt><trkpt lat="42.9235849" lon="11.9789303"><ele>248.0</ele><time>2026-04-09T13:38:33.417Z</time></trkpt><trkpt lat="42.9234955" lon="11.979012"><ele>248.0</ele><time>2026-04-09T13:38:34.414Z</time></trkpt><trkpt lat="42.9234057" lon="11.9790942"><ele>248.0</ele><time>2026-04-09T13:38:35.426Z</time></trkpt><trkpt lat="42.9233143" lon="11.9791823"><ele>249.5</ele><time>2026-04-09T13:38:36.41Z</time></trkpt><trkpt lat="42.9232181" lon="11.9792794"><ele>251.0</ele><time>2026-04-09T13:38:37.429Z</time></trkpt><trkpt lat="42.923119" lon="11.9793826"><ele>252.5</ele><time>2026-04-09T13:38:38.44Z</time></trkpt><trkpt lat="42.9230184" lon="11.9794791"><ele>254.0</ele><time>2026-04-09T13:38:39.413Z</time></trkpt><trkpt lat="42.9229129" lon="11.9795734"><ele>254.0</ele><time>2026-04-09T13:38:40.425Z</time></trkpt><trkpt lat="42.9228075" lon="11.9796658"><ele>254.0</ele><time>2026-04-09T13:38:41.421Z</time></trkpt><trkpt lat="42.9227083" lon="11.9797516"><ele>254.0</ele><time>2026-04-09T13:38:42.419Z</time></trkpt><trkpt lat="42.9226147" lon="11.9798186"><ele>254.0</ele><time>2026-04-09T13:38:43.427Z</time></trkpt><trkpt lat="42.9225157" lon="11.9798746"><ele>253.0</ele><time>2026-04-09T13:38:44.421Z</time></trkpt><trkpt lat="42.9224133" lon="11.9799276"><ele>251.99999999999997</ele><time>2026-04-09T13:38:45.424Z</time></trkpt><trkpt lat="42.9223176" lon="11.9799705"><ele>250.99999999999997</ele><time>2026-04-09T13:38:46.427Z</time></trkpt><trkpt lat="42.9222259" lon="11.9799968"><ele>250.0</ele><time>2026-04-09T13:38:47.422Z</time></trkpt><trkpt lat="42.9221391" lon="11.9800219"><ele>249.0</ele><time>2026-04-09T13:38:48.423Z</time></trkpt><trkpt lat="42.9220586" lon="11.9800664"><ele>251.0</ele><time>2026-04-09T13:38:49.424Z</time></trkpt><trkpt lat="42.9219941" lon="11.9801466"><ele>252.99999999999997</ele><time>2026-04-09T13:38:50.416Z</time></trkpt><trkpt lat="42.9219429" lon="11.9802514"><ele>254.99999999999997</ele><time>2026-04-09T13:38:51.415Z</time></trkpt><trkpt lat="42.9218944" lon="11.9803737"><ele>257.0</ele><time>2026-04-09T13:38:52.412Z</time></trkpt><trkpt lat="42.9218309" lon="11.9805118"><ele>259.0</ele><time>2026-04-09T13:38:53.423Z</time></trkpt><trkpt lat="42.921755" lon="11.98066"><ele>257.0</ele><time>2026-04-09T13:38:54.425Z</time></trkpt><trkpt lat="42.9216755" lon="11.9808243"><ele>255.0</ele><time>2026-04-09T13:38:55.426Z</time></trkpt><trkpt lat="42.9215848" lon="11.9809939"><ele>253.0</ele><time>2026-04-09T13:38:56.432Z</time></trkpt><trkpt lat="42.9214797" lon="11.9811901"><ele>253.0</ele><time>2026-04-09T13:38:57.426Z</time></trkpt><trkpt lat="42.9213579" lon="11.9814107"><ele>253.0</ele><time>2026-04-09T13:38:58.43Z</time></trkpt><trkpt lat="42.921237" lon="11.9816195"><ele>253.0</ele><time>2026-04-09T13:38:59.434Z</time></trkpt><trkpt lat="42.9211271" lon="11.9818142"><ele>254.0</ele><time>2026-04-09T13:39:00.43Z</time></trkpt><trkpt lat="42.9210158" lon="11.9820086"><ele>255.0</ele><time>2026-04-09T13:39:01.435Z</time></trkpt><trkpt lat="42.9209044" lon="11.9821898"><ele>256.0</ele><time>2026-04-09T13:39:02.428Z</time></trkpt><trkpt lat="42.9207939" lon="11.9823643"><ele>255.33333333333331</ele><time>2026-04-09T13:39:03.432Z</time></trkpt><trkpt lat="42.9206862" lon="11.9825367"><ele>254.66666666666669</ele><time>2026-04-09T13:39:04.427Z</time></trkpt><trkpt lat="42.9205778" lon="11.9827097"><ele>254.0</ele><time>2026-04-09T13:39:05.421Z</time></trkpt><trkpt lat="42.9204788" lon="11.9828955"><ele>254.0</ele><time>2026-04-09T13:39:06.417Z</time></trkpt><trkpt lat="42.9203641" lon="11.9830904"><ele>254.0</ele><time>2026-04-09T13:39:07.42Z</time></trkpt><trkpt lat="42.9202414" lon="11.9832855"><ele>254.0</ele><time>2026-04-09T13:39:08.427Z</time></trkpt><trkpt lat="42.9201219" lon="11.9834755"><ele>252.0</ele><time>2026-04-09T13:39:09.415Z</time></trkpt><trkpt lat="42.9200144" lon="11.9836666"><ele>250.0</ele><time>2026-04-09T13:39:10.422Z</time></trkpt><trkpt lat="42.9198997" lon="11.9838585"><ele>248.0</ele><time>2026-04-09T13:39:11.422Z</time></trkpt><trkpt lat="42.9197791" lon="11.9840566"><ele>249.66666666666669</ele><time>2026-04-09T13:39:12.424Z</time></trkpt><trkpt lat="42.9196621" lon="11.9842384"><ele>251.33333333333331</ele><time>2026-04-09T13:39:13.433Z</time></trkpt><trkpt lat="42.9195666" lon="11.9844168"><ele>253.0</ele><time>2026-04-09T13:39:14.418Z</time></trkpt><trkpt lat="42.9194667" lon="11.9845895"><ele>253.0</ele><time>2026-04-09T13:39:15.43Z</time></trkpt><trkpt lat="42.9193599" lon="11.9847482"><ele>253.0</ele><time>2026-04-09T13:39:16.418Z</time></trkpt><trkpt lat="42.9192457" lon="11.9849145"><ele>253.0</ele><time>2026-04-09T13:39:17.422Z</time></trkpt><trkpt lat="42.9191258" lon="11.9850725"><ele>250.66666666666666</ele><time>2026-04-09T13:39:18.414Z</time></trkpt><trkpt lat="42.9189942" lon="11.9852477"><ele>248.33333333333331</ele><time>2026-04-09T13:39:19.425Z</time></trkpt><trkpt lat="42.9188666" lon="11.9854404"><ele>246.0</ele><time>2026-04-09T13:39:20.421Z</time></trkpt><trkpt lat="42.9187508" lon="11.985624"><ele>246.0</ele><time>2026-04-09T13:39:21.421Z</time></trkpt><trkpt lat="42.9186399" lon="11.9858219"><ele>246.0</ele><time>2026-04-09T13:39:22.409Z</time></trkpt><trkpt lat="42.9185147" lon="11.9860367"><ele>246.0</ele><time>2026-04-09T13:39:23.586Z</time></trkpt><trkpt lat="42.9183645" lon="11.9863345"><ele>246.25</ele><time>2026-04-09T13:39:25.44Z</time></trkpt><trkpt lat="42.9182801" lon="11.986491"><ele>246.5</ele><time>2026-04-09T13:39:26.573Z</time></trkpt><trkpt lat="42.9181492" lon="11.9867165"><ele>246.75</ele><time>2026-04-09T13:39:28.421Z</time></trkpt><trkpt lat="42.9180952" lon="11.9867981"><ele>247.0</ele><time>2026-04-09T13:39:29.428Z</time></trkpt><trkpt lat="42.9180534" lon="11.9868626"><ele>248.2</ele><time>2026-04-09T13:39:30.427Z</time></trkpt><trkpt lat="42.9179847" lon="11.9869633"><ele>249.39999999999998</ele><time>2026-04-09T13:39:32.421Z</time></trkpt><trkpt lat="42.9179387" lon="11.9870263"><ele>250.60000000000002</ele><time>2026-04-09T13:39:33.427Z</time></trkpt><trkpt lat="42.9178813" lon="11.9871152"><ele>251.8</ele><time>2026-04-09T13:39:34.418Z</time></trkpt><trkpt lat="42.9178112" lon="11.9872406"><ele>253.0</ele><time>2026-04-09T13:39:35.496Z</time></trkpt><trkpt lat="42.917735" lon="11.9873866"><ele>254.33333333333331</ele><time>2026-04-09T13:39:36.429Z</time></trkpt><trkpt lat="42.9176505" lon="11.9875493"><ele>255.66666666666669</ele><time>2026-04-09T13:39:37.416Z</time></trkpt><trkpt lat="42.9175537" lon="11.9877396"><ele>257.0</ele><time>2026-04-09T13:39:38.421Z</time></trkpt><trkpt lat="42.9174316" lon="11.987948"><ele>254.66666666666669</ele><time>2026-04-09T13:39:39.432Z</time></trkpt><trkpt lat="42.917314" lon="11.9881574"><ele>252.33333333333331</ele><time>2026-04-09T13:39:40.421Z</time></trkpt><trkpt lat="42.9172045" lon="11.9883496"><ele>250.0</ele><time>2026-04-09T13:39:41.425Z</time></trkpt><trkpt lat="42.9171017" lon="11.9885429"><ele>250.0</ele><time>2026-04-09T13:39:42.426Z</time></trkpt><trkpt lat="42.9170031" lon="11.9887236"><ele>250.0</ele><time>2026-04-09T13:39:43.452Z</time></trkpt><trkpt lat="42.9169283" lon="11.988876"><ele>250.0</ele><time>2026-04-09T13:39:44.586Z</time></trkpt><trkpt lat="42.916785" lon="11.9891235"><ele>248.25</ele><time>2026-04-09T13:39:46.415Z</time></trkpt><trkpt lat="42.9166992" lon="11.9892401"><ele>246.5</ele><time>2026-04-09T13:39:47.59Z</time></trkpt><trkpt lat="42.9165614" lon="11.9893859"><ele>244.75</ele><time>2026-04-09T13:39:49.42Z</time></trkpt><trkpt lat="42.9164897" lon="11.9894899"><ele>243.0</ele><time>2026-04-09T13:39:50.43Z</time></trkpt><trkpt lat="42.916423" lon="11.9895948"><ele>243.0</ele><time>2026-04-09T13:39:51.428Z</time></trkpt><trkpt lat="42.9163623" lon="11.989692"><ele>243.0</ele><time>2026-04-09T13:39:52.414Z</time></trkpt><trkpt lat="42.9162918" lon="11.9898045"><ele>243.0</ele><time>2026-04-09T13:39:53.434Z</time></trkpt><trkpt lat="42.9162182" lon="11.9899251"><ele>243.0</ele><time>2026-04-09T13:39:54.42Z</time></trkpt><trkpt lat="42.9161303" lon="11.9900663"><ele>243.0</ele><time>2026-04-09T13:39:55.417Z</time></trkpt><trkpt lat="42.9160377" lon="11.9902271"><ele>243.0</ele><time>2026-04-09T13:39:56.426Z</time></trkpt><trkpt lat="42.9159293" lon="11.9904174"><ele>243.0</ele><time>2026-04-09T13:39:57.428Z</time></trkpt><trkpt lat="42.9158177" lon="11.9905961"><ele>242.66666666666669</ele><time>2026-04-09T13:39:58.422Z</time></trkpt><trkpt lat="42.9157039" lon="11.9907807"><ele>242.33333333333334</ele><time>2026-04-09T13:39:59.59Z</time></trkpt><trkpt lat="42.9156151" lon="11.9909479"><ele>242.0</ele><time>2026-04-09T13:40:00.582Z</time></trkpt><trkpt lat="42.9154558" lon="11.9913369"><ele>241.66666666666669</ele><time>2026-04-09T13:40:02.448Z</time></trkpt><trkpt lat="42.9153843" lon="11.9915526"><ele>241.33333333333331</ele><time>2026-04-09T13:40:03.423Z</time></trkpt><trkpt lat="42.9153145" lon="11.9917683"><ele>241.0</ele><time>2026-04-09T13:40:04.426Z</time></trkpt><trkpt lat="42.9152321" lon="11.991981"><ele>241.0</ele><time>2026-04-09T13:40:05.424Z</time></trkpt><trkpt lat="42.915144" lon="11.9921979"><ele>241.0</ele><time>2026-04-09T13:40:06.42Z</time></trkpt><trkpt lat="42.9150689" lon="11.9924128"><ele>241.0</ele><time>2026-04-09T13:40:07.425Z</time></trkpt><trkpt lat="42.9149972" lon="11.9926313"><ele>241.0</ele><time>2026-04-09T13:40:08.431Z</time></trkpt><trkpt lat="42.9149239" lon="11.9928506"><ele>241.0</ele><time>2026-04-09T13:40:09.418Z</time></trkpt><trkpt lat="42.9148557" lon="11.9930539"><ele>241.0</ele><time>2026-04-09T13:40:10.434Z</time></trkpt><trkpt lat="42.9147871" lon="11.9932505"><ele>241.0</ele><time>2026-04-09T13:40:11.427Z</time></trkpt><trkpt lat="42.9147162" lon="11.9934447"><ele>241.0</ele><time>2026-04-09T13:40:12.419Z</time></trkpt><trkpt lat="42.9146538" lon="11.9936474"><ele>241.0</ele><time>2026-04-09T13:40:13.426Z</time></trkpt><trkpt lat="42.9145897" lon="11.9938652"><ele>241.0</ele><time>2026-04-09T13:40:14.419Z</time></trkpt><trkpt lat="42.9145135" lon="11.9940942"><ele>241.0</ele><time>2026-04-09T13:40:15.415Z</time></trkpt><trkpt lat="42.9144386" lon="11.9943194"><ele>241.0</ele><time>2026-04-09T13:40:16.428Z</time></trkpt><trkpt lat="42.9143656" lon="11.9945105"><ele>241.25</ele><time>2026-04-09T13:40:17.415Z</time></trkpt><trkpt lat="42.9143031" lon="11.994712"><ele>241.5</ele><time>2026-04-09T13:40:18.426Z</time></trkpt><trkpt lat="42.9142402" lon="11.9948862"><ele>241.75</ele><time>2026-04-09T13:40:19.422Z</time></trkpt><trkpt lat="42.9141864" lon="11.9950544"><ele>242.0</ele><time>2026-04-09T13:40:20.424Z</time></trkpt><trkpt lat="42.9141293" lon="11.9952315"><ele>242.33333333333334</ele><time>2026-04-09T13:40:21.417Z</time></trkpt><trkpt lat="42.9140596" lon="11.9954204"><ele>242.66666666666669</ele><time>2026-04-09T13:40:22.413Z</time></trkpt><trkpt lat="42.9139859" lon="11.9956011"><ele>243.0</ele><time>2026-04-09T13:40:23.414Z</time></trkpt><trkpt lat="42.9139206" lon="11.9957931"><ele>242.33333333333331</ele><time>2026-04-09T13:40:24.411Z</time></trkpt><trkpt lat="42.9138697" lon="11.9959958"><ele>241.66666666666666</ele><time>2026-04-09T13:40:25.42Z</time></trkpt><trkpt lat="42.9138339" lon="11.9962032"><ele>241.0</ele><time>2026-04-09T13:40:26.422Z</time></trkpt><trkpt lat="42.9138122" lon="11.9963988"><ele>241.0</ele><time>2026-04-09T13:40:27.413Z</time></trkpt><trkpt lat="42.9137943" lon="11.9965735"><ele>241.0</ele><time>2026-04-09T13:40:28.422Z</time></trkpt><trkpt lat="42.9137693" lon="11.9967309"><ele>241.0</ele><time>2026-04-09T13:40:29.422Z</time></trkpt><trkpt lat="42.9137233" lon="11.9968891"><ele>241.0</ele><time>2026-04-09T13:40:30.419Z</time></trkpt><trkpt lat="42.9136661" lon="11.9970628"><ele>241.0</ele><time>2026-04-09T13:40:31.421Z</time></trkpt><trkpt lat="42.913604" lon="11.9972537"><ele>241.0</ele><time>2026-04-09T13:40:32.42Z</time></trkpt><trkpt lat="42.9135272" lon="11.9974404"><ele>241.0</ele><time>2026-04-09T13:40:33.418Z</time></trkpt><trkpt lat="42.9134458" lon="11.9976336"><ele>242.66666666666666</ele><time>2026-04-09T13:40:34.422Z</time></trkpt><trkpt lat="42.9133603" lon="11.9978344"><ele>244.33333333333331</ele><time>2026-04-09T13:40:35.41Z</time></trkpt><trkpt lat="42.9132735" lon="11.9980447"><ele>246.0</ele><time>2026-04-09T13:40:36.414Z</time></trkpt><trkpt lat="42.9131845" lon="11.9982579"><ele>245.0</ele><time>2026-04-09T13:40:37.401Z</time></trkpt><trkpt lat="42.9131141" lon="11.9984771"><ele>244.0</ele><time>2026-04-09T13:40:38.403Z</time></trkpt><trkpt lat="42.913035" lon="11.9986971"><ele>243.0</ele><time>2026-04-09T13:40:39.392Z</time></trkpt><trkpt lat="42.9129419" lon="11.9989074"><ele>243.0</ele><time>2026-04-09T13:40:40.399Z</time></trkpt><trkpt lat="42.912848" lon="11.9990885"><ele>243.0</ele><time>2026-04-09T13:40:41.41Z</time></trkpt><trkpt lat="42.912759" lon="11.9992573"><ele>243.0</ele><time>2026-04-09T13:40:42.418Z</time></trkpt><trkpt lat="42.9126579" lon="11.9994308"><ele>244.33333333333331</ele><time>2026-04-09T13:40:43.423Z</time></trkpt><trkpt lat="42.9125492" lon="11.9996005"><ele>245.66666666666666</ele><time>2026-04-09T13:40:44.424Z</time></trkpt><trkpt lat="42.9124454" lon="11.9997749"><ele>247.0</ele><time>2026-04-09T13:40:45.416Z</time></trkpt><trkpt lat="42.9123381" lon="11.9999369"><ele>247.0</ele><time>2026-04-09T13:40:46.419Z</time></trkpt><trkpt lat="42.9122334" lon="12.0000701"><ele>247.0</ele><time>2026-04-09T13:40:47.419Z</time></trkpt><trkpt lat="42.9121268" lon="12.000177"><ele>247.0</ele><time>2026-04-09T13:40:48.418Z</time></trkpt><trkpt lat="42.9120352" lon="12.0002649"><ele>247.0</ele><time>2026-04-09T13:40:49.419Z</time></trkpt><trkpt lat="42.911941" lon="12.0003365"><ele>247.0</ele><time>2026-04-09T13:40:50.424Z</time></trkpt><trkpt lat="42.911833" lon="12.0003899"><ele>247.0</ele><time>2026-04-09T13:40:51.413Z</time></trkpt><trkpt lat="42.9117073" lon="12.0004211"><ele>247.0</ele><time>2026-04-09T13:40:52.426Z</time></trkpt><trkpt lat="42.9115601" lon="12.0004647"><ele>247.0</ele><time>2026-04-09T13:40:53.421Z</time></trkpt><trkpt lat="42.9114149" lon="12.0005125"><ele>249.0</ele><time>2026-04-09T13:40:54.422Z</time></trkpt><trkpt lat="42.9112782" lon="12.000547"><ele>251.0</ele><time>2026-04-09T13:40:55.424Z</time></trkpt><trkpt lat="42.9111462" lon="12.0005702"><ele>253.0</ele><time>2026-04-09T13:40:56.425Z</time></trkpt><trkpt lat="42.9110153" lon="12.0005771"><ele>255.0</ele><time>2026-04-09T13:40:57.418Z</time></trkpt><trkpt lat="42.9108772" lon="12.000559"><ele>255.0</ele><time>2026-04-09T13:40:58.429Z</time></trkpt><trkpt lat="42.9107406" lon="12.0005296"><ele>255.0</ele><time>2026-04-09T13:40:59.423Z</time></trkpt><trkpt lat="42.9106036" lon="12.000486"><ele>255.0</ele><time>2026-04-09T13:41:00.42Z</time></trkpt><trkpt lat="42.9104665" lon="12.0004261"><ele>255.0</ele><time>2026-04-09T13:41:01.419Z</time></trkpt><trkpt lat="42.9103382" lon="12.0003477"><ele>255.0</ele><time>2026-04-09T13:41:02.422Z</time></trkpt><trkpt lat="42.9102051" lon="12.000255"><ele>255.0</ele><time>2026-04-09T13:41:03.421Z</time></trkpt><trkpt lat="42.9100698" lon="12.0001074"><ele>255.0</ele><time>2026-04-09T13:41:04.423Z</time></trkpt><trkpt lat="42.90995" lon="11.9999774"><ele>251.66666666666669</ele><time>2026-04-09T13:41:05.429Z</time></trkpt><trkpt lat="42.909835" lon="11.9998325"><ele>248.33333333333334</ele><time>2026-04-09T13:41:06.426Z</time></trkpt><trkpt lat="42.9097237" lon="11.9996758"><ele>245.0</ele><time>2026-04-09T13:41:07.422Z</time></trkpt><trkpt lat="42.9096261" lon="11.9995273"><ele>245.0</ele><time>2026-04-09T13:41:08.428Z</time></trkpt><trkpt lat="42.9095355" lon="11.9993839"><ele>245.0</ele><time>2026-04-09T13:41:09.415Z</time></trkpt><trkpt lat="42.9094502" lon="11.9992463"><ele>245.0</ele><time>2026-04-09T13:41:10.425Z</time></trkpt><trkpt lat="42.9093779" lon="11.999152"><ele>245.0</ele><time>2026-04-09T13:41:11.425Z</time></trkpt><trkpt lat="42.9093064" lon="11.9990683"><ele>244.2</ele><time>2026-04-09T13:41:12.429Z</time></trkpt><trkpt lat="42.9092327" lon="11.9989835"><ele>243.4</ele><time>2026-04-09T13:41:13.428Z</time></trkpt><trkpt lat="42.9091522" lon="11.9989164"><ele>242.60000000000002</ele><time>2026-04-09T13:41:14.423Z</time></trkpt><trkpt lat="42.9090741" lon="11.998859"><ele>241.8</ele><time>2026-04-09T13:41:15.426Z</time></trkpt><trkpt lat="42.9090006" lon="11.9988021"><ele>241.0</ele><time>2026-04-09T13:41:16.423Z</time></trkpt><trkpt lat="42.9089083" lon="11.9987377"><ele>241.0</ele><time>2026-04-09T13:41:17.433Z</time></trkpt><trkpt lat="42.90879" lon="11.9986649"><ele>241.0</ele><time>2026-04-09T13:41:18.422Z</time></trkpt><trkpt lat="42.9086493" lon="11.9985745"><ele>241.0</ele><time>2026-04-09T13:41:19.424Z</time></trkpt><trkpt lat="42.9084957" lon="11.9984755"><ele>241.33333333333331</ele><time>2026-04-09T13:41:20.43Z</time></trkpt><trkpt lat="42.908331" lon="11.9983545"><ele>241.66666666666669</ele><time>2026-04-09T13:41:21.433Z</time></trkpt><trkpt lat="42.9081533" lon="11.9982118"><ele>242.0</ele><time>2026-04-09T13:41:22.422Z</time></trkpt><trkpt lat="42.9079774" lon="11.9980611"><ele>242.0</ele><time>2026-04-09T13:41:23.433Z</time></trkpt><trkpt lat="42.9078185" lon="11.9979187"><ele>242.0</ele><time>2026-04-09T13:41:24.415Z</time></trkpt><trkpt lat="42.9076463" lon="11.9977827"><ele>242.0</ele><time>2026-04-09T13:41:25.419Z</time></trkpt><trkpt lat="42.90749" lon="11.9976628"><ele>242.33333333333334</ele><time>2026-04-09T13:41:26.429Z</time></trkpt><trkpt lat="42.907355" lon="11.9975565"><ele>242.66666666666669</ele><time>2026-04-09T13:41:27.415Z</time></trkpt><trkpt lat="42.9072169" lon="11.9974607"><ele>243.0</ele><time>2026-04-09T13:41:28.422Z</time></trkpt><trkpt lat="42.9070854" lon="11.9973999"><ele>243.5</ele><time>2026-04-09T13:41:29.421Z</time></trkpt><trkpt lat="42.9069692" lon="11.9973319"><ele>244.0</ele><time>2026-04-09T13:41:30.423Z</time></trkpt><trkpt lat="42.9068489" lon="11.9972549"><ele>244.5</ele><time>2026-04-09T13:41:31.424Z</time></trkpt><trkpt lat="42.9067404" lon="11.9971873"><ele>245.0</ele><time>2026-04-09T13:41:32.425Z</time></trkpt><trkpt lat="42.9066256" lon="11.9971066"><ele>245.66666666666669</ele><time>2026-04-09T13:41:33.421Z</time></trkpt><trkpt lat="42.9064877" lon="11.9970022"><ele>246.33333333333331</ele><time>2026-04-09T13:41:34.424Z</time></trkpt><trkpt lat="42.9063453" lon="11.9968751"><ele>247.0</ele><time>2026-04-09T13:41:35.426Z</time></trkpt><trkpt lat="42.906184" lon="11.9967458"><ele>247.0</ele><time>2026-04-09T13:41:36.425Z</time></trkpt><trkpt lat="42.9060213" lon="11.9966209"><ele>247.0</ele><time>2026-04-09T13:41:37.426Z</time></trkpt><trkpt lat="42.9058439" lon="11.9964911"><ele>247.0</ele><time>2026-04-09T13:41:38.429Z</time></trkpt><trkpt lat="42.9056616" lon="11.9963563"><ele>247.0</ele><time>2026-04-09T13:41:39.424Z</time></trkpt><trkpt lat="42.9054913" lon="11.9962324"><ele>247.0</ele><time>2026-04-09T13:41:40.433Z</time></trkpt><trkpt lat="42.9053435" lon="11.9961205"><ele>247.0</ele><time>2026-04-09T13:41:41.433Z</time></trkpt><trkpt lat="42.9052228" lon="11.996027"><ele>247.0</ele><time>2026-04-09T13:41:42.419Z</time></trkpt><trkpt lat="42.9051111" lon="11.9959364"><ele>247.0</ele><time>2026-04-09T13:41:43.435Z</time></trkpt><trkpt lat="42.9050124" lon="11.9958485"><ele>247.0</ele><time>2026-04-09T13:41:44.43Z</time></trkpt><trkpt lat="42.9049123" lon="11.9957373"><ele>247.0</ele><time>2026-04-09T13:41:45.42Z</time></trkpt><trkpt lat="42.9048058" lon="11.9955978"><ele>248.0</ele><time>2026-04-09T13:41:46.429Z</time></trkpt><trkpt lat="42.9046922" lon="11.9954292"><ele>249.0</ele><time>2026-04-09T13:41:47.427Z</time></trkpt><trkpt lat="42.9045775" lon="11.9952498"><ele>250.0</ele><time>2026-04-09T13:41:48.417Z</time></trkpt><trkpt lat="42.9044721" lon="11.9950781"><ele>250.33333333333331</ele><time>2026-04-09T13:41:49.422Z</time></trkpt><trkpt lat="42.9043663" lon="11.9949323"><ele>250.66666666666669</ele><time>2026-04-09T13:41:50.413Z</time></trkpt><trkpt lat="42.904259" lon="11.9947806"><ele>251.0</ele><time>2026-04-09T13:41:51.424Z</time></trkpt><trkpt lat="42.9041537" lon="11.9946174"><ele>251.66666666666669</ele><time>2026-04-09T13:41:52.428Z</time></trkpt><trkpt lat="42.9040383" lon="11.9944597"><ele>252.33333333333331</ele><time>2026-04-09T13:41:53.416Z</time></trkpt><trkpt lat="42.9039315" lon="11.9943094"><ele>253.0</ele><time>2026-04-09T13:41:54.432Z</time></trkpt><trkpt lat="42.9038277" lon="11.9941754"><ele>252.75</ele><time>2026-04-09T13:41:55.431Z</time></trkpt><trkpt lat="42.9037243" lon="11.9940424"><ele>252.5</ele><time>2026-04-09T13:41:56.421Z</time></trkpt><trkpt lat="42.903623" lon="11.9939085"><ele>252.25</ele><time>2026-04-09T13:41:57.427Z</time></trkpt><trkpt lat="42.9035292" lon="11.9937735"><ele>252.0</ele><time>2026-04-09T13:41:58.424Z</time></trkpt><trkpt lat="42.903423" lon="11.9936207"><ele>252.33333333333331</ele><time>2026-04-09T13:41:59.503Z</time></trkpt><trkpt lat="42.9033039" lon="11.9935054"><ele>252.66666666666666</ele><time>2026-04-09T13:42:00.43Z</time></trkpt><trkpt lat="42.9031473" lon="11.9933891"><ele>253.0</ele><time>2026-04-09T13:42:01.417Z</time></trkpt><trkpt lat="42.9029681" lon="11.9932633"><ele>254.0</ele><time>2026-04-09T13:42:02.43Z</time></trkpt><trkpt lat="42.9027797" lon="11.9931351"><ele>255.0</ele><time>2026-04-09T13:42:03.427Z</time></trkpt><trkpt lat="42.9025888" lon="11.9930108"><ele>256.0</ele><time>2026-04-09T13:42:04.429Z</time></trkpt><trkpt lat="42.9023963" lon="11.9928741"><ele>256.0</ele><time>2026-04-09T13:42:05.43Z</time></trkpt><trkpt lat="42.9021986" lon="11.9927316"><ele>256.0</ele><time>2026-04-09T13:42:06.433Z</time></trkpt><trkpt lat="42.9020089" lon="11.9925995"><ele>256.0</ele><time>2026-04-09T13:42:07.422Z</time></trkpt><trkpt lat="42.9018431" lon="11.9924802"><ele>257.0</ele><time>2026-04-09T13:42:08.427Z</time></trkpt><trkpt lat="42.9016844" lon="11.9923812"><ele>258.0</ele><time>2026-04-09T13:42:09.429Z</time></trkpt><trkpt lat="42.9015322" lon="11.9922872"><ele>259.0</ele><time>2026-04-09T13:42:10.425Z</time></trkpt><trkpt lat="42.9013906" lon="11.9921902"><ele>259.0</ele><time>2026-04-09T13:42:11.434Z</time></trkpt><trkpt lat="42.9012659" lon="11.9920898"><ele>259.0</ele><time>2026-04-09T13:42:12.425Z</time></trkpt><trkpt lat="42.9011575" lon="11.9919606"><ele>259.0</ele><time>2026-04-09T13:42:13.434Z</time></trkpt><trkpt lat="42.9010694" lon="11.991807"><ele>259.0</ele><time>2026-04-09T13:42:14.428Z</time></trkpt><trkpt lat="42.9009892" lon="11.9916373"><ele>258.75</ele><time>2026-04-09T13:42:15.425Z</time></trkpt><trkpt lat="42.9009308" lon="11.9914558"><ele>258.5</ele><time>2026-04-09T13:42:16.424Z</time></trkpt><trkpt lat="42.9008712" lon="11.9912794"><ele>258.25</ele><time>2026-04-09T13:42:17.427Z</time></trkpt><trkpt lat="42.9008104" lon="11.991136"><ele>258.0</ele><time>2026-04-09T13:42:18.433Z</time></trkpt><trkpt lat="42.9007353" lon="11.9910353"><ele>258.0</ele><time>2026-04-09T13:42:19.423Z</time></trkpt><trkpt lat="42.9006458" lon="11.9909809"><ele>258.0</ele><time>2026-04-09T13:42:20.429Z</time></trkpt><trkpt lat="42.9005422" lon="11.990971"><ele>258.0</ele><time>2026-04-09T13:42:21.424Z</time></trkpt><trkpt lat="42.9004165" lon="11.9910154"><ele>258.0</ele><time>2026-04-09T13:42:22.427Z</time></trkpt><trkpt lat="42.9002803" lon="11.991071"><ele>258.0</ele><time>2026-04-09T13:42:23.431Z</time></trkpt><trkpt lat="42.9001244" lon="11.9911156"><ele>258.0</ele><time>2026-04-09T13:42:24.426Z</time></trkpt><trkpt lat="42.8999413" lon="11.9911472"><ele>258.0</ele><time>2026-04-09T13:42:25.424Z</time></trkpt><trkpt lat="42.8997281" lon="11.9911813"><ele>258.6666666666667</ele><time>2026-04-09T13:42:26.425Z</time></trkpt><trkpt lat="42.8995133" lon="11.9912107"><ele>259.33333333333337</ele><time>2026-04-09T13:42:27.428Z</time></trkpt><trkpt lat="42.899319" lon="11.9912232"><ele>260.0</ele><time>2026-04-09T13:42:28.431Z</time></trkpt><trkpt lat="42.8991362" lon="11.9912308"><ele>260.0</ele><time>2026-04-09T13:42:29.43Z</time></trkpt><trkpt lat="42.8989678" lon="11.9912389"><ele>260.0</ele><time>2026-04-09T13:42:30.429Z</time></trkpt><trkpt lat="42.8988294" lon="11.9912392"><ele>260.0</ele><time>2026-04-09T13:42:31.422Z</time></trkpt><trkpt lat="42.8987172" lon="11.9912059"><ele>260.0</ele><time>2026-04-09T13:42:32.425Z</time></trkpt><trkpt lat="42.898615" lon="11.9911571"><ele>260.0</ele><time>2026-04-09T13:42:33.425Z</time></trkpt><trkpt lat="42.8984954" lon="11.9910737"><ele>260.0</ele><time>2026-04-09T13:42:34.423Z</time></trkpt><trkpt lat="42.8983475" lon="11.990967"><ele>260.0</ele><time>2026-04-09T13:42:35.434Z</time></trkpt><trkpt lat="42.8982108" lon="11.9908515"><ele>261.0</ele><time>2026-04-09T13:42:36.422Z</time></trkpt><trkpt lat="42.8980619" lon="11.9907176"><ele>262.0</ele><time>2026-04-09T13:42:37.452Z</time></trkpt><trkpt lat="42.8978999" lon="11.9905722"><ele>263.0</ele><time>2026-04-09T13:42:38.434Z</time></trkpt><trkpt lat="42.8977297" lon="11.9904167"><ele>261.6666666666667</ele><time>2026-04-09T13:42:39.431Z</time></trkpt><trkpt lat="42.8975604" lon="11.990266"><ele>260.3333333333333</ele><time>2026-04-09T13:42:40.427Z</time></trkpt><trkpt lat="42.8973775" lon="11.9901103"><ele>259.0</ele><time>2026-04-09T13:42:41.423Z</time></trkpt><trkpt lat="42.8971919" lon="11.9899684"><ele>260.66666666666663</ele><time>2026-04-09T13:42:42.42Z</time></trkpt><trkpt lat="42.8970141" lon="11.989835"><ele>262.3333333333333</ele><time>2026-04-09T13:42:43.431Z</time></trkpt><trkpt lat="42.896837" lon="11.9897011"><ele>264.0</ele><time>2026-04-09T13:42:44.426Z</time></trkpt><trkpt lat="42.8966547" lon="11.9895504"><ele>264.0</ele><time>2026-04-09T13:42:45.433Z</time></trkpt><trkpt lat="42.8964894" lon="11.9894048"><ele>264.0</ele><time>2026-04-09T13:42:46.417Z</time></trkpt><trkpt lat="42.8963223" lon="11.9892804"><ele>264.0</ele><time>2026-04-09T13:42:47.423Z</time></trkpt><trkpt lat="42.896165" lon="11.9891654"><ele>264.5</ele><time>2026-04-09T13:42:48.426Z</time></trkpt><trkpt lat="42.8960279" lon="11.9890613"><ele>265.0</ele><time>2026-04-09T13:42:49.421Z</time></trkpt><trkpt lat="42.8958989" lon="11.9889556"><ele>265.5</ele><time>2026-04-09T13:42:50.428Z</time></trkpt><trkpt lat="42.8957819" lon="11.9888622"><ele>266.0</ele><time>2026-04-09T13:42:51.429Z</time></trkpt><trkpt lat="42.8956686" lon="11.9887786"><ele>266.0</ele><time>2026-04-09T13:42:52.424Z</time></trkpt><trkpt lat="42.8955659" lon="11.9887082"><ele>266.0</ele><time>2026-04-09T13:42:53.439Z</time></trkpt><trkpt lat="42.8954706" lon="11.988637"><ele>266.0</ele><time>2026-04-09T13:42:54.434Z</time></trkpt><trkpt lat="42.8953872" lon="11.9885685"><ele>266.0</ele><time>2026-04-09T13:42:55.427Z</time></trkpt><trkpt lat="42.8953168" lon="11.9885085"><ele>266.0</ele><time>2026-04-09T13:42:56.433Z</time></trkpt><trkpt lat="42.8952367" lon="11.9884559"><ele>266.0</ele><time>2026-04-09T13:42:57.437Z</time></trkpt><trkpt lat="42.8951658" lon="11.9884103"><ele>266.0</ele><time>2026-04-09T13:42:58.438Z</time></trkpt><trkpt lat="42.8950924" lon="11.9883673"><ele>266.0</ele><time>2026-04-09T13:42:59.426Z</time></trkpt><trkpt lat="42.8950201" lon="11.9883281"><ele>266.0</ele><time>2026-04-09T13:43:00.429Z</time></trkpt><trkpt lat="42.8949463" lon="11.9882979"><ele>266.0</ele><time>2026-04-09T13:43:01.429Z</time></trkpt><trkpt lat="42.8948658" lon="11.988293"><ele>266.0</ele><time>2026-04-09T13:43:02.423Z</time></trkpt><trkpt lat="42.8947617" lon="11.9883165"><ele>264.0</ele><time>2026-04-09T13:43:03.424Z</time></trkpt><trkpt lat="42.8946314" lon="11.9883682"><ele>262.0</ele><time>2026-04-09T13:43:04.428Z</time></trkpt><trkpt lat="42.8944856" lon="11.9884277"><ele>260.0</ele><time>2026-04-09T13:43:05.432Z</time></trkpt><trkpt lat="42.8943419" lon="11.9884961"><ele>258.0</ele><time>2026-04-09T13:43:06.422Z</time></trkpt><trkpt lat="42.8942031" lon="11.9885447"><ele>256.5</ele><time>2026-04-09T13:43:07.424Z</time></trkpt><trkpt lat="42.8940718" lon="11.9885921"><ele>255.0</ele><time>2026-04-09T13:43:08.419Z</time></trkpt><trkpt lat="42.8939376" lon="11.9886728"><ele>253.5</ele><time>2026-04-09T13:43:09.4Z</time></trkpt><trkpt lat="42.8938053" lon="11.9887449"><ele>252.0</ele><time>2026-04-09T13:43:10.402Z</time></trkpt><trkpt lat="42.8936816" lon="11.988798"><ele>252.0</ele><time>2026-04-09T13:43:11.401Z</time></trkpt><trkpt lat="42.8935841" lon="11.9887979"><ele>252.0</ele><time>2026-04-09T13:43:12.434Z</time></trkpt><trkpt lat="42.8934894" lon="11.9887378"><ele>252.0</ele><time>2026-04-09T13:43:13.415Z</time></trkpt><trkpt lat="42.8933824" lon="11.988635"><ele>252.0</ele><time>2026-04-09T13:43:14.439Z</time></trkpt><trkpt lat="42.8932734" lon="11.9884968"><ele>253.0</ele><time>2026-04-09T13:43:15.415Z</time></trkpt><trkpt lat="42.8931687" lon="11.9883425"><ele>254.0</ele><time>2026-04-09T13:43:16.426Z</time></trkpt><trkpt lat="42.8930778" lon="11.9881819"><ele>255.0</ele><time>2026-04-09T13:43:17.404Z</time></trkpt><trkpt lat="42.8929961" lon="11.9879845"><ele>255.0</ele><time>2026-04-09T13:43:18.414Z</time></trkpt><trkpt lat="42.8929241" lon="11.9877811"><ele>255.0</ele><time>2026-04-09T13:43:19.407Z</time></trkpt><trkpt lat="42.8928659" lon="11.9875927"><ele>255.0</ele><time>2026-04-09T13:43:20.419Z</time></trkpt><trkpt lat="42.8928071" lon="11.9874296"><ele>255.0</ele><time>2026-04-09T13:43:21.412Z</time></trkpt><trkpt lat="42.8927356" lon="11.9872743"><ele>255.16666666666666</ele><time>2026-04-09T13:43:22.421Z</time></trkpt><trkpt lat="42.8926759" lon="11.9871597"><ele>255.33333333333331</ele><time>2026-04-09T13:43:23.421Z</time></trkpt><trkpt lat="42.892628" lon="11.987072"><ele>255.5</ele><time>2026-04-09T13:43:24.427Z</time></trkpt><trkpt lat="42.8925819" lon="11.9870002"><ele>255.66666666666666</ele><time>2026-04-09T13:43:25.419Z</time></trkpt><trkpt lat="42.8925343" lon="11.9869305"><ele>255.83333333333331</ele><time>2026-04-09T13:43:26.428Z</time></trkpt><trkpt lat="42.8924856" lon="11.9868342"><ele>256.0</ele><time>2026-04-09T13:43:27.412Z</time></trkpt><trkpt lat="42.8924342" lon="11.9867246"><ele>256.40000000000003</ele><time>2026-04-09T13:43:28.421Z</time></trkpt><trkpt lat="42.8923856" lon="11.9866249"><ele>256.8</ele><time>2026-04-09T13:43:29.414Z</time></trkpt><trkpt lat="42.8923333" lon="11.9865265"><ele>257.20000000000005</ele><time>2026-04-09T13:43:30.415Z</time></trkpt><trkpt lat="42.8922789" lon="11.9864176"><ele>257.6</ele><time>2026-04-09T13:43:31.409Z</time></trkpt><trkpt lat="42.8922359" lon="11.9863055"><ele>258.0</ele><time>2026-04-09T13:43:32.415Z</time></trkpt><trkpt lat="42.8921995" lon="11.9861919"><ele>258.0</ele><time>2026-04-09T13:43:33.414Z</time></trkpt><trkpt lat="42.8921679" lon="11.9860597"><ele>258.0</ele><time>2026-04-09T13:43:34.412Z</time></trkpt><trkpt lat="42.8921373" lon="11.9859192"><ele>258.0</ele><time>2026-04-09T13:43:35.411Z</time></trkpt><trkpt lat="42.8921038" lon="11.9857774"><ele>258.0</ele><time>2026-04-09T13:43:36.414Z</time></trkpt><trkpt lat="42.8920705" lon="11.9856438"><ele>258.0</ele><time>2026-04-09T13:43:37.414Z</time></trkpt><trkpt lat="42.8920292" lon="11.9854989"><ele>260.0</ele><time>2026-04-09T13:43:38.423Z</time></trkpt><trkpt lat="42.8919711" lon="11.9853582"><ele>262.0</ele><time>2026-04-09T13:43:39.415Z</time></trkpt><trkpt lat="42.891906" lon="11.9852215"><ele>264.0</ele><time>2026-04-09T13:43:40.416Z</time></trkpt><trkpt lat="42.8918362" lon="11.9850892"><ele>266.0</ele><time>2026-04-09T13:43:41.42Z</time></trkpt><trkpt lat="42.8917679" lon="11.9849628"><ele>265.8</ele><time>2026-04-09T13:43:42.425Z</time></trkpt><trkpt lat="42.8917052" lon="11.9848472"><ele>265.6</ele><time>2026-04-09T13:43:43.422Z</time></trkpt><trkpt lat="42.8916456" lon="11.9847358"><ele>265.4</ele><time>2026-04-09T13:43:44.421Z</time></trkpt><trkpt lat="42.8915919" lon="11.9846331"><ele>265.2</ele><time>2026-04-09T13:43:45.414Z</time></trkpt><trkpt lat="42.8915374" lon="11.9845313"><ele>265.0</ele><time>2026-04-09T13:43:46.42Z</time></trkpt><trkpt lat="42.8914856" lon="11.9844428"><ele>265.0</ele><time>2026-04-09T13:43:47.429Z</time></trkpt><trkpt lat="42.8914381" lon="11.9843581"><ele>265.0</ele><time>2026-04-09T13:43:48.417Z</time></trkpt><trkpt lat="42.8913909" lon="11.9842777"><ele>265.0</ele><time>2026-04-09T13:43:49.421Z</time></trkpt><trkpt lat="42.8913417" lon="11.9841973"><ele>265.0</ele><time>2026-04-09T13:43:50.42Z</time></trkpt><trkpt lat="42.8912875" lon="11.9841132"><ele>265.0</ele><time>2026-04-09T13:43:51.43Z</time></trkpt><trkpt lat="42.8912267" lon="11.9840532"><ele>265.0</ele><time>2026-04-09T13:43:52.419Z</time></trkpt><trkpt lat="42.8911587" lon="11.9840158"><ele>264.4</ele><time>2026-04-09T13:43:53.431Z</time></trkpt><trkpt lat="42.891079" lon="11.9840016"><ele>263.8</ele><time>2026-04-09T13:43:54.42Z</time></trkpt><trkpt lat="42.8909752" lon="11.9839961"><ele>263.2</ele><time>2026-04-09T13:43:55.423Z</time></trkpt><trkpt lat="42.8908603" lon="11.9840038"><ele>262.6</ele><time>2026-04-09T13:43:56.428Z</time></trkpt><trkpt lat="42.890745" lon="11.98403"><ele>262.0</ele><time>2026-04-09T13:43:57.427Z</time></trkpt><trkpt lat="42.8906277" lon="11.984056"><ele>262.0</ele><time>2026-04-09T13:43:58.436Z</time></trkpt><trkpt lat="42.8905034" lon="11.9840743"><ele>262.0</ele><time>2026-04-09T13:43:59.426Z</time></trkpt><trkpt lat="42.8903763" lon="11.9841005"><ele>262.0</ele><time>2026-04-09T13:44:00.433Z</time></trkpt><trkpt lat="42.8902504" lon="11.9841473"><ele>262.0</ele><time>2026-04-09T13:44:01.443Z</time></trkpt><trkpt lat="42.8901085" lon="11.9841887"><ele>260.3333333333333</ele><time>2026-04-09T13:44:02.459Z</time></trkpt><trkpt lat="42.889953" lon="11.9842373"><ele>258.6666666666667</ele><time>2026-04-09T13:44:03.453Z</time></trkpt><trkpt lat="42.8897603" lon="11.984267"><ele>257.0</ele><time>2026-04-09T13:44:04.449Z</time></trkpt><trkpt lat="42.8895525" lon="11.9842813"><ele>255.0</ele><time>2026-04-09T13:44:05.536Z</time></trkpt><trkpt lat="42.8892343" lon="11.9843075"><ele>253.0</ele><time>2026-04-09T13:44:07.426Z</time></trkpt><trkpt lat="42.889059" lon="11.9843206"><ele>253.0</ele><time>2026-04-09T13:44:08.432Z</time></trkpt><trkpt lat="42.8888835" lon="11.9843282"><ele>253.0</ele><time>2026-04-09T13:44:09.43Z</time></trkpt><trkpt lat="42.8887125" lon="11.9843356"><ele>253.0</ele><time>2026-04-09T13:44:10.431Z</time></trkpt><trkpt lat="42.8885553" lon="11.9843395"><ele>253.75</ele><time>2026-04-09T13:44:11.436Z</time></trkpt><trkpt lat="42.8884067" lon="11.98435"><ele>254.5</ele><time>2026-04-09T13:44:12.434Z</time></trkpt><trkpt lat="42.8882688" lon="11.9843619"><ele>255.25</ele><time>2026-04-09T13:44:13.435Z</time></trkpt><trkpt lat="42.8881504" lon="11.9843638"><ele>256.0</ele><time>2026-04-09T13:44:14.433Z</time></trkpt><trkpt lat="42.8880354" lon="11.9843787"><ele>256.0</ele><time>2026-04-09T13:44:15.432Z</time></trkpt><trkpt lat="42.8879254" lon="11.984395"><ele>256.0</ele><time>2026-04-09T13:44:16.427Z</time></trkpt><trkpt lat="42.8878283" lon="11.9844023"><ele>256.0</ele><time>2026-04-09T13:44:17.432Z</time></trkpt><trkpt lat="42.8877507" lon="11.9844269"><ele>256.0</ele><time>2026-04-09T13:44:18.428Z</time></trkpt><trkpt lat="42.8876252" lon="11.9844251"><ele>256.0</ele><time>2026-04-09T13:44:20.424Z</time></trkpt><trkpt lat="42.8875402" lon="11.9843092"><ele>257.0</ele><time>2026-04-09T13:44:22.42Z</time></trkpt><trkpt lat="42.8875211" lon="11.9842108"><ele>258.0</ele><time>2026-04-09T13:44:23.437Z</time></trkpt><trkpt lat="42.8875204" lon="11.9840983"><ele>259.0</ele><time>2026-04-09T13:44:24.415Z</time></trkpt><trkpt lat="42.8875213" lon="11.9839509"><ele>260.0</ele><time>2026-04-09T13:44:25.424Z</time></trkpt><trkpt lat="42.8875217" lon="11.983757"><ele>261.0</ele><time>2026-04-09T13:44:26.412Z</time></trkpt><trkpt lat="42.8875098" lon="11.983583"><ele>261.0</ele><time>2026-04-09T13:44:27.426Z</time></trkpt><trkpt lat="42.8875098" lon="11.9834296"><ele>261.0</ele><time>2026-04-09T13:44:28.421Z</time></trkpt><trkpt lat="42.8875161" lon="11.9832933"><ele>261.0</ele><time>2026-04-09T13:44:29.429Z</time></trkpt><trkpt lat="42.8874964" lon="11.9831569"><ele>261.0</ele><time>2026-04-09T13:44:30.425Z</time></trkpt><trkpt lat="42.887466" lon="11.9830283"><ele>261.0</ele><time>2026-04-09T13:44:31.433Z</time></trkpt><trkpt lat="42.8874198" lon="11.9829072"><ele>261.1666666666667</ele><time>2026-04-09T13:44:32.416Z</time></trkpt><trkpt lat="42.8873583" lon="11.9827846"><ele>261.3333333333333</ele><time>2026-04-09T13:44:33.424Z</time></trkpt><trkpt lat="42.887313" lon="11.9826792"><ele>261.5</ele><time>2026-04-09T13:44:34.424Z</time></trkpt><trkpt lat="42.8872829" lon="11.982569"><ele>261.66666666666663</ele><time>2026-04-09T13:44:35.429Z</time></trkpt><trkpt lat="42.8872512" lon="11.9824738"><ele>261.8333333333333</ele><time>2026-04-09T13:44:36.413Z</time></trkpt><trkpt lat="42.8872192" lon="11.9823749"><ele>262.0</ele><time>2026-04-09T13:44:37.415Z</time></trkpt><trkpt lat="42.8871774" lon="11.9822562"><ele>261.25</ele><time>2026-04-09T13:44:38.413Z</time></trkpt><trkpt lat="42.8871566" lon="11.9821274"><ele>260.5</ele><time>2026-04-09T13:44:39.432Z</time></trkpt><trkpt lat="42.8871444" lon="11.9819547"><ele>259.75</ele><time>2026-04-09T13:44:40.416Z</time></trkpt><trkpt lat="42.8871252" lon="11.9817101"><ele>259.0</ele><time>2026-04-09T13:44:41.423Z</time></trkpt><trkpt lat="42.8871101" lon="11.9814662"><ele>259.0</ele><time>2026-04-09T13:44:42.41Z</time></trkpt><trkpt lat="42.887107" lon="11.9812145"><ele>259.0</ele><time>2026-04-09T13:44:43.417Z</time></trkpt><trkpt lat="42.8871234" lon="11.9809766"><ele>259.0</ele><time>2026-04-09T13:44:44.423Z</time></trkpt><trkpt lat="42.8871604" lon="11.9807952"><ele>259.0</ele><time>2026-04-09T13:44:45.583Z</time></trkpt><trkpt lat="42.8872335" lon="11.9804955"><ele>259.0</ele><time>2026-04-09T13:44:47.442Z</time></trkpt><trkpt lat="42.8871972" lon="11.9803094"><ele>259.0</ele><time>2026-04-09T13:44:48.422Z</time></trkpt><trkpt lat="42.8872058" lon="11.9801639"><ele>259.3333333333333</ele><time>2026-04-09T13:44:49.435Z</time></trkpt><trkpt lat="42.8871695" lon="11.9799719"><ele>259.6666666666667</ele><time>2026-04-09T13:44:50.427Z</time></trkpt><trkpt lat="42.8871053" lon="11.9797852"><ele>260.0</ele><time>2026-04-09T13:44:51.424Z</time></trkpt><trkpt lat="42.8870372" lon="11.9795908"><ele>260.0</ele><time>2026-04-09T13:44:52.428Z</time></trkpt><trkpt lat="42.8869901" lon="11.9794103"><ele>260.0</ele><time>2026-04-09T13:44:53.426Z</time></trkpt><trkpt lat="42.8869742" lon="11.9792587"><ele>260.0</ele><time>2026-04-09T13:44:54.42Z</time></trkpt><trkpt lat="42.886964" lon="11.9790984"><ele>260.0</ele><time>2026-04-09T13:44:55.422Z</time></trkpt><trkpt lat="42.8869669" lon="11.9789324"><ele>260.0</ele><time>2026-04-09T13:44:56.424Z</time></trkpt><trkpt lat="42.886997" lon="11.9787515"><ele>260.0</ele><time>2026-04-09T13:44:57.432Z</time></trkpt><trkpt lat="42.8870729" lon="11.9785413"><ele>260.0</ele><time>2026-04-09T13:44:58.586Z</time></trkpt><trkpt lat="42.8872109" lon="11.9782707"><ele>260.0</ele><time>2026-04-09T13:44:59.586Z</time></trkpt><trkpt lat="42.887335" lon="11.9780225"><ele>260.0</ele><time>2026-04-09T13:45:00.578Z</time></trkpt><trkpt lat="42.8875516" lon="11.9776614"><ele>260.1666666666667</ele><time>2026-04-09T13:45:02.41Z</time></trkpt><trkpt lat="42.8876092" lon="11.9775211"><ele>260.33333333333337</ele><time>2026-04-09T13:45:03.415Z</time></trkpt><trkpt lat="42.8876517" lon="11.977423"><ele>260.5</ele><time>2026-04-09T13:45:04.416Z</time></trkpt><trkpt lat="42.8876856" lon="11.9773276"><ele>260.6666666666667</ele><time>2026-04-09T13:45:05.423Z</time></trkpt><trkpt lat="42.8877012" lon="11.9772118"><ele>260.8333333333333</ele><time>2026-04-09T13:45:07.423Z</time></trkpt><trkpt lat="42.8876789" lon="11.9771263"><ele>261.0</ele><time>2026-04-09T13:45:09.42Z</time></trkpt><trkpt lat="42.8876207" lon="11.9770764"><ele>260.75</ele><time>2026-04-09T13:45:11.425Z</time></trkpt><trkpt lat="42.8874833" lon="11.9770178"><ele>260.5</ele><time>2026-04-09T13:45:13.421Z</time></trkpt><trkpt lat="42.8873967" lon="11.9769576"><ele>260.25</ele><time>2026-04-09T13:45:14.428Z</time></trkpt><trkpt lat="42.8872979" lon="11.9768949"><ele>260.0</ele><time>2026-04-09T13:45:15.418Z</time></trkpt><trkpt lat="42.8871975" lon="11.9768383"><ele>260.0</ele><time>2026-04-09T13:45:16.424Z</time></trkpt><trkpt lat="42.8871083" lon="11.9767987"><ele>260.0</ele><time>2026-04-09T13:45:17.412Z</time></trkpt><trkpt lat="42.8870301" lon="11.9767639"><ele>260.0</ele><time>2026-04-09T13:45:18.418Z</time></trkpt><trkpt lat="42.886971" lon="11.9767184"><ele>260.0</ele><time>2026-04-09T13:45:19.411Z</time></trkpt><trkpt lat="42.8869187" lon="11.9766671"><ele>260.0</ele><time>2026-04-09T13:45:20.424Z</time></trkpt><trkpt lat="42.8868905" lon="11.9765816"><ele>260.0</ele><time>2026-04-09T13:45:21.417Z</time></trkpt><trkpt lat="42.8868617" lon="11.9764851"><ele>260.0</ele><time>2026-04-09T13:45:22.416Z</time></trkpt><trkpt lat="42.886845" lon="11.9763782"><ele>260.0</ele><time>2026-04-09T13:45:23.414Z</time></trkpt><trkpt lat="42.8868252" lon="11.9762562"><ele>260.0</ele><time>2026-04-09T13:45:24.409Z</time></trkpt><trkpt lat="42.8867966" lon="11.9761498"><ele>260.0</ele><time>2026-04-09T13:45:25.41Z</time></trkpt><trkpt lat="42.8867623" lon="11.9759941"><ele>260.0</ele><time>2026-04-09T13:45:27.414Z</time></trkpt><trkpt lat="42.8866966" lon="11.9759437"><ele>260.0</ele><time>2026-04-09T13:45:29.41Z</time></trkpt><trkpt lat="42.8865696" lon="11.9759868"><ele>262.42857142857144</ele><time>2026-04-09T13:45:31.403Z</time></trkpt><trkpt lat="42.8864846" lon="11.9760415"><ele>264.8571428571429</ele><time>2026-04-09T13:45:32.394Z</time></trkpt><trkpt lat="42.8864186" lon="11.976093"><ele>267.2857142857143</ele><time>2026-04-09T13:45:33.416Z</time></trkpt><trkpt lat="42.8863557" lon="11.9761447"><ele>269.7142857142857</ele><time>2026-04-09T13:45:34.408Z</time></trkpt><trkpt lat="42.8863033" lon="11.9761956"><ele>272.1428571428571</ele><time>2026-04-09T13:45:35.42Z</time></trkpt><trkpt lat="42.8862521" lon="11.9762528"><ele>274.57142857142856</ele><time>2026-04-09T13:45:36.411Z</time></trkpt><trkpt lat="42.886206" lon="11.9763151"><ele>277.0</ele><time>2026-04-09T13:45:37.425Z</time></trkpt><trkpt lat="42.8861745" lon="11.9764311"><ele>277.0</ele><time>2026-04-09T13:45:38.416Z</time></trkpt><trkpt lat="42.8861265" lon="11.9765204"><ele>277.0</ele><time>2026-04-09T13:45:39.42Z</time></trkpt><trkpt lat="42.8860869" lon="11.976614"><ele>277.0</ele><time>2026-04-09T13:45:40.417Z</time></trkpt><trkpt lat="42.8860421" lon="11.9767237"><ele>277.0</ele><time>2026-04-09T13:45:41.418Z</time></trkpt><trkpt lat="42.8859832" lon="11.9768099"><ele>277.0</ele><time>2026-04-09T13:45:42.421Z</time></trkpt><trkpt lat="42.8859316" lon="11.9769035"><ele>277.0</ele><time>2026-04-09T13:45:43.425Z</time></trkpt><trkpt lat="42.8858729" lon="11.9769763"><ele>282.2</ele><time>2026-04-09T13:45:44.421Z</time></trkpt><trkpt lat="42.8858269" lon="11.977049"><ele>287.4</ele><time>2026-04-09T13:45:45.427Z</time></trkpt><trkpt lat="42.8856935" lon="11.9770318"><ele>292.6</ele><time>2026-04-09T13:45:47.423Z</time></trkpt><trkpt lat="42.8855939" lon="11.9770062"><ele>297.8</ele><time>2026-04-09T13:45:48.419Z</time></trkpt><trkpt lat="42.8854828" lon="11.9769916"><ele>303.0</ele><time>2026-04-09T13:45:49.426Z</time></trkpt><trkpt lat="42.8853866" lon="11.9769913"><ele>303.0</ele><time>2026-04-09T13:45:50.424Z</time></trkpt><trkpt lat="42.8852764" lon="11.9769913"><ele>303.0</ele><time>2026-04-09T13:45:51.429Z</time></trkpt><trkpt lat="42.8851675" lon="11.9769777"><ele>303.0</ele><time>2026-04-09T13:45:52.422Z</time></trkpt><trkpt lat="42.8850614" lon="11.9769369"><ele>303.0</ele><time>2026-04-09T13:45:53.42Z</time></trkpt><trkpt lat="42.8849682" lon="11.9768784"><ele>303.0</ele><time>2026-04-09T13:45:54.426Z</time></trkpt><trkpt lat="42.8848955" lon="11.9768358"><ele>305.6666666666667</ele><time>2026-04-09T13:45:55.41Z</time></trkpt><trkpt lat="42.8848215" lon="11.9768254"><ele>308.3333333333333</ele><time>2026-04-09T13:45:56.41Z</time></trkpt><trkpt lat="42.884744" lon="11.9768323"><ele>311.0</ele><time>2026-04-09T13:45:57.413Z</time></trkpt><trkpt lat="42.8846764" lon="11.9768488"><ele>313.66666666666663</ele><time>2026-04-09T13:45:58.412Z</time></trkpt><trkpt lat="42.8846146" lon="11.9768822"><ele>316.3333333333333</ele><time>2026-04-09T13:45:59.406Z</time></trkpt><trkpt lat="42.8845421" lon="11.976926"><ele>319.0</ele><time>2026-04-09T13:46:00.406Z</time></trkpt><trkpt lat="42.8844565" lon="11.9769704"><ele>319.0</ele><time>2026-04-09T13:46:01.416Z</time></trkpt><trkpt lat="42.8843551" lon="11.9770132"><ele>319.0</ele><time>2026-04-09T13:46:02.406Z</time></trkpt><trkpt lat="42.8842616" lon="11.9770466"><ele>319.0</ele><time>2026-04-09T13:46:03.412Z</time></trkpt><trkpt lat="42.8841736" lon="11.9770696"><ele>319.0</ele><time>2026-04-09T13:46:04.413Z</time></trkpt><trkpt lat="42.8840992" lon="11.9770787"><ele>319.0</ele><time>2026-04-09T13:46:05.415Z</time></trkpt><trkpt lat="42.8840159" lon="11.9770593"><ele>319.0</ele><time>2026-04-09T13:46:06.413Z</time></trkpt><trkpt lat="42.8839351" lon="11.9770273"><ele>319.0</ele><time>2026-04-09T13:46:07.417Z</time></trkpt><trkpt lat="42.883871" lon="11.976993"><ele>319.0</ele><time>2026-04-09T13:46:08.425Z</time></trkpt><trkpt lat="42.8838075" lon="11.9769679"><ele>319.0</ele><time>2026-04-09T13:46:09.417Z</time></trkpt><trkpt lat="42.8837375" lon="11.976949"><ele>319.0</ele><time>2026-04-09T13:46:10.426Z</time></trkpt><trkpt lat="42.8836441" lon="11.9769407"><ele>319.0</ele><time>2026-04-09T13:46:11.498Z</time></trkpt><trkpt lat="42.8835383" lon="11.9769299"><ele>319.0</ele><time>2026-04-09T13:46:12.427Z</time></trkpt><trkpt lat="42.8834386" lon="11.9769086"><ele>319.0</ele><time>2026-04-09T13:46:13.418Z</time></trkpt><trkpt lat="42.8833486" lon="11.9768674"><ele>319.0</ele><time>2026-04-09T13:46:14.437Z</time></trkpt><trkpt lat="42.8832528" lon="11.9768275"><ele>319.0</ele><time>2026-04-09T13:46:15.421Z</time></trkpt><trkpt lat="42.8831679" lon="11.976787"><ele>319.0</ele><time>2026-04-09T13:46:16.419Z</time></trkpt><trkpt lat="42.8831032" lon="11.976755"><ele>319.2</ele><time>2026-04-09T13:46:17.433Z</time></trkpt><trkpt lat="42.8830418" lon="11.9767814"><ele>319.4</ele><time>2026-04-09T13:46:20.422Z</time></trkpt><trkpt lat="42.8830196" lon="11.9769247"><ele>319.6</ele><time>2026-04-09T13:46:22.427Z</time></trkpt><trkpt lat="42.8830215" lon="11.9770132"><ele>319.8</ele><time>2026-04-09T13:46:23.425Z</time></trkpt><trkpt lat="42.8830295" lon="11.9771737"><ele>320.0</ele><time>2026-04-09T13:46:25.414Z</time></trkpt><trkpt lat="42.883011" lon="11.9773048"><ele>320.0</ele><time>2026-04-09T13:46:27.418Z</time></trkpt><trkpt lat="42.882971" lon="11.9774521"><ele>320.0</ele><time>2026-04-09T13:46:29.5Z</time></trkpt><trkpt lat="42.8829467" lon="11.9775453"><ele>320.0</ele><time>2026-04-09T13:46:30.439Z</time></trkpt><trkpt lat="42.8829224" lon="11.977656"><ele>320.0</ele><time>2026-04-09T13:46:31.429Z</time></trkpt><trkpt lat="42.8828909" lon="11.9777702"><ele>320.0</ele><time>2026-04-09T13:46:32.442Z</time></trkpt><trkpt lat="42.8828577" lon="11.9778802"><ele>320.0</ele><time>2026-04-09T13:46:33.425Z</time></trkpt><trkpt lat="42.8828236" lon="11.9779956"><ele>318.5</ele><time>2026-04-09T13:46:34.417Z</time></trkpt><trkpt lat="42.8827881" lon="11.9780998"><ele>317.0</ele><time>2026-04-09T13:46:35.428Z</time></trkpt><trkpt lat="42.8827658" lon="11.9781988"><ele>315.5</ele><time>2026-04-09T13:46:36.419Z</time></trkpt><trkpt lat="42.8827602" lon="11.9782887"><ele>314.0</ele><time>2026-04-09T13:46:37.423Z</time></trkpt><trkpt lat="42.882768" lon="11.9784315"><ele>312.5</ele><time>2026-04-09T13:46:39.429Z</time></trkpt><trkpt lat="42.8827441" lon="11.9785767"><ele>311.0</ele><time>2026-04-09T13:46:41.435Z</time></trkpt><trkpt lat="42.8826747" lon="11.9787027"><ele>311.1666666666667</ele><time>2026-04-09T13:46:43.42Z</time></trkpt><trkpt lat="42.8826195" lon="11.9787809"><ele>311.33333333333337</ele><time>2026-04-09T13:46:44.427Z</time></trkpt><trkpt lat="42.8825513" lon="11.9788772"><ele>311.5</ele><time>2026-04-09T13:46:45.425Z</time></trkpt><trkpt lat="42.8824865" lon="11.9789756"><ele>311.6666666666667</ele><time>2026-04-09T13:46:46.417Z</time></trkpt><trkpt lat="42.8824262" lon="11.9790616"><ele>311.8333333333333</ele><time>2026-04-09T13:46:47.425Z</time></trkpt><trkpt lat="42.8823624" lon="11.9791348"><ele>312.0</ele><time>2026-04-09T13:46:48.424Z</time></trkpt><trkpt lat="42.8822898" lon="11.9792148"><ele>312.0</ele><time>2026-04-09T13:46:49.424Z</time></trkpt><trkpt lat="42.8822175" lon="11.9792869"><ele>312.0</ele><time>2026-04-09T13:46:50.42Z</time></trkpt><trkpt lat="42.8821521" lon="11.9793455"><ele>312.0</ele><time>2026-04-09T13:46:51.426Z</time></trkpt><trkpt lat="42.8820869" lon="11.9793882"><ele>312.0</ele><time>2026-04-09T13:46:52.423Z</time></trkpt><trkpt lat="42.8820291" lon="11.9794326"><ele>312.0</ele><time>2026-04-09T13:46:53.437Z</time></trkpt><trkpt lat="42.8819457" lon="11.9794561"><ele>312.0</ele><time>2026-04-09T13:46:54.416Z</time></trkpt><trkpt lat="42.8818586" lon="11.9794878"><ele>312.0</ele><time>2026-04-09T13:46:55.421Z</time></trkpt><trkpt lat="42.8817847" lon="11.9795191"><ele>312.0</ele><time>2026-04-09T13:46:56.421Z</time></trkpt><trkpt lat="42.8817017" lon="11.979555"><ele>312.0</ele><time>2026-04-09T13:46:57.417Z</time></trkpt><trkpt lat="42.8816226" lon="11.9796086"><ele>312.0</ele><time>2026-04-09T13:46:58.42Z</time></trkpt><trkpt lat="42.8815557" lon="11.9796666"><ele>312.0</ele><time>2026-04-09T13:46:59.443Z</time></trkpt><trkpt lat="42.8814614" lon="11.9797237"><ele>312.0</ele><time>2026-04-09T13:47:00.441Z</time></trkpt><trkpt lat="42.8813812" lon="11.9797684"><ele>313.3333333333333</ele><time>2026-04-09T13:47:01.413Z</time></trkpt><trkpt lat="42.8813219" lon="11.9798395"><ele>314.6666666666667</ele><time>2026-04-09T13:47:02.411Z</time></trkpt><trkpt lat="42.8812789" lon="11.9799267"><ele>316.0</ele><time>2026-04-09T13:47:03.42Z</time></trkpt><trkpt lat="42.881235" lon="11.9800066"><ele>317.33333333333337</ele><time>2026-04-09T13:47:04.412Z</time></trkpt><trkpt lat="42.8811813" lon="11.9800681"><ele>318.6666666666667</ele><time>2026-04-09T13:47:05.428Z</time></trkpt><trkpt lat="42.8810439" lon="11.9800693"><ele>320.0</ele><time>2026-04-09T13:47:07.418Z</time></trkpt><trkpt lat="42.8809682" lon="11.980077"><ele>320.6</ele><time>2026-04-09T13:47:08.428Z</time></trkpt><trkpt lat="42.88089" lon="11.9801265"><ele>321.2</ele><time>2026-04-09T13:47:09.419Z</time></trkpt><trkpt lat="42.8808185" lon="11.9801962"><ele>321.79999999999995</ele><time>2026-04-09T13:47:10.417Z</time></trkpt><trkpt lat="42.8807593" lon="11.9802979"><ele>322.4</ele><time>2026-04-09T13:47:11.432Z</time></trkpt><trkpt lat="42.8806974" lon="11.9804148"><ele>323.0</ele><time>2026-04-09T13:47:12.423Z</time></trkpt><trkpt lat="42.8806407" lon="11.9805241"><ele>323.0</ele><time>2026-04-09T13:47:13.426Z</time></trkpt><trkpt lat="42.8805887" lon="11.9806295"><ele>323.0</ele><time>2026-04-09T13:47:14.421Z</time></trkpt><trkpt lat="42.8805255" lon="11.9807353"><ele>323.0</ele><time>2026-04-09T13:47:15.423Z</time></trkpt><trkpt lat="42.8804582" lon="11.9808224"><ele>323.0</ele><time>2026-04-09T13:47:16.413Z</time></trkpt><trkpt lat="42.8803876" lon="11.9808966"><ele>323.0</ele><time>2026-04-09T13:47:17.431Z</time></trkpt><trkpt lat="42.8803095" lon="11.9809562"><ele>323.75</ele><time>2026-04-09T13:47:18.416Z</time></trkpt><trkpt lat="42.8802134" lon="11.9810101"><ele>324.5</ele><time>2026-04-09T13:47:19.424Z</time></trkpt><trkpt lat="42.8801076" lon="11.98107"><ele>325.25</ele><time>2026-04-09T13:47:20.419Z</time></trkpt><trkpt lat="42.8799936" lon="11.9811351"><ele>326.0</ele><time>2026-04-09T13:47:21.427Z</time></trkpt><trkpt lat="42.8798865" lon="11.9812104"><ele>326.0</ele><time>2026-04-09T13:47:22.447Z</time></trkpt><trkpt lat="42.8797898" lon="11.9812804"><ele>326.0</ele><time>2026-04-09T13:47:23.457Z</time></trkpt><trkpt lat="42.8797017" lon="11.9813384"><ele>326.0</ele><time>2026-04-09T13:47:24.434Z</time></trkpt><trkpt lat="42.8796192" lon="11.9814041"><ele>326.0</ele><time>2026-04-09T13:47:25.417Z</time></trkpt><trkpt lat="42.8795671" lon="11.9814732"><ele>326.0</ele><time>2026-04-09T13:47:26.426Z</time></trkpt><trkpt lat="42.8795125" lon="11.9815484"><ele>326.0</ele><time>2026-04-09T13:47:27.43Z</time></trkpt><trkpt lat="42.8794509" lon="11.9816053"><ele>326.0</ele><time>2026-04-09T13:47:28.426Z</time></trkpt><trkpt lat="42.8793849" lon="11.9817679"><ele>326.0</ele><time>2026-04-09T13:47:30.426Z</time></trkpt><trkpt lat="42.8793741" lon="11.9818531"><ele>326.0</ele><time>2026-04-09T13:47:31.425Z</time></trkpt><trkpt lat="42.8793834" lon="11.9819618"><ele>326.0</ele><time>2026-04-09T13:47:32.421Z</time></trkpt><trkpt lat="42.8794024" lon="11.9820563"><ele>326.0</ele><time>2026-04-09T13:47:33.419Z</time></trkpt><trkpt lat="42.8794273" lon="11.9821606"><ele>325.6</ele><time>2026-04-09T13:47:34.422Z</time></trkpt><trkpt lat="42.8794489" lon="11.9822763"><ele>325.20000000000005</ele><time>2026-04-09T13:47:35.427Z</time></trkpt><trkpt lat="42.8794499" lon="11.9823947"><ele>324.79999999999995</ele><time>2026-04-09T13:47:36.409Z</time></trkpt><trkpt lat="42.8794293" lon="11.98252"><ele>324.4</ele><time>2026-04-09T13:47:37.425Z</time></trkpt><trkpt lat="42.879407" lon="11.9826601"><ele>324.0</ele><time>2026-04-09T13:47:38.419Z</time></trkpt><trkpt lat="42.8793542" lon="11.9828145"><ele>323.5</ele><time>2026-04-09T13:47:39.423Z</time></trkpt><trkpt lat="42.8793033" lon="11.982949"><ele>323.0</ele><time>2026-04-09T13:47:40.421Z</time></trkpt><trkpt lat="42.8792718" lon="11.9830818"><ele>322.5</ele><time>2026-04-09T13:47:41.493Z</time></trkpt><trkpt lat="42.8792282" lon="11.9831639"><ele>322.0</ele><time>2026-04-09T13:47:42.424Z</time></trkpt><trkpt lat="42.879169" lon="11.9832246"><ele>321.5</ele><time>2026-04-09T13:47:43.415Z</time></trkpt><trkpt lat="42.8790893" lon="11.983266"><ele>321.0</ele><time>2026-04-09T13:47:44.421Z</time></trkpt><trkpt lat="42.8790001" lon="11.9832844"><ele>321.0</ele><time>2026-04-09T13:47:45.43Z</time></trkpt><trkpt lat="42.8788904" lon="11.983284"><ele>321.0</ele><time>2026-04-09T13:47:46.416Z</time></trkpt><trkpt lat="42.878749" lon="11.9832769"><ele>321.0</ele><time>2026-04-09T13:47:47.426Z</time></trkpt><trkpt lat="42.8786082" lon="11.983278"><ele>321.0</ele><time>2026-04-09T13:47:48.414Z</time></trkpt><trkpt lat="42.8784541" lon="11.9832886"><ele>322.25</ele><time>2026-04-09T13:47:49.424Z</time></trkpt><trkpt lat="42.8783103" lon="11.9832661"><ele>323.5</ele><time>2026-04-09T13:47:50.415Z</time></trkpt><trkpt lat="42.8781713" lon="11.9832634"><ele>324.75</ele><time>2026-04-09T13:47:51.423Z</time></trkpt><trkpt lat="42.8780589" lon="11.9832657"><ele>326.0</ele><time>2026-04-09T13:47:52.418Z</time></trkpt><trkpt lat="42.8779321" lon="11.9832372"><ele>326.0</ele><time>2026-04-09T13:47:53.424Z</time></trkpt><trkpt lat="42.8778403" lon="11.9832659"><ele>326.0</ele><time>2026-04-09T13:47:54.423Z</time></trkpt><trkpt lat="42.8777652" lon="11.9832969"><ele>326.0</ele><time>2026-04-09T13:47:55.422Z</time></trkpt><trkpt lat="42.8776979" lon="11.9833203"><ele>326.0</ele><time>2026-04-09T13:47:56.432Z</time></trkpt><trkpt lat="42.8776284" lon="11.9833882"><ele>326.0</ele><time>2026-04-09T13:47:57.427Z</time></trkpt><trkpt lat="42.8776091" lon="11.983475"><ele>326.0</ele><time>2026-04-09T13:47:58.421Z</time></trkpt><trkpt lat="42.877597" lon="11.9835792"><ele>328.20000000000005</ele><time>2026-04-09T13:47:59.409Z</time></trkpt><trkpt lat="42.8776035" lon="11.9837175"><ele>330.40000000000003</ele><time>2026-04-09T13:48:00.42Z</time></trkpt><trkpt lat="42.8776242" lon="11.9838823"><ele>332.6</ele><time>2026-04-09T13:48:01.424Z</time></trkpt><trkpt lat="42.8776338" lon="11.9840298"><ele>334.8</ele><time>2026-04-09T13:48:02.427Z</time></trkpt><trkpt lat="42.87764" lon="11.9841664"><ele>337.0</ele><time>2026-04-09T13:48:03.427Z</time></trkpt><trkpt lat="42.877644" lon="11.9842797"><ele>337.20000000000005</ele><time>2026-04-09T13:48:04.427Z</time></trkpt><trkpt lat="42.877653" lon="11.9844368"><ele>337.4</ele><time>2026-04-09T13:48:06.422Z</time></trkpt><trkpt lat="42.8776895" lon="11.9845771"><ele>337.6</ele><time>2026-04-09T13:48:08.423Z</time></trkpt><trkpt lat="42.8777413" lon="11.9846275"><ele>337.79999999999995</ele><time>2026-04-09T13:48:09.421Z</time></trkpt><trkpt lat="42.8778252" lon="11.9846799"><ele>338.0</ele><time>2026-04-09T13:48:10.427Z</time></trkpt><trkpt lat="42.8779288" lon="11.9847435"><ele>338.0</ele><time>2026-04-09T13:48:11.414Z</time></trkpt><trkpt lat="42.8780224" lon="11.9848128"><ele>338.0</ele><time>2026-04-09T13:48:12.414Z</time></trkpt><trkpt lat="42.8781615" lon="11.9848851"><ele>338.0</ele><time>2026-04-09T13:48:13.421Z</time></trkpt><trkpt lat="42.8782883" lon="11.9849525"><ele>338.0</ele><time>2026-04-09T13:48:14.415Z</time></trkpt><trkpt lat="42.87839" lon="11.9850198"><ele>339.6666666666667</ele><time>2026-04-09T13:48:15.421Z</time></trkpt><trkpt lat="42.8784837" lon="11.9850719"><ele>341.33333333333337</ele><time>2026-04-09T13:48:16.41Z</time></trkpt><trkpt lat="42.8785671" lon="11.9851182"><ele>343.0</ele><time>2026-04-09T13:48:17.503Z</time></trkpt><trkpt lat="42.8786416" lon="11.9851624"><ele>344.6666666666667</ele><time>2026-04-09T13:48:18.418Z</time></trkpt><trkpt lat="42.8787166" lon="11.9852118"><ele>346.3333333333333</ele><time>2026-04-09T13:48:19.417Z</time></trkpt><trkpt lat="42.8787852" lon="11.9852623"><ele>348.0</ele><time>2026-04-09T13:48:21.424Z</time></trkpt><trkpt lat="42.8787538" lon="11.9853441"><ele>348.0</ele><time>2026-04-09T13:48:36.432Z</time></trkpt><trkpt lat="42.8787286" lon="11.9854269"><ele>348.0</ele><time>2026-04-09T13:48:50.423Z</time></trkpt><trkpt lat="42.8786634" lon="11.9854444"><ele>348.0</ele><time>2026-04-09T13:48:59.439Z</time></trkpt><trkpt lat="42.8785585" lon="11.9853518"><ele>348.0</ele><time>2026-04-09T13:49:01.427Z</time></trkpt><trkpt lat="42.8784782" lon="11.9852536"><ele>348.0</ele><time>2026-04-09T13:49:02.428Z</time></trkpt><trkpt lat="42.8784149" lon="11.9852038"><ele>348.0</ele><time>2026-04-09T13:49:03.42Z</time></trkpt><trkpt lat="42.8783496" lon="11.9851489"><ele>346.0</ele><time>2026-04-09T13:49:04.42Z</time></trkpt><trkpt lat="42.8782895" lon="11.985068"><ele>344.0</ele><time>2026-04-09T13:49:05.42Z</time></trkpt><trkpt lat="42.8782002" lon="11.9849742"><ele>342.0</ele><time>2026-04-09T13:49:06.409Z</time></trkpt><trkpt lat="42.878131" lon="11.9848905"><ele>340.0</ele><time>2026-04-09T13:49:07.415Z</time></trkpt><trkpt lat="42.8780664" lon="11.984835"><ele>338.0</ele><time>2026-04-09T13:49:08.403Z</time></trkpt><trkpt lat="42.8779945" lon="11.9847313"><ele>338.0</ele><time>2026-04-09T13:49:09.425Z</time></trkpt><trkpt lat="42.8779102" lon="11.9846344"><ele>338.0</ele><time>2026-04-09T13:49:10.417Z</time></trkpt><trkpt lat="42.87785" lon="11.9845699"><ele>338.0</ele><time>2026-04-09T13:49:11.433Z</time></trkpt><trkpt lat="42.87776" lon="11.9844634"><ele>338.0</ele><time>2026-04-09T13:49:13.424Z</time></trkpt><trkpt lat="42.8777071" lon="11.9844161"><ele>338.0</ele><time>2026-04-09T13:49:14.436Z</time></trkpt><trkpt lat="42.8776372" lon="11.9843378"><ele>338.0</ele><time>2026-04-09T13:49:16.424Z</time></trkpt><trkpt lat="42.8775851" lon="11.9842886"><ele>338.0</ele><time>2026-04-09T13:49:47.511Z</time></trkpt><trkpt lat="42.8776733" lon="11.984347"><ele>338.0</ele><time>2026-04-09T13:50:17.427Z</time></trkpt><trkpt lat="42.8777233" lon="11.9843993"><ele>338.0</ele><time>2026-04-09T13:53:59.442Z</time></trkpt><trkpt lat="42.8776444" lon="11.9843675"><ele>338.0</ele><time>2026-04-09T13:54:44.435Z</time></trkpt><trkpt lat="42.8775721" lon="11.9843218"><ele>338.0</ele><time>2026-04-09T13:54:46.435Z</time></trkpt><trkpt lat="42.8775004" lon="11.984267"><ele>336.4</ele><time>2026-04-09T13:54:48.434Z</time></trkpt><trkpt lat="42.8774124" lon="11.984199"><ele>334.79999999999995</ele><time>2026-04-09T13:54:50.44Z</time></trkpt><trkpt lat="42.8773124" lon="11.9841228"><ele>333.2</ele><time>2026-04-09T13:54:52.442Z</time></trkpt><trkpt lat="42.8772292" lon="11.984054"><ele>331.6</ele><time>2026-04-09T13:54:54.429Z</time></trkpt><trkpt lat="42.8771601" lon="11.9839998"><ele>330.0</ele><time>2026-04-09T13:54:56.458Z</time></trkpt><trkpt lat="42.8770825" lon="11.9839641"><ele>330.0</ele><time>2026-04-09T13:54:58.447Z</time></trkpt><trkpt lat="42.8769953" lon="11.9839168"><ele>330.0</ele><time>2026-04-09T13:55:00.445Z</time></trkpt><trkpt lat="42.8769226" lon="11.9838894"><ele>330.0</ele><time>2026-04-09T13:55:02.444Z</time></trkpt><trkpt lat="42.876966" lon="11.983974"><ele>330.0</ele><time>2026-04-09T13:55:24.399Z</time></trkpt><trkpt lat="42.8769647" lon="11.9841133"><ele>330.0</ele><time>2026-04-09T13:55:26.407Z</time></trkpt><trkpt lat="42.8768966" lon="11.9840377"><ele>330.0</ele><time>2026-04-09T13:55:33.445Z</time></trkpt><trkpt lat="42.8768315" lon="11.9839798"><ele>330.00000000000006</ele><time>2026-04-09T13:55:35.444Z</time></trkpt><trkpt lat="42.8767787" lon="11.9839272"><ele>330.0</ele><time>2026-04-09T13:55:36.406Z</time></trkpt><trkpt lat="42.8767244" lon="11.9838799"><ele>330.0</ele><time>2026-04-09T13:55:37.443Z</time></trkpt><trkpt lat="42.8766517" lon="11.9838436"><ele>330.0</ele><time>2026-04-09T13:55:39.419Z</time></trkpt><trkpt lat="42.8765883" lon="11.9838454"><ele>330.0</ele><time>2026-04-09T13:55:41.406Z</time></trkpt><trkpt lat="42.8765241" lon="11.9838514"><ele>330.00000000000006</ele><time>2026-04-09T13:55:44.418Z</time></trkpt><trkpt lat="42.8764805" lon="11.9839363"><ele>330.0</ele><time>2026-04-09T13:55:47.428Z</time></trkpt><trkpt lat="42.8764524" lon="11.9840289"><ele>329.0</ele><time>2026-04-09T13:55:50.422Z</time></trkpt><trkpt lat="42.8764217" lon="11.9841148"><ele>328.0</ele><time>2026-04-09T13:55:52.428Z</time></trkpt><trkpt lat="42.8763793" lon="11.9842139"><ele>327.0</ele><time>2026-04-09T13:55:54.431Z</time></trkpt><trkpt lat="42.8763358" lon="11.9843539"><ele>326.0</ele><time>2026-04-09T13:55:56.439Z</time></trkpt><trkpt lat="42.8762944" lon="11.9844982"><ele>325.0</ele><time>2026-04-09T13:55:58.441Z</time></trkpt><trkpt lat="42.8762778" lon="11.9845824"><ele>324.0</ele><time>2026-04-09T13:55:59.439Z</time></trkpt><trkpt lat="42.8762505" lon="11.984671"><ele>322.8333333333333</ele><time>2026-04-09T13:56:00.441Z</time></trkpt><trkpt lat="42.8762234" lon="11.9847492"><ele>321.6666666666667</ele><time>2026-04-09T13:56:01.451Z</time></trkpt><trkpt lat="42.8761856" lon="11.9848693"><ele>320.5</ele><time>2026-04-09T13:56:03.433Z</time></trkpt><trkpt lat="42.8761373" lon="11.9849474"><ele>319.33333333333337</ele><time>2026-04-09T13:56:05.445Z</time></trkpt><trkpt lat="42.8760963" lon="11.9850322"><ele>318.1666666666667</ele><time>2026-04-09T13:56:07.434Z</time></trkpt><trkpt lat="42.8760677" lon="11.9851247"><ele>317.0</ele><time>2026-04-09T13:56:09.427Z</time></trkpt><trkpt lat="42.8760263" lon="11.9852338"><ele>316.1666666666667</ele><time>2026-04-09T13:56:11.432Z</time></trkpt><trkpt lat="42.8759661" lon="11.9853156"><ele>315.33333333333337</ele><time>2026-04-09T13:56:13.429Z</time></trkpt><trkpt lat="42.8759024" lon="11.9853897"><ele>314.5</ele><time>2026-04-09T13:56:15.431Z</time></trkpt><trkpt lat="42.8758383" lon="11.9854671"><ele>313.6666666666667</ele><time>2026-04-09T13:56:17.428Z</time></trkpt><trkpt lat="42.8757694" lon="11.9855365"><ele>312.8333333333333</ele><time>2026-04-09T13:56:19.426Z</time></trkpt><trkpt lat="42.8757017" lon="11.9856141"><ele>312.0</ele><time>2026-04-09T13:56:21.423Z</time></trkpt><trkpt lat="42.8756272" lon="11.9857064"><ele>311.2</ele><time>2026-04-09T13:56:23.424Z</time></trkpt><trkpt lat="42.8755404" lon="11.9857814"><ele>310.4</ele><time>2026-04-09T13:56:25.419Z</time></trkpt><trkpt lat="42.8754569" lon="11.9858566"><ele>309.6</ele><time>2026-04-09T13:56:27.413Z</time></trkpt><trkpt lat="42.8753885" lon="11.98596"><ele>308.8</ele><time>2026-04-09T13:56:29.416Z</time></trkpt><trkpt lat="42.8753447" lon="11.9860218"><ele>308.0</ele><time>2026-04-09T13:56:30.412Z</time></trkpt><trkpt lat="42.8752579" lon="11.9861194"><ele>307.6</ele><time>2026-04-09T13:56:32.423Z</time></trkpt><trkpt lat="42.875174" lon="11.986199"><ele>307.20000000000005</ele><time>2026-04-09T13:56:34.418Z</time></trkpt><trkpt lat="42.8750939" lon="11.9862689"><ele>306.8</ele><time>2026-04-09T13:56:36.417Z</time></trkpt><trkpt lat="42.8750199" lon="11.9863349"><ele>306.40000000000003</ele><time>2026-04-09T13:56:38.423Z</time></trkpt><trkpt lat="42.8749357" lon="11.9864078"><ele>306.0</ele><time>2026-04-09T13:56:40.412Z</time></trkpt><trkpt lat="42.8747735" lon="11.986443"><ele>304.0</ele><time>2026-04-09T13:56:43.422Z</time></trkpt><trkpt lat="42.8746811" lon="11.9864691"><ele>302.0</ele><time>2026-04-09T13:56:45.417Z</time></trkpt><trkpt lat="42.8746159" lon="11.9865357"><ele>300.0</ele><time>2026-04-09T13:56:47.425Z</time></trkpt><trkpt lat="42.8745815" lon="11.9866482"><ele>298.0</ele><time>2026-04-09T13:56:49.432Z</time></trkpt><trkpt lat="42.8745581" lon="11.9867798"><ele>296.0</ele><time>2026-04-09T13:56:51.45Z</time></trkpt><trkpt lat="42.8745242" lon="11.9869349"><ele>295.1666666666667</ele><time>2026-04-09T13:56:53.433Z</time></trkpt><trkpt lat="42.8745007" lon="11.9870232"><ele>294.33333333333337</ele><time>2026-04-09T13:56:54.432Z</time></trkpt><trkpt lat="42.874474" lon="11.9871143"><ele>293.5</ele><time>2026-04-09T13:56:55.437Z</time></trkpt><trkpt lat="42.8744391" lon="11.9871979"><ele>292.6666666666667</ele><time>2026-04-09T13:56:56.432Z</time></trkpt><trkpt lat="42.8743942" lon="11.9872847"><ele>291.8333333333333</ele><time>2026-04-09T13:56:57.436Z</time></trkpt><trkpt lat="42.8743456" lon="11.9873787"><ele>291.0</ele><time>2026-04-09T13:56:58.429Z</time></trkpt><trkpt lat="42.8742876" lon="11.9874778"><ele>290.0</ele><time>2026-04-09T13:56:59.52Z</time></trkpt><trkpt lat="42.8742322" lon="11.9875836"><ele>289.0</ele><time>2026-04-09T13:57:00.428Z</time></trkpt><trkpt lat="42.8741803" lon="11.9876787"><ele>288.0</ele><time>2026-04-09T13:57:01.444Z</time></trkpt><trkpt lat="42.8741331" lon="11.9877648"><ele>287.0</ele><time>2026-04-09T13:57:02.433Z</time></trkpt><trkpt lat="42.8740903" lon="11.9878508"><ele>286.0</ele><time>2026-04-09T13:57:03.435Z</time></trkpt><trkpt lat="42.8740554" lon="11.987945"><ele>285.0</ele><time>2026-04-09T13:57:04.435Z</time></trkpt><trkpt lat="42.8740293" lon="11.9880361"><ele>285.0</ele><time>2026-04-09T13:57:05.455Z</time></trkpt><trkpt lat="42.8740349" lon="11.9882029"><ele>285.0</ele><time>2026-04-09T13:57:07.435Z</time></trkpt><trkpt lat="42.8740942" lon="11.9883647"><ele>285.0</ele><time>2026-04-09T13:57:09.434Z</time></trkpt><trkpt lat="42.8741291" lon="11.9884469"><ele>285.0</ele><time>2026-04-09T13:57:10.428Z</time></trkpt><trkpt lat="42.8741658" lon="11.9885193"><ele>285.0</ele><time>2026-04-09T13:57:11.434Z</time></trkpt><trkpt lat="42.874216" lon="11.988669"><ele>284.25</ele><time>2026-04-09T13:57:13.423Z</time></trkpt><trkpt lat="42.8742322" lon="11.9887536"><ele>283.5</ele><time>2026-04-09T13:57:14.435Z</time></trkpt><trkpt lat="42.8742452" lon="11.9889039"><ele>282.75</ele><time>2026-04-09T13:57:16.418Z</time></trkpt><trkpt lat="42.8742859" lon="11.9891694"><ele>282.0</ele><time>2026-04-09T13:57:19.428Z</time></trkpt><trkpt lat="42.874311" lon="11.9892877"><ele>281.3333333333333</ele><time>2026-04-09T13:57:20.417Z</time></trkpt><trkpt lat="42.8743059" lon="11.9894"><ele>280.6666666666667</ele><time>2026-04-09T13:57:21.451Z</time></trkpt><trkpt lat="42.8742975" lon="11.9895128"><ele>280.0</ele><time>2026-04-09T13:57:22.427Z</time></trkpt><trkpt lat="42.8742877" lon="11.9896181"><ele>279.33333333333337</ele><time>2026-04-09T13:57:23.432Z</time></trkpt><trkpt lat="42.8742802" lon="11.9897146"><ele>278.6666666666667</ele><time>2026-04-09T13:57:24.419Z</time></trkpt><trkpt lat="42.8742695" lon="11.9898919"><ele>278.0</ele><time>2026-04-09T13:57:26.425Z</time></trkpt><trkpt lat="42.87426" lon="11.9899828"><ele>277.0</ele><time>2026-04-09T13:57:27.428Z</time></trkpt><trkpt lat="42.8742522" lon="11.9901454"><ele>276.0</ele><time>2026-04-09T13:57:29.435Z</time></trkpt><trkpt lat="42.8742621" lon="11.990311"><ele>275.0</ele><time>2026-04-09T13:57:31.43Z</time></trkpt><trkpt lat="42.8742587" lon="11.9904485"><ele>274.0</ele><time>2026-04-09T13:57:33.431Z</time></trkpt><trkpt lat="42.8742862" lon="11.9905821"><ele>273.0</ele><time>2026-04-09T13:57:35.585Z</time></trkpt><trkpt lat="42.8743374" lon="11.9907285"><ele>272.0</ele><time>2026-04-09T13:57:37.423Z</time></trkpt><trkpt lat="42.874368" lon="11.9908664"><ele>271.0</ele><time>2026-04-09T13:57:39.427Z</time></trkpt><trkpt lat="42.8743848" lon="11.9910018"><ele>270.0</ele><time>2026-04-09T13:57:41.43Z</time></trkpt><trkpt lat="42.8744126" lon="11.991123"><ele>269.0</ele><time>2026-04-09T13:57:43.44Z</time></trkpt><trkpt lat="42.8744545" lon="11.9912345"><ele>268.0</ele><time>2026-04-09T13:57:45.429Z</time></trkpt><trkpt lat="42.8744844" lon="11.9913645"><ele>268.0</ele><time>2026-04-09T13:57:47.425Z</time></trkpt><trkpt lat="42.8744938" lon="11.9914932"><ele>268.0</ele><time>2026-04-09T13:57:49.43Z</time></trkpt><trkpt lat="42.8744975" lon="11.9916251"><ele>268.0</ele><time>2026-04-09T13:57:51.424Z</time></trkpt><trkpt lat="42.8744867" lon="11.9917401"><ele>268.0</ele><time>2026-04-09T13:57:53.586Z</time></trkpt><trkpt lat="42.8744575" lon="11.9918165"><ele>268.0</ele><time>2026-04-09T13:58:00.427Z</time></trkpt><trkpt lat="42.8744113" lon="11.9917325"><ele>268.0</ele><time>2026-04-09T13:59:24.423Z</time></trkpt><trkpt lat="42.8744444" lon="11.9918249"><ele>268.2857142857143</ele><time>2026-04-09T13:59:30.422Z</time></trkpt><trkpt lat="42.8744647" lon="11.9919095"><ele>268.57142857142856</ele><time>2026-04-09T13:59:36.412Z</time></trkpt><trkpt lat="42.8744676" lon="11.9920145"><ele>268.85714285714283</ele><time>2026-04-09T13:59:43.419Z</time></trkpt><trkpt lat="42.8745295" lon="11.9919815"><ele>269.1428571428571</ele><time>2026-04-09T14:00:10.4Z</time></trkpt><trkpt lat="42.8744724" lon="11.9919342"><ele>269.4285714285714</ele><time>2026-04-09T14:00:24.434Z</time></trkpt><trkpt lat="42.8744502" lon="11.991851"><ele>269.7142857142857</ele><time>2026-04-09T14:00:30.412Z</time></trkpt><trkpt lat="42.8744222" lon="11.9917616"><ele>270.0</ele><time>2026-04-09T14:00:37.404Z</time></trkpt><trkpt lat="42.8743961" lon="11.9918436"><ele>270.0</ele><time>2026-04-09T14:02:21.401Z</time></trkpt><trkpt lat="42.8744569" lon="11.9918842"><ele>270.0</ele><time>2026-04-09T14:02:25.411Z</time></trkpt><trkpt lat="42.8744766" lon="11.9919666"><ele>270.0</ele><time>2026-04-09T14:02:27.393Z</time></trkpt><trkpt lat="42.8744851" lon="11.9920622"><ele>270.0</ele><time>2026-04-09T14:02:29.399Z</time></trkpt><trkpt lat="42.8744915" lon="11.9921541"><ele>270.0</ele><time>2026-04-09T14:02:57.39Z</time></trkpt><trkpt lat="42.8745069" lon="11.9922395"><ele>270.0</ele><time>2026-04-09T14:02:59.395Z</time></trkpt><trkpt lat="42.8745248" lon="11.9923235"><ele>270.0</ele><time>2026-04-09T14:03:00.471Z</time></trkpt><trkpt lat="42.874545" lon="11.9924204"><ele>269.8333333333333</ele><time>2026-04-09T14:03:01.389Z</time></trkpt><trkpt lat="42.8745765" lon="11.9925345"><ele>269.6666666666667</ele><time>2026-04-09T14:03:02.389Z</time></trkpt><trkpt lat="42.8746125" lon="11.9926514"><ele>269.5</ele><time>2026-04-09T14:03:03.392Z</time></trkpt><trkpt lat="42.8746494" lon="11.9927632"><ele>269.33333333333337</ele><time>2026-04-09T14:03:04.414Z</time></trkpt><trkpt lat="42.8746844" lon="11.9928677"><ele>269.1666666666667</ele><time>2026-04-09T14:03:05.406Z</time></trkpt><trkpt lat="42.8747025" lon="11.9929544"><ele>269.0</ele><time>2026-04-09T14:03:06.387Z</time></trkpt><trkpt lat="42.8747343" lon="11.9930545"><ele>269.0</ele><time>2026-04-09T14:03:07.406Z</time></trkpt><trkpt lat="42.8747859" lon="11.9932107"><ele>269.0</ele><time>2026-04-09T14:03:09.412Z</time></trkpt><trkpt lat="42.8748225" lon="11.9933018"><ele>269.0</ele><time>2026-04-09T14:03:10.416Z</time></trkpt><trkpt lat="42.8748615" lon="11.9934744"><ele>269.0</ele><time>2026-04-09T14:03:12.391Z</time></trkpt><trkpt lat="42.8749415" lon="11.9936286"><ele>269.33333333333337</ele><time>2026-04-09T14:03:14.396Z</time></trkpt><trkpt lat="42.8750002" lon="11.9936885"><ele>269.6666666666667</ele><time>2026-04-09T14:03:15.391Z</time></trkpt><trkpt lat="42.8750652" lon="11.9937419"><ele>270.0</ele><time>2026-04-09T14:03:16.401Z</time></trkpt><trkpt lat="42.8751312" lon="11.9938018"><ele>270.3333333333333</ele><time>2026-04-09T14:03:17.396Z</time></trkpt><trkpt lat="42.875191" lon="11.9938647"><ele>270.66666666666663</ele><time>2026-04-09T14:03:18.397Z</time></trkpt><trkpt lat="42.8752496" lon="11.9939241"><ele>271.0</ele><time>2026-04-09T14:03:19.401Z</time></trkpt><trkpt lat="42.8753161" lon="11.9939832"><ele>271.0</ele><time>2026-04-09T14:03:20.426Z</time></trkpt><trkpt lat="42.8753673" lon="11.9940498"><ele>271.0</ele><time>2026-04-09T14:03:21.391Z</time></trkpt><trkpt lat="42.8754114" lon="11.9941139"><ele>271.0</ele><time>2026-04-09T14:03:22.398Z</time></trkpt><trkpt lat="42.8754845" lon="11.9942189"><ele>271.0</ele><time>2026-04-09T14:03:24.401Z</time></trkpt><trkpt lat="42.8755331" lon="11.9942827"><ele>271.0</ele><time>2026-04-09T14:03:25.399Z</time></trkpt><trkpt lat="42.8756164" lon="11.9943809"><ele>271.0</ele><time>2026-04-09T14:03:27.404Z</time></trkpt><trkpt lat="42.8756687" lon="11.9944311"><ele>270.8333333333333</ele><time>2026-04-09T14:03:29.402Z</time></trkpt><trkpt lat="42.8757202" lon="11.9945062"><ele>270.66666666666663</ele><time>2026-04-09T14:03:33.401Z</time></trkpt><trkpt lat="42.8757759" lon="11.994552"><ele>270.5</ele><time>2026-04-09T14:03:53.414Z</time></trkpt><trkpt lat="42.8758392" lon="11.9946353"><ele>270.3333333333333</ele><time>2026-04-09T14:04:21.403Z</time></trkpt><trkpt lat="42.8758933" lon="11.9947184"><ele>270.1666666666667</ele><time>2026-04-09T14:04:23.411Z</time></trkpt><trkpt lat="42.8759537" lon="11.994806"><ele>270.0</ele><time>2026-04-09T14:04:25.412Z</time></trkpt><trkpt lat="42.8760181" lon="11.9949026"><ele>270.0</ele><time>2026-04-09T14:04:27.404Z</time></trkpt><trkpt lat="42.8760691" lon="11.9949692"><ele>270.0</ele><time>2026-04-09T14:04:29.405Z</time></trkpt><trkpt lat="42.8761016" lon="11.995084"><ele>270.0</ele><time>2026-04-09T14:04:32.399Z</time></trkpt><trkpt lat="42.876075" lon="11.9951644"><ele>270.0</ele><time>2026-04-09T14:04:34.398Z</time></trkpt><trkpt lat="42.876055" lon="11.9952622"><ele>270.0</ele><time>2026-04-09T14:04:36.401Z</time></trkpt><trkpt lat="42.8760688" lon="11.9953708"><ele>270.0</ele><time>2026-04-09T14:04:38.4Z</time></trkpt><trkpt lat="42.8761234" lon="11.9954625"><ele>269.1666666666667</ele><time>2026-04-09T14:04:40.406Z</time></trkpt><trkpt lat="42.8761847" lon="11.9955396"><ele>268.3333333333333</ele><time>2026-04-09T14:04:42.404Z</time></trkpt><trkpt lat="42.8762176" lon="11.9956242"><ele>267.5</ele><time>2026-04-09T14:04:45.395Z</time></trkpt><trkpt lat="42.8762287" lon="11.9957295"><ele>266.66666666666663</ele><time>2026-04-09T14:04:48.4Z</time></trkpt><trkpt lat="42.8762044" lon="11.9958515"><ele>265.8333333333333</ele><time>2026-04-09T14:04:51.388Z</time></trkpt><trkpt lat="42.8761838" lon="11.9959395"><ele>265.0</ele><time>2026-04-09T14:04:53.397Z</time></trkpt><trkpt lat="42.876158" lon="11.9960549"><ele>264.8333333333333</ele><time>2026-04-09T14:04:56.398Z</time></trkpt><trkpt lat="42.8762071" lon="11.9961581"><ele>264.66666666666663</ele><time>2026-04-09T14:04:59.394Z</time></trkpt><trkpt lat="42.8762739" lon="11.996223"><ele>264.5</ele><time>2026-04-09T14:05:01.393Z</time></trkpt><trkpt lat="42.8763222" lon="11.9963157"><ele>264.3333333333333</ele><time>2026-04-09T14:05:03.389Z</time></trkpt><trkpt lat="42.8764086" lon="11.9963627"><ele>264.1666666666667</ele><time>2026-04-09T14:05:06.399Z</time></trkpt><trkpt lat="42.8764835" lon="11.9963703"><ele>264.0</ele><time>2026-04-09T14:05:11.402Z</time></trkpt><trkpt lat="42.8765474" lon="11.9964314"><ele>264.0</ele><time>2026-04-09T14:05:13.406Z</time></trkpt><trkpt lat="42.8765889" lon="11.9965171"><ele>264.0</ele><time>2026-04-09T14:05:15.411Z</time></trkpt><trkpt lat="42.8766476" lon="11.9966486"><ele>264.0</ele><time>2026-04-09T14:05:17.431Z</time></trkpt><trkpt lat="42.8766918" lon="11.9967205"><ele>264.0</ele><time>2026-04-09T14:05:18.41Z</time></trkpt><trkpt lat="42.8767381" lon="11.9967912"><ele>264.0</ele><time>2026-04-09T14:05:19.437Z</time></trkpt><trkpt lat="42.8767999" lon="11.9968963"><ele>264.0</ele><time>2026-04-09T14:05:21.402Z</time></trkpt><trkpt lat="42.8768463" lon="11.9970032"><ele>264.1428571428571</ele><time>2026-04-09T14:05:23.404Z</time></trkpt><trkpt lat="42.8768756" lon="11.9970847"><ele>264.2857142857143</ele><time>2026-04-09T14:06:30.409Z</time></trkpt><trkpt lat="42.8769046" lon="11.9970038"><ele>264.42857142857144</ele><time>2026-04-09T14:07:41.389Z</time></trkpt><trkpt lat="42.8768559" lon="11.9969487"><ele>264.57142857142856</ele><time>2026-04-09T14:07:56.396Z</time></trkpt><trkpt lat="42.8768148" lon="11.9968222"><ele>264.7142857142857</ele><time>2026-04-09T14:07:58.379Z</time></trkpt><trkpt lat="42.8768046" lon="11.9967244"><ele>264.85714285714283</ele><time>2026-04-09T14:09:36.413Z</time></trkpt><trkpt lat="42.8767881" lon="11.9966313"><ele>265.0</ele><time>2026-04-09T14:09:41.409Z</time></trkpt><trkpt lat="42.876789" lon="11.9967655"><ele>264.5</ele><time>2026-04-09T14:09:43.411Z</time></trkpt><trkpt lat="42.8767861" lon="11.9968631"><ele>264.0</ele><time>2026-04-09T14:09:44.412Z</time></trkpt><trkpt lat="42.8767903" lon="11.9969641"><ele>263.5</ele><time>2026-04-09T14:09:45.414Z</time></trkpt><trkpt lat="42.8768032" lon="11.9970729"><ele>263.0</ele><time>2026-04-09T14:09:46.415Z</time></trkpt><trkpt lat="42.8768195" lon="11.9971853"><ele>262.5</ele><time>2026-04-09T14:09:47.416Z</time></trkpt><trkpt lat="42.876832" lon="11.997296"><ele>262.0</ele><time>2026-04-09T14:09:48.409Z</time></trkpt><trkpt lat="42.8768401" lon="11.9974143"><ele>262.0</ele><time>2026-04-09T14:09:49.413Z</time></trkpt><trkpt lat="42.8768461" lon="11.9975435"><ele>262.0</ele><time>2026-04-09T14:09:50.41Z</time></trkpt><trkpt lat="42.8768576" lon="11.9976842"><ele>262.0</ele><time>2026-04-09T14:09:51.4Z</time></trkpt><trkpt lat="42.8768735" lon="11.99783"><ele>262.0</ele><time>2026-04-09T14:09:52.41Z</time></trkpt><trkpt lat="42.8768899" lon="11.9979745"><ele>262.0</ele><time>2026-04-09T14:09:53.401Z</time></trkpt><trkpt lat="42.8769056" lon="11.9981039"><ele>262.0</ele><time>2026-04-09T14:09:54.405Z</time></trkpt><trkpt lat="42.8769259" lon="11.9982406"><ele>262.0</ele><time>2026-04-09T14:09:55.392Z</time></trkpt><trkpt lat="42.8769525" lon="11.9983911"><ele>262.0</ele><time>2026-04-09T14:09:56.396Z</time></trkpt><trkpt lat="42.8769853" lon="11.9985697"><ele>262.0</ele><time>2026-04-09T14:09:57.399Z</time></trkpt><trkpt lat="42.8770282" lon="11.9987553"><ele>260.66666666666663</ele><time>2026-04-09T14:09:58.41Z</time></trkpt><trkpt lat="42.8770786" lon="11.998953"><ele>259.3333333333333</ele><time>2026-04-09T14:09:59.406Z</time></trkpt><trkpt lat="42.8771377" lon="11.9991677"><ele>258.0</ele><time>2026-04-09T14:10:00.41Z</time></trkpt><trkpt lat="42.8772298" lon="11.9994306"><ele>257.0</ele><time>2026-04-09T14:10:01.402Z</time></trkpt><trkpt lat="42.8773096" lon="11.9996766"><ele>256.0</ele><time>2026-04-09T14:10:02.393Z</time></trkpt><trkpt lat="42.8773875" lon="11.9999098"><ele>255.0</ele><time>2026-04-09T14:10:03.393Z</time></trkpt><trkpt lat="42.8774472" lon="12.00012"><ele>255.0</ele><time>2026-04-09T14:10:04.401Z</time></trkpt><trkpt lat="42.8774974" lon="12.0002889"><ele>255.0</ele><time>2026-04-09T14:10:05.406Z</time></trkpt><trkpt lat="42.877541" lon="12.0004156"><ele>255.0</ele><time>2026-04-09T14:10:06.398Z</time></trkpt><trkpt lat="42.8775879" lon="12.0005551"><ele>255.0</ele><time>2026-04-09T14:10:07.403Z</time></trkpt><trkpt lat="42.8776535" lon="12.0007071"><ele>254.5</ele><time>2026-04-09T14:10:08.395Z</time></trkpt><trkpt lat="42.877712" lon="12.0008836"><ele>254.0</ele><time>2026-04-09T14:10:09.397Z</time></trkpt><trkpt lat="42.8777817" lon="12.00107"><ele>253.5</ele><time>2026-04-09T14:10:10.401Z</time></trkpt><trkpt lat="42.8777811" lon="12.0012152"><ele>253.0</ele><time>2026-04-09T14:10:11.48Z</time></trkpt><trkpt lat="42.8777682" lon="12.0013492"><ele>253.0</ele><time>2026-04-09T14:10:12.421Z</time></trkpt><trkpt lat="42.8777383" lon="12.0015368"><ele>253.0</ele><time>2026-04-09T14:10:13.398Z</time></trkpt><trkpt lat="42.8777058" lon="12.0017757"><ele>253.0</ele><time>2026-04-09T14:10:14.403Z</time></trkpt><trkpt lat="42.8776661" lon="12.0020574"><ele>252.66666666666666</ele><time>2026-04-09T14:10:15.431Z</time></trkpt><trkpt lat="42.8776163" lon="12.0022955"><ele>252.33333333333331</ele><time>2026-04-09T14:10:16.404Z</time></trkpt><trkpt lat="42.8775697" lon="12.0025056"><ele>252.0</ele><time>2026-04-09T14:10:17.403Z</time></trkpt><trkpt lat="42.8775329" lon="12.0026783"><ele>251.83333333333334</ele><time>2026-04-09T14:10:18.404Z</time></trkpt><trkpt lat="42.8774988" lon="12.0027973"><ele>251.66666666666669</ele><time>2026-04-09T14:10:19.408Z</time></trkpt><trkpt lat="42.8774648" lon="12.0028961"><ele>251.5</ele><time>2026-04-09T14:10:20.402Z</time></trkpt><trkpt lat="42.877419" lon="12.0029892"><ele>251.33333333333334</ele><time>2026-04-09T14:10:21.403Z</time></trkpt><trkpt lat="42.8773651" lon="12.0030576"><ele>251.16666666666669</ele><time>2026-04-09T14:10:22.4Z</time></trkpt><trkpt lat="42.8773018" lon="12.0031122"><ele>251.0</ele><time>2026-04-09T14:10:23.414Z</time></trkpt><trkpt lat="42.8772363" lon="12.0031889"><ele>251.0</ele><time>2026-04-09T14:10:24.407Z</time></trkpt><trkpt lat="42.8771794" lon="12.0032731"><ele>251.0</ele><time>2026-04-09T14:10:25.395Z</time></trkpt><trkpt lat="42.877112" lon="12.0033968"><ele>251.0</ele><time>2026-04-09T14:10:26.394Z</time></trkpt><trkpt lat="42.8770481" lon="12.0035515"><ele>251.0</ele><time>2026-04-09T14:10:27.406Z</time></trkpt><trkpt lat="42.8769858" lon="12.0037269"><ele>250.66666666666669</ele><time>2026-04-09T14:10:28.396Z</time></trkpt><trkpt lat="42.8769251" lon="12.0039307"><ele>250.33333333333331</ele><time>2026-04-09T14:10:29.48Z</time></trkpt><trkpt lat="42.8768593" lon="12.0041934"><ele>250.0</ele><time>2026-04-09T14:10:30.402Z</time></trkpt><trkpt lat="42.876807" lon="12.00441"><ele>250.25</ele><time>2026-04-09T14:10:31.403Z</time></trkpt><trkpt lat="42.8767535" lon="12.0046017"><ele>250.5</ele><time>2026-04-09T14:10:32.394Z</time></trkpt><trkpt lat="42.8766937" lon="12.0047832"><ele>250.75</ele><time>2026-04-09T14:10:33.404Z</time></trkpt><trkpt lat="42.8766311" lon="12.0049634"><ele>251.0</ele><time>2026-04-09T14:10:34.392Z</time></trkpt><trkpt lat="42.8765836" lon="12.0051363"><ele>250.60000000000002</ele><time>2026-04-09T14:10:35.423Z</time></trkpt><trkpt lat="42.8765493" lon="12.0052957"><ele>250.20000000000002</ele><time>2026-04-09T14:10:36.417Z</time></trkpt><trkpt lat="42.8765191" lon="12.0054349"><ele>249.79999999999998</ele><time>2026-04-09T14:10:37.42Z</time></trkpt><trkpt lat="42.876483" lon="12.0055707"><ele>249.39999999999998</ele><time>2026-04-09T14:10:38.417Z</time></trkpt><trkpt lat="42.8764488" lon="12.0057121"><ele>249.0</ele><time>2026-04-09T14:10:39.421Z</time></trkpt><trkpt lat="42.8764138" lon="12.0058226"><ele>248.66666666666666</ele><time>2026-04-09T14:10:40.438Z</time></trkpt><trkpt lat="42.876383" lon="12.0059393"><ele>248.33333333333331</ele><time>2026-04-09T14:10:41.392Z</time></trkpt><trkpt lat="42.8763536" lon="12.0060375"><ele>248.0</ele><time>2026-04-09T14:10:42.4Z</time></trkpt><trkpt lat="42.8763236" lon="12.0061264"><ele>247.66666666666666</ele><time>2026-04-09T14:10:43.401Z</time></trkpt><trkpt lat="42.8762669" lon="12.0062505"><ele>247.33333333333331</ele><time>2026-04-09T14:10:45.4Z</time></trkpt><trkpt lat="42.8761882" lon="12.0062172"><ele>247.0</ele><time>2026-04-09T14:10:49.391Z</time></trkpt><trkpt lat="42.8761413" lon="12.0060775"><ele>247.0</ele><time>2026-04-09T14:10:51.402Z</time></trkpt><trkpt lat="42.8761215" lon="12.0059699"><ele>247.0</ele><time>2026-04-09T14:10:52.399Z</time></trkpt><trkpt lat="42.8760967" lon="12.0058595"><ele>247.0</ele><time>2026-04-09T14:10:53.404Z</time></trkpt><trkpt lat="42.8760612" lon="12.0057432"><ele>247.0</ele><time>2026-04-09T14:10:54.404Z</time></trkpt><trkpt lat="42.8760173" lon="12.0056206"><ele>247.0</ele><time>2026-04-09T14:10:55.401Z</time></trkpt><trkpt lat="42.8759639" lon="12.0054676"><ele>248.25</ele><time>2026-04-09T14:10:56.401Z</time></trkpt><trkpt lat="42.8759155" lon="12.0053099"><ele>249.5</ele><time>2026-04-09T14:10:57.399Z</time></trkpt><trkpt lat="42.8758668" lon="12.0051525"><ele>250.75</ele><time>2026-04-09T14:10:58.403Z</time></trkpt><trkpt lat="42.8758189" lon="12.0050079"><ele>252.0</ele><time>2026-04-09T14:10:59.4Z</time></trkpt><trkpt lat="42.8757648" lon="12.0048639"><ele>252.0</ele><time>2026-04-09T14:11:00.407Z</time></trkpt><trkpt lat="42.8756941" lon="12.0047067"><ele>252.0</ele><time>2026-04-09T14:11:01.401Z</time></trkpt><trkpt lat="42.8756028" lon="12.004544"><ele>252.0</ele><time>2026-04-09T14:11:02.403Z</time></trkpt><trkpt lat="42.8754525" lon="12.0043794"><ele>252.0</ele><time>2026-04-09T14:11:03.391Z</time></trkpt><trkpt lat="42.8753057" lon="12.0042141"><ele>252.0</ele><time>2026-04-09T14:11:04.398Z</time></trkpt><trkpt lat="42.8751849" lon="12.0040565"><ele>252.0</ele><time>2026-04-09T14:11:05.398Z</time></trkpt><trkpt lat="42.8750828" lon="12.0039016"><ele>253.0</ele><time>2026-04-09T14:11:06.397Z</time></trkpt><trkpt lat="42.8749873" lon="12.0037888"><ele>254.0</ele><time>2026-04-09T14:11:07.394Z</time></trkpt><trkpt lat="42.874908" lon="12.0036889"><ele>255.0</ele><time>2026-04-09T14:11:08.394Z</time></trkpt><trkpt lat="42.8748433" lon="12.0035927"><ele>256.0</ele><time>2026-04-09T14:11:09.395Z</time></trkpt><trkpt lat="42.8747923" lon="12.0034794"><ele>257.0</ele><time>2026-04-09T14:11:10.397Z</time></trkpt><trkpt lat="42.8747657" lon="12.003332"><ele>256.75</ele><time>2026-04-09T14:11:11.391Z</time></trkpt><trkpt lat="42.8747595" lon="12.0031771"><ele>256.5</ele><time>2026-04-09T14:11:12.391Z</time></trkpt><trkpt lat="42.8748026" lon="12.0030113"><ele>256.25</ele><time>2026-04-09T14:11:13.396Z</time></trkpt><trkpt lat="42.8748341" lon="12.0028497"><ele>256.0</ele><time>2026-04-09T14:11:14.394Z</time></trkpt><trkpt lat="42.8748601" lon="12.0027262"><ele>256.0</ele><time>2026-04-09T14:11:15.389Z</time></trkpt><trkpt lat="42.8748812" lon="12.0025853"><ele>256.0</ele><time>2026-04-09T14:11:16.395Z</time></trkpt><trkpt lat="42.874907" lon="12.0024527"><ele>256.0</ele><time>2026-04-09T14:11:17.391Z</time></trkpt><trkpt lat="42.8749106" lon="12.0023012"><ele>256.0</ele><time>2026-04-09T14:11:18.393Z</time></trkpt><trkpt lat="42.8748826" lon="12.0020982"><ele>255.33333333333331</ele><time>2026-04-09T14:11:19.396Z</time></trkpt><trkpt lat="42.8747994" lon="12.0018629"><ele>254.66666666666669</ele><time>2026-04-09T14:11:20.403Z</time></trkpt><trkpt lat="42.8747332" lon="12.0016621"><ele>254.0</ele><time>2026-04-09T14:11:21.401Z</time></trkpt><trkpt lat="42.8746861" lon="12.0014483"><ele>254.0</ele><time>2026-04-09T14:11:22.399Z</time></trkpt><trkpt lat="42.8746214" lon="12.0012476"><ele>254.0</ele><time>2026-04-09T14:11:23.396Z</time></trkpt><trkpt lat="42.8745189" lon="12.0010439"><ele>254.0</ele><time>2026-04-09T14:11:24.393Z</time></trkpt><trkpt lat="42.8743664" lon="12.0008763"><ele>255.0</ele><time>2026-04-09T14:11:25.404Z</time></trkpt><trkpt lat="42.8742305" lon="12.0007088"><ele>256.0</ele><time>2026-04-09T14:11:26.397Z</time></trkpt><trkpt lat="42.8740915" lon="12.0005497"><ele>257.0</ele><time>2026-04-09T14:11:27.396Z</time></trkpt><trkpt lat="42.8739592" lon="12.0003616"><ele>257.0</ele><time>2026-04-09T14:11:28.402Z</time></trkpt><trkpt lat="42.8738384" lon="12.0001285"><ele>257.0</ele><time>2026-04-09T14:11:29.425Z</time></trkpt><trkpt lat="42.87372" lon="11.9998996"><ele>257.0</ele><time>2026-04-09T14:11:30.427Z</time></trkpt><trkpt lat="42.8736028" lon="11.9996904"><ele>257.0</ele><time>2026-04-09T14:11:31.43Z</time></trkpt><trkpt lat="42.87349" lon="11.9995145"><ele>257.0</ele><time>2026-04-09T14:11:32.423Z</time></trkpt><trkpt lat="42.8733508" lon="11.9993383"><ele>257.0</ele><time>2026-04-09T14:11:33.396Z</time></trkpt><trkpt lat="42.8732494" lon="11.9991977"><ele>257.6666666666667</ele><time>2026-04-09T14:11:34.393Z</time></trkpt><trkpt lat="42.8731394" lon="11.9990412"><ele>258.3333333333333</ele><time>2026-04-09T14:11:35.392Z</time></trkpt><trkpt lat="42.8730317" lon="11.9988751"><ele>259.0</ele><time>2026-04-09T14:11:36.397Z</time></trkpt><trkpt lat="42.8729421" lon="11.9986931"><ele>259.0</ele><time>2026-04-09T14:11:37.401Z</time></trkpt><trkpt lat="42.8728682" lon="11.9985053"><ele>259.0</ele><time>2026-04-09T14:11:38.398Z</time></trkpt><trkpt lat="42.8727937" lon="11.998262"><ele>259.0</ele><time>2026-04-09T14:11:39.402Z</time></trkpt><trkpt lat="42.8727318" lon="11.9980214"><ele>258.66666666666663</ele><time>2026-04-09T14:11:40.402Z</time></trkpt><trkpt lat="42.8726654" lon="11.9977741"><ele>258.3333333333333</ele><time>2026-04-09T14:11:41.4Z</time></trkpt><trkpt lat="42.8725851" lon="11.9975026"><ele>258.0</ele><time>2026-04-09T14:11:42.401Z</time></trkpt><trkpt lat="42.8725346" lon="11.9972667"><ele>257.6666666666667</ele><time>2026-04-09T14:11:43.396Z</time></trkpt><trkpt lat="42.8724816" lon="11.9970365"><ele>257.33333333333337</ele><time>2026-04-09T14:11:44.402Z</time></trkpt><trkpt lat="42.872407" lon="11.9967965"><ele>257.0</ele><time>2026-04-09T14:11:45.397Z</time></trkpt><trkpt lat="42.8723479" lon="11.9965617"><ele>257.6666666666667</ele><time>2026-04-09T14:11:46.403Z</time></trkpt><trkpt lat="42.8722852" lon="11.9963368"><ele>258.3333333333333</ele><time>2026-04-09T14:11:47.405Z</time></trkpt><trkpt lat="42.8722392" lon="11.9961227"><ele>259.0</ele><time>2026-04-09T14:11:48.4Z</time></trkpt><trkpt lat="42.8721808" lon="11.9958869"><ele>258.66666666666663</ele><time>2026-04-09T14:11:49.404Z</time></trkpt><trkpt lat="42.8721105" lon="11.9956122"><ele>258.3333333333333</ele><time>2026-04-09T14:11:50.404Z</time></trkpt><trkpt lat="42.8720366" lon="11.9953388"><ele>258.0</ele><time>2026-04-09T14:11:51.396Z</time></trkpt><trkpt lat="42.8719734" lon="11.9950932"><ele>258.6666666666667</ele><time>2026-04-09T14:11:52.401Z</time></trkpt><trkpt lat="42.8719361" lon="11.9948756"><ele>259.33333333333337</ele><time>2026-04-09T14:11:53.401Z</time></trkpt><trkpt lat="42.8718952" lon="11.9946562"><ele>260.0</ele><time>2026-04-09T14:11:54.398Z</time></trkpt><trkpt lat="42.871831" lon="11.9944157"><ele>261.6666666666667</ele><time>2026-04-09T14:11:55.4Z</time></trkpt><trkpt lat="42.8717627" lon="11.994159"><ele>263.3333333333333</ele><time>2026-04-09T14:11:56.42Z</time></trkpt><trkpt lat="42.8717173" lon="11.9938733"><ele>265.0</ele><time>2026-04-09T14:11:57.397Z</time></trkpt><trkpt lat="42.8716416" lon="11.9935871"><ele>263.5</ele><time>2026-04-09T14:11:58.397Z</time></trkpt><trkpt lat="42.8715567" lon="11.9932867"><ele>262.0</ele><time>2026-04-09T14:11:59.395Z</time></trkpt><trkpt lat="42.8714554" lon="11.9929994"><ele>262.0</ele><time>2026-04-09T14:12:00.401Z</time></trkpt><trkpt lat="42.8713617" lon="11.9927051"><ele>262.0</ele><time>2026-04-09T14:12:01.399Z</time></trkpt><trkpt lat="42.8712868" lon="11.9924334"><ele>262.0</ele><time>2026-04-09T14:12:02.4Z</time></trkpt><trkpt lat="42.871201" lon="11.9921588"><ele>261.0</ele><time>2026-04-09T14:12:03.403Z</time></trkpt><trkpt lat="42.871107" lon="11.9918791"><ele>260.0</ele><time>2026-04-09T14:12:04.399Z</time></trkpt><trkpt lat="42.8710345" lon="11.9916076"><ele>259.0</ele><time>2026-04-09T14:12:05.398Z</time></trkpt><trkpt lat="42.8709656" lon="11.9913652"><ele>260.66666666666663</ele><time>2026-04-09T14:12:06.402Z</time></trkpt><trkpt lat="42.8708887" lon="11.991094"><ele>262.3333333333333</ele><time>2026-04-09T14:12:07.402Z</time></trkpt><trkpt lat="42.8708098" lon="11.9908197"><ele>264.0</ele><time>2026-04-09T14:12:08.406Z</time></trkpt><trkpt lat="42.8707317" lon="11.9905681"><ele>264.0</ele><time>2026-04-09T14:12:09.403Z</time></trkpt><trkpt lat="42.8706534" lon="11.9902867"><ele>264.0</ele><time>2026-04-09T14:12:10.408Z</time></trkpt><trkpt lat="42.8705653" lon="11.9899934"><ele>263.0</ele><time>2026-04-09T14:12:11.409Z</time></trkpt><trkpt lat="42.8704682" lon="11.9896942"><ele>262.0</ele><time>2026-04-09T14:12:12.407Z</time></trkpt><trkpt lat="42.8703694" lon="11.9894041"><ele>262.0</ele><time>2026-04-09T14:12:13.404Z</time></trkpt><trkpt lat="42.8702489" lon="11.9890792"><ele>262.0</ele><time>2026-04-09T14:12:14.405Z</time></trkpt><trkpt lat="42.8701345" lon="11.9887761"><ele>262.5</ele><time>2026-04-09T14:12:15.409Z</time></trkpt><trkpt lat="42.8700167" lon="11.9884728"><ele>263.0</ele><time>2026-04-09T14:12:16.405Z</time></trkpt><trkpt lat="42.8699069" lon="11.9881636"><ele>264.0</ele><time>2026-04-09T14:12:17.417Z</time></trkpt><trkpt lat="42.869791" lon="11.98787"><ele>265.0</ele><time>2026-04-09T14:12:18.408Z</time></trkpt><trkpt lat="42.8696795" lon="11.9875996"><ele>264.5</ele><time>2026-04-09T14:12:19.405Z</time></trkpt><trkpt lat="42.8695542" lon="11.9873229"><ele>264.0</ele><time>2026-04-09T14:12:20.427Z</time></trkpt><trkpt lat="42.8694436" lon="11.9870628"><ele>264.0</ele><time>2026-04-09T14:12:21.399Z</time></trkpt><trkpt lat="42.8693482" lon="11.9867996"><ele>264.0</ele><time>2026-04-09T14:12:22.405Z</time></trkpt><trkpt lat="42.8692657" lon="11.9865299"><ele>264.0</ele><time>2026-04-09T14:12:23.403Z</time></trkpt><trkpt lat="42.8691922" lon="11.9862545"><ele>268.0</ele><time>2026-04-09T14:12:24.402Z</time></trkpt><trkpt lat="42.8691217" lon="11.9859452"><ele>272.0</ele><time>2026-04-09T14:12:25.398Z</time></trkpt><trkpt lat="42.8690818" lon="11.9856177"><ele>272.0</ele><time>2026-04-09T14:12:26.397Z</time></trkpt><trkpt lat="42.8690346" lon="11.9852749"><ele>272.0</ele><time>2026-04-09T14:12:27.401Z</time></trkpt><trkpt lat="42.8689908" lon="11.9849638"><ele>271.33333333333337</ele><time>2026-04-09T14:12:28.405Z</time></trkpt><trkpt lat="42.8689511" lon="11.9846942"><ele>270.6666666666667</ele><time>2026-04-09T14:12:29.402Z</time></trkpt><trkpt lat="42.8688939" lon="11.9844154"><ele>270.0</ele><time>2026-04-09T14:12:30.408Z</time></trkpt><trkpt lat="42.8688774" lon="11.98417"><ele>269.3333333333333</ele><time>2026-04-09T14:12:31.406Z</time></trkpt><trkpt lat="42.8688518" lon="11.9839537"><ele>268.66666666666663</ele><time>2026-04-09T14:12:32.401Z</time></trkpt><trkpt lat="42.8688635" lon="11.983745"><ele>268.0</ele><time>2026-04-09T14:12:33.4Z</time></trkpt><trkpt lat="42.8688734" lon="11.9834906"><ele>267.66666666666663</ele><time>2026-04-09T14:12:34.4Z</time></trkpt><trkpt lat="42.8688862" lon="11.9831919"><ele>267.3333333333333</ele><time>2026-04-09T14:12:35.401Z</time></trkpt><trkpt lat="42.868886" lon="11.9828784"><ele>267.0</ele><time>2026-04-09T14:12:36.417Z</time></trkpt><trkpt lat="42.8688641" lon="11.9825967"><ele>267.3333333333333</ele><time>2026-04-09T14:12:37.421Z</time></trkpt><trkpt lat="42.868874" lon="11.9823287"><ele>267.66666666666663</ele><time>2026-04-09T14:12:38.439Z</time></trkpt><trkpt lat="42.8689088" lon="11.9820874"><ele>268.0</ele><time>2026-04-09T14:12:39.434Z</time></trkpt><trkpt lat="42.8689778" lon="11.9819021"><ele>269.66666666666663</ele><time>2026-04-09T14:12:40.43Z</time></trkpt><trkpt lat="42.8690198" lon="11.9816753"><ele>271.3333333333333</ele><time>2026-04-09T14:12:41.397Z</time></trkpt><trkpt lat="42.8690943" lon="11.981403"><ele>273.0</ele><time>2026-04-09T14:12:42.411Z</time></trkpt><trkpt lat="42.8691379" lon="11.9811573"><ele>273.0</ele><time>2026-04-09T14:12:43.413Z</time></trkpt><trkpt lat="42.869184" lon="11.9809393"><ele>273.0</ele><time>2026-04-09T14:12:44.417Z</time></trkpt><trkpt lat="42.8692252" lon="11.9807346"><ele>273.0</ele><time>2026-04-09T14:12:45.413Z</time></trkpt><trkpt lat="42.8692361" lon="11.9804822"><ele>273.3333333333333</ele><time>2026-04-09T14:12:46.415Z</time></trkpt><trkpt lat="42.8692596" lon="11.9802144"><ele>273.66666666666663</ele><time>2026-04-09T14:12:47.413Z</time></trkpt><trkpt lat="42.8692618" lon="11.9799437"><ele>274.0</ele><time>2026-04-09T14:12:48.422Z</time></trkpt><trkpt lat="42.8692467" lon="11.9796759"><ele>274.0</ele><time>2026-04-09T14:12:49.415Z</time></trkpt><trkpt lat="42.8692427" lon="11.9794275"><ele>274.0</ele><time>2026-04-09T14:12:50.417Z</time></trkpt><trkpt lat="42.8692341" lon="11.9791274"><ele>274.0</ele><time>2026-04-09T14:12:51.402Z</time></trkpt><trkpt lat="42.8692113" lon="11.9788326"><ele>275.66666666666663</ele><time>2026-04-09T14:12:52.41Z</time></trkpt><trkpt lat="42.8692002" lon="11.9785357"><ele>277.3333333333333</ele><time>2026-04-09T14:12:53.407Z</time></trkpt><trkpt lat="42.8691899" lon="11.9782334"><ele>279.0</ele><time>2026-04-09T14:12:54.403Z</time></trkpt><trkpt lat="42.8691805" lon="11.9779371"><ele>279.0</ele><time>2026-04-09T14:12:55.432Z</time></trkpt><trkpt lat="42.8691705" lon="11.9776577"><ele>279.0</ele><time>2026-04-09T14:12:56.425Z</time></trkpt><trkpt lat="42.8691757" lon="11.977365"><ele>279.0</ele><time>2026-04-09T14:12:57.407Z</time></trkpt><trkpt lat="42.8691597" lon="11.9770614"><ele>279.5</ele><time>2026-04-09T14:12:58.411Z</time></trkpt><trkpt lat="42.8691299" lon="11.9767489"><ele>280.0</ele><time>2026-04-09T14:12:59.404Z</time></trkpt><trkpt lat="42.8691166" lon="11.9764271"><ele>279.3333333333333</ele><time>2026-04-09T14:13:00.407Z</time></trkpt><trkpt lat="42.8690976" lon="11.9761227"><ele>278.6666666666667</ele><time>2026-04-09T14:13:01.427Z</time></trkpt><trkpt lat="42.8690854" lon="11.975864"><ele>278.0</ele><time>2026-04-09T14:13:02.406Z</time></trkpt><trkpt lat="42.8690821" lon="11.9756211"><ele>277.6666666666667</ele><time>2026-04-09T14:13:03.4Z</time></trkpt><trkpt lat="42.8690658" lon="11.9753819"><ele>277.3333333333333</ele><time>2026-04-09T14:13:04.409Z</time></trkpt><trkpt lat="42.8690475" lon="11.9751596"><ele>277.0</ele><time>2026-04-09T14:13:05.404Z</time></trkpt><trkpt lat="42.8690196" lon="11.9749507"><ele>277.5</ele><time>2026-04-09T14:13:06.401Z</time></trkpt><trkpt lat="42.8690053" lon="11.9747617"><ele>278.0</ele><time>2026-04-09T14:13:07.402Z</time></trkpt><trkpt lat="42.8690039" lon="11.9745524"><ele>278.5</ele><time>2026-04-09T14:13:08.4Z</time></trkpt><trkpt lat="42.8689927" lon="11.9743541"><ele>279.0</ele><time>2026-04-09T14:13:09.399Z</time></trkpt><trkpt lat="42.8689806" lon="11.9741652"><ele>279.6666666666667</ele><time>2026-04-09T14:13:10.411Z</time></trkpt><trkpt lat="42.8689643" lon="11.9739473"><ele>280.33333333333337</ele><time>2026-04-09T14:13:11.401Z</time></trkpt><trkpt lat="42.8689536" lon="11.9737347"><ele>281.0</ele><time>2026-04-09T14:13:12.404Z</time></trkpt><trkpt lat="42.8689351" lon="11.9735185"><ele>280.6666666666667</ele><time>2026-04-09T14:13:13.4Z</time></trkpt><trkpt lat="42.868924" lon="11.9733078"><ele>280.3333333333333</ele><time>2026-04-09T14:13:14.412Z</time></trkpt><trkpt lat="42.8689259" lon="11.9730673"><ele>280.0</ele><time>2026-04-09T14:13:15.406Z</time></trkpt><trkpt lat="42.8689177" lon="11.9728449"><ele>280.0</ele><time>2026-04-09T14:13:16.412Z</time></trkpt><trkpt lat="42.8689012" lon="11.9726239"><ele>280.0</ele><time>2026-04-09T14:13:17.413Z</time></trkpt><trkpt lat="42.8688945" lon="11.9724649"><ele>280.0</ele><time>2026-04-09T14:13:18.408Z</time></trkpt><trkpt lat="42.8689062" lon="11.9722944"><ele>280.0</ele><time>2026-04-09T14:13:19.402Z</time></trkpt><trkpt lat="42.8689023" lon="11.9721478"><ele>280.75</ele><time>2026-04-09T14:13:20.397Z</time></trkpt><trkpt lat="42.8688923" lon="11.9719686"><ele>281.5</ele><time>2026-04-09T14:13:21.389Z</time></trkpt><trkpt lat="42.8688867" lon="11.9717872"><ele>282.25</ele><time>2026-04-09T14:13:22.405Z</time></trkpt><trkpt lat="42.868874" lon="11.9715789"><ele>283.0</ele><time>2026-04-09T14:13:23.4Z</time></trkpt><trkpt lat="42.8688662" lon="11.9713947"><ele>283.75</ele><time>2026-04-09T14:13:24.407Z</time></trkpt><trkpt lat="42.8688595" lon="11.9712046"><ele>284.5</ele><time>2026-04-09T14:13:25.401Z</time></trkpt><trkpt lat="42.8688576" lon="11.9710284"><ele>285.25</ele><time>2026-04-09T14:13:26.402Z</time></trkpt><trkpt lat="42.8688654" lon="11.9708561"><ele>286.0</ele><time>2026-04-09T14:13:27.4Z</time></trkpt><trkpt lat="42.8688505" lon="11.9706996"><ele>286.0</ele><time>2026-04-09T14:13:28.396Z</time></trkpt><trkpt lat="42.8688394" lon="11.9705555"><ele>286.0</ele><time>2026-04-09T14:13:29.406Z</time></trkpt><trkpt lat="42.8688258" lon="11.9704352"><ele>286.0</ele><time>2026-04-09T14:13:30.404Z</time></trkpt><trkpt lat="42.868821" lon="11.9703279"><ele>286.0</ele><time>2026-04-09T14:13:31.398Z</time></trkpt><trkpt lat="42.868817" lon="11.9702334"><ele>286.0</ele><time>2026-04-09T14:13:32.401Z</time></trkpt><trkpt lat="42.8688147" lon="11.9701289"><ele>286.0</ele><time>2026-04-09T14:13:33.402Z</time></trkpt><trkpt lat="42.8688123" lon="11.9700006"><ele>286.3333333333333</ele><time>2026-04-09T14:13:34.4Z</time></trkpt><trkpt lat="42.8688004" lon="11.969869"><ele>286.66666666666663</ele><time>2026-04-09T14:13:35.405Z</time></trkpt><trkpt lat="42.8687914" lon="11.969755"><ele>287.0</ele><time>2026-04-09T14:13:36.403Z</time></trkpt><trkpt lat="42.868788" lon="11.9696595"><ele>287.3333333333333</ele><time>2026-04-09T14:13:37.401Z</time></trkpt><trkpt lat="42.868783" lon="11.9695617"><ele>287.6666666666667</ele><time>2026-04-09T14:13:38.403Z</time></trkpt><trkpt lat="42.8687787" lon="11.9694224"><ele>288.0</ele><time>2026-04-09T14:13:39.395Z</time></trkpt><trkpt lat="42.8687689" lon="11.9692564"><ele>288.6666666666667</ele><time>2026-04-09T14:13:40.395Z</time></trkpt><trkpt lat="42.8687585" lon="11.9690713"><ele>289.33333333333337</ele><time>2026-04-09T14:13:41.404Z</time></trkpt><trkpt lat="42.8687524" lon="11.9688736"><ele>290.0</ele><time>2026-04-09T14:13:42.399Z</time></trkpt><trkpt lat="42.868738" lon="11.9686276"><ele>290.0</ele><time>2026-04-09T14:13:43.402Z</time></trkpt><trkpt lat="42.868726" lon="11.9684069"><ele>290.0</ele><time>2026-04-09T14:13:44.415Z</time></trkpt><trkpt lat="42.8687077" lon="11.96815"><ele>290.0</ele><time>2026-04-09T14:13:45.401Z</time></trkpt><trkpt lat="42.8686964" lon="11.9678788"><ele>290.0</ele><time>2026-04-09T14:13:46.408Z</time></trkpt><trkpt lat="42.8686831" lon="11.9676309"><ele>290.0</ele><time>2026-04-09T14:13:47.49Z</time></trkpt><trkpt lat="42.8686735" lon="11.9673659"><ele>290.0</ele><time>2026-04-09T14:13:48.407Z</time></trkpt><trkpt lat="42.8686472" lon="11.9671019"><ele>290.33333333333337</ele><time>2026-04-09T14:13:49.414Z</time></trkpt><trkpt lat="42.8686255" lon="11.9668542"><ele>290.6666666666667</ele><time>2026-04-09T14:13:50.415Z</time></trkpt><trkpt lat="42.8685989" lon="11.9666182"><ele>291.0</ele><time>2026-04-09T14:13:51.404Z</time></trkpt><trkpt lat="42.8685532" lon="11.9663856"><ele>291.3333333333333</ele><time>2026-04-09T14:13:52.408Z</time></trkpt><trkpt lat="42.8684971" lon="11.9661385"><ele>291.66666666666663</ele><time>2026-04-09T14:13:53.408Z</time></trkpt><trkpt lat="42.8684232" lon="11.965888"><ele>292.0</ele><time>2026-04-09T14:13:54.402Z</time></trkpt><trkpt lat="42.8683266" lon="11.9656453"><ele>293.3333333333333</ele><time>2026-04-09T14:13:55.407Z</time></trkpt><trkpt lat="42.8682271" lon="11.9654281"><ele>294.6666666666667</ele><time>2026-04-09T14:13:56.408Z</time></trkpt><trkpt lat="42.868089" lon="11.9652189"><ele>296.0</ele><time>2026-04-09T14:13:57.401Z</time></trkpt><trkpt lat="42.86793" lon="11.964995"><ele>297.5</ele><time>2026-04-09T14:13:58.411Z</time></trkpt><trkpt lat="42.8677579" lon="11.9647703"><ele>299.0</ele><time>2026-04-09T14:13:59.404Z</time></trkpt><trkpt lat="42.8675777" lon="11.9645124"><ele>299.0</ele><time>2026-04-09T14:14:00.404Z</time></trkpt><trkpt lat="42.8674277" lon="11.9642901"><ele>299.0</ele><time>2026-04-09T14:14:01.408Z</time></trkpt><trkpt lat="42.8672939" lon="11.9641065"><ele>299.0</ele><time>2026-04-09T14:14:02.407Z</time></trkpt><trkpt lat="42.8671708" lon="11.9639178"><ele>299.33333333333337</ele><time>2026-04-09T14:14:03.41Z</time></trkpt><trkpt lat="42.8670396" lon="11.9637468"><ele>299.6666666666667</ele><time>2026-04-09T14:14:04.405Z</time></trkpt><trkpt lat="42.8669051" lon="11.9636285"><ele>300.0</ele><time>2026-04-09T14:14:05.409Z</time></trkpt><trkpt lat="42.8667447" lon="11.9634756"><ele>301.6666666666667</ele><time>2026-04-09T14:14:06.413Z</time></trkpt><trkpt lat="42.8665898" lon="11.9633332"><ele>303.33333333333337</ele><time>2026-04-09T14:14:07.414Z</time></trkpt><trkpt lat="42.86645" lon="11.9631963"><ele>305.0</ele><time>2026-04-09T14:14:08.41Z</time></trkpt><trkpt lat="42.8663129" lon="11.9630787"><ele>305.0</ele><time>2026-04-09T14:14:09.415Z</time></trkpt><trkpt lat="42.8661824" lon="11.9629727"><ele>305.0</ele><time>2026-04-09T14:14:10.407Z</time></trkpt><trkpt lat="42.8660552" lon="11.9628785"><ele>305.0</ele><time>2026-04-09T14:14:11.403Z</time></trkpt><trkpt lat="42.8659426" lon="11.9628096"><ele>305.0</ele><time>2026-04-09T14:14:12.41Z</time></trkpt><trkpt lat="42.8658377" lon="11.96273"><ele>304.75</ele><time>2026-04-09T14:14:13.398Z</time></trkpt><trkpt lat="42.8657073" lon="11.962611"><ele>304.5</ele><time>2026-04-09T14:14:14.41Z</time></trkpt><trkpt lat="42.8656282" lon="11.9625528"><ele>304.25</ele><time>2026-04-09T14:14:15.407Z</time></trkpt><trkpt lat="42.865534" lon="11.9624525"><ele>304.0</ele><time>2026-04-09T14:14:16.407Z</time></trkpt><trkpt lat="42.8654556" lon="11.9623798"><ele>305.4</ele><time>2026-04-09T14:14:17.409Z</time></trkpt><trkpt lat="42.8653729" lon="11.962349"><ele>306.79999999999995</ele><time>2026-04-09T14:14:18.41Z</time></trkpt><trkpt lat="42.8652875" lon="11.9623224"><ele>308.20000000000005</ele><time>2026-04-09T14:14:19.403Z</time></trkpt><trkpt lat="42.865204" lon="11.9622356"><ele>309.6</ele><time>2026-04-09T14:14:20.41Z</time></trkpt><trkpt lat="42.8651184" lon="11.9621727"><ele>311.0</ele><time>2026-04-09T14:14:21.406Z</time></trkpt><trkpt lat="42.865034" lon="11.9621047"><ele>311.33333333333337</ele><time>2026-04-09T14:14:22.413Z</time></trkpt><trkpt lat="42.864937" lon="11.9620485"><ele>311.6666666666667</ele><time>2026-04-09T14:14:23.417Z</time></trkpt><trkpt lat="42.8648458" lon="11.9619789"><ele>312.0</ele><time>2026-04-09T14:14:24.412Z</time></trkpt><trkpt lat="42.8647807" lon="11.9619266"><ele>312.3333333333333</ele><time>2026-04-09T14:14:25.413Z</time></trkpt><trkpt lat="42.8647134" lon="11.9619112"><ele>312.66666666666663</ele><time>2026-04-09T14:14:43.41Z</time></trkpt><trkpt lat="42.8647674" lon="11.9619648"><ele>313.0</ele><time>2026-04-09T14:15:16.403Z</time></trkpt><trkpt lat="42.8648321" lon="11.9619896"><ele>313.0</ele><time>2026-04-09T14:15:27.392Z</time></trkpt><trkpt lat="42.8648934" lon="11.9619586"><ele>313.0</ele><time>2026-04-09T14:22:47.404Z</time></trkpt><trkpt lat="42.8648274" lon="11.9619511"><ele>313.0</ele><time>2026-04-09T14:25:11.408Z</time></trkpt><trkpt lat="42.8647006" lon="11.9619498"><ele>313.0</ele><time>2026-04-09T14:30:10.41Z</time></trkpt><trkpt lat="42.8646286" lon="11.9619294"><ele>313.0</ele><time>2026-04-09T14:30:11.408Z</time></trkpt><trkpt lat="42.8645595" lon="11.9619092"><ele>313.0</ele><time>2026-04-09T14:30:12.41Z</time></trkpt><trkpt lat="42.8644889" lon="11.9618833"><ele>313.0</ele><time>2026-04-09T14:30:13.406Z</time></trkpt><trkpt lat="42.8644135" lon="11.9618541"><ele>313.0</ele><time>2026-04-09T14:30:14.413Z</time></trkpt><trkpt lat="42.8643337" lon="11.9618201"><ele>313.0</ele><time>2026-04-09T14:30:15.407Z</time></trkpt><trkpt lat="42.864256" lon="11.96178"><ele>313.0</ele><time>2026-04-09T14:30:16.406Z</time></trkpt><trkpt lat="42.8641724" lon="11.9617376"><ele>313.0</ele><time>2026-04-09T14:30:17.402Z</time></trkpt><trkpt lat="42.8640809" lon="11.961686"><ele>313.0</ele><time>2026-04-09T14:30:18.402Z</time></trkpt><trkpt lat="42.863988" lon="11.96163"><ele>315.0</ele><time>2026-04-09T14:30:19.41Z</time></trkpt><trkpt lat="42.863897" lon="11.9615673"><ele>317.0</ele><time>2026-04-09T14:30:20.406Z</time></trkpt><trkpt lat="42.8638101" lon="11.9615162"><ele>319.0</ele><time>2026-04-09T14:30:21.4Z</time></trkpt><trkpt lat="42.8637396" lon="11.9614726"><ele>321.0</ele><time>2026-04-09T14:30:22.404Z</time></trkpt><trkpt lat="42.863677" lon="11.9614383"><ele>323.0</ele><time>2026-04-09T14:30:23.408Z</time></trkpt><trkpt lat="42.8636093" lon="11.9613981"><ele>325.0</ele><time>2026-04-09T14:30:24.404Z</time></trkpt><trkpt lat="42.8635352" lon="11.9613438"><ele>325.0</ele><time>2026-04-09T14:30:25.411Z</time></trkpt><trkpt lat="42.8634614" lon="11.9612865"><ele>325.0</ele><time>2026-04-09T14:30:26.414Z</time></trkpt><trkpt lat="42.8633926" lon="11.9612298"><ele>325.0</ele><time>2026-04-09T14:30:27.401Z</time></trkpt><trkpt lat="42.8633324" lon="11.9611637"><ele>325.0</ele><time>2026-04-09T14:30:28.415Z</time></trkpt><trkpt lat="42.8632684" lon="11.9611083"><ele>325.0</ele><time>2026-04-09T14:30:29.412Z</time></trkpt><trkpt lat="42.863203" lon="11.9610489"><ele>325.0</ele><time>2026-04-09T14:30:30.411Z</time></trkpt><trkpt lat="42.8631338" lon="11.9609791"><ele>324.5</ele><time>2026-04-09T14:30:31.41Z</time></trkpt><trkpt lat="42.863053" lon="11.9608944"><ele>324.0</ele><time>2026-04-09T14:30:32.41Z</time></trkpt><trkpt lat="42.8629674" lon="11.9607939"><ele>323.5</ele><time>2026-04-09T14:30:33.402Z</time></trkpt><trkpt lat="42.8628717" lon="11.9606779"><ele>323.0</ele><time>2026-04-09T14:30:34.411Z</time></trkpt><trkpt lat="42.862769" lon="11.9605471"><ele>324.0</ele><time>2026-04-09T14:30:35.402Z</time></trkpt><trkpt lat="42.8626697" lon="11.9603963"><ele>325.0</ele><time>2026-04-09T14:30:36.4Z</time></trkpt><trkpt lat="42.8625656" lon="11.960271"><ele>326.0</ele><time>2026-04-09T14:30:37.406Z</time></trkpt><trkpt lat="42.8624961" lon="11.9601089"><ele>327.0</ele><time>2026-04-09T14:30:38.41Z</time></trkpt><trkpt lat="42.8624508" lon="11.9599716"><ele>329.20000000000005</ele><time>2026-04-09T14:30:39.4Z</time></trkpt><trkpt lat="42.8623533" lon="11.9598918"><ele>331.4</ele><time>2026-04-09T14:30:40.399Z</time></trkpt><trkpt lat="42.8622515" lon="11.9597977"><ele>333.6</ele><time>2026-04-09T14:30:41.402Z</time></trkpt><trkpt lat="42.8621612" lon="11.9597185"><ele>335.79999999999995</ele><time>2026-04-09T14:30:42.398Z</time></trkpt><trkpt lat="42.8620709" lon="11.9596522"><ele>338.0</ele><time>2026-04-09T14:30:43.399Z</time></trkpt><trkpt lat="42.8619941" lon="11.959593"><ele>338.0</ele><time>2026-04-09T14:30:44.409Z</time></trkpt><trkpt lat="42.8619158" lon="11.9595226"><ele>338.0</ele><time>2026-04-09T14:30:45.401Z</time></trkpt><trkpt lat="42.8618402" lon="11.9594357"><ele>338.0</ele><time>2026-04-09T14:30:46.404Z</time></trkpt><trkpt lat="42.8617729" lon="11.959322"><ele>338.0</ele><time>2026-04-09T14:30:47.406Z</time></trkpt><trkpt lat="42.8617159" lon="11.9591819"><ele>338.0</ele><time>2026-04-09T14:30:48.406Z</time></trkpt><trkpt lat="42.8616496" lon="11.9590437"><ele>338.2</ele><time>2026-04-09T14:30:49.411Z</time></trkpt><trkpt lat="42.8615877" lon="11.9589126"><ele>338.4</ele><time>2026-04-09T14:30:50.408Z</time></trkpt><trkpt lat="42.8615244" lon="11.9587929"><ele>338.59999999999997</ele><time>2026-04-09T14:30:51.405Z</time></trkpt><trkpt lat="42.8614535" lon="11.9586792"><ele>338.79999999999995</ele><time>2026-04-09T14:30:52.411Z</time></trkpt><trkpt lat="42.8613738" lon="11.9585636"><ele>339.0</ele><time>2026-04-09T14:30:53.406Z</time></trkpt><trkpt lat="42.8612978" lon="11.9584658"><ele>339.0</ele><time>2026-04-09T14:30:54.41Z</time></trkpt><trkpt lat="42.8612156" lon="11.95837"><ele>339.0</ele><time>2026-04-09T14:30:55.41Z</time></trkpt><trkpt lat="42.8611507" lon="11.9583024"><ele>339.0</ele><time>2026-04-09T14:30:56.415Z</time></trkpt><trkpt lat="42.8610848" lon="11.9582484"><ele>339.0</ele><time>2026-04-09T14:30:57.411Z</time></trkpt><trkpt lat="42.8610054" lon="11.9581969"><ele>339.0</ele><time>2026-04-09T14:30:58.432Z</time></trkpt><trkpt lat="42.8609181" lon="11.9581551"><ele>339.0</ele><time>2026-04-09T14:30:59.41Z</time></trkpt><trkpt lat="42.8608336" lon="11.9581153"><ele>340.1666666666667</ele><time>2026-04-09T14:31:00.415Z</time></trkpt><trkpt lat="42.8607583" lon="11.9580826"><ele>341.3333333333333</ele><time>2026-04-09T14:31:01.415Z</time></trkpt><trkpt lat="42.8606891" lon="11.9580538"><ele>342.5</ele><time>2026-04-09T14:31:02.41Z</time></trkpt><trkpt lat="42.8606111" lon="11.9580303"><ele>343.66666666666663</ele><time>2026-04-09T14:31:03.415Z</time></trkpt><trkpt lat="42.8605205" lon="11.9580046"><ele>344.8333333333333</ele><time>2026-04-09T14:31:04.408Z</time></trkpt><trkpt lat="42.8604228" lon="11.9579712"><ele>346.0</ele><time>2026-04-09T14:31:05.407Z</time></trkpt><trkpt lat="42.860319" lon="11.9579333"><ele>346.0</ele><time>2026-04-09T14:31:06.409Z</time></trkpt><trkpt lat="42.8602113" lon="11.9578934"><ele>346.0</ele><time>2026-04-09T14:31:07.406Z</time></trkpt><trkpt lat="42.8601126" lon="11.957866"><ele>346.0</ele><time>2026-04-09T14:31:08.407Z</time></trkpt><trkpt lat="42.8600195" lon="11.9578386"><ele>346.0</ele><time>2026-04-09T14:31:09.418Z</time></trkpt><trkpt lat="42.8599268" lon="11.9578215"><ele>346.0</ele><time>2026-04-09T14:31:10.41Z</time></trkpt><trkpt lat="42.8598245" lon="11.9578078"><ele>348.0</ele><time>2026-04-09T14:31:11.412Z</time></trkpt><trkpt lat="42.8597129" lon="11.9577901"><ele>350.0</ele><time>2026-04-09T14:31:12.411Z</time></trkpt><trkpt lat="42.8595878" lon="11.9577682"><ele>352.0</ele><time>2026-04-09T14:31:13.408Z</time></trkpt><trkpt lat="42.8594576" lon="11.9577497"><ele>354.0</ele><time>2026-04-09T14:31:14.406Z</time></trkpt><trkpt lat="42.8593392" lon="11.9577356"><ele>355.5</ele><time>2026-04-09T14:31:15.411Z</time></trkpt><trkpt lat="42.8592244" lon="11.9577209"><ele>357.0</ele><time>2026-04-09T14:31:16.405Z</time></trkpt><trkpt lat="42.8591048" lon="11.9577025"><ele>358.5</ele><time>2026-04-09T14:31:17.4Z</time></trkpt><trkpt lat="42.858977" lon="11.9576806"><ele>360.0</ele><time>2026-04-09T14:31:18.415Z</time></trkpt><trkpt lat="42.8588553" lon="11.9576581"><ele>360.0</ele><time>2026-04-09T14:31:19.404Z</time></trkpt><trkpt lat="42.8587409" lon="11.9576364"><ele>360.0</ele><time>2026-04-09T14:31:20.402Z</time></trkpt><trkpt lat="42.8586318" lon="11.9576204"><ele>360.0</ele><time>2026-04-09T14:31:21.416Z</time></trkpt><trkpt lat="42.858518" lon="11.9576025"><ele>360.0</ele><time>2026-04-09T14:31:22.409Z</time></trkpt><trkpt lat="42.8584033" lon="11.9575759"><ele>360.8333333333333</ele><time>2026-04-09T14:31:23.408Z</time></trkpt><trkpt lat="42.8583074" lon="11.9575623"><ele>361.6666666666667</ele><time>2026-04-09T14:31:24.402Z</time></trkpt><trkpt lat="42.8582259" lon="11.9575289"><ele>362.5</ele><time>2026-04-09T14:31:25.414Z</time></trkpt><trkpt lat="42.8581521" lon="11.9575079"><ele>363.33333333333337</ele><time>2026-04-09T14:31:26.404Z</time></trkpt><trkpt lat="42.8580637" lon="11.9574755"><ele>364.1666666666667</ele><time>2026-04-09T14:31:27.407Z</time></trkpt><trkpt lat="42.8579752" lon="11.9574606"><ele>365.0</ele><time>2026-04-09T14:31:28.397Z</time></trkpt><trkpt lat="42.8578884" lon="11.9574498"><ele>363.6</ele><time>2026-04-09T14:31:29.409Z</time></trkpt><trkpt lat="42.8577982" lon="11.9574466"><ele>362.2</ele><time>2026-04-09T14:31:30.411Z</time></trkpt><trkpt lat="42.8577088" lon="11.9574613"><ele>360.79999999999995</ele><time>2026-04-09T14:31:31.399Z</time></trkpt><trkpt lat="42.8576027" lon="11.957463"><ele>359.4</ele><time>2026-04-09T14:31:32.429Z</time></trkpt><trkpt lat="42.8575047" lon="11.9574665"><ele>358.0</ele><time>2026-04-09T14:31:33.431Z</time></trkpt><trkpt lat="42.8574187" lon="11.9574718"><ele>358.0</ele><time>2026-04-09T14:31:34.4Z</time></trkpt><trkpt lat="42.8573133" lon="11.9575116"><ele>358.0</ele><time>2026-04-09T14:31:36.413Z</time></trkpt><trkpt lat="42.8572115" lon="11.9575874"><ele>358.0</ele><time>2026-04-09T14:31:38.405Z</time></trkpt><trkpt lat="42.8571549" lon="11.9576421"><ele>358.0</ele><time>2026-04-09T14:31:39.4Z</time></trkpt><trkpt lat="42.8570852" lon="11.9577031"><ele>358.0</ele><time>2026-04-09T14:31:40.404Z</time></trkpt><trkpt lat="42.8570139" lon="11.9577718"><ele>359.59999999999997</ele><time>2026-04-09T14:31:41.403Z</time></trkpt><trkpt lat="42.856937" lon="11.9578396"><ele>361.2</ele><time>2026-04-09T14:31:42.4Z</time></trkpt><trkpt lat="42.856857" lon="11.9579078"><ele>362.8</ele><time>2026-04-09T14:31:43.396Z</time></trkpt><trkpt lat="42.8567662" lon="11.957972"><ele>364.4</ele><time>2026-04-09T14:31:44.411Z</time></trkpt><trkpt lat="42.8566659" lon="11.958042"><ele>366.0</ele><time>2026-04-09T14:31:45.405Z</time></trkpt><trkpt lat="42.8565573" lon="11.9580999"><ele>366.0</ele><time>2026-04-09T14:31:46.407Z</time></trkpt><trkpt lat="42.8564544" lon="11.9581466"><ele>366.0</ele><time>2026-04-09T14:31:47.41Z</time></trkpt><trkpt lat="42.8563676" lon="11.9581945"><ele>366.0</ele><time>2026-04-09T14:31:48.402Z</time></trkpt><trkpt lat="42.8562774" lon="11.9582375"><ele>366.0</ele><time>2026-04-09T14:31:49.399Z</time></trkpt><trkpt lat="42.8561966" lon="11.9582763"><ele>366.0</ele><time>2026-04-09T14:31:50.405Z</time></trkpt><trkpt lat="42.85613" lon="11.9582979"><ele>366.0</ele><time>2026-04-09T14:31:51.4Z</time></trkpt><trkpt lat="42.8560637" lon="11.9583138"><ele>366.0</ele><time>2026-04-09T14:31:52.405Z</time></trkpt><trkpt lat="42.8559445" lon="11.958361"><ele>366.0</ele><time>2026-04-09T14:31:54.402Z</time></trkpt><trkpt lat="42.855876" lon="11.9583588"><ele>366.0</ele><time>2026-04-09T14:31:55.411Z</time></trkpt><trkpt lat="42.8557489" lon="11.9583502"><ele>366.0</ele><time>2026-04-09T14:31:57.408Z</time></trkpt><trkpt lat="42.8556849" lon="11.9582936"><ele>365.5</ele><time>2026-04-09T14:31:58.399Z</time></trkpt><trkpt lat="42.8556266" lon="11.9582392"><ele>365.0</ele><time>2026-04-09T14:31:59.396Z</time></trkpt><trkpt lat="42.8555661" lon="11.958141"><ele>364.5</ele><time>2026-04-09T14:32:00.41Z</time></trkpt><trkpt lat="42.8555323" lon="11.9580344"><ele>364.0</ele><time>2026-04-09T14:32:01.41Z</time></trkpt><trkpt lat="42.8555062" lon="11.9579477"><ele>363.5</ele><time>2026-04-09T14:32:02.398Z</time></trkpt><trkpt lat="42.8554803" lon="11.9578583"><ele>363.0</ele><time>2026-04-09T14:32:03.414Z</time></trkpt><trkpt lat="42.8554518" lon="11.9577667"><ele>363.0</ele><time>2026-04-09T14:32:04.396Z</time></trkpt><trkpt lat="42.8553579" lon="11.9576792"><ele>363.0</ele><time>2026-04-09T14:32:06.405Z</time></trkpt><trkpt lat="42.8552279" lon="11.9576496"><ele>363.0</ele><time>2026-04-09T14:32:08.402Z</time></trkpt><trkpt lat="42.8551568" lon="11.9576549"><ele>363.0</ele><time>2026-04-09T14:32:09.406Z</time></trkpt><trkpt lat="42.8550806" lon="11.9576705"><ele>363.0</ele><time>2026-04-09T14:32:10.413Z</time></trkpt><trkpt lat="42.8549939" lon="11.9576987"><ele>364.79999999999995</ele><time>2026-04-09T14:32:11.401Z</time></trkpt><trkpt lat="42.8548949" lon="11.9577288"><ele>366.6</ele><time>2026-04-09T14:32:12.406Z</time></trkpt><trkpt lat="42.8547893" lon="11.9577549"><ele>368.4</ele><time>2026-04-09T14:32:13.407Z</time></trkpt><trkpt lat="42.8546827" lon="11.9577884"><ele>370.20000000000005</ele><time>2026-04-09T14:32:14.403Z</time></trkpt><trkpt lat="42.854586" lon="11.957823"><ele>372.0</ele><time>2026-04-09T14:32:15.404Z</time></trkpt><trkpt lat="42.8544847" lon="11.9578513"><ele>372.0</ele><time>2026-04-09T14:32:16.411Z</time></trkpt><trkpt lat="42.85438" lon="11.9578792"><ele>372.0</ele><time>2026-04-09T14:32:17.404Z</time></trkpt><trkpt lat="42.8542875" lon="11.9579057"><ele>372.0</ele><time>2026-04-09T14:32:18.402Z</time></trkpt><trkpt lat="42.8541977" lon="11.9579426"><ele>372.0</ele><time>2026-04-09T14:32:19.417Z</time></trkpt><trkpt lat="42.8541098" lon="11.957975"><ele>372.0</ele><time>2026-04-09T14:32:20.407Z</time></trkpt><trkpt lat="42.8540163" lon="11.9579966"><ele>372.5</ele><time>2026-04-09T14:32:21.411Z</time></trkpt><trkpt lat="42.8539349" lon="11.958007"><ele>373.0</ele><time>2026-04-09T14:32:22.408Z</time></trkpt><trkpt lat="42.8538678" lon="11.9580073"><ele>373.5</ele><time>2026-04-09T14:32:23.404Z</time></trkpt><trkpt lat="42.8538021" lon="11.9579926"><ele>374.0</ele><time>2026-04-09T14:32:24.401Z</time></trkpt><trkpt lat="42.8537351" lon="11.9579638"><ele>374.5</ele><time>2026-04-09T14:32:25.413Z</time></trkpt><trkpt lat="42.853667" lon="11.9579164"><ele>375.0</ele><time>2026-04-09T14:32:26.405Z</time></trkpt><trkpt lat="42.8535949" lon="11.9578454"><ele>375.0</ele><time>2026-04-09T14:32:27.408Z</time></trkpt><trkpt lat="42.8535335" lon="11.9577525"><ele>375.0</ele><time>2026-04-09T14:32:28.411Z</time></trkpt><trkpt lat="42.8534776" lon="11.9576479"><ele>375.0</ele><time>2026-04-09T14:32:29.402Z</time></trkpt><trkpt lat="42.8534269" lon="11.9575282"><ele>375.0</ele><time>2026-04-09T14:32:30.407Z</time></trkpt><trkpt lat="42.8533789" lon="11.9573972"><ele>375.0</ele><time>2026-04-09T14:32:31.408Z</time></trkpt><trkpt lat="42.8533408" lon="11.9572465"><ele>376.2</ele><time>2026-04-09T14:32:32.401Z</time></trkpt><trkpt lat="42.8533109" lon="11.9570959"><ele>377.4</ele><time>2026-04-09T14:32:33.414Z</time></trkpt><trkpt lat="42.8532872" lon="11.9569634"><ele>378.6</ele><time>2026-04-09T14:32:34.405Z</time></trkpt><trkpt lat="42.8532696" lon="11.9568315"><ele>379.8</ele><time>2026-04-09T14:32:35.397Z</time></trkpt><trkpt lat="42.853239" lon="11.9566954"><ele>381.0</ele><time>2026-04-09T14:32:36.416Z</time></trkpt><trkpt lat="42.8532147" lon="11.9565479"><ele>381.0</ele><time>2026-04-09T14:32:37.413Z</time></trkpt><trkpt lat="42.8531868" lon="11.9563771"><ele>381.0</ele><time>2026-04-09T14:32:38.408Z</time></trkpt><trkpt lat="42.8531639" lon="11.9561998"><ele>381.0</ele><time>2026-04-09T14:32:39.41Z</time></trkpt><trkpt lat="42.8531462" lon="11.9560224"><ele>381.0</ele><time>2026-04-09T14:32:40.406Z</time></trkpt><trkpt lat="42.8531242" lon="11.9558353"><ele>381.0</ele><time>2026-04-09T14:32:41.408Z</time></trkpt><trkpt lat="42.8530938" lon="11.9556601"><ele>381.0</ele><time>2026-04-09T14:32:42.416Z</time></trkpt><trkpt lat="42.8530507" lon="11.9554752"><ele>381.0</ele><time>2026-04-09T14:32:43.409Z</time></trkpt><trkpt lat="42.853022" lon="11.9553334"><ele>381.0</ele><time>2026-04-09T14:32:44.416Z</time></trkpt><trkpt lat="42.8530243" lon="11.9551984"><ele>381.0</ele><time>2026-04-09T14:32:45.437Z</time></trkpt><trkpt lat="42.8530114" lon="11.9550644"><ele>381.0</ele><time>2026-04-09T14:32:46.414Z</time></trkpt><trkpt lat="42.85294" lon="11.954943"><ele>381.0</ele><time>2026-04-09T14:32:47.413Z</time></trkpt><trkpt lat="42.8528905" lon="11.9548246"><ele>381.0</ele><time>2026-04-09T14:32:48.414Z</time></trkpt><trkpt lat="42.852846" lon="11.9547209"><ele>381.0</ele><time>2026-04-09T14:32:49.405Z</time></trkpt><trkpt lat="42.8527897" lon="11.9546239"><ele>381.4</ele><time>2026-04-09T14:32:50.412Z</time></trkpt><trkpt lat="42.8527245" lon="11.9545286"><ele>381.8</ele><time>2026-04-09T14:32:51.411Z</time></trkpt><trkpt lat="42.8526594" lon="11.9544304"><ele>382.2</ele><time>2026-04-09T14:32:52.408Z</time></trkpt><trkpt lat="42.8526035" lon="11.9543386"><ele>382.59999999999997</ele><time>2026-04-09T14:32:53.406Z</time></trkpt><trkpt lat="42.8525471" lon="11.9542359"><ele>383.0</ele><time>2026-04-09T14:32:54.408Z</time></trkpt><trkpt lat="42.8524921" lon="11.9541242"><ele>384.33333333333337</ele><time>2026-04-09T14:32:55.412Z</time></trkpt><trkpt lat="42.852434" lon="11.9540178"><ele>385.6666666666667</ele><time>2026-04-09T14:32:56.408Z</time></trkpt><trkpt lat="42.8523913" lon="11.9539344"><ele>387.0</ele><time>2026-04-09T14:32:57.405Z</time></trkpt><trkpt lat="42.8523509" lon="11.9538587"><ele>388.33333333333337</ele><time>2026-04-09T14:32:58.405Z</time></trkpt><trkpt lat="42.852303" lon="11.9537893"><ele>389.6666666666667</ele><time>2026-04-09T14:32:59.402Z</time></trkpt><trkpt lat="42.8521945" lon="11.953696"><ele>391.0</ele><time>2026-04-09T14:33:01.401Z</time></trkpt><trkpt lat="42.8521195" lon="11.9536654"><ele>391.0</ele><time>2026-04-09T14:33:02.398Z</time></trkpt><trkpt lat="42.8520505" lon="11.9536574"><ele>391.0</ele><time>2026-04-09T14:33:03.414Z</time></trkpt><trkpt lat="42.8519573" lon="11.9536851"><ele>391.0</ele><time>2026-04-09T14:33:04.405Z</time></trkpt><trkpt lat="42.8518635" lon="11.9537311"><ele>391.0</ele><time>2026-04-09T14:33:05.404Z</time></trkpt><trkpt lat="42.8517583" lon="11.9537845"><ele>391.0</ele><time>2026-04-09T14:33:06.408Z</time></trkpt><trkpt lat="42.8516549" lon="11.9538236"><ele>392.33333333333337</ele><time>2026-04-09T14:33:07.411Z</time></trkpt><trkpt lat="42.8515644" lon="11.953856"><ele>393.6666666666667</ele><time>2026-04-09T14:33:08.412Z</time></trkpt><trkpt lat="42.8514865" lon="11.9539029"><ele>395.0</ele><time>2026-04-09T14:33:09.4Z</time></trkpt><trkpt lat="42.851404" lon="11.953952"><ele>396.33333333333337</ele><time>2026-04-09T14:33:10.402Z</time></trkpt><trkpt lat="42.8513377" lon="11.9540246"><ele>397.6666666666667</ele><time>2026-04-09T14:33:11.403Z</time></trkpt><trkpt lat="42.8512857" lon="11.9541094"><ele>399.0</ele><time>2026-04-09T14:33:12.403Z</time></trkpt><trkpt lat="42.8512368" lon="11.9542054"><ele>399.0</ele><time>2026-04-09T14:33:13.402Z</time></trkpt><trkpt lat="42.8512067" lon="11.9543434"><ele>399.0</ele><time>2026-04-09T14:33:14.407Z</time></trkpt><trkpt lat="42.8511928" lon="11.9544745"><ele>399.0</ele><time>2026-04-09T14:33:15.397Z</time></trkpt><trkpt lat="42.8511563" lon="11.9546018"><ele>399.0</ele><time>2026-04-09T14:33:16.422Z</time></trkpt><trkpt lat="42.8511323" lon="11.9547441"><ele>399.0</ele><time>2026-04-09T14:33:17.405Z</time></trkpt><trkpt lat="42.8510877" lon="11.9548693"><ele>399.0</ele><time>2026-04-09T14:33:18.409Z</time></trkpt><trkpt lat="42.8510451" lon="11.9549787"><ele>399.0</ele><time>2026-04-09T14:33:19.405Z</time></trkpt><trkpt lat="42.8510004" lon="11.9550717"><ele>399.0</ele><time>2026-04-09T14:33:20.402Z</time></trkpt><trkpt lat="42.8509459" lon="11.9551656"><ele>399.0</ele><time>2026-04-09T14:33:21.405Z</time></trkpt><trkpt lat="42.8508839" lon="11.9552252"><ele>399.0</ele><time>2026-04-09T14:33:22.409Z</time></trkpt><trkpt lat="42.8508142" lon="11.9552547"><ele>399.0</ele><time>2026-04-09T14:33:23.409Z</time></trkpt><trkpt lat="42.8507389" lon="11.9552697"><ele>400.79999999999995</ele><time>2026-04-09T14:33:24.413Z</time></trkpt><trkpt lat="42.8506718" lon="11.9552619"><ele>402.59999999999997</ele><time>2026-04-09T14:33:25.41Z</time></trkpt><trkpt lat="42.8505757" lon="11.9552224"><ele>404.4</ele><time>2026-04-09T14:33:27.409Z</time></trkpt><trkpt lat="42.8504456" lon="11.9550833"><ele>406.2</ele><time>2026-04-09T14:33:29.409Z</time></trkpt><trkpt lat="42.8503756" lon="11.954964"><ele>408.0</ele><time>2026-04-09T14:33:30.409Z</time></trkpt><trkpt lat="42.8503399" lon="11.9548202"><ele>408.5</ele><time>2026-04-09T14:33:31.41Z</time></trkpt><trkpt lat="42.8503324" lon="11.9546646"><ele>409.0</ele><time>2026-04-09T14:33:32.397Z</time></trkpt><trkpt lat="42.8503684" lon="11.9544902"><ele>409.5</ele><time>2026-04-09T14:33:33.404Z</time></trkpt><trkpt lat="42.850402" lon="11.9543251"><ele>410.0</ele><time>2026-04-09T14:33:34.406Z</time></trkpt><trkpt lat="42.8504065" lon="11.9541619"><ele>410.4</ele><time>2026-04-09T14:33:35.409Z</time></trkpt><trkpt lat="42.8503818" lon="11.9540138"><ele>410.8</ele><time>2026-04-09T14:33:36.411Z</time></trkpt><trkpt lat="42.8503257" lon="11.9539001"><ele>411.20000000000005</ele><time>2026-04-09T14:33:37.409Z</time></trkpt><trkpt lat="42.850243" lon="11.9538002"><ele>411.6</ele><time>2026-04-09T14:33:38.402Z</time></trkpt><trkpt lat="42.8501434" lon="11.9537199"><ele>412.0</ele><time>2026-04-09T14:33:39.411Z</time></trkpt><trkpt lat="42.8500374" lon="11.9536538"><ele>413.75</ele><time>2026-04-09T14:33:40.404Z</time></trkpt><trkpt lat="42.8499268" lon="11.9535751"><ele>415.5</ele><time>2026-04-09T14:33:41.407Z</time></trkpt><trkpt lat="42.8498288" lon="11.9534548"><ele>417.25</ele><time>2026-04-09T14:33:42.404Z</time></trkpt><trkpt lat="42.8497494" lon="11.9533256"><ele>419.0</ele><time>2026-04-09T14:33:43.409Z</time></trkpt><trkpt lat="42.8496985" lon="11.9531674"><ele>420.3333333333333</ele><time>2026-04-09T14:33:44.402Z</time></trkpt><trkpt lat="42.8496724" lon="11.953031"><ele>421.66666666666663</ele><time>2026-04-09T14:33:45.401Z</time></trkpt><trkpt lat="42.8496552" lon="11.9529162"><ele>423.0</ele><time>2026-04-09T14:33:46.405Z</time></trkpt><trkpt lat="42.8496339" lon="11.9528325"><ele>424.33333333333337</ele><time>2026-04-09T14:33:47.4Z</time></trkpt><trkpt lat="42.8496274" lon="11.9527376"><ele>425.6666666666667</ele><time>2026-04-09T14:33:49.406Z</time></trkpt><trkpt lat="42.8496713" lon="11.9528685"><ele>427.0</ele><time>2026-04-09T14:33:54.409Z</time></trkpt><trkpt lat="42.8497079" lon="11.9529556"><ele>427.0</ele><time>2026-04-09T14:33:55.403Z</time></trkpt><trkpt lat="42.8497474" lon="11.9530704"><ele>427.00000000000006</ele><time>2026-04-09T14:33:56.413Z</time></trkpt><trkpt lat="42.8497856" lon="11.9531928"><ele>427.00000000000006</ele><time>2026-04-09T14:33:57.435Z</time></trkpt><trkpt lat="42.8498209" lon="11.9533055"><ele>427.0</ele><time>2026-04-09T14:33:58.41Z</time></trkpt><trkpt lat="42.8498686" lon="11.9534069"><ele>427.0</ele><time>2026-04-09T14:33:59.428Z</time></trkpt><trkpt lat="42.8499292" lon="11.953517"><ele>425.40000000000003</ele><time>2026-04-09T14:34:00.431Z</time></trkpt><trkpt lat="42.8500075" lon="11.953604"><ele>423.80000000000007</ele><time>2026-04-09T14:34:01.428Z</time></trkpt><trkpt lat="42.8500816" lon="11.953676"><ele>422.2</ele><time>2026-04-09T14:34:02.406Z</time></trkpt><trkpt lat="42.850173" lon="11.953737"><ele>420.6</ele><time>2026-04-09T14:34:03.403Z</time></trkpt><trkpt lat="42.8502705" lon="11.9537974"><ele>419.0</ele><time>2026-04-09T14:34:04.407Z</time></trkpt><trkpt lat="42.8503404" lon="11.9538782"><ele>417.8333333333333</ele><time>2026-04-09T14:34:05.41Z</time></trkpt><trkpt lat="42.8503905" lon="11.9539699"><ele>416.66666666666663</ele><time>2026-04-09T14:34:06.406Z</time></trkpt><trkpt lat="42.8504274" lon="11.9540638"><ele>415.5</ele><time>2026-04-09T14:34:07.424Z</time></trkpt><trkpt lat="42.8504468" lon="11.9541594"><ele>414.33333333333337</ele><time>2026-04-09T14:34:08.438Z</time></trkpt><trkpt lat="42.8504524" lon="11.9542519"><ele>413.1666666666667</ele><time>2026-04-09T14:34:09.406Z</time></trkpt><trkpt lat="42.8504361" lon="11.954353"><ele>412.0</ele><time>2026-04-09T14:34:10.404Z</time></trkpt><trkpt lat="42.8504205" lon="11.9544655"><ele>411.6666666666667</ele><time>2026-04-09T14:34:11.406Z</time></trkpt><trkpt lat="42.8504056" lon="11.9545895"><ele>411.33333333333337</ele><time>2026-04-09T14:34:12.428Z</time></trkpt><trkpt lat="42.850393" lon="11.9546989"><ele>411.0</ele><time>2026-04-09T14:34:13.4Z</time></trkpt><trkpt lat="42.8503771" lon="11.9548059"><ele>410.66666666666663</ele><time>2026-04-09T14:34:14.406Z</time></trkpt><trkpt lat="42.8503822" lon="11.9548972"><ele>410.3333333333333</ele><time>2026-04-09T14:34:15.406Z</time></trkpt><trkpt lat="42.8504068" lon="11.9549918"><ele>410.0</ele><time>2026-04-09T14:34:16.434Z</time></trkpt><trkpt lat="42.8504446" lon="11.9550787"><ele>409.66666666666663</ele><time>2026-04-09T14:34:17.432Z</time></trkpt><trkpt lat="42.8504944" lon="11.9551388"><ele>409.3333333333333</ele><time>2026-04-09T14:34:18.409Z</time></trkpt><trkpt lat="42.850561" lon="11.9552313"><ele>409.0</ele><time>2026-04-09T14:34:20.402Z</time></trkpt><trkpt lat="42.8505499" lon="11.9553233"><ele>408.66666666666663</ele><time>2026-04-09T14:34:23.429Z</time></trkpt><trkpt lat="42.8504867" lon="11.9553074"><ele>408.3333333333333</ele><time>2026-04-09T14:34:25.408Z</time></trkpt><trkpt lat="42.8503705" lon="11.9551943"><ele>408.0</ele><time>2026-04-09T14:34:27.403Z</time></trkpt><trkpt lat="42.8503004" lon="11.9551292"><ele>408.0</ele><time>2026-04-09T14:34:28.41Z</time></trkpt><trkpt lat="42.8502323" lon="11.9550707"><ele>408.0</ele><time>2026-04-09T14:34:29.404Z</time></trkpt><trkpt lat="42.8501649" lon="11.9550375"><ele>408.0</ele><time>2026-04-09T14:34:30.402Z</time></trkpt><trkpt lat="42.8500958" lon="11.9550211"><ele>408.0</ele><time>2026-04-09T14:34:31.404Z</time></trkpt><trkpt lat="42.8500054" lon="11.9550141"><ele>408.0</ele><time>2026-04-09T14:34:32.407Z</time></trkpt><trkpt lat="42.8499103" lon="11.955015"><ele>408.0</ele><time>2026-04-09T14:34:33.402Z</time></trkpt><trkpt lat="42.8498232" lon="11.9550217"><ele>408.14285714285717</ele><time>2026-04-09T14:34:34.4Z</time></trkpt><trkpt lat="42.8497499" lon="11.9550297"><ele>408.28571428571433</ele><time>2026-04-09T14:34:35.403Z</time></trkpt><trkpt lat="42.8496808" lon="11.9550409"><ele>408.42857142857144</ele><time>2026-04-09T14:34:36.394Z</time></trkpt><trkpt lat="42.8496088" lon="11.9550449"><ele>408.57142857142856</ele><time>2026-04-09T14:34:37.399Z</time></trkpt><trkpt lat="42.8495371" lon="11.9550396"><ele>408.7142857142857</ele><time>2026-04-09T14:34:38.401Z</time></trkpt><trkpt lat="42.8494683" lon="11.9550389"><ele>408.85714285714283</ele><time>2026-04-09T14:34:39.397Z</time></trkpt><trkpt lat="42.8493962" lon="11.9550333"><ele>409.0</ele><time>2026-04-09T14:34:40.402Z</time></trkpt><trkpt lat="42.8493161" lon="11.9550378"><ele>405.79999999999995</ele><time>2026-04-09T14:34:41.398Z</time></trkpt><trkpt lat="42.8492271" lon="11.9550432"><ele>402.59999999999997</ele><time>2026-04-09T14:34:42.399Z</time></trkpt><trkpt lat="42.8491331" lon="11.9550512"><ele>399.4</ele><time>2026-04-09T14:34:43.401Z</time></trkpt><trkpt lat="42.8490361" lon="11.9550497"><ele>396.2</ele><time>2026-04-09T14:34:44.402Z</time></trkpt><trkpt lat="42.8489402" lon="11.9550675"><ele>393.0</ele><time>2026-04-09T14:34:45.409Z</time></trkpt><trkpt lat="42.8488439" lon="11.9550632"><ele>393.0</ele><time>2026-04-09T14:34:46.399Z</time></trkpt><trkpt lat="42.8487555" lon="11.9550767"><ele>393.0</ele><time>2026-04-09T14:34:47.401Z</time></trkpt><trkpt lat="42.848672" lon="11.9550894"><ele>393.0</ele><time>2026-04-09T14:34:48.403Z</time></trkpt><trkpt lat="42.8486012" lon="11.9550956"><ele>393.0</ele><time>2026-04-09T14:34:49.398Z</time></trkpt><trkpt lat="42.8485186" lon="11.9551906"><ele>393.0</ele><time>2026-04-09T14:34:51.391Z</time></trkpt><trkpt lat="42.8484903" lon="11.9552818"><ele>393.0</ele><time>2026-04-09T14:34:53.39Z</time></trkpt><trkpt lat="42.8484624" lon="11.9553699"><ele>394.79999999999995</ele><time>2026-04-09T14:34:56.399Z</time></trkpt><trkpt lat="42.8484496" lon="11.9555121"><ele>396.6</ele><time>2026-04-09T14:34:58.4Z</time></trkpt><trkpt lat="42.8484498" lon="11.9556009"><ele>398.4</ele><time>2026-04-09T14:34:59.404Z</time></trkpt><trkpt lat="42.8484194" lon="11.955724"><ele>400.20000000000005</ele><time>2026-04-09T14:35:01.399Z</time></trkpt><trkpt lat="42.8483103" lon="11.9558099"><ele>402.0</ele><time>2026-04-09T14:35:03.404Z</time></trkpt><trkpt lat="42.8482204" lon="11.9558141"><ele>402.0</ele><time>2026-04-09T14:35:04.404Z</time></trkpt><trkpt lat="42.8481198" lon="11.9558213"><ele>402.0</ele><time>2026-04-09T14:35:05.402Z</time></trkpt><trkpt lat="42.848017" lon="11.9558428"><ele>402.0</ele><time>2026-04-09T14:35:06.399Z</time></trkpt><trkpt lat="42.8479123" lon="11.9558718"><ele>402.0</ele><time>2026-04-09T14:35:07.392Z</time></trkpt><trkpt lat="42.8478143" lon="11.955909"><ele>402.0</ele><time>2026-04-09T14:35:08.396Z</time></trkpt><trkpt lat="42.8477304" lon="11.9559609"><ele>401.8333333333333</ele><time>2026-04-09T14:35:09.404Z</time></trkpt><trkpt lat="42.8476709" lon="11.956022"><ele>401.66666666666663</ele><time>2026-04-09T14:35:10.395Z</time></trkpt><trkpt lat="42.8476341" lon="11.9560928"><ele>401.5</ele><time>2026-04-09T14:35:11.403Z</time></trkpt><trkpt lat="42.8476073" lon="11.9562491"><ele>401.3333333333333</ele><time>2026-04-09T14:35:13.401Z</time></trkpt><trkpt lat="42.8476077" lon="11.9563383"><ele>401.16666666666663</ele><time>2026-04-09T14:35:14.404Z</time></trkpt><trkpt lat="42.8476204" lon="11.9564282"><ele>401.0</ele><time>2026-04-09T14:35:15.409Z</time></trkpt><trkpt lat="42.8476076" lon="11.9565876"><ele>403.75</ele><time>2026-04-09T14:35:17.42Z</time></trkpt><trkpt lat="42.8475401" lon="11.9567479"><ele>406.5</ele><time>2026-04-09T14:35:19.416Z</time></trkpt><trkpt lat="42.8474783" lon="11.956828"><ele>409.25</ele><time>2026-04-09T14:35:20.394Z</time></trkpt><trkpt lat="42.8473929" lon="11.9569348"><ele>412.0</ele><time>2026-04-09T14:35:21.401Z</time></trkpt><trkpt lat="42.8472865" lon="11.9570296"><ele>412.0</ele><time>2026-04-09T14:35:22.402Z</time></trkpt><trkpt lat="42.8471487" lon="11.9571074"><ele>412.0</ele><time>2026-04-09T14:35:23.406Z</time></trkpt><trkpt lat="42.8470089" lon="11.9571785"><ele>412.0</ele><time>2026-04-09T14:35:24.425Z</time></trkpt><trkpt lat="42.8468611" lon="11.9572362"><ele>413.25</ele><time>2026-04-09T14:35:25.424Z</time></trkpt><trkpt lat="42.846726" lon="11.957288"><ele>414.5</ele><time>2026-04-09T14:35:26.401Z</time></trkpt><trkpt lat="42.8466128" lon="11.9573155"><ele>415.75</ele><time>2026-04-09T14:35:27.402Z</time></trkpt><trkpt lat="42.8464975" lon="11.9573205"><ele>417.0</ele><time>2026-04-09T14:35:28.404Z</time></trkpt><trkpt lat="42.8463947" lon="11.9573006"><ele>417.0</ele><time>2026-04-09T14:35:29.408Z</time></trkpt><trkpt lat="42.8463006" lon="11.9572328"><ele>417.0</ele><time>2026-04-09T14:35:30.4Z</time></trkpt><trkpt lat="42.8462153" lon="11.9571349"><ele>417.0</ele><time>2026-04-09T14:35:31.4Z</time></trkpt><trkpt lat="42.846125" lon="11.9570194"><ele>417.0</ele><time>2026-04-09T14:35:32.405Z</time></trkpt><trkpt lat="42.8460239" lon="11.9569169"><ele>416.5</ele><time>2026-04-09T14:35:33.403Z</time></trkpt><trkpt lat="42.8459207" lon="11.9568262"><ele>416.0</ele><time>2026-04-09T14:35:34.409Z</time></trkpt><trkpt lat="42.845799" lon="11.9567239"><ele>415.5</ele><time>2026-04-09T14:35:35.404Z</time></trkpt><trkpt lat="42.8456752" lon="11.9566201"><ele>415.0</ele><time>2026-04-09T14:35:36.405Z</time></trkpt><trkpt lat="42.8455527" lon="11.9564739"><ele>419.0</ele><time>2026-04-09T14:35:37.405Z</time></trkpt><trkpt lat="42.8454268" lon="11.9563559"><ele>423.0</ele><time>2026-04-09T14:35:38.401Z</time></trkpt><trkpt lat="42.8452927" lon="11.9562667"><ele>427.0</ele><time>2026-04-09T14:35:39.399Z</time></trkpt><trkpt lat="42.8452252" lon="11.9562267"><ele>431.0</ele><time>2026-04-09T14:35:40.403Z</time></trkpt><trkpt lat="42.8451105" lon="11.9562165"><ele>433.0</ele><time>2026-04-09T14:35:41.411Z</time></trkpt><trkpt lat="42.8450422" lon="11.9562168"><ele>435.0</ele><time>2026-04-09T14:35:42.408Z</time></trkpt><trkpt lat="42.8449556" lon="11.956218"><ele>437.0</ele><time>2026-04-09T14:35:43.407Z</time></trkpt><trkpt lat="42.8448485" lon="11.9562007"><ele>439.0</ele><time>2026-04-09T14:35:44.433Z</time></trkpt><trkpt lat="42.8447455" lon="11.9561773"><ele>441.0</ele><time>2026-04-09T14:35:45.422Z</time></trkpt><trkpt lat="42.8446402" lon="11.9561429"><ele>441.0</ele><time>2026-04-09T14:35:46.404Z</time></trkpt><trkpt lat="42.8445609" lon="11.9560841"><ele>441.0</ele><time>2026-04-09T14:35:47.407Z</time></trkpt><trkpt lat="42.844474" lon="11.9560177"><ele>441.0</ele><time>2026-04-09T14:35:48.399Z</time></trkpt><trkpt lat="42.8444044" lon="11.9559742"><ele>441.0</ele><time>2026-04-09T14:35:49.401Z</time></trkpt><trkpt lat="42.8443653" lon="11.955854"><ele>441.0</ele><time>2026-04-09T14:35:51.403Z</time></trkpt><trkpt lat="42.8444149" lon="11.9557511"><ele>444.25</ele><time>2026-04-09T14:35:52.407Z</time></trkpt><trkpt lat="42.8444852" lon="11.9556193"><ele>447.5</ele><time>2026-04-09T14:35:53.402Z</time></trkpt><trkpt lat="42.8445505" lon="11.9554637"><ele>450.75</ele><time>2026-04-09T14:35:54.405Z</time></trkpt><trkpt lat="42.8446067" lon="11.9553096"><ele>454.0</ele><time>2026-04-09T14:35:55.399Z</time></trkpt><trkpt lat="42.8446511" lon="11.9551486"><ele>457.25</ele><time>2026-04-09T14:35:56.401Z</time></trkpt><trkpt lat="42.8446974" lon="11.954973"><ele>460.5</ele><time>2026-04-09T14:35:57.405Z</time></trkpt><trkpt lat="42.8447608" lon="11.9547912"><ele>463.75</ele><time>2026-04-09T14:35:58.391Z</time></trkpt><trkpt lat="42.8448217" lon="11.9546147"><ele>467.0</ele><time>2026-04-09T14:35:59.42Z</time></trkpt><trkpt lat="42.8448427" lon="11.9544664"><ele>467.0</ele><time>2026-04-09T14:36:00.406Z</time></trkpt><trkpt lat="42.8448603" lon="11.9543317"><ele>467.0</ele><time>2026-04-09T14:36:01.404Z</time></trkpt><trkpt lat="42.8448558" lon="11.9541925"><ele>467.0</ele><time>2026-04-09T14:36:02.402Z</time></trkpt><trkpt lat="42.8448259" lon="11.9540268"><ele>467.0</ele><time>2026-04-09T14:36:03.408Z</time></trkpt><trkpt lat="42.8447978" lon="11.9538497"><ele>467.25</ele><time>2026-04-09T14:36:04.413Z</time></trkpt><trkpt lat="42.8447574" lon="11.9536592"><ele>467.5</ele><time>2026-04-09T14:36:05.41Z</time></trkpt><trkpt lat="42.844715" lon="11.9534788"><ele>467.75</ele><time>2026-04-09T14:36:06.414Z</time></trkpt><trkpt lat="42.8446344" lon="11.9532822"><ele>468.0</ele><time>2026-04-09T14:36:07.406Z</time></trkpt><trkpt lat="42.8445868" lon="11.9531284"><ele>469.59999999999997</ele><time>2026-04-09T14:36:08.428Z</time></trkpt><trkpt lat="42.8445426" lon="11.9529713"><ele>471.19999999999993</ele><time>2026-04-09T14:36:09.406Z</time></trkpt><trkpt lat="42.8445191" lon="11.9528353"><ele>472.8</ele><time>2026-04-09T14:36:10.41Z</time></trkpt><trkpt lat="42.8444906" lon="11.9527205"><ele>474.4</ele><time>2026-04-09T14:36:11.402Z</time></trkpt><trkpt lat="42.8444671" lon="11.9526359"><ele>476.0</ele><time>2026-04-09T14:36:12.408Z</time></trkpt><trkpt lat="42.8443472" lon="11.9525527"><ele>479.66666666666663</ele><time>2026-04-09T14:36:14.401Z</time></trkpt><trkpt lat="42.8442582" lon="11.9525182"><ele>483.3333333333333</ele><time>2026-04-09T14:36:15.409Z</time></trkpt><trkpt lat="42.8441727" lon="11.9525177"><ele>487.0</ele><time>2026-04-09T14:36:16.401Z</time></trkpt><trkpt lat="42.8440944" lon="11.9525149"><ele>490.66666666666663</ele><time>2026-04-09T14:36:17.413Z</time></trkpt><trkpt lat="42.8440156" lon="11.9525046"><ele>494.3333333333333</ele><time>2026-04-09T14:36:18.409Z</time></trkpt><trkpt lat="42.8439358" lon="11.9524828"><ele>498.0</ele><time>2026-04-09T14:36:19.408Z</time></trkpt><trkpt lat="42.8438588" lon="11.9524409"><ele>498.0</ele><time>2026-04-09T14:36:20.4Z</time></trkpt><trkpt lat="42.8437922" lon="11.9524153"><ele>497.99999999999994</ele><time>2026-04-09T14:36:21.41Z</time></trkpt><trkpt lat="42.843719" lon="11.9523649"><ele>497.99999999999994</ele><time>2026-04-09T14:36:22.398Z</time></trkpt><trkpt lat="42.8436377" lon="11.9522885"><ele>498.0</ele><time>2026-04-09T14:36:23.413Z</time></trkpt><trkpt lat="42.8435663" lon="11.9521688"><ele>498.0</ele><time>2026-04-09T14:36:24.406Z</time></trkpt><trkpt lat="42.8435105" lon="11.9520458"><ele>498.0</ele><time>2026-04-09T14:36:25.409Z</time></trkpt><trkpt lat="42.8434682" lon="11.9519379"><ele>498.0</ele><time>2026-04-09T14:36:26.41Z</time></trkpt><trkpt lat="42.8434357" lon="11.9518426"><ele>498.0</ele><time>2026-04-09T14:36:27.401Z</time></trkpt><trkpt lat="42.8434272" lon="11.9517511"><ele>498.0</ele><time>2026-04-09T14:36:28.403Z</time></trkpt><trkpt lat="42.8434225" lon="11.9516507"><ele>498.0</ele><time>2026-04-09T14:36:29.409Z</time></trkpt><trkpt lat="42.8434224" lon="11.951543"><ele>498.0</ele><time>2026-04-09T14:36:30.405Z</time></trkpt><trkpt lat="42.843432" lon="11.9514146"><ele>498.75</ele><time>2026-04-09T14:36:31.412Z</time></trkpt><trkpt lat="42.8434543" lon="11.9512594"><ele>499.5</ele><time>2026-04-09T14:36:32.405Z</time></trkpt><trkpt lat="42.8434761" lon="11.951082"><ele>500.25</ele><time>2026-04-09T14:36:33.402Z</time></trkpt><trkpt lat="42.8435023" lon="11.9509242"><ele>501.0</ele><time>2026-04-09T14:36:34.407Z</time></trkpt><trkpt lat="42.8435298" lon="11.950777"><ele>501.0</ele><time>2026-04-09T14:36:35.404Z</time></trkpt><trkpt lat="42.8435501" lon="11.9506434"><ele>501.0</ele><time>2026-04-09T14:36:36.423Z</time></trkpt><trkpt lat="42.8435509" lon="11.9505093"><ele>501.0</ele><time>2026-04-09T14:36:37.389Z</time></trkpt><trkpt lat="42.8435402" lon="11.9503817"><ele>501.0</ele><time>2026-04-09T14:36:38.405Z</time></trkpt><trkpt lat="42.8435225" lon="11.950259"><ele>501.0</ele><time>2026-04-09T14:36:39.426Z</time></trkpt><trkpt lat="42.8434813" lon="11.950155"><ele>504.20000000000005</ele><time>2026-04-09T14:36:40.42Z</time></trkpt><trkpt lat="42.8434449" lon="11.950038"><ele>507.40000000000003</ele><time>2026-04-09T14:36:41.399Z</time></trkpt><trkpt lat="42.8434165" lon="11.9499222"><ele>510.6</ele><time>2026-04-09T14:36:42.398Z</time></trkpt><trkpt lat="42.8434112" lon="11.9498236"><ele>513.8000000000001</ele><time>2026-04-09T14:36:43.398Z</time></trkpt><trkpt lat="42.8434139" lon="11.9496593"><ele>517.0</ele><time>2026-04-09T14:36:45.407Z</time></trkpt><trkpt lat="42.8433593" lon="11.9494986"><ele>517.0</ele><time>2026-04-09T14:36:47.398Z</time></trkpt><trkpt lat="42.8432668" lon="11.9493736"><ele>517.0</ele><time>2026-04-09T14:36:49.404Z</time></trkpt><trkpt lat="42.843187" lon="11.9493117"><ele>517.0</ele><time>2026-04-09T14:36:50.397Z</time></trkpt><trkpt lat="42.8431114" lon="11.9492751"><ele>517.0</ele><time>2026-04-09T14:36:51.395Z</time></trkpt><trkpt lat="42.8430401" lon="11.9492481"><ele>517.0</ele><time>2026-04-09T14:36:52.397Z</time></trkpt><trkpt lat="42.8429705" lon="11.9492512"><ele>517.0</ele><time>2026-04-09T14:36:53.414Z</time></trkpt><trkpt lat="42.8428925" lon="11.9492787"><ele>517.0</ele><time>2026-04-09T14:36:54.399Z</time></trkpt><trkpt lat="42.8427888" lon="11.9493138"><ele>517.0</ele><time>2026-04-09T14:36:55.409Z</time></trkpt><trkpt lat="42.8426604" lon="11.9493387"><ele>517.0</ele><time>2026-04-09T14:36:56.42Z</time></trkpt><trkpt lat="42.8425433" lon="11.9493563"><ele>517.0</ele><time>2026-04-09T14:36:57.395Z</time></trkpt><trkpt lat="42.8424259" lon="11.949377"><ele>517.6</ele><time>2026-04-09T14:36:58.394Z</time></trkpt><trkpt lat="42.8423042" lon="11.949388"><ele>518.2</ele><time>2026-04-09T14:36:59.401Z</time></trkpt><trkpt lat="42.8422064" lon="11.9494022"><ele>518.8</ele><time>2026-04-09T14:37:00.404Z</time></trkpt><trkpt lat="42.8421179" lon="11.9494004"><ele>519.4</ele><time>2026-04-09T14:37:01.406Z</time></trkpt><trkpt lat="42.842033" lon="11.9493859"><ele>520.0</ele><time>2026-04-09T14:37:02.402Z</time></trkpt><trkpt lat="42.8419559" lon="11.9493579"><ele>520.0</ele><time>2026-04-09T14:37:03.403Z</time></trkpt><trkpt lat="42.8418949" lon="11.9493345"><ele>520.0</ele><time>2026-04-09T14:37:04.41Z</time></trkpt><trkpt lat="42.8418356" lon="11.9493053"><ele>520.0</ele><time>2026-04-09T14:37:05.401Z</time></trkpt><trkpt lat="42.8417729" lon="11.9492756"><ele>520.0</ele><time>2026-04-09T14:37:06.398Z</time></trkpt><trkpt lat="42.8417024" lon="11.9492344"><ele>520.0</ele><time>2026-04-09T14:37:07.402Z</time></trkpt><trkpt lat="42.8416157" lon="11.9491626"><ele>520.0</ele><time>2026-04-09T14:37:08.404Z</time></trkpt><trkpt lat="42.8415209" lon="11.9490626"><ele>522.8</ele><time>2026-04-09T14:37:09.389Z</time></trkpt><trkpt lat="42.8414381" lon="11.948981"><ele>525.6</ele><time>2026-04-09T14:37:10.397Z</time></trkpt><trkpt lat="42.8413585" lon="11.9488943"><ele>528.4</ele><time>2026-04-09T14:37:11.406Z</time></trkpt><trkpt lat="42.8412788" lon="11.9487998"><ele>531.2</ele><time>2026-04-09T14:37:12.402Z</time></trkpt><trkpt lat="42.8411975" lon="11.948699"><ele>534.0</ele><time>2026-04-09T14:37:13.398Z</time></trkpt><trkpt lat="42.8411132" lon="11.9485958"><ele>534.0</ele><time>2026-04-09T14:37:14.404Z</time></trkpt><trkpt lat="42.8410452" lon="11.9485153"><ele>534.0</ele><time>2026-04-09T14:37:15.41Z</time></trkpt><trkpt lat="42.8409835" lon="11.9484422"><ele>534.0</ele><time>2026-04-09T14:37:16.402Z</time></trkpt><trkpt lat="42.8409275" lon="11.9483695"><ele>534.0</ele><time>2026-04-09T14:37:17.405Z</time></trkpt><trkpt lat="42.840876" lon="11.9482953"><ele>534.0</ele><time>2026-04-09T14:37:18.391Z</time></trkpt><trkpt lat="42.8408318" lon="11.9482227"><ele>534.0</ele><time>2026-04-09T14:37:19.409Z</time></trkpt><trkpt lat="42.8407903" lon="11.9481067"><ele>533.0</ele><time>2026-04-09T14:37:20.41Z</time></trkpt><trkpt lat="42.8407464" lon="11.9479517"><ele>532.0</ele><time>2026-04-09T14:37:21.409Z</time></trkpt><trkpt lat="42.8407107" lon="11.9477845"><ele>531.0</ele><time>2026-04-09T14:37:22.411Z</time></trkpt><trkpt lat="42.840678" lon="11.9476188"><ele>530.0</ele><time>2026-04-09T14:37:23.409Z</time></trkpt><trkpt lat="42.8406672" lon="11.9474658"><ele>531.8333333333333</ele><time>2026-04-09T14:37:24.416Z</time></trkpt><trkpt lat="42.8406663" lon="11.9473265"><ele>533.6666666666666</ele><time>2026-04-09T14:37:25.414Z</time></trkpt><trkpt lat="42.84067" lon="11.9472054"><ele>535.5</ele><time>2026-04-09T14:37:26.403Z</time></trkpt><trkpt lat="42.8406659" lon="11.9470888"><ele>537.3333333333334</ele><time>2026-04-09T14:37:27.406Z</time></trkpt><trkpt lat="42.8406516" lon="11.9469917"><ele>539.1666666666667</ele><time>2026-04-09T14:37:28.406Z</time></trkpt><trkpt lat="42.8406125" lon="11.9468979"><ele>541.0</ele><time>2026-04-09T14:37:29.416Z</time></trkpt><trkpt lat="42.8405717" lon="11.946811"><ele>541.6</ele><time>2026-04-09T14:37:30.424Z</time></trkpt><trkpt lat="42.8405031" lon="11.9467103"><ele>542.2</ele><time>2026-04-09T14:37:32.397Z</time></trkpt><trkpt lat="42.8403874" lon="11.9466562"><ele>542.8</ele><time>2026-04-09T14:37:34.418Z</time></trkpt><trkpt lat="42.840317" lon="11.946644"><ele>543.4</ele><time>2026-04-09T14:37:35.413Z</time></trkpt><trkpt lat="42.8401989" lon="11.9465983"><ele>544.0</ele><time>2026-04-09T14:37:37.407Z</time></trkpt><trkpt lat="42.8401284" lon="11.9465579"><ele>544.0</ele><time>2026-04-09T14:37:38.404Z</time></trkpt><trkpt lat="42.8400514" lon="11.9465091"><ele>544.0</ele><time>2026-04-09T14:37:39.405Z</time></trkpt><trkpt lat="42.8399725" lon="11.9464529"><ele>544.0</ele><time>2026-04-09T14:37:40.398Z</time></trkpt><trkpt lat="42.839892" lon="11.9463973"><ele>544.0</ele><time>2026-04-09T14:37:41.398Z</time></trkpt><trkpt lat="42.8398179" lon="11.946349"><ele>544.0</ele><time>2026-04-09T14:37:42.405Z</time></trkpt><trkpt lat="42.8397496" lon="11.9463066"><ele>544.0</ele><time>2026-04-09T14:37:43.396Z</time></trkpt><trkpt lat="42.83969" lon="11.9462568"><ele>544.0</ele><time>2026-04-09T14:37:44.402Z</time></trkpt><trkpt lat="42.8395859" lon="11.9461983"><ele>544.0</ele><time>2026-04-09T14:37:46.405Z</time></trkpt><trkpt lat="42.839468" lon="11.9461066"><ele>544.0</ele><time>2026-04-09T14:37:48.404Z</time></trkpt><trkpt lat="42.8394044" lon="11.9460306"><ele>544.0</ele><time>2026-04-09T14:37:49.401Z</time></trkpt><trkpt lat="42.8393569" lon="11.9459668"><ele>544.0</ele><time>2026-04-09T14:37:50.407Z</time></trkpt><trkpt lat="42.8393186" lon="11.9458844"><ele>546.0</ele><time>2026-04-09T14:37:51.402Z</time></trkpt><trkpt lat="42.839269" lon="11.9457714"><ele>548.0</ele><time>2026-04-09T14:37:52.398Z</time></trkpt><trkpt lat="42.8391972" lon="11.9456449"><ele>550.0</ele><time>2026-04-09T14:37:53.403Z</time></trkpt><trkpt lat="42.839118" lon="11.9455158"><ele>552.0</ele><time>2026-04-09T14:37:54.404Z</time></trkpt><trkpt lat="42.8390279" lon="11.9454072"><ele>552.0</ele><time>2026-04-09T14:37:55.403Z</time></trkpt><trkpt lat="42.838956" lon="11.9453146"><ele>552.0</ele><time>2026-04-09T14:37:56.401Z</time></trkpt><trkpt lat="42.8388799" lon="11.945252"><ele>552.0</ele><time>2026-04-09T14:37:57.404Z</time></trkpt><trkpt lat="42.8388142" lon="11.9451942"><ele>552.0</ele><time>2026-04-09T14:37:58.397Z</time></trkpt><trkpt lat="42.838729" lon="11.9451217"><ele>552.0</ele><time>2026-04-09T14:38:00.402Z</time></trkpt><trkpt lat="42.8386733" lon="11.9450642"><ele>552.0</ele><time>2026-04-09T14:38:18.397Z</time></trkpt><trkpt lat="42.8386061" lon="11.944969"><ele>552.6</ele><time>2026-04-09T14:38:20.395Z</time></trkpt><trkpt lat="42.8385561" lon="11.9449043"><ele>553.2</ele><time>2026-04-09T14:38:21.405Z</time></trkpt><trkpt lat="42.8384932" lon="11.9448243"><ele>553.8</ele><time>2026-04-09T14:38:22.401Z</time></trkpt><trkpt lat="42.8384442" lon="11.9447558"><ele>554.4</ele><time>2026-04-09T14:38:23.402Z</time></trkpt><trkpt lat="42.8383302" lon="11.9446817"><ele>555.0</ele><time>2026-04-09T14:38:25.398Z</time></trkpt><trkpt lat="42.8381968" lon="11.9446543"><ele>555.0</ele><time>2026-04-09T14:38:27.407Z</time></trkpt><trkpt lat="42.8381253" lon="11.9446685"><ele>555.0</ele><time>2026-04-09T14:38:28.399Z</time></trkpt><trkpt lat="42.838044" lon="11.9446959"><ele>555.0</ele><time>2026-04-09T14:38:29.395Z</time></trkpt><trkpt lat="42.8379741" lon="11.9447277"><ele>555.0</ele><time>2026-04-09T14:38:30.401Z</time></trkpt><trkpt lat="42.8378563" lon="11.9447803"><ele>555.0</ele><time>2026-04-09T14:38:32.396Z</time></trkpt><trkpt lat="42.8377885" lon="11.9448127"><ele>555.0</ele><time>2026-04-09T14:38:33.409Z</time></trkpt><trkpt lat="42.837728" lon="11.9448408"><ele>556.6</ele><time>2026-04-09T14:38:34.405Z</time></trkpt><trkpt lat="42.837634" lon="11.9448813"><ele>558.2</ele><time>2026-04-09T14:38:36.402Z</time></trkpt><trkpt lat="42.8375188" lon="11.9449119"><ele>559.8</ele><time>2026-04-09T14:38:38.4Z</time></trkpt><trkpt lat="42.8374546" lon="11.9449279"><ele>561.4</ele><time>2026-04-09T14:38:39.406Z</time></trkpt><trkpt lat="42.8373335" lon="11.9449404"><ele>563.0</ele><time>2026-04-09T14:38:41.396Z</time></trkpt><trkpt lat="42.8372348" lon="11.9449804"><ele>563.0</ele><time>2026-04-09T14:38:43.406Z</time></trkpt><trkpt lat="42.8371777" lon="11.9450202"><ele>563.0</ele><time>2026-04-09T14:38:44.397Z</time></trkpt><trkpt lat="42.8370649" lon="11.9450792"><ele>563.0</ele><time>2026-04-09T14:38:46.4Z</time></trkpt><trkpt lat="42.8369954" lon="11.9451524"><ele>563.0</ele><time>2026-04-09T14:38:47.404Z</time></trkpt><trkpt lat="42.8369221" lon="11.9452383"><ele>563.0</ele><time>2026-04-09T14:38:48.41Z</time></trkpt><trkpt lat="42.836845" lon="11.9453224"><ele>565.1999999999999</ele><time>2026-04-09T14:38:49.408Z</time></trkpt><trkpt lat="42.8367707" lon="11.9454195"><ele>567.4</ele><time>2026-04-09T14:38:50.403Z</time></trkpt><trkpt lat="42.8367205" lon="11.9455097"><ele>569.5999999999999</ele><time>2026-04-09T14:38:51.408Z</time></trkpt><trkpt lat="42.8366393" lon="11.9456077"><ele>571.8</ele><time>2026-04-09T14:38:53.404Z</time></trkpt><trkpt lat="42.8365491" lon="11.9456797"><ele>574.0</ele><time>2026-04-09T14:38:55.397Z</time></trkpt><trkpt lat="42.8364319" lon="11.9457676"><ele>574.0</ele><time>2026-04-09T14:38:57.407Z</time></trkpt><trkpt lat="42.8363752" lon="11.9458097"><ele>574.0</ele><time>2026-04-09T14:38:58.399Z</time></trkpt><trkpt lat="42.8363112" lon="11.9458519"><ele>574.0</ele><time>2026-04-09T14:38:59.395Z</time></trkpt><trkpt lat="42.8362371" lon="11.9458943"><ele>574.0</ele><time>2026-04-09T14:39:00.408Z</time></trkpt><trkpt lat="42.8361743" lon="11.945929"><ele>574.0</ele><time>2026-04-09T14:39:01.39Z</time></trkpt><trkpt lat="42.8360833" lon="11.9459845"><ele>574.0</ele><time>2026-04-09T14:39:03.398Z</time></trkpt><trkpt lat="42.8360282" lon="11.9460502"><ele>573.8333333333334</ele><time>2026-04-09T14:39:05.404Z</time></trkpt><trkpt lat="42.8360116" lon="11.9461646"><ele>573.6666666666667</ele><time>2026-04-09T14:39:07.395Z</time></trkpt><trkpt lat="42.836013" lon="11.9462599"><ele>573.5</ele><time>2026-04-09T14:39:08.4Z</time></trkpt><trkpt lat="42.8360231" lon="11.9463743"><ele>573.3333333333334</ele><time>2026-04-09T14:39:09.408Z</time></trkpt><trkpt lat="42.8360313" lon="11.9464684"><ele>573.1666666666666</ele><time>2026-04-09T14:39:10.403Z</time></trkpt><trkpt lat="42.8360409" lon="11.9465944"><ele>573.0</ele><time>2026-04-09T14:39:12.404Z</time></trkpt><trkpt lat="42.8360789" lon="11.946707"><ele>574.1999999999999</ele><time>2026-04-09T14:39:14.403Z</time></trkpt><trkpt lat="42.8361101" lon="11.9468297"><ele>575.4</ele><time>2026-04-09T14:39:16.398Z</time></trkpt><trkpt lat="42.8361695" lon="11.9469604"><ele>576.5999999999999</ele><time>2026-04-09T14:39:18.403Z</time></trkpt><trkpt lat="42.8362194" lon="11.9471136"><ele>577.8</ele><time>2026-04-09T14:39:20.409Z</time></trkpt><trkpt lat="42.8362573" lon="11.9472148"><ele>579.0</ele><time>2026-04-09T14:39:22.398Z</time></trkpt><trkpt lat="42.8362733" lon="11.9473176"><ele>578.9999999999999</ele><time>2026-04-09T14:39:24.403Z</time></trkpt><trkpt lat="42.8362901" lon="11.9474097"><ele>579.0</ele><time>2026-04-09T14:39:26.407Z</time></trkpt><trkpt lat="42.8363092" lon="11.9475131"><ele>579.0</ele><time>2026-04-09T14:39:29.41Z</time></trkpt><trkpt lat="42.8363317" lon="11.9475941"><ele>579.0</ele><time>2026-04-09T14:39:30.405Z</time></trkpt><trkpt lat="42.8363422" lon="11.9476902"><ele>579.0</ele><time>2026-04-09T14:39:31.413Z</time></trkpt><trkpt lat="42.8363512" lon="11.9477891"><ele>578.9999999999999</ele><time>2026-04-09T14:39:32.403Z</time></trkpt><trkpt lat="42.8363749" lon="11.9478796"><ele>579.0</ele><time>2026-04-09T14:39:33.393Z</time></trkpt><trkpt lat="42.8363963" lon="11.9479687"><ele>578.8333333333334</ele><time>2026-04-09T14:39:34.391Z</time></trkpt><trkpt lat="42.8364122" lon="11.9480655"><ele>578.6666666666666</ele><time>2026-04-09T14:39:35.4Z</time></trkpt><trkpt lat="42.8364243" lon="11.9481908"><ele>578.5</ele><time>2026-04-09T14:39:36.398Z</time></trkpt><trkpt lat="42.8364338" lon="11.948313"><ele>578.3333333333333</ele><time>2026-04-09T14:39:37.398Z</time></trkpt><trkpt lat="42.8364315" lon="11.9484402"><ele>578.1666666666666</ele><time>2026-04-09T14:39:38.407Z</time></trkpt><trkpt lat="42.8364256" lon="11.9485684"><ele>578.0</ele><time>2026-04-09T14:39:39.397Z</time></trkpt><trkpt lat="42.8364174" lon="11.9486801"><ele>576.6666666666666</ele><time>2026-04-09T14:39:40.405Z</time></trkpt><trkpt lat="42.8364137" lon="11.9487888"><ele>575.3333333333333</ele><time>2026-04-09T14:39:41.404Z</time></trkpt><trkpt lat="42.8364137" lon="11.9488932"><ele>574.0</ele><time>2026-04-09T14:39:42.408Z</time></trkpt><trkpt lat="42.8364154" lon="11.9489915"><ele>572.6666666666666</ele><time>2026-04-09T14:39:43.399Z</time></trkpt><trkpt lat="42.8364117" lon="11.9490835"><ele>571.3333333333334</ele><time>2026-04-09T14:39:44.404Z</time></trkpt><trkpt lat="42.8364016" lon="11.9492343"><ele>570.0</ele><time>2026-04-09T14:39:46.408Z</time></trkpt><trkpt lat="42.8364173" lon="11.9493422"><ele>567.2</ele><time>2026-04-09T14:39:48.4Z</time></trkpt><trkpt lat="42.8364657" lon="11.9494179"><ele>564.4</ele><time>2026-04-09T14:39:50.399Z</time></trkpt><trkpt lat="42.8365475" lon="11.9494383"><ele>561.6</ele><time>2026-04-09T14:39:52.403Z</time></trkpt><trkpt lat="42.836654" lon="11.9494258"><ele>558.8</ele><time>2026-04-09T14:39:54.408Z</time></trkpt><trkpt lat="42.8367745" lon="11.949456"><ele>556.0</ele><time>2026-04-09T14:39:56.402Z</time></trkpt><trkpt lat="42.8368348" lon="11.9494891"><ele>555.3333333333334</ele><time>2026-04-09T14:39:57.396Z</time></trkpt><trkpt lat="42.836934" lon="11.9495967"><ele>554.6666666666667</ele><time>2026-04-09T14:39:59.391Z</time></trkpt><trkpt lat="42.8369755" lon="11.9496629"><ele>554.0</ele><time>2026-04-09T14:40:00.401Z</time></trkpt><trkpt lat="42.8370223" lon="11.9497356"><ele>553.3333333333334</ele><time>2026-04-09T14:40:01.395Z</time></trkpt><trkpt lat="42.8370692" lon="11.9498077"><ele>552.6666666666666</ele><time>2026-04-09T14:40:02.402Z</time></trkpt><trkpt lat="42.8371186" lon="11.9498844"><ele>552.0</ele><time>2026-04-09T14:40:03.398Z</time></trkpt><trkpt lat="42.8371679" lon="11.9499565"><ele>552.0</ele><time>2026-04-09T14:40:04.397Z</time></trkpt><trkpt lat="42.8372174" lon="11.9500239"><ele>552.0</ele><time>2026-04-09T14:40:05.404Z</time></trkpt><trkpt lat="42.8372667" lon="11.9500939"><ele>552.0</ele><time>2026-04-09T14:40:06.403Z</time></trkpt><trkpt lat="42.8373159" lon="11.950166"><ele>552.0</ele><time>2026-04-09T14:40:07.389Z</time></trkpt><trkpt lat="42.837364" lon="11.9502469"><ele>552.0</ele><time>2026-04-09T14:40:08.398Z</time></trkpt><trkpt lat="42.8374072" lon="11.9503377"><ele>552.0</ele><time>2026-04-09T14:40:09.403Z</time></trkpt><trkpt lat="42.8374411" lon="11.9504372"><ele>550.5</ele><time>2026-04-09T14:40:10.394Z</time></trkpt><trkpt lat="42.8374717" lon="11.9505283"><ele>549.0</ele><time>2026-04-09T14:40:11.397Z</time></trkpt><trkpt lat="42.8375051" lon="11.9506085"><ele>547.5</ele><time>2026-04-09T14:40:12.401Z</time></trkpt><trkpt lat="42.8375487" lon="11.9506803"><ele>546.0</ele><time>2026-04-09T14:40:13.397Z</time></trkpt><trkpt lat="42.8376028" lon="11.9507339"><ele>544.5</ele><time>2026-04-09T14:40:14.405Z</time></trkpt><trkpt lat="42.8377081" lon="11.9507978"><ele>543.0</ele><time>2026-04-09T14:40:16.408Z</time></trkpt><trkpt lat="42.8378151" lon="11.9508192"><ele>542.1428571428571</ele><time>2026-04-09T14:40:18.407Z</time></trkpt><trkpt lat="42.8378807" lon="11.9508299"><ele>541.2857142857142</ele><time>2026-04-09T14:40:19.407Z</time></trkpt><trkpt lat="42.8379493" lon="11.9508592"><ele>540.4285714285713</ele><time>2026-04-09T14:40:20.398Z</time></trkpt><trkpt lat="42.8380188" lon="11.9509006"><ele>539.5714285714286</ele><time>2026-04-09T14:40:21.407Z</time></trkpt><trkpt lat="42.8380956" lon="11.9509461"><ele>538.7142857142857</ele><time>2026-04-09T14:40:22.409Z</time></trkpt><trkpt lat="42.8381612" lon="11.950999"><ele>537.8571428571428</ele><time>2026-04-09T14:40:23.403Z</time></trkpt><trkpt lat="42.8382152" lon="11.9510606"><ele>537.0</ele><time>2026-04-09T14:40:24.409Z</time></trkpt><trkpt lat="42.8382527" lon="11.9511353"><ele>536.3333333333334</ele><time>2026-04-09T14:40:25.403Z</time></trkpt><trkpt lat="42.8382742" lon="11.9512279"><ele>535.6666666666666</ele><time>2026-04-09T14:40:26.401Z</time></trkpt><trkpt lat="42.8382857" lon="11.9513421"><ele>535.0</ele><time>2026-04-09T14:40:27.407Z</time></trkpt><trkpt lat="42.8382909" lon="11.9514554"><ele>534.3333333333333</ele><time>2026-04-09T14:40:28.394Z</time></trkpt><trkpt lat="42.8382926" lon="11.9515634"><ele>533.6666666666666</ele><time>2026-04-09T14:40:29.41Z</time></trkpt><trkpt lat="42.8382969" lon="11.9516748"><ele>533.0</ele><time>2026-04-09T14:40:30.407Z</time></trkpt><trkpt lat="42.8382976" lon="11.9517849"><ele>532.2857142857142</ele><time>2026-04-09T14:40:31.392Z</time></trkpt><trkpt lat="42.8382904" lon="11.9518895"><ele>531.5714285714286</ele><time>2026-04-09T14:40:32.408Z</time></trkpt><trkpt lat="42.838296" lon="11.9519926"><ele>530.8571428571429</ele><time>2026-04-09T14:40:33.394Z</time></trkpt><trkpt lat="42.838293" lon="11.9521023"><ele>530.1428571428571</ele><time>2026-04-09T14:40:34.403Z</time></trkpt><trkpt lat="42.8382942" lon="11.9522008"><ele>529.4285714285714</ele><time>2026-04-09T14:40:35.394Z</time></trkpt><trkpt lat="42.838288" lon="11.9522924"><ele>528.7142857142857</ele><time>2026-04-09T14:40:36.397Z</time></trkpt><trkpt lat="42.8382671" lon="11.9523832"><ele>528.0</ele><time>2026-04-09T14:40:37.39Z</time></trkpt><trkpt lat="42.8382469" lon="11.952473"><ele>527.1999999999999</ele><time>2026-04-09T14:40:38.396Z</time></trkpt><trkpt lat="42.838219" lon="11.9526297"><ele>526.4</ele><time>2026-04-09T14:40:40.399Z</time></trkpt><trkpt lat="42.8382731" lon="11.9527456"><ele>525.5999999999999</ele><time>2026-04-09T14:40:42.394Z</time></trkpt><trkpt lat="42.838343" lon="11.952839"><ele>524.8</ele><time>2026-04-09T14:40:44.395Z</time></trkpt><trkpt lat="42.8383806" lon="11.9529169"><ele>524.0</ele><time>2026-04-09T14:40:46.401Z</time></trkpt><trkpt lat="42.8384145" lon="11.9529935"><ele>524.0</ele><time>2026-04-09T14:41:16.401Z</time></trkpt><trkpt lat="42.8384514" lon="11.9530817"><ele>524.0</ele><time>2026-04-09T14:41:19.409Z</time></trkpt><trkpt lat="42.8384879" lon="11.9531692"><ele>524.0</ele><time>2026-04-09T14:41:21.4Z</time></trkpt><trkpt lat="42.8384873" lon="11.9532704"><ele>524.0</ele><time>2026-04-09T14:41:23.399Z</time></trkpt><trkpt lat="42.8384539" lon="11.9533989"><ele>524.0</ele><time>2026-04-09T14:41:25.394Z</time></trkpt><trkpt lat="42.8384081" lon="11.9535329"><ele>524.0</ele><time>2026-04-09T14:41:27.396Z</time></trkpt><trkpt lat="42.8383755" lon="11.9536176"><ele>521.6</ele><time>2026-04-09T14:41:28.381Z</time></trkpt><trkpt lat="42.8383525" lon="11.9537095"><ele>519.2</ele><time>2026-04-09T14:41:29.389Z</time></trkpt><trkpt lat="42.8383589" lon="11.95387"><ele>516.8000000000001</ele><time>2026-04-09T14:41:31.394Z</time></trkpt><trkpt lat="42.8383746" lon="11.954005"><ele>514.4</ele><time>2026-04-09T14:41:33.397Z</time></trkpt><trkpt lat="42.8384111" lon="11.9541662"><ele>512.0</ele><time>2026-04-09T14:41:35.397Z</time></trkpt><trkpt lat="42.8384284" lon="11.9542703"><ele>510.2857142857143</ele><time>2026-04-09T14:41:36.402Z</time></trkpt><trkpt lat="42.8384436" lon="11.9543652"><ele>508.57142857142856</ele><time>2026-04-09T14:41:37.398Z</time></trkpt><trkpt lat="42.8384575" lon="11.9544567"><ele>506.85714285714283</ele><time>2026-04-09T14:41:38.403Z</time></trkpt><trkpt lat="42.8384734" lon="11.9545533"><ele>505.1428571428571</ele><time>2026-04-09T14:41:39.399Z</time></trkpt><trkpt lat="42.8384832" lon="11.9546608"><ele>503.42857142857144</ele><time>2026-04-09T14:41:40.404Z</time></trkpt><trkpt lat="42.83849" lon="11.95476"><ele>501.71428571428567</ele><time>2026-04-09T14:41:41.4Z</time></trkpt><trkpt lat="42.8384999" lon="11.9548495"><ele>500.0</ele><time>2026-04-09T14:41:42.402Z</time></trkpt><trkpt lat="42.8385184" lon="11.954935"><ele>497.16666666666663</ele><time>2026-04-09T14:41:43.401Z</time></trkpt><trkpt lat="42.8385463" lon="11.955024"><ele>494.3333333333333</ele><time>2026-04-09T14:41:44.405Z</time></trkpt><trkpt lat="42.8385773" lon="11.9551072"><ele>491.5</ele><time>2026-04-09T14:41:45.406Z</time></trkpt><trkpt lat="42.8386099" lon="11.9551987"><ele>488.66666666666663</ele><time>2026-04-09T14:41:46.401Z</time></trkpt><trkpt lat="42.8386361" lon="11.9552928"><ele>485.8333333333333</ele><time>2026-04-09T14:41:47.406Z</time></trkpt><trkpt lat="42.8386584" lon="11.955401"><ele>483.0</ele><time>2026-04-09T14:41:48.409Z</time></trkpt><trkpt lat="42.838682" lon="11.9555062"><ele>482.7142857142857</ele><time>2026-04-09T14:41:49.4Z</time></trkpt><trkpt lat="42.8387064" lon="11.9556039"><ele>482.42857142857144</ele><time>2026-04-09T14:41:50.414Z</time></trkpt><trkpt lat="42.8387322" lon="11.9557073"><ele>482.1428571428571</ele><time>2026-04-09T14:41:51.408Z</time></trkpt><trkpt lat="42.838763" lon="11.9558063"><ele>481.85714285714283</ele><time>2026-04-09T14:41:52.409Z</time></trkpt><trkpt lat="42.8387982" lon="11.955896"><ele>481.57142857142856</ele><time>2026-04-09T14:41:53.406Z</time></trkpt><trkpt lat="42.8388294" lon="11.9559787"><ele>481.2857142857142</ele><time>2026-04-09T14:41:54.408Z</time></trkpt><trkpt lat="42.8388585" lon="11.9560628"><ele>480.99999999999994</ele><time>2026-04-09T14:41:55.403Z</time></trkpt><trkpt lat="42.8388937" lon="11.9561454"><ele>481.00000000000006</ele><time>2026-04-09T14:41:56.404Z</time></trkpt><trkpt lat="42.8389378" lon="11.956232"><ele>481.0</ele><time>2026-04-09T14:41:57.403Z</time></trkpt><trkpt lat="42.8389727" lon="11.9563111"><ele>481.0</ele><time>2026-04-09T14:41:58.397Z</time></trkpt><trkpt lat="42.8390159" lon="11.956397"><ele>481.0</ele><time>2026-04-09T14:41:59.407Z</time></trkpt><trkpt lat="42.8390561" lon="11.9564851"><ele>481.00000000000006</ele><time>2026-04-09T14:42:00.405Z</time></trkpt><trkpt lat="42.8391012" lon="11.9565795"><ele>481.0</ele><time>2026-04-09T14:42:01.395Z</time></trkpt><trkpt lat="42.8391484" lon="11.9566783"><ele>479.83333333333337</ele><time>2026-04-09T14:42:02.407Z</time></trkpt><trkpt lat="42.8391914" lon="11.9567739"><ele>478.6666666666667</ele><time>2026-04-09T14:42:03.398Z</time></trkpt><trkpt lat="42.8392365" lon="11.956865"><ele>477.5</ele><time>2026-04-09T14:42:04.402Z</time></trkpt><trkpt lat="42.8392753" lon="11.9569511"><ele>476.33333333333337</ele><time>2026-04-09T14:42:05.413Z</time></trkpt><trkpt lat="42.8393021" lon="11.9570333"><ele>475.1666666666667</ele><time>2026-04-09T14:42:06.403Z</time></trkpt><trkpt lat="42.8393089" lon="11.9571939"><ele>474.0</ele><time>2026-04-09T14:42:08.399Z</time></trkpt><trkpt lat="42.8392626" lon="11.9573466"><ele>474.0</ele><time>2026-04-09T14:42:10.402Z</time></trkpt><trkpt lat="42.8391984" lon="11.9574684"><ele>474.0</ele><time>2026-04-09T14:42:12.403Z</time></trkpt><trkpt lat="42.8391493" lon="11.9575625"><ele>474.0</ele><time>2026-04-09T14:42:14.4Z</time></trkpt><trkpt lat="42.8391125" lon="11.9576708"><ele>474.0</ele><time>2026-04-09T14:42:16.399Z</time></trkpt><trkpt lat="42.8390629" lon="11.9577907"><ele>474.0</ele><time>2026-04-09T14:42:18.399Z</time></trkpt><trkpt lat="42.8390163" lon="11.9579092"><ele>471.3333333333333</ele><time>2026-04-09T14:42:20.397Z</time></trkpt><trkpt lat="42.8389651" lon="11.9580556"><ele>468.66666666666663</ele><time>2026-04-09T14:42:22.397Z</time></trkpt><trkpt lat="42.8389386" lon="11.9581366"><ele>466.0</ele><time>2026-04-09T14:42:23.424Z</time></trkpt><trkpt lat="42.838878" lon="11.9582577"><ele>463.3333333333333</ele><time>2026-04-09T14:42:25.395Z</time></trkpt><trkpt lat="42.8388325" lon="11.9583297"><ele>460.66666666666663</ele><time>2026-04-09T14:42:26.402Z</time></trkpt><trkpt lat="42.8387907" lon="11.9584157"><ele>458.0</ele><time>2026-04-09T14:42:27.4Z</time></trkpt><trkpt lat="42.8387539" lon="11.9585095"><ele>455.57142857142856</ele><time>2026-04-09T14:42:28.398Z</time></trkpt><trkpt lat="42.8387284" lon="11.9586001"><ele>453.14285714285717</ele><time>2026-04-09T14:42:29.399Z</time></trkpt><trkpt lat="42.8387139" lon="11.9586895"><ele>450.7142857142857</ele><time>2026-04-09T14:42:30.391Z</time></trkpt><trkpt lat="42.8386979" lon="11.9587774"><ele>448.2857142857143</ele><time>2026-04-09T14:42:31.402Z</time></trkpt><trkpt lat="42.8386832" lon="11.9588669"><ele>445.8571428571429</ele><time>2026-04-09T14:42:32.4Z</time></trkpt><trkpt lat="42.8386581" lon="11.9589509"><ele>443.42857142857144</ele><time>2026-04-09T14:42:33.404Z</time></trkpt><trkpt lat="42.8386228" lon="11.9590423"><ele>441.0</ele><time>2026-04-09T14:42:34.399Z</time></trkpt><trkpt lat="42.838588" lon="11.9591429"><ele>441.6666666666667</ele><time>2026-04-09T14:42:35.407Z</time></trkpt><trkpt lat="42.8385574" lon="11.9592457"><ele>442.33333333333337</ele><time>2026-04-09T14:42:36.4Z</time></trkpt><trkpt lat="42.8385226" lon="11.9593393"><ele>443.0</ele><time>2026-04-09T14:42:37.43Z</time></trkpt><trkpt lat="42.8384917" lon="11.9594339"><ele>443.6666666666667</ele><time>2026-04-09T14:42:38.394Z</time></trkpt><trkpt lat="42.8384597" lon="11.9595486"><ele>444.33333333333337</ele><time>2026-04-09T14:42:39.402Z</time></trkpt><trkpt lat="42.8384286" lon="11.9596731"><ele>445.0</ele><time>2026-04-09T14:42:40.404Z</time></trkpt><trkpt lat="42.8384039" lon="11.9597961"><ele>445.00000000000006</ele><time>2026-04-09T14:42:41.395Z</time></trkpt><trkpt lat="42.8383792" lon="11.9599144"><ele>445.0</ele><time>2026-04-09T14:42:42.399Z</time></trkpt><trkpt lat="42.8383477" lon="11.9600282"><ele>445.0</ele><time>2026-04-09T14:42:43.401Z</time></trkpt><trkpt lat="42.8383179" lon="11.9601387"><ele>445.0</ele><time>2026-04-09T14:42:44.402Z</time></trkpt><trkpt lat="42.8382949" lon="11.9602491"><ele>445.00000000000006</ele><time>2026-04-09T14:42:45.399Z</time></trkpt><trkpt lat="42.8382809" lon="11.9603588"><ele>445.0</ele><time>2026-04-09T14:42:46.401Z</time></trkpt><trkpt lat="42.8382885" lon="11.9604698"><ele>443.83333333333337</ele><time>2026-04-09T14:42:47.392Z</time></trkpt><trkpt lat="42.8383079" lon="11.9605815"><ele>442.6666666666667</ele><time>2026-04-09T14:42:48.405Z</time></trkpt><trkpt lat="42.838318" lon="11.9606812"><ele>441.5</ele><time>2026-04-09T14:42:49.398Z</time></trkpt><trkpt lat="42.8383167" lon="11.960775"><ele>440.33333333333337</ele><time>2026-04-09T14:42:50.404Z</time></trkpt><trkpt lat="42.8383078" lon="11.9608719"><ele>439.1666666666667</ele><time>2026-04-09T14:42:51.406Z</time></trkpt><trkpt lat="42.8382955" lon="11.9609881"><ele>438.0</ele><time>2026-04-09T14:42:52.399Z</time></trkpt><trkpt lat="42.8382714" lon="11.9611119"><ele>436.8333333333333</ele><time>2026-04-09T14:42:53.412Z</time></trkpt><trkpt lat="42.8382482" lon="11.9612404"><ele>435.66666666666663</ele><time>2026-04-09T14:42:54.404Z</time></trkpt><trkpt lat="42.838226" lon="11.9613647"><ele>434.5</ele><time>2026-04-09T14:42:55.402Z</time></trkpt><trkpt lat="42.8382163" lon="11.9614742"><ele>433.3333333333333</ele><time>2026-04-09T14:42:56.403Z</time></trkpt><trkpt lat="42.8382181" lon="11.96159"><ele>432.16666666666663</ele><time>2026-04-09T14:42:57.403Z</time></trkpt><trkpt lat="42.8382375" lon="11.9617082"><ele>431.0</ele><time>2026-04-09T14:42:58.397Z</time></trkpt><trkpt lat="42.838271" lon="11.9618108"><ele>430.99999999999994</ele><time>2026-04-09T14:42:59.403Z</time></trkpt><trkpt lat="42.838298" lon="11.9619041"><ele>431.0</ele><time>2026-04-09T14:43:00.404Z</time></trkpt><trkpt lat="42.8383104" lon="11.9619925"><ele>431.0</ele><time>2026-04-09T14:43:01.401Z</time></trkpt><trkpt lat="42.8383232" lon="11.9621561"><ele>431.0</ele><time>2026-04-09T14:43:03.406Z</time></trkpt><trkpt lat="42.8382986" lon="11.9622938"><ele>430.99999999999994</ele><time>2026-04-09T14:43:05.41Z</time></trkpt><trkpt lat="42.8382571" lon="11.9623841"><ele>431.0</ele><time>2026-04-09T14:43:07.416Z</time></trkpt><trkpt lat="42.8381965" lon="11.9624539"><ele>430.99999999999994</ele><time>2026-04-09T14:43:10.433Z</time></trkpt><trkpt lat="42.8381418" lon="11.9625152"><ele>431.0</ele><time>2026-04-09T14:43:13.4Z</time></trkpt><trkpt lat="42.8380599" lon="11.962563"><ele>431.0</ele><time>2026-04-09T14:43:15.431Z</time></trkpt><trkpt lat="42.8379874" lon="11.9625805"><ele>431.0</ele><time>2026-04-09T14:43:17.411Z</time></trkpt><trkpt lat="42.8379223" lon="11.9626316"><ele>430.99999999999994</ele><time>2026-04-09T14:43:19.41Z</time></trkpt><trkpt lat="42.8378404" lon="11.9627192"><ele>431.0</ele><time>2026-04-09T14:43:21.41Z</time></trkpt><trkpt lat="42.8377903" lon="11.9627912"><ele>429.8</ele><time>2026-04-09T14:43:22.405Z</time></trkpt><trkpt lat="42.837734" lon="11.9628803"><ele>428.6</ele><time>2026-04-09T14:43:23.398Z</time></trkpt><trkpt lat="42.8376678" lon="11.9629991"><ele>427.4</ele><time>2026-04-09T14:43:24.407Z</time></trkpt><trkpt lat="42.8376057" lon="11.9631199"><ele>426.2</ele><time>2026-04-09T14:43:25.397Z</time></trkpt><trkpt lat="42.8375481" lon="11.963221"><ele>425.0</ele><time>2026-04-09T14:43:26.405Z</time></trkpt><trkpt lat="42.8374906" lon="11.9633162"><ele>423.66666666666663</ele><time>2026-04-09T14:43:27.403Z</time></trkpt><trkpt lat="42.8374327" lon="11.9633957"><ele>422.3333333333333</ele><time>2026-04-09T14:43:28.401Z</time></trkpt><trkpt lat="42.8373789" lon="11.9634798"><ele>421.0</ele><time>2026-04-09T14:43:29.409Z</time></trkpt><trkpt lat="42.8373258" lon="11.9635719"><ele>419.66666666666663</ele><time>2026-04-09T14:43:30.403Z</time></trkpt><trkpt lat="42.8372651" lon="11.9636714"><ele>418.3333333333333</ele><time>2026-04-09T14:43:31.406Z</time></trkpt><trkpt lat="42.8372136" lon="11.963786"><ele>417.0</ele><time>2026-04-09T14:43:32.403Z</time></trkpt><trkpt lat="42.8371667" lon="11.9638811"><ele>417.0</ele><time>2026-04-09T14:43:33.403Z</time></trkpt><trkpt lat="42.8371213" lon="11.9639749"><ele>417.0</ele><time>2026-04-09T14:43:34.407Z</time></trkpt><trkpt lat="42.8370834" lon="11.964055"><ele>417.0</ele><time>2026-04-09T14:43:35.401Z</time></trkpt><trkpt lat="42.8370569" lon="11.964141"><ele>417.0</ele><time>2026-04-09T14:43:36.405Z</time></trkpt><trkpt lat="42.8370168" lon="11.9642269"><ele>417.0</ele><time>2026-04-09T14:43:37.409Z</time></trkpt><trkpt lat="42.8369776" lon="11.9643225"><ele>417.0</ele><time>2026-04-09T14:43:38.422Z</time></trkpt><trkpt lat="42.8369353" lon="11.9644194"><ele>416.8</ele><time>2026-04-09T14:43:39.404Z</time></trkpt><trkpt lat="42.8368967" lon="11.9645217"><ele>416.6</ele><time>2026-04-09T14:43:40.404Z</time></trkpt><trkpt lat="42.8368496" lon="11.9646197"><ele>416.40000000000003</ele><time>2026-04-09T14:43:41.424Z</time></trkpt><trkpt lat="42.8367904" lon="11.9647278"><ele>416.20000000000005</ele><time>2026-04-09T14:43:42.4Z</time></trkpt><trkpt lat="42.8367166" lon="11.9648559"><ele>416.0</ele><time>2026-04-09T14:43:43.397Z</time></trkpt><trkpt lat="42.8366461" lon="11.9649701"><ele>414.49999999999994</ele><time>2026-04-09T14:43:44.422Z</time></trkpt><trkpt lat="42.8365707" lon="11.9650635"><ele>413.0</ele><time>2026-04-09T14:43:45.401Z</time></trkpt><trkpt lat="42.8365049" lon="11.9651511"><ele>411.5</ele><time>2026-04-09T14:43:46.409Z</time></trkpt><trkpt lat="42.8364428" lon="11.965229"><ele>410.0</ele><time>2026-04-09T14:43:47.399Z</time></trkpt><trkpt lat="42.8363821" lon="11.9653072"><ele>408.49999999999994</ele><time>2026-04-09T14:43:48.406Z</time></trkpt><trkpt lat="42.8363242" lon="11.9653913"><ele>407.0</ele><time>2026-04-09T14:43:49.405Z</time></trkpt><trkpt lat="42.836266" lon="11.9654703"><ele>407.0</ele><time>2026-04-09T14:43:50.399Z</time></trkpt><trkpt lat="42.8362176" lon="11.9655448"><ele>407.0</ele><time>2026-04-09T14:43:51.402Z</time></trkpt><trkpt lat="42.8361824" lon="11.9656165"><ele>407.0</ele><time>2026-04-09T14:43:52.4Z</time></trkpt><trkpt lat="42.8361347" lon="11.9657728"><ele>407.0</ele><time>2026-04-09T14:43:54.407Z</time></trkpt><trkpt lat="42.8361073" lon="11.9659202"><ele>407.0</ele><time>2026-04-09T14:43:56.408Z</time></trkpt><trkpt lat="42.8361279" lon="11.9660634"><ele>400.0</ele><time>2026-04-09T14:43:58.408Z</time></trkpt><trkpt lat="42.8361554" lon="11.9661524"><ele>400.0</ele><time>2026-04-09T14:43:59.404Z</time></trkpt><trkpt lat="42.8361758" lon="11.9662411"><ele>400.0</ele><time>2026-04-09T14:44:00.406Z</time></trkpt><trkpt lat="42.8361944" lon="11.9663317"><ele>400.0</ele><time>2026-04-09T14:44:01.396Z</time></trkpt><trkpt lat="42.8362066" lon="11.9664979"><ele>400.0</ele><time>2026-04-09T14:44:03.403Z</time></trkpt></trkseg><trkseg><trkpt lat="42.7426524" lon="12.0731277"><ele>158.0</ele><time>2026-04-09T15:46:46.064Z</time></trkpt><trkpt lat="42.7426323" lon="12.0730421"><ele>158.0</ele><time>2026-04-09T15:50:08.385Z</time></trkpt><trkpt lat="42.7425361" lon="12.072985"><ele>158.0</ele><time>2026-04-09T15:50:14.408Z</time></trkpt><trkpt lat="42.7424592" lon="12.0730113"><ele>158.0</ele><time>2026-04-09T15:50:15.385Z</time></trkpt><trkpt lat="42.7423645" lon="12.0730842"><ele>158.0</ele><time>2026-04-09T15:50:16.376Z</time></trkpt><trkpt lat="42.742252" lon="12.0731716"><ele>158.0</ele><time>2026-04-09T15:50:17.377Z</time></trkpt><trkpt lat="42.7421295" lon="12.0732599"><ele>158.0</ele><time>2026-04-09T15:50:18.39Z</time></trkpt><trkpt lat="42.7420168" lon="12.0733488"><ele>158.0</ele><time>2026-04-09T15:50:19.37Z</time></trkpt><trkpt lat="42.7419065" lon="12.0734442"><ele>158.0</ele><time>2026-04-09T15:50:20.387Z</time></trkpt><trkpt lat="42.7417918" lon="12.0735492"><ele>157.0</ele><time>2026-04-09T15:50:21.378Z</time></trkpt><trkpt lat="42.7416767" lon="12.0736588"><ele>156.0</ele><time>2026-04-09T15:50:22.376Z</time></trkpt><trkpt lat="42.7415336" lon="12.0737951"><ele>155.0</ele><time>2026-04-09T15:50:23.381Z</time></trkpt><trkpt lat="42.7413883" lon="12.0739499"><ele>155.0</ele><time>2026-04-09T15:50:24.371Z</time></trkpt><trkpt lat="42.741231" lon="12.0740921"><ele>155.0</ele><time>2026-04-09T15:50:25.374Z</time></trkpt><trkpt lat="42.7410827" lon="12.0742457"><ele>155.0</ele><time>2026-04-09T15:50:26.4Z</time></trkpt><trkpt lat="42.7409376" lon="12.0743932"><ele>155.0</ele><time>2026-04-09T15:50:27.377Z</time></trkpt><trkpt lat="42.7408064" lon="12.0745313"><ele>155.0</ele><time>2026-04-09T15:50:28.381Z</time></trkpt><trkpt lat="42.740644" lon="12.0746844"><ele>155.0</ele><time>2026-04-09T15:50:29.38Z</time></trkpt><trkpt lat="42.7404718" lon="12.0748587"><ele>154.66666666666666</ele><time>2026-04-09T15:50:30.377Z</time></trkpt><trkpt lat="42.7403063" lon="12.0750287"><ele>154.33333333333334</ele><time>2026-04-09T15:50:31.376Z</time></trkpt><trkpt lat="42.7401624" lon="12.0751885"><ele>154.0</ele><time>2026-04-09T15:50:32.364Z</time></trkpt><trkpt lat="42.7400129" lon="12.0753612"><ele>154.0</ele><time>2026-04-09T15:50:33.386Z</time></trkpt><trkpt lat="42.7398767" lon="12.0755265"><ele>154.0</ele><time>2026-04-09T15:50:34.36Z</time></trkpt><trkpt lat="42.7397292" lon="12.0756659"><ele>154.0</ele><time>2026-04-09T15:50:35.374Z</time></trkpt><trkpt lat="42.7395743" lon="12.0757989"><ele>153.33333333333334</ele><time>2026-04-09T15:50:36.371Z</time></trkpt><trkpt lat="42.7394244" lon="12.0759214"><ele>152.66666666666666</ele><time>2026-04-09T15:50:37.37Z</time></trkpt><trkpt lat="42.7392755" lon="12.0760603"><ele>152.0</ele><time>2026-04-09T15:50:38.373Z</time></trkpt><trkpt lat="42.7391104" lon="12.076192"><ele>153.33333333333331</ele><time>2026-04-09T15:50:39.373Z</time></trkpt><trkpt lat="42.7389473" lon="12.0763312"><ele>154.66666666666666</ele><time>2026-04-09T15:50:40.376Z</time></trkpt><trkpt lat="42.7387908" lon="12.0764414"><ele>156.0</ele><time>2026-04-09T15:50:41.37Z</time></trkpt><trkpt lat="42.7386465" lon="12.0765483"><ele>155.66666666666666</ele><time>2026-04-09T15:50:42.375Z</time></trkpt><trkpt lat="42.7385103" lon="12.0766545"><ele>155.33333333333331</ele><time>2026-04-09T15:50:43.367Z</time></trkpt><trkpt lat="42.7383721" lon="12.0767711"><ele>155.0</ele><time>2026-04-09T15:50:44.378Z</time></trkpt><trkpt lat="42.738236" lon="12.0768904"><ele>155.0</ele><time>2026-04-09T15:50:45.358Z</time></trkpt><trkpt lat="42.7380845" lon="12.0770274"><ele>155.0</ele><time>2026-04-09T15:50:46.369Z</time></trkpt><trkpt lat="42.7379348" lon="12.0771802"><ele>155.0</ele><time>2026-04-09T15:50:47.371Z</time></trkpt><trkpt lat="42.737768" lon="12.0773597"><ele>154.0</ele><time>2026-04-09T15:50:48.373Z</time></trkpt><trkpt lat="42.7375948" lon="12.0775224"><ele>153.0</ele><time>2026-04-09T15:50:49.377Z</time></trkpt><trkpt lat="42.7374311" lon="12.0776841"><ele>152.0</ele><time>2026-04-09T15:50:50.373Z</time></trkpt><trkpt lat="42.7372872" lon="12.0778562"><ele>152.0</ele><time>2026-04-09T15:50:51.377Z</time></trkpt><trkpt lat="42.7371677" lon="12.0780148"><ele>152.0</ele><time>2026-04-09T15:50:52.368Z</time></trkpt><trkpt lat="42.7370516" lon="12.0782019"><ele>152.0</ele><time>2026-04-09T15:50:53.384Z</time></trkpt><trkpt lat="42.7369293" lon="12.078428"><ele>152.66666666666666</ele><time>2026-04-09T15:50:54.374Z</time></trkpt><trkpt lat="42.7368117" lon="12.078666"><ele>153.33333333333334</ele><time>2026-04-09T15:50:55.377Z</time></trkpt><trkpt lat="42.7366855" lon="12.0788846"><ele>154.0</ele><time>2026-04-09T15:50:56.379Z</time></trkpt><trkpt lat="42.7365663" lon="12.0790913"><ele>154.0</ele><time>2026-04-09T15:50:57.382Z</time></trkpt><trkpt lat="42.7364419" lon="12.0793048"><ele>154.0</ele><time>2026-04-09T15:50:58.372Z</time></trkpt><trkpt lat="42.7363183" lon="12.0795232"><ele>154.0</ele><time>2026-04-09T15:50:59.464Z</time></trkpt><trkpt lat="42.7362201" lon="12.079691"><ele>154.0</ele><time>2026-04-09T15:51:00.396Z</time></trkpt><trkpt lat="42.7361259" lon="12.0798542"><ele>154.0</ele><time>2026-04-09T15:51:01.369Z</time></trkpt><trkpt lat="42.736046" lon="12.0800276"><ele>154.0</ele><time>2026-04-09T15:51:02.38Z</time></trkpt><trkpt lat="42.7359608" lon="12.0802176"><ele>154.0</ele><time>2026-04-09T15:51:03.379Z</time></trkpt><trkpt lat="42.7358434" lon="12.0804309"><ele>154.0</ele><time>2026-04-09T15:51:04.381Z</time></trkpt><trkpt lat="42.7357289" lon="12.0806693"><ele>154.0</ele><time>2026-04-09T15:51:05.372Z</time></trkpt><trkpt lat="42.7356045" lon="12.0809168"><ele>154.0</ele><time>2026-04-09T15:51:06.367Z</time></trkpt><trkpt lat="42.73547" lon="12.0811596"><ele>154.0</ele><time>2026-04-09T15:51:07.36Z</time></trkpt><trkpt lat="42.7353427" lon="12.081398"><ele>154.0</ele><time>2026-04-09T15:51:08.37Z</time></trkpt><trkpt lat="42.7352144" lon="12.0816407"><ele>153.5</ele><time>2026-04-09T15:51:09.367Z</time></trkpt><trkpt lat="42.73508" lon="12.0819122"><ele>153.0</ele><time>2026-04-09T15:51:10.364Z</time></trkpt><trkpt lat="42.7349466" lon="12.0821594"><ele>153.0</ele><time>2026-04-09T15:51:11.369Z</time></trkpt><trkpt lat="42.7348337" lon="12.0823925"><ele>153.0</ele><time>2026-04-09T15:51:12.37Z</time></trkpt><trkpt lat="42.7347127" lon="12.082613"><ele>153.0</ele><time>2026-04-09T15:51:13.381Z</time></trkpt><trkpt lat="42.734587" lon="12.0828464"><ele>152.66666666666666</ele><time>2026-04-09T15:51:14.374Z</time></trkpt><trkpt lat="42.7344707" lon="12.0830964"><ele>152.33333333333331</ele><time>2026-04-09T15:51:15.375Z</time></trkpt><trkpt lat="42.734357" lon="12.0833164"><ele>152.0</ele><time>2026-04-09T15:51:16.38Z</time></trkpt><trkpt lat="42.7342497" lon="12.0835379"><ele>152.0</ele><time>2026-04-09T15:51:17.372Z</time></trkpt><trkpt lat="42.7341481" lon="12.0837353"><ele>152.0</ele><time>2026-04-09T15:51:18.375Z</time></trkpt><trkpt lat="42.7340628" lon="12.0839133"><ele>152.0</ele><time>2026-04-09T15:51:19.377Z</time></trkpt><trkpt lat="42.7340144" lon="12.0840982"><ele>151.66666666666666</ele><time>2026-04-09T15:51:20.373Z</time></trkpt><trkpt lat="42.7339608" lon="12.0843067"><ele>151.33333333333334</ele><time>2026-04-09T15:51:21.374Z</time></trkpt><trkpt lat="42.7338881" lon="12.0844931"><ele>151.0</ele><time>2026-04-09T15:51:22.369Z</time></trkpt><trkpt lat="42.7338467" lon="12.084708"><ele>150.66666666666669</ele><time>2026-04-09T15:51:23.384Z</time></trkpt><trkpt lat="42.7338125" lon="12.0849326"><ele>150.33333333333334</ele><time>2026-04-09T15:51:24.375Z</time></trkpt><trkpt lat="42.7337696" lon="12.0851593"><ele>150.0</ele><time>2026-04-09T15:51:25.377Z</time></trkpt><trkpt lat="42.7337346" lon="12.0853802"><ele>150.0</ele><time>2026-04-09T15:51:26.371Z</time></trkpt><trkpt lat="42.7337004" lon="12.0855961"><ele>150.0</ele><time>2026-04-09T15:51:27.383Z</time></trkpt><trkpt lat="42.7336541" lon="12.0858166"><ele>150.0</ele><time>2026-04-09T15:51:28.369Z</time></trkpt><trkpt lat="42.7335616" lon="12.0860427"><ele>152.0</ele><time>2026-04-09T15:51:29.373Z</time></trkpt><trkpt lat="42.7334771" lon="12.0862225"><ele>154.0</ele><time>2026-04-09T15:51:30.368Z</time></trkpt><trkpt lat="42.7333921" lon="12.0864027"><ele>156.0</ele><time>2026-04-09T15:51:31.359Z</time></trkpt><trkpt lat="42.7333177" lon="12.0865776"><ele>155.0</ele><time>2026-04-09T15:51:32.357Z</time></trkpt><trkpt lat="42.7332484" lon="12.086748"><ele>154.0</ele><time>2026-04-09T15:51:33.368Z</time></trkpt><trkpt lat="42.7331809" lon="12.0869575"><ele>153.0</ele><time>2026-04-09T15:51:34.37Z</time></trkpt><trkpt lat="42.7330946" lon="12.0871597"><ele>153.0</ele><time>2026-04-09T15:51:35.372Z</time></trkpt><trkpt lat="42.7329676" lon="12.0874074"><ele>153.0</ele><time>2026-04-09T15:51:36.374Z</time></trkpt><trkpt lat="42.7328339" lon="12.0876727"><ele>154.0</ele><time>2026-04-09T15:51:37.361Z</time></trkpt><trkpt lat="42.7326979" lon="12.087897"><ele>155.0</ele><time>2026-04-09T15:51:38.372Z</time></trkpt><trkpt lat="42.732547" lon="12.0881386"><ele>156.0</ele><time>2026-04-09T15:51:39.373Z</time></trkpt><trkpt lat="42.7323768" lon="12.0883822"><ele>156.5</ele><time>2026-04-09T15:51:40.369Z</time></trkpt><trkpt lat="42.7322098" lon="12.0886242"><ele>157.0</ele><time>2026-04-09T15:51:41.371Z</time></trkpt><trkpt lat="42.7320727" lon="12.0888334"><ele>157.0</ele><time>2026-04-09T15:51:42.369Z</time></trkpt><trkpt lat="42.7319415" lon="12.0890443"><ele>157.0</ele><time>2026-04-09T15:51:43.364Z</time></trkpt><trkpt lat="42.7318073" lon="12.089254"><ele>157.0</ele><time>2026-04-09T15:51:44.373Z</time></trkpt><trkpt lat="42.7316767" lon="12.0894466"><ele>157.33333333333334</ele><time>2026-04-09T15:51:45.372Z</time></trkpt><trkpt lat="42.7315488" lon="12.0896429"><ele>157.66666666666666</ele><time>2026-04-09T15:51:46.373Z</time></trkpt><trkpt lat="42.7314154" lon="12.0898366"><ele>158.0</ele><time>2026-04-09T15:51:47.375Z</time></trkpt><trkpt lat="42.7312761" lon="12.0900264"><ele>156.33333333333331</ele><time>2026-04-09T15:51:48.366Z</time></trkpt><trkpt lat="42.7311341" lon="12.0901966"><ele>154.66666666666666</ele><time>2026-04-09T15:51:49.375Z</time></trkpt><trkpt lat="42.7310064" lon="12.0903411"><ele>153.0</ele><time>2026-04-09T15:51:50.368Z</time></trkpt><trkpt lat="42.7308765" lon="12.0904818"><ele>152.66666666666666</ele><time>2026-04-09T15:51:51.371Z</time></trkpt><trkpt lat="42.7307426" lon="12.0906451"><ele>152.33333333333331</ele><time>2026-04-09T15:51:52.381Z</time></trkpt><trkpt lat="42.7306247" lon="12.0907829"><ele>152.0</ele><time>2026-04-09T15:51:53.384Z</time></trkpt><trkpt lat="42.7305165" lon="12.0909077"><ele>151.75</ele><time>2026-04-09T15:51:54.377Z</time></trkpt><trkpt lat="42.7304169" lon="12.0910403"><ele>151.5</ele><time>2026-04-09T15:51:55.378Z</time></trkpt><trkpt lat="42.7303201" lon="12.0911684"><ele>151.25</ele><time>2026-04-09T15:51:56.376Z</time></trkpt><trkpt lat="42.7302157" lon="12.0912997"><ele>151.0</ele><time>2026-04-09T15:51:57.377Z</time></trkpt><trkpt lat="42.7301099" lon="12.0914333"><ele>150.66666666666669</ele><time>2026-04-09T15:51:58.372Z</time></trkpt><trkpt lat="42.7299988" lon="12.0915715"><ele>150.33333333333334</ele><time>2026-04-09T15:51:59.379Z</time></trkpt><trkpt lat="42.7298693" lon="12.0916913"><ele>150.0</ele><time>2026-04-09T15:52:00.368Z</time></trkpt><trkpt lat="42.7297305" lon="12.0917987"><ele>150.0</ele><time>2026-04-09T15:52:01.38Z</time></trkpt><trkpt lat="42.7295889" lon="12.091896"><ele>150.0</ele><time>2026-04-09T15:52:02.374Z</time></trkpt><trkpt lat="42.7294619" lon="12.0919799"><ele>150.0</ele><time>2026-04-09T15:52:03.379Z</time></trkpt><trkpt lat="42.7293304" lon="12.0920594"><ele>150.0</ele><time>2026-04-09T15:52:04.375Z</time></trkpt><trkpt lat="42.7291928" lon="12.0921339"><ele>149.25</ele><time>2026-04-09T15:52:05.373Z</time></trkpt><trkpt lat="42.7290694" lon="12.092212"><ele>148.5</ele><time>2026-04-09T15:52:06.38Z</time></trkpt><trkpt lat="42.7289705" lon="12.0922833"><ele>147.75</ele><time>2026-04-09T15:52:07.382Z</time></trkpt><trkpt lat="42.7288559" lon="12.0923844"><ele>147.0</ele><time>2026-04-09T15:52:08.374Z</time></trkpt><trkpt lat="42.7287348" lon="12.0924978"><ele>147.0</ele><time>2026-04-09T15:52:09.381Z</time></trkpt><trkpt lat="42.7285844" lon="12.0926479"><ele>147.0</ele><time>2026-04-09T15:52:10.366Z</time></trkpt><trkpt lat="42.7284166" lon="12.0928176"><ele>147.0</ele><time>2026-04-09T15:52:11.378Z</time></trkpt><trkpt lat="42.7282483" lon="12.0929664"><ele>147.0</ele><time>2026-04-09T15:52:12.367Z</time></trkpt><trkpt lat="42.728098" lon="12.093093"><ele>147.0</ele><time>2026-04-09T15:52:13.375Z</time></trkpt><trkpt lat="42.7279549" lon="12.0931951"><ele>147.0</ele><time>2026-04-09T15:52:14.375Z</time></trkpt><trkpt lat="42.7278011" lon="12.0932988"><ele>147.0</ele><time>2026-04-09T15:52:15.371Z</time></trkpt><trkpt lat="42.727655" lon="12.0934185"><ele>147.0</ele><time>2026-04-09T15:52:16.372Z</time></trkpt><trkpt lat="42.7275061" lon="12.0935213"><ele>147.0</ele><time>2026-04-09T15:52:17.376Z</time></trkpt><trkpt lat="42.7273969" lon="12.0936347"><ele>147.0</ele><time>2026-04-09T15:52:18.375Z</time></trkpt><trkpt lat="42.7272682" lon="12.0937169"><ele>147.0</ele><time>2026-04-09T15:52:19.379Z</time></trkpt><trkpt lat="42.7271417" lon="12.0938067"><ele>147.0</ele><time>2026-04-09T15:52:20.372Z</time></trkpt><trkpt lat="42.7270409" lon="12.0939064"><ele>147.0</ele><time>2026-04-09T15:52:21.373Z</time></trkpt><trkpt lat="42.7269741" lon="12.0939958"><ele>147.0</ele><time>2026-04-09T15:52:22.378Z</time></trkpt><trkpt lat="42.7269044" lon="12.0940226"><ele>147.0</ele><time>2026-04-09T15:52:23.377Z</time></trkpt><trkpt lat="42.7268262" lon="12.0939808"><ele>147.0</ele><time>2026-04-09T15:52:25.383Z</time></trkpt><trkpt lat="42.7267447" lon="12.0939788"><ele>147.0</ele><time>2026-04-09T15:52:28.374Z</time></trkpt><trkpt lat="42.7266583" lon="12.0940379"><ele>147.0</ele><time>2026-04-09T15:52:30.375Z</time></trkpt><trkpt lat="42.7265934" lon="12.0941155"><ele>147.0</ele><time>2026-04-09T15:52:32.379Z</time></trkpt><trkpt lat="42.7264951" lon="12.0942021"><ele>146.79999999999998</ele><time>2026-04-09T15:52:34.371Z</time></trkpt><trkpt lat="42.7264266" lon="12.0942418"><ele>146.6</ele><time>2026-04-09T15:52:35.38Z</time></trkpt><trkpt lat="42.7263361" lon="12.0942881"><ele>146.39999999999998</ele><time>2026-04-09T15:52:36.371Z</time></trkpt><trkpt lat="42.7262319" lon="12.0943464"><ele>146.2</ele><time>2026-04-09T15:52:37.379Z</time></trkpt><trkpt lat="42.7261246" lon="12.0944048"><ele>146.0</ele><time>2026-04-09T15:52:38.362Z</time></trkpt><trkpt lat="42.7260305" lon="12.0944424"><ele>147.0</ele><time>2026-04-09T15:52:39.364Z</time></trkpt><trkpt lat="42.7259391" lon="12.094459"><ele>148.0</ele><time>2026-04-09T15:52:40.357Z</time></trkpt><trkpt lat="42.725853" lon="12.0944679"><ele>149.0</ele><time>2026-04-09T15:52:41.371Z</time></trkpt><trkpt lat="42.7257702" lon="12.0944559"><ele>150.0</ele><time>2026-04-09T15:52:42.353Z</time></trkpt><trkpt lat="42.725673" lon="12.0944167"><ele>151.0</ele><time>2026-04-09T15:52:43.357Z</time></trkpt><trkpt lat="42.7255558" lon="12.0943611"><ele>151.0</ele><time>2026-04-09T15:52:44.351Z</time></trkpt><trkpt lat="42.7254357" lon="12.0943092"><ele>151.0</ele><time>2026-04-09T15:52:45.363Z</time></trkpt><trkpt lat="42.7253245" lon="12.0942618"><ele>151.0</ele><time>2026-04-09T15:52:46.344Z</time></trkpt><trkpt lat="42.72521" lon="12.0942179"><ele>151.0</ele><time>2026-04-09T15:52:47.442Z</time></trkpt><trkpt lat="42.7250923" lon="12.0941819"><ele>151.0</ele><time>2026-04-09T15:52:48.356Z</time></trkpt><trkpt lat="42.7249753" lon="12.0941382"><ele>151.0</ele><time>2026-04-09T15:52:49.362Z</time></trkpt><trkpt lat="42.724861" lon="12.0940975"><ele>151.0</ele><time>2026-04-09T15:52:50.368Z</time></trkpt><trkpt lat="42.7247532" lon="12.0940572"><ele>151.0</ele><time>2026-04-09T15:52:51.369Z</time></trkpt><trkpt lat="42.7246457" lon="12.0940125"><ele>151.5</ele><time>2026-04-09T15:52:52.366Z</time></trkpt><trkpt lat="42.724533" lon="12.0939637"><ele>152.0</ele><time>2026-04-09T15:52:53.366Z</time></trkpt><trkpt lat="42.7244169" lon="12.0939115"><ele>152.5</ele><time>2026-04-09T15:52:54.365Z</time></trkpt><trkpt lat="42.7242972" lon="12.0938504"><ele>153.0</ele><time>2026-04-09T15:52:55.366Z</time></trkpt><trkpt lat="42.7241769" lon="12.0937823"><ele>153.0</ele><time>2026-04-09T15:52:56.376Z</time></trkpt><trkpt lat="42.7240595" lon="12.0937053"><ele>153.0</ele><time>2026-04-09T15:52:57.395Z</time></trkpt><trkpt lat="42.7239483" lon="12.09362"><ele>153.0</ele><time>2026-04-09T15:52:58.387Z</time></trkpt><trkpt lat="42.7238383" lon="12.0935106"><ele>153.0</ele><time>2026-04-09T15:52:59.53Z</time></trkpt><trkpt lat="42.7235811" lon="12.0932448"><ele>154.33333333333334</ele><time>2026-04-09T15:53:01.367Z</time></trkpt><trkpt lat="42.7234338" lon="12.0930931"><ele>155.66666666666669</ele><time>2026-04-09T15:53:02.371Z</time></trkpt><trkpt lat="42.723281" lon="12.0929643"><ele>157.0</ele><time>2026-04-09T15:53:03.371Z</time></trkpt><trkpt lat="42.7231181" lon="12.0928461"><ele>157.0</ele><time>2026-04-09T15:53:04.386Z</time></trkpt><trkpt lat="42.7229616" lon="12.0927444"><ele>157.0</ele><time>2026-04-09T15:53:05.373Z</time></trkpt><trkpt lat="42.7228195" lon="12.0926651"><ele>157.0</ele><time>2026-04-09T15:53:06.395Z</time></trkpt><trkpt lat="42.7226919" lon="12.0925921"><ele>157.0</ele><time>2026-04-09T15:53:07.388Z</time></trkpt><trkpt lat="42.7225575" lon="12.0925328"><ele>157.0</ele><time>2026-04-09T15:53:08.381Z</time></trkpt><trkpt lat="42.7224309" lon="12.0924677"><ele>157.0</ele><time>2026-04-09T15:53:09.363Z</time></trkpt><trkpt lat="42.7223082" lon="12.0924099"><ele>157.0</ele><time>2026-04-09T15:53:10.362Z</time></trkpt><trkpt lat="42.7221865" lon="12.0923333"><ele>158.0</ele><time>2026-04-09T15:53:11.378Z</time></trkpt><trkpt lat="42.7220525" lon="12.0922592"><ele>159.0</ele><time>2026-04-09T15:53:12.364Z</time></trkpt><trkpt lat="42.7219265" lon="12.0921544"><ele>160.0</ele><time>2026-04-09T15:53:13.355Z</time></trkpt><trkpt lat="42.7217989" lon="12.0920254"><ele>160.0</ele><time>2026-04-09T15:53:14.373Z</time></trkpt><trkpt lat="42.721692" lon="12.0918814"><ele>160.0</ele><time>2026-04-09T15:53:15.363Z</time></trkpt><trkpt lat="42.7216022" lon="12.091707"><ele>160.0</ele><time>2026-04-09T15:53:16.387Z</time></trkpt><trkpt lat="42.7215082" lon="12.0915528"><ele>161.0</ele><time>2026-04-09T15:53:17.358Z</time></trkpt><trkpt lat="42.7214082" lon="12.0914201"><ele>162.0</ele><time>2026-04-09T15:53:18.363Z</time></trkpt><trkpt lat="42.7213107" lon="12.0912829"><ele>163.0</ele><time>2026-04-09T15:53:19.369Z</time></trkpt><trkpt lat="42.7211994" lon="12.0911813"><ele>164.0</ele><time>2026-04-09T15:53:20.365Z</time></trkpt><trkpt lat="42.7210666" lon="12.0910767"><ele>164.33333333333331</ele><time>2026-04-09T15:53:21.369Z</time></trkpt><trkpt lat="42.7208967" lon="12.0910025"><ele>164.66666666666666</ele><time>2026-04-09T15:53:22.37Z</time></trkpt><trkpt lat="42.7207245" lon="12.090916"><ele>165.0</ele><time>2026-04-09T15:53:23.528Z</time></trkpt><trkpt lat="42.720438" lon="12.0906863"><ele>165.0</ele><time>2026-04-09T15:53:25.361Z</time></trkpt><trkpt lat="42.7203276" lon="12.0905777"><ele>165.0</ele><time>2026-04-09T15:53:26.393Z</time></trkpt><trkpt lat="42.7202303" lon="12.0904185"><ele>165.0</ele><time>2026-04-09T15:53:27.365Z</time></trkpt><trkpt lat="42.7201394" lon="12.0902293"><ele>165.25</ele><time>2026-04-09T15:53:28.388Z</time></trkpt><trkpt lat="42.7200561" lon="12.0900453"><ele>165.5</ele><time>2026-04-09T15:53:29.366Z</time></trkpt><trkpt lat="42.7199773" lon="12.0898756"><ele>165.75</ele><time>2026-04-09T15:53:30.368Z</time></trkpt><trkpt lat="42.7199047" lon="12.0897323"><ele>166.0</ele><time>2026-04-09T15:53:31.367Z</time></trkpt><trkpt lat="42.7198609" lon="12.0895718"><ele>166.5</ele><time>2026-04-09T15:53:32.371Z</time></trkpt><trkpt lat="42.7198341" lon="12.0894411"><ele>167.0</ele><time>2026-04-09T15:53:33.359Z</time></trkpt><trkpt lat="42.7198411" lon="12.089293"><ele>167.5</ele><time>2026-04-09T15:53:34.37Z</time></trkpt><trkpt lat="42.7198756" lon="12.089154"><ele>168.0</ele><time>2026-04-09T15:53:35.371Z</time></trkpt><trkpt lat="42.7199482" lon="12.0889844"><ele>168.5</ele><time>2026-04-09T15:53:36.371Z</time></trkpt><trkpt lat="42.720017" lon="12.0888305"><ele>169.0</ele><time>2026-04-09T15:53:37.36Z</time></trkpt><trkpt lat="42.7200789" lon="12.0886911"><ele>169.5</ele><time>2026-04-09T15:53:38.369Z</time></trkpt><trkpt lat="42.7201456" lon="12.0885733"><ele>170.0</ele><time>2026-04-09T15:53:39.369Z</time></trkpt><trkpt lat="42.720202" lon="12.0884641"><ele>170.4</ele><time>2026-04-09T15:53:40.377Z</time></trkpt><trkpt lat="42.7202429" lon="12.0883623"><ele>170.8</ele><time>2026-04-09T15:53:41.368Z</time></trkpt><trkpt lat="42.7202521" lon="12.088266"><ele>171.2</ele><time>2026-04-09T15:53:42.372Z</time></trkpt><trkpt lat="42.7202323" lon="12.0881444"><ele>171.6</ele><time>2026-04-09T15:53:43.364Z</time></trkpt><trkpt lat="42.7201893" lon="12.0880199"><ele>172.0</ele><time>2026-04-09T15:53:44.388Z</time></trkpt><trkpt lat="42.7201012" lon="12.0879246"><ele>172.75</ele><time>2026-04-09T15:53:45.365Z</time></trkpt><trkpt lat="42.7199843" lon="12.0878475"><ele>173.5</ele><time>2026-04-09T15:53:46.36Z</time></trkpt><trkpt lat="42.7198578" lon="12.0877676"><ele>174.25</ele><time>2026-04-09T15:53:47.365Z</time></trkpt><trkpt lat="42.7197375" lon="12.0876968"><ele>175.0</ele><time>2026-04-09T15:53:48.363Z</time></trkpt><trkpt lat="42.7196485" lon="12.0876182"><ele>175.0</ele><time>2026-04-09T15:53:49.361Z</time></trkpt><trkpt lat="42.7195915" lon="12.0875209"><ele>175.0</ele><time>2026-04-09T15:53:50.362Z</time></trkpt><trkpt lat="42.7195597" lon="12.0874203"><ele>175.0</ele><time>2026-04-09T15:53:51.369Z</time></trkpt><trkpt lat="42.7195564" lon="12.0872926"><ele>175.0</ele><time>2026-04-09T15:53:52.361Z</time></trkpt><trkpt lat="42.7195735" lon="12.0871492"><ele>175.0</ele><time>2026-04-09T15:53:53.369Z</time></trkpt><trkpt lat="42.7195839" lon="12.0869911"><ele>176.25</ele><time>2026-04-09T15:53:54.366Z</time></trkpt><trkpt lat="42.719571" lon="12.086819"><ele>177.5</ele><time>2026-04-09T15:53:55.368Z</time></trkpt><trkpt lat="42.7195445" lon="12.086625"><ele>178.75</ele><time>2026-04-09T15:53:56.372Z</time></trkpt><trkpt lat="42.7195019" lon="12.0864307"><ele>180.0</ele><time>2026-04-09T15:53:57.366Z</time></trkpt><trkpt lat="42.719429" lon="12.0861984"><ele>179.33333333333334</ele><time>2026-04-09T15:53:58.381Z</time></trkpt><trkpt lat="42.719379" lon="12.085943"><ele>178.66666666666669</ele><time>2026-04-09T15:53:59.388Z</time></trkpt><trkpt lat="42.7193313" lon="12.0856888"><ele>178.0</ele><time>2026-04-09T15:54:00.383Z</time></trkpt><trkpt lat="42.7192718" lon="12.0854897"><ele>179.0</ele><time>2026-04-09T15:54:01.375Z</time></trkpt><trkpt lat="42.7192218" lon="12.0853285"><ele>180.0</ele><time>2026-04-09T15:54:02.369Z</time></trkpt><trkpt lat="42.7192071" lon="12.0851924"><ele>181.0</ele><time>2026-04-09T15:54:03.362Z</time></trkpt><trkpt lat="42.7191793" lon="12.0850471"><ele>182.0</ele><time>2026-04-09T15:54:04.372Z</time></trkpt><trkpt lat="42.7191515" lon="12.0849139"><ele>183.0</ele><time>2026-04-09T15:54:05.364Z</time></trkpt><trkpt lat="42.7191377" lon="12.0847901"><ele>183.5</ele><time>2026-04-09T15:54:06.378Z</time></trkpt><trkpt lat="42.7191805" lon="12.0846807"><ele>184.0</ele><time>2026-04-09T15:54:07.395Z</time></trkpt><trkpt lat="42.7192286" lon="12.0845414"><ele>184.5</ele><time>2026-04-09T15:54:08.364Z</time></trkpt><trkpt lat="42.7192896" lon="12.0843667"><ele>185.0</ele><time>2026-04-09T15:54:09.373Z</time></trkpt><trkpt lat="42.7193455" lon="12.0841673"><ele>189.33333333333331</ele><time>2026-04-09T15:54:10.378Z</time></trkpt><trkpt lat="42.7194393" lon="12.0839169"><ele>193.66666666666666</ele><time>2026-04-09T15:54:11.365Z</time></trkpt><trkpt lat="42.7195145" lon="12.0836876"><ele>198.0</ele><time>2026-04-09T15:54:12.38Z</time></trkpt><trkpt lat="42.7195661" lon="12.0834707"><ele>198.0</ele><time>2026-04-09T15:54:13.368Z</time></trkpt><trkpt lat="42.7196377" lon="12.083253"><ele>198.0</ele><time>2026-04-09T15:54:14.364Z</time></trkpt><trkpt lat="42.7197071" lon="12.083064"><ele>198.0</ele><time>2026-04-09T15:54:15.367Z</time></trkpt><trkpt lat="42.7197292" lon="12.0829708"><ele>198.0</ele><time>2026-04-09T15:54:16.362Z</time></trkpt><trkpt lat="42.7196576" lon="12.0829617"><ele>198.0</ele><time>2026-04-09T15:54:19.361Z</time></trkpt><trkpt lat="42.7196369" lon="12.0827893"><ele>198.0</ele><time>2026-04-09T15:54:21.358Z</time></trkpt><trkpt lat="42.719607" lon="12.0826389"><ele>198.0</ele><time>2026-04-09T15:54:23.364Z</time></trkpt><trkpt lat="42.7195602" lon="12.0825802"><ele>198.0</ele><time>2026-04-09T15:54:25.376Z</time></trkpt><trkpt lat="42.7194378" lon="12.0825613"><ele>198.0</ele><time>2026-04-09T15:54:27.364Z</time></trkpt><trkpt lat="42.7193587" lon="12.0825467"><ele>196.4</ele><time>2026-04-09T15:54:28.386Z</time></trkpt><trkpt lat="42.7192841" lon="12.0825146"><ele>194.8</ele><time>2026-04-09T15:54:29.389Z</time></trkpt><trkpt lat="42.7192133" lon="12.0824554"><ele>193.2</ele><time>2026-04-09T15:54:30.361Z</time></trkpt><trkpt lat="42.719156" lon="12.0823864"><ele>191.6</ele><time>2026-04-09T15:54:31.364Z</time></trkpt><trkpt lat="42.7190641" lon="12.0822778"><ele>190.0</ele><time>2026-04-09T15:54:33.38Z</time></trkpt><trkpt lat="42.7189784" lon="12.0822178"><ele>190.0</ele><time>2026-04-09T15:54:35.367Z</time></trkpt><trkpt lat="42.7189113" lon="12.0822269"><ele>190.0</ele><time>2026-04-09T15:54:36.364Z</time></trkpt><trkpt lat="42.7188326" lon="12.0822292"><ele>190.0</ele><time>2026-04-09T15:54:37.362Z</time></trkpt><trkpt lat="42.7187309" lon="12.0821861"><ele>190.0</ele><time>2026-04-09T15:54:39.366Z</time></trkpt><trkpt lat="42.7186834" lon="12.0820711"><ele>190.0</ele><time>2026-04-09T15:54:41.38Z</time></trkpt><trkpt lat="42.7186838" lon="12.0819608"><ele>190.0</ele><time>2026-04-09T15:54:42.371Z</time></trkpt><trkpt lat="42.7186795" lon="12.0818534"><ele>190.0</ele><time>2026-04-09T15:54:43.363Z</time></trkpt><trkpt lat="42.7186562" lon="12.0817243"><ele>190.0</ele><time>2026-04-09T15:54:44.37Z</time></trkpt><trkpt lat="42.7186173" lon="12.0816033"><ele>190.0</ele><time>2026-04-09T15:54:45.368Z</time></trkpt><trkpt lat="42.7185799" lon="12.0814935"><ele>190.0</ele><time>2026-04-09T15:54:46.367Z</time></trkpt><trkpt lat="42.718552" lon="12.0813834"><ele>190.0</ele><time>2026-04-09T15:54:47.37Z</time></trkpt><trkpt lat="42.7185254" lon="12.081272"><ele>190.6</ele><time>2026-04-09T15:54:48.364Z</time></trkpt><trkpt lat="42.71849" lon="12.0811604"><ele>191.2</ele><time>2026-04-09T15:54:49.37Z</time></trkpt><trkpt lat="42.7184668" lon="12.0810412"><ele>191.8</ele><time>2026-04-09T15:54:50.367Z</time></trkpt><trkpt lat="42.7184476" lon="12.0809165"><ele>192.4</ele><time>2026-04-09T15:54:51.361Z</time></trkpt><trkpt lat="42.7184331" lon="12.0807889"><ele>193.0</ele><time>2026-04-09T15:54:52.368Z</time></trkpt><trkpt lat="42.718413" lon="12.0806614"><ele>193.60000000000002</ele><time>2026-04-09T15:54:53.368Z</time></trkpt><trkpt lat="42.7183958" lon="12.0805495"><ele>194.20000000000002</ele><time>2026-04-09T15:54:54.371Z</time></trkpt><trkpt lat="42.718386" lon="12.0804386"><ele>194.8</ele><time>2026-04-09T15:54:55.387Z</time></trkpt><trkpt lat="42.7183731" lon="12.0803395"><ele>195.4</ele><time>2026-04-09T15:54:56.39Z</time></trkpt><trkpt lat="42.7183293" lon="12.0801928"><ele>196.0</ele><time>2026-04-09T15:54:58.378Z</time></trkpt><trkpt lat="42.7182433" lon="12.0800691"><ele>196.0</ele><time>2026-04-09T15:55:00.362Z</time></trkpt><trkpt lat="42.7181716" lon="12.0800059"><ele>196.0</ele><time>2026-04-09T15:55:01.365Z</time></trkpt><trkpt lat="42.7180931" lon="12.0799244"><ele>196.0</ele><time>2026-04-09T15:55:02.368Z</time></trkpt><trkpt lat="42.7180309" lon="12.0798206"><ele>196.0</ele><time>2026-04-09T15:55:03.359Z</time></trkpt><trkpt lat="42.7179723" lon="12.0797068"><ele>196.0</ele><time>2026-04-09T15:55:04.375Z</time></trkpt><trkpt lat="42.7179235" lon="12.0795861"><ele>197.8</ele><time>2026-04-09T15:55:05.372Z</time></trkpt><trkpt lat="42.7178717" lon="12.079456"><ele>199.60000000000002</ele><time>2026-04-09T15:55:06.372Z</time></trkpt><trkpt lat="42.717828" lon="12.0793175"><ele>201.4</ele><time>2026-04-09T15:55:07.376Z</time></trkpt><trkpt lat="42.7177852" lon="12.079189"><ele>203.2</ele><time>2026-04-09T15:55:08.372Z</time></trkpt><trkpt lat="42.7177485" lon="12.0790611"><ele>205.0</ele><time>2026-04-09T15:55:09.364Z</time></trkpt><trkpt lat="42.717711" lon="12.0789421"><ele>207.4</ele><time>2026-04-09T15:55:10.38Z</time></trkpt><trkpt lat="42.7176733" lon="12.0788177"><ele>209.8</ele><time>2026-04-09T15:55:11.374Z</time></trkpt><trkpt lat="42.7176319" lon="12.0786812"><ele>212.2</ele><time>2026-04-09T15:55:12.389Z</time></trkpt><trkpt lat="42.7175856" lon="12.078544"><ele>214.6</ele><time>2026-04-09T15:55:13.371Z</time></trkpt><trkpt lat="42.7175411" lon="12.0784001"><ele>217.0</ele><time>2026-04-09T15:55:14.373Z</time></trkpt><trkpt lat="42.7175026" lon="12.0782578"><ele>218.8</ele><time>2026-04-09T15:55:15.374Z</time></trkpt><trkpt lat="42.7174644" lon="12.0781184"><ele>220.6</ele><time>2026-04-09T15:55:16.373Z</time></trkpt><trkpt lat="42.7174184" lon="12.0779861"><ele>222.40000000000003</ele><time>2026-04-09T15:55:17.382Z</time></trkpt><trkpt lat="42.7173687" lon="12.0778521"><ele>224.20000000000002</ele><time>2026-04-09T15:55:18.372Z</time></trkpt><trkpt lat="42.7173192" lon="12.0777167"><ele>226.0</ele><time>2026-04-09T15:55:19.366Z</time></trkpt><trkpt lat="42.7172651" lon="12.0775753"><ele>225.99999999999997</ele><time>2026-04-09T15:55:20.377Z</time></trkpt><trkpt lat="42.717219" lon="12.0774549"><ele>226.0</ele><time>2026-04-09T15:55:21.366Z</time></trkpt><trkpt lat="42.7171822" lon="12.0773656"><ele>226.0</ele><time>2026-04-09T15:55:22.371Z</time></trkpt><trkpt lat="42.7171305" lon="12.0772412"><ele>226.0</ele><time>2026-04-09T15:55:24.378Z</time></trkpt><trkpt lat="42.7170926" lon="12.0771696"><ele>225.99999999999997</ele><time>2026-04-09T15:55:26.363Z</time></trkpt><trkpt lat="42.7170511" lon="12.0770593"><ele>226.0</ele><time>2026-04-09T15:56:33.383Z</time></trkpt><trkpt lat="42.7169875" lon="12.076905"><ele>227.0</ele><time>2026-04-09T15:56:35.372Z</time></trkpt><trkpt lat="42.7169485" lon="12.0767976"><ele>228.00000000000003</ele><time>2026-04-09T15:56:36.359Z</time></trkpt><trkpt lat="42.7169008" lon="12.076679"><ele>229.00000000000003</ele><time>2026-04-09T15:56:37.368Z</time></trkpt><trkpt lat="42.7168448" lon="12.0765442"><ele>230.0</ele><time>2026-04-09T15:56:38.366Z</time></trkpt><trkpt lat="42.7167829" lon="12.0764104"><ele>231.0</ele><time>2026-04-09T15:56:39.366Z</time></trkpt><trkpt lat="42.7167276" lon="12.0762911"><ele>234.4</ele><time>2026-04-09T15:56:40.365Z</time></trkpt><trkpt lat="42.7166754" lon="12.0761947"><ele>237.8</ele><time>2026-04-09T15:56:41.371Z</time></trkpt><trkpt lat="42.7166282" lon="12.0761164"><ele>241.20000000000002</ele><time>2026-04-09T15:56:42.365Z</time></trkpt><trkpt lat="42.7165882" lon="12.0760468"><ele>244.60000000000002</ele><time>2026-04-09T15:56:43.367Z</time></trkpt><trkpt lat="42.7165445" lon="12.0759064"><ele>248.0</ele><time>2026-04-09T15:56:45.382Z</time></trkpt><trkpt lat="42.7165136" lon="12.0757507"><ele>248.8</ele><time>2026-04-09T15:56:47.363Z</time></trkpt><trkpt lat="42.7164714" lon="12.0755715"><ele>249.60000000000002</ele><time>2026-04-09T15:56:49.374Z</time></trkpt><trkpt lat="42.7164415" lon="12.0754571"><ele>250.39999999999998</ele><time>2026-04-09T15:56:50.37Z</time></trkpt><trkpt lat="42.7164197" lon="12.0753449"><ele>251.2</ele><time>2026-04-09T15:56:51.38Z</time></trkpt><trkpt lat="42.7164038" lon="12.0752446"><ele>252.0</ele><time>2026-04-09T15:56:52.37Z</time></trkpt><trkpt lat="42.7163954" lon="12.0751577"><ele>252.0</ele><time>2026-04-09T15:56:53.364Z</time></trkpt><trkpt lat="42.716389" lon="12.0750479"><ele>252.0</ele><time>2026-04-09T15:56:55.372Z</time></trkpt><trkpt lat="42.7163734" lon="12.0749099"><ele>252.0</ele><time>2026-04-09T15:56:57.395Z</time></trkpt><trkpt lat="42.7163341" lon="12.0747845"><ele>252.0</ele><time>2026-04-09T15:56:59.532Z</time></trkpt><trkpt lat="42.7162646" lon="12.0746718"><ele>252.0</ele><time>2026-04-09T15:57:01.39Z</time></trkpt><trkpt lat="42.7162197" lon="12.0745977"><ele>253.0</ele><time>2026-04-09T15:57:02.367Z</time></trkpt><trkpt lat="42.7161749" lon="12.0745296"><ele>254.0</ele><time>2026-04-09T15:57:03.37Z</time></trkpt><trkpt lat="42.7161188" lon="12.0744668"><ele>255.0</ele><time>2026-04-09T15:57:04.367Z</time></trkpt><trkpt lat="42.7160567" lon="12.0743898"><ele>256.0</ele><time>2026-04-09T15:57:05.366Z</time></trkpt><trkpt lat="42.7159887" lon="12.0743281"><ele>257.0</ele><time>2026-04-09T15:57:07.371Z</time></trkpt><trkpt lat="42.715896" lon="12.0743398"><ele>258.0</ele><time>2026-04-09T15:57:10.377Z</time></trkpt><trkpt lat="42.7158241" lon="12.0743332"><ele>259.0</ele><time>2026-04-09T15:57:18.374Z</time></trkpt><trkpt lat="42.7157575" lon="12.0743242"><ele>260.0</ele><time>2026-04-09T15:57:22.37Z</time></trkpt><trkpt lat="42.7156948" lon="12.0742781"><ele>261.0</ele><time>2026-04-09T15:57:26.361Z</time></trkpt><trkpt lat="42.7156022" lon="12.0742293"><ele>262.0</ele><time>2026-04-09T15:57:29.36Z</time></trkpt><trkpt lat="42.7154901" lon="12.074147"><ele>263.0</ele><time>2026-04-09T15:57:31.368Z</time></trkpt><trkpt lat="42.7154264" lon="12.0740943"><ele>264.0</ele><time>2026-04-09T15:57:32.381Z</time></trkpt><trkpt lat="42.7153684" lon="12.0740414"><ele>264.8333333333333</ele><time>2026-04-09T15:57:33.378Z</time></trkpt><trkpt lat="42.7153081" lon="12.0739789"><ele>265.6666666666667</ele><time>2026-04-09T15:57:34.37Z</time></trkpt><trkpt lat="42.7152406" lon="12.0739201"><ele>266.5</ele><time>2026-04-09T15:57:35.372Z</time></trkpt><trkpt lat="42.7151769" lon="12.0738725"><ele>267.33333333333337</ele><time>2026-04-09T15:57:36.373Z</time></trkpt><trkpt lat="42.7151147" lon="12.073837"><ele>268.1666666666667</ele><time>2026-04-09T15:57:37.375Z</time></trkpt><trkpt lat="42.7150069" lon="12.0737956"><ele>269.0</ele><time>2026-04-09T15:57:39.401Z</time></trkpt><trkpt lat="42.7149078" lon="12.0737515"><ele>270.42857142857144</ele><time>2026-04-09T15:57:41.394Z</time></trkpt><trkpt lat="42.7148487" lon="12.0736825"><ele>271.8571428571429</ele><time>2026-04-09T15:57:43.421Z</time></trkpt><trkpt lat="42.7148019" lon="12.0736109"><ele>273.2857142857143</ele><time>2026-04-09T15:57:45.41Z</time></trkpt><trkpt lat="42.7147463" lon="12.0735454"><ele>274.7142857142857</ele><time>2026-04-09T15:57:48.397Z</time></trkpt><trkpt lat="42.7146773" lon="12.0735047"><ele>276.1428571428571</ele><time>2026-04-09T15:57:52.372Z</time></trkpt><trkpt lat="42.7146151" lon="12.0734435"><ele>277.57142857142856</ele><time>2026-04-09T15:57:55.374Z</time></trkpt><trkpt lat="42.7145607" lon="12.0733979"><ele>279.0</ele><time>2026-04-09T15:57:57.369Z</time></trkpt><trkpt lat="42.7145059" lon="12.0733465"><ele>279.0</ele><time>2026-04-09T15:57:59.372Z</time></trkpt><trkpt lat="42.714434" lon="12.0732852"><ele>279.0</ele><time>2026-04-09T15:58:02.373Z</time></trkpt><trkpt lat="42.7143773" lon="12.0732256"><ele>279.0</ele><time>2026-04-09T15:58:05.371Z</time></trkpt><trkpt lat="42.7143186" lon="12.0731654"><ele>279.0</ele><time>2026-04-09T15:58:07.374Z</time></trkpt><trkpt lat="42.714238" lon="12.0731001"><ele>279.0</ele><time>2026-04-09T15:58:09.373Z</time></trkpt><trkpt lat="42.7141522" lon="12.0730393"><ele>279.0</ele><time>2026-04-09T15:58:11.382Z</time></trkpt><trkpt lat="42.714091" lon="12.0729592"><ele>281.59999999999997</ele><time>2026-04-09T15:58:13.383Z</time></trkpt><trkpt lat="42.714031" lon="12.0728757"><ele>284.2</ele><time>2026-04-09T15:58:15.381Z</time></trkpt><trkpt lat="42.7139429" lon="12.0727994"><ele>286.79999999999995</ele><time>2026-04-09T15:58:17.391Z</time></trkpt><trkpt lat="42.713848" lon="12.0727221"><ele>289.4</ele><time>2026-04-09T15:58:19.371Z</time></trkpt><trkpt lat="42.7137879" lon="12.0726914"><ele>292.0</ele><time>2026-04-09T15:58:20.379Z</time></trkpt><trkpt lat="42.7136861" lon="12.0726082"><ele>292.0</ele><time>2026-04-09T15:58:22.372Z</time></trkpt><trkpt lat="42.7136002" lon="12.0725124"><ele>292.0</ele><time>2026-04-09T15:58:24.391Z</time></trkpt><trkpt lat="42.713528" lon="12.0724164"><ele>292.0</ele><time>2026-04-09T15:58:26.362Z</time></trkpt><trkpt lat="42.7134747" lon="12.0723043"><ele>292.0</ele><time>2026-04-09T15:58:28.364Z</time></trkpt><trkpt lat="42.7134623" lon="12.0721789"><ele>292.0</ele><time>2026-04-09T15:58:30.362Z</time></trkpt><trkpt lat="42.71346" lon="12.0720632"><ele>294.0</ele><time>2026-04-09T15:58:32.371Z</time></trkpt><trkpt lat="42.7134388" lon="12.0719592"><ele>296.0</ele><time>2026-04-09T15:58:35.366Z</time></trkpt><trkpt lat="42.7133961" lon="12.071883"><ele>298.0</ele><time>2026-04-09T15:58:39.413Z</time></trkpt><trkpt lat="42.7133397" lon="12.0717966"><ele>300.0</ele><time>2026-04-09T15:58:42.386Z</time></trkpt><trkpt lat="42.7132789" lon="12.0716946"><ele>302.0</ele><time>2026-04-09T15:58:44.37Z</time></trkpt><trkpt lat="42.7132141" lon="12.0715643"><ele>304.0</ele><time>2026-04-09T15:58:46.368Z</time></trkpt><trkpt lat="42.7131463" lon="12.071443"><ele>306.0</ele><time>2026-04-09T15:58:48.359Z</time></trkpt><trkpt lat="42.7130799" lon="12.0713094"><ele>308.0</ele><time>2026-04-09T15:58:50.368Z</time></trkpt><trkpt lat="42.7130012" lon="12.0711906"><ele>310.0</ele><time>2026-04-09T15:58:52.372Z</time></trkpt><trkpt lat="42.7129386" lon="12.0710925"><ele>312.0</ele><time>2026-04-09T15:58:54.391Z</time></trkpt><trkpt lat="42.7128691" lon="12.0710189"><ele>314.0</ele><time>2026-04-09T15:58:56.376Z</time></trkpt><trkpt lat="42.7128006" lon="12.070985"><ele>314.0</ele><time>2026-04-09T15:58:58.377Z</time></trkpt></trkseg></trk></gpx>